﻿<?xml version="1.0" encoding="utf-8"?><gpx creator="Garmin Desktop App" version="1.1" xsi:schemaLocation="http://www.topografix.com/GPX/1/1 http://www.topografix.com/GPX/1/1/gpx.xsd http://www.garmin.com/xmlschemas/WaypointExtension/v1 http://www8.garmin.com/xmlschemas/WaypointExtensionv1.xsd http://www.garmin.com/xmlschemas/TrackPointExtension/v1 http://www.garmin.com/xmlschemas/TrackPointExtensionv1.xsd http://www.garmin.com/xmlschemas/GpxExtensions/v3 http://www8.garmin.com/xmlschemas/GpxExtensionsv3.xsd http://www.garmin.com/xmlschemas/ActivityExtension/v1 http://www8.garmin.com/xmlschemas/ActivityExtensionv1.xsd http://www.garmin.com/xmlschemas/AdventuresExtensions/v1 http://www8.garmin.com/xmlschemas/AdventuresExtensionv1.xsd http://www.garmin.com/xmlschemas/PressureExtension/v1 http://www.garmin.com/xmlschemas/PressureExtensionv1.xsd http://www.garmin.com/xmlschemas/TripExtensions/v1 http://www.garmin.com/xmlschemas/TripExtensionsv1.xsd http://www.garmin.com/xmlschemas/TripMetaDataExtensions/v1 http://www.garmin.com/xmlschemas/TripMetaDataExtensionsv1.xsd http://www.garmin.com/xmlschemas/ViaPointTransportationModeExtensions/v1 http://www.garmin.com/xmlschemas/ViaPointTransportationModeExtensionsv1.xsd http://www.garmin.com/xmlschemas/CreationTimeExtension/v1 http://www.garmin.com/xmlschemas/CreationTimeExtensionsv1.xsd http://www.garmin.com/xmlschemas/AccelerationExtension/v1 http://www.garmin.com/xmlschemas/AccelerationExtensionv1.xsd http://www.garmin.com/xmlschemas/PowerExtension/v1 http://www.garmin.com/xmlschemas/PowerExtensionv1.xsd http://www.garmin.com/xmlschemas/VideoExtension/v1 http://www.garmin.com/xmlschemas/VideoExtensionv1.xsd" xmlns="http://www.topografix.com/GPX/1/1" xmlns:xsi="http://www.w3.org/2001/XMLSchema-instance" xmlns:wptx1="http://www.garmin.com/xmlschemas/WaypointExtension/v1" xmlns:gpxtrx="http://www.garmin.com/xmlschemas/GpxExtensions/v3" xmlns:gpxtpx="http://www.garmin.com/xmlschemas/TrackPointExtension/v1" xmlns:gpxx="http://www.garmin.com/xmlschemas/GpxExtensions/v3" xmlns:trp="http://www.garmin.com/xmlschemas/TripExtensions/v1" xmlns:adv="http://www.garmin.com/xmlschemas/AdventuresExtensions/v1" xmlns:prs="http://www.garmin.com/xmlschemas/PressureExtension/v1" xmlns:tmd="http://www.garmin.com/xmlschemas/TripMetaDataExtensions/v1" xmlns:vptm="http://www.garmin.com/xmlschemas/ViaPointTransportationModeExtensions/v1" xmlns:ctx="http://www.garmin.com/xmlschemas/CreationTimeExtension/v1" xmlns:gpxacc="http://www.garmin.com/xmlschemas/AccelerationExtension/v1" xmlns:gpxpx="http://www.garmin.com/xmlschemas/PowerExtension/v1" xmlns:vidx1="http://www.garmin.com/xmlschemas/VideoExtension/v1">

  <metadata>
    <link href="http://www.garmin.com">
      <text>Garmin International</text>
    </link>
    <time>2023-08-23T15:23:45Z</time>
    <bounds maxlat="58.568587973713875" maxlon="-4.3915990088135" minlat="57.967798970639706" minlon="-5.284341014921665" />
  </metadata>

  <trk>
    <name>Track 230823</name>
    <extensions>
      <gpxx:TrackExtension>
        <gpxx:DisplayColor>DarkGray</gpxx:DisplayColor>
      </gpxx:TrackExtension>
    </extensions>
    <trkseg>
      <trkpt lat="57.977878963574767" lon="-4.56590797752142">
        <ele>61.659999999999997</ele>
        <time>2023-08-23T07:46:23Z</time>
      </trkpt>
      <trkpt lat="57.97788399271667" lon="-4.565901020541787">
        <ele>59.259999999999998</ele>
        <time>2023-08-23T07:46:55Z</time>
      </trkpt>
      <trkpt lat="57.977888016030192" lon="-4.565674960613251">
        <ele>59.740000000000002</ele>
        <time>2023-08-23T07:47:03Z</time>
      </trkpt>
      <trkpt lat="57.977888016030192" lon="-4.565674960613251">
        <ele>59.740000000000002</ele>
        <time>2023-08-23T07:47:11Z</time>
      </trkpt>
      <trkpt lat="57.977950964123011" lon="-4.565570019185543">
        <ele>59.259999999999998</ele>
        <time>2023-08-23T07:47:15Z</time>
      </trkpt>
      <trkpt lat="57.978035034611821" lon="-4.565459964796901">
        <ele>60.219999999999999</ele>
        <time>2023-08-23T07:47:29Z</time>
      </trkpt>
      <trkpt lat="57.978116003796458" lon="-4.565397016704083">
        <ele>60.700000000000003</ele>
        <time>2023-08-23T07:47:31Z</time>
      </trkpt>
      <trkpt lat="57.978150034323335" lon="-4.565507993102074">
        <ele>59.740000000000002</ele>
        <time>2023-08-23T07:47:33Z</time>
      </trkpt>
      <trkpt lat="57.978175012394786" lon="-4.565590973943472">
        <ele>59.259999999999998</ele>
        <time>2023-08-23T07:47:34Z</time>
      </trkpt>
      <trkpt lat="57.9782709851861" lon="-4.565904960036278">
        <ele>57.82</ele>
        <time>2023-08-23T07:47:37Z</time>
      </trkpt>
      <trkpt lat="57.978310966864228" lon="-4.566035969182849">
        <ele>56.859999999999999</ele>
        <time>2023-08-23T07:47:38Z</time>
      </trkpt>
      <trkpt lat="57.978346003219485" lon="-4.566152980551124">
        <ele>56.369999999999997</ele>
        <time>2023-08-23T07:47:39Z</time>
      </trkpt>
      <trkpt lat="57.978378022089601" lon="-4.566258005797863">
        <ele>55.890000000000001</ele>
        <time>2023-08-23T07:47:40Z</time>
      </trkpt>
      <trkpt lat="57.978410040959716" lon="-4.566362025216222">
        <ele>54.93</ele>
        <time>2023-08-23T07:47:41Z</time>
      </trkpt>
      <trkpt lat="57.978443987667561" lon="-4.566473001614213">
        <ele>54.450000000000003</ele>
        <time>2023-08-23T07:47:42Z</time>
      </trkpt>
      <trkpt lat="57.978482963517308" lon="-4.566603004932404">
        <ele>53.969999999999999</ele>
        <time>2023-08-23T07:47:43Z</time>
      </trkpt>
      <trkpt lat="57.978524034842849" lon="-4.566758992150426">
        <ele>53.009999999999998</ele>
        <time>2023-08-23T07:47:44Z</time>
      </trkpt>
      <trkpt lat="57.978582037612796" lon="-4.567012963816524">
        <ele>51.57</ele>
        <time>2023-08-23T07:47:46Z</time>
      </trkpt>
      <trkpt lat="57.978674992918968" lon="-4.567415965721011">
        <ele>48.68</ele>
        <time>2023-08-23T07:47:50Z</time>
      </trkpt>
      <trkpt lat="57.978695025667548" lon="-4.567553009837866">
        <ele>48.200000000000003</ele>
        <time>2023-08-23T07:47:51Z</time>
      </trkpt>
      <trkpt lat="57.978695025667548" lon="-4.567643031477928">
        <ele>47.719999999999999</ele>
        <time>2023-08-23T07:47:52Z</time>
      </trkpt>
      <trkpt lat="57.978650014847517" lon="-4.567808993160725">
        <ele>45.32</ele>
        <time>2023-08-23T07:48:00Z</time>
      </trkpt>
      <trkpt lat="57.978640962392092" lon="-4.567891974002123">
        <ele>45.799999999999997</ele>
        <time>2023-08-23T07:48:15Z</time>
      </trkpt>
      <trkpt lat="57.978720003738999" lon="-4.568090038374066">
        <ele>45.799999999999997</ele>
        <time>2023-08-23T07:48:17Z</time>
      </trkpt>
      <trkpt lat="57.978765014559031" lon="-4.568201014772058">
        <ele>44.840000000000003</ele>
        <time>2023-08-23T07:48:18Z</time>
      </trkpt>
      <trkpt lat="57.979204980656505" lon="-4.569467017427087">
        <ele>39.07</ele>
        <time>2023-08-23T07:48:25Z</time>
      </trkpt>
      <trkpt lat="57.979262983426452" lon="-4.569681007415056">
        <ele>38.109999999999999</ele>
        <time>2023-08-23T07:48:26Z</time>
      </trkpt>
      <trkpt lat="57.979599013924599" lon="-4.572229022160173">
        <ele>31.859999999999999</ele>
        <time>2023-08-23T07:48:37Z</time>
      </trkpt>
      <trkpt lat="57.979856003075838" lon="-4.574778964743018">
        <ele>29.940000000000001</ele>
        <time>2023-08-23T07:48:48Z</time>
      </trkpt>
      <trkpt lat="57.979930015280843" lon="-4.57514701411128">
        <ele>28.98</ele>
        <time>2023-08-23T07:48:50Z</time>
      </trkpt>
      <trkpt lat="57.97996899113059" lon="-4.57531800493598">
        <ele>28.98</ele>
        <time>2023-08-23T07:48:51Z</time>
      </trkpt>
      <trkpt lat="57.980338968336582" lon="-4.576705964282155">
        <ele>26.09</ele>
        <time>2023-08-23T07:48:59Z</time>
      </trkpt>
      <trkpt lat="57.981014968827367" lon="-4.578676968812943">
        <ele>18.879999999999999</ele>
        <time>2023-08-23T07:49:09Z</time>
      </trkpt>
      <trkpt lat="57.981093004345894" lon="-4.578836979344487">
        <ele>18.399999999999999</ele>
        <time>2023-08-23T07:49:10Z</time>
      </trkpt>
      <trkpt lat="57.981182020157576" lon="-4.578952984884381">
        <ele>17.440000000000001</ele>
        <time>2023-08-23T07:49:11Z</time>
      </trkpt>
      <trkpt lat="57.981272041797638" lon="-4.579068990424275">
        <ele>16.960000000000001</ele>
        <time>2023-08-23T07:49:12Z</time>
      </trkpt>
      <trkpt lat="57.981689041480422" lon="-4.579428993165493">
        <ele>14.56</ele>
        <time>2023-08-23T07:49:16Z</time>
      </trkpt>
      <trkpt lat="57.98177202232182" lon="-4.579535024240613">
        <ele>14.08</ele>
        <time>2023-08-23T07:49:17Z</time>
      </trkpt>
      <trkpt lat="57.981846034526825" lon="-4.579682964831591">
        <ele>13.6</ele>
        <time>2023-08-23T07:49:18Z</time>
      </trkpt>
      <trkpt lat="57.981919962912798" lon="-4.5798309892416">
        <ele>13.119999999999999</ele>
        <time>2023-08-23T07:49:19Z</time>
      </trkpt>
      <trkpt lat="57.981991963461041" lon="-4.579974990338087">
        <ele>12.630000000000001</ele>
        <time>2023-08-23T07:49:20Z</time>
      </trkpt>
      <trkpt lat="57.982059018686414" lon="-4.580125026404858">
        <ele>12.15</ele>
        <time>2023-08-23T07:49:21Z</time>
      </trkpt>
      <trkpt lat="57.982117021456361" lon="-4.580291993916035">
        <ele>11.67</ele>
        <time>2023-08-23T07:49:22Z</time>
      </trkpt>
      <trkpt lat="57.982176030054688" lon="-4.580466002225876">
        <ele>10.710000000000001</ele>
        <time>2023-08-23T07:49:23Z</time>
      </trkpt>
      <trkpt lat="57.982922019436955" lon="-4.582328964024782">
        <ele>1.1</ele>
        <time>2023-08-23T07:49:33Z</time>
      </trkpt>
      <trkpt lat="57.983094016090035" lon="-4.58264596760273">
        <ele>-1.79</ele>
        <time>2023-08-23T07:49:35Z</time>
      </trkpt>
      <trkpt lat="57.983547979965806" lon="-4.583588009700179">
        <ele>-8.51</ele>
        <time>2023-08-23T07:49:41Z</time>
      </trkpt>
      <trkpt lat="57.983595002442598" lon="-4.583779033273459">
        <ele>-9.48</ele>
        <time>2023-08-23T07:49:42Z</time>
      </trkpt>
      <trkpt lat="57.983607994392514" lon="-4.58395597524941">
        <ele>-10.44</ele>
        <time>2023-08-23T07:49:43Z</time>
      </trkpt>
      <trkpt lat="57.98362098634243" lon="-4.584130989387631">
        <ele>-10.92</ele>
        <time>2023-08-23T07:49:44Z</time>
      </trkpt>
      <trkpt lat="57.983627021312714" lon="-4.584327964112163">
        <ele>-11.880000000000001</ele>
        <time>2023-08-23T07:49:45Z</time>
      </trkpt>
      <trkpt lat="57.983617968857288" lon="-4.584507001563907">
        <ele>-12.359999999999999</ele>
        <time>2023-08-23T07:49:46Z</time>
      </trkpt>
      <trkpt lat="57.983605982735753" lon="-4.58470699377358">
        <ele>-12.84</ele>
        <time>2023-08-23T07:49:47Z</time>
      </trkpt>
      <trkpt lat="57.983579998835921" lon="-4.584873039275408">
        <ele>-13.32</ele>
        <time>2023-08-23T07:49:48Z</time>
      </trkpt>
      <trkpt lat="57.983538005501032" lon="-4.585134973749518">
        <ele>-14.76</ele>
        <time>2023-08-23T07:49:50Z</time>
      </trkpt>
      <trkpt lat="57.983519984409213" lon="-4.585250979289413">
        <ele>-15.24</ele>
        <time>2023-08-23T07:49:51Z</time>
      </trkpt>
      <trkpt lat="57.983501041308045" lon="-4.585365979000926">
        <ele>-15.720000000000001</ele>
        <time>2023-08-23T07:49:52Z</time>
      </trkpt>
      <trkpt lat="57.983482014387846" lon="-4.585490031167865">
        <ele>-16.690000000000001</ele>
        <time>2023-08-23T07:49:53Z</time>
      </trkpt>
      <trkpt lat="57.983460975810885" lon="-4.585619028657675">
        <ele>-17.170000000000002</ele>
        <time>2023-08-23T07:49:54Z</time>
      </trkpt>
      <trkpt lat="57.983440021052957" lon="-4.585754983127117">
        <ele>-17.170000000000002</ele>
        <time>2023-08-23T07:49:55Z</time>
      </trkpt>
      <trkpt lat="57.983215972781181" lon="-4.586657965555787">
        <ele>-19.09</ele>
        <time>2023-08-23T07:50:01Z</time>
      </trkpt>
      <trkpt lat="57.983162999153137" lon="-4.586790986359119">
        <ele>-18.609999999999999</ele>
        <time>2023-08-23T07:50:02Z</time>
      </trkpt>
      <trkpt lat="57.983051016926765" lon="-4.587071025744081">
        <ele>-19.09</ele>
        <time>2023-08-23T07:50:04Z</time>
      </trkpt>
      <trkpt lat="57.982902992516756" lon="-4.587358022108674">
        <ele>-19.57</ele>
        <time>2023-08-23T07:50:06Z</time>
      </trkpt>
      <trkpt lat="57.982902992516756" lon="-4.587358022108674">
        <ele>-19.57</ele>
        <time>2023-08-23T07:50:07Z</time>
      </trkpt>
      <trkpt lat="57.982728984206915" lon="-4.58762900903821">
        <ele>-20.050000000000001</ele>
        <time>2023-08-23T07:50:08Z</time>
      </trkpt>
      <trkpt lat="57.982640974223614" lon="-4.587691035121679">
        <ele>-20.050000000000001</ele>
        <time>2023-08-23T07:50:09Z</time>
      </trkpt>
      <trkpt lat="57.982538966462016" lon="-4.587763035669923">
        <ele>-20.050000000000001</ele>
        <time>2023-08-23T07:50:10Z</time>
      </trkpt>
      <trkpt lat="57.982436958700418" lon="-4.587835036218166">
        <ele>-20.530000000000001</ele>
        <time>2023-08-23T07:50:11Z</time>
      </trkpt>
      <trkpt lat="57.981131980195642" lon="-4.588564010336995">
        <ele>-20.530000000000001</ele>
        <time>2023-08-23T07:50:23Z</time>
      </trkpt>
      <trkpt lat="57.979587027803063" lon="-4.589414019137621">
        <ele>-20.530000000000001</ele>
        <time>2023-08-23T07:50:35Z</time>
      </trkpt>
      <trkpt lat="57.978286994621158" lon="-4.590214993804693">
        <ele>-21.969999999999999</ele>
        <time>2023-08-23T07:50:45Z</time>
      </trkpt>
      <trkpt lat="57.977628009393811" lon="-4.590816982090473">
        <ele>-20.050000000000001</ele>
        <time>2023-08-23T07:50:52Z</time>
      </trkpt>
      <trkpt lat="57.977526001632214" lon="-4.590944973751903">
        <ele>-19.57</ele>
        <time>2023-08-23T07:50:53Z</time>
      </trkpt>
      <trkpt lat="57.977423993870616" lon="-4.591100038960576">
        <ele>-18.609999999999999</ele>
        <time>2023-08-23T07:50:54Z</time>
      </trkpt>
      <trkpt lat="57.977334978058934" lon="-4.591301959007978">
        <ele>-18.129999999999999</ele>
        <time>2023-08-23T07:50:55Z</time>
      </trkpt>
      <trkpt lat="57.977245040237904" lon="-4.591506980359554">
        <ele>-17.649999999999999</ele>
        <time>2023-08-23T07:50:56Z</time>
      </trkpt>
      <trkpt lat="57.9771520011127" lon="-4.591718036681414">
        <ele>-16.690000000000001</ele>
        <time>2023-08-23T07:50:57Z</time>
      </trkpt>
      <trkpt lat="57.977084023877978" lon="-4.591959016397595">
        <ele>-16.210000000000001</ele>
        <time>2023-08-23T07:50:58Z</time>
      </trkpt>
      <trkpt lat="57.97702300362289" lon="-4.592211982235313">
        <ele>-15.720000000000001</ele>
        <time>2023-08-23T07:50:59Z</time>
      </trkpt>
      <trkpt lat="57.97637801617384" lon="-4.594907015562058">
        <ele>-9.960000000000001</ele>
        <time>2023-08-23T07:51:09Z</time>
      </trkpt>
      <trkpt lat="57.97582003287971" lon="-4.597241962328553">
        <ele>-6.11</ele>
        <time>2023-08-23T07:51:18Z</time>
      </trkpt>
      <trkpt lat="57.975244028493762" lon="-4.599483031779528">
        <ele>-4.19</ele>
        <time>2023-08-23T07:51:27Z</time>
      </trkpt>
      <trkpt lat="57.974866004660726" lon="-4.601800041273236">
        <ele>-6.11</ele>
        <time>2023-08-23T07:51:36Z</time>
      </trkpt>
      <trkpt lat="57.974714040756226" lon="-4.604498008266091">
        <ele>-8.51</ele>
        <time>2023-08-23T07:51:47Z</time>
      </trkpt>
      <trkpt lat="57.974683027714491" lon="-4.605243997648358">
        <ele>-9.48</ele>
        <time>2023-08-23T07:51:50Z</time>
      </trkpt>
      <trkpt lat="57.974700964987278" lon="-4.605492018163204">
        <ele>-9.48</ele>
        <time>2023-08-23T07:51:51Z</time>
      </trkpt>
      <trkpt lat="57.974899029359221" lon="-4.608144974336028">
        <ele>-10.44</ele>
        <time>2023-08-23T07:52:01Z</time>
      </trkpt>
      <trkpt lat="57.975079994648695" lon="-4.610851993784308">
        <ele>-11.4</ele>
        <time>2023-08-23T07:52:10Z</time>
      </trkpt>
      <trkpt lat="57.97504797577858" lon="-4.614516980946064">
        <ele>-11.4</ele>
        <time>2023-08-23T07:52:22Z</time>
      </trkpt>
      <trkpt lat="57.975087035447359" lon="-4.616927029564977">
        <ele>-10.92</ele>
        <time>2023-08-23T07:52:30Z</time>
      </trkpt>
      <trkpt lat="57.975075971335173" lon="-4.617230035364628">
        <ele>-10.92</ele>
        <time>2023-08-23T07:52:31Z</time>
      </trkpt>
      <trkpt lat="57.975067002698779" lon="-4.620857974514365">
        <ele>-9.960000000000001</ele>
        <time>2023-08-23T07:52:43Z</time>
      </trkpt>
      <trkpt lat="57.975084017962217" lon="-4.621154023334384">
        <ele>-9.48</ele>
        <time>2023-08-23T07:52:44Z</time>
      </trkpt>
      <trkpt lat="57.975250985473394" lon="-4.623943017795682">
        <ele>-8.51</ele>
        <time>2023-08-23T07:52:53Z</time>
      </trkpt>
      <trkpt lat="57.97528300434351" lon="-4.624579036608338">
        <ele>-8.029999999999999</ele>
        <time>2023-08-23T07:52:55Z</time>
      </trkpt>
      <trkpt lat="57.975288033485413" lon="-4.624867960810661">
        <ele>-8.029999999999999</ele>
        <time>2023-08-23T07:52:56Z</time>
      </trkpt>
      <trkpt lat="57.975179990753531" lon="-4.627791987732053">
        <ele>-8.029999999999999</ele>
        <time>2023-08-23T07:53:06Z</time>
      </trkpt>
      <trkpt lat="57.974932976067066" lon="-4.630715008825064">
        <ele>-8.51</ele>
        <time>2023-08-23T07:53:16Z</time>
      </trkpt>
      <trkpt lat="57.974759973585606" lon="-4.632422989234328">
        <ele>-10.92</ele>
        <time>2023-08-23T07:53:22Z</time>
      </trkpt>
      <trkpt lat="57.974805990234017" lon="-4.635204020887613">
        <ele>-14.279999999999999</ele>
        <time>2023-08-23T07:53:31Z</time>
      </trkpt>
      <trkpt lat="57.974814036861062" lon="-4.635518006980419">
        <ele>-14.76</ele>
        <time>2023-08-23T07:53:32Z</time>
      </trkpt>
      <trkpt lat="57.974820993840694" lon="-4.635834004729986">
        <ele>-14.76</ele>
        <time>2023-08-23T07:53:33Z</time>
      </trkpt>
      <trkpt lat="57.974843960255384" lon="-4.636746039614081">
        <ele>-14.76</ele>
        <time>2023-08-23T07:53:36Z</time>
      </trkpt>
      <trkpt lat="57.974851001054049" lon="-4.63704401627183">
        <ele>-14.76</ele>
        <time>2023-08-23T07:53:37Z</time>
      </trkpt>
      <trkpt lat="57.974890982732177" lon="-4.639446018263698">
        <ele>-15.720000000000001</ele>
        <time>2023-08-23T07:53:45Z</time>
      </trkpt>
      <trkpt lat="57.974771037697792" lon="-4.640595009550452">
        <ele>-14.76</ele>
        <time>2023-08-23T07:53:49Z</time>
      </trkpt>
      <trkpt lat="57.97474698163569" lon="-4.640821991488338">
        <ele>-14.279999999999999</ele>
        <time>2023-08-23T07:53:50Z</time>
      </trkpt>
      <trkpt lat="57.974786041304469" lon="-4.641133965924382">
        <ele>-14.279999999999999</ele>
        <time>2023-08-23T07:53:51Z</time>
      </trkpt>
      <trkpt lat="57.974818982183933" lon="-4.641395984217525">
        <ele>-14.279999999999999</ele>
        <time>2023-08-23T07:53:52Z</time>
      </trkpt>
      <trkpt lat="57.97485401853919" lon="-4.641680968925357">
        <ele>-14.76</ele>
        <time>2023-08-23T07:53:53Z</time>
      </trkpt>
      <trkpt lat="57.974929036572576" lon="-4.641918009147048">
        <ele>-15.24</ele>
        <time>2023-08-23T07:53:54Z</time>
      </trkpt>
      <trkpt lat="57.975008999928832" lon="-4.642171980813146">
        <ele>-15.24</ele>
        <time>2023-08-23T07:53:55Z</time>
      </trkpt>
      <trkpt lat="57.97537000849843" lon="-4.643893036991358">
        <ele>-15.24</ele>
        <time>2023-08-23T07:54:02Z</time>
      </trkpt>
      <trkpt lat="57.975381994619966" lon="-4.644146002829075">
        <ele>-15.24</ele>
        <time>2023-08-23T07:54:03Z</time>
      </trkpt>
      <trkpt lat="57.975375959649682" lon="-4.644387988373637">
        <ele>-15.24</ele>
        <time>2023-08-23T07:54:04Z</time>
      </trkpt>
      <trkpt lat="57.975322986021638" lon="-4.644640032202005">
        <ele>-15.24</ele>
        <time>2023-08-23T07:54:05Z</time>
      </trkpt>
      <trkpt lat="57.975266994908452" lon="-4.644901966676116">
        <ele>-14.76</ele>
        <time>2023-08-23T07:54:06Z</time>
      </trkpt>
      <trkpt lat="57.975209997966886" lon="-4.645168008282781">
        <ele>-14.76</ele>
        <time>2023-08-23T07:54:07Z</time>
      </trkpt>
      <trkpt lat="57.97479098662734" lon="-4.647276978939772">
        <ele>-11.4</ele>
        <time>2023-08-23T07:54:15Z</time>
      </trkpt>
      <trkpt lat="57.974742958322167" lon="-4.647738989442587">
        <ele>-10.92</ele>
        <time>2023-08-23T07:54:17Z</time>
      </trkpt>
      <trkpt lat="57.974739018827677" lon="-4.647987009957433">
        <ele>-10.44</ele>
        <time>2023-08-23T07:54:18Z</time>
      </trkpt>
      <trkpt lat="57.97472502104938" lon="-4.648719001561403">
        <ele>-9.960000000000001</ele>
        <time>2023-08-23T07:54:21Z</time>
      </trkpt>
      <trkpt lat="57.974669029936194" lon="-4.648993005976081">
        <ele>-9.48</ele>
        <time>2023-08-23T07:54:22Z</time>
      </trkpt>
      <trkpt lat="57.974616978317499" lon="-4.649246977642179">
        <ele>-8.51</ele>
        <time>2023-08-23T07:54:23Z</time>
      </trkpt>
      <trkpt lat="57.974564004689455" lon="-4.649505978450179">
        <ele>-8.029999999999999</ele>
        <time>2023-08-23T07:54:24Z</time>
      </trkpt>
      <trkpt lat="57.974506001919508" lon="-4.649740001186729">
        <ele>-7.55</ele>
        <time>2023-08-23T07:54:25Z</time>
      </trkpt>
      <trkpt lat="57.9744269605726" lon="-4.649968994781375">
        <ele>-6.59</ele>
        <time>2023-08-23T07:54:26Z</time>
      </trkpt>
      <trkpt lat="57.97407902777195" lon="-4.650825038552284">
        <ele>-2.27</ele>
        <time>2023-08-23T07:54:30Z</time>
      </trkpt>
      <trkpt lat="57.973975008353591" lon="-4.6510090213269">
        <ele>-1.3</ele>
        <time>2023-08-23T07:54:31Z</time>
      </trkpt>
      <trkpt lat="57.973518026992679" lon="-4.651780994608998">
        <ele>2.54</ele>
        <time>2023-08-23T07:54:35Z</time>
      </trkpt>
      <trkpt lat="57.973429011180997" lon="-4.652010994032025">
        <ele>3.5</ele>
        <time>2023-08-23T07:54:36Z</time>
      </trkpt>
      <trkpt lat="57.973074037581682" lon="-4.652930991724134">
        <ele>6.87</ele>
        <time>2023-08-23T07:54:40Z</time>
      </trkpt>
      <trkpt lat="57.972972029820085" lon="-4.653099970892072">
        <ele>7.83</ele>
        <time>2023-08-23T07:54:41Z</time>
      </trkpt>
      <trkpt lat="57.972859963774681" lon="-4.653257969766855">
        <ele>8.789999999999999</ele>
        <time>2023-08-23T07:54:42Z</time>
      </trkpt>
      <trkpt lat="57.972731972113252" lon="-4.653371041640639">
        <ele>9.27</ele>
        <time>2023-08-23T07:54:43Z</time>
      </trkpt>
      <trkpt lat="57.972595011815429" lon="-4.653476988896728">
        <ele>10.23</ele>
        <time>2023-08-23T07:54:44Z</time>
      </trkpt>
      <trkpt lat="57.972456961870193" lon="-4.653584025800228">
        <ele>10.710000000000001</ele>
        <time>2023-08-23T07:54:45Z</time>
      </trkpt>
      <trkpt lat="57.972179017961025" lon="-4.653799021616578">
        <ele>12.15</ele>
        <time>2023-08-23T07:54:47Z</time>
      </trkpt>
      <trkpt lat="57.972056977450848" lon="-4.653988033533096">
        <ele>12.630000000000001</ele>
        <time>2023-08-23T07:54:48Z</time>
      </trkpt>
      <trkpt lat="57.971938960254192" lon="-4.654175033792853">
        <ele>13.119999999999999</ele>
        <time>2023-08-23T07:54:49Z</time>
      </trkpt>
      <trkpt lat="57.971096998080611" lon="-4.656126005575061">
        <ele>18.399999999999999</ele>
        <time>2023-08-23T07:54:58Z</time>
      </trkpt>
      <trkpt lat="57.971046036109328" lon="-4.656408978626132">
        <ele>18.879999999999999</ele>
        <time>2023-08-23T07:54:59Z</time>
      </trkpt>
      <trkpt lat="57.971004964783788" lon="-4.656695974990726">
        <ele>19.359999999999999</ele>
        <time>2023-08-23T07:55:00Z</time>
      </trkpt>
      <trkpt lat="57.970962971448898" lon="-4.656988000497222">
        <ele>20.32</ele>
        <time>2023-08-23T07:55:01Z</time>
      </trkpt>
      <trkpt lat="57.970926007255912" lon="-4.657292012125254">
        <ele>20.809999999999999</ele>
        <time>2023-08-23T07:55:02Z</time>
      </trkpt>
      <trkpt lat="57.970915026962757" lon="-4.65760700404644">
        <ele>20.809999999999999</ele>
        <time>2023-08-23T07:55:03Z</time>
      </trkpt>
      <trkpt lat="57.970789968967438" lon="-4.661151962354779">
        <ele>26.09</ele>
        <time>2023-08-23T07:55:14Z</time>
      </trkpt>
      <trkpt lat="57.970728026703" lon="-4.663983033969998">
        <ele>29.460000000000001</ele>
        <time>2023-08-23T07:55:23Z</time>
      </trkpt>
      <trkpt lat="57.970739006996155" lon="-4.664312023669481">
        <ele>29.460000000000001</ele>
        <time>2023-08-23T07:55:24Z</time>
      </trkpt>
      <trkpt lat="57.970966994762421" lon="-4.66688702814281">
        <ele>29.460000000000001</ele>
        <time>2023-08-23T07:55:32Z</time>
      </trkpt>
      <trkpt lat="57.971321968361735" lon="-4.669035980477929">
        <ele>29.460000000000001</ele>
        <time>2023-08-23T07:55:39Z</time>
      </trkpt>
      <trkpt lat="57.971762018278241" lon="-4.671511994674802">
        <ele>28.98</ele>
        <time>2023-08-23T07:55:47Z</time>
      </trkpt>
      <trkpt lat="57.971924962475896" lon="-4.672430986538529">
        <ele>28.98</ele>
        <time>2023-08-23T07:55:50Z</time>
      </trkpt>
      <trkpt lat="57.972328970208764" lon="-4.675178993493319">
        <ele>29.460000000000001</ele>
        <time>2023-08-23T07:55:59Z</time>
      </trkpt>
      <trkpt lat="57.972432989627123" lon="-4.67578299343586">
        <ele>29.460000000000001</ele>
        <time>2023-08-23T07:56:01Z</time>
      </trkpt>
      <trkpt lat="57.972642034292221" lon="-4.678051974624395">
        <ele>31.859999999999999</ele>
        <time>2023-08-23T07:56:08Z</time>
      </trkpt>
      <trkpt lat="57.972756028175354" lon="-4.679345972836018">
        <ele>33.299999999999997</ele>
        <time>2023-08-23T07:56:13Z</time>
      </trkpt>
      <trkpt lat="57.97279299236834" lon="-4.680001018568873">
        <ele>33.780000000000001</ele>
        <time>2023-08-23T07:56:14Z</time>
      </trkpt>
      <trkpt lat="57.972940010949969" lon="-4.683322012424469">
        <ele>35.229999999999997</ele>
        <time>2023-08-23T07:56:24Z</time>
      </trkpt>
      <trkpt lat="57.973037995398045" lon="-4.685547994449735">
        <ele>35.710000000000001</ele>
        <time>2023-08-23T07:56:31Z</time>
      </trkpt>
      <trkpt lat="57.973048975691199" lon="-4.685799032449722">
        <ele>35.710000000000001</ele>
        <time>2023-08-23T07:56:32Z</time>
      </trkpt>
      <trkpt lat="57.973133968189359" lon="-4.68775101006031">
        <ele>36.670000000000002</ele>
        <time>2023-08-23T07:56:39Z</time>
      </trkpt>
      <trkpt lat="57.973146038129926" lon="-4.688043035566807">
        <ele>36.670000000000002</ele>
        <time>2023-08-23T07:56:40Z</time>
      </trkpt>
      <trkpt lat="57.973149977624416" lon="-4.688639994710684">
        <ele>36.189999999999998</ele>
        <time>2023-08-23T07:56:42Z</time>
      </trkpt>
      <trkpt lat="57.973140003159642" lon="-4.688950041308999">
        <ele>36.189999999999998</ele>
        <time>2023-08-23T07:56:43Z</time>
      </trkpt>
      <trkpt lat="57.97302802093327" lon="-4.689881019294262">
        <ele>35.229999999999997</ele>
        <time>2023-08-23T07:56:46Z</time>
      </trkpt>
      <trkpt lat="57.972971023991704" lon="-4.690176984295249">
        <ele>35.229999999999997</ele>
        <time>2023-08-23T07:56:47Z</time>
      </trkpt>
      <trkpt lat="57.972900029271841" lon="-4.690460963174701">
        <ele>34.740000000000002</ele>
        <time>2023-08-23T07:56:48Z</time>
      </trkpt>
      <trkpt lat="57.972809001803398" lon="-4.690729016438127">
        <ele>34.740000000000002</ele>
        <time>2023-08-23T07:56:49Z</time>
      </trkpt>
      <trkpt lat="57.972712023183703" lon="-4.690988017246127">
        <ele>34.740000000000002</ele>
        <time>2023-08-23T07:56:50Z</time>
      </trkpt>
      <trkpt lat="57.972600040957332" lon="-4.691219022497535">
        <ele>34.740000000000002</ele>
        <time>2023-08-23T07:56:51Z</time>
      </trkpt>
      <trkpt lat="57.972485041245818" lon="-4.691438963636756">
        <ele>35.229999999999997</ele>
        <time>2023-08-23T07:56:52Z</time>
      </trkpt>
      <trkpt lat="57.972356965765357" lon="-4.691647002473474">
        <ele>35.229999999999997</ele>
        <time>2023-08-23T07:56:53Z</time>
      </trkpt>
      <trkpt lat="57.972095031291246" lon="-4.692062996327877">
        <ele>35.710000000000001</ele>
        <time>2023-08-23T07:56:55Z</time>
      </trkpt>
      <trkpt lat="57.971967039629817" lon="-4.692263994365931">
        <ele>35.710000000000001</ele>
        <time>2023-08-23T07:56:56Z</time>
      </trkpt>
      <trkpt lat="57.970740012824535" lon="-4.694095021113753">
        <ele>38.590000000000003</ele>
        <time>2023-08-23T07:57:06Z</time>
      </trkpt>
      <trkpt lat="57.970625013113022" lon="-4.694267017766833">
        <ele>39.07</ele>
        <time>2023-08-23T07:57:07Z</time>
      </trkpt>
      <trkpt lat="57.97051495872438" lon="-4.694472039118409">
        <ele>39.549999999999997</ele>
        <time>2023-08-23T07:57:08Z</time>
      </trkpt>
      <trkpt lat="57.969914982095361" lon="-4.696056973189116">
        <ele>43.399999999999999</ele>
        <time>2023-08-23T07:57:15Z</time>
      </trkpt>
      <trkpt lat="57.969873994588852" lon="-4.696325026452541">
        <ele>43.880000000000003</ele>
        <time>2023-08-23T07:57:16Z</time>
      </trkpt>
      <trkpt lat="57.969832001253963" lon="-4.6966000366956">
        <ele>44.840000000000003</ele>
        <time>2023-08-23T07:57:17Z</time>
      </trkpt>
      <trkpt lat="57.969789002090693" lon="-4.69688200391829">
        <ele>46.280000000000001</ele>
        <time>2023-08-23T07:57:18Z</time>
      </trkpt>
      <trkpt lat="57.969766035676003" lon="-4.697167994454503">
        <ele>47.719999999999999</ele>
        <time>2023-08-23T07:57:19Z</time>
      </trkpt>
      <trkpt lat="57.96946001239121" lon="-4.70029997639358">
        <ele>58.299999999999997</ele>
        <time>2023-08-23T07:57:30Z</time>
      </trkpt>
      <trkpt lat="57.96903002075851" lon="-4.702943963930011">
        <ele>60.700000000000003</ele>
        <time>2023-08-23T07:57:40Z</time>
      </trkpt>
      <trkpt lat="57.968639004975557" lon="-4.70631399191916">
        <ele>64.069999999999993</ele>
        <time>2023-08-23T07:57:52Z</time>
      </trkpt>
      <trkpt lat="57.968478994444013" lon="-4.709116984158754">
        <ele>71.269999999999996</ele>
        <time>2023-08-23T07:58:02Z</time>
      </trkpt>
      <trkpt lat="57.968310015276074" lon="-4.711963981389999">
        <ele>73.680000000000007</ele>
        <time>2023-08-23T07:58:12Z</time>
      </trkpt>
      <trkpt lat="57.968360977247357" lon="-4.712508972734213">
        <ele>74.159999999999997</ele>
        <time>2023-08-23T07:58:14Z</time>
      </trkpt>
      <trkpt lat="57.968471031636" lon="-4.714659014716744">
        <ele>76.079999999999998</ele>
        <time>2023-08-23T07:58:22Z</time>
      </trkpt>
      <trkpt lat="57.968272967264056" lon="-4.718512007966638">
        <ele>72.719999999999999</ele>
        <time>2023-08-23T07:58:34Z</time>
      </trkpt>
      <trkpt lat="57.968032993376255" lon="-4.721744991838932">
        <ele>69.349999999999994</ele>
        <time>2023-08-23T07:58:44Z</time>
      </trkpt>
      <trkpt lat="57.968012038618326" lon="-4.72202000208199">
        <ele>68.870000000000005</ele>
        <time>2023-08-23T07:58:45Z</time>
      </trkpt>
      <trkpt lat="57.968026958405972" lon="-4.722285037860274">
        <ele>68.870000000000005</ele>
        <time>2023-08-23T07:58:46Z</time>
      </trkpt>
      <trkpt lat="57.968047996982932" lon="-4.722553007304668">
        <ele>68.390000000000001</ele>
        <time>2023-08-23T07:58:47Z</time>
      </trkpt>
      <trkpt lat="57.968069035559893" lon="-4.722830029204488">
        <ele>68.390000000000001</ele>
        <time>2023-08-23T07:58:48Z</time>
      </trkpt>
      <trkpt lat="57.968092001974583" lon="-4.723113002255559">
        <ele>67.909999999999997</ele>
        <time>2023-08-23T07:58:49Z</time>
      </trkpt>
      <trkpt lat="57.968184035271406" lon="-4.725736035034061">
        <ele>64.549999999999997</ele>
        <time>2023-08-23T07:58:58Z</time>
      </trkpt>
      <trkpt lat="57.968118991702795" lon="-4.72893700003624">
        <ele>51.57</ele>
        <time>2023-08-23T07:59:09Z</time>
      </trkpt>
      <trkpt lat="57.968089990317822" lon="-4.729174040257931">
        <ele>48.68</ele>
        <time>2023-08-23T07:59:11Z</time>
      </trkpt>
      <trkpt lat="57.968029975891113" lon="-4.729618029668927">
        <ele>47.719999999999999</ele>
        <time>2023-08-23T07:59:12Z</time>
      </trkpt>
      <trkpt lat="57.96782998368144" lon="-4.730800967663527">
        <ele>41.469999999999999</ele>
        <time>2023-08-23T07:59:17Z</time>
      </trkpt>
      <trkpt lat="57.967798970639706" lon="-4.731066003441811">
        <ele>40.509999999999998</ele>
        <time>2023-08-23T07:59:18Z</time>
      </trkpt>
      <trkpt lat="57.967817997559905" lon="-4.731319975107908">
        <ele>40.030000000000001</ele>
        <time>2023-08-23T07:59:19Z</time>
      </trkpt>
      <trkpt lat="57.967836018651724" lon="-4.731569001451135">
        <ele>39.549999999999997</ele>
        <time>2023-08-23T07:59:20Z</time>
      </trkpt>
      <trkpt lat="57.967853033915162" lon="-4.731804030016065">
        <ele>39.07</ele>
        <time>2023-08-23T07:59:21Z</time>
      </trkpt>
      <trkpt lat="57.967869965359569" lon="-4.732021959498525">
        <ele>38.590000000000003</ele>
        <time>2023-08-23T07:59:22Z</time>
      </trkpt>
      <trkpt lat="57.968133995309472" lon="-4.734279038384557">
        <ele>37.630000000000003</ele>
        <time>2023-08-23T07:59:32Z</time>
      </trkpt>
      <trkpt lat="57.96873296611011" lon="-4.737846041098237">
        <ele>39.07</ele>
        <time>2023-08-23T07:59:45Z</time>
      </trkpt>
      <trkpt lat="57.969061033800244" lon="-4.740744000300765">
        <ele>44.840000000000003</ele>
        <time>2023-08-23T07:59:55Z</time>
      </trkpt>
      <trkpt lat="57.96946001239121" lon="-4.743939014151692">
        <ele>48.68</ele>
        <time>2023-08-23T08:00:06Z</time>
      </trkpt>
      <trkpt lat="57.969950018450618" lon="-4.746817024424672">
        <ele>49.159999999999997</ele>
        <time>2023-08-23T08:00:16Z</time>
      </trkpt>
      <trkpt lat="57.970032999292016" lon="-4.750179005786777">
        <ele>51.57</ele>
        <time>2023-08-23T08:00:27Z</time>
      </trkpt>
      <trkpt lat="57.970155039802194" lon="-4.751359010115266">
        <ele>51.57</ele>
        <time>2023-08-23T08:00:31Z</time>
      </trkpt>
      <trkpt lat="57.970219999551773" lon="-4.751638965681195">
        <ele>52.049999999999997</ele>
        <time>2023-08-23T08:00:32Z</time>
      </trkpt>
      <trkpt lat="57.970597017556429" lon="-4.752989038825035">
        <ele>53.009999999999998</ele>
        <time>2023-08-23T08:00:37Z</time>
      </trkpt>
      <trkpt lat="57.970634987577796" lon="-4.753253990784288">
        <ele>53.009999999999998</ele>
        <time>2023-08-23T08:00:38Z</time>
      </trkpt>
      <trkpt lat="57.970655020326376" lon="-4.753524977713823">
        <ele>53.490000000000002</ele>
        <time>2023-08-23T08:00:39Z</time>
      </trkpt>
      <trkpt lat="57.970675975084305" lon="-4.753805017098784">
        <ele>53.969999999999999</ele>
        <time>2023-08-23T08:00:40Z</time>
      </trkpt>
      <trkpt lat="57.970698019489646" lon="-4.754087990149856">
        <ele>54.450000000000003</ele>
        <time>2023-08-23T08:00:41Z</time>
      </trkpt>
      <trkpt lat="57.970898011699319" lon="-4.756152033805847">
        <ele>57.340000000000003</ele>
        <time>2023-08-23T08:00:48Z</time>
      </trkpt>
      <trkpt lat="57.970903962850571" lon="-4.756432995200157">
        <ele>57.82</ele>
        <time>2023-08-23T08:00:49Z</time>
      </trkpt>
      <trkpt lat="57.970887031406164" lon="-4.756705993786454">
        <ele>57.82</ele>
        <time>2023-08-23T08:00:50Z</time>
      </trkpt>
      <trkpt lat="57.970819976180792" lon="-4.759370014071465">
        <ele>61.659999999999997</ele>
        <time>2023-08-23T08:00:59Z</time>
      </trkpt>
      <trkpt lat="57.970786029472947" lon="-4.759648041799665">
        <ele>62.140000000000001</ele>
        <time>2023-08-23T08:01:00Z</time>
      </trkpt>
      <trkpt lat="57.97075099311769" lon="-4.759922968223691">
        <ele>62.619999999999997</ele>
        <time>2023-08-23T08:01:01Z</time>
      </trkpt>
      <trkpt lat="57.970654014497995" lon="-4.760687984526157">
        <ele>63.579999999999998</ele>
        <time>2023-08-23T08:01:04Z</time>
      </trkpt>
      <trkpt lat="57.970628030598164" lon="-4.760922007262707">
        <ele>63.579999999999998</ele>
        <time>2023-08-23T08:01:05Z</time>
      </trkpt>
      <trkpt lat="57.970638005062938" lon="-4.761176984757185">
        <ele>64.069999999999993</ele>
        <time>2023-08-23T08:01:06Z</time>
      </trkpt>
      <trkpt lat="57.970928018912673" lon="-4.763780990615487">
        <ele>66.950000000000003</ele>
        <time>2023-08-23T08:01:15Z</time>
      </trkpt>
      <trkpt lat="57.971448032185435" lon="-4.766266979277134">
        <ele>67.430000000000007</ele>
        <time>2023-08-23T08:01:24Z</time>
      </trkpt>
      <trkpt lat="57.971939966082573" lon="-4.768644003197551">
        <ele>66.469999999999999</ele>
        <time>2023-08-23T08:01:33Z</time>
      </trkpt>
      <trkpt lat="57.971996041014791" lon="-4.76888095960021">
        <ele>66.469999999999999</ele>
        <time>2023-08-23T08:01:34Z</time>
      </trkpt>
      <trkpt lat="57.972064018249512" lon="-4.769109031185508">
        <ele>66.469999999999999</ele>
        <time>2023-08-23T08:01:35Z</time>
      </trkpt>
      <trkpt lat="57.972273984923959" lon="-4.769810009747744">
        <ele>65.989999999999995</ele>
        <time>2023-08-23T08:01:38Z</time>
      </trkpt>
      <trkpt lat="57.97229896299541" lon="-4.770072028040886">
        <ele>65.989999999999995</ele>
        <time>2023-08-23T08:01:39Z</time>
      </trkpt>
      <trkpt lat="57.97231899574399" lon="-4.770333962514997">
        <ele>65.989999999999995</ele>
        <time>2023-08-23T08:01:40Z</time>
      </trkpt>
      <trkpt lat="57.972315978258848" lon="-4.771929038688541">
        <ele>65.510000000000005</ele>
        <time>2023-08-23T08:01:47Z</time>
      </trkpt>
      <trkpt lat="57.972337016835809" lon="-4.772997982800007">
        <ele>64.549999999999997</ele>
        <time>2023-08-23T08:01:51Z</time>
      </trkpt>
      <trkpt lat="57.972364006564021" lon="-4.773246003314853">
        <ele>64.069999999999993</ele>
        <time>2023-08-23T08:01:52Z</time>
      </trkpt>
      <trkpt lat="57.972424020990729" lon="-4.773466028273106">
        <ele>63.579999999999998</ele>
        <time>2023-08-23T08:01:53Z</time>
      </trkpt>
      <trkpt lat="57.972486969083548" lon="-4.773686975240707">
        <ele>63.100000000000001</ele>
        <time>2023-08-23T08:01:54Z</time>
      </trkpt>
      <trkpt lat="57.972560981288552" lon="-4.773904988542199">
        <ele>62.619999999999997</ele>
        <time>2023-08-23T08:01:55Z</time>
      </trkpt>
      <trkpt lat="57.97266298905015" lon="-4.774092994630337">
        <ele>62.140000000000001</ele>
        <time>2023-08-23T08:01:56Z</time>
      </trkpt>
      <trkpt lat="57.972771031782031" lon="-4.774289969354868">
        <ele>61.659999999999997</ele>
        <time>2023-08-23T08:01:57Z</time>
      </trkpt>
      <trkpt lat="57.973206974565983" lon="-4.775097984820604">
        <ele>60.219999999999999</ele>
        <time>2023-08-23T08:02:01Z</time>
      </trkpt>
      <trkpt lat="57.97356303781271" lon="-4.776301961392164">
        <ele>60.700000000000003</ele>
        <time>2023-08-23T08:02:06Z</time>
      </trkpt>
      <trkpt lat="57.973605031147599" lon="-4.776580994948745">
        <ele>61.18</ele>
        <time>2023-08-23T08:02:07Z</time>
      </trkpt>
      <trkpt lat="57.97363000921905" lon="-4.776856005191803">
        <ele>61.18</ele>
        <time>2023-08-23T08:02:08Z</time>
      </trkpt>
      <trkpt lat="57.973677031695843" lon="-4.777433015406132">
        <ele>62.140000000000001</ele>
        <time>2023-08-23T08:02:10Z</time>
      </trkpt>
      <trkpt lat="57.973736962303519" lon="-4.779732003808022">
        <ele>64.069999999999993</ele>
        <time>2023-08-23T08:02:18Z</time>
      </trkpt>
      <trkpt lat="57.973712990060449" lon="-4.779977006837726">
        <ele>64.069999999999993</ele>
        <time>2023-08-23T08:02:19Z</time>
      </trkpt>
      <trkpt lat="57.973683988675475" lon="-4.78020298294723">
        <ele>64.549999999999997</ele>
        <time>2023-08-23T08:02:20Z</time>
      </trkpt>
      <trkpt lat="57.973624980077147" lon="-4.780655018985272">
        <ele>64.069999999999993</ele>
        <time>2023-08-23T08:02:22Z</time>
      </trkpt>
      <trkpt lat="57.97362900339067" lon="-4.780873032286763">
        <ele>63.579999999999998</ele>
        <time>2023-08-23T08:02:23Z</time>
      </trkpt>
      <trkpt lat="57.973667979240417" lon="-4.781076963990927">
        <ele>63.579999999999998</ele>
        <time>2023-08-23T08:02:24Z</time>
      </trkpt>
      <trkpt lat="57.973711984232068" lon="-4.781271005049348">
        <ele>63.100000000000001</ele>
        <time>2023-08-23T08:02:25Z</time>
      </trkpt>
      <trkpt lat="57.973774010315537" lon="-4.781456999480724">
        <ele>63.100000000000001</ele>
        <time>2023-08-23T08:02:26Z</time>
      </trkpt>
      <trkpt lat="57.973836958408356" lon="-4.781646011397243">
        <ele>63.100000000000001</ele>
        <time>2023-08-23T08:02:27Z</time>
      </trkpt>
      <trkpt lat="57.974315984174609" lon="-4.783194987103343">
        <ele>64.069999999999993</ele>
        <time>2023-08-23T08:02:35Z</time>
      </trkpt>
      <trkpt lat="57.974341968074441" lon="-4.783422974869609">
        <ele>64.549999999999997</ele>
        <time>2023-08-23T08:02:36Z</time>
      </trkpt>
      <trkpt lat="57.974369041621685" lon="-4.783653980121017">
        <ele>64.549999999999997</ele>
        <time>2023-08-23T08:02:37Z</time>
      </trkpt>
      <trkpt lat="57.974416986107826" lon="-4.784078020602465">
        <ele>64.549999999999997</ele>
        <time>2023-08-23T08:02:39Z</time>
      </trkpt>
      <trkpt lat="57.974438024684787" lon="-4.784255968406797">
        <ele>64.549999999999997</ele>
        <time>2023-08-23T08:02:40Z</time>
      </trkpt>
      <trkpt lat="57.974481023848057" lon="-4.784406004473567">
        <ele>64.549999999999997</ele>
        <time>2023-08-23T08:02:41Z</time>
      </trkpt>
      <trkpt lat="57.974538020789623" lon="-4.784531984478235">
        <ele>64.069999999999993</ele>
        <time>2023-08-23T08:02:42Z</time>
      </trkpt>
      <trkpt lat="57.974615972489119" lon="-4.784619994461536">
        <ele>64.069999999999993</ele>
        <time>2023-08-23T08:02:43Z</time>
      </trkpt>
      <trkpt lat="57.974712029099464" lon="-4.784700041636825">
        <ele>64.069999999999993</ele>
        <time>2023-08-23T08:02:44Z</time>
      </trkpt>
      <trkpt lat="57.975790025666356" lon="-4.785343017429113">
        <ele>62.619999999999997</ele>
        <time>2023-08-23T08:02:52Z</time>
      </trkpt>
      <trkpt lat="57.9767029825598" lon="-4.78559497743845">
        <ele>64.549999999999997</ele>
        <time>2023-08-23T08:02:58Z</time>
      </trkpt>
      <trkpt lat="57.976826028898358" lon="-4.785679969936609">
        <ele>65.030000000000001</ele>
        <time>2023-08-23T08:02:59Z</time>
      </trkpt>
      <trkpt lat="57.976941028609872" lon="-4.785802010446787">
        <ele>65.030000000000001</ele>
        <time>2023-08-23T08:03:00Z</time>
      </trkpt>
      <trkpt lat="57.977048987522721" lon="-4.785968977957964">
        <ele>65.510000000000005</ele>
        <time>2023-08-23T08:03:01Z</time>
      </trkpt>
      <trkpt lat="57.977161975577474" lon="-4.786143992096186">
        <ele>65.510000000000005</ele>
        <time>2023-08-23T08:03:02Z</time>
      </trkpt>
      <trkpt lat="57.978858975693583" lon="-4.78890297934413">
        <ele>73.200000000000003</ele>
        <time>2023-08-23T08:03:16Z</time>
      </trkpt>
      <trkpt lat="57.980108968913555" lon="-4.791169026866555">
        <ele>79.450000000000003</ele>
        <time>2023-08-23T08:03:27Z</time>
      </trkpt>
      <trkpt lat="57.980904998257756" lon="-4.793301969766617">
        <ele>83.769999999999996</ele>
        <time>2023-08-23T08:03:37Z</time>
      </trkpt>
      <trkpt lat="57.982002021744847" lon="-4.796376032754779">
        <ele>90.980000000000004</ele>
        <time>2023-08-23T08:03:49Z</time>
      </trkpt>
      <trkpt lat="57.982945991680026" lon="-4.799126973375678">
        <ele>99.629999999999995</ele>
        <time>2023-08-23T08:04:00Z</time>
      </trkpt>
      <trkpt lat="57.983883004635572" lon="-4.803288001567125">
        <ele>111.65000000000001</ele>
        <time>2023-08-23T08:04:14Z</time>
      </trkpt>
      <trkpt lat="57.984956977888942" lon="-4.806745033711195">
        <ele>121.73999999999999</ele>
        <time>2023-08-23T08:04:26Z</time>
      </trkpt>
      <trkpt lat="57.986720027402043" lon="-4.809522964060307">
        <ele>132.80000000000001</ele>
        <time>2023-08-23T08:04:39Z</time>
      </trkpt>
      <trkpt lat="57.986986991018057" lon="-4.809755980968475">
        <ele>134.72</ele>
        <time>2023-08-23T08:04:41Z</time>
      </trkpt>
      <trkpt lat="57.987726023420691" lon="-4.810399962589145">
        <ele>139.53</ele>
        <time>2023-08-23T08:04:49Z</time>
      </trkpt>
      <trkpt lat="57.988676028326154" lon="-4.811587007716298">
        <ele>141.44999999999999</ele>
        <time>2023-08-23T08:04:58Z</time>
      </trkpt>
      <trkpt lat="57.989740027114749" lon="-4.813543008640409">
        <ele>143.84999999999999</ele>
        <time>2023-08-23T08:05:08Z</time>
      </trkpt>
      <trkpt lat="57.990751974284649" lon="-4.81543798930943">
        <ele>146.74000000000001</ele>
        <time>2023-08-23T08:05:18Z</time>
      </trkpt>
      <trkpt lat="57.990862028673291" lon="-4.815541002899408">
        <ele>147.22</ele>
        <time>2023-08-23T08:05:19Z</time>
      </trkpt>
      <trkpt lat="57.99096898175776" lon="-4.815640999004245">
        <ele>147.22</ele>
        <time>2023-08-23T08:05:20Z</time>
      </trkpt>
      <trkpt lat="57.991078030318022" lon="-4.81571601703763">
        <ele>147.22</ele>
        <time>2023-08-23T08:05:21Z</time>
      </trkpt>
      <trkpt lat="57.991194035857916" lon="-4.815777037292719">
        <ele>147.22</ele>
        <time>2023-08-23T08:05:22Z</time>
      </trkpt>
      <trkpt lat="57.992183016613126" lon="-4.81638397090137">
        <ele>146.74000000000001</ele>
        <time>2023-08-23T08:05:30Z</time>
      </trkpt>
      <trkpt lat="57.992248982191086" lon="-4.816431999206543">
        <ele>147.22</ele>
        <time>2023-08-23T08:05:31Z</time>
      </trkpt>
      <trkpt lat="57.992476969957352" lon="-4.816599972546101">
        <ele>149.13999999999999</ele>
        <time>2023-08-23T08:05:39Z</time>
      </trkpt>
      <trkpt lat="57.992476969957352" lon="-4.816599972546101">
        <ele>149.62</ele>
        <time>2023-08-23T08:05:57Z</time>
      </trkpt>
      <trkpt lat="57.992476969957352" lon="-4.816599972546101">
        <ele>149.62</ele>
        <time>2023-08-23T08:06:57Z</time>
      </trkpt>
      <trkpt lat="57.992626000195742" lon="-4.816711032763124">
        <ele>150.09999999999999</ele>
        <time>2023-08-23T08:07:03Z</time>
      </trkpt>
      <trkpt lat="57.99268601462245" lon="-4.816755037754774">
        <ele>150.09999999999999</ele>
        <time>2023-08-23T08:07:04Z</time>
      </trkpt>
      <trkpt lat="57.993451030924916" lon="-4.817458027973771">
        <ele>151.06</ele>
        <time>2023-08-23T08:07:13Z</time>
      </trkpt>
      <trkpt lat="57.994633968919516" lon="-4.818953024223447">
        <ele>154.43000000000001</ele>
        <time>2023-08-23T08:07:25Z</time>
      </trkpt>
      <trkpt lat="57.995855966582894" lon="-4.819959020242095">
        <ele>157.78999999999999</ele>
        <time>2023-08-23T08:07:36Z</time>
      </trkpt>
      <trkpt lat="57.997259013354778" lon="-4.821103988215327">
        <ele>158.27000000000001</ele>
        <time>2023-08-23T08:07:47Z</time>
      </trkpt>
      <trkpt lat="57.999066989868879" lon="-4.822647012770176">
        <ele>159.72</ele>
        <time>2023-08-23T08:08:00Z</time>
      </trkpt>
      <trkpt lat="58.000471964478493" lon="-4.8238580301404">
        <ele>162.12</ele>
        <time>2023-08-23T08:08:11Z</time>
      </trkpt>
      <trkpt lat="58.001948017627001" lon="-4.825745970010757">
        <ele>166.44999999999999</ele>
        <time>2023-08-23T08:08:24Z</time>
      </trkpt>
      <trkpt lat="58.00351501442492" lon="-4.828171022236347">
        <ele>166.44999999999999</ele>
        <time>2023-08-23T08:08:37Z</time>
      </trkpt>
      <trkpt lat="58.00476199015975" lon="-4.829967012628913">
        <ele>165</ele>
        <time>2023-08-23T08:08:47Z</time>
      </trkpt>
      <trkpt lat="58.005339000374079" lon="-4.830642007291317">
        <ele>165.47999999999999</ele>
        <time>2023-08-23T08:08:52Z</time>
      </trkpt>
      <trkpt lat="58.005438996478915" lon="-4.830801011994481">
        <ele>165.47999999999999</ele>
        <time>2023-08-23T08:08:53Z</time>
      </trkpt>
      <trkpt lat="58.005538992583752" lon="-4.830959010869265">
        <ele>165.96000000000001</ele>
        <time>2023-08-23T08:08:54Z</time>
      </trkpt>
      <trkpt lat="58.005615016445518" lon="-4.831168977543712">
        <ele>166.44999999999999</ele>
        <time>2023-08-23T08:08:55Z</time>
      </trkpt>
      <trkpt lat="58.005693973973393" lon="-4.831383973360062">
        <ele>166.93000000000001</ele>
        <time>2023-08-23T08:08:56Z</time>
      </trkpt>
      <trkpt lat="58.006693013012409" lon="-4.834248991683126">
        <ele>170.28999999999999</ele>
        <time>2023-08-23T08:09:08Z</time>
      </trkpt>
      <trkpt lat="58.006891999393702" lon="-4.834688035771251">
        <ele>169.81</ele>
        <time>2023-08-23T08:09:10Z</time>
      </trkpt>
      <trkpt lat="58.007006999105215" lon="-4.834893979132175">
        <ele>169.33000000000001</ele>
        <time>2023-08-23T08:09:11Z</time>
      </trkpt>
      <trkpt lat="58.007461968809366" lon="-4.835711969062686">
        <ele>167.88999999999999</ele>
        <time>2023-08-23T08:09:15Z</time>
      </trkpt>
      <trkpt lat="58.007558025419712" lon="-4.835940040647984">
        <ele>167.88999999999999</ele>
        <time>2023-08-23T08:09:16Z</time>
      </trkpt>
      <trkpt lat="58.008664017543197" lon="-4.838840011507273">
        <ele>169.33000000000001</ele>
        <time>2023-08-23T08:09:28Z</time>
      </trkpt>
      <trkpt lat="58.00959600135684" lon="-4.84160696156323">
        <ele>172.69</ele>
        <time>2023-08-23T08:09:39Z</time>
      </trkpt>
      <trkpt lat="58.010459002107382" lon="-4.84295804053545">
        <ele>173.16999999999999</ele>
        <time>2023-08-23T08:09:46Z</time>
      </trkpt>
      <trkpt lat="58.011601958423853" lon="-4.84510900452733">
        <ele>175.09999999999999</ele>
        <time>2023-08-23T08:09:56Z</time>
      </trkpt>
      <trkpt lat="58.012442998588085" lon="-4.848121963441372">
        <ele>177.5</ele>
        <time>2023-08-23T08:10:07Z</time>
      </trkpt>
      <trkpt lat="58.012717003002763" lon="-4.850796964019537">
        <ele>178.94</ele>
        <time>2023-08-23T08:10:16Z</time>
      </trkpt>
      <trkpt lat="58.012780034914613" lon="-4.851356958970428">
        <ele>179.90000000000001</ele>
        <time>2023-08-23T08:10:18Z</time>
      </trkpt>
      <trkpt lat="58.012834014371037" lon="-4.851633980870247">
        <ele>180.38</ele>
        <time>2023-08-23T08:10:19Z</time>
      </trkpt>
      <trkpt lat="58.012887993827462" lon="-4.851912008598447">
        <ele>180.38</ele>
        <time>2023-08-23T08:10:20Z</time>
      </trkpt>
      <trkpt lat="58.012966029345989" lon="-4.852168997749686">
        <ele>180.87</ele>
        <time>2023-08-23T08:10:21Z</time>
      </trkpt>
      <trkpt lat="58.013052027672529" lon="-4.852425986900926">
        <ele>181.34999999999999</ele>
        <time>2023-08-23T08:10:22Z</time>
      </trkpt>
      <trkpt lat="58.014242006465793" lon="-4.855811018496752">
        <ele>184.71000000000001</ele>
        <time>2023-08-23T08:10:35Z</time>
      </trkpt>
      <trkpt lat="58.015513960272074" lon="-4.858404966071248">
        <ele>184.71000000000001</ele>
        <time>2023-08-23T08:10:46Z</time>
      </trkpt>
      <trkpt lat="58.017063019797206" lon="-4.85991396009922">
        <ele>180.87</ele>
        <time>2023-08-23T08:10:56Z</time>
      </trkpt>
      <trkpt lat="58.018464976921678" lon="-4.861299991607666">
        <ele>177.5</ele>
        <time>2023-08-23T08:11:06Z</time>
      </trkpt>
      <trkpt lat="58.019957039505243" lon="-4.863365041092038">
        <ele>169.81</ele>
        <time>2023-08-23T08:11:17Z</time>
      </trkpt>
      <trkpt lat="58.021384980529547" lon="-4.864668007940054">
        <ele>162.12</ele>
        <time>2023-08-23T08:11:27Z</time>
      </trkpt>
      <trkpt lat="58.023018026724458" lon="-4.865931998938322">
        <ele>161.16</ele>
        <time>2023-08-23T08:11:38Z</time>
      </trkpt>
      <trkpt lat="58.024200964719057" lon="-4.8668949957937">
        <ele>162.12</ele>
        <time>2023-08-23T08:11:47Z</time>
      </trkpt>
      <trkpt lat="58.024297021329403" lon="-4.867015024647117">
        <ele>162.12</ele>
        <time>2023-08-23T08:11:48Z</time>
      </trkpt>
      <trkpt lat="58.024391988292336" lon="-4.867174029350281">
        <ele>162.12</ele>
        <time>2023-08-23T08:11:49Z</time>
      </trkpt>
      <trkpt lat="58.024458959698677" lon="-4.867378966882825">
        <ele>162.59999999999999</ele>
        <time>2023-08-23T08:11:50Z</time>
      </trkpt>
      <trkpt lat="58.024516962468624" lon="-4.867617012932897">
        <ele>162.59999999999999</ele>
        <time>2023-08-23T08:11:51Z</time>
      </trkpt>
      <trkpt lat="58.024573037400842" lon="-4.867857992649078">
        <ele>162.59999999999999</ele>
        <time>2023-08-23T08:11:52Z</time>
      </trkpt>
      <trkpt lat="58.024606984108686" lon="-4.86811900511384">
        <ele>162.59999999999999</ele>
        <time>2023-08-23T08:11:53Z</time>
      </trkpt>
      <trkpt lat="58.024606984108686" lon="-4.86811900511384">
        <ele>163.08000000000001</ele>
        <time>2023-08-23T08:11:54Z</time>
      </trkpt>
      <trkpt lat="58.024677978828549" lon="-4.868661984801292">
        <ele>163.56</ele>
        <time>2023-08-23T08:11:55Z</time>
      </trkpt>
      <trkpt lat="58.024715026840568" lon="-4.868945963680744">
        <ele>163.56</ele>
        <time>2023-08-23T08:11:56Z</time>
      </trkpt>
      <trkpt lat="58.025193968787789" lon="-4.871827997267246">
        <ele>166.93000000000001</ele>
        <time>2023-08-23T08:12:06Z</time>
      </trkpt>
      <trkpt lat="58.025985974818468" lon="-4.873264990746975">
        <ele>169.33000000000001</ele>
        <time>2023-08-23T08:12:13Z</time>
      </trkpt>
      <trkpt lat="58.027262035757303" lon="-4.875242030248046">
        <ele>170.28999999999999</ele>
        <time>2023-08-23T08:12:23Z</time>
      </trkpt>
      <trkpt lat="58.027367983013391" lon="-4.875488039106131">
        <ele>170.28999999999999</ele>
        <time>2023-08-23T08:12:24Z</time>
      </trkpt>
      <trkpt lat="58.02876197732985" lon="-4.879207005724311">
        <ele>171.72999999999999</ele>
        <time>2023-08-23T08:12:38Z</time>
      </trkpt>
      <trkpt lat="58.029914991930127" lon="-4.88270603120327">
        <ele>170.77000000000001</ele>
        <time>2023-08-23T08:12:51Z</time>
      </trkpt>
      <trkpt lat="58.030815040692687" lon="-4.886212013661861">
        <ele>170.28999999999999</ele>
        <time>2023-08-23T08:13:04Z</time>
      </trkpt>
      <trkpt lat="58.031326001510024" lon="-4.887514980509877">
        <ele>168.84999999999999</ele>
        <time>2023-08-23T08:13:11Z</time>
      </trkpt>
      <trkpt lat="58.03136195987463" lon="-4.887568037956953">
        <ele>168.37</ele>
        <time>2023-08-23T08:13:12Z</time>
      </trkpt>
      <trkpt lat="58.031374029815197" lon="-4.88758597522974">
        <ele>167.88999999999999</ele>
        <time>2023-08-23T08:13:19Z</time>
      </trkpt>
      <trkpt lat="58.031505038961768" lon="-4.887674991041422">
        <ele>166.93000000000001</ele>
        <time>2023-08-23T08:13:59Z</time>
      </trkpt>
      <trkpt lat="58.032138040289283" lon="-4.888106994330883">
        <ele>164.52000000000001</ele>
        <time>2023-08-23T08:14:05Z</time>
      </trkpt>
      <trkpt lat="58.033354002982378" lon="-4.88919697701931">
        <ele>159.24000000000001</ele>
        <time>2023-08-23T08:14:13Z</time>
      </trkpt>
      <trkpt lat="58.034516992047429" lon="-4.891218021512032">
        <ele>157.31</ele>
        <time>2023-08-23T08:14:22Z</time>
      </trkpt>
      <trkpt lat="58.036510962992907" lon="-4.895070008933544">
        <ele>157.78999999999999</ele>
        <time>2023-08-23T08:14:38Z</time>
      </trkpt>
      <trkpt lat="58.038619011640549" lon="-4.898424027487636">
        <ele>160.68000000000001</ele>
        <time>2023-08-23T08:14:54Z</time>
      </trkpt>
      <trkpt lat="58.040672997012734" lon="-4.901692969724536">
        <ele>163.08000000000001</ele>
        <time>2023-08-23T08:15:09Z</time>
      </trkpt>
      <trkpt lat="58.041767003014684" lon="-4.904091032221913">
        <ele>161.16</ele>
        <time>2023-08-23T08:15:18Z</time>
      </trkpt>
      <trkpt lat="58.042636960744858" lon="-4.90728403441608">
        <ele>162.12</ele>
        <time>2023-08-23T08:15:29Z</time>
      </trkpt>
      <trkpt lat="58.042904008179903" lon="-4.908361025154591">
        <ele>163.08000000000001</ele>
        <time>2023-08-23T08:15:33Z</time>
      </trkpt>
      <trkpt lat="58.042937032878399" lon="-4.908660007640719">
        <ele>163.56</ele>
        <time>2023-08-23T08:15:34Z</time>
      </trkpt>
      <trkpt lat="58.042961005121469" lon="-4.908966030925512">
        <ele>164.03999999999999</ele>
        <time>2023-08-23T08:15:35Z</time>
      </trkpt>
      <trkpt lat="58.042961005121469" lon="-4.909279011189938">
        <ele>164.03999999999999</ele>
        <time>2023-08-23T08:15:36Z</time>
      </trkpt>
      <trkpt lat="58.042961005121469" lon="-4.909596014767885">
        <ele>165</ele>
        <time>2023-08-23T08:15:37Z</time>
      </trkpt>
      <trkpt lat="58.042961005121469" lon="-4.909915030002594">
        <ele>165.47999999999999</ele>
        <time>2023-08-23T08:15:38Z</time>
      </trkpt>
      <trkpt lat="58.04315404035151" lon="-4.912811983376741">
        <ele>166.93000000000001</ele>
        <time>2023-08-23T08:15:47Z</time>
      </trkpt>
      <trkpt lat="58.043766003102064" lon="-4.9164819996804">
        <ele>165.96000000000001</ele>
        <time>2023-08-23T08:15:58Z</time>
      </trkpt>
      <trkpt lat="58.044367991387844" lon="-4.918505977839232">
        <ele>163.56</ele>
        <time>2023-08-23T08:16:06Z</time>
      </trkpt>
      <trkpt lat="58.045062012970448" lon="-4.920966988429427">
        <ele>160.19999999999999</ele>
        <time>2023-08-23T08:16:15Z</time>
      </trkpt>
      <trkpt lat="58.045857036486268" lon="-4.924069968983531">
        <ele>159.72</ele>
        <time>2023-08-23T08:16:26Z</time>
      </trkpt>
      <trkpt lat="58.045964995399117" lon="-4.924493003636599">
        <ele>160.68000000000001</ele>
        <time>2023-08-23T08:16:31Z</time>
      </trkpt>
      <trkpt lat="58.046264983713627" lon="-4.925337983295322">
        <ele>160.19999999999999</ele>
        <time>2023-08-23T08:16:38Z</time>
      </trkpt>
      <trkpt lat="58.04680997505784" lon="-4.927021991461515">
        <ele>157.78999999999999</ele>
        <time>2023-08-23T08:16:45Z</time>
      </trkpt>
      <trkpt lat="58.047424033284187" lon="-4.929964039474726">
        <ele>155.87</ele>
        <time>2023-08-23T08:16:55Z</time>
      </trkpt>
      <trkpt lat="58.047532998025417" lon="-4.930176017805934">
        <ele>155.87</ele>
        <time>2023-08-23T08:16:56Z</time>
      </trkpt>
      <trkpt lat="58.047644980251789" lon="-4.930395036935806">
        <ele>155.38999999999999</ele>
        <time>2023-08-23T08:16:57Z</time>
      </trkpt>
      <trkpt lat="58.048953982070088" lon="-4.932404011487961">
        <ele>152.50999999999999</ele>
        <time>2023-08-23T08:17:07Z</time>
      </trkpt>
      <trkpt lat="58.05065399967134" lon="-4.934328999370337">
        <ele>147.69999999999999</ele>
        <time>2023-08-23T08:17:19Z</time>
      </trkpt>
      <trkpt lat="58.050870001316071" lon="-4.934694031253457">
        <ele>147.22</ele>
        <time>2023-08-23T08:17:21Z</time>
      </trkpt>
      <trkpt lat="58.050958011299372" lon="-4.934910032898188">
        <ele>147.22</ele>
        <time>2023-08-23T08:17:22Z</time>
      </trkpt>
      <trkpt lat="58.051788993179798" lon="-4.93727901019156">
        <ele>150.09999999999999</ele>
        <time>2023-08-23T08:17:32Z</time>
      </trkpt>
      <trkpt lat="58.052469016984105" lon="-4.939554026350379">
        <ele>148.66</ele>
        <time>2023-08-23T08:17:42Z</time>
      </trkpt>
      <trkpt lat="58.052834970876575" lon="-4.941435009241104">
        <ele>146.25999999999999</ele>
        <time>2023-08-23T08:17:51Z</time>
      </trkpt>
      <trkpt lat="58.053333023563027" lon="-4.94391999207437">
        <ele>147.69999999999999</ele>
        <time>2023-08-23T08:18:01Z</time>
      </trkpt>
      <trkpt lat="58.054175991564989" lon="-4.946210011839867">
        <ele>149.13999999999999</ele>
        <time>2023-08-23T08:18:10Z</time>
      </trkpt>
      <trkpt lat="58.054274981841445" lon="-4.946465995162725">
        <ele>149.13999999999999</ele>
        <time>2023-08-23T08:18:11Z</time>
      </trkpt>
      <trkpt lat="58.054357040673494" lon="-4.946739999577403">
        <ele>149.13999999999999</ele>
        <time>2023-08-23T08:18:12Z</time>
      </trkpt>
      <trkpt lat="58.054596008732915" lon="-4.947542985901237">
        <ele>149.13999999999999</ele>
        <time>2023-08-23T08:18:15Z</time>
      </trkpt>
      <trkpt lat="58.055606028065085" lon="-4.949742984026671">
        <ele>149.62</ele>
        <time>2023-08-23T08:18:24Z</time>
      </trkpt>
      <trkpt lat="58.056800030171871" lon="-4.951573004946113">
        <ele>150.09999999999999</ele>
        <time>2023-08-23T08:18:33Z</time>
      </trkpt>
      <trkpt lat="58.05688401684165" lon="-4.951840974390507">
        <ele>150.09999999999999</ele>
        <time>2023-08-23T08:18:34Z</time>
      </trkpt>
      <trkpt lat="58.056969009339809" lon="-4.952111039310694">
        <ele>150.09999999999999</ele>
        <time>2023-08-23T08:18:35Z</time>
      </trkpt>
      <trkpt lat="58.058030996471643" lon="-4.955484000965953">
        <ele>150.58000000000001</ele>
        <time>2023-08-23T08:18:47Z</time>
      </trkpt>
      <trkpt lat="58.059468995779753" lon="-4.960035039111972">
        <ele>152.50999999999999</ele>
        <time>2023-08-23T08:19:03Z</time>
      </trkpt>
      <trkpt lat="58.060846980661154" lon="-4.963497016578913">
        <ele>152.99000000000001</ele>
        <time>2023-08-23T08:19:16Z</time>
      </trkpt>
      <trkpt lat="58.061956996098161" lon="-4.965667007490993">
        <ele>150.58000000000001</ele>
        <time>2023-08-23T08:19:26Z</time>
      </trkpt>
      <trkpt lat="58.06333196349442" lon="-4.967764997854829">
        <ele>148.66</ele>
        <time>2023-08-23T08:19:38Z</time>
      </trkpt>
      <trkpt lat="58.064955035224557" lon="-4.970241012051702">
        <ele>149.62</ele>
        <time>2023-08-23T08:19:52Z</time>
      </trkpt>
      <trkpt lat="58.066098997369409" lon="-4.971466027200222">
        <ele>152.03</ele>
        <time>2023-08-23T08:20:02Z</time>
      </trkpt>
      <trkpt lat="58.066566959023476" lon="-4.971901969984174">
        <ele>152.99000000000001</ele>
        <time>2023-08-23T08:20:08Z</time>
      </trkpt>
      <trkpt lat="58.066609036177397" lon="-4.971941029652953">
        <ele>152.99000000000001</ele>
        <time>2023-08-23T08:20:09Z</time>
      </trkpt>
      <trkpt lat="58.066642982885242" lon="-4.971971958875656">
        <ele>153.47</ele>
        <time>2023-08-23T08:20:10Z</time>
      </trkpt>
      <trkpt lat="58.066621022298932" lon="-4.972113026306033">
        <ele>153.47</ele>
        <time>2023-08-23T08:20:11Z</time>
      </trkpt>
      <trkpt lat="58.06659797206521" lon="-4.972218973562121">
        <ele>153.47</ele>
        <time>2023-08-23T08:20:12Z</time>
      </trkpt>
      <trkpt lat="58.066568970680237" lon="-4.972351994365454">
        <ele>153.47</ele>
        <time>2023-08-23T08:20:13Z</time>
      </trkpt>
      <trkpt lat="58.066534018144011" lon="-4.972516028210521">
        <ele>153.94999999999999</ele>
        <time>2023-08-23T08:20:14Z</time>
      </trkpt>
      <trkpt lat="58.066351041197777" lon="-4.973593018949032">
        <ele>152.03</ele>
        <time>2023-08-23T08:20:19Z</time>
      </trkpt>
      <trkpt lat="58.066322039812803" lon="-4.973849002271891">
        <ele>151.06</ele>
        <time>2023-08-23T08:20:20Z</time>
      </trkpt>
      <trkpt lat="58.06616697460413" lon="-4.976644031703472">
        <ele>142.88999999999999</ele>
        <time>2023-08-23T08:20:29Z</time>
      </trkpt>
      <trkpt lat="58.066147025674582" lon="-4.979870980605483">
        <ele>135.68000000000001</ele>
        <time>2023-08-23T08:20:38Z</time>
      </trkpt>
      <trkpt lat="58.066121963784099" lon="-4.980197958648205">
        <ele>135.19999999999999</ele>
        <time>2023-08-23T08:20:39Z</time>
      </trkpt>
      <trkpt lat="58.066067984327674" lon="-4.980496019124985">
        <ele>135.19999999999999</ele>
        <time>2023-08-23T08:20:40Z</time>
      </trkpt>
      <trkpt lat="58.065989026799798" lon="-4.980768011882901">
        <ele>135.19999999999999</ele>
        <time>2023-08-23T08:20:41Z</time>
      </trkpt>
      <trkpt lat="58.0658870190382" lon="-4.981029024347663">
        <ele>135.19999999999999</ele>
        <time>2023-08-23T08:20:42Z</time>
      </trkpt>
      <trkpt lat="58.065770007669926" lon="-4.981284001842141">
        <ele>135.19999999999999</ele>
        <time>2023-08-23T08:20:43Z</time>
      </trkpt>
      <trkpt lat="58.065634975209832" lon="-4.981536967679858">
        <ele>135.68000000000001</ele>
        <time>2023-08-23T08:20:44Z</time>
      </trkpt>
      <trkpt lat="58.064198987558484" lon="-4.984291009604931">
        <ele>137.61000000000001</ele>
        <time>2023-08-23T08:20:54Z</time>
      </trkpt>
      <trkpt lat="58.063838984817266" lon="-4.985453998669982">
        <ele>138.56999999999999</ele>
        <time>2023-08-23T08:20:58Z</time>
      </trkpt>
      <trkpt lat="58.063804032281041" lon="-4.985758010298014">
        <ele>139.05000000000001</ele>
        <time>2023-08-23T08:20:59Z</time>
      </trkpt>
      <trkpt lat="58.063766984269023" lon="-4.986089011654258">
        <ele>139.05000000000001</ele>
        <time>2023-08-23T08:21:00Z</time>
      </trkpt>
      <trkpt lat="58.063752986490726" lon="-4.986427975818515">
        <ele>139.53</ele>
        <time>2023-08-23T08:21:01Z</time>
      </trkpt>
      <trkpt lat="58.063752986490726" lon="-4.986783033236861">
        <ele>139.53</ele>
        <time>2023-08-23T08:21:02Z</time>
      </trkpt>
      <trkpt lat="58.063752986490726" lon="-4.987143035978079">
        <ele>139.53</ele>
        <time>2023-08-23T08:21:03Z</time>
      </trkpt>
      <trkpt lat="58.063868992030621" lon="-4.992215009406209">
        <ele>136.16</ele>
        <time>2023-08-23T08:21:17Z</time>
      </trkpt>
      <trkpt lat="58.063814006745815" lon="-4.992930991575122">
        <ele>134.72</ele>
        <time>2023-08-23T08:21:19Z</time>
      </trkpt>
      <trkpt lat="58.063761033117771" lon="-4.993283031508327">
        <ele>134.72</ele>
        <time>2023-08-23T08:21:20Z</time>
      </trkpt>
      <trkpt lat="58.063691966235638" lon="-4.993630964308977">
        <ele>134.24000000000001</ele>
        <time>2023-08-23T08:21:21Z</time>
      </trkpt>
      <trkpt lat="58.063285024836659" lon="-4.995312038809061">
        <ele>135.19999999999999</ele>
        <time>2023-08-23T08:21:26Z</time>
      </trkpt>
      <trkpt lat="58.063226016238332" lon="-4.995659971609712">
        <ele>135.68000000000001</ele>
        <time>2023-08-23T08:21:27Z</time>
      </trkpt>
      <trkpt lat="58.062809016555548" lon="-4.999789986759424">
        <ele>136.63999999999999</ele>
        <time>2023-08-23T08:21:38Z</time>
      </trkpt>
      <trkpt lat="58.062558984383941" lon="-5.001959977671504">
        <ele>134.72</ele>
        <time>2023-08-23T08:21:44Z</time>
      </trkpt>
      <trkpt lat="58.062481032684445" lon="-5.00229399651289">
        <ele>134.72</ele>
        <time>2023-08-23T08:21:45Z</time>
      </trkpt>
      <trkpt lat="58.062390005216002" lon="-5.002613011747599">
        <ele>134.72</ele>
        <time>2023-08-23T08:21:46Z</time>
      </trkpt>
      <trkpt lat="58.061834033578634" lon="-5.004366002976894">
        <ele>133.28</ele>
        <time>2023-08-23T08:21:52Z</time>
      </trkpt>
      <trkpt lat="58.061755998060107" lon="-5.004709996283054">
        <ele>133.28</ele>
        <time>2023-08-23T08:21:53Z</time>
      </trkpt>
      <trkpt lat="58.061744011938572" lon="-5.005057007074356">
        <ele>132.80000000000001</ele>
        <time>2023-08-23T08:21:54Z</time>
      </trkpt>
      <trkpt lat="58.061747029423714" lon="-5.005406029522419">
        <ele>132.80000000000001</ele>
        <time>2023-08-23T08:21:55Z</time>
      </trkpt>
      <trkpt lat="58.061777958646417" lon="-5.005753040313721">
        <ele>133.28</ele>
        <time>2023-08-23T08:21:56Z</time>
      </trkpt>
      <trkpt lat="58.061809977516532" lon="-5.006109019741416">
        <ele>133.28</ele>
        <time>2023-08-23T08:21:57Z</time>
      </trkpt>
      <trkpt lat="58.061843002215028" lon="-5.006472039967775">
        <ele>133.75999999999999</ele>
        <time>2023-08-23T08:21:58Z</time>
      </trkpt>
      <trkpt lat="58.061907961964607" lon="-5.006812009960413">
        <ele>133.75999999999999</ele>
        <time>2023-08-23T08:21:59Z</time>
      </trkpt>
      <trkpt lat="58.06223401799798" lon="-5.008477997034788">
        <ele>133.28</ele>
        <time>2023-08-23T08:22:04Z</time>
      </trkpt>
      <trkpt lat="58.062838017940521" lon="-5.013006990775466">
        <ele>134.72</ele>
        <time>2023-08-23T08:22:17Z</time>
      </trkpt>
      <trkpt lat="58.062853021547198" lon="-5.013346038758755">
        <ele>134.72</ele>
        <time>2023-08-23T08:22:18Z</time>
      </trkpt>
      <trkpt lat="58.062867019325495" lon="-5.013677962124348">
        <ele>135.19999999999999</ele>
        <time>2023-08-23T08:22:19Z</time>
      </trkpt>
      <trkpt lat="58.062860984355211" lon="-5.013999994844198">
        <ele>135.68000000000001</ele>
        <time>2023-08-23T08:22:20Z</time>
      </trkpt>
      <trkpt lat="58.062566025182605" lon="-5.016309041529894">
        <ele>140.00999999999999</ele>
        <time>2023-08-23T08:22:27Z</time>
      </trkpt>
      <trkpt lat="58.062499975785613" lon="-5.016640964895487">
        <ele>140.49000000000001</ele>
        <time>2023-08-23T08:22:28Z</time>
      </trkpt>
      <trkpt lat="58.061796985566616" lon="-5.021054958924651">
        <ele>145.78</ele>
        <time>2023-08-23T08:22:41Z</time>
      </trkpt>
      <trkpt lat="58.061506971716881" lon="-5.023241965100169">
        <ele>147.22</ele>
        <time>2023-08-23T08:22:48Z</time>
      </trkpt>
      <trkpt lat="58.060985030606389" lon="-5.025097969919443">
        <ele>147.22</ele>
        <time>2023-08-23T08:22:55Z</time>
      </trkpt>
      <trkpt lat="58.060319004580379" lon="-5.027170982211828">
        <ele>143.84999999999999</ele>
        <time>2023-08-23T08:23:04Z</time>
      </trkpt>
      <trkpt lat="58.06008699350059" lon="-5.027872966602445">
        <ele>142.88999999999999</ele>
        <time>2023-08-23T08:23:07Z</time>
      </trkpt>
      <trkpt lat="58.059988003224134" lon="-5.028084022924304">
        <ele>142.88999999999999</ele>
        <time>2023-08-23T08:23:08Z</time>
      </trkpt>
      <trkpt lat="58.059879960492253" lon="-5.028266999870539">
        <ele>142.88999999999999</ele>
        <time>2023-08-23T08:23:09Z</time>
      </trkpt>
      <trkpt lat="58.059754986315966" lon="-5.028428016230464">
        <ele>142.41</ele>
        <time>2023-08-23T08:23:10Z</time>
      </trkpt>
      <trkpt lat="58.05963302962482" lon="-5.028584003448486">
        <ele>142.41</ele>
        <time>2023-08-23T08:23:11Z</time>
      </trkpt>
      <trkpt lat="58.059488022699952" lon="-5.028703026473522">
        <ele>142.41</ele>
        <time>2023-08-23T08:23:12Z</time>
      </trkpt>
      <trkpt lat="58.059346033260226" lon="-5.028820037841797">
        <ele>142.41</ele>
        <time>2023-08-23T08:23:13Z</time>
      </trkpt>
      <trkpt lat="58.058738010004163" lon="-5.029180962592363">
        <ele>140.97</ele>
        <time>2023-08-23T08:23:17Z</time>
      </trkpt>
      <trkpt lat="58.058579005300999" lon="-5.029231002554297">
        <ele>140.97</ele>
        <time>2023-08-23T08:23:18Z</time>
      </trkpt>
      <trkpt lat="58.056267024949193" lon="-5.029507018625736">
        <ele>140.97</ele>
        <time>2023-08-23T08:23:32Z</time>
      </trkpt>
      <trkpt lat="58.054484026506543" lon="-5.030149994418025">
        <ele>144.81999999999999</ele>
        <time>2023-08-23T08:23:43Z</time>
      </trkpt>
      <trkpt lat="58.052818961441517" lon="-5.030694985762239">
        <ele>148.18000000000001</ele>
        <time>2023-08-23T08:23:54Z</time>
      </trkpt>
      <trkpt lat="58.052701028063893" lon="-5.030775032937527">
        <ele>148.18000000000001</ele>
        <time>2023-08-23T08:23:55Z</time>
      </trkpt>
      <trkpt lat="58.052588040009141" lon="-5.030888020992279">
        <ele>148.18000000000001</ele>
        <time>2023-08-23T08:23:56Z</time>
      </trkpt>
      <trkpt lat="58.052478991448879" lon="-5.031038979068399">
        <ele>148.18000000000001</ele>
        <time>2023-08-23T08:23:57Z</time>
      </trkpt>
      <trkpt lat="58.052375977858901" lon="-5.031225979328156">
        <ele>148.18000000000001</ele>
        <time>2023-08-23T08:23:58Z</time>
      </trkpt>
      <trkpt lat="58.052271036431193" lon="-5.031418008729816">
        <ele>147.69999999999999</ele>
        <time>2023-08-23T08:23:59Z</time>
      </trkpt>
      <trkpt lat="58.051733002066612" lon="-5.032397015020251">
        <ele>147.69999999999999</ele>
        <time>2023-08-23T08:24:04Z</time>
      </trkpt>
      <trkpt lat="58.051606016233563" lon="-5.032536992803216">
        <ele>148.18000000000001</ele>
        <time>2023-08-23T08:24:05Z</time>
      </trkpt>
      <trkpt lat="58.051469977945089" lon="-5.032644029706717">
        <ele>149.13999999999999</ele>
        <time>2023-08-23T08:24:06Z</time>
      </trkpt>
      <trkpt lat="58.051326982676983" lon="-5.032707983627915">
        <ele>150.09999999999999</ele>
        <time>2023-08-23T08:24:07Z</time>
      </trkpt>
      <trkpt lat="58.051180969923735" lon="-5.03271795809269">
        <ele>151.06</ele>
        <time>2023-08-23T08:24:08Z</time>
      </trkpt>
      <trkpt lat="58.051034035161138" lon="-5.032707983627915">
        <ele>152.50999999999999</ele>
        <time>2023-08-23T08:24:09Z</time>
      </trkpt>
      <trkpt lat="58.050888022407889" lon="-5.032641012221575">
        <ele>153.47</ele>
        <time>2023-08-23T08:24:10Z</time>
      </trkpt>
      <trkpt lat="58.050748966634274" lon="-5.032555013895035">
        <ele>154.91</ele>
        <time>2023-08-23T08:24:11Z</time>
      </trkpt>
      <trkpt lat="58.050621980801225" lon="-5.03243699669838">
        <ele>156.34999999999999</ele>
        <time>2023-08-23T08:24:12Z</time>
      </trkpt>
      <trkpt lat="58.050503041595221" lon="-5.032326020300388">
        <ele>157.78999999999999</ele>
        <time>2023-08-23T08:24:13Z</time>
      </trkpt>
      <trkpt lat="58.050416959449649" lon="-5.032168021425605">
        <ele>158.75</ele>
        <time>2023-08-23T08:24:14Z</time>
      </trkpt>
      <trkpt lat="58.050343031063676" lon="-5.031992001459003">
        <ele>160.19999999999999</ele>
        <time>2023-08-23T08:24:15Z</time>
      </trkpt>
      <trkpt lat="58.050270024687052" lon="-5.031817993149161">
        <ele>161.63999999999999</ele>
        <time>2023-08-23T08:24:16Z</time>
      </trkpt>
      <trkpt lat="58.050197018310428" lon="-5.03164297901094">
        <ele>163.08000000000001</ele>
        <time>2023-08-23T08:24:17Z</time>
      </trkpt>
      <trkpt lat="58.049807008355856" lon="-5.030714012682438">
        <ele>165.47999999999999</ele>
        <time>2023-08-23T08:24:22Z</time>
      </trkpt>
      <trkpt lat="58.049731990322471" lon="-5.030546961352229">
        <ele>165.47999999999999</ele>
        <time>2023-08-23T08:24:23Z</time>
      </trkpt>
      <trkpt lat="58.049631994217634" lon="-5.030432967469096">
        <ele>165.47999999999999</ele>
        <time>2023-08-23T08:24:24Z</time>
      </trkpt>
      <trkpt lat="58.049528980627656" lon="-5.030315034091473">
        <ele>165.47999999999999</ele>
        <time>2023-08-23T08:24:25Z</time>
      </trkpt>
      <trkpt lat="58.049424039199948" lon="-5.030205985531211">
        <ele>165.47999999999999</ele>
        <time>2023-08-23T08:24:26Z</time>
      </trkpt>
      <trkpt lat="58.049309039488435" lon="-5.030148988589644">
        <ele>165.47999999999999</ele>
        <time>2023-08-23T08:24:27Z</time>
      </trkpt>
      <trkpt lat="58.04919102229178" lon="-5.030112024396658">
        <ele>165.47999999999999</ele>
        <time>2023-08-23T08:24:28Z</time>
      </trkpt>
      <trkpt lat="58.049069987609982" lon="-5.030129039660096">
        <ele>165.47999999999999</ele>
        <time>2023-08-23T08:24:29Z</time>
      </trkpt>
      <trkpt lat="58.048947025090456" lon="-5.030145971104503">
        <ele>165.47999999999999</ele>
        <time>2023-08-23T08:24:30Z</time>
      </trkpt>
      <trkpt lat="58.048822972923517" lon="-5.03016198053956">
        <ele>165.47999999999999</ele>
        <time>2023-08-23T08:24:31Z</time>
      </trkpt>
      <trkpt lat="58.04869900457561" lon="-5.030227024108172">
        <ele>165.47999999999999</ele>
        <time>2023-08-23T08:24:32Z</time>
      </trkpt>
      <trkpt lat="58.048588028177619" lon="-5.030338000506163">
        <ele>165</ele>
        <time>2023-08-23T08:24:33Z</time>
      </trkpt>
      <trkpt lat="58.048474034294486" lon="-5.030451994389296">
        <ele>165</ele>
        <time>2023-08-23T08:24:34Z</time>
      </trkpt>
      <trkpt lat="58.048374960198998" lon="-5.030619967728853">
        <ele>165</ele>
        <time>2023-08-23T08:24:35Z</time>
      </trkpt>
      <trkpt lat="58.048289967700839" lon="-5.03080696798861">
        <ele>165.47999999999999</ele>
        <time>2023-08-23T08:24:36Z</time>
      </trkpt>
      <trkpt lat="58.048217967152596" lon="-5.030965972691774">
        <ele>165.47999999999999</ele>
        <time>2023-08-23T08:24:37Z</time>
      </trkpt>
      <trkpt lat="58.048136997967958" lon="-5.031219022348523">
        <ele>165.47999999999999</ele>
        <time>2023-08-23T08:24:38Z</time>
      </trkpt>
      <trkpt lat="58.048063991591334" lon="-5.031444998458028">
        <ele>165.47999999999999</ele>
        <time>2023-08-23T08:24:39Z</time>
      </trkpt>
      <trkpt lat="58.047113986685872" lon="-5.034403977915645">
        <ele>167.41</ele>
        <time>2023-08-23T08:24:51Z</time>
      </trkpt>
      <trkpt lat="58.047004016116261" lon="-5.034633977338672">
        <ele>167.41</ele>
        <time>2023-08-23T08:24:52Z</time>
      </trkpt>
      <trkpt lat="58.046878036111593" lon="-5.034827012568712">
        <ele>167.88999999999999</ele>
        <time>2023-08-23T08:24:53Z</time>
      </trkpt>
      <trkpt lat="58.045910010114312" lon="-5.036460980772972">
        <ele>168.84999999999999</ele>
        <time>2023-08-23T08:25:01Z</time>
      </trkpt>
      <trkpt lat="58.045846978202462" lon="-5.03667002543807">
        <ele>168.84999999999999</ele>
        <time>2023-08-23T08:25:02Z</time>
      </trkpt>
      <trkpt lat="58.045825017616153" lon="-5.036890972405672">
        <ele>168.84999999999999</ele>
        <time>2023-08-23T08:25:03Z</time>
      </trkpt>
      <trkpt lat="58.045802973210812" lon="-5.037114014849067">
        <ele>168.84999999999999</ele>
        <time>2023-08-23T08:25:04Z</time>
      </trkpt>
      <trkpt lat="58.045811019837856" lon="-5.037308977916837">
        <ele>168.84999999999999</ele>
        <time>2023-08-23T08:25:05Z</time>
      </trkpt>
      <trkpt lat="58.045851001515985" lon="-5.037537971511483">
        <ele>168.84999999999999</ele>
        <time>2023-08-23T08:25:06Z</time>
      </trkpt>
      <trkpt lat="58.045945968478918" lon="-5.038008028641343">
        <ele>169.33000000000001</ele>
        <time>2023-08-23T08:25:08Z</time>
      </trkpt>
      <trkpt lat="58.046373026445508" lon="-5.039522973820567">
        <ele>170.28999999999999</ele>
        <time>2023-08-23T08:25:14Z</time>
      </trkpt>
      <trkpt lat="58.046390963718295" lon="-5.039804019033909">
        <ele>170.77000000000001</ele>
        <time>2023-08-23T08:25:15Z</time>
      </trkpt>
      <trkpt lat="58.046385012567043" lon="-5.040096966549754">
        <ele>171.25</ele>
        <time>2023-08-23T08:25:16Z</time>
      </trkpt>
      <trkpt lat="58.04637998342514" lon="-5.040397038683295">
        <ele>172.21000000000001</ele>
        <time>2023-08-23T08:25:17Z</time>
      </trkpt>
      <trkpt lat="58.046374032273889" lon="-5.040697026997805">
        <ele>172.69</ele>
        <time>2023-08-23T08:25:18Z</time>
      </trkpt>
      <trkpt lat="58.046340001747012" lon="-5.040992991998792">
        <ele>173.16999999999999</ele>
        <time>2023-08-23T08:25:19Z</time>
      </trkpt>
      <trkpt lat="58.046299014240503" lon="-5.041291974484921">
        <ele>173.66</ele>
        <time>2023-08-23T08:25:20Z</time>
      </trkpt>
      <trkpt lat="58.046258026733994" lon="-5.04159196279943">
        <ele>174.13999999999999</ele>
        <time>2023-08-23T08:25:21Z</time>
      </trkpt>
      <trkpt lat="58.045717980712652" lon="-5.045488039031625">
        <ele>187.11000000000001</ele>
        <time>2023-08-23T08:25:34Z</time>
      </trkpt>
      <trkpt lat="58.045095959678292" lon="-5.049040038138628">
        <ele>203.46000000000001</ele>
        <time>2023-08-23T08:25:46Z</time>
      </trkpt>
      <trkpt lat="58.044134974479675" lon="-5.0518580339849">
        <ele>219.80000000000001</ele>
        <time>2023-08-23T08:25:57Z</time>
      </trkpt>
      <trkpt lat="58.04289797320962" lon="-5.055139968171716">
        <ele>235.66</ele>
        <time>2023-08-23T08:26:09Z</time>
      </trkpt>
      <trkpt lat="58.041384033858776" lon="-5.058623990043998">
        <ele>246.22999999999999</ele>
        <time>2023-08-23T08:26:22Z</time>
      </trkpt>
      <trkpt lat="58.039592988789082" lon="-5.062449993565679">
        <ele>255.84999999999999</ele>
        <time>2023-08-23T08:26:36Z</time>
      </trkpt>
      <trkpt lat="58.039171965792775" lon="-5.063605019822717">
        <ele>258.25</ele>
        <time>2023-08-23T08:26:40Z</time>
      </trkpt>
      <trkpt lat="58.039039028808475" lon="-5.063853962346911">
        <ele>258.25</ele>
        <time>2023-08-23T08:26:41Z</time>
      </trkpt>
      <trkpt lat="58.037583008408546" lon="-5.066888965666294">
        <ele>252.47999999999999</ele>
        <time>2023-08-23T08:26:52Z</time>
      </trkpt>
      <trkpt lat="58.036432005465031" lon="-5.069530019536614">
        <ele>244.78999999999999</ele>
        <time>2023-08-23T08:27:02Z</time>
      </trkpt>
      <trkpt lat="58.035252001136541" lon="-5.070922002196312">
        <ele>238.53999999999999</ele>
        <time>2023-08-23T08:27:10Z</time>
      </trkpt>
      <trkpt lat="58.032954018563032" lon="-5.072606010362506">
        <ele>235.66</ele>
        <time>2023-08-23T08:27:23Z</time>
      </trkpt>
      <trkpt lat="58.031183006241918" lon="-5.073571018874645">
        <ele>234.69999999999999</ele>
        <time>2023-08-23T08:27:33Z</time>
      </trkpt>
      <trkpt lat="58.030992988497019" lon="-5.0735819991678">
        <ele>235.18000000000001</ele>
        <time>2023-08-23T08:27:34Z</time>
      </trkpt>
      <trkpt lat="58.029079986736178" lon="-5.073202969506383">
        <ele>238.53999999999999</ele>
        <time>2023-08-23T08:27:44Z</time>
      </trkpt>
      <trkpt lat="58.027680963277817" lon="-5.073338001966476">
        <ele>241.43000000000001</ele>
        <time>2023-08-23T08:27:51Z</time>
      </trkpt>
      <trkpt lat="58.024989031255245" lon="-5.074738031253219">
        <ele>259.69</ele>
        <time>2023-08-23T08:28:05Z</time>
      </trkpt>
      <trkpt lat="58.022570013999939" lon="-5.075993975624442">
        <ele>254.88999999999999</ele>
        <time>2023-08-23T08:28:17Z</time>
      </trkpt>
      <trkpt lat="58.021045010536909" lon="-5.076786987483501">
        <ele>245.75</ele>
        <time>2023-08-23T08:28:25Z</time>
      </trkpt>
      <trkpt lat="58.018398005515337" lon="-5.078148040920496">
        <ele>239.99000000000001</ele>
        <time>2023-08-23T08:28:39Z</time>
      </trkpt>
      <trkpt lat="58.016253998503089" lon="-5.07899696007371">
        <ele>237.58000000000001</ele>
        <time>2023-08-23T08:28:50Z</time>
      </trkpt>
      <trkpt lat="58.015738008543849" lon="-5.079341037198901">
        <ele>236.13999999999999</ele>
        <time>2023-08-23T08:28:53Z</time>
      </trkpt>
      <trkpt lat="58.015580009669065" lon="-5.079504987224937">
        <ele>235.66</ele>
        <time>2023-08-23T08:28:54Z</time>
      </trkpt>
      <trkpt lat="58.015424022451043" lon="-5.079693999141455">
        <ele>234.69999999999999</ele>
        <time>2023-08-23T08:28:55Z</time>
      </trkpt>
      <trkpt lat="58.013566005975008" lon="-5.08226003497839">
        <ele>227.00999999999999</ele>
        <time>2023-08-23T08:29:07Z</time>
      </trkpt>
      <trkpt lat="58.011439014226198" lon="-5.084627000615001">
        <ele>214.03</ele>
        <time>2023-08-23T08:29:20Z</time>
      </trkpt>
      <trkpt lat="58.009434984996915" lon="-5.086400024592876">
        <ele>199.61000000000001</ele>
        <time>2023-08-23T08:29:31Z</time>
      </trkpt>
      <trkpt lat="58.007908975705504" lon="-5.088361976668239">
        <ele>187.59</ele>
        <time>2023-08-23T08:29:40Z</time>
      </trkpt>
      <trkpt lat="58.00645899027586" lon="-5.089897960424423">
        <ele>175.58000000000001</ele>
        <time>2023-08-23T08:29:48Z</time>
      </trkpt>
      <trkpt lat="58.005649968981743" lon="-5.090763978660107">
        <ele>169.33000000000001</ele>
        <time>2023-08-23T08:29:53Z</time>
      </trkpt>
      <trkpt lat="58.005546033382416" lon="-5.091015016660094">
        <ele>167.88999999999999</ele>
        <time>2023-08-23T08:29:54Z</time>
      </trkpt>
      <trkpt lat="58.005440002307296" lon="-5.091277034953237">
        <ele>166.44999999999999</ele>
        <time>2023-08-23T08:29:55Z</time>
      </trkpt>
      <trkpt lat="58.005331037566066" lon="-5.091546010226011">
        <ele>165</ele>
        <time>2023-08-23T08:29:56Z</time>
      </trkpt>
      <trkpt lat="58.005219977349043" lon="-5.09182102046907">
        <ele>163.56</ele>
        <time>2023-08-23T08:29:57Z</time>
      </trkpt>
      <trkpt lat="58.004183974117041" lon="-5.093934014439583">
        <ele>153.47</ele>
        <time>2023-08-23T08:30:05Z</time>
      </trkpt>
      <trkpt lat="58.002627035602927" lon="-5.097294989973307">
        <ele>140.97</ele>
        <time>2023-08-23T08:30:17Z</time>
      </trkpt>
      <trkpt lat="58.002340961247683" lon="-5.098150027915835">
        <ele>138.09</ele>
        <time>2023-08-23T08:30:20Z</time>
      </trkpt>
      <trkpt lat="58.002297962084413" lon="-5.098468959331513">
        <ele>137.61000000000001</ele>
        <time>2023-08-23T08:30:21Z</time>
      </trkpt>
      <trkpt lat="58.002255968749523" lon="-5.098775988444686">
        <ele>136.63999999999999</ele>
        <time>2023-08-23T08:30:22Z</time>
      </trkpt>
      <trkpt lat="58.002066034823656" lon="-5.099980970844626">
        <ele>133.75999999999999</ele>
        <time>2023-08-23T08:30:26Z</time>
      </trkpt>
      <trkpt lat="58.001999985426664" lon="-5.100266961380839">
        <ele>133.28</ele>
        <time>2023-08-23T08:30:27Z</time>
      </trkpt>
      <trkpt lat="58.001911975443363" lon="-5.100521016865969">
        <ele>132.80000000000001</ele>
        <time>2023-08-23T08:30:28Z</time>
      </trkpt>
      <trkpt lat="58.00181700848043" lon="-5.100757973268628">
        <ele>132.31999999999999</ele>
        <time>2023-08-23T08:30:29Z</time>
      </trkpt>
      <trkpt lat="58.001698991283774" lon="-5.100968023762107">
        <ele>132.31999999999999</ele>
        <time>2023-08-23T08:30:30Z</time>
      </trkpt>
      <trkpt lat="58.001569993793964" lon="-5.101143037900329">
        <ele>131.84</ele>
        <time>2023-08-23T08:30:31Z</time>
      </trkpt>
      <trkpt lat="58.001437978819013" lon="-5.101295001804829">
        <ele>131.36000000000001</ele>
        <time>2023-08-23T08:30:32Z</time>
      </trkpt>
      <trkpt lat="58.000109028071165" lon="-5.102840038016439">
        <ele>126.06999999999999</ele>
        <time>2023-08-23T08:30:42Z</time>
      </trkpt>
      <trkpt lat="57.999440990388393" lon="-5.103678982704878">
        <ele>122.70999999999999</ele>
        <time>2023-08-23T08:30:49Z</time>
      </trkpt>
      <trkpt lat="57.999406959861517" lon="-5.103721981868148">
        <ele>122.22</ele>
        <time>2023-08-23T08:30:50Z</time>
      </trkpt>
      <trkpt lat="57.99943302758038" lon="-5.103829018771648">
        <ele>121.73999999999999</ele>
        <time>2023-08-23T08:30:51Z</time>
      </trkpt>
      <trkpt lat="57.999458005651832" lon="-5.103906970471144">
        <ele>121.26000000000001</ele>
        <time>2023-08-23T08:30:52Z</time>
      </trkpt>
      <trkpt lat="57.999490024521947" lon="-5.104008978232741">
        <ele>120.78</ele>
        <time>2023-08-23T08:30:53Z</time>
      </trkpt>
      <trkpt lat="57.999529000371695" lon="-5.104131018742919">
        <ele>120.3</ele>
        <time>2023-08-23T08:30:54Z</time>
      </trkpt>
      <trkpt lat="57.999550038948655" lon="-5.104303015395999">
        <ele>120.3</ele>
        <time>2023-08-23T08:30:55Z</time>
      </trkpt>
      <trkpt lat="57.999570993706584" lon="-5.104482974857092">
        <ele>119.81999999999999</ele>
        <time>2023-08-23T08:30:56Z</time>
      </trkpt>
      <trkpt lat="57.99958499148488" lon="-5.10467198677361">
        <ele>119.81999999999999</ele>
        <time>2023-08-23T08:30:57Z</time>
      </trkpt>
      <trkpt lat="57.999637965112925" lon="-5.105463992804289">
        <ele>120.78</ele>
        <time>2023-08-23T08:31:04Z</time>
      </trkpt>
      <trkpt lat="57.999637965112925" lon="-5.105463992804289">
        <ele>121.26000000000001</ele>
        <time>2023-08-23T08:31:17Z</time>
      </trkpt>
      <trkpt lat="57.999637965112925" lon="-5.105463992804289">
        <ele>121.73999999999999</ele>
        <time>2023-08-23T08:32:03Z</time>
      </trkpt>
      <trkpt lat="57.999642994254827" lon="-5.105538005009294">
        <ele>121.73999999999999</ele>
        <time>2023-08-23T08:32:35Z</time>
      </trkpt>
      <trkpt lat="57.999668978154659" lon="-5.105909993872047">
        <ele>122.22</ele>
        <time>2023-08-23T08:32:42Z</time>
      </trkpt>
      <trkpt lat="57.999679036438465" lon="-5.106066986918449">
        <ele>121.73999999999999</ele>
        <time>2023-08-23T08:32:43Z</time>
      </trkpt>
      <trkpt lat="57.99966998398304" lon="-5.106234960258007">
        <ele>121.73999999999999</ele>
        <time>2023-08-23T08:32:44Z</time>
      </trkpt>
      <trkpt lat="57.999659003689885" lon="-5.106390025466681">
        <ele>121.26000000000001</ele>
        <time>2023-08-23T08:32:45Z</time>
      </trkpt>
      <trkpt lat="57.9995839856565" lon="-5.106581971049309">
        <ele>121.26000000000001</ele>
        <time>2023-08-23T08:32:46Z</time>
      </trkpt>
      <trkpt lat="57.999512990936637" lon="-5.106765031814575">
        <ele>121.26000000000001</ele>
        <time>2023-08-23T08:32:47Z</time>
      </trkpt>
      <trkpt lat="57.999443002045155" lon="-5.106942979618907">
        <ele>120.78</ele>
        <time>2023-08-23T08:32:48Z</time>
      </trkpt>
      <trkpt lat="57.999320961534977" lon="-5.107255959883332">
        <ele>120.78</ele>
        <time>2023-08-23T08:32:50Z</time>
      </trkpt>
      <trkpt lat="57.999269999563694" lon="-5.107431979849935">
        <ele>121.26000000000001</ele>
        <time>2023-08-23T08:32:51Z</time>
      </trkpt>
      <trkpt lat="57.999214008450508" lon="-5.107627026736736">
        <ele>121.26000000000001</ele>
        <time>2023-08-23T08:32:52Z</time>
      </trkpt>
      <trkpt lat="57.999004041776061" lon="-5.108637968078256">
        <ele>120.3</ele>
        <time>2023-08-23T08:32:57Z</time>
      </trkpt>
      <trkpt lat="57.998998006805778" lon="-5.108808958902955">
        <ele>120.3</ele>
        <time>2023-08-23T08:32:58Z</time>
      </trkpt>
      <trkpt lat="57.999016027897596" lon="-5.108971986919642">
        <ele>120.3</ele>
        <time>2023-08-23T08:32:59Z</time>
      </trkpt>
      <trkpt lat="57.999075958505273" lon="-5.109109031036496">
        <ele>120.3</ele>
        <time>2023-08-23T08:33:00Z</time>
      </trkpt>
      <trkpt lat="57.999146031215787" lon="-5.10926702991128">
        <ele>119.81999999999999</ele>
        <time>2023-08-23T08:33:01Z</time>
      </trkpt>
      <trkpt lat="57.999219037592411" lon="-5.109435003250837">
        <ele>119.34</ele>
        <time>2023-08-23T08:33:02Z</time>
      </trkpt>
      <trkpt lat="57.999290032312274" lon="-5.109596019610763">
        <ele>118.86</ele>
        <time>2023-08-23T08:33:03Z</time>
      </trkpt>
      <trkpt lat="57.999358009546995" lon="-5.109749995172024">
        <ele>118.38</ele>
        <time>2023-08-23T08:33:04Z</time>
      </trkpt>
      <trkpt lat="57.999396985396743" lon="-5.109925009310246">
        <ele>117.90000000000001</ele>
        <time>2023-08-23T08:33:05Z</time>
      </trkpt>
      <trkpt lat="57.999421041458845" lon="-5.1101069804281">
        <ele>117.42</ele>
        <time>2023-08-23T08:33:06Z</time>
      </trkpt>
      <trkpt lat="57.99943596124649" lon="-5.110290963202715">
        <ele>116.94</ele>
        <time>2023-08-23T08:33:07Z</time>
      </trkpt>
      <trkpt lat="57.999440990388393" lon="-5.110467988997698">
        <ele>116.45999999999999</ele>
        <time>2023-08-23T08:33:08Z</time>
      </trkpt>
      <trkpt lat="57.999430010095239" lon="-5.1106440089643">
        <ele>115.98</ele>
        <time>2023-08-23T08:33:09Z</time>
      </trkpt>
      <trkpt lat="57.999420035630465" lon="-5.11079303920269">
        <ele>115.5</ele>
        <time>2023-08-23T08:33:10Z</time>
      </trkpt>
      <trkpt lat="57.99941198900342" lon="-5.110922958701849">
        <ele>115.01000000000001</ele>
        <time>2023-08-23T08:33:11Z</time>
      </trkpt>
      <trkpt lat="57.999402014538646" lon="-5.111089004203677">
        <ele>115.01000000000001</ele>
        <time>2023-08-23T08:33:12Z</time>
      </trkpt>
      <trkpt lat="57.999505028128624" lon="-5.111999027431011">
        <ele>113.09</ele>
        <time>2023-08-23T08:33:18Z</time>
      </trkpt>
      <trkpt lat="57.999550960958004" lon="-5.112136993557215">
        <ele>112.61</ele>
        <time>2023-08-23T08:33:19Z</time>
      </trkpt>
      <trkpt lat="57.999598989263177" lon="-5.112280994653702">
        <ele>112.61</ele>
        <time>2023-08-23T08:33:20Z</time>
      </trkpt>
      <trkpt lat="57.999740978702903" lon="-5.112747028470039">
        <ele>112.61</ele>
        <time>2023-08-23T08:33:23Z</time>
      </trkpt>
      <trkpt lat="57.999780038371682" lon="-5.112901004031301">
        <ele>113.09</ele>
        <time>2023-08-23T08:33:24Z</time>
      </trkpt>
      <trkpt lat="57.999812979251146" lon="-5.113033019006252">
        <ele>113.09</ele>
        <time>2023-08-23T08:33:25Z</time>
      </trkpt>
      <trkpt lat="57.999831000342965" lon="-5.113146007061005">
        <ele>113.56999999999999</ele>
        <time>2023-08-23T08:33:26Z</time>
      </trkpt>
      <trkpt lat="57.999831000342965" lon="-5.113228987902403">
        <ele>113.56999999999999</ele>
        <time>2023-08-23T08:33:27Z</time>
      </trkpt>
      <trkpt lat="57.999831000342965" lon="-5.113280033692718">
        <ele>114.05</ele>
        <time>2023-08-23T08:33:28Z</time>
      </trkpt>
      <trkpt lat="57.999831000342965" lon="-5.113280033692718">
        <ele>114.05</ele>
        <time>2023-08-23T08:33:41Z</time>
      </trkpt>
      <trkpt lat="57.999831000342965" lon="-5.113575998693705">
        <ele>114.53</ele>
        <time>2023-08-23T08:34:27Z</time>
      </trkpt>
      <trkpt lat="57.999850027263165" lon="-5.114302039146423">
        <ele>113.09</ele>
        <time>2023-08-23T08:34:31Z</time>
      </trkpt>
      <trkpt lat="57.999890008941293" lon="-5.114505970850587">
        <ele>113.09</ele>
        <time>2023-08-23T08:34:32Z</time>
      </trkpt>
      <trkpt lat="57.999952035024762" lon="-5.114690959453583">
        <ele>112.61</ele>
        <time>2023-08-23T08:34:33Z</time>
      </trkpt>
      <trkpt lat="58.000036021694541" lon="-5.114863039925695">
        <ele>112.13</ele>
        <time>2023-08-23T08:34:34Z</time>
      </trkpt>
      <trkpt lat="58.000123025849462" lon="-5.115032019093633">
        <ele>111.65000000000001</ele>
        <time>2023-08-23T08:34:35Z</time>
      </trkpt>
      <trkpt lat="58.000215981155634" lon="-5.115211978554726">
        <ele>111.65000000000001</ele>
        <time>2023-08-23T08:34:36Z</time>
      </trkpt>
      <trkpt lat="58.00031497143209" lon="-5.115395039319992">
        <ele>111.17</ele>
        <time>2023-08-23T08:34:37Z</time>
      </trkpt>
      <trkpt lat="58.000435000285506" lon="-5.115537028759718">
        <ele>110.20999999999999</ele>
        <time>2023-08-23T08:34:38Z</time>
      </trkpt>
      <trkpt lat="58.000557962805033" lon="-5.115684969350696">
        <ele>109.73</ele>
        <time>2023-08-23T08:34:39Z</time>
      </trkpt>
      <trkpt lat="58.00068000331521" lon="-5.115828970447183">
        <ele>108.77</ele>
        <time>2023-08-23T08:34:40Z</time>
      </trkpt>
      <trkpt lat="58.000896004959941" lon="-5.116109009832144">
        <ele>106.36</ele>
        <time>2023-08-23T08:34:42Z</time>
      </trkpt>
      <trkpt lat="58.000968005508184" lon="-5.116239013150334">
        <ele>105.40000000000001</ele>
        <time>2023-08-23T08:34:43Z</time>
      </trkpt>
      <trkpt lat="58.001013016328216" lon="-5.116447973996401">
        <ele>104.44</ele>
        <time>2023-08-23T08:34:44Z</time>
      </trkpt>
      <trkpt lat="58.001055009663105" lon="-5.116640003398061">
        <ele>103.95999999999999</ele>
        <time>2023-08-23T08:34:45Z</time>
      </trkpt>
      <trkpt lat="58.001095997169614" lon="-5.116832032799721">
        <ele>103.95999999999999</ele>
        <time>2023-08-23T08:34:46Z</time>
      </trkpt>
      <trkpt lat="58.001138996332884" lon="-5.117028001695871">
        <ele>103.95999999999999</ele>
        <time>2023-08-23T08:34:47Z</time>
      </trkpt>
      <trkpt lat="58.001179983839393" lon="-5.117232017219067">
        <ele>103.95999999999999</ele>
        <time>2023-08-23T08:34:48Z</time>
      </trkpt>
      <trkpt lat="58.001338988542557" lon="-5.118058975785971">
        <ele>102.52</ele>
        <time>2023-08-23T08:34:52Z</time>
      </trkpt>
      <trkpt lat="58.001358015462756" lon="-5.118247987702489">
        <ele>102.52</ele>
        <time>2023-08-23T08:34:53Z</time>
      </trkpt>
      <trkpt lat="58.001375030726194" lon="-5.118415961042047">
        <ele>102.52</ele>
        <time>2023-08-23T08:34:54Z</time>
      </trkpt>
      <trkpt lat="58.00134502351284" lon="-5.118551999330521">
        <ele>102.52</ele>
        <time>2023-08-23T08:34:55Z</time>
      </trkpt>
      <trkpt lat="58.001304036006331" lon="-5.118717961013317">
        <ele>102.52</ele>
        <time>2023-08-23T08:34:56Z</time>
      </trkpt>
      <trkpt lat="58.0012590251863" lon="-5.118904039263725">
        <ele>102.52</ele>
        <time>2023-08-23T08:34:57Z</time>
      </trkpt>
      <trkpt lat="58.00100103020668" lon="-5.119971977546811">
        <ele>102.52</ele>
        <time>2023-08-23T08:35:02Z</time>
      </trkpt>
      <trkpt lat="58.000760972499847" lon="-5.121895037591457">
        <ele>105.40000000000001</ele>
        <time>2023-08-23T08:35:10Z</time>
      </trkpt>
      <trkpt lat="58.000772958621383" lon="-5.122140040621162">
        <ele>105.88</ele>
        <time>2023-08-23T08:35:11Z</time>
      </trkpt>
      <trkpt lat="58.000918971374631" lon="-5.124512035399675">
        <ele>112.61</ele>
        <time>2023-08-23T08:35:20Z</time>
      </trkpt>
      <trkpt lat="58.000965993851423" lon="-5.124688977375627">
        <ele>113.09</ele>
        <time>2023-08-23T08:35:21Z</time>
      </trkpt>
      <trkpt lat="58.001011004671454" lon="-5.124859968200326">
        <ele>114.05</ele>
        <time>2023-08-23T08:35:22Z</time>
      </trkpt>
      <trkpt lat="58.001057021319866" lon="-5.125033976510167">
        <ele>115.01000000000001</ele>
        <time>2023-08-23T08:35:23Z</time>
      </trkpt>
      <trkpt lat="58.001103037968278" lon="-5.125209996476769">
        <ele>115.5</ele>
        <time>2023-08-23T08:35:24Z</time>
      </trkpt>
      <trkpt lat="58.001148970797658" lon="-5.12538299895823">
        <ele>115.98</ele>
        <time>2023-08-23T08:35:25Z</time>
      </trkpt>
      <trkpt lat="58.001192975789309" lon="-5.125550972297788">
        <ele>116.45999999999999</ele>
        <time>2023-08-23T08:35:26Z</time>
      </trkpt>
      <trkpt lat="58.001189036294818" lon="-5.125730009749532">
        <ele>116.94</ele>
        <time>2023-08-23T08:35:27Z</time>
      </trkpt>
      <trkpt lat="58.001167997717857" lon="-5.125921033322811">
        <ele>117.42</ele>
        <time>2023-08-23T08:35:28Z</time>
      </trkpt>
      <trkpt lat="58.001146959140897" lon="-5.126112978905439">
        <ele>117.90000000000001</ele>
        <time>2023-08-23T08:35:29Z</time>
      </trkpt>
      <trkpt lat="58.001126004382968" lon="-5.126297967508435">
        <ele>118.86</ele>
        <time>2023-08-23T08:35:30Z</time>
      </trkpt>
      <trkpt lat="58.001106977462769" lon="-5.126468036323786">
        <ele>119.34</ele>
        <time>2023-08-23T08:35:31Z</time>
      </trkpt>
      <trkpt lat="58.001089040189981" lon="-5.126627963036299">
        <ele>120.3</ele>
        <time>2023-08-23T08:35:32Z</time>
      </trkpt>
      <trkpt lat="58.00108702853322" lon="-5.126805994659662">
        <ele>120.78</ele>
        <time>2023-08-23T08:35:33Z</time>
      </trkpt>
      <trkpt lat="58.001123992726207" lon="-5.126981008797884">
        <ele>121.73999999999999</ele>
        <time>2023-08-23T08:35:34Z</time>
      </trkpt>
      <trkpt lat="58.001163974404335" lon="-5.127173038199544">
        <ele>122.22</ele>
        <time>2023-08-23T08:35:35Z</time>
      </trkpt>
      <trkpt lat="58.001207979395986" lon="-5.127378981560469">
        <ele>123.67</ele>
        <time>2023-08-23T08:35:36Z</time>
      </trkpt>
      <trkpt lat="58.001267993822694" lon="-5.127582997083664">
        <ele>124.63</ele>
        <time>2023-08-23T08:35:37Z</time>
      </trkpt>
      <trkpt lat="58.001332031562924" lon="-5.127766979858279">
        <ele>125.59</ele>
        <time>2023-08-23T08:35:38Z</time>
      </trkpt>
      <trkpt lat="58.001438984647393" lon="-5.128079038113356">
        <ele>129.43000000000001</ele>
        <time>2023-08-23T08:35:43Z</time>
      </trkpt>
      <trkpt lat="58.001463962718844" lon="-5.128149027004838">
        <ele>131.36000000000001</ele>
        <time>2023-08-23T08:35:48Z</time>
      </trkpt>
      <trkpt lat="58.001498999074101" lon="-5.128251034766436">
        <ele>132.31999999999999</ele>
        <time>2023-08-23T08:35:49Z</time>
      </trkpt>
      <trkpt lat="58.001823965460062" lon="-5.129513014107943">
        <ele>135.19999999999999</ele>
        <time>2023-08-23T08:35:57Z</time>
      </trkpt>
      <trkpt lat="58.002179022878408" lon="-5.131278997287154">
        <ele>134.24000000000001</ele>
        <time>2023-08-23T08:36:05Z</time>
      </trkpt>
      <trkpt lat="58.002382032573223" lon="-5.132307959720492">
        <ele>131.84</ele>
        <time>2023-08-23T08:36:11Z</time>
      </trkpt>
      <trkpt lat="58.002435006201267" lon="-5.132420025765896">
        <ele>131.36000000000001</ele>
        <time>2023-08-23T08:36:12Z</time>
      </trkpt>
      <trkpt lat="58.002493008971214" lon="-5.132543994113803">
        <ele>131.36000000000001</ele>
        <time>2023-08-23T08:36:13Z</time>
      </trkpt>
      <trkpt lat="58.002757038921118" lon="-5.133169032633305">
        <ele>128.94999999999999</ele>
        <time>2023-08-23T08:36:17Z</time>
      </trkpt>
      <trkpt lat="58.002819987013936" lon="-5.133377993479371">
        <ele>128.47</ele>
        <time>2023-08-23T08:36:18Z</time>
      </trkpt>
      <trkpt lat="58.003371013328433" lon="-5.135099971666932">
        <ele>123.19</ele>
        <time>2023-08-23T08:36:26Z</time>
      </trkpt>
      <trkpt lat="58.003557007759809" lon="-5.135379005223513">
        <ele>123.19</ele>
        <time>2023-08-23T08:36:28Z</time>
      </trkpt>
      <trkpt lat="58.003619033843279" lon="-5.135445976629853">
        <ele>123.19</ele>
        <time>2023-08-23T08:36:29Z</time>
      </trkpt>
      <trkpt lat="58.003701008856297" lon="-5.1355039793998">
        <ele>123.19</ele>
        <time>2023-08-23T08:36:30Z</time>
      </trkpt>
      <trkpt lat="58.003899995237589" lon="-5.135645968839526">
        <ele>123.19</ele>
        <time>2023-08-23T08:36:32Z</time>
      </trkpt>
      <trkpt lat="58.004008959978819" lon="-5.135724004358053">
        <ele>123.19</ele>
        <time>2023-08-23T08:36:33Z</time>
      </trkpt>
      <trkpt lat="58.004088001325727" lon="-5.135864987969399">
        <ele>122.70999999999999</ele>
        <time>2023-08-23T08:36:34Z</time>
      </trkpt>
      <trkpt lat="58.004166036844254" lon="-5.136049976572394">
        <ele>122.22</ele>
        <time>2023-08-23T08:36:35Z</time>
      </trkpt>
      <trkpt lat="58.004248011857271" lon="-5.136247035115957">
        <ele>121.73999999999999</ele>
        <time>2023-08-23T08:36:36Z</time>
      </trkpt>
      <trkpt lat="58.004464013502002" lon="-5.136870983988047">
        <ele>120.3</ele>
        <time>2023-08-23T08:36:39Z</time>
      </trkpt>
      <trkpt lat="58.004516987130046" lon="-5.137067958712578">
        <ele>120.3</ele>
        <time>2023-08-23T08:36:40Z</time>
      </trkpt>
      <trkpt lat="58.004536014050245" lon="-5.137277003377676">
        <ele>120.3</ele>
        <time>2023-08-23T08:36:41Z</time>
      </trkpt>
      <trkpt lat="58.004544982686639" lon="-5.137502979487181">
        <ele>120.3</ele>
        <time>2023-08-23T08:36:42Z</time>
      </trkpt>
      <trkpt lat="58.004554035142064" lon="-5.137729961425066">
        <ele>119.81999999999999</ele>
        <time>2023-08-23T08:36:43Z</time>
      </trkpt>
      <trkpt lat="58.00456996075809" lon="-5.138154001906514">
        <ele>119.34</ele>
        <time>2023-08-23T08:36:45Z</time>
      </trkpt>
      <trkpt lat="58.004600973799825" lon="-5.138347959145904">
        <ele>119.34</ele>
        <time>2023-08-23T08:36:46Z</time>
      </trkpt>
      <trkpt lat="58.004651013761759" lon="-5.138551974669099">
        <ele>118.38</ele>
        <time>2023-08-23T08:36:47Z</time>
      </trkpt>
      <trkpt lat="58.005038006231189" lon="-5.13964899815619">
        <ele>117.90000000000001</ele>
        <time>2023-08-23T08:36:53Z</time>
      </trkpt>
      <trkpt lat="58.005100032314658" lon="-5.139791993424296">
        <ele>118.38</ele>
        <time>2023-08-23T08:36:54Z</time>
      </trkpt>
      <trkpt lat="58.005172032862902" lon="-5.139905987307429">
        <ele>118.86</ele>
        <time>2023-08-23T08:36:55Z</time>
      </trkpt>
      <trkpt lat="58.005266999825835" lon="-5.140003971755505">
        <ele>118.86</ele>
        <time>2023-08-23T08:36:56Z</time>
      </trkpt>
      <trkpt lat="58.005369007587433" lon="-5.140108997002244">
        <ele>118.86</ele>
        <time>2023-08-23T08:36:57Z</time>
      </trkpt>
      <trkpt lat="58.00587703473866" lon="-5.140672009438276">
        <ele>117.90000000000001</ele>
        <time>2023-08-23T08:37:02Z</time>
      </trkpt>
      <trkpt lat="58.005958003923297" lon="-5.140792960301042">
        <ele>117.42</ele>
        <time>2023-08-23T08:37:03Z</time>
      </trkpt>
      <trkpt lat="58.00602899864316" lon="-5.140940984711051">
        <ele>116.45999999999999</ele>
        <time>2023-08-23T08:37:04Z</time>
      </trkpt>
      <trkpt lat="58.006079960614443" lon="-5.141136031597853">
        <ele>115.98</ele>
        <time>2023-08-23T08:37:05Z</time>
      </trkpt>
      <trkpt lat="58.006134023889899" lon="-5.141341974958777">
        <ele>115.5</ele>
        <time>2023-08-23T08:37:06Z</time>
      </trkpt>
      <trkpt lat="58.006272995844483" lon="-5.14201101846993">
        <ele>113.09</ele>
        <time>2023-08-23T08:37:09Z</time>
      </trkpt>
      <trkpt lat="58.006297973915935" lon="-5.142232971265912">
        <ele>112.13</ele>
        <time>2023-08-23T08:37:10Z</time>
      </trkpt>
      <trkpt lat="58.006340973079205" lon="-5.142618035897613">
        <ele>111.17</ele>
        <time>2023-08-23T08:37:12Z</time>
      </trkpt>
      <trkpt lat="58.00635396502912" lon="-5.142738986760378">
        <ele>111.17</ele>
        <time>2023-08-23T08:37:13Z</time>
      </trkpt>
      <trkpt lat="58.00639595836401" lon="-5.142780980095267">
        <ele>110.69</ele>
        <time>2023-08-23T08:37:14Z</time>
      </trkpt>
      <trkpt lat="58.00643996335566" lon="-5.142824985086918">
        <ele>110.69</ele>
        <time>2023-08-23T08:37:15Z</time>
      </trkpt>
      <trkpt lat="58.006483968347311" lon="-5.142867984250188">
        <ele>110.69</ele>
        <time>2023-08-23T08:37:16Z</time>
      </trkpt>
      <trkpt lat="58.00656896084547" lon="-5.142952976748347">
        <ele>110.69</ele>
        <time>2023-08-23T08:37:17Z</time>
      </trkpt>
      <trkpt lat="58.006576001644135" lon="-5.142954988405109">
        <ele>110.69</ele>
        <time>2023-08-23T08:37:18Z</time>
      </trkpt>
      <trkpt lat="58.007226018235087" lon="-5.143060013651848">
        <ele>109.25</ele>
        <time>2023-08-23T08:37:26Z</time>
      </trkpt>
      <trkpt lat="58.007320985198021" lon="-5.143148023635149">
        <ele>108.77</ele>
        <time>2023-08-23T08:37:27Z</time>
      </trkpt>
      <trkpt lat="58.00742601044476" lon="-5.143252965062857">
        <ele>107.81</ele>
        <time>2023-08-23T08:37:28Z</time>
      </trkpt>
      <trkpt lat="58.007518965750933" lon="-5.143381962552667">
        <ele>107.31999999999999</ele>
        <time>2023-08-23T08:37:29Z</time>
      </trkpt>
      <trkpt lat="58.007599012926221" lon="-5.143566029146314">
        <ele>106.36</ele>
        <time>2023-08-23T08:37:30Z</time>
      </trkpt>
      <trkpt lat="58.00768400542438" lon="-5.143761998042464">
        <ele>105.40000000000001</ele>
        <time>2023-08-23T08:37:31Z</time>
      </trkpt>
      <trkpt lat="58.008362017571926" lon="-5.145399989560247">
        <ele>99.150000000000006</ele>
        <time>2023-08-23T08:37:39Z</time>
      </trkpt>
      <trkpt lat="58.008425971493125" lon="-5.145595958456397">
        <ele>98.189999999999998</ele>
        <time>2023-08-23T08:37:40Z</time>
      </trkpt>
      <trkpt lat="58.008539965376258" lon="-5.145942969247699">
        <ele>96.75</ele>
        <time>2023-08-23T08:37:42Z</time>
      </trkpt>
      <trkpt lat="58.008597968146205" lon="-5.146121000871062">
        <ele>95.790000000000006</ele>
        <time>2023-08-23T08:37:43Z</time>
      </trkpt>
      <trkpt lat="58.009395003318787" lon="-5.147672994062305">
        <ele>88.579999999999998</ele>
        <time>2023-08-23T08:37:51Z</time>
      </trkpt>
      <trkpt lat="58.010284993797541" lon="-5.149867963045836">
        <ele>78.969999999999999</ele>
        <time>2023-08-23T08:38:01Z</time>
      </trkpt>
      <trkpt lat="58.010876001790166" lon="-5.151867968961597">
        <ele>74.640000000000001</ele>
        <time>2023-08-23T08:38:09Z</time>
      </trkpt>
      <trkpt lat="58.011243967339396" lon="-5.152845969423652">
        <ele>75.120000000000005</ele>
        <time>2023-08-23T08:38:14Z</time>
      </trkpt>
      <trkpt lat="58.011343963444233" lon="-5.152987036854029">
        <ele>75.599999999999994</ele>
        <time>2023-08-23T08:38:15Z</time>
      </trkpt>
      <trkpt lat="58.011445971205831" lon="-5.153129026293755">
        <ele>76.079999999999998</ele>
        <time>2023-08-23T08:38:16Z</time>
      </trkpt>
      <trkpt lat="58.011654010042548" lon="-5.153419962152839">
        <ele>76.560000000000002</ele>
        <time>2023-08-23T08:38:18Z</time>
      </trkpt>
      <trkpt lat="58.011749982833862" lon="-5.153568992391229">
        <ele>76.560000000000002</ele>
        <time>2023-08-23T08:38:19Z</time>
      </trkpt>
      <trkpt lat="58.011932037770748" lon="-5.153896976262331">
        <ele>77.040000000000006</ele>
        <time>2023-08-23T08:38:21Z</time>
      </trkpt>
      <trkpt lat="58.01202398724854" lon="-5.15406503342092">
        <ele>77.519999999999996</ele>
        <time>2023-08-23T08:38:22Z</time>
      </trkpt>
      <trkpt lat="58.012799983844161" lon="-5.154935996979475">
        <ele>79.450000000000003</ele>
        <time>2023-08-23T08:38:29Z</time>
      </trkpt>
      <trkpt lat="58.013113969936967" lon="-5.15535400249064">
        <ele>78.969999999999999</ele>
        <time>2023-08-23T08:38:32Z</time>
      </trkpt>
      <trkpt lat="58.013203991577029" lon="-5.155531028285623">
        <ele>78.969999999999999</ele>
        <time>2023-08-23T08:38:33Z</time>
      </trkpt>
      <trkpt lat="58.013295019045472" lon="-5.155708976089954">
        <ele>78.969999999999999</ele>
        <time>2023-08-23T08:38:34Z</time>
      </trkpt>
      <trkpt lat="58.013559971004725" lon="-5.156228989362717">
        <ele>79.450000000000003</ele>
        <time>2023-08-23T08:38:37Z</time>
      </trkpt>
      <trkpt lat="58.014636039733887" lon="-5.15746096149087">
        <ele>79.450000000000003</ele>
        <time>2023-08-23T08:38:46Z</time>
      </trkpt>
      <trkpt lat="58.014877019450068" lon="-5.157686015591025">
        <ele>79.450000000000003</ele>
        <time>2023-08-23T08:38:48Z</time>
      </trkpt>
      <trkpt lat="58.015000987797976" lon="-5.15780202113092">
        <ele>79.450000000000003</ele>
        <time>2023-08-23T08:38:49Z</time>
      </trkpt>
      <trkpt lat="58.01507500000298" lon="-5.157984998077154">
        <ele>79.450000000000003</ele>
        <time>2023-08-23T08:38:50Z</time>
      </trkpt>
      <trkpt lat="58.015148006379604" lon="-5.158166969195008">
        <ele>79.930000000000007</ele>
        <time>2023-08-23T08:38:51Z</time>
      </trkpt>
      <trkpt lat="58.015220006927848" lon="-5.158348018303514">
        <ele>80.409999999999997</ele>
        <time>2023-08-23T08:38:52Z</time>
      </trkpt>
      <trkpt lat="58.01546098664403" lon="-5.158922011032701">
        <ele>82.810000000000002</ele>
        <time>2023-08-23T08:38:55Z</time>
      </trkpt>
      <trkpt lat="58.015570035204291" lon="-5.159085961058736">
        <ele>83.290000000000006</ele>
        <time>2023-08-23T08:38:56Z</time>
      </trkpt>
      <trkpt lat="58.016112009063363" lon="-5.159942004829645">
        <ele>86.180000000000007</ele>
        <time>2023-08-23T08:39:01Z</time>
      </trkpt>
      <trkpt lat="58.016494978219271" lon="-5.160742979496718">
        <ele>88.579999999999998</ele>
        <time>2023-08-23T08:39:06Z</time>
      </trkpt>
      <trkpt lat="58.016563039273024" lon="-5.160837024450302">
        <ele>89.060000000000002</ele>
        <time>2023-08-23T08:39:07Z</time>
      </trkpt>
      <trkpt lat="58.016650965437293" lon="-5.160908019170165">
        <ele>89.540000000000006</ele>
        <time>2023-08-23T08:39:08Z</time>
      </trkpt>
      <trkpt lat="58.016739981248975" lon="-5.160981025546789">
        <ele>90.019999999999996</ele>
        <time>2023-08-23T08:39:09Z</time>
      </trkpt>
      <trkpt lat="58.016834026202559" lon="-5.161055959761143">
        <ele>90.5</ele>
        <time>2023-08-23T08:39:10Z</time>
      </trkpt>
      <trkpt lat="58.017397038638592" lon="-5.16154202632606">
        <ele>90.5</ele>
        <time>2023-08-23T08:39:15Z</time>
      </trkpt>
      <trkpt lat="58.018369004130363" lon="-5.162691017612815">
        <ele>90.980000000000004</ele>
        <time>2023-08-23T08:39:23Z</time>
      </trkpt>
      <trkpt lat="58.019074006006122" lon="-5.163227962329984">
        <ele>89.540000000000006</ele>
        <time>2023-08-23T08:39:29Z</time>
      </trkpt>
      <trkpt lat="58.019180037081242" lon="-5.163379004225135">
        <ele>88.579999999999998</ele>
        <time>2023-08-23T08:39:30Z</time>
      </trkpt>
      <trkpt lat="58.019291013479233" lon="-5.163542032241821">
        <ele>87.620000000000005</ele>
        <time>2023-08-23T08:39:31Z</time>
      </trkpt>
      <trkpt lat="58.019733997061849" lon="-5.164171010255814">
        <ele>84.25</ele>
        <time>2023-08-23T08:39:35Z</time>
      </trkpt>
      <trkpt lat="58.019854025915265" lon="-5.164305958896875">
        <ele>83.769999999999996</ele>
        <time>2023-08-23T08:39:36Z</time>
      </trkpt>
      <trkpt lat="58.020205982029438" lon="-5.164698986336589">
        <ele>80.890000000000001</ele>
        <time>2023-08-23T08:39:39Z</time>
      </trkpt>
      <trkpt lat="58.0202960036695" lon="-5.164847010746598">
        <ele>79.930000000000007</ele>
        <time>2023-08-23T08:39:40Z</time>
      </trkpt>
      <trkpt lat="58.02038200199604" lon="-5.165011966601014">
        <ele>79.930000000000007</ele>
        <time>2023-08-23T08:39:41Z</time>
      </trkpt>
      <trkpt lat="58.02106998860836" lon="-5.166338989511132">
        <ele>78.969999999999999</ele>
        <time>2023-08-23T08:39:50Z</time>
      </trkpt>
      <trkpt lat="58.021149029955268" lon="-5.166491037234664">
        <ele>78.480000000000004</ele>
        <time>2023-08-23T08:39:51Z</time>
      </trkpt>
      <trkpt lat="58.021783037111163" lon="-5.16773197799921">
        <ele>76.079999999999998</ele>
        <time>2023-08-23T08:39:59Z</time>
      </trkpt>
      <trkpt lat="58.021956039592624" lon="-5.16813799738884">
        <ele>76.079999999999998</ele>
        <time>2023-08-23T08:40:05Z</time>
      </trkpt>
      <trkpt lat="58.022003984078765" lon="-5.168249979615212">
        <ele>76.079999999999998</ele>
        <time>2023-08-23T08:40:06Z</time>
      </trkpt>
      <trkpt lat="58.02240002900362" lon="-5.169163020327687">
        <ele>77.519999999999996</ele>
        <time>2023-08-23T08:40:12Z</time>
      </trkpt>
      <trkpt lat="58.022489966824651" lon="-5.169334011152387">
        <ele>77.519999999999996</ele>
        <time>2023-08-23T08:40:13Z</time>
      </trkpt>
      <trkpt lat="58.022575965151191" lon="-5.169497039169073">
        <ele>77.040000000000006</ele>
        <time>2023-08-23T08:40:14Z</time>
      </trkpt>
      <trkpt lat="58.02270001731813" lon="-5.169583959504962">
        <ele>77.040000000000006</ele>
        <time>2023-08-23T08:40:15Z</time>
      </trkpt>
      <trkpt lat="58.022815017029643" lon="-5.169665012508631">
        <ele>76.560000000000002</ele>
        <time>2023-08-23T08:40:16Z</time>
      </trkpt>
      <trkpt lat="58.022929010912776" lon="-5.169744975864887">
        <ele>76.560000000000002</ele>
        <time>2023-08-23T08:40:17Z</time>
      </trkpt>
      <trkpt lat="58.023050967603922" lon="-5.169783029705286">
        <ele>76.560000000000002</ele>
        <time>2023-08-23T08:40:18Z</time>
      </trkpt>
      <trkpt lat="58.023184994235635" lon="-5.169817982241511">
        <ele>76.079999999999998</ele>
        <time>2023-08-23T08:40:19Z</time>
      </trkpt>
      <trkpt lat="58.024117983877659" lon="-5.170080000534654">
        <ele>75.599999999999994</ele>
        <time>2023-08-23T08:40:26Z</time>
      </trkpt>
      <trkpt lat="58.024220997467637" lon="-5.170145966112614">
        <ele>75.599999999999994</ele>
        <time>2023-08-23T08:40:27Z</time>
      </trkpt>
      <trkpt lat="58.024777974933386" lon="-5.170412007719278">
        <ele>75.599999999999994</ele>
        <time>2023-08-23T08:40:33Z</time>
      </trkpt>
      <trkpt lat="58.024963969364762" lon="-5.17045802436769">
        <ele>74.159999999999997</ele>
        <time>2023-08-23T08:40:38Z</time>
      </trkpt>
      <trkpt lat="58.025393038988113" lon="-5.170564977452159">
        <ele>73.200000000000003</ele>
        <time>2023-08-23T08:40:44Z</time>
      </trkpt>
      <trkpt lat="58.026423007249832" lon="-5.171193033456802">
        <ele>74.159999999999997</ele>
        <time>2023-08-23T08:40:54Z</time>
      </trkpt>
      <trkpt lat="58.027573004364967" lon="-5.172123005613685">
        <ele>76.560000000000002</ele>
        <time>2023-08-23T08:41:04Z</time>
      </trkpt>
      <trkpt lat="58.027914986014366" lon="-5.17249901778996">
        <ele>77.519999999999996</ele>
        <time>2023-08-23T08:41:07Z</time>
      </trkpt>
      <trkpt lat="58.028021017089486" lon="-5.172616029158235">
        <ele>77.519999999999996</ele>
        <time>2023-08-23T08:41:08Z</time>
      </trkpt>
      <trkpt lat="58.028893992304802" lon="-5.173493027687073">
        <ele>78.969999999999999</ele>
        <time>2023-08-23T08:41:17Z</time>
      </trkpt>
      <trkpt lat="58.030169969424605" lon="-5.174672026187182">
        <ele>79.930000000000007</ele>
        <time>2023-08-23T08:41:29Z</time>
      </trkpt>
      <trkpt lat="58.030360992997885" lon="-5.174988023936749">
        <ele>79.450000000000003</ele>
        <time>2023-08-23T08:41:31Z</time>
      </trkpt>
      <trkpt lat="58.030441040173173" lon="-5.17518499866128">
        <ele>78.969999999999999</ele>
        <time>2023-08-23T08:41:32Z</time>
      </trkpt>
      <trkpt lat="58.030519997701049" lon="-5.17538096755743">
        <ele>78.969999999999999</ele>
        <time>2023-08-23T08:41:33Z</time>
      </trkpt>
      <trkpt lat="58.030975973233581" lon="-5.177410980686545">
        <ele>79.450000000000003</ele>
        <time>2023-08-23T08:41:42Z</time>
      </trkpt>
      <trkpt lat="58.031175965443254" lon="-5.179647020995617">
        <ele>79.450000000000003</ele>
        <time>2023-08-23T08:41:51Z</time>
      </trkpt>
      <trkpt lat="58.031315021216869" lon="-5.181756997480989">
        <ele>78</ele>
        <time>2023-08-23T08:42:00Z</time>
      </trkpt>
      <trkpt lat="58.031331030651927" lon="-5.183176975697279">
        <ele>78</ele>
        <time>2023-08-23T08:42:06Z</time>
      </trkpt>
      <trkpt lat="58.031333964318037" lon="-5.183383002877235">
        <ele>78.480000000000004</ele>
        <time>2023-08-23T08:42:07Z</time>
      </trkpt>
      <trkpt lat="58.031358020380139" lon="-5.183591041713953">
        <ele>78.480000000000004</ele>
        <time>2023-08-23T08:42:08Z</time>
      </trkpt>
      <trkpt lat="58.031610986217856" lon="-5.185838984325528">
        <ele>77.519999999999996</ele>
        <time>2023-08-23T08:42:18Z</time>
      </trkpt>
      <trkpt lat="58.031698996201158" lon="-5.186954028904438">
        <ele>77.519999999999996</ele>
        <time>2023-08-23T08:42:25Z</time>
      </trkpt>
      <trkpt lat="58.031710982322693" lon="-5.187320988625288">
        <ele>77.519999999999996</ele>
        <time>2023-08-23T08:42:30Z</time>
      </trkpt>
      <trkpt lat="58.031722968444228" lon="-5.188726969063282">
        <ele>78.480000000000004</ele>
        <time>2023-08-23T08:42:37Z</time>
      </trkpt>
      <trkpt lat="58.031708970665932" lon="-5.190835017710924">
        <ele>76.079999999999998</ele>
        <time>2023-08-23T08:42:46Z</time>
      </trkpt>
      <trkpt lat="58.031744007021189" lon="-5.191035009920597">
        <ele>75.120000000000005</ele>
        <time>2023-08-23T08:42:47Z</time>
      </trkpt>
      <trkpt lat="58.031781977042556" lon="-5.191252017393708">
        <ele>74.640000000000001</ele>
        <time>2023-08-23T08:42:48Z</time>
      </trkpt>
      <trkpt lat="58.032222026959062" lon="-5.193775976076722">
        <ele>68.870000000000005</ele>
        <time>2023-08-23T08:42:57Z</time>
      </trkpt>
      <trkpt lat="58.032339960336685" lon="-5.194613998755813">
        <ele>67.430000000000007</ele>
        <time>2023-08-23T08:43:00Z</time>
      </trkpt>
      <trkpt lat="58.032357981428504" lon="-5.194853972643614">
        <ele>67.430000000000007</ele>
        <time>2023-08-23T08:43:01Z</time>
      </trkpt>
      <trkpt lat="58.032382037490606" lon="-5.195181034505367">
        <ele>66.950000000000003</ele>
        <time>2023-08-23T08:43:03Z</time>
      </trkpt>
      <trkpt lat="58.032450014725327" lon="-5.195356970652938">
        <ele>66.950000000000003</ele>
        <time>2023-08-23T08:43:04Z</time>
      </trkpt>
      <trkpt lat="58.032505000010133" lon="-5.195498960092664">
        <ele>66.469999999999999</ele>
        <time>2023-08-23T08:43:05Z</time>
      </trkpt>
      <trkpt lat="58.032565014436841" lon="-5.195656036958098">
        <ele>66.469999999999999</ele>
        <time>2023-08-23T08:43:06Z</time>
      </trkpt>
      <trkpt lat="58.032633997499943" lon="-5.19583297893405">
        <ele>65.989999999999995</ele>
        <time>2023-08-23T08:43:07Z</time>
      </trkpt>
      <trkpt lat="58.032708009704947" lon="-5.196024002507329">
        <ele>65.989999999999995</ele>
        <time>2023-08-23T08:43:08Z</time>
      </trkpt>
      <trkpt lat="58.032766012474895" lon="-5.196250984445214">
        <ele>65.510000000000005</ele>
        <time>2023-08-23T08:43:09Z</time>
      </trkpt>
      <trkpt lat="58.032808005809784" lon="-5.196519959717989">
        <ele>65.510000000000005</ele>
        <time>2023-08-23T08:43:10Z</time>
      </trkpt>
      <trkpt lat="58.033009003847837" lon="-5.197812030091882">
        <ele>66.469999999999999</ele>
        <time>2023-08-23T08:43:15Z</time>
      </trkpt>
      <trkpt lat="58.033046973869205" lon="-5.198057033121586">
        <ele>66.950000000000003</ele>
        <time>2023-08-23T08:43:16Z</time>
      </trkpt>
      <trkpt lat="58.033216958865523" lon="-5.198720041662455">
        <ele>67.430000000000007</ele>
        <time>2023-08-23T08:43:19Z</time>
      </trkpt>
      <trkpt lat="58.033269010484219" lon="-5.198933025822043">
        <ele>66.950000000000003</ele>
        <time>2023-08-23T08:43:20Z</time>
      </trkpt>
      <trkpt lat="58.033303041011095" lon="-5.199111979454756">
        <ele>67.430000000000007</ele>
        <time>2023-08-23T08:43:21Z</time>
      </trkpt>
      <trkpt lat="58.033374035730958" lon="-5.199488997459412">
        <ele>67.909999999999997</ele>
        <time>2023-08-23T08:43:26Z</time>
      </trkpt>
      <trkpt lat="58.033506972715259" lon="-5.200132979080081">
        <ele>67.430000000000007</ele>
        <time>2023-08-23T08:43:32Z</time>
      </trkpt>
      <trkpt lat="58.033913997933269" lon="-5.201553041115403">
        <ele>68.390000000000001</ele>
        <time>2023-08-23T08:43:40Z</time>
      </trkpt>
      <trkpt lat="58.033976024016738" lon="-5.201708022505045">
        <ele>68.870000000000005</ele>
        <time>2023-08-23T08:43:41Z</time>
      </trkpt>
      <trkpt lat="58.034083982929587" lon="-5.201850011944771">
        <ele>69.349999999999994</ele>
        <time>2023-08-23T08:43:43Z</time>
      </trkpt>
      <trkpt lat="58.03413100540638" lon="-5.201901979744434">
        <ele>69.829999999999998</ele>
        <time>2023-08-23T08:43:44Z</time>
      </trkpt>
      <trkpt lat="58.034178027883172" lon="-5.20195503719151">
        <ele>69.829999999999998</ele>
        <time>2023-08-23T08:43:45Z</time>
      </trkpt>
      <trkpt lat="58.034233013167977" lon="-5.202014967799187">
        <ele>70.310000000000002</ele>
        <time>2023-08-23T08:43:46Z</time>
      </trkpt>
      <trkpt lat="58.034300990402699" lon="-5.202090991660953">
        <ele>70.310000000000002</ele>
        <time>2023-08-23T08:43:47Z</time>
      </trkpt>
      <trkpt lat="58.034381037577987" lon="-5.202180007472634">
        <ele>70.310000000000002</ele>
        <time>2023-08-23T08:43:48Z</time>
      </trkpt>
      <trkpt lat="58.034464018419385" lon="-5.202272040769458">
        <ele>70.310000000000002</ele>
        <time>2023-08-23T08:43:49Z</time>
      </trkpt>
      <trkpt lat="58.034548005089164" lon="-5.202366001904011">
        <ele>70.310000000000002</ele>
        <time>2023-08-23T08:43:50Z</time>
      </trkpt>
      <trkpt lat="58.034548005089164" lon="-5.202366001904011">
        <ele>70.790000000000006</ele>
        <time>2023-08-23T08:43:51Z</time>
      </trkpt>
      <trkpt lat="58.034636015072465" lon="-5.202691974118352">
        <ele>71.269999999999996</ele>
        <time>2023-08-23T08:43:52Z</time>
      </trkpt>
      <trkpt lat="58.034678008407354" lon="-5.202882997691631">
        <ele>71.760000000000005</ele>
        <time>2023-08-23T08:43:53Z</time>
      </trkpt>
      <trkpt lat="58.034692006185651" lon="-5.203086007386446">
        <ele>72.239999999999995</ele>
        <time>2023-08-23T08:43:54Z</time>
      </trkpt>
      <trkpt lat="58.034707009792328" lon="-5.203312989324331">
        <ele>72.719999999999999</ele>
        <time>2023-08-23T08:43:55Z</time>
      </trkpt>
      <trkpt lat="58.034722013399005" lon="-5.203526979312301">
        <ele>72.719999999999999</ele>
        <time>2023-08-23T08:43:56Z</time>
      </trkpt>
      <trkpt lat="58.034740034490824" lon="-5.203943978995085">
        <ele>73.680000000000007</ele>
        <time>2023-08-23T08:43:58Z</time>
      </trkpt>
      <trkpt lat="58.034698963165283" lon="-5.205987989902496">
        <ele>78.480000000000004</ele>
        <time>2023-08-23T08:44:07Z</time>
      </trkpt>
      <trkpt lat="58.034621011465788" lon="-5.207743998616934">
        <ele>82.810000000000002</ele>
        <time>2023-08-23T08:44:16Z</time>
      </trkpt>
      <trkpt lat="58.034606007859111" lon="-5.207940973341465">
        <ele>82.329999999999998</ele>
        <time>2023-08-23T08:44:17Z</time>
      </trkpt>
      <trkpt lat="58.034592010080814" lon="-5.208120010793209">
        <ele>82.329999999999998</ele>
        <time>2023-08-23T08:44:18Z</time>
      </trkpt>
      <trkpt lat="58.034545993432403" lon="-5.208309022709727">
        <ele>82.329999999999998</ele>
        <time>2023-08-23T08:44:19Z</time>
      </trkpt>
      <trkpt lat="58.034499976783991" lon="-5.208494011312723">
        <ele>82.329999999999998</ele>
        <time>2023-08-23T08:44:20Z</time>
      </trkpt>
      <trkpt lat="58.03445496596396" lon="-5.208674976602197">
        <ele>82.810000000000002</ele>
        <time>2023-08-23T08:44:21Z</time>
      </trkpt>
      <trkpt lat="58.034281963482499" lon="-5.209374027326703">
        <ele>84.25</ele>
        <time>2023-08-23T08:44:27Z</time>
      </trkpt>
      <trkpt lat="58.034276012331247" lon="-5.209396993741393">
        <ele>85.209999999999994</ele>
        <time>2023-08-23T08:44:36Z</time>
      </trkpt>
      <trkpt lat="58.034263020381331" lon="-5.209450973197818">
        <ele>85.689999999999998</ele>
        <time>2023-08-23T08:44:37Z</time>
      </trkpt>
      <trkpt lat="58.03424097597599" lon="-5.209538983181119">
        <ele>86.180000000000007</ele>
        <time>2023-08-23T08:44:38Z</time>
      </trkpt>
      <trkpt lat="58.034210968762636" lon="-5.209660017862916">
        <ele>86.180000000000007</ele>
        <time>2023-08-23T08:44:39Z</time>
      </trkpt>
      <trkpt lat="58.034177022054791" lon="-5.20979798398912">
        <ele>86.180000000000007</ele>
        <time>2023-08-23T08:44:40Z</time>
      </trkpt>
      <trkpt lat="58.034136034548283" lon="-5.209961012005806">
        <ele>86.659999999999997</ele>
        <time>2023-08-23T08:44:41Z</time>
      </trkpt>
      <trkpt lat="58.033933024853468" lon="-5.210619997233152">
        <ele>86.659999999999997</ele>
        <time>2023-08-23T08:44:45Z</time>
      </trkpt>
      <trkpt lat="58.033412005752325" lon="-5.211661029607058">
        <ele>86.180000000000007</ele>
        <time>2023-08-23T08:44:53Z</time>
      </trkpt>
      <trkpt lat="58.033387027680874" lon="-5.211776029318571">
        <ele>85.689999999999998</ele>
        <time>2023-08-23T08:44:54Z</time>
      </trkpt>
      <trkpt lat="58.033338999375701" lon="-5.21198901347816">
        <ele>85.209999999999994</ele>
        <time>2023-08-23T08:45:03Z</time>
      </trkpt>
      <trkpt lat="58.033338999375701" lon="-5.21198901347816">
        <ele>85.689999999999998</ele>
        <time>2023-08-23T08:45:41Z</time>
      </trkpt>
      <trkpt lat="58.033326007425785" lon="-5.212047016248107">
        <ele>85.689999999999998</ele>
        <time>2023-08-23T08:46:10Z</time>
      </trkpt>
      <trkpt lat="58.033327013254166" lon="-5.212052967399359">
        <ele>86.659999999999997</ele>
        <time>2023-08-23T08:46:11Z</time>
      </trkpt>
      <trkpt lat="58.033334976062179" lon="-5.212179031223059">
        <ele>87.620000000000005</ele>
        <time>2023-08-23T08:46:12Z</time>
      </trkpt>
      <trkpt lat="58.033344028517604" lon="-5.212323032319546">
        <ele>88.099999999999994</ele>
        <time>2023-08-23T08:46:13Z</time>
      </trkpt>
      <trkpt lat="58.033354002982378" lon="-5.212483964860439">
        <ele>88.099999999999994</ele>
        <time>2023-08-23T08:46:14Z</time>
      </trkpt>
      <trkpt lat="58.033472020179033" lon="-5.214380035176873">
        <ele>93.390000000000001</ele>
        <time>2023-08-23T08:46:23Z</time>
      </trkpt>
      <trkpt lat="58.03348702378571" lon="-5.214622020721436">
        <ele>93.870000000000005</ele>
        <time>2023-08-23T08:46:24Z</time>
      </trkpt>
      <trkpt lat="58.033493980765343" lon="-5.214869035407901">
        <ele>94.349999999999994</ele>
        <time>2023-08-23T08:46:25Z</time>
      </trkpt>
      <trkpt lat="58.033360037952662" lon="-5.217671021819115">
        <ele>99.150000000000006</ele>
        <time>2023-08-23T08:46:36Z</time>
      </trkpt>
      <trkpt lat="58.033198015764356" lon="-5.221208017319441">
        <ele>99.629999999999995</ele>
        <time>2023-08-23T08:46:47Z</time>
      </trkpt>
      <trkpt lat="58.033155016601086" lon="-5.22258197888732">
        <ele>100.59999999999999</ele>
        <time>2023-08-23T08:46:52Z</time>
      </trkpt>
      <trkpt lat="58.033170020207763" lon="-5.222837962210178">
        <ele>100.59999999999999</ele>
        <time>2023-08-23T08:46:53Z</time>
      </trkpt>
      <trkpt lat="58.03320799022913" lon="-5.22309503518045">
        <ele>100.11</ele>
        <time>2023-08-23T08:46:54Z</time>
      </trkpt>
      <trkpt lat="58.033245960250497" lon="-5.22335696965456">
        <ele>100.11</ele>
        <time>2023-08-23T08:46:55Z</time>
      </trkpt>
      <trkpt lat="58.033304968848825" lon="-5.223604990169406">
        <ele>100.11</ele>
        <time>2023-08-23T08:46:56Z</time>
      </trkpt>
      <trkpt lat="58.033372024074197" lon="-5.223826020956039">
        <ele>100.11</ele>
        <time>2023-08-23T08:46:57Z</time>
      </trkpt>
      <trkpt lat="58.033523987978697" lon="-5.224532028660178">
        <ele>99.629999999999995</ele>
        <time>2023-08-23T08:47:00Z</time>
      </trkpt>
      <trkpt lat="58.033534968271852" lon="-5.224789017811418">
        <ele>99.150000000000006</ele>
        <time>2023-08-23T08:47:01Z</time>
      </trkpt>
      <trkpt lat="58.033523987978697" lon="-5.225052963942289">
        <ele>98.670000000000002</ele>
        <time>2023-08-23T08:47:02Z</time>
      </trkpt>
      <trkpt lat="58.033441007137299" lon="-5.228403965011239">
        <ele>99.150000000000006</ele>
        <time>2023-08-23T08:47:14Z</time>
      </trkpt>
      <trkpt lat="58.033376969397068" lon="-5.231860997155309">
        <ele>104.92</ele>
        <time>2023-08-23T08:47:27Z</time>
      </trkpt>
      <trkpt lat="58.033318966627121" lon="-5.233455989509821">
        <ele>103.95999999999999</ele>
        <time>2023-08-23T08:47:34Z</time>
      </trkpt>
      <trkpt lat="58.033347968012094" lon="-5.233654975891113">
        <ele>103.95999999999999</ele>
        <time>2023-08-23T08:47:35Z</time>
      </trkpt>
      <trkpt lat="58.03340001963079" lon="-5.233768969774246">
        <ele>103</ele>
        <time>2023-08-23T08:47:36Z</time>
      </trkpt>
      <trkpt lat="58.03348601795733" lon="-5.233958987519145">
        <ele>102.52</ele>
        <time>2023-08-23T08:47:37Z</time>
      </trkpt>
      <trkpt lat="58.033576961606741" lon="-5.234155962243676">
        <ele>102.04000000000001</ele>
        <time>2023-08-23T08:47:38Z</time>
      </trkpt>
      <trkpt lat="58.033660026267171" lon="-5.234339023008943">
        <ele>101.08</ele>
        <time>2023-08-23T08:47:39Z</time>
      </trkpt>
      <trkpt lat="58.033740995451808" lon="-5.234516970813274">
        <ele>100.11</ele>
        <time>2023-08-23T08:47:40Z</time>
      </trkpt>
      <trkpt lat="58.034198982641101" lon="-5.235520033165813">
        <ele>93.870000000000005</ele>
        <time>2023-08-23T08:47:46Z</time>
      </trkpt>
      <trkpt lat="58.03426100872457" lon="-5.235640984028578">
        <ele>93.390000000000001</ele>
        <time>2023-08-23T08:47:47Z</time>
      </trkpt>
      <trkpt lat="58.034348012879491" lon="-5.235728994011879">
        <ele>92.900000000000006</ele>
        <time>2023-08-23T08:47:48Z</time>
      </trkpt>
      <trkpt lat="58.034441974014044" lon="-5.235804012045264">
        <ele>92.420000000000002</ele>
        <time>2023-08-23T08:47:49Z</time>
      </trkpt>
      <trkpt lat="58.03454197011888" lon="-5.235864026471973">
        <ele>91.459999999999994</ele>
        <time>2023-08-23T08:47:50Z</time>
      </trkpt>
      <trkpt lat="58.034644983708858" lon="-5.23592496290803">
        <ele>90.980000000000004</ele>
        <time>2023-08-23T08:47:51Z</time>
      </trkpt>
      <trkpt lat="58.034741962328553" lon="-5.235981959849596">
        <ele>90.5</ele>
        <time>2023-08-23T08:47:52Z</time>
      </trkpt>
      <trkpt lat="58.034838018938899" lon="-5.236039040610194">
        <ele>89.540000000000006</ele>
        <time>2023-08-23T08:47:53Z</time>
      </trkpt>
      <trkpt lat="58.034928040578961" lon="-5.236146999523044">
        <ele>88.579999999999998</ele>
        <time>2023-08-23T08:47:54Z</time>
      </trkpt>
      <trkpt lat="58.03501496091485" lon="-5.236283959820867">
        <ele>88.099999999999994</ele>
        <time>2023-08-23T08:47:55Z</time>
      </trkpt>
      <trkpt lat="58.03510095924139" lon="-5.236419998109341">
        <ele>87.140000000000001</ele>
        <time>2023-08-23T08:47:56Z</time>
      </trkpt>
      <trkpt lat="58.035295000299811" lon="-5.236608004197478">
        <ele>86.180000000000007</ele>
        <time>2023-08-23T08:47:58Z</time>
      </trkpt>
      <trkpt lat="58.035402959212661" lon="-5.2366759814322">
        <ele>85.209999999999994</ele>
        <time>2023-08-23T08:47:59Z</time>
      </trkpt>
      <trkpt lat="58.035514019429684" lon="-5.236746976152062">
        <ele>84.730000000000004</ele>
        <time>2023-08-23T08:48:00Z</time>
      </trkpt>
      <trkpt lat="58.035619966685772" lon="-5.236855018883944">
        <ele>83.769999999999996</ele>
        <time>2023-08-23T08:48:01Z</time>
      </trkpt>
      <trkpt lat="58.03569900803268" lon="-5.236987033858895">
        <ele>82.810000000000002</ele>
        <time>2023-08-23T08:48:02Z</time>
      </trkpt>
      <trkpt lat="58.035737983882427" lon="-5.237160036340356">
        <ele>82.329999999999998</ele>
        <time>2023-08-23T08:48:03Z</time>
      </trkpt>
      <trkpt lat="58.035773020237684" lon="-5.237346030771732">
        <ele>81.849999999999994</ele>
        <time>2023-08-23T08:48:04Z</time>
      </trkpt>
      <trkpt lat="58.035788023844361" lon="-5.237549962475896">
        <ele>81.370000000000005</ele>
        <time>2023-08-23T08:48:05Z</time>
      </trkpt>
      <trkpt lat="58.035805961117148" lon="-5.237779961898923">
        <ele>80.890000000000001</ele>
        <time>2023-08-23T08:48:06Z</time>
      </trkpt>
      <trkpt lat="58.035947028547525" lon="-5.23923497647047">
        <ele>78.969999999999999</ele>
        <time>2023-08-23T08:48:12Z</time>
      </trkpt>
      <trkpt lat="58.035991033539176" lon="-5.239462964236736">
        <ele>78.969999999999999</ele>
        <time>2023-08-23T08:48:13Z</time>
      </trkpt>
      <trkpt lat="58.036121036857367" lon="-5.239845011383295">
        <ele>78</ele>
        <time>2023-08-23T08:48:15Z</time>
      </trkpt>
      <trkpt lat="58.036191025748849" lon="-5.240026982501149">
        <ele>77.519999999999996</ele>
        <time>2023-08-23T08:48:16Z</time>
      </trkpt>
      <trkpt lat="58.036265959963202" lon="-5.24022102355957">
        <ele>77.519999999999996</ele>
        <time>2023-08-23T08:48:17Z</time>
      </trkpt>
      <trkpt lat="58.036358999088407" lon="-5.240366030484438">
        <ele>77.040000000000006</ele>
        <time>2023-08-23T08:48:18Z</time>
      </trkpt>
      <trkpt lat="58.036461006850004" lon="-5.240525035187602">
        <ele>76.560000000000002</ele>
        <time>2023-08-23T08:48:19Z</time>
      </trkpt>
      <trkpt lat="58.036567037925124" lon="-5.240688985213637">
        <ele>76.079999999999998</ele>
        <time>2023-08-23T08:48:20Z</time>
      </trkpt>
      <trkpt lat="58.036652030423284" lon="-5.24082200601697">
        <ele>75.120000000000005</ele>
        <time>2023-08-23T08:48:21Z</time>
      </trkpt>
      <trkpt lat="58.036754038184881" lon="-5.241042030975223">
        <ele>74.159999999999997</ele>
        <time>2023-08-23T08:48:22Z</time>
      </trkpt>
      <trkpt lat="58.03683802485466" lon="-5.241222996264696">
        <ele>73.200000000000003</ele>
        <time>2023-08-23T08:48:23Z</time>
      </trkpt>
      <trkpt lat="58.036919999867678" lon="-5.24140203371644">
        <ele>72.719999999999999</ele>
        <time>2023-08-23T08:48:24Z</time>
      </trkpt>
      <trkpt lat="58.037002980709076" lon="-5.241581993177533">
        <ele>71.760000000000005</ele>
        <time>2023-08-23T08:48:25Z</time>
      </trkpt>
      <trkpt lat="58.037101970985532" lon="-5.24174896068871">
        <ele>70.790000000000006</ele>
        <time>2023-08-23T08:48:26Z</time>
      </trkpt>
      <trkpt lat="58.037208002060652" lon="-5.241901008412242">
        <ele>69.829999999999998</ele>
        <time>2023-08-23T08:48:27Z</time>
      </trkpt>
      <trkpt lat="58.038205029442906" lon="-5.243044970557094">
        <ele>63.579999999999998</ele>
        <time>2023-08-23T08:48:35Z</time>
      </trkpt>
      <trkpt lat="58.038926040753722" lon="-5.243953987956047">
        <ele>62.140000000000001</ele>
        <time>2023-08-23T08:48:41Z</time>
      </trkpt>
      <trkpt lat="58.039049003273249" lon="-5.244051972404122">
        <ele>62.140000000000001</ele>
        <time>2023-08-23T08:48:42Z</time>
      </trkpt>
      <trkpt lat="58.039293000474572" lon="-5.244247019290924">
        <ele>62.140000000000001</ele>
        <time>2023-08-23T08:48:44Z</time>
      </trkpt>
      <trkpt lat="58.039416968822479" lon="-5.244347015395761">
        <ele>61.659999999999997</ele>
        <time>2023-08-23T08:48:45Z</time>
      </trkpt>
      <trkpt lat="58.039535991847515" lon="-5.244441982358694">
        <ele>61.659999999999997</ele>
        <time>2023-08-23T08:48:46Z</time>
      </trkpt>
      <trkpt lat="58.039629030972719" lon="-5.244608027860522">
        <ele>61.659999999999997</ele>
        <time>2023-08-23T08:48:47Z</time>
      </trkpt>
      <trkpt lat="58.039712011814117" lon="-5.244803996756673">
        <ele>61.659999999999997</ele>
        <time>2023-08-23T08:48:48Z</time>
      </trkpt>
      <trkpt lat="58.039800021797419" lon="-5.245009018108249">
        <ele>61.659999999999997</ele>
        <time>2023-08-23T08:48:49Z</time>
      </trkpt>
      <trkpt lat="58.040592027828097" lon="-5.246874997392297">
        <ele>63.579999999999998</ele>
        <time>2023-08-23T08:48:58Z</time>
      </trkpt>
      <trkpt lat="58.040686994791031" lon="-5.247039031237364">
        <ele>64.069999999999993</ele>
        <time>2023-08-23T08:48:59Z</time>
      </trkpt>
      <trkpt lat="58.0416090041399" lon="-5.248115016147494">
        <ele>64.549999999999997</ele>
        <time>2023-08-23T08:49:07Z</time>
      </trkpt>
      <trkpt lat="58.042411990463734" lon="-5.248896041885018">
        <ele>63.100000000000001</ele>
        <time>2023-08-23T08:49:13Z</time>
      </trkpt>
      <trkpt lat="58.042520033195615" lon="-5.249066026881337">
        <ele>62.619999999999997</ele>
        <time>2023-08-23T08:49:14Z</time>
      </trkpt>
      <trkpt lat="58.042638972401619" lon="-5.249255038797855">
        <ele>62.140000000000001</ele>
        <time>2023-08-23T08:49:15Z</time>
      </trkpt>
      <trkpt lat="58.043633988127112" lon="-5.251564001664519">
        <ele>59.259999999999998</ele>
        <time>2023-08-23T08:49:25Z</time>
      </trkpt>
      <trkpt lat="58.044361034408212" lon="-5.253876987844706">
        <ele>58.299999999999997</ele>
        <time>2023-08-23T08:49:34Z</time>
      </trkpt>
      <trkpt lat="58.044373020529747" lon="-5.25416499003768">
        <ele>58.299999999999997</ele>
        <time>2023-08-23T08:49:35Z</time>
      </trkpt>
      <trkpt lat="58.044385006651282" lon="-5.254456009715796">
        <ele>58.299999999999997</ele>
        <time>2023-08-23T08:49:36Z</time>
      </trkpt>
      <trkpt lat="58.044419037178159" lon="-5.255244998261333">
        <ele>59.259999999999998</ele>
        <time>2023-08-23T08:49:39Z</time>
      </trkpt>
      <trkpt lat="58.044450972229242" lon="-5.255450019612908">
        <ele>59.740000000000002</ele>
        <time>2023-08-23T08:49:40Z</time>
      </trkpt>
      <trkpt lat="58.044486008584499" lon="-5.255654035136104">
        <ele>59.740000000000002</ele>
        <time>2023-08-23T08:49:41Z</time>
      </trkpt>
      <trkpt lat="58.044550968334079" lon="-5.255864001810551">
        <ele>59.740000000000002</ele>
        <time>2023-08-23T08:49:42Z</time>
      </trkpt>
      <trkpt lat="58.044621041044593" lon="-5.256091989576817">
        <ele>60.219999999999999</ele>
        <time>2023-08-23T08:49:43Z</time>
      </trkpt>
      <trkpt lat="58.045399971306324" lon="-5.258750980719924">
        <ele>62.619999999999997</ele>
        <time>2023-08-23T08:49:54Z</time>
      </trkpt>
      <trkpt lat="58.045896012336016" lon="-5.260844025760889">
        <ele>61.18</ele>
        <time>2023-08-23T08:50:03Z</time>
      </trkpt>
      <trkpt lat="58.046252997592092" lon="-5.263014016672969">
        <ele>60.219999999999999</ele>
        <time>2023-08-23T08:50:11Z</time>
      </trkpt>
      <trkpt lat="58.046625992283225" lon="-5.266140969470143">
        <ele>59.740000000000002</ele>
        <time>2023-08-23T08:50:22Z</time>
      </trkpt>
      <trkpt lat="58.046734035015106" lon="-5.269160969182849">
        <ele>62.140000000000001</ele>
        <time>2023-08-23T08:50:32Z</time>
      </trkpt>
      <trkpt lat="58.046695981174707" lon="-5.272318013012409">
        <ele>66.469999999999999</ele>
        <time>2023-08-23T08:50:43Z</time>
      </trkpt>
      <trkpt lat="58.046631021425128" lon="-5.274844989180565">
        <ele>66.950000000000003</ele>
        <time>2023-08-23T08:50:52Z</time>
      </trkpt>
      <trkpt lat="58.046654993668199" lon="-5.275056967511773">
        <ele>66.950000000000003</ele>
        <time>2023-08-23T08:50:53Z</time>
      </trkpt>
      <trkpt lat="58.046690030023456" lon="-5.275288978591561">
        <ele>66.950000000000003</ele>
        <time>2023-08-23T08:50:54Z</time>
      </trkpt>
      <trkpt lat="58.046726994216442" lon="-5.275529958307743">
        <ele>66.950000000000003</ele>
        <time>2023-08-23T08:50:55Z</time>
      </trkpt>
      <trkpt lat="58.046764964237809" lon="-5.275773033499718">
        <ele>66.950000000000003</ele>
        <time>2023-08-23T08:50:56Z</time>
      </trkpt>
      <trkpt lat="58.047042991966009" lon="-5.277020009234548">
        <ele>65.510000000000005</ele>
        <time>2023-08-23T08:51:01Z</time>
      </trkpt>
      <trkpt lat="58.047075010836124" lon="-5.277287978678942">
        <ele>65.510000000000005</ele>
        <time>2023-08-23T08:51:02Z</time>
      </trkpt>
      <trkpt lat="58.047144999727607" lon="-5.277871023863554">
        <ele>65.989999999999995</ele>
        <time>2023-08-23T08:51:06Z</time>
      </trkpt>
      <trkpt lat="58.047191016376019" lon="-5.278546018525958">
        <ele>65.510000000000005</ele>
        <time>2023-08-23T08:51:14Z</time>
      </trkpt>
      <trkpt lat="58.047209037467837" lon="-5.27893896214664">
        <ele>65.030000000000001</ele>
        <time>2023-08-23T08:51:16Z</time>
      </trkpt>
      <trkpt lat="58.04719302803278" lon="-5.279157981276512">
        <ele>65.030000000000001</ele>
        <time>2023-08-23T08:51:17Z</time>
      </trkpt>
      <trkpt lat="58.047179030254483" lon="-5.279363002628088">
        <ele>65.510000000000005</ele>
        <time>2023-08-23T08:51:18Z</time>
      </trkpt>
      <trkpt lat="58.047165032476187" lon="-5.279556037858129">
        <ele>65.989999999999995</ele>
        <time>2023-08-23T08:51:19Z</time>
      </trkpt>
      <trkpt lat="58.04715103469789" lon="-5.279746977612376">
        <ele>66.469999999999999</ele>
        <time>2023-08-23T08:51:20Z</time>
      </trkpt>
      <trkpt lat="58.047158997505903" lon="-5.279934983700514">
        <ele>66.950000000000003</ele>
        <time>2023-08-23T08:51:21Z</time>
      </trkpt>
      <trkpt lat="58.047184981405735" lon="-5.280131036415696">
        <ele>66.950000000000003</ele>
        <time>2023-08-23T08:51:22Z</time>
      </trkpt>
      <trkpt lat="58.047211971133947" lon="-5.280333962291479">
        <ele>67.430000000000007</ele>
        <time>2023-08-23T08:51:23Z</time>
      </trkpt>
      <trkpt lat="58.047381034120917" lon="-5.281613040715456">
        <ele>67.909999999999997</ele>
        <time>2023-08-23T08:51:29Z</time>
      </trkpt>
      <trkpt lat="58.047374999150634" lon="-5.281825019046664">
        <ele>67.909999999999997</ele>
        <time>2023-08-23T08:51:30Z</time>
      </trkpt>
      <trkpt lat="58.04736795835197" lon="-5.282040014863014">
        <ele>67.909999999999997</ele>
        <time>2023-08-23T08:51:31Z</time>
      </trkpt>
      <trkpt lat="58.047362007200718" lon="-5.282242018729448">
        <ele>67.909999999999997</ele>
        <time>2023-08-23T08:51:32Z</time>
      </trkpt>
      <trkpt lat="58.047355972230434" lon="-5.282427007332444">
        <ele>67.909999999999997</ele>
        <time>2023-08-23T08:51:33Z</time>
      </trkpt>
      <trkpt lat="58.04734599776566" lon="-5.282731018960476">
        <ele>67.909999999999997</ele>
        <time>2023-08-23T08:51:35Z</time>
      </trkpt>
      <trkpt lat="58.047341974452138" lon="-5.282876025885344">
        <ele>67.909999999999997</ele>
        <time>2023-08-23T08:51:36Z</time>
      </trkpt>
      <trkpt lat="58.047342980280519" lon="-5.283011980354786">
        <ele>68.390000000000001</ele>
        <time>2023-08-23T08:51:37Z</time>
      </trkpt>
      <trkpt lat="58.04736896418035" lon="-5.283150030300021">
        <ele>68.390000000000001</ele>
        <time>2023-08-23T08:51:38Z</time>
      </trkpt>
      <trkpt lat="58.047395031899214" lon="-5.283289002254605">
        <ele>68.390000000000001</ele>
        <time>2023-08-23T08:51:39Z</time>
      </trkpt>
      <trkpt lat="58.04743099026382" lon="-5.283425962552428">
        <ele>68.870000000000005</ele>
        <time>2023-08-23T08:51:40Z</time>
      </trkpt>
      <trkpt lat="58.047472983598709" lon="-5.283566024154425">
        <ele>68.870000000000005</ele>
        <time>2023-08-23T08:51:41Z</time>
      </trkpt>
      <trkpt lat="58.047690996900201" lon="-5.284299021586776">
        <ele>69.349999999999994</ele>
        <time>2023-08-23T08:51:48Z</time>
      </trkpt>
      <trkpt lat="58.04773299023509" lon="-5.28426599688828">
        <ele>69.829999999999998</ele>
        <time>2023-08-23T08:51:49Z</time>
      </trkpt>
      <trkpt lat="58.047758974134922" lon="-5.284203970804811">
        <ele>69.829999999999998</ele>
        <time>2023-08-23T08:51:50Z</time>
      </trkpt>
      <trkpt lat="58.047758974134922" lon="-5.284204976633191">
        <ele>69.829999999999998</ele>
        <time>2023-08-23T08:51:51Z</time>
      </trkpt>
      <trkpt lat="58.047824017703533" lon="-5.284047983586788">
        <ele>69.829999999999998</ele>
        <time>2023-08-23T08:51:52Z</time>
      </trkpt>
      <trkpt lat="58.047917978838086" lon="-5.283823013305664">
        <ele>69.829999999999998</ele>
        <time>2023-08-23T08:51:54Z</time>
      </trkpt>
      <trkpt lat="58.047934994101524" lon="-5.283713964745402">
        <ele>69.829999999999998</ele>
        <time>2023-08-23T08:51:55Z</time>
      </trkpt>
      <trkpt lat="58.048037001863122" lon="-5.282888012006879">
        <ele>70.790000000000006</ele>
        <time>2023-08-23T08:52:02Z</time>
      </trkpt>
      <trkpt lat="58.048044964671135" lon="-5.282798996195197">
        <ele>70.790000000000006</ele>
        <time>2023-08-23T08:52:03Z</time>
      </trkpt>
      <trkpt lat="58.048050999641418" lon="-5.282728001475334">
        <ele>70.790000000000006</ele>
        <time>2023-08-23T08:52:04Z</time>
      </trkpt>
      <trkpt lat="58.048055022954941" lon="-5.282683996483684">
        <ele>71.269999999999996</ele>
        <time>2023-08-23T08:52:05Z</time>
      </trkpt>
      <trkpt lat="58.048055022954941" lon="-5.282683996483684">
        <ele>71.269999999999996</ele>
        <time>2023-08-23T08:52:06Z</time>
      </trkpt>
      <trkpt lat="58.048055022954941" lon="-5.282683996483684">
        <ele>73.200000000000003</ele>
        <time>2023-08-23T08:52:11Z</time>
      </trkpt>
      <trkpt lat="58.048105984926224" lon="-5.282765971496701">
        <ele>72.719999999999999</ele>
        <time>2023-08-23T08:52:15Z</time>
      </trkpt>
      <trkpt lat="58.048038007691503" lon="-5.282877031713724">
        <ele>72.719999999999999</ele>
        <time>2023-08-23T08:52:18Z</time>
      </trkpt>
      <trkpt lat="58.048029961064458" lon="-5.282975016161799">
        <ele>72.719999999999999</ele>
        <time>2023-08-23T08:52:19Z</time>
      </trkpt>
      <trkpt lat="58.047934994101524" lon="-5.283714970573783">
        <ele>70.310000000000002</ele>
        <time>2023-08-23T08:52:24Z</time>
      </trkpt>
      <trkpt lat="58.047870034351945" lon="-5.283938013017178">
        <ele>68.870000000000005</ele>
        <time>2023-08-23T08:52:26Z</time>
      </trkpt>
      <trkpt lat="58.047834997996688" lon="-5.284020993858576">
        <ele>67.909999999999997</ele>
        <time>2023-08-23T08:52:27Z</time>
      </trkpt>
      <trkpt lat="58.047736007720232" lon="-5.284259961917996">
        <ele>63.579999999999998</ele>
        <time>2023-08-23T08:52:33Z</time>
      </trkpt>
      <trkpt lat="58.047726033255458" lon="-5.284282006323338">
        <ele>63.100000000000001</ele>
        <time>2023-08-23T08:52:34Z</time>
      </trkpt>
      <trkpt lat="58.047718992456794" lon="-5.284299021586776">
        <ele>62.619999999999997</ele>
        <time>2023-08-23T08:52:35Z</time>
      </trkpt>
      <trkpt lat="58.047702983021736" lon="-5.284337997436523">
        <ele>62.140000000000001</ele>
        <time>2023-08-23T08:52:36Z</time>
      </trkpt>
      <trkpt lat="58.047702983021736" lon="-5.284337997436523">
        <ele>61.659999999999997</ele>
        <time>2023-08-23T08:52:37Z</time>
      </trkpt>
      <trkpt lat="58.047703988850117" lon="-5.284341014921665">
        <ele>61.18</ele>
        <time>2023-08-23T08:52:38Z</time>
      </trkpt>
      <trkpt lat="58.047703988850117" lon="-5.284341014921665">
        <ele>60.700000000000003</ele>
        <time>2023-08-23T08:52:39Z</time>
      </trkpt>
      <trkpt lat="58.047703988850117" lon="-5.284341014921665">
        <ele>60.219999999999999</ele>
        <time>2023-08-23T08:52:55Z</time>
      </trkpt>
      <trkpt lat="58.047703988850117" lon="-5.284341014921665">
        <ele>60.219999999999999</ele>
        <time>2023-08-23T08:53:41Z</time>
      </trkpt>
      <trkpt lat="58.047703988850117" lon="-5.284341014921665">
        <ele>60.700000000000003</ele>
        <time>2023-08-23T08:54:15Z</time>
      </trkpt>
      <trkpt lat="58.047786969691515" lon="-5.284135993570089">
        <ele>61.18</ele>
        <time>2023-08-23T08:54:17Z</time>
      </trkpt>
      <trkpt lat="58.047828041017056" lon="-5.284037003293634">
        <ele>62.140000000000001</ele>
        <time>2023-08-23T08:54:18Z</time>
      </trkpt>
      <trkpt lat="58.048042031005025" lon="-5.282830009236932">
        <ele>65.030000000000001</ele>
        <time>2023-08-23T08:54:25Z</time>
      </trkpt>
      <trkpt lat="58.048343025147915" lon="-5.280240001156926">
        <ele>75.599999999999994</ele>
        <time>2023-08-23T08:54:35Z</time>
      </trkpt>
      <trkpt lat="58.049124972894788" lon="-5.276959994807839">
        <ele>91.459999999999994</ele>
        <time>2023-08-23T08:54:47Z</time>
      </trkpt>
      <trkpt lat="58.049522023648024" lon="-5.275668008252978">
        <ele>95.790000000000006</ele>
        <time>2023-08-23T08:54:52Z</time>
      </trkpt>
      <trkpt lat="58.049855036661029" lon="-5.273130973801017">
        <ele>105.40000000000001</ele>
        <time>2023-08-23T08:55:01Z</time>
      </trkpt>
      <trkpt lat="58.050301959738135" lon="-5.26911998167634">
        <ele>119.34</ele>
        <time>2023-08-23T08:55:15Z</time>
      </trkpt>
      <trkpt lat="58.050854997709394" lon="-5.266823004931212">
        <ele>129.91999999999999</ele>
        <time>2023-08-23T08:55:24Z</time>
      </trkpt>
      <trkpt lat="58.050942001864314" lon="-5.266607003286481">
        <ele>130.88</ele>
        <time>2023-08-23T08:55:25Z</time>
      </trkpt>
      <trkpt lat="58.051046021282673" lon="-5.266395024955273">
        <ele>131.84</ele>
        <time>2023-08-23T08:55:26Z</time>
      </trkpt>
      <trkpt lat="58.051164960488677" lon="-5.266250018030405">
        <ele>132.80000000000001</ele>
        <time>2023-08-23T08:55:27Z</time>
      </trkpt>
      <trkpt lat="58.051297981292009" lon="-5.266136024147272">
        <ele>133.28</ele>
        <time>2023-08-23T08:55:28Z</time>
      </trkpt>
      <trkpt lat="58.051431002095342" lon="-5.266038039699197">
        <ele>134.24000000000001</ele>
        <time>2023-08-23T08:55:29Z</time>
      </trkpt>
      <trkpt lat="58.051566034555435" lon="-5.265938965603709">
        <ele>135.19999999999999</ele>
        <time>2023-08-23T08:55:30Z</time>
      </trkpt>
      <trkpt lat="58.05243699811399" lon="-5.265303030610085">
        <ele>135.19999999999999</ele>
        <time>2023-08-23T08:55:38Z</time>
      </trkpt>
      <trkpt lat="58.052704967558384" lon="-5.265106977894902">
        <ele>132.80000000000001</ele>
        <time>2023-08-23T08:55:46Z</time>
      </trkpt>
      <trkpt lat="58.052704967558384" lon="-5.265106977894902">
        <ele>132.31999999999999</ele>
        <time>2023-08-23T08:56:04Z</time>
      </trkpt>
      <trkpt lat="58.052789038047194" lon="-5.265046041458845">
        <ele>132.31999999999999</ele>
        <time>2023-08-23T08:56:47Z</time>
      </trkpt>
      <trkpt lat="58.052908983081579" lon="-5.264933975413442">
        <ele>132.31999999999999</ele>
        <time>2023-08-23T08:56:49Z</time>
      </trkpt>
      <trkpt lat="58.05297402665019" lon="-5.264840014278889">
        <ele>132.31999999999999</ele>
        <time>2023-08-23T08:56:50Z</time>
      </trkpt>
      <trkpt lat="58.053044015541673" lon="-5.264704981818795">
        <ele>131.84</ele>
        <time>2023-08-23T08:56:51Z</time>
      </trkpt>
      <trkpt lat="58.053096989169717" lon="-5.264531979337335">
        <ele>131.36000000000001</ele>
        <time>2023-08-23T08:56:52Z</time>
      </trkpt>
      <trkpt lat="58.053135965019464" lon="-5.264318995177746">
        <ele>130.88</ele>
        <time>2023-08-23T08:56:53Z</time>
      </trkpt>
      <trkpt lat="58.05316798388958" lon="-5.264107016846538">
        <ele>129.91999999999999</ele>
        <time>2023-08-23T08:56:54Z</time>
      </trkpt>
      <trkpt lat="58.053198996931314" lon="-5.263905012980104">
        <ele>129.43000000000001</ele>
        <time>2023-08-23T08:56:55Z</time>
      </trkpt>
      <trkpt lat="58.053246019408107" lon="-5.263588009402156">
        <ele>128.47</ele>
        <time>2023-08-23T08:56:57Z</time>
      </trkpt>
      <trkpt lat="58.053264040499926" lon="-5.263475021347404">
        <ele>127.98999999999999</ele>
        <time>2023-08-23T08:56:58Z</time>
      </trkpt>
      <trkpt lat="58.053281977772713" lon="-5.263351975008845">
        <ele>127.51000000000001</ele>
        <time>2023-08-23T08:56:59Z</time>
      </trkpt>
      <trkpt lat="58.053367976099253" lon="-5.263309981673956">
        <ele>127.03</ele>
        <time>2023-08-23T08:57:00Z</time>
      </trkpt>
      <trkpt lat="58.053440982475877" lon="-5.263405032455921">
        <ele>126.55</ele>
        <time>2023-08-23T08:57:01Z</time>
      </trkpt>
      <trkpt lat="58.053479036316276" lon="-5.263540986925364">
        <ele>126.06999999999999</ele>
        <time>2023-08-23T08:57:02Z</time>
      </trkpt>
      <trkpt lat="58.053525974974036" lon="-5.263706026598811">
        <ele>125.11</ele>
        <time>2023-08-23T08:57:03Z</time>
      </trkpt>
      <trkpt lat="58.053577020764351" lon="-5.263889003545046">
        <ele>124.15000000000001</ele>
        <time>2023-08-23T08:57:04Z</time>
      </trkpt>
      <trkpt lat="58.053632006049156" lon="-5.264066029340029">
        <ele>123.19</ele>
        <time>2023-08-23T08:57:05Z</time>
      </trkpt>
      <trkpt lat="58.053745999932289" lon="-5.26415403932333">
        <ele>122.22</ele>
        <time>2023-08-23T08:57:06Z</time>
      </trkpt>
      <trkpt lat="58.053867034614086" lon="-5.264246994629502">
        <ele>121.26000000000001</ele>
        <time>2023-08-23T08:57:07Z</time>
      </trkpt>
      <trkpt lat="58.053986979648471" lon="-5.264340033754706">
        <ele>120.3</ele>
        <time>2023-08-23T08:57:08Z</time>
      </trkpt>
      <trkpt lat="58.054658034816384" lon="-5.265004970133305">
        <ele>114.53</ele>
        <time>2023-08-23T08:57:14Z</time>
      </trkpt>
      <trkpt lat="58.054759036749601" lon="-5.265121981501579">
        <ele>113.56999999999999</ele>
        <time>2023-08-23T08:57:15Z</time>
      </trkpt>
      <trkpt lat="58.054845035076141" lon="-5.265276962891221">
        <ele>113.09</ele>
        <time>2023-08-23T08:57:16Z</time>
      </trkpt>
      <trkpt lat="58.055119961500168" lon="-5.265721036121249">
        <ele>110.20999999999999</ele>
        <time>2023-08-23T08:57:19Z</time>
      </trkpt>
      <trkpt lat="58.05522901006043" lon="-5.265818014740944">
        <ele>109.25</ele>
        <time>2023-08-23T08:57:20Z</time>
      </trkpt>
      <trkpt lat="58.05533898063004" lon="-5.2659170050174">
        <ele>108.29000000000001</ele>
        <time>2023-08-23T08:57:21Z</time>
      </trkpt>
      <trkpt lat="58.055470995604992" lon="-5.266035022214055">
        <ele>107.31999999999999</ele>
        <time>2023-08-23T08:57:22Z</time>
      </trkpt>
      <trkpt lat="58.055561017245054" lon="-5.266060000285506">
        <ele>106.84</ele>
        <time>2023-08-23T08:57:23Z</time>
      </trkpt>
      <trkpt lat="58.055664030835032" lon="-5.2660689689219">
        <ele>106.36</ele>
        <time>2023-08-23T08:57:24Z</time>
      </trkpt>
      <trkpt lat="58.05576603859663" lon="-5.266049019992352">
        <ele>105.88</ele>
        <time>2023-08-23T08:57:25Z</time>
      </trkpt>
      <trkpt lat="58.055867040529847" lon="-5.266028987243772">
        <ele>105.40000000000001</ele>
        <time>2023-08-23T08:57:26Z</time>
      </trkpt>
      <trkpt lat="58.055970976129174" lon="-5.265987999737263">
        <ele>105.40000000000001</ele>
        <time>2023-08-23T08:57:27Z</time>
      </trkpt>
      <trkpt lat="58.056516973301768" lon="-5.265501011162996">
        <ele>100.59999999999999</ele>
        <time>2023-08-23T08:57:32Z</time>
      </trkpt>
      <trkpt lat="58.056599032133818" lon="-5.265477038919926">
        <ele>99.150000000000006</ele>
        <time>2023-08-23T08:57:33Z</time>
      </trkpt>
      <trkpt lat="58.056683018803596" lon="-5.265477038919926">
        <ele>98.670000000000002</ele>
        <time>2023-08-23T08:57:34Z</time>
      </trkpt>
      <trkpt lat="58.056779997423291" lon="-5.265477038919926">
        <ele>97.709999999999994</ele>
        <time>2023-08-23T08:57:35Z</time>
      </trkpt>
      <trkpt lat="58.056860966607928" lon="-5.265564965084195">
        <ele>96.75</ele>
        <time>2023-08-23T08:57:36Z</time>
      </trkpt>
      <trkpt lat="58.057065987959504" lon="-5.265779960900545">
        <ele>95.310000000000002</ele>
        <time>2023-08-23T08:57:38Z</time>
      </trkpt>
      <trkpt lat="58.057180987671018" lon="-5.265830000862479">
        <ele>94.349999999999994</ele>
        <time>2023-08-23T08:57:39Z</time>
      </trkpt>
      <trkpt lat="58.057294981554151" lon="-5.265878029167652">
        <ele>93.870000000000005</ele>
        <time>2023-08-23T08:57:40Z</time>
      </trkpt>
      <trkpt lat="58.057404030114412" lon="-5.265924967825413">
        <ele>92.900000000000006</ele>
        <time>2023-08-23T08:57:41Z</time>
      </trkpt>
      <trkpt lat="58.057522969320416" lon="-5.265992023050785">
        <ele>91.939999999999998</ele>
        <time>2023-08-23T08:57:42Z</time>
      </trkpt>
      <trkpt lat="58.057620031759143" lon="-5.266140969470143">
        <ele>91.459999999999994</ele>
        <time>2023-08-23T08:57:43Z</time>
      </trkpt>
      <trkpt lat="58.057720027863979" lon="-5.266296034678817">
        <ele>90.019999999999996</ele>
        <time>2023-08-23T08:57:44Z</time>
      </trkpt>
      <trkpt lat="58.057823041453958" lon="-5.266455039381981">
        <ele>89.060000000000002</ele>
        <time>2023-08-23T08:57:45Z</time>
      </trkpt>
      <trkpt lat="58.057923959568143" lon="-5.266611026600003">
        <ele>87.620000000000005</ele>
        <time>2023-08-23T08:57:46Z</time>
      </trkpt>
      <trkpt lat="58.058033008128405" lon="-5.266730971634388">
        <ele>86.659999999999997</ele>
        <time>2023-08-23T08:57:47Z</time>
      </trkpt>
      <trkpt lat="58.058196036145091" lon="-5.266829039901495">
        <ele>85.689999999999998</ele>
        <time>2023-08-23T08:57:48Z</time>
      </trkpt>
      <trkpt lat="58.058310030028224" lon="-5.266808001324534">
        <ele>85.209999999999994</ele>
        <time>2023-08-23T08:57:49Z</time>
      </trkpt>
      <trkpt lat="58.058455036953092" lon="-5.266770031303167">
        <ele>84.25</ele>
        <time>2023-08-23T08:57:50Z</time>
      </trkpt>
      <trkpt lat="58.058583028614521" lon="-5.266685038805008">
        <ele>83.290000000000006</ele>
        <time>2023-08-23T08:57:51Z</time>
      </trkpt>
      <trkpt lat="58.058702973648906" lon="-5.26660499162972">
        <ele>82.329999999999998</ele>
        <time>2023-08-23T08:57:52Z</time>
      </trkpt>
      <trkpt lat="58.058811016380787" lon="-5.266532991081476">
        <ele>81.370000000000005</ele>
        <time>2023-08-23T08:57:53Z</time>
      </trkpt>
      <trkpt lat="58.058910006657243" lon="-5.266557969152927">
        <ele>80.409999999999997</ele>
        <time>2023-08-23T08:57:54Z</time>
      </trkpt>
      <trkpt lat="58.058910006657243" lon="-5.266557969152927">
        <ele>79.930000000000007</ele>
        <time>2023-08-23T08:57:55Z</time>
      </trkpt>
      <trkpt lat="58.059373022988439" lon="-5.26671202853322">
        <ele>78</ele>
        <time>2023-08-23T08:57:58Z</time>
      </trkpt>
      <trkpt lat="58.059477964416146" lon="-5.266782017424703">
        <ele>77.519999999999996</ele>
        <time>2023-08-23T08:57:59Z</time>
      </trkpt>
      <trkpt lat="58.059560023248196" lon="-5.266837002709508">
        <ele>76.560000000000002</ele>
        <time>2023-08-23T08:58:00Z</time>
      </trkpt>
      <trkpt lat="58.05963696911931" lon="-5.266911014914513">
        <ele>76.079999999999998</ele>
        <time>2023-08-23T08:58:01Z</time>
      </trkpt>
      <trkpt lat="58.059691032394767" lon="-5.266995001584292">
        <ele>75.599999999999994</ele>
        <time>2023-08-23T08:58:02Z</time>
      </trkpt>
      <trkpt lat="58.060032008215785" lon="-5.26752901263535">
        <ele>73.200000000000003</ele>
        <time>2023-08-23T08:58:07Z</time>
      </trkpt>
      <trkpt lat="58.060126975178719" lon="-5.26765801012516">
        <ele>72.239999999999995</ele>
        <time>2023-08-23T08:58:08Z</time>
      </trkpt>
      <trkpt lat="58.060249015688896" lon="-5.267724981531501">
        <ele>71.269999999999996</ele>
        <time>2023-08-23T08:58:09Z</time>
      </trkpt>
      <trkpt lat="58.060363009572029" lon="-5.267691034823656">
        <ele>70.310000000000002</ele>
        <time>2023-08-23T08:58:10Z</time>
      </trkpt>
      <trkpt lat="58.060482032597065" lon="-5.267654992640019">
        <ele>69.349999999999994</ele>
        <time>2023-08-23T08:58:11Z</time>
      </trkpt>
      <trkpt lat="58.060607006773353" lon="-5.267616016790271">
        <ele>68.390000000000001</ele>
        <time>2023-08-23T08:58:12Z</time>
      </trkpt>
      <trkpt lat="58.060733992606401" lon="-5.267580980435014">
        <ele>67.430000000000007</ele>
        <time>2023-08-23T08:58:13Z</time>
      </trkpt>
      <trkpt lat="58.060865001752973" lon="-5.267609981819987">
        <ele>66.469999999999999</ele>
        <time>2023-08-23T08:58:14Z</time>
      </trkpt>
      <trkpt lat="58.06098997592926" lon="-5.267675025388598">
        <ele>65.510000000000005</ele>
        <time>2023-08-23T08:58:15Z</time>
      </trkpt>
      <trkpt lat="58.061114028096199" lon="-5.267768986523151">
        <ele>64.549999999999997</ele>
        <time>2023-08-23T08:58:16Z</time>
      </trkpt>
      <trkpt lat="58.061235984787345" lon="-5.267862025648356">
        <ele>63.579999999999998</ele>
        <time>2023-08-23T08:58:17Z</time>
      </trkpt>
      <trkpt lat="58.061355007812381" lon="-5.267952969297767">
        <ele>62.619999999999997</ele>
        <time>2023-08-23T08:58:18Z</time>
      </trkpt>
      <trkpt lat="58.061584001407027" lon="-5.268126977607608">
        <ele>60.700000000000003</ele>
        <time>2023-08-23T08:58:20Z</time>
      </trkpt>
      <trkpt lat="58.06169799529016" lon="-5.268213981762528">
        <ele>59.259999999999998</ele>
        <time>2023-08-23T08:58:21Z</time>
      </trkpt>
      <trkpt lat="58.061811989173293" lon="-5.268299980089068">
        <ele>58.299999999999997</ele>
        <time>2023-08-23T08:58:22Z</time>
      </trkpt>
      <trkpt lat="58.062063027173281" lon="-5.268391007557511">
        <ele>56.369999999999997</ele>
        <time>2023-08-23T08:58:24Z</time>
      </trkpt>
      <trkpt lat="58.06219101883471" lon="-5.268357982859016">
        <ele>55.890000000000001</ele>
        <time>2023-08-23T08:58:25Z</time>
      </trkpt>
      <trkpt lat="58.062312975525856" lon="-5.268308026716113">
        <ele>54.93</ele>
        <time>2023-08-23T08:58:26Z</time>
      </trkpt>
      <trkpt lat="58.062466029077768" lon="-5.268244994804263">
        <ele>54.450000000000003</ele>
        <time>2023-08-23T08:58:27Z</time>
      </trkpt>
      <trkpt lat="58.062563007697463" lon="-5.268169976770878">
        <ele>53.969999999999999</ele>
        <time>2023-08-23T08:58:28Z</time>
      </trkpt>
      <trkpt lat="58.062688987702131" lon="-5.268050031736493">
        <ele>53.490000000000002</ele>
        <time>2023-08-23T08:58:29Z</time>
      </trkpt>
      <trkpt lat="58.062792001292109" lon="-5.26789496652782">
        <ele>53.009999999999998</ele>
        <time>2023-08-23T08:58:30Z</time>
      </trkpt>
      <trkpt lat="58.062897026538849" lon="-5.267675025388598">
        <ele>52.530000000000001</ele>
        <time>2023-08-23T08:58:31Z</time>
      </trkpt>
      <trkpt lat="58.062950000166893" lon="-5.267452988773584">
        <ele>52.049999999999997</ele>
        <time>2023-08-23T08:58:32Z</time>
      </trkpt>
      <trkpt lat="58.063003979623318" lon="-5.267225001007319">
        <ele>52.049999999999997</ele>
        <time>2023-08-23T08:58:33Z</time>
      </trkpt>
      <trkpt lat="58.063058964908123" lon="-5.266995001584292">
        <ele>52.049999999999997</ele>
        <time>2023-08-23T08:58:34Z</time>
      </trkpt>
      <trkpt lat="58.063324000686407" lon="-5.265883980318904">
        <ele>51.57</ele>
        <time>2023-08-23T08:58:39Z</time>
      </trkpt>
      <trkpt lat="58.063378985971212" lon="-5.265762023627758">
        <ele>51.57</ele>
        <time>2023-08-23T08:58:40Z</time>
      </trkpt>
      <trkpt lat="58.063459033146501" lon="-5.26563998311758">
        <ele>51.090000000000003</ele>
        <time>2023-08-23T08:58:41Z</time>
      </trkpt>
      <trkpt lat="58.063538996502757" lon="-5.26555398479104">
        <ele>50.609999999999999</ele>
        <time>2023-08-23T08:58:42Z</time>
      </trkpt>
      <trkpt lat="58.063610997051001" lon="-5.265477038919926">
        <ele>50.130000000000003</ele>
        <time>2023-08-23T08:58:43Z</time>
      </trkpt>
      <trkpt lat="58.063675034791231" lon="-5.265408977866173">
        <ele>50.130000000000003</ele>
        <time>2023-08-23T08:58:44Z</time>
      </trkpt>
      <trkpt lat="58.063732031732798" lon="-5.265348041430116">
        <ele>49.649999999999999</ele>
        <time>2023-08-23T08:58:45Z</time>
      </trkpt>
      <trkpt lat="58.063868992030621" lon="-5.265278974547982">
        <ele>48.200000000000003</ele>
        <time>2023-08-23T08:58:47Z</time>
      </trkpt>
      <trkpt lat="58.064221031963825" lon="-5.265183001756668">
        <ele>43.880000000000003</ele>
        <time>2023-08-23T08:58:51Z</time>
      </trkpt>
      <trkpt lat="58.064325973391533" lon="-5.265188030898571">
        <ele>42.920000000000002</ele>
        <time>2023-08-23T08:58:52Z</time>
      </trkpt>
      <trkpt lat="58.064435021951795" lon="-5.265192976221442">
        <ele>41.469999999999999</ele>
        <time>2023-08-23T08:58:53Z</time>
      </trkpt>
      <trkpt lat="58.064543986693025" lon="-5.265212003141642">
        <ele>40.509999999999998</ele>
        <time>2023-08-23T08:58:54Z</time>
      </trkpt>
      <trkpt lat="58.064653035253286" lon="-5.265298001468182">
        <ele>39.07</ele>
        <time>2023-08-23T08:58:55Z</time>
      </trkpt>
      <trkpt lat="58.064766023308039" lon="-5.265386011451483">
        <ele>38.109999999999999</ele>
        <time>2023-08-23T08:58:56Z</time>
      </trkpt>
      <trkpt lat="58.0650719627738" lon="-5.265626991167665">
        <ele>34.740000000000002</ele>
        <time>2023-08-23T08:58:59Z</time>
      </trkpt>
      <trkpt lat="58.065162990242243" lon="-5.265716006979346">
        <ele>33.780000000000001</ele>
        <time>2023-08-23T08:59:00Z</time>
      </trkpt>
      <trkpt lat="58.065255023539066" lon="-5.265834024176002">
        <ele>32.340000000000003</ele>
        <time>2023-08-23T08:59:01Z</time>
      </trkpt>
      <trkpt lat="58.065441017970443" lon="-5.266083972528577">
        <ele>30.899999999999999</ele>
        <time>2023-08-23T08:59:03Z</time>
      </trkpt>
      <trkpt lat="58.066280968487263" lon="-5.26755197905004">
        <ele>23.210000000000001</ele>
        <time>2023-08-23T08:59:13Z</time>
      </trkpt>
      <trkpt lat="58.066369984298944" lon="-5.267626997083426">
        <ele>22.25</ele>
        <time>2023-08-23T08:59:14Z</time>
      </trkpt>
      <trkpt lat="58.066463023424149" lon="-5.26765801012516">
        <ele>21.77</ele>
        <time>2023-08-23T08:59:15Z</time>
      </trkpt>
      <trkpt lat="58.066541980952024" lon="-5.267646024003625">
        <ele>21.77</ele>
        <time>2023-08-23T08:59:16Z</time>
      </trkpt>
      <trkpt lat="58.06661800481379" lon="-5.26763403788209">
        <ele>21.289999999999999</ele>
        <time>2023-08-23T08:59:17Z</time>
      </trkpt>
      <trkpt lat="58.066696040332317" lon="-5.267620040103793">
        <ele>20.809999999999999</ele>
        <time>2023-08-23T08:59:18Z</time>
      </trkpt>
      <trkpt lat="58.0667660292238" lon="-5.267553990706801">
        <ele>20.809999999999999</ele>
        <time>2023-08-23T08:59:19Z</time>
      </trkpt>
      <trkpt lat="58.066836018115282" lon="-5.267488025128841">
        <ele>20.809999999999999</ele>
        <time>2023-08-23T08:59:20Z</time>
      </trkpt>
      <trkpt lat="58.06721999309957" lon="-5.267004976049066">
        <ele>19.359999999999999</ele>
        <time>2023-08-23T08:59:26Z</time>
      </trkpt>
      <trkpt lat="58.067275984212756" lon="-5.26690598577261">
        <ele>18.879999999999999</ele>
        <time>2023-08-23T08:59:27Z</time>
      </trkpt>
      <trkpt lat="58.067329041659832" lon="-5.266811018809676">
        <ele>18.879999999999999</ele>
        <time>2023-08-23T08:59:28Z</time>
      </trkpt>
      <trkpt lat="58.067380003631115" lon="-5.266718985512853">
        <ele>18.879999999999999</ele>
        <time>2023-08-23T08:59:29Z</time>
      </trkpt>
      <trkpt lat="58.06743398308754" lon="-5.266622006893158">
        <ele>18.879999999999999</ele>
        <time>2023-08-23T08:59:30Z</time>
      </trkpt>
      <trkpt lat="58.067689966410398" lon="-5.266274996101856">
        <ele>18.399999999999999</ele>
        <time>2023-08-23T08:59:34Z</time>
      </trkpt>
      <trkpt lat="58.067760039120913" lon="-5.266230991110206">
        <ele>18.399999999999999</ele>
        <time>2023-08-23T08:59:35Z</time>
      </trkpt>
      <trkpt lat="58.067826004698873" lon="-5.266188997775316">
        <ele>18.879999999999999</ele>
        <time>2023-08-23T08:59:36Z</time>
      </trkpt>
      <trkpt lat="58.067889958620071" lon="-5.266148010268807">
        <ele>18.399999999999999</ele>
        <time>2023-08-23T08:59:37Z</time>
      </trkpt>
      <trkpt lat="58.067956008017063" lon="-5.266107022762299">
        <ele>18.399999999999999</ele>
        <time>2023-08-23T08:59:38Z</time>
      </trkpt>
      <trkpt lat="58.068088022992015" lon="-5.266049019992352">
        <ele>17.920000000000002</ele>
        <time>2023-08-23T08:59:40Z</time>
      </trkpt>
      <trkpt lat="58.068152982741594" lon="-5.26593997143209">
        <ele>17.440000000000001</ele>
        <time>2023-08-23T08:59:41Z</time>
      </trkpt>
      <trkpt lat="58.068181984126568" lon="-5.265818014740944">
        <ele>17.440000000000001</ele>
        <time>2023-08-23T08:59:42Z</time>
      </trkpt>
      <trkpt lat="58.068215008825064" lon="-5.265676025301218">
        <ele>16.960000000000001</ele>
        <time>2023-08-23T08:59:43Z</time>
      </trkpt>
      <trkpt lat="58.06825197301805" lon="-5.265520038083196">
        <ele>16.960000000000001</ele>
        <time>2023-08-23T08:59:44Z</time>
      </trkpt>
      <trkpt lat="58.06829203851521" lon="-5.265349969267845">
        <ele>16.960000000000001</ele>
        <time>2023-08-23T08:59:45Z</time>
      </trkpt>
      <trkpt lat="58.068318022415042" lon="-5.26516598649323">
        <ele>16.960000000000001</ele>
        <time>2023-08-23T08:59:46Z</time>
      </trkpt>
      <trkpt lat="58.068339983001351" lon="-5.264979992061853">
        <ele>16.960000000000001</ele>
        <time>2023-08-23T08:59:47Z</time>
      </trkpt>
      <trkpt lat="58.068402009084821" lon="-5.264198966324329">
        <ele>17.920000000000002</ele>
        <time>2023-08-23T08:59:51Z</time>
      </trkpt>
      <trkpt lat="58.068413995206356" lon="-5.26400500908494">
        <ele>18.399999999999999</ele>
        <time>2023-08-23T08:59:52Z</time>
      </trkpt>
      <trkpt lat="58.068425981327891" lon="-5.263818008825183">
        <ele>18.879999999999999</ele>
        <time>2023-08-23T08:59:53Z</time>
      </trkpt>
      <trkpt lat="58.068406032398343" lon="-5.263636037707329">
        <ele>19.359999999999999</ele>
        <time>2023-08-23T08:59:54Z</time>
      </trkpt>
      <trkpt lat="58.06835800409317" lon="-5.263435039669275">
        <ele>19.84</ele>
        <time>2023-08-23T08:59:55Z</time>
      </trkpt>
      <trkpt lat="58.068308969959617" lon="-5.263234041631222">
        <ele>20.809999999999999</ele>
        <time>2023-08-23T08:59:56Z</time>
      </trkpt>
      <trkpt lat="58.068264964967966" lon="-5.263050980865955">
        <ele>21.77</ele>
        <time>2023-08-23T08:59:57Z</time>
      </trkpt>
      <trkpt lat="58.068182989954948" lon="-5.262708999216557">
        <ele>23.690000000000001</ele>
        <time>2023-08-23T08:59:59Z</time>
      </trkpt>
      <trkpt lat="58.068145019933581" lon="-5.262552006170154">
        <ele>24.649999999999999</ele>
        <time>2023-08-23T09:00:00Z</time>
      </trkpt>
      <trkpt lat="58.068131022155285" lon="-5.26237296871841">
        <ele>25.609999999999999</ele>
        <time>2023-08-23T09:00:01Z</time>
      </trkpt>
      <trkpt lat="58.068134961649776" lon="-5.261557996273041">
        <ele>27.530000000000001</ele>
        <time>2023-08-23T09:00:05Z</time>
      </trkpt>
      <trkpt lat="58.068144014105201" lon="-5.261349035426974">
        <ele>28.02</ele>
        <time>2023-08-23T09:00:06Z</time>
      </trkpt>
      <trkpt lat="58.068267982453108" lon="-5.259739961475134">
        <ele>31.859999999999999</ele>
        <time>2023-08-23T09:00:13Z</time>
      </trkpt>
      <trkpt lat="58.068296983838081" lon="-5.259482972323895">
        <ele>32.340000000000003</ele>
        <time>2023-08-23T09:00:14Z</time>
      </trkpt>
      <trkpt lat="58.068620022386312" lon="-5.257043000310659">
        <ele>35.710000000000001</ele>
        <time>2023-08-23T09:00:24Z</time>
      </trkpt>
      <trkpt lat="58.068682970479131" lon="-5.256858011707664">
        <ele>36.670000000000002</ele>
        <time>2023-08-23T09:00:25Z</time>
      </trkpt>
      <trkpt lat="58.068749019876122" lon="-5.256665982306004">
        <ele>37.630000000000003</ele>
        <time>2023-08-23T09:00:26Z</time>
      </trkpt>
      <trkpt lat="58.068827977403998" lon="-5.256472025066614">
        <ele>38.590000000000003</ele>
        <time>2023-08-23T09:00:27Z</time>
      </trkpt>
      <trkpt lat="58.068914981558919" lon="-5.256314026191831">
        <ele>39.07</ele>
        <time>2023-08-23T09:00:28Z</time>
      </trkpt>
      <trkpt lat="58.06900198571384" lon="-5.256158038973808">
        <ele>40.030000000000001</ele>
        <time>2023-08-23T09:00:29Z</time>
      </trkpt>
      <trkpt lat="58.069117991253734" lon="-5.255950000137091">
        <ele>40.990000000000002</ele>
        <time>2023-08-23T09:00:30Z</time>
      </trkpt>
      <trkpt lat="58.069212036207318" lon="-5.255851009860635">
        <ele>41.950000000000003</ele>
        <time>2023-08-23T09:00:31Z</time>
      </trkpt>
      <trkpt lat="58.06932401843369" lon="-5.255731986835599">
        <ele>42.920000000000002</ele>
        <time>2023-08-23T09:00:32Z</time>
      </trkpt>
      <trkpt lat="58.069426026195288" lon="-5.25562503375113">
        <ele>43.880000000000003</ele>
        <time>2023-08-23T09:00:33Z</time>
      </trkpt>
      <trkpt lat="58.069506995379925" lon="-5.255531994625926">
        <ele>45.32</ele>
        <time>2023-08-23T09:00:34Z</time>
      </trkpt>
      <trkpt lat="58.069566003978252" lon="-5.255342982709408">
        <ele>46.280000000000001</ele>
        <time>2023-08-23T09:00:35Z</time>
      </trkpt>
      <trkpt lat="58.069655019789934" lon="-5.255141984671354">
        <ele>47.719999999999999</ele>
        <time>2023-08-23T09:00:36Z</time>
      </trkpt>
      <trkpt lat="58.069760967046022" lon="-5.255005024373531">
        <ele>49.159999999999997</ele>
        <time>2023-08-23T09:00:37Z</time>
      </trkpt>
      <trkpt lat="58.069916032254696" lon="-5.254613002762198">
        <ele>52.530000000000001</ele>
        <time>2023-08-23T09:00:39Z</time>
      </trkpt>
      <trkpt lat="58.069998007267714" lon="-5.254404963925481">
        <ele>53.490000000000002</ele>
        <time>2023-08-23T09:00:40Z</time>
      </trkpt>
      <trkpt lat="58.070018962025642" lon="-5.254231039434671">
        <ele>54.93</ele>
        <time>2023-08-23T09:00:41Z</time>
      </trkpt>
      <trkpt lat="58.070046035572886" lon="-5.254018977284432">
        <ele>56.369999999999997</ele>
        <time>2023-08-23T09:00:42Z</time>
      </trkpt>
      <trkpt lat="58.070101020857692" lon="-5.2538220025599">
        <ele>58.780000000000001</ele>
        <time>2023-08-23T09:00:43Z</time>
      </trkpt>
      <trkpt lat="58.070190036669374" lon="-5.25367196649313">
        <ele>60.700000000000003</ele>
        <time>2023-08-23T09:00:44Z</time>
      </trkpt>
      <trkpt lat="58.070279974490404" lon="-5.253518996760249">
        <ele>62.140000000000001</ele>
        <time>2023-08-23T09:00:45Z</time>
      </trkpt>
      <trkpt lat="58.070369996130466" lon="-5.253366027027369">
        <ele>63.579999999999998</ele>
        <time>2023-08-23T09:00:46Z</time>
      </trkpt>
      <trkpt lat="58.070459011942148" lon="-5.253213979303837">
        <ele>65.030000000000001</ele>
        <time>2023-08-23T09:00:47Z</time>
      </trkpt>
      <trkpt lat="58.070531012490392" lon="-5.252989009022713">
        <ele>65.510000000000005</ele>
        <time>2023-08-23T09:00:48Z</time>
      </trkpt>
      <trkpt lat="58.070580968633294" lon="-5.252773007377982">
        <ele>66.469999999999999</ele>
        <time>2023-08-23T09:00:49Z</time>
      </trkpt>
      <trkpt lat="58.070721030235291" lon="-5.252170013263822">
        <ele>69.349999999999994</ele>
        <time>2023-08-23T09:00:52Z</time>
      </trkpt>
      <trkpt lat="58.070769980549812" lon="-5.251958034932613">
        <ele>70.790000000000006</ele>
        <time>2023-08-23T09:00:53Z</time>
      </trkpt>
      <trkpt lat="58.070840975269675" lon="-5.251869019120932">
        <ele>72.239999999999995</ele>
        <time>2023-08-23T09:00:54Z</time>
      </trkpt>
      <trkpt lat="58.070932002738118" lon="-5.251755025237799">
        <ele>74.159999999999997</ele>
        <time>2023-08-23T09:00:55Z</time>
      </trkpt>
      <trkpt lat="58.071025963872671" lon="-5.251637008041143">
        <ele>75.120000000000005</ele>
        <time>2023-08-23T09:00:56Z</time>
      </trkpt>
      <trkpt lat="58.071524016559124" lon="-5.251010963693261">
        <ele>81.370000000000005</ele>
        <time>2023-08-23T09:01:01Z</time>
      </trkpt>
      <trkpt lat="58.071630969643593" lon="-5.250895963981748">
        <ele>82.810000000000002</ele>
        <time>2023-08-23T09:01:02Z</time>
      </trkpt>
      <trkpt lat="58.071749992668629" lon="-5.250838967040181">
        <ele>84.25</ele>
        <time>2023-08-23T09:01:03Z</time>
      </trkpt>
      <trkpt lat="58.071873039007187" lon="-5.250780964270234">
        <ele>85.209999999999994</ele>
        <time>2023-08-23T09:01:04Z</time>
      </trkpt>
      <trkpt lat="58.072015028446913" lon="-5.250713992863894">
        <ele>86.659999999999997</ele>
        <time>2023-08-23T09:01:05Z</time>
      </trkpt>
      <trkpt lat="58.072124999016523" lon="-5.250590024515986">
        <ele>87.620000000000005</ele>
        <time>2023-08-23T09:01:06Z</time>
      </trkpt>
      <trkpt lat="58.072243016213179" lon="-5.250459015369415">
        <ele>89.060000000000002</ele>
        <time>2023-08-23T09:01:07Z</time>
      </trkpt>
      <trkpt lat="58.072750037536025" lon="-5.249894997105002">
        <ele>98.189999999999998</ele>
        <time>2023-08-23T09:01:13Z</time>
      </trkpt>
      <trkpt lat="58.072750037536025" lon="-5.249894997105002">
        <ele>102.52</ele>
        <time>2023-08-23T09:01:22Z</time>
      </trkpt>
      <trkpt lat="58.072790019214153" lon="-5.249849986284971">
        <ele>104.44</ele>
        <time>2023-08-23T09:01:33Z</time>
      </trkpt>
      <trkpt lat="58.072810973972082" lon="-5.249827019870281">
        <ele>105.40000000000001</ele>
        <time>2023-08-23T09:01:34Z</time>
      </trkpt>
      <trkpt lat="58.072828995063901" lon="-5.249806987121701">
        <ele>105.88</ele>
        <time>2023-08-23T09:01:35Z</time>
      </trkpt>
      <trkpt lat="58.072863025590777" lon="-5.249769017100334">
        <ele>106.84</ele>
        <time>2023-08-23T09:01:36Z</time>
      </trkpt>
      <trkpt lat="58.072910970076919" lon="-5.249715959653258">
        <ele>107.31999999999999</ele>
        <time>2023-08-23T09:01:37Z</time>
      </trkpt>
      <trkpt lat="58.072958998382092" lon="-5.249661980196834">
        <ele>108.29000000000001</ele>
        <time>2023-08-23T09:01:38Z</time>
      </trkpt>
      <trkpt lat="58.0729999858886" lon="-5.249621998518705">
        <ele>109.25</ele>
        <time>2023-08-23T09:01:39Z</time>
      </trkpt>
      <trkpt lat="58.07304298505187" lon="-5.249581011012197">
        <ele>109.73</ele>
        <time>2023-08-23T09:01:40Z</time>
      </trkpt>
      <trkpt lat="58.073076009750366" lon="-5.249547986313701">
        <ele>110.20999999999999</ele>
        <time>2023-08-23T09:01:41Z</time>
      </trkpt>
      <trkpt lat="58.073120014742017" lon="-5.249505992978811">
        <ele>110.69</ele>
        <time>2023-08-23T09:01:49Z</time>
      </trkpt>
      <trkpt lat="58.073414973914623" lon="-5.249218996614218">
        <ele>111.65000000000001</ele>
        <time>2023-08-23T09:01:55Z</time>
      </trkpt>
      <trkpt lat="58.074038000777364" lon="-5.248781964182854">
        <ele>109.25</ele>
        <time>2023-08-23T09:02:01Z</time>
      </trkpt>
      <trkpt lat="58.0741570238024" lon="-5.248731002211571">
        <ele>108.77</ele>
        <time>2023-08-23T09:02:02Z</time>
      </trkpt>
      <trkpt lat="58.074289038777351" lon="-5.248675011098385">
        <ele>108.29000000000001</ele>
        <time>2023-08-23T09:02:03Z</time>
      </trkpt>
      <trkpt lat="58.074398003518581" lon="-5.248694038018584">
        <ele>107.81</ele>
        <time>2023-08-23T09:02:04Z</time>
      </trkpt>
      <trkpt lat="58.074514009058475" lon="-5.248713986948133">
        <ele>107.31999999999999</ele>
        <time>2023-08-23T09:02:05Z</time>
      </trkpt>
      <trkpt lat="58.074810979887843" lon="-5.248765032738447">
        <ele>106.84</ele>
        <time>2023-08-23T09:02:08Z</time>
      </trkpt>
      <trkpt lat="58.07491097599268" lon="-5.248782970011234">
        <ele>106.36</ele>
        <time>2023-08-23T09:02:09Z</time>
      </trkpt>
      <trkpt lat="58.075003009289503" lon="-5.248697977513075">
        <ele>106.36</ele>
        <time>2023-08-23T09:02:10Z</time>
      </trkpt>
      <trkpt lat="58.075336022302508" lon="-5.248459009453654">
        <ele>105.40000000000001</ele>
        <time>2023-08-23T09:02:13Z</time>
      </trkpt>
      <trkpt lat="58.075455967336893" lon="-5.248417016118765">
        <ele>105.88</ele>
        <time>2023-08-23T09:02:14Z</time>
      </trkpt>
      <trkpt lat="58.075569961220026" lon="-5.248404024168849">
        <ele>105.88</ele>
        <time>2023-08-23T09:02:15Z</time>
      </trkpt>
      <trkpt lat="58.075687978416681" lon="-5.248421039432287">
        <ele>106.36</ele>
        <time>2023-08-23T09:02:16Z</time>
      </trkpt>
      <trkpt lat="58.075803983956575" lon="-5.248436965048313">
        <ele>105.88</ele>
        <time>2023-08-23T09:02:17Z</time>
      </trkpt>
      <trkpt lat="58.076140014454722" lon="-5.248483987525106">
        <ele>105.40000000000001</ele>
        <time>2023-08-23T09:02:20Z</time>
      </trkpt>
      <trkpt lat="58.076247973367572" lon="-5.248497985303402">
        <ele>104.92</ele>
        <time>2023-08-23T09:02:21Z</time>
      </trkpt>
      <trkpt lat="58.076360039412975" lon="-5.248438976705074">
        <ele>104.44</ele>
        <time>2023-08-23T09:02:22Z</time>
      </trkpt>
      <trkpt lat="58.07645701803267" lon="-5.24831903167069">
        <ele>104.44</ele>
        <time>2023-08-23T09:02:23Z</time>
      </trkpt>
      <trkpt lat="58.076519966125488" lon="-5.248161032795906">
        <ele>103.95999999999999</ele>
        <time>2023-08-23T09:02:24Z</time>
      </trkpt>
      <trkpt lat="58.076581992208958" lon="-5.248006973415613">
        <ele>104.44</ele>
        <time>2023-08-23T09:02:25Z</time>
      </trkpt>
      <trkpt lat="58.076705038547516" lon="-5.247700028121471">
        <ele>104.92</ele>
        <time>2023-08-23T09:02:27Z</time>
      </trkpt>
      <trkpt lat="58.076767986640334" lon="-5.247541023418307">
        <ele>104.92</ele>
        <time>2023-08-23T09:02:28Z</time>
      </trkpt>
      <trkpt lat="58.076838981360197" lon="-5.247384030371904">
        <ele>104.92</ele>
        <time>2023-08-23T09:02:29Z</time>
      </trkpt>
      <trkpt lat="58.077837014570832" lon="-5.246336041018367">
        <ele>102.04000000000001</ele>
        <time>2023-08-23T09:02:38Z</time>
      </trkpt>
      <trkpt lat="58.078417964279652" lon="-5.245885010808706">
        <ele>102.52</ele>
        <time>2023-08-23T09:02:44Z</time>
      </trkpt>
      <trkpt lat="58.078474039211869" lon="-5.245804963633418">
        <ele>102.52</ele>
        <time>2023-08-23T09:02:45Z</time>
      </trkpt>
      <trkpt lat="58.078534975647926" lon="-5.245717037469149">
        <ele>102.04000000000001</ele>
        <time>2023-08-23T09:02:46Z</time>
      </trkpt>
      <trkpt lat="58.078602030873299" lon="-5.245622992515564">
        <ele>101.56</ele>
        <time>2023-08-23T09:02:47Z</time>
      </trkpt>
      <trkpt lat="58.078688029199839" lon="-5.245500029996038">
        <ele>101.56</ele>
        <time>2023-08-23T09:02:48Z</time>
      </trkpt>
      <trkpt lat="58.078722981736064" lon="-5.245383018627763">
        <ele>101.08</ele>
        <time>2023-08-23T09:02:49Z</time>
      </trkpt>
      <trkpt lat="58.078760029748082" lon="-5.245258966460824">
        <ele>101.08</ele>
        <time>2023-08-23T09:02:50Z</time>
      </trkpt>
      <trkpt lat="58.078794982284307" lon="-5.245141033083201">
        <ele>101.08</ele>
        <time>2023-08-23T09:02:51Z</time>
      </trkpt>
      <trkpt lat="58.078827001154423" lon="-5.244997031986713">
        <ele>100.59999999999999</ele>
        <time>2023-08-23T09:02:52Z</time>
      </trkpt>
      <trkpt lat="58.078848039731383" lon="-5.244848001748323">
        <ele>100.11</ele>
        <time>2023-08-23T09:02:53Z</time>
      </trkpt>
      <trkpt lat="58.079002015292645" lon="-5.243747960776091">
        <ele>100.59999999999999</ele>
        <time>2023-08-23T09:02:59Z</time>
      </trkpt>
      <trkpt lat="58.079109974205494" lon="-5.242976993322372">
        <ele>101.08</ele>
        <time>2023-08-23T09:03:03Z</time>
      </trkpt>
      <trkpt lat="58.079172000288963" lon="-5.242809019982815">
        <ele>101.08</ele>
        <time>2023-08-23T09:03:04Z</time>
      </trkpt>
      <trkpt lat="58.079237965866923" lon="-5.24266803637147">
        <ele>101.56</ele>
        <time>2023-08-23T09:03:05Z</time>
      </trkpt>
      <trkpt lat="58.079325975850224" lon="-5.242539960891008">
        <ele>101.56</ele>
        <time>2023-08-23T09:03:06Z</time>
      </trkpt>
      <trkpt lat="58.079420020803809" lon="-5.242490004748106">
        <ele>102.04000000000001</ele>
        <time>2023-08-23T09:03:07Z</time>
      </trkpt>
      <trkpt lat="58.07950702495873" lon="-5.242442982271314">
        <ele>102.52</ele>
        <time>2023-08-23T09:03:08Z</time>
      </trkpt>
      <trkpt lat="58.079584976658225" lon="-5.242401994764805">
        <ele>102.52</ele>
        <time>2023-08-23T09:03:09Z</time>
      </trkpt>
      <trkpt lat="58.079629987478256" lon="-5.242350026965141">
        <ele>102.52</ele>
        <time>2023-08-23T09:03:10Z</time>
      </trkpt>
      <trkpt lat="58.079667035490274" lon="-5.242275008931756">
        <ele>103</ele>
        <time>2023-08-23T09:03:11Z</time>
      </trkpt>
      <trkpt lat="58.079717997461557" lon="-5.242174006998539">
        <ele>103.48</ele>
        <time>2023-08-23T09:03:12Z</time>
      </trkpt>
      <trkpt lat="58.079720009118319" lon="-5.242107035592198">
        <ele>103.48</ele>
        <time>2023-08-23T09:03:13Z</time>
      </trkpt>
      <trkpt lat="58.079724032431841" lon="-5.241978038102388">
        <ele>103.95999999999999</ele>
        <time>2023-08-23T09:03:14Z</time>
      </trkpt>
      <trkpt lat="58.079727971926332" lon="-5.241826996207237">
        <ele>104.44</ele>
        <time>2023-08-23T09:03:15Z</time>
      </trkpt>
      <trkpt lat="58.079737024381757" lon="-5.241521978750825">
        <ele>105.88</ele>
        <time>2023-08-23T09:03:17Z</time>
      </trkpt>
      <trkpt lat="58.079768037423491" lon="-5.241369009017944">
        <ele>105.88</ele>
        <time>2023-08-23T09:03:18Z</time>
      </trkpt>
      <trkpt lat="58.079803995788097" lon="-5.24127303622663">
        <ele>106.36</ele>
        <time>2023-08-23T09:03:19Z</time>
      </trkpt>
      <trkpt lat="58.079886976629496" lon="-5.241288039833307">
        <ele>106.36</ele>
        <time>2023-08-23T09:03:20Z</time>
      </trkpt>
      <trkpt lat="58.079952020198107" lon="-5.241299020126462">
        <ele>106.84</ele>
        <time>2023-08-23T09:03:21Z</time>
      </trkpt>
      <trkpt lat="58.080018991604447" lon="-5.241312012076378">
        <ele>106.84</ele>
        <time>2023-08-23T09:03:22Z</time>
      </trkpt>
      <trkpt lat="58.08008898049593" lon="-5.241323998197913">
        <ele>106.84</ele>
        <time>2023-08-23T09:03:23Z</time>
      </trkpt>
      <trkpt lat="58.080169027671218" lon="-5.24133900180459">
        <ele>106.84</ele>
        <time>2023-08-23T09:03:24Z</time>
      </trkpt>
      <trkpt lat="58.080275980755687" lon="-5.24135802872479">
        <ele>107.31999999999999</ele>
        <time>2023-08-23T09:03:25Z</time>
      </trkpt>
      <trkpt lat="58.08034697547555" lon="-5.24129600264132">
        <ele>107.31999999999999</ele>
        <time>2023-08-23T09:03:26Z</time>
      </trkpt>
      <trkpt lat="58.080434985458851" lon="-5.241218972951174">
        <ele>107.81</ele>
        <time>2023-08-23T09:03:27Z</time>
      </trkpt>
      <trkpt lat="58.080489970743656" lon="-5.241089975461364">
        <ele>108.29000000000001</ele>
        <time>2023-08-23T09:03:28Z</time>
      </trkpt>
      <trkpt lat="58.080535987392068" lon="-5.240961983799934">
        <ele>109.25</ele>
        <time>2023-08-23T09:03:29Z</time>
      </trkpt>
      <trkpt lat="58.080588039010763" lon="-5.240818988531828">
        <ele>109.25</ele>
        <time>2023-08-23T09:03:30Z</time>
      </trkpt>
      <trkpt lat="58.08064796961844" lon="-5.240653026849031">
        <ele>109.25</ele>
        <time>2023-08-23T09:03:31Z</time>
      </trkpt>
      <trkpt lat="58.081187009811401" lon="-5.239034984260798">
        <ele>106.84</ele>
        <time>2023-08-23T09:03:39Z</time>
      </trkpt>
      <trkpt lat="58.081319024786353" lon="-5.238688979297876">
        <ele>105.40000000000001</ele>
        <time>2023-08-23T09:03:41Z</time>
      </trkpt>
      <trkpt lat="58.082032995298505" lon="-5.237288028001785">
        <ele>102.52</ele>
        <time>2023-08-23T09:03:49Z</time>
      </trkpt>
      <trkpt lat="58.082438008859754" lon="-5.236833980306983">
        <ele>103.48</ele>
        <time>2023-08-23T09:03:53Z</time>
      </trkpt>
      <trkpt lat="58.082535993307829" lon="-5.236785029992461">
        <ele>103.95999999999999</ele>
        <time>2023-08-23T09:03:54Z</time>
      </trkpt>
      <trkpt lat="58.082640012726188" lon="-5.236731972545385">
        <ele>104.92</ele>
        <time>2023-08-23T09:03:55Z</time>
      </trkpt>
      <trkpt lat="58.082774039357901" lon="-5.236748987808824">
        <ele>105.40000000000001</ele>
        <time>2023-08-23T09:03:56Z</time>
      </trkpt>
      <trkpt lat="58.082887027412653" lon="-5.236760973930359">
        <ele>105.88</ele>
        <time>2023-08-23T09:03:57Z</time>
      </trkpt>
      <trkpt lat="58.083258010447025" lon="-5.236701965332031">
        <ele>107.31999999999999</ele>
        <time>2023-08-23T09:04:00Z</time>
      </trkpt>
      <trkpt lat="58.083366975188255" lon="-5.236659971997142">
        <ele>108.29000000000001</ele>
        <time>2023-08-23T09:04:01Z</time>
      </trkpt>
      <trkpt lat="58.083974998444319" lon="-5.236423015594482">
        <ele>111.17</ele>
        <time>2023-08-23T09:04:06Z</time>
      </trkpt>
      <trkpt lat="58.084078012034297" lon="-5.236347997561097">
        <ele>111.17</ele>
        <time>2023-08-23T09:04:07Z</time>
      </trkpt>
      <trkpt lat="58.084182031452656" lon="-5.236228974536061">
        <ele>110.69</ele>
        <time>2023-08-23T09:04:08Z</time>
      </trkpt>
      <trkpt lat="58.084294013679028" lon="-5.236100982874632">
        <ele>110.69</ele>
        <time>2023-08-23T09:04:09Z</time>
      </trkpt>
      <trkpt lat="58.084413958713412" lon="-5.235985983163118">
        <ele>110.20999999999999</ele>
        <time>2023-08-23T09:04:10Z</time>
      </trkpt>
      <trkpt lat="58.085259022191167" lon="-5.235244017094374">
        <ele>106.84</ele>
        <time>2023-08-23T09:04:17Z</time>
      </trkpt>
      <trkpt lat="58.085382990539074" lon="-5.235135974362493">
        <ele>105.88</ele>
        <time>2023-08-23T09:04:18Z</time>
      </trkpt>
      <trkpt lat="58.085474018007517" lon="-5.235135974362493">
        <ele>105.40000000000001</ele>
        <time>2023-08-23T09:04:19Z</time>
      </trkpt>
      <trkpt lat="58.085576025769114" lon="-5.235135974362493">
        <ele>104.44</ele>
        <time>2023-08-23T09:04:20Z</time>
      </trkpt>
      <trkpt lat="58.085676021873951" lon="-5.235182996839285">
        <ele>103.48</ele>
        <time>2023-08-23T09:04:21Z</time>
      </trkpt>
      <trkpt lat="58.085770988836884" lon="-5.235239993780851">
        <ele>102.52</ele>
        <time>2023-08-23T09:04:22Z</time>
      </trkpt>
      <trkpt lat="58.085870984941721" lon="-5.23530000820756">
        <ele>102.04000000000001</ele>
        <time>2023-08-23T09:04:23Z</time>
      </trkpt>
      <trkpt lat="58.08597500436008" lon="-5.23532004095614">
        <ele>101.08</ele>
        <time>2023-08-23T09:04:24Z</time>
      </trkpt>
      <trkpt lat="58.086080029606819" lon="-5.235304031521082">
        <ele>100.11</ele>
        <time>2023-08-23T09:04:25Z</time>
      </trkpt>
      <trkpt lat="58.086180025711656" lon="-5.235289027914405">
        <ele>99.150000000000006</ele>
        <time>2023-08-23T09:04:26Z</time>
      </trkpt>
      <trkpt lat="58.08625596575439" lon="-5.235187020152807">
        <ele>98.670000000000002</ele>
        <time>2023-08-23T09:04:27Z</time>
      </trkpt>
      <trkpt lat="58.086321009323001" lon="-5.235075037926436">
        <ele>97.230000000000004</ele>
        <time>2023-08-23T09:04:28Z</time>
      </trkpt>
      <trkpt lat="58.086369959637523" lon="-5.2349369879812">
        <ele>96.269999999999996</ele>
        <time>2023-08-23T09:04:29Z</time>
      </trkpt>
      <trkpt lat="58.086411030963063" lon="-5.234759040176868">
        <ele>94.829999999999998</ele>
        <time>2023-08-23T09:04:30Z</time>
      </trkpt>
      <trkpt lat="58.086453024297953" lon="-5.234578996896744">
        <ele>93.390000000000001</ele>
        <time>2023-08-23T09:04:31Z</time>
      </trkpt>
      <trkpt lat="58.086509015411139" lon="-5.234361989423633">
        <ele>92.420000000000002</ele>
        <time>2023-08-23T09:04:32Z</time>
      </trkpt>
      <trkpt lat="58.086579004302621" lon="-5.234201978892088">
        <ele>91.459999999999994</ele>
        <time>2023-08-23T09:04:33Z</time>
      </trkpt>
      <trkpt lat="58.086676988750696" lon="-5.234005004167557">
        <ele>90.5</ele>
        <time>2023-08-23T09:04:34Z</time>
      </trkpt>
      <trkpt lat="58.086775979027152" lon="-5.233879024162889">
        <ele>90.019999999999996</ele>
        <time>2023-08-23T09:04:35Z</time>
      </trkpt>
      <trkpt lat="58.087341003119946" lon="-5.233159018680453">
        <ele>90.019999999999996</ele>
        <time>2023-08-23T09:04:41Z</time>
      </trkpt>
      <trkpt lat="58.087443010881543" lon="-5.23311099037528">
        <ele>89.540000000000006</ele>
        <time>2023-08-23T09:04:42Z</time>
      </trkpt>
      <trkpt lat="58.087760014459491" lon="-5.232971012592316">
        <ele>88.099999999999994</ele>
        <time>2023-08-23T09:04:45Z</time>
      </trkpt>
      <trkpt lat="58.08786797337234" lon="-5.232986016198993">
        <ele>88.099999999999994</ele>
        <time>2023-08-23T09:04:46Z</time>
      </trkpt>
      <trkpt lat="58.087966963648796" lon="-5.233000013977289">
        <ele>87.620000000000005</ele>
        <time>2023-08-23T09:04:47Z</time>
      </trkpt>
      <trkpt lat="58.088052039965987" lon="-5.233022980391979">
        <ele>87.140000000000001</ele>
        <time>2023-08-23T09:04:48Z</time>
      </trkpt>
      <trkpt lat="58.088109958916903" lon="-5.233100010082126">
        <ele>87.140000000000001</ele>
        <time>2023-08-23T09:04:49Z</time>
      </trkpt>
      <trkpt lat="58.088164022192359" lon="-5.233171004801989">
        <ele>87.140000000000001</ele>
        <time>2023-08-23T09:04:50Z</time>
      </trkpt>
      <trkpt lat="58.08821096085012" lon="-5.233234036713839">
        <ele>87.140000000000001</ele>
        <time>2023-08-23T09:04:51Z</time>
      </trkpt>
      <trkpt lat="58.088277010247111" lon="-5.233268989250064">
        <ele>86.659999999999997</ele>
        <time>2023-08-23T09:04:52Z</time>
      </trkpt>
      <trkpt lat="58.088366026058793" lon="-5.233232025057077">
        <ele>86.659999999999997</ele>
        <time>2023-08-23T09:04:53Z</time>
      </trkpt>
      <trkpt lat="58.088413970544934" lon="-5.233079977333546">
        <ele>86.180000000000007</ele>
        <time>2023-08-23T09:04:54Z</time>
      </trkpt>
      <trkpt lat="58.088425034657121" lon="-5.232936982065439">
        <ele>85.689999999999998</ele>
        <time>2023-08-23T09:04:55Z</time>
      </trkpt>
      <trkpt lat="58.088437020778656" lon="-5.232782000675798">
        <ele>85.209999999999994</ele>
        <time>2023-08-23T09:04:56Z</time>
      </trkpt>
      <trkpt lat="58.08844699524343" lon="-5.232645040377975">
        <ele>84.730000000000004</ele>
        <time>2023-08-23T09:04:57Z</time>
      </trkpt>
      <trkpt lat="58.088456969708204" lon="-5.232515037059784">
        <ele>83.769999999999996</ele>
        <time>2023-08-23T09:04:58Z</time>
      </trkpt>
      <trkpt lat="58.088524024933577" lon="-5.232223011553288">
        <ele>82.329999999999998</ele>
        <time>2023-08-23T09:05:00Z</time>
      </trkpt>
      <trkpt lat="58.088580016046762" lon="-5.232137013226748">
        <ele>81.849999999999994</ele>
        <time>2023-08-23T09:05:01Z</time>
      </trkpt>
      <trkpt lat="58.088580016046762" lon="-5.232137013226748">
        <ele>81.849999999999994</ele>
        <time>2023-08-23T09:05:02Z</time>
      </trkpt>
      <trkpt lat="58.088726028800011" lon="-5.231946995481849">
        <ele>82.329999999999998</ele>
        <time>2023-08-23T09:05:03Z</time>
      </trkpt>
      <trkpt lat="58.08881102129817" lon="-5.231869965791702">
        <ele>82.329999999999998</ele>
        <time>2023-08-23T09:05:04Z</time>
      </trkpt>
      <trkpt lat="58.088923003524542" lon="-5.231767036020756">
        <ele>82.810000000000002</ele>
        <time>2023-08-23T09:05:05Z</time>
      </trkpt>
      <trkpt lat="58.089000033214688" lon="-5.231781033799052">
        <ele>83.769999999999996</ele>
        <time>2023-08-23T09:05:06Z</time>
      </trkpt>
      <trkpt lat="58.089097011834383" lon="-5.23179997690022">
        <ele>84.25</ele>
        <time>2023-08-23T09:05:07Z</time>
      </trkpt>
      <trkpt lat="58.089918019250035" lon="-5.23199200630188">
        <ele>87.140000000000001</ele>
        <time>2023-08-23T09:05:14Z</time>
      </trkpt>
      <trkpt lat="58.090137038379908" lon="-5.232124021276832">
        <ele>87.620000000000005</ele>
        <time>2023-08-23T09:05:16Z</time>
      </trkpt>
      <trkpt lat="58.090219013392925" lon="-5.232214964926243">
        <ele>88.099999999999994</ele>
        <time>2023-08-23T09:05:17Z</time>
      </trkpt>
      <trkpt lat="58.090319009497762" lon="-5.232328036800027">
        <ele>88.579999999999998</ele>
        <time>2023-08-23T09:05:18Z</time>
      </trkpt>
      <trkpt lat="58.090381035581231" lon="-5.23248603567481">
        <ele>89.060000000000002</ele>
        <time>2023-08-23T09:05:19Z</time>
      </trkpt>
      <trkpt lat="58.090441972017288" lon="-5.232641017064452">
        <ele>89.540000000000006</ele>
        <time>2023-08-23T09:05:20Z</time>
      </trkpt>
      <trkpt lat="58.090499974787235" lon="-5.232789041474462">
        <ele>89.540000000000006</ele>
        <time>2023-08-23T09:05:21Z</time>
      </trkpt>
      <trkpt lat="58.090557977557182" lon="-5.232931030914187">
        <ele>89.540000000000006</ele>
        <time>2023-08-23T09:05:22Z</time>
      </trkpt>
      <trkpt lat="58.090647999197245" lon="-5.233056005090475">
        <ele>89.060000000000002</ele>
        <time>2023-08-23T09:05:23Z</time>
      </trkpt>
      <trkpt lat="58.091150997206569" lon="-5.233758995309472">
        <ele>86.180000000000007</ele>
        <time>2023-08-23T09:05:29Z</time>
      </trkpt>
      <trkpt lat="58.091314025223255" lon="-5.233984971418977">
        <ele>84.730000000000004</ele>
        <time>2023-08-23T09:05:31Z</time>
      </trkpt>
      <trkpt lat="58.091415027156472" lon="-5.234093014150858">
        <ele>83.769999999999996</ele>
        <time>2023-08-23T09:05:32Z</time>
      </trkpt>
      <trkpt lat="58.091526003554463" lon="-5.234167026355863">
        <ele>82.810000000000002</ele>
        <time>2023-08-23T09:05:33Z</time>
      </trkpt>
      <trkpt lat="58.091629017144442" lon="-5.234236009418964">
        <ele>82.329999999999998</ele>
        <time>2023-08-23T09:05:34Z</time>
      </trkpt>
      <trkpt lat="58.091762959957123" lon="-5.234224023297429">
        <ele>81.370000000000005</ele>
        <time>2023-08-23T09:05:35Z</time>
      </trkpt>
      <trkpt lat="58.091853987425566" lon="-5.234155040234327">
        <ele>80.409999999999997</ele>
        <time>2023-08-23T09:05:36Z</time>
      </trkpt>
      <trkpt lat="58.091976027935743" lon="-5.234028976410627">
        <ele>79.930000000000007</ele>
        <time>2023-08-23T09:05:37Z</time>
      </trkpt>
      <trkpt lat="58.092050962150097" lon="-5.233870977535844">
        <ele>79.450000000000003</ele>
        <time>2023-08-23T09:05:38Z</time>
      </trkpt>
      <trkpt lat="58.092386992648244" lon="-5.233286004513502">
        <ele>77.040000000000006</ele>
        <time>2023-08-23T09:05:42Z</time>
      </trkpt>
      <trkpt lat="58.092477014288306" lon="-5.233162036165595">
        <ele>76.560000000000002</ele>
        <time>2023-08-23T09:05:43Z</time>
      </trkpt>
      <trkpt lat="58.092570975422859" lon="-5.233033038675785">
        <ele>76.079999999999998</ele>
        <time>2023-08-23T09:05:44Z</time>
      </trkpt>
      <trkpt lat="58.09323800727725" lon="-5.232404982671142">
        <ele>73.680000000000007</ele>
        <time>2023-08-23T09:05:51Z</time>
      </trkpt>
      <trkpt lat="58.093316964805126" lon="-5.232339017093182">
        <ele>73.680000000000007</ele>
        <time>2023-08-23T09:05:52Z</time>
      </trkpt>
      <trkpt lat="58.0936239939183" lon="-5.232193004339933">
        <ele>72.239999999999995</ele>
        <time>2023-08-23T09:05:55Z</time>
      </trkpt>
      <trkpt lat="58.094449024647474" lon="-5.231630997732282">
        <ele>65.989999999999995</ele>
        <time>2023-08-23T09:06:03Z</time>
      </trkpt>
      <trkpt lat="58.094645999372005" lon="-5.231493031606078">
        <ele>65.510000000000005</ele>
        <time>2023-08-23T09:06:04Z</time>
      </trkpt>
      <trkpt lat="58.094726968556643" lon="-5.231493031606078">
        <ele>64.549999999999997</ele>
        <time>2023-08-23T09:06:05Z</time>
      </trkpt>
      <trkpt lat="58.094812966883183" lon="-5.231497976928949">
        <ele>63.579999999999998</ele>
        <time>2023-08-23T09:06:06Z</time>
      </trkpt>
      <trkpt lat="58.094895025715232" lon="-5.231503006070852">
        <ele>62.619999999999997</ele>
        <time>2023-08-23T09:06:07Z</time>
      </trkpt>
      <trkpt lat="58.094980018213391" lon="-5.231509041041136">
        <ele>62.140000000000001</ele>
        <time>2023-08-23T09:06:08Z</time>
      </trkpt>
      <trkpt lat="58.095071967691183" lon="-5.231514992192388">
        <ele>61.659999999999997</ele>
        <time>2023-08-23T09:06:09Z</time>
      </trkpt>
      <trkpt lat="58.0951729696244" lon="-5.231522032991052">
        <ele>60.700000000000003</ele>
        <time>2023-08-23T09:06:10Z</time>
      </trkpt>
      <trkpt lat="58.09549399651587" lon="-5.231542987748981">
        <ele>59.259999999999998</ele>
        <time>2023-08-23T09:06:13Z</time>
      </trkpt>
      <trkpt lat="58.095592986792326" lon="-5.231549022719264">
        <ele>59.259999999999998</ele>
        <time>2023-08-23T09:06:14Z</time>
      </trkpt>
      <trkpt lat="58.095693988725543" lon="-5.231586992740631">
        <ele>58.780000000000001</ele>
        <time>2023-08-23T09:06:15Z</time>
      </trkpt>
      <trkpt lat="58.095789039507508" lon="-5.231647007167339">
        <ele>58.780000000000001</ele>
        <time>2023-08-23T09:06:16Z</time>
      </trkpt>
      <trkpt lat="58.095886018127203" lon="-5.231715990230441">
        <ele>58.299999999999997</ele>
        <time>2023-08-23T09:06:17Z</time>
      </trkpt>
      <trkpt lat="58.095971010625362" lon="-5.231816992163658">
        <ele>57.82</ele>
        <time>2023-08-23T09:06:18Z</time>
      </trkpt>
      <trkpt lat="58.096054997295141" lon="-5.231917994096875">
        <ele>56.859999999999999</ele>
        <time>2023-08-23T09:06:19Z</time>
      </trkpt>
      <trkpt lat="58.096136972308159" lon="-5.232072975486517">
        <ele>55.890000000000001</ele>
        <time>2023-08-23T09:06:20Z</time>
      </trkpt>
      <trkpt lat="58.096319027245045" lon="-5.232514031231403">
        <ele>53.969999999999999</ele>
        <time>2023-08-23T09:06:23Z</time>
      </trkpt>
      <trkpt lat="58.096360014751554" lon="-5.232686027884483">
        <ele>53.009999999999998</ele>
        <time>2023-08-23T09:06:24Z</time>
      </trkpt>
      <trkpt lat="58.096381975337863" lon="-5.232865987345576">
        <ele>52.049999999999997</ele>
        <time>2023-08-23T09:06:25Z</time>
      </trkpt>
      <trkpt lat="58.096452970057726" lon="-5.233442997559905">
        <ele>48.68</ele>
        <time>2023-08-23T09:06:28Z</time>
      </trkpt>
      <trkpt lat="58.096474008634686" lon="-5.233612982556224">
        <ele>47.719999999999999</ele>
        <time>2023-08-23T09:06:29Z</time>
      </trkpt>
      <trkpt lat="58.096536034718156" lon="-5.233713984489441">
        <ele>46.759999999999998</ele>
        <time>2023-08-23T09:06:30Z</time>
      </trkpt>
      <trkpt lat="58.096609963104129" lon="-5.233814986422658">
        <ele>46.280000000000001</ele>
        <time>2023-08-23T09:06:31Z</time>
      </trkpt>
      <trkpt lat="58.096678024157882" lon="-5.233908025547862">
        <ele>45.32</ele>
        <time>2023-08-23T09:06:32Z</time>
      </trkpt>
      <trkpt lat="58.096735021099448" lon="-5.233984971418977">
        <ele>44.359999999999999</ele>
        <time>2023-08-23T09:06:33Z</time>
      </trkpt>
      <trkpt lat="58.096777014434338" lon="-5.234175994992256">
        <ele>42.920000000000002</ele>
        <time>2023-08-23T09:06:34Z</time>
      </trkpt>
      <trkpt lat="58.096777014434338" lon="-5.23433499969542">
        <ele>41.950000000000003</ele>
        <time>2023-08-23T09:06:35Z</time>
      </trkpt>
      <trkpt lat="58.096762010827661" lon="-5.234535997733474">
        <ele>40.990000000000002</ele>
        <time>2023-08-23T09:06:36Z</time>
      </trkpt>
      <trkpt lat="58.096727980300784" lon="-5.234740013256669">
        <ele>40.030000000000001</ele>
        <time>2023-08-23T09:06:37Z</time>
      </trkpt>
      <trkpt lat="58.09667500667274" lon="-5.234960960224271">
        <ele>39.07</ele>
        <time>2023-08-23T09:06:38Z</time>
      </trkpt>
      <trkpt lat="58.09626798145473" lon="-5.236320002004504">
        <ele>31.859999999999999</ele>
        <time>2023-08-23T09:06:45Z</time>
      </trkpt>
      <trkpt lat="58.096106965094805" lon="-5.236859964206815">
        <ele>28.02</ele>
        <time>2023-08-23T09:06:52Z</time>
      </trkpt>
      <trkpt lat="58.095956007018685" lon="-5.237320968881249">
        <ele>24.649999999999999</ele>
        <time>2023-08-23T09:07:02Z</time>
      </trkpt>
      <trkpt lat="58.095332980155945" lon="-5.239006988704205">
        <ele>21.289999999999999</ele>
        <time>2023-08-23T09:07:11Z</time>
      </trkpt>
      <trkpt lat="58.094426980242133" lon="-5.240982016548514">
        <ele>21.289999999999999</ele>
        <time>2023-08-23T09:07:21Z</time>
      </trkpt>
      <trkpt lat="58.0940349586308" lon="-5.241653993725777">
        <ele>21.77</ele>
        <time>2023-08-23T09:07:25Z</time>
      </trkpt>
      <trkpt lat="58.093910990282893" lon="-5.241754995658994">
        <ele>21.77</ele>
        <time>2023-08-23T09:07:26Z</time>
      </trkpt>
      <trkpt lat="58.093790039420128" lon="-5.241825990378857">
        <ele>21.77</ele>
        <time>2023-08-23T09:07:27Z</time>
      </trkpt>
      <trkpt lat="58.093347977846861" lon="-5.242007961496711">
        <ele>22.25</ele>
        <time>2023-08-23T09:07:31Z</time>
      </trkpt>
      <trkpt lat="58.093273965641856" lon="-5.242143999785185">
        <ele>22.25</ele>
        <time>2023-08-23T09:07:32Z</time>
      </trkpt>
      <trkpt lat="58.093162989243865" lon="-5.242567034438252">
        <ele>21.77</ele>
        <time>2023-08-23T09:07:34Z</time>
      </trkpt>
      <trkpt lat="58.093105992302299" lon="-5.242811031639576">
        <ele>21.289999999999999</ele>
        <time>2023-08-23T09:07:35Z</time>
      </trkpt>
      <trkpt lat="58.093086965382099" lon="-5.243083024397492">
        <ele>20.809999999999999</ele>
        <time>2023-08-23T09:07:36Z</time>
      </trkpt>
      <trkpt lat="58.092988980934024" lon="-5.244433013722301">
        <ele>20.809999999999999</ele>
        <time>2023-08-23T09:07:42Z</time>
      </trkpt>
      <trkpt lat="58.092981018126011" lon="-5.244541978463531">
        <ele>20.809999999999999</ele>
        <time>2023-08-23T09:07:43Z</time>
      </trkpt>
      <trkpt lat="58.093018988147378" lon="-5.244655972346664">
        <ele>20.809999999999999</ele>
        <time>2023-08-23T09:07:44Z</time>
      </trkpt>
      <trkpt lat="58.093074979260564" lon="-5.244768038392067">
        <ele>20.809999999999999</ele>
        <time>2023-08-23T09:07:45Z</time>
      </trkpt>
      <trkpt lat="58.093149997293949" lon="-5.244915978983045">
        <ele>20.32</ele>
        <time>2023-08-23T09:07:46Z</time>
      </trkpt>
      <trkpt lat="58.093240018934011" lon="-5.245093004778028">
        <ele>20.32</ele>
        <time>2023-08-23T09:07:47Z</time>
      </trkpt>
      <trkpt lat="58.093893975019455" lon="-5.246379040181637">
        <ele>18.399999999999999</ele>
        <time>2023-08-23T09:07:54Z</time>
      </trkpt>
      <trkpt lat="58.093993971124291" lon="-5.246521029621363">
        <ele>18.399999999999999</ele>
        <time>2023-08-23T09:07:55Z</time>
      </trkpt>
      <trkpt lat="58.094433015212417" lon="-5.247151013463736">
        <ele>17.920000000000002</ele>
        <time>2023-08-23T09:07:59Z</time>
      </trkpt>
      <trkpt lat="58.094539968296885" lon="-5.247325021773577">
        <ele>17.920000000000002</ele>
        <time>2023-08-23T09:08:00Z</time>
      </trkpt>
      <trkpt lat="58.095089988783002" lon="-5.248776013031602">
        <ele>16.960000000000001</ele>
        <time>2023-08-23T09:08:06Z</time>
      </trkpt>
      <trkpt lat="58.095904961228371" lon="-5.251021021977067">
        <ele>17.920000000000002</ele>
        <time>2023-08-23T09:08:15Z</time>
      </trkpt>
      <trkpt lat="58.096407959237695" lon="-5.252592964097858">
        <ele>18.399999999999999</ele>
        <time>2023-08-23T09:08:21Z</time>
      </trkpt>
      <trkpt lat="58.096450036391616" lon="-5.252847019582987">
        <ele>18.399999999999999</ele>
        <time>2023-08-23T09:08:22Z</time>
      </trkpt>
      <trkpt lat="58.096491023898125" lon="-5.253111971542239">
        <ele>18.399999999999999</ele>
        <time>2023-08-23T09:08:23Z</time>
      </trkpt>
      <trkpt lat="58.096641981974244" lon="-5.254087960347533">
        <ele>17.920000000000002</ele>
        <time>2023-08-23T09:08:27Z</time>
      </trkpt>
      <trkpt lat="58.09669503942132" lon="-5.254275966435671">
        <ele>17.920000000000002</ele>
        <time>2023-08-23T09:08:28Z</time>
      </trkpt>
      <trkpt lat="58.096754970028996" lon="-5.254469001665711">
        <ele>17.440000000000001</ele>
        <time>2023-08-23T09:08:29Z</time>
      </trkpt>
      <trkpt lat="58.09682403691113" lon="-5.25457302108407">
        <ele>17.440000000000001</ele>
        <time>2023-08-23T09:08:30Z</time>
      </trkpt>
      <trkpt lat="58.096906011924148" lon="-5.254696989431977">
        <ele>16.960000000000001</ele>
        <time>2023-08-23T09:08:31Z</time>
      </trkpt>
      <trkpt lat="58.096997039392591" lon="-5.254836967214942">
        <ele>16.960000000000001</ele>
        <time>2023-08-23T09:08:32Z</time>
      </trkpt>
      <trkpt lat="58.097097035497427" lon="-5.254988009110093">
        <ele>16.48</ele>
        <time>2023-08-23T09:08:33Z</time>
      </trkpt>
      <trkpt lat="58.097932040691376" lon="-5.256311008706689">
        <ele>16</ele>
        <time>2023-08-23T09:08:40Z</time>
      </trkpt>
      <trkpt lat="58.098037987947464" lon="-5.256562968716025">
        <ele>16</ele>
        <time>2023-08-23T09:08:41Z</time>
      </trkpt>
      <trkpt lat="58.098772997036576" lon="-5.258750980719924">
        <ele>15.039999999999999</ele>
        <time>2023-08-23T09:08:49Z</time>
      </trkpt>
      <trkpt lat="58.099249005317688" lon="-5.260606985539198">
        <ele>16.48</ele>
        <time>2023-08-23T09:08:56Z</time>
      </trkpt>
      <trkpt lat="58.099349001422524" lon="-5.260808989405632">
        <ele>16.48</ele>
        <time>2023-08-23T09:08:57Z</time>
      </trkpt>
      <trkpt lat="58.099462995305657" lon="-5.260989032685757">
        <ele>16.960000000000001</ele>
        <time>2023-08-23T09:08:58Z</time>
      </trkpt>
      <trkpt lat="58.099762983620167" lon="-5.261548021808267">
        <ele>18.399999999999999</ele>
        <time>2023-08-23T09:09:01Z</time>
      </trkpt>
      <trkpt lat="58.099835989996791" lon="-5.261711971834302">
        <ele>18.399999999999999</ele>
        <time>2023-08-23T09:09:02Z</time>
      </trkpt>
      <trkpt lat="58.099892986938357" lon="-5.261888997629285">
        <ele>18.879999999999999</ele>
        <time>2023-08-23T09:09:03Z</time>
      </trkpt>
      <trkpt lat="58.099908996373415" lon="-5.262091001495719">
        <ele>19.359999999999999</ele>
        <time>2023-08-23T09:09:04Z</time>
      </trkpt>
      <trkpt lat="58.099883012473583" lon="-5.262270960956812">
        <ele>19.84</ele>
        <time>2023-08-23T09:09:05Z</time>
      </trkpt>
      <trkpt lat="58.099859962239861" lon="-5.262431977316737">
        <ele>20.32</ele>
        <time>2023-08-23T09:09:06Z</time>
      </trkpt>
      <trkpt lat="58.099848981946707" lon="-5.26254597119987">
        <ele>20.809999999999999</ele>
        <time>2023-08-23T09:09:07Z</time>
      </trkpt>
      <trkpt lat="58.099892986938357" lon="-5.262638004496694">
        <ele>21.289999999999999</ele>
        <time>2023-08-23T09:09:08Z</time>
      </trkpt>
      <trkpt lat="58.099949983879924" lon="-5.26275702752173">
        <ele>21.77</ele>
        <time>2023-08-23T09:09:09Z</time>
      </trkpt>
      <trkpt lat="58.100097002461553" lon="-5.263091968372464">
        <ele>21.77</ele>
        <time>2023-08-23T09:09:11Z</time>
      </trkpt>
      <trkpt lat="58.100148970261216" lon="-5.263303024694324">
        <ele>21.77</ele>
        <time>2023-08-23T09:09:12Z</time>
      </trkpt>
      <trkpt lat="58.100196998566389" lon="-5.263530006632209">
        <ele>21.289999999999999</ele>
        <time>2023-08-23T09:09:13Z</time>
      </trkpt>
      <trkpt lat="58.100223988294601" lon="-5.263750031590462">
        <ele>20.809999999999999</ele>
        <time>2023-08-23T09:09:14Z</time>
      </trkpt>
      <trkpt lat="58.100248966366053" lon="-5.263959998264909">
        <ele>20.32</ele>
        <time>2023-08-23T09:09:15Z</time>
      </trkpt>
      <trkpt lat="58.100275034084916" lon="-5.264168959110975">
        <ele>19.84</ele>
        <time>2023-08-23T09:09:16Z</time>
      </trkpt>
      <trkpt lat="58.10030504129827" lon="-5.264363000169396">
        <ele>19.359999999999999</ele>
        <time>2023-08-23T09:09:17Z</time>
      </trkpt>
      <trkpt lat="58.100380981341004" lon="-5.264556035399437">
        <ele>18.879999999999999</ele>
        <time>2023-08-23T09:09:18Z</time>
      </trkpt>
      <trkpt lat="58.101142980158329" lon="-5.265990011394024">
        <ele>14.56</ele>
        <time>2023-08-23T09:09:26Z</time>
      </trkpt>
      <trkpt lat="58.101463001221418" lon="-5.26636803522706">
        <ele>13.6</ele>
        <time>2023-08-23T09:09:30Z</time>
      </trkpt>
      <trkpt lat="58.101513963192701" lon="-5.266429977491498">
        <ele>13.119999999999999</ele>
        <time>2023-08-23T09:09:31Z</time>
      </trkpt>
      <trkpt lat="58.101579006761312" lon="-5.266493009403348">
        <ele>12.630000000000001</ele>
        <time>2023-08-23T09:09:33Z</time>
      </trkpt>
      <trkpt lat="58.101579006761312" lon="-5.266493009403348">
        <ele>12.15</ele>
        <time>2023-08-23T09:09:40Z</time>
      </trkpt>
      <trkpt lat="58.101579006761312" lon="-5.266493009403348">
        <ele>11.19</ele>
        <time>2023-08-23T09:10:24Z</time>
      </trkpt>
      <trkpt lat="58.101579006761312" lon="-5.266493009403348">
        <ele>10.710000000000001</ele>
        <time>2023-08-23T09:11:11Z</time>
      </trkpt>
      <trkpt lat="58.101743962615728" lon="-5.266569033265114">
        <ele>11.67</ele>
        <time>2023-08-23T09:11:52Z</time>
      </trkpt>
      <trkpt lat="58.10198100283742" lon="-5.266694007441402">
        <ele>11.19</ele>
        <time>2023-08-23T09:11:55Z</time>
      </trkpt>
      <trkpt lat="58.102043028920889" lon="-5.266838008537889">
        <ele>11.19</ele>
        <time>2023-08-23T09:11:56Z</time>
      </trkpt>
      <trkpt lat="58.102093990892172" lon="-5.266975974664092">
        <ele>10.710000000000001</ele>
        <time>2023-08-23T09:11:57Z</time>
      </trkpt>
      <trkpt lat="58.102149982005358" lon="-5.267086029052734">
        <ele>10.710000000000001</ele>
        <time>2023-08-23T09:11:58Z</time>
      </trkpt>
      <trkpt lat="58.102214019745588" lon="-5.267174961045384">
        <ele>11.19</ele>
        <time>2023-08-23T09:11:59Z</time>
      </trkpt>
      <trkpt lat="58.102286020293832" lon="-5.267275962978602">
        <ele>11.67</ele>
        <time>2023-08-23T09:12:00Z</time>
      </trkpt>
      <trkpt lat="58.102356009185314" lon="-5.267374031245709">
        <ele>11.67</ele>
        <time>2023-08-23T09:12:01Z</time>
      </trkpt>
      <trkpt lat="58.102418035268784" lon="-5.267461035400629">
        <ele>12.15</ele>
        <time>2023-08-23T09:12:02Z</time>
      </trkpt>
      <trkpt lat="58.102478971704841" lon="-5.267515014857054">
        <ele>12.15</ele>
        <time>2023-08-23T09:12:03Z</time>
      </trkpt>
      <trkpt lat="58.102478971704841" lon="-5.267515014857054">
        <ele>12.630000000000001</ele>
        <time>2023-08-23T09:12:04Z</time>
      </trkpt>
      <trkpt lat="58.102621966972947" lon="-5.267596989870071">
        <ele>12.630000000000001</ele>
        <time>2023-08-23T09:12:05Z</time>
      </trkpt>
      <trkpt lat="58.102701008319855" lon="-5.267642000690103">
        <ele>13.119999999999999</ele>
        <time>2023-08-23T09:12:06Z</time>
      </trkpt>
      <trkpt lat="58.102767979726195" lon="-5.267714001238346">
        <ele>13.119999999999999</ele>
        <time>2023-08-23T09:12:07Z</time>
      </trkpt>
      <trkpt lat="58.102825982496142" lon="-5.267822965979576">
        <ele>13.6</ele>
        <time>2023-08-23T09:12:08Z</time>
      </trkpt>
      <trkpt lat="58.10288499109447" lon="-5.267934026196599">
        <ele>14.08</ele>
        <time>2023-08-23T09:12:09Z</time>
      </trkpt>
      <trkpt lat="58.102957997471094" lon="-5.268016001209617">
        <ele>14.08</ele>
        <time>2023-08-23T09:12:10Z</time>
      </trkpt>
      <trkpt lat="58.103037038818002" lon="-5.268066041171551">
        <ele>14.56</ele>
        <time>2023-08-23T09:12:11Z</time>
      </trkpt>
      <trkpt lat="58.103114990517497" lon="-5.268117003142834">
        <ele>14.08</ele>
        <time>2023-08-23T09:12:12Z</time>
      </trkpt>
      <trkpt lat="58.103191014379263" lon="-5.268165031448007">
        <ele>14.08</ele>
        <time>2023-08-23T09:12:13Z</time>
      </trkpt>
      <trkpt lat="58.103224961087108" lon="-5.268283970654011">
        <ele>13.6</ele>
        <time>2023-08-23T09:12:14Z</time>
      </trkpt>
      <trkpt lat="58.103238036856055" lon="-5.268407016992569">
        <ele>13.119999999999999</ele>
        <time>2023-08-23T09:12:15Z</time>
      </trkpt>
      <trkpt lat="58.103250022977591" lon="-5.268518999218941">
        <ele>12.630000000000001</ele>
        <time>2023-08-23T09:12:16Z</time>
      </trkpt>
      <trkpt lat="58.103262009099126" lon="-5.268628969788551">
        <ele>12.15</ele>
        <time>2023-08-23T09:12:17Z</time>
      </trkpt>
      <trkpt lat="58.103275001049042" lon="-5.268750004470348">
        <ele>12.15</ele>
        <time>2023-08-23T09:12:18Z</time>
      </trkpt>
      <trkpt lat="58.103320011869073" lon="-5.268865004181862">
        <ele>11.67</ele>
        <time>2023-08-23T09:12:19Z</time>
      </trkpt>
      <trkpt lat="58.103372985497117" lon="-5.268970029428601">
        <ele>11.19</ele>
        <time>2023-08-23T09:12:20Z</time>
      </trkpt>
      <trkpt lat="58.103423025459051" lon="-5.269070025533438">
        <ele>11.19</ele>
        <time>2023-08-23T09:12:21Z</time>
      </trkpt>
      <trkpt lat="58.103450015187263" lon="-5.269125010818243">
        <ele>11.67</ele>
        <time>2023-08-23T09:12:22Z</time>
      </trkpt>
      <trkpt lat="58.103493014350533" lon="-5.269153006374836">
        <ele>11.67</ele>
        <time>2023-08-23T09:12:23Z</time>
      </trkpt>
      <trkpt lat="58.103540036827326" lon="-5.269185025244951">
        <ele>12.630000000000001</ele>
        <time>2023-08-23T09:12:29Z</time>
      </trkpt>
      <trkpt lat="58.103579012677073" lon="-5.269210003316402">
        <ele>13.119999999999999</ele>
        <time>2023-08-23T09:12:30Z</time>
      </trkpt>
      <trkpt lat="58.103897022083402" lon="-5.269224001094699">
        <ele>14.56</ele>
        <time>2023-08-23T09:12:34Z</time>
      </trkpt>
      <trkpt lat="58.103994000703096" lon="-5.269228024408221">
        <ele>14.56</ele>
        <time>2023-08-23T09:12:35Z</time>
      </trkpt>
      <trkpt lat="58.104176977649331" lon="-5.269163986667991">
        <ele>15.039999999999999</ele>
        <time>2023-08-23T09:12:37Z</time>
      </trkpt>
      <trkpt lat="58.104264987632632" lon="-5.269092991948128">
        <ele>14.56</ele>
        <time>2023-08-23T09:12:38Z</time>
      </trkpt>
      <trkpt lat="58.104721968993545" lon="-5.268725026398897">
        <ele>15.039999999999999</ele>
        <time>2023-08-23T09:12:43Z</time>
      </trkpt>
      <trkpt lat="58.104801010340452" lon="-5.268701976165175">
        <ele>15.039999999999999</ele>
        <time>2023-08-23T09:12:44Z</time>
      </trkpt>
      <trkpt lat="58.104892959818244" lon="-5.268715973943472">
        <ele>15.039999999999999</ele>
        <time>2023-08-23T09:12:45Z</time>
      </trkpt>
      <trkpt lat="58.105122959241271" lon="-5.268682027235627">
        <ele>14.08</ele>
        <time>2023-08-23T09:12:48Z</time>
      </trkpt>
      <trkpt lat="58.105315994471312" lon="-5.268670041114092">
        <ele>12.630000000000001</ele>
        <time>2023-08-23T09:12:51Z</time>
      </trkpt>
      <trkpt lat="58.105375003069639" lon="-5.268712034448981">
        <ele>12.15</ele>
        <time>2023-08-23T09:12:52Z</time>
      </trkpt>
      <trkpt lat="58.105402998626232" lon="-5.268788980320096">
        <ele>11.67</ele>
        <time>2023-08-23T09:12:53Z</time>
      </trkpt>
      <trkpt lat="58.105436023324728" lon="-5.268902974203229">
        <ele>11.67</ele>
        <time>2023-08-23T09:12:54Z</time>
      </trkpt>
      <trkpt lat="58.105472987517715" lon="-5.269025014713407">
        <ele>11.19</ele>
        <time>2023-08-23T09:12:55Z</time>
      </trkpt>
      <trkpt lat="58.105553034693003" lon="-5.269296001642942">
        <ele>11.19</ele>
        <time>2023-08-23T09:12:57Z</time>
      </trkpt>
      <trkpt lat="58.10556803829968" lon="-5.269450983032584">
        <ele>11.19</ele>
        <time>2023-08-23T09:12:58Z</time>
      </trkpt>
      <trkpt lat="58.105584969744086" lon="-5.269625997170806">
        <ele>11.19</ele>
        <time>2023-08-23T09:12:59Z</time>
      </trkpt>
      <trkpt lat="58.10561497695744" lon="-5.26993696577847">
        <ele>11.19</ele>
        <time>2023-08-23T09:13:01Z</time>
      </trkpt>
      <trkpt lat="58.105665016919374" lon="-5.270040985196829">
        <ele>11.19</ele>
        <time>2023-08-23T09:13:02Z</time>
      </trkpt>
      <trkpt lat="58.105715978890657" lon="-5.270117009058595">
        <ele>11.19</ele>
        <time>2023-08-23T09:13:03Z</time>
      </trkpt>
      <trkpt lat="58.105766018852592" lon="-5.270186997950077">
        <ele>11.67</ele>
        <time>2023-08-23T09:13:04Z</time>
      </trkpt>
      <trkpt lat="58.105803988873959" lon="-5.270219016820192">
        <ele>12.15</ele>
        <time>2023-08-23T09:13:05Z</time>
      </trkpt>
      <trkpt lat="58.10587196610868" lon="-5.270219016820192">
        <ele>12.15</ele>
        <time>2023-08-23T09:13:06Z</time>
      </trkpt>
      <trkpt lat="58.105952013283968" lon="-5.270219016820192">
        <ele>12.15</ele>
        <time>2023-08-23T09:13:07Z</time>
      </trkpt>
      <trkpt lat="58.105982020497322" lon="-5.270219016820192">
        <ele>12.630000000000001</ele>
        <time>2023-08-23T09:13:08Z</time>
      </trkpt>
      <trkpt lat="58.106101965531707" lon="-5.270269978791475">
        <ele>12.630000000000001</ele>
        <time>2023-08-23T09:13:09Z</time>
      </trkpt>
      <trkpt lat="58.106153011322021" lon="-5.270329993218184">
        <ele>12.630000000000001</ele>
        <time>2023-08-23T09:13:10Z</time>
      </trkpt>
      <trkpt lat="58.106197016313672" lon="-5.270425966009498">
        <ele>12.630000000000001</ele>
        <time>2023-08-23T09:13:11Z</time>
      </trkpt>
      <trkpt lat="58.106246972456574" lon="-5.270538032054901">
        <ele>12.630000000000001</ele>
        <time>2023-08-23T09:13:12Z</time>
      </trkpt>
      <trkpt lat="58.106301035732031" lon="-5.270658982917666">
        <ele>12.630000000000001</ele>
        <time>2023-08-23T09:13:13Z</time>
      </trkpt>
      <trkpt lat="58.106440007686615" lon="-5.270865010097623">
        <ele>12.630000000000001</ele>
        <time>2023-08-23T09:13:15Z</time>
      </trkpt>
      <trkpt lat="58.10651401989162" lon="-5.270964000374079">
        <ele>13.119999999999999</ele>
        <time>2023-08-23T09:13:16Z</time>
      </trkpt>
      <trkpt lat="58.107011988759041" lon="-5.271348981186748">
        <ele>13.6</ele>
        <time>2023-08-23T09:13:22Z</time>
      </trkpt>
      <trkpt lat="58.107093963772058" lon="-5.271436991170049">
        <ele>13.6</ele>
        <time>2023-08-23T09:13:23Z</time>
      </trkpt>
      <trkpt lat="58.107152972370386" lon="-5.271563977003098">
        <ele>14.08</ele>
        <time>2023-08-23T09:13:24Z</time>
      </trkpt>
      <trkpt lat="58.107210975140333" lon="-5.271688029170036">
        <ele>14.08</ele>
        <time>2023-08-23T09:13:25Z</time>
      </trkpt>
      <trkpt lat="58.107269983738661" lon="-5.271816020831466">
        <ele>14.56</ele>
        <time>2023-08-23T09:13:26Z</time>
      </trkpt>
      <trkpt lat="58.107327986508608" lon="-5.271939989179373">
        <ele>15.039999999999999</ele>
        <time>2023-08-23T09:13:27Z</time>
      </trkpt>
      <trkpt lat="58.107364028692245" lon="-5.27208499610424">
        <ele>15.52</ele>
        <time>2023-08-23T09:13:28Z</time>
      </trkpt>
      <trkpt lat="58.107379032298923" lon="-5.272248024120927">
        <ele>16</ele>
        <time>2023-08-23T09:13:29Z</time>
      </trkpt>
      <trkpt lat="58.10744097456336" lon="-5.272880019620061">
        <ele>18.399999999999999</ele>
        <time>2023-08-23T09:13:33Z</time>
      </trkpt>
      <trkpt lat="58.107406022027135" lon="-5.273001976311207">
        <ele>18.399999999999999</ele>
        <time>2023-08-23T09:13:34Z</time>
      </trkpt>
      <trkpt lat="58.107367968186736" lon="-5.273133991286159">
        <ele>18.879999999999999</ele>
        <time>2023-08-23T09:13:35Z</time>
      </trkpt>
      <trkpt lat="58.107300996780396" lon="-5.273370025679469">
        <ele>18.879999999999999</ele>
        <time>2023-08-23T09:13:37Z</time>
      </trkpt>
      <trkpt lat="58.10726897791028" lon="-5.27347999624908">
        <ele>18.879999999999999</ele>
        <time>2023-08-23T09:13:38Z</time>
      </trkpt>
      <trkpt lat="58.10728800483048" lon="-5.273582004010677">
        <ele>19.359999999999999</ele>
        <time>2023-08-23T09:13:39Z</time>
      </trkpt>
      <trkpt lat="58.107308959588408" lon="-5.273704966530204">
        <ele>18.879999999999999</ele>
        <time>2023-08-23T09:13:40Z</time>
      </trkpt>
      <trkpt lat="58.107336033135653" lon="-5.273852990940213">
        <ele>18.879999999999999</ele>
        <time>2023-08-23T09:13:41Z</time>
      </trkpt>
      <trkpt lat="58.107366040349007" lon="-5.274021970108151">
        <ele>18.399999999999999</ele>
        <time>2023-08-23T09:13:42Z</time>
      </trkpt>
      <trkpt lat="58.10744097456336" lon="-5.2744460105896">
        <ele>16.48</ele>
        <time>2023-08-23T09:13:45Z</time>
      </trkpt>
      <trkpt lat="58.107519010081887" lon="-5.274583976715803">
        <ele>16</ele>
        <time>2023-08-23T09:13:46Z</time>
      </trkpt>
      <trkpt lat="58.107576007023454" lon="-5.274685984477401">
        <ele>15.52</ele>
        <time>2023-08-23T09:13:47Z</time>
      </trkpt>
      <trkpt lat="58.107634009793401" lon="-5.274788998067379">
        <ele>15.52</ele>
        <time>2023-08-23T09:13:48Z</time>
      </trkpt>
      <trkpt lat="58.107685977593064" lon="-5.274807019159198">
        <ele>15.039999999999999</ele>
        <time>2023-08-23T09:13:49Z</time>
      </trkpt>
      <trkpt lat="58.107758983969688" lon="-5.274830991402268">
        <ele>14.08</ele>
        <time>2023-08-23T09:13:50Z</time>
      </trkpt>
      <trkpt lat="58.107836013659835" lon="-5.274852029979229">
        <ele>13.6</ele>
        <time>2023-08-23T09:13:51Z</time>
      </trkpt>
      <trkpt lat="58.107922011986375" lon="-5.27483400888741">
        <ele>13.119999999999999</ele>
        <time>2023-08-23T09:13:52Z</time>
      </trkpt>
      <trkpt lat="58.108013039454818" lon="-5.274815987795591">
        <ele>12.15</ele>
        <time>2023-08-23T09:13:53Z</time>
      </trkpt>
      <trkpt lat="58.108576973900199" lon="-5.274699982255697">
        <ele>10.710000000000001</ele>
        <time>2023-08-23T09:13:59Z</time>
      </trkpt>
      <trkpt lat="58.108660960569978" lon="-5.274682966992259">
        <ele>11.19</ele>
        <time>2023-08-23T09:14:00Z</time>
      </trkpt>
      <trkpt lat="58.108742013573647" lon="-5.274563021957874">
        <ele>11.67</ele>
        <time>2023-08-23T09:14:01Z</time>
      </trkpt>
      <trkpt lat="58.108815019950271" lon="-5.274451039731503">
        <ele>12.15</ele>
        <time>2023-08-23T09:14:02Z</time>
      </trkpt>
      <trkpt lat="58.108890037983656" lon="-5.274336040019989">
        <ele>13.119999999999999</ele>
        <time>2023-08-23T09:14:03Z</time>
      </trkpt>
      <trkpt lat="58.109251968562603" lon="-5.273783002048731">
        <ele>17.920000000000002</ele>
        <time>2023-08-23T09:14:08Z</time>
      </trkpt>
      <trkpt lat="58.10941600240767" lon="-5.273453006520867">
        <ele>20.32</ele>
        <time>2023-08-23T09:14:11Z</time>
      </trkpt>
      <trkpt lat="58.109457995742559" lon="-5.273339012637734">
        <ele>20.32</ele>
        <time>2023-08-23T09:14:12Z</time>
      </trkpt>
      <trkpt lat="58.109500994905829" lon="-5.27322300709784">
        <ele>20.809999999999999</ele>
        <time>2023-08-23T09:14:13Z</time>
      </trkpt>
      <trkpt lat="58.109518010169268" lon="-5.273107001557946">
        <ele>20.809999999999999</ele>
        <time>2023-08-23T09:14:14Z</time>
      </trkpt>
      <trkpt lat="58.109542988240719" lon="-5.272942967712879">
        <ele>20.809999999999999</ele>
        <time>2023-08-23T09:14:15Z</time>
      </trkpt>
      <trkpt lat="58.109580958262086" lon="-5.272763008251786">
        <ele>20.809999999999999</ele>
        <time>2023-08-23T09:14:16Z</time>
      </trkpt>
      <trkpt lat="58.109644996002316" lon="-5.272635016590357">
        <ele>20.32</ele>
        <time>2023-08-23T09:14:17Z</time>
      </trkpt>
      <trkpt lat="58.109711967408657" lon="-5.272501995787025">
        <ele>20.32</ele>
        <time>2023-08-23T09:14:18Z</time>
      </trkpt>
      <trkpt lat="58.109796959906816" lon="-5.272391019389033">
        <ele>20.32</ele>
        <time>2023-08-23T09:14:19Z</time>
      </trkpt>
      <trkpt lat="58.109881030395627" lon="-5.272306026890874">
        <ele>20.32</ele>
        <time>2023-08-23T09:14:20Z</time>
      </trkpt>
      <trkpt lat="58.109966022893786" lon="-5.272222040221095">
        <ele>20.809999999999999</ele>
        <time>2023-08-23T09:14:21Z</time>
      </trkpt>
      <trkpt lat="58.110055038705468" lon="-5.272132018581033">
        <ele>20.809999999999999</ele>
        <time>2023-08-23T09:14:22Z</time>
      </trkpt>
      <trkpt lat="58.110143970698118" lon="-5.272044008597732">
        <ele>20.809999999999999</ele>
        <time>2023-08-23T09:14:23Z</time>
      </trkpt>
      <trkpt lat="58.110237009823322" lon="-5.271989023312926">
        <ele>21.289999999999999</ele>
        <time>2023-08-23T09:14:24Z</time>
      </trkpt>
      <trkpt lat="58.110328037291765" lon="-5.271948035806418">
        <ele>21.77</ele>
        <time>2023-08-23T09:14:25Z</time>
      </trkpt>
      <trkpt lat="58.110418980941176" lon="-5.271906964480877">
        <ele>21.77</ele>
        <time>2023-08-23T09:14:26Z</time>
      </trkpt>
      <trkpt lat="58.110512020066381" lon="-5.271863965317607">
        <ele>22.25</ele>
        <time>2023-08-23T09:14:27Z</time>
      </trkpt>
      <trkpt lat="58.110602041706443" lon="-5.271822977811098">
        <ele>22.73</ele>
        <time>2023-08-23T09:14:28Z</time>
      </trkpt>
      <trkpt lat="58.110688962042332" lon="-5.27178400196135">
        <ele>23.210000000000001</ele>
        <time>2023-08-23T09:14:29Z</time>
      </trkpt>
      <trkpt lat="58.110745036974549" lon="-5.271758018061519">
        <ele>24.170000000000002</ele>
        <time>2023-08-23T09:14:33Z</time>
      </trkpt>
      <trkpt lat="58.110948968678713" lon="-5.271594990044832">
        <ele>27.050000000000001</ele>
        <time>2023-08-23T09:14:45Z</time>
      </trkpt>
      <trkpt lat="58.111001020297408" lon="-5.271489964798093">
        <ele>28.02</ele>
        <time>2023-08-23T09:14:46Z</time>
      </trkpt>
      <trkpt lat="58.11104703694582" lon="-5.271346969529986">
        <ele>28.98</ele>
        <time>2023-08-23T09:14:47Z</time>
      </trkpt>
      <trkpt lat="58.111099004745483" lon="-5.271186958998442">
        <ele>30.420000000000002</ele>
        <time>2023-08-23T09:14:48Z</time>
      </trkpt>
      <trkpt lat="58.111153990030289" lon="-5.271015968173742">
        <ele>31.379999999999999</ele>
        <time>2023-08-23T09:14:49Z</time>
      </trkpt>
      <trkpt lat="58.111346019431949" lon="-5.270669963210821">
        <ele>33.780000000000001</ele>
        <time>2023-08-23T09:14:51Z</time>
      </trkpt>
      <trkpt lat="58.111531008034945" lon="-5.270193032920361">
        <ele>37.149999999999999</ele>
        <time>2023-08-23T09:14:54Z</time>
      </trkpt>
      <trkpt lat="58.111680038273335" lon="-5.26980696246028">
        <ele>40.030000000000001</ele>
        <time>2023-08-23T09:14:56Z</time>
      </trkpt>
      <trkpt lat="58.111764024943113" lon="-5.26963597163558">
        <ele>41.469999999999999</ele>
        <time>2023-08-23T09:14:57Z</time>
      </trkpt>
      <trkpt lat="58.112267022952437" lon="-5.268784034997225">
        <ele>51.090000000000003</ele>
        <time>2023-08-23T09:15:03Z</time>
      </trkpt>
      <trkpt lat="58.112801034003496" lon="-5.268462002277374">
        <ele>62.140000000000001</ele>
        <time>2023-08-23T09:15:10Z</time>
      </trkpt>
      <trkpt lat="58.112946040928364" lon="-5.268261004239321">
        <ele>66.469999999999999</ele>
        <time>2023-08-23T09:15:12Z</time>
      </trkpt>
      <trkpt lat="58.113017035648227" lon="-5.268160002306104">
        <ele>68.390000000000001</ele>
        <time>2023-08-23T09:15:13Z</time>
      </trkpt>
      <trkpt lat="58.113089958205819" lon="-5.268034022301436">
        <ele>69.829999999999998</ele>
        <time>2023-08-23T09:15:14Z</time>
      </trkpt>
      <trkpt lat="58.113942984491587" lon="-5.266507007181644">
        <ele>75.599999999999994</ele>
        <time>2023-08-23T09:15:23Z</time>
      </trkpt>
      <trkpt lat="58.114361995831132" lon="-5.2656389772892">
        <ele>77.040000000000006</ele>
        <time>2023-08-23T09:15:28Z</time>
      </trkpt>
      <trkpt lat="58.114419998601079" lon="-5.265491958707571">
        <ele>77.519999999999996</ele>
        <time>2023-08-23T09:15:29Z</time>
      </trkpt>
      <trkpt lat="58.114774972200394" lon="-5.263742990791798">
        <ele>78.480000000000004</ele>
        <time>2023-08-23T09:15:36Z</time>
      </trkpt>
      <trkpt lat="58.115117959678173" lon="-5.262081027030945">
        <ele>77.519999999999996</ele>
        <time>2023-08-23T09:15:43Z</time>
      </trkpt>
      <trkpt lat="58.115181997418404" lon="-5.261897966265678">
        <ele>78</ele>
        <time>2023-08-23T09:15:44Z</time>
      </trkpt>
      <trkpt lat="58.115296997129917" lon="-5.261568976566196">
        <ele>78.480000000000004</ele>
        <time>2023-08-23T09:15:46Z</time>
      </trkpt>
      <trkpt lat="58.115422977134585" lon="-5.261206962168217">
        <ele>78.480000000000004</ele>
        <time>2023-08-23T09:15:49Z</time>
      </trkpt>
      <trkpt lat="58.115514004603028" lon="-5.26110302656889">
        <ele>78.480000000000004</ele>
        <time>2023-08-23T09:15:50Z</time>
      </trkpt>
      <trkpt lat="58.115577036514878" lon="-5.261033959686756">
        <ele>78.969999999999999</ele>
        <time>2023-08-23T09:15:51Z</time>
      </trkpt>
      <trkpt lat="58.115666974335909" lon="-5.261001018807292">
        <ele>79.450000000000003</ele>
        <time>2023-08-23T09:15:52Z</time>
      </trkpt>
      <trkpt lat="58.115766970440745" lon="-5.260965982452035">
        <ele>79.450000000000003</ele>
        <time>2023-08-23T09:15:53Z</time>
      </trkpt>
      <trkpt lat="58.115865038707852" lon="-5.26093102991581">
        <ele>79.450000000000003</ele>
        <time>2023-08-23T09:15:54Z</time>
      </trkpt>
      <trkpt lat="58.116410030052066" lon="-5.260734977200627">
        <ele>79.930000000000007</ele>
        <time>2023-08-23T09:16:00Z</time>
      </trkpt>
      <trkpt lat="58.11650600284338" lon="-5.260617965832353">
        <ele>79.930000000000007</ele>
        <time>2023-08-23T09:16:01Z</time>
      </trkpt>
      <trkpt lat="58.116600969806314" lon="-5.26050103828311">
        <ele>79.450000000000003</ele>
        <time>2023-08-23T09:16:02Z</time>
      </trkpt>
      <trkpt lat="58.117633033543825" lon="-5.259195975959301">
        <ele>79.450000000000003</ele>
        <time>2023-08-23T09:16:13Z</time>
      </trkpt>
      <trkpt lat="58.118299981579185" lon="-5.257835006341338">
        <ele>83.769999999999996</ele>
        <time>2023-08-23T09:16:22Z</time>
      </trkpt>
      <trkpt lat="58.118579015135765" lon="-5.257142996415496">
        <ele>80.409999999999997</ele>
        <time>2023-08-23T09:16:27Z</time>
      </trkpt>
      <trkpt lat="58.118638023734093" lon="-5.256934035569429">
        <ele>78.480000000000004</ele>
        <time>2023-08-23T09:16:29Z</time>
      </trkpt>
      <trkpt lat="58.118666019290686" lon="-5.256834039464593">
        <ele>77.519999999999996</ele>
        <time>2023-08-23T09:16:30Z</time>
      </trkpt>
      <trkpt lat="58.118681022897363" lon="-5.256696995347738">
        <ele>76.560000000000002</ele>
        <time>2023-08-23T09:16:31Z</time>
      </trkpt>
      <trkpt lat="58.118670964613557" lon="-5.256534973159432">
        <ele>75.599999999999994</ele>
        <time>2023-08-23T09:16:32Z</time>
      </trkpt>
      <trkpt lat="58.118649004027247" lon="-5.25633598677814">
        <ele>74.640000000000001</ele>
        <time>2023-08-23T09:16:33Z</time>
      </trkpt>
      <trkpt lat="58.118492010980844" lon="-5.255649005994201">
        <ele>69.829999999999998</ele>
        <time>2023-08-23T09:16:38Z</time>
      </trkpt>
      <trkpt lat="58.118516989052296" lon="-5.255486983805895">
        <ele>68.870000000000005</ele>
        <time>2023-08-23T09:16:39Z</time>
      </trkpt>
      <trkpt lat="58.118535010144114" lon="-5.25536997243762">
        <ele>67.909999999999997</ele>
        <time>2023-08-23T09:16:40Z</time>
      </trkpt>
      <trkpt lat="58.118596030399203" lon="-5.255309036001563">
        <ele>66.950000000000003</ele>
        <time>2023-08-23T09:16:41Z</time>
      </trkpt>
      <trkpt lat="58.118669958785176" lon="-5.255235023796558">
        <ele>66.469999999999999</ele>
        <time>2023-08-23T09:16:42Z</time>
      </trkpt>
      <trkpt lat="58.118757968768477" lon="-5.255150031298399">
        <ele>65.989999999999995</ele>
        <time>2023-08-23T09:16:43Z</time>
      </trkpt>
      <trkpt lat="58.119066003710032" lon="-5.254950961098075">
        <ele>63.100000000000001</ele>
        <time>2023-08-23T09:16:46Z</time>
      </trkpt>
      <trkpt lat="58.119369009509683" lon="-5.254755998030305">
        <ele>60.219999999999999</ele>
        <time>2023-08-23T09:16:49Z</time>
      </trkpt>
      <trkpt lat="58.119443021714687" lon="-5.254649966955185">
        <ele>58.780000000000001</ele>
        <time>2023-08-23T09:16:50Z</time>
      </trkpt>
      <trkpt lat="58.119499012827873" lon="-5.254502026364207">
        <ele>57.82</ele>
        <time>2023-08-23T09:16:51Z</time>
      </trkpt>
      <trkpt lat="58.119558021426201" lon="-5.254347966983914">
        <ele>56.369999999999997</ele>
        <time>2023-08-23T09:16:52Z</time>
      </trkpt>
      <trkpt lat="58.11961904168129" lon="-5.25418502278626">
        <ele>55.409999999999997</ele>
        <time>2023-08-23T09:16:53Z</time>
      </trkpt>
      <trkpt lat="58.119746027514338" lon="-5.253848992288113">
        <ele>52.530000000000001</ele>
        <time>2023-08-23T09:16:55Z</time>
      </trkpt>
      <trkpt lat="58.119819033890963" lon="-5.253711026161909">
        <ele>51.090000000000003</ele>
        <time>2023-08-23T09:16:56Z</time>
      </trkpt>
      <trkpt lat="58.119903020560741" lon="-5.25360700674355">
        <ele>49.649999999999999</ele>
        <time>2023-08-23T09:16:57Z</time>
      </trkpt>
      <trkpt lat="58.119980972260237" lon="-5.253509022295475">
        <ele>48.200000000000003</ele>
        <time>2023-08-23T09:16:58Z</time>
      </trkpt>
      <trkpt lat="58.120053978636861" lon="-5.253416988998652">
        <ele>47.240000000000002</ele>
        <time>2023-08-23T09:16:59Z</time>
      </trkpt>
      <trkpt lat="58.120119022205472" lon="-5.253336019814014">
        <ele>46.280000000000001</ele>
        <time>2023-08-23T09:17:00Z</time>
      </trkpt>
      <trkpt lat="58.120140982791781" lon="-5.253200987353921">
        <ele>44.840000000000003</ele>
        <time>2023-08-23T09:17:01Z</time>
      </trkpt>
      <trkpt lat="58.1201590038836" lon="-5.253066038712859">
        <ele>43.880000000000003</ele>
        <time>2023-08-23T09:17:02Z</time>
      </trkpt>
      <trkpt lat="58.12018096446991" lon="-5.252908039838076">
        <ele>42.920000000000002</ele>
        <time>2023-08-23T09:17:03Z</time>
      </trkpt>
      <trkpt lat="58.120203008875251" lon="-5.252749035134912">
        <ele>41.469999999999999</ele>
        <time>2023-08-23T09:17:04Z</time>
      </trkpt>
      <trkpt lat="58.120266040787101" lon="-5.252630012109876">
        <ele>40.509999999999998</ele>
        <time>2023-08-23T09:17:05Z</time>
      </trkpt>
      <trkpt lat="58.120336029678583" lon="-5.252533033490181">
        <ele>40.030000000000001</ele>
        <time>2023-08-23T09:17:06Z</time>
      </trkpt>
      <trkpt lat="58.120403001084924" lon="-5.252438988536596">
        <ele>39.07</ele>
        <time>2023-08-23T09:17:07Z</time>
      </trkpt>
      <trkpt lat="58.120468966662884" lon="-5.252347039058805">
        <ele>38.109999999999999</ele>
        <time>2023-08-23T09:17:08Z</time>
      </trkpt>
      <trkpt lat="58.120619002729654" lon="-5.252162972465158">
        <ele>35.229999999999997</ele>
        <time>2023-08-23T09:17:10Z</time>
      </trkpt>
      <trkpt lat="58.120856964960694" lon="-5.252006985247135">
        <ele>31.379999999999999</ele>
        <time>2023-08-23T09:17:13Z</time>
      </trkpt>
      <trkpt lat="58.120924020186067" lon="-5.251893997192383">
        <ele>29.940000000000001</ele>
        <time>2023-08-23T09:17:14Z</time>
      </trkpt>
      <trkpt lat="58.121114037930965" lon="-5.251572970300913">
        <ele>26.09</ele>
        <time>2023-08-23T09:17:17Z</time>
      </trkpt>
      <trkpt lat="58.121195007115602" lon="-5.251497030258179">
        <ele>24.649999999999999</ele>
        <time>2023-08-23T09:17:18Z</time>
      </trkpt>
      <trkpt lat="58.121431963518262" lon="-5.251464005559683">
        <ele>19.84</ele>
        <time>2023-08-23T09:17:22Z</time>
      </trkpt>
      <trkpt lat="58.121482003480196" lon="-5.251457970589399">
        <ele>18.879999999999999</ele>
        <time>2023-08-23T09:17:23Z</time>
      </trkpt>
      <trkpt lat="58.121528020128608" lon="-5.251452019438148">
        <ele>17.920000000000002</ele>
        <time>2023-08-23T09:17:24Z</time>
      </trkpt>
      <trkpt lat="58.121571019291878" lon="-5.251446990296245">
        <ele>16.960000000000001</ele>
        <time>2023-08-23T09:17:25Z</time>
      </trkpt>
      <trkpt lat="58.12159700319171" lon="-5.251607000827789">
        <ele>16.48</ele>
        <time>2023-08-23T09:17:26Z</time>
      </trkpt>
      <trkpt lat="58.121591974049807" lon="-5.251727029681206">
        <ele>15.52</ele>
        <time>2023-08-23T09:17:27Z</time>
      </trkpt>
      <trkpt lat="58.121586022898555" lon="-5.251858038827777">
        <ele>14.56</ele>
        <time>2023-08-23T09:17:28Z</time>
      </trkpt>
      <trkpt lat="58.121561966836452" lon="-5.25244896300137">
        <ele>11.67</ele>
        <time>2023-08-23T09:17:32Z</time>
      </trkpt>
      <trkpt lat="58.12155500985682" lon="-5.252615008503199">
        <ele>11.19</ele>
        <time>2023-08-23T09:17:33Z</time>
      </trkpt>
      <trkpt lat="58.121496001258492" lon="-5.254584001377225">
        <ele>6.87</ele>
        <time>2023-08-23T09:17:44Z</time>
      </trkpt>
      <trkpt lat="58.121496001258492" lon="-5.255271987989545">
        <ele>4.94</ele>
        <time>2023-08-23T09:17:48Z</time>
      </trkpt>
      <trkpt lat="58.121496001258492" lon="-5.25545597076416">
        <ele>4.46</ele>
        <time>2023-08-23T09:17:49Z</time>
      </trkpt>
      <trkpt lat="58.121522990986705" lon="-5.25558496825397">
        <ele>3.98</ele>
        <time>2023-08-23T09:17:50Z</time>
      </trkpt>
      <trkpt lat="58.121600020676851" lon="-5.255908006802201">
        <ele>2.54</ele>
        <time>2023-08-23T09:17:52Z</time>
      </trkpt>
      <trkpt lat="58.12166104093194" lon="-5.25605795904994">
        <ele>1.58</ele>
        <time>2023-08-23T09:17:53Z</time>
      </trkpt>
      <trkpt lat="58.121722983196378" lon="-5.256211012601852">
        <ele>1.1</ele>
        <time>2023-08-23T09:17:54Z</time>
      </trkpt>
      <trkpt lat="58.121781991794705" lon="-5.256357025355101">
        <ele>0.62</ele>
        <time>2023-08-23T09:17:55Z</time>
      </trkpt>
      <trkpt lat="58.121839994564652" lon="-5.256501026451588">
        <ele>0.14</ele>
        <time>2023-08-23T09:17:56Z</time>
      </trkpt>
      <trkpt lat="58.121952982619405" lon="-5.256991032510996">
        <ele>-1.79</ele>
        <time>2023-08-23T09:17:59Z</time>
      </trkpt>
      <trkpt lat="58.12198500148952" lon="-5.257146013900638">
        <ele>-2.27</ele>
        <time>2023-08-23T09:18:00Z</time>
      </trkpt>
      <trkpt lat="58.122017020359635" lon="-5.257295966148377">
        <ele>-2.75</ele>
        <time>2023-08-23T09:18:01Z</time>
      </trkpt>
      <trkpt lat="58.122053984552622" lon="-5.257482966408134">
        <ele>-3.23</ele>
        <time>2023-08-23T09:18:02Z</time>
      </trkpt>
      <trkpt lat="58.1220499612391" lon="-5.257656974717975">
        <ele>-3.23</ele>
        <time>2023-08-23T09:18:03Z</time>
      </trkpt>
      <trkpt lat="58.122046021744609" lon="-5.257832994684577">
        <ele>-3.23</ele>
        <time>2023-08-23T09:18:04Z</time>
      </trkpt>
      <trkpt lat="58.122041998431087" lon="-5.258009014651179">
        <ele>-3.71</ele>
        <time>2023-08-23T09:18:05Z</time>
      </trkpt>
      <trkpt lat="58.122037975117564" lon="-5.25818201713264">
        <ele>-3.71</ele>
        <time>2023-08-23T09:18:06Z</time>
      </trkpt>
      <trkpt lat="58.122067982330918" lon="-5.258724996820092">
        <ele>-4.67</ele>
        <time>2023-08-23T09:18:09Z</time>
      </trkpt>
      <trkpt lat="58.122067982330918" lon="-5.258724996820092">
        <ele>-5.15</ele>
        <time>2023-08-23T09:18:10Z</time>
      </trkpt>
      <trkpt lat="58.122139982879162" lon="-5.259513985365629">
        <ele>-6.11</ele>
        <time>2023-08-23T09:18:13Z</time>
      </trkpt>
      <trkpt lat="58.122139982879162" lon="-5.259700985625386">
        <ele>-6.59</ele>
        <time>2023-08-23T09:18:14Z</time>
      </trkpt>
      <trkpt lat="58.122139982879162" lon="-5.259874993935227">
        <ele>-6.59</ele>
        <time>2023-08-23T09:18:15Z</time>
      </trkpt>
      <trkpt lat="58.122139982879162" lon="-5.260199960321188">
        <ele>-7.07</ele>
        <time>2023-08-23T09:18:17Z</time>
      </trkpt>
      <trkpt lat="58.122139982879162" lon="-5.260357959195972">
        <ele>-7.07</ele>
        <time>2023-08-23T09:18:18Z</time>
      </trkpt>
      <trkpt lat="58.122139982879162" lon="-5.260499026626349">
        <ele>-7.07</ele>
        <time>2023-08-23T09:18:19Z</time>
      </trkpt>
      <trkpt lat="58.122178036719561" lon="-5.260924994945526">
        <ele>-5.63</ele>
        <time>2023-08-23T09:18:22Z</time>
      </trkpt>
      <trkpt lat="58.122241990640759" lon="-5.261172009631991">
        <ele>-4.67</ele>
        <time>2023-08-23T09:18:24Z</time>
      </trkpt>
      <trkpt lat="58.122375011444092" lon="-5.261672995984554">
        <ele>-4.19</ele>
        <time>2023-08-23T09:18:27Z</time>
      </trkpt>
      <trkpt lat="58.122436031699181" lon="-5.262042973190546">
        <ele>-4.19</ele>
        <time>2023-08-23T09:18:29Z</time>
      </trkpt>
      <trkpt lat="58.122741971164942" lon="-5.263878023251891">
        <ele>-3.23</ele>
        <time>2023-08-23T09:18:40Z</time>
      </trkpt>
      <trkpt lat="58.122800979763269" lon="-5.264049014076591">
        <ele>-3.23</ele>
        <time>2023-08-23T09:18:41Z</time>
      </trkpt>
      <trkpt lat="58.122858982533216" lon="-5.264125037938356">
        <ele>-2.75</ele>
        <time>2023-08-23T09:18:42Z</time>
      </trkpt>
      <trkpt lat="58.122970964759588" lon="-5.264151021838188">
        <ele>-2.75</ele>
        <time>2023-08-23T09:18:43Z</time>
      </trkpt>
      <trkpt lat="58.123052017763257" lon="-5.264133000746369">
        <ele>-2.75</ele>
        <time>2023-08-23T09:18:44Z</time>
      </trkpt>
      <trkpt lat="58.123139021918178" lon="-5.264114979654551">
        <ele>-2.27</ele>
        <time>2023-08-23T09:18:45Z</time>
      </trkpt>
      <trkpt lat="58.124226992949843" lon="-5.264056976884604">
        <ele>5.42</ele>
        <time>2023-08-23T09:18:56Z</time>
      </trkpt>
      <trkpt lat="58.12527297064662" lon="-5.264542037621141">
        <ele>9.27</ele>
        <time>2023-08-23T09:19:07Z</time>
      </trkpt>
      <trkpt lat="58.125771023333073" lon="-5.265028020367026">
        <ele>9.27</ele>
        <time>2023-08-23T09:19:13Z</time>
      </trkpt>
      <trkpt lat="58.125841012224555" lon="-5.265136985108256">
        <ele>9.27</ele>
        <time>2023-08-23T09:19:14Z</time>
      </trkpt>
      <trkpt lat="58.125978978350759" lon="-5.265351980924606">
        <ele>9.75</ele>
        <time>2023-08-23T09:19:16Z</time>
      </trkpt>
      <trkpt lat="58.126051984727383" lon="-5.265463963150978">
        <ele>10.23</ele>
        <time>2023-08-23T09:19:17Z</time>
      </trkpt>
      <trkpt lat="58.126134965568781" lon="-5.265535963699222">
        <ele>10.710000000000001</ele>
        <time>2023-08-23T09:19:18Z</time>
      </trkpt>
      <trkpt lat="58.126220041885972" lon="-5.265565970912576">
        <ele>11.19</ele>
        <time>2023-08-23T09:19:19Z</time>
      </trkpt>
      <trkpt lat="58.12630201689899" lon="-5.265594972297549">
        <ele>11.67</ele>
        <time>2023-08-23T09:19:20Z</time>
      </trkpt>
      <trkpt lat="58.126382986083627" lon="-5.265623973682523">
        <ele>12.630000000000001</ele>
        <time>2023-08-23T09:19:21Z</time>
      </trkpt>
      <trkpt lat="58.126459009945393" lon="-5.265645012259483">
        <ele>13.119999999999999</ele>
        <time>2023-08-23T09:19:22Z</time>
      </trkpt>
      <trkpt lat="58.126537967473269" lon="-5.265608970075846">
        <ele>14.08</ele>
        <time>2023-08-23T09:19:23Z</time>
      </trkpt>
      <trkpt lat="58.126616002991796" lon="-5.26557301171124">
        <ele>15.039999999999999</ele>
        <time>2023-08-23T09:19:24Z</time>
      </trkpt>
      <trkpt lat="58.126694960519671" lon="-5.265536969527602">
        <ele>16</ele>
        <time>2023-08-23T09:19:25Z</time>
      </trkpt>
      <trkpt lat="58.126952033489943" lon="-5.265327002853155">
        <ele>19.84</ele>
        <time>2023-08-23T09:19:28Z</time>
      </trkpt>
      <trkpt lat="58.127074996009469" lon="-5.265218960121274">
        <ele>21.289999999999999</ele>
        <time>2023-08-23T09:19:29Z</time>
      </trkpt>
      <trkpt lat="58.127130987122655" lon="-5.265098009258509">
        <ele>22.25</ele>
        <time>2023-08-23T09:19:30Z</time>
      </trkpt>
      <trkpt lat="58.127203993499279" lon="-5.264940010383725">
        <ele>23.690000000000001</ele>
        <time>2023-08-23T09:19:31Z</time>
      </trkpt>
      <trkpt lat="58.127265013754368" lon="-5.264730965718627">
        <ele>25.609999999999999</ele>
        <time>2023-08-23T09:19:32Z</time>
      </trkpt>
      <trkpt lat="58.127325028181076" lon="-5.264526028186083">
        <ele>27.050000000000001</ele>
        <time>2023-08-23T09:19:33Z</time>
      </trkpt>
      <trkpt lat="58.12804302200675" lon="-5.262574972584844">
        <ele>41.469999999999999</ele>
        <time>2023-08-23T09:19:44Z</time>
      </trkpt>
      <trkpt lat="58.128521963953972" lon="-5.261896038427949">
        <ele>43.880000000000003</ele>
        <time>2023-08-23T09:19:49Z</time>
      </trkpt>
      <trkpt lat="58.128822958096862" lon="-5.261521032080054">
        <ele>44.840000000000003</ele>
        <time>2023-08-23T09:19:52Z</time>
      </trkpt>
      <trkpt lat="58.128910968080163" lon="-5.261410977691412">
        <ele>45.32</ele>
        <time>2023-08-23T09:19:53Z</time>
      </trkpt>
      <trkpt lat="58.128962013870478" lon="-5.2612320240587">
        <ele>45.799999999999997</ele>
        <time>2023-08-23T09:19:54Z</time>
      </trkpt>
      <trkpt lat="58.12900903634727" lon="-5.261046029627323">
        <ele>46.759999999999998</ele>
        <time>2023-08-23T09:19:55Z</time>
      </trkpt>
      <trkpt lat="58.129055975005031" lon="-5.260857017710805">
        <ele>47.240000000000002</ele>
        <time>2023-08-23T09:19:56Z</time>
      </trkpt>
      <trkpt lat="58.129104003310204" lon="-5.260666999965906">
        <ele>48.200000000000003</ele>
        <time>2023-08-23T09:19:57Z</time>
      </trkpt>
      <trkpt lat="58.129651006311178" lon="-5.258918032050133">
        <ele>56.369999999999997</ele>
        <time>2023-08-23T09:20:07Z</time>
      </trkpt>
      <trkpt lat="58.130507972091436" lon="-5.2566799800843">
        <ele>60.219999999999999</ele>
        <time>2023-08-23T09:20:21Z</time>
      </trkpt>
      <trkpt lat="58.130589025095105" lon="-5.256615020334721">
        <ele>59.740000000000002</ele>
        <time>2023-08-23T09:20:22Z</time>
      </trkpt>
      <trkpt lat="58.130615008994937" lon="-5.25659297592938">
        <ele>58.780000000000001</ele>
        <time>2023-08-23T09:20:23Z</time>
      </trkpt>
      <trkpt lat="58.130692960694432" lon="-5.256648967042565">
        <ele>58.299999999999997</ele>
        <time>2023-08-23T09:20:24Z</time>
      </trkpt>
      <trkpt lat="58.13075297512114" lon="-5.256692972034216">
        <ele>57.82</ele>
        <time>2023-08-23T09:20:25Z</time>
      </trkpt>
      <trkpt lat="58.130850959569216" lon="-5.256764972582459">
        <ele>56.859999999999999</ele>
        <time>2023-08-23T09:20:26Z</time>
      </trkpt>
      <trkpt lat="58.130882978439331" lon="-5.256835967302322">
        <ele>56.369999999999997</ele>
        <time>2023-08-23T09:20:27Z</time>
      </trkpt>
      <trkpt lat="58.130947016179562" lon="-5.256978962570429">
        <ele>55.890000000000001</ele>
        <time>2023-08-23T09:20:28Z</time>
      </trkpt>
      <trkpt lat="58.131015999242663" lon="-5.257134027779102">
        <ele>55.890000000000001</ele>
        <time>2023-08-23T09:20:29Z</time>
      </trkpt>
      <trkpt lat="58.131729969754815" lon="-5.258631035685539">
        <ele>54.450000000000003</ele>
        <time>2023-08-23T09:20:38Z</time>
      </trkpt>
      <trkpt lat="58.131819991394877" lon="-5.258771013468504">
        <ele>54.450000000000003</ele>
        <time>2023-08-23T09:20:39Z</time>
      </trkpt>
      <trkpt lat="58.131943959742785" lon="-5.258880984038115">
        <ele>53.969999999999999</ele>
        <time>2023-08-23T09:20:40Z</time>
      </trkpt>
      <trkpt lat="58.132066000252962" lon="-5.258907973766327">
        <ele>53.490000000000002</ele>
        <time>2023-08-23T09:20:41Z</time>
      </trkpt>
      <trkpt lat="58.132192986086011" lon="-5.25893596932292">
        <ele>53.490000000000002</ele>
        <time>2023-08-23T09:20:42Z</time>
      </trkpt>
      <trkpt lat="58.132773013785481" lon="-5.259076030924916">
        <ele>52.530000000000001</ele>
        <time>2023-08-23T09:20:47Z</time>
      </trkpt>
      <trkpt lat="58.13285700045526" lon="-5.259183989837766">
        <ele>52.530000000000001</ele>
        <time>2023-08-23T09:20:48Z</time>
      </trkpt>
      <trkpt lat="58.132945010438561" lon="-5.259296977892518">
        <ele>52.530000000000001</ele>
        <time>2023-08-23T09:20:49Z</time>
      </trkpt>
      <trkpt lat="58.133033020421863" lon="-5.259410971775651">
        <ele>52.530000000000001</ele>
        <time>2023-08-23T09:20:50Z</time>
      </trkpt>
      <trkpt lat="58.133116001263261" lon="-5.259537035599351">
        <ele>52.530000000000001</ele>
        <time>2023-08-23T09:20:51Z</time>
      </trkpt>
      <trkpt lat="58.133197976276278" lon="-5.259670978412032">
        <ele>53.009999999999998</ele>
        <time>2023-08-23T09:20:52Z</time>
      </trkpt>
      <trkpt lat="58.133798036724329" lon="-5.26065300218761">
        <ele>51.57</ele>
        <time>2023-08-23T09:21:01Z</time>
      </trkpt>
      <trkpt lat="58.133907001465559" lon="-5.260832961648703">
        <ele>51.090000000000003</ele>
        <time>2023-08-23T09:21:07Z</time>
      </trkpt>
      <trkpt lat="58.134086960926652" lon="-5.261153988540173">
        <ele>50.609999999999999</ele>
        <time>2023-08-23T09:21:16Z</time>
      </trkpt>
      <trkpt lat="58.134131971746683" lon="-5.261295977979899">
        <ele>50.130000000000003</ele>
        <time>2023-08-23T09:21:17Z</time>
      </trkpt>
      <trkpt lat="58.134175976738334" lon="-5.261435033753514">
        <ele>50.130000000000003</ele>
        <time>2023-08-23T09:21:18Z</time>
      </trkpt>
      <trkpt lat="58.134213024750352" lon="-5.26159898377955">
        <ele>49.649999999999999</ele>
        <time>2023-08-23T09:21:19Z</time>
      </trkpt>
      <trkpt lat="58.134281001985073" lon="-5.26202604174614">
        <ele>48.200000000000003</ele>
        <time>2023-08-23T09:21:22Z</time>
      </trkpt>
      <trkpt lat="58.134300028905272" lon="-5.262147998437285">
        <ele>47.719999999999999</ele>
        <time>2023-08-23T09:21:23Z</time>
      </trkpt>
      <trkpt lat="58.134328024461865" lon="-5.262322006747127">
        <ele>47.240000000000002</ele>
        <time>2023-08-23T09:21:24Z</time>
      </trkpt>
      <trkpt lat="58.134397007524967" lon="-5.262366011738777">
        <ele>46.759999999999998</ele>
        <time>2023-08-23T09:21:25Z</time>
      </trkpt>
      <trkpt lat="58.134486023336649" lon="-5.262424014508724">
        <ele>46.280000000000001</ele>
        <time>2023-08-23T09:21:26Z</time>
      </trkpt>
      <trkpt lat="58.134578978642821" lon="-5.262483023107052">
        <ele>45.799999999999997</ele>
        <time>2023-08-23T09:21:27Z</time>
      </trkpt>
      <trkpt lat="58.134758016094565" lon="-5.262598022818565">
        <ele>44.840000000000003</ele>
        <time>2023-08-23T09:21:29Z</time>
      </trkpt>
      <trkpt lat="58.134863963350654" lon="-5.262666000053287">
        <ele>44.359999999999999</ele>
        <time>2023-08-23T09:21:30Z</time>
      </trkpt>
      <trkpt lat="58.134954990819097" lon="-5.262636998668313">
        <ele>43.399999999999999</ele>
        <time>2023-08-23T09:21:31Z</time>
      </trkpt>
      <trkpt lat="58.135050041601062" lon="-5.262606991454959">
        <ele>42.920000000000002</ele>
        <time>2023-08-23T09:21:32Z</time>
      </trkpt>
      <trkpt lat="58.135141991078854" lon="-5.262577990069985">
        <ele>42.439999999999998</ele>
        <time>2023-08-23T09:21:33Z</time>
      </trkpt>
      <trkpt lat="58.136131977662444" lon="-5.262169959023595">
        <ele>41.950000000000003</ele>
        <time>2023-08-23T09:21:44Z</time>
      </trkpt>
      <trkpt lat="58.136205989867449" lon="-5.262084966525435">
        <ele>41.950000000000003</ele>
        <time>2023-08-23T09:21:45Z</time>
      </trkpt>
      <trkpt lat="58.136288970708847" lon="-5.261976001784205">
        <ele>41.950000000000003</ele>
        <time>2023-08-23T09:21:46Z</time>
      </trkpt>
      <trkpt lat="58.136345967650414" lon="-5.261821020394564">
        <ele>41.950000000000003</ele>
        <time>2023-08-23T09:21:47Z</time>
      </trkpt>
      <trkpt lat="58.136406987905502" lon="-5.261651035398245">
        <ele>41.469999999999999</ele>
        <time>2023-08-23T09:21:48Z</time>
      </trkpt>
      <trkpt lat="58.136685015633702" lon="-5.261062039062381">
        <ele>38.590000000000003</ele>
        <time>2023-08-23T09:21:52Z</time>
      </trkpt>
      <trkpt lat="58.136724997311831" lon="-5.260878978297114">
        <ele>38.109999999999999</ele>
        <time>2023-08-23T09:21:53Z</time>
      </trkpt>
      <trkpt lat="58.136863969266415" lon="-5.26032904163003">
        <ele>36.670000000000002</ele>
        <time>2023-08-23T09:21:56Z</time>
      </trkpt>
      <trkpt lat="58.137119030579925" lon="-5.259220032021403">
        <ele>32.340000000000003</ele>
        <time>2023-08-23T09:22:03Z</time>
      </trkpt>
      <trkpt lat="58.137136967852712" lon="-5.259095979854465">
        <ele>31.379999999999999</ele>
        <time>2023-08-23T09:22:04Z</time>
      </trkpt>
      <trkpt lat="58.137149037793279" lon="-5.25902003981173">
        <ele>30.420000000000002</ele>
        <time>2023-08-23T09:22:05Z</time>
      </trkpt>
      <trkpt lat="58.137190025299788" lon="-5.258743017911911">
        <ele>27.530000000000001</ele>
        <time>2023-08-23T09:22:08Z</time>
      </trkpt>
      <trkpt lat="58.137203017249703" lon="-5.258262986317277">
        <ele>24.649999999999999</ele>
        <time>2023-08-23T09:22:11Z</time>
      </trkpt>
      <trkpt lat="58.137203017249703" lon="-5.258074980229139">
        <ele>24.170000000000002</ele>
        <time>2023-08-23T09:22:12Z</time>
      </trkpt>
      <trkpt lat="58.137150965631008" lon="-5.257721012458205">
        <ele>23.210000000000001</ele>
        <time>2023-08-23T09:22:14Z</time>
      </trkpt>
      <trkpt lat="58.137095980346203" lon="-5.257341982796788">
        <ele>22.73</ele>
        <time>2023-08-23T09:22:16Z</time>
      </trkpt>
      <trkpt lat="58.137055998668075" lon="-5.257137967273593">
        <ele>22.25</ele>
        <time>2023-08-23T09:22:17Z</time>
      </trkpt>
      <trkpt lat="58.136996990069747" lon="-5.2569580078125">
        <ele>22.25</ele>
        <time>2023-08-23T09:22:18Z</time>
      </trkpt>
      <trkpt lat="58.136881990358233" lon="-5.256610997021198">
        <ele>21.77</ele>
        <time>2023-08-23T09:22:20Z</time>
      </trkpt>
      <trkpt lat="58.136568004265428" lon="-5.255655040964484">
        <ele>20.32</ele>
        <time>2023-08-23T09:22:26Z</time>
      </trkpt>
      <trkpt lat="58.136513018980622" lon="-5.255481032654643">
        <ele>20.32</ele>
        <time>2023-08-23T09:22:27Z</time>
      </trkpt>
      <trkpt lat="58.136435989290476" lon="-5.254920031875372">
        <ele>19.359999999999999</ele>
        <time>2023-08-23T09:22:30Z</time>
      </trkpt>
      <trkpt lat="58.136424003168941" lon="-5.254733031615615">
        <ele>18.879999999999999</ele>
        <time>2023-08-23T09:22:31Z</time>
      </trkpt>
      <trkpt lat="58.136386033147573" lon="-5.254169013351202">
        <ele>18.879999999999999</ele>
        <time>2023-08-23T09:22:34Z</time>
      </trkpt>
      <trkpt lat="58.136373963207006" lon="-5.253981007263064">
        <ele>18.879999999999999</ele>
        <time>2023-08-23T09:22:35Z</time>
      </trkpt>
      <trkpt lat="58.136350996792316" lon="-5.253795012831688">
        <ele>18.879999999999999</ele>
        <time>2023-08-23T09:22:36Z</time>
      </trkpt>
      <trkpt lat="58.13631403259933" lon="-5.253613963723183">
        <ele>19.359999999999999</ele>
        <time>2023-08-23T09:22:37Z</time>
      </trkpt>
      <trkpt lat="58.136277990415692" lon="-5.253437021747232">
        <ele>19.359999999999999</ele>
        <time>2023-08-23T09:22:38Z</time>
      </trkpt>
      <trkpt lat="58.136245971545577" lon="-5.253283968195319">
        <ele>19.359999999999999</ele>
        <time>2023-08-23T09:22:39Z</time>
      </trkpt>
      <trkpt lat="58.136219987645745" lon="-5.253153964877129">
        <ele>19.359999999999999</ele>
        <time>2023-08-23T09:22:40Z</time>
      </trkpt>
      <trkpt lat="58.136196015402675" lon="-5.253017004579306">
        <ele>19.84</ele>
        <time>2023-08-23T09:22:41Z</time>
      </trkpt>
      <trkpt lat="58.13620800152421" lon="-5.252871997654438">
        <ele>20.32</ele>
        <time>2023-08-23T09:22:42Z</time>
      </trkpt>
      <trkpt lat="58.136223005130887" lon="-5.252698995172977">
        <ele>20.809999999999999</ele>
        <time>2023-08-23T09:22:43Z</time>
      </trkpt>
      <trkpt lat="58.136239014565945" lon="-5.252522975206375">
        <ele>21.77</ele>
        <time>2023-08-23T09:22:44Z</time>
      </trkpt>
      <trkpt lat="58.136256029829383" lon="-5.252341004088521">
        <ele>22.73</ele>
        <time>2023-08-23T09:22:45Z</time>
      </trkpt>
      <trkpt lat="58.13627396710217" lon="-5.252156015485525">
        <ele>23.690000000000001</ele>
        <time>2023-08-23T09:22:46Z</time>
      </trkpt>
      <trkpt lat="58.136298023164272" lon="-5.251770028844476">
        <ele>25.129999999999999</ele>
        <time>2023-08-23T09:22:48Z</time>
      </trkpt>
      <trkpt lat="58.136260975152254" lon="-5.250000022351742">
        <ele>30.899999999999999</ele>
        <time>2023-08-23T09:22:57Z</time>
      </trkpt>
      <trkpt lat="58.136283019557595" lon="-5.249647982418537">
        <ele>31.379999999999999</ele>
        <time>2023-08-23T09:22:59Z</time>
      </trkpt>
      <trkpt lat="58.136296011507511" lon="-5.249485960230231">
        <ele>31.859999999999999</ele>
        <time>2023-08-23T09:23:00Z</time>
      </trkpt>
      <trkpt lat="58.136306991800666" lon="-5.249342964962125">
        <ele>32.340000000000003</ele>
        <time>2023-08-23T09:23:01Z</time>
      </trkpt>
      <trkpt lat="58.136321995407343" lon="-5.249168034642935">
        <ele>32.82</ele>
        <time>2023-08-23T09:23:02Z</time>
      </trkpt>
      <trkpt lat="58.136405982077122" lon="-5.24898799136281">
        <ele>32.82</ele>
        <time>2023-08-23T09:23:03Z</time>
      </trkpt>
      <trkpt lat="58.136482005938888" lon="-5.248840972781181">
        <ele>32.82</ele>
        <time>2023-08-23T09:23:04Z</time>
      </trkpt>
      <trkpt lat="58.136554006487131" lon="-5.248700994998217">
        <ele>33.299999999999997</ele>
        <time>2023-08-23T09:23:05Z</time>
      </trkpt>
      <trkpt lat="58.136621983721852" lon="-5.248569985851646">
        <ele>33.299999999999997</ele>
        <time>2023-08-23T09:23:06Z</time>
      </trkpt>
      <trkpt lat="58.136691972613335" lon="-5.248435037210584">
        <ele>33.780000000000001</ele>
        <time>2023-08-23T09:23:07Z</time>
      </trkpt>
      <trkpt lat="58.136758022010326" lon="-5.248306961730123">
        <ele>34.259999999999998</ele>
        <time>2023-08-23T09:23:08Z</time>
      </trkpt>
      <trkpt lat="58.136823987588286" lon="-5.248178970068693">
        <ele>34.740000000000002</ele>
        <time>2023-08-23T09:23:09Z</time>
      </trkpt>
      <trkpt lat="58.137524966150522" lon="-5.246822023764253">
        <ele>41.469999999999999</ele>
        <time>2023-08-23T09:23:19Z</time>
      </trkpt>
      <trkpt lat="58.137599984183908" lon="-5.246677016839385">
        <ele>42.439999999999998</ele>
        <time>2023-08-23T09:23:20Z</time>
      </trkpt>
      <trkpt lat="58.138300040736794" lon="-5.24473300203681">
        <ele>49.649999999999999</ele>
        <time>2023-08-23T09:23:30Z</time>
      </trkpt>
      <trkpt lat="58.138976963236928" lon="-5.242827041074634">
        <ele>61.18</ele>
        <time>2023-08-23T09:23:40Z</time>
      </trkpt>
      <trkpt lat="58.139370996505022" lon="-5.241718031466007">
        <ele>67.430000000000007</ele>
        <time>2023-08-23T09:23:48Z</time>
      </trkpt>
      <trkpt lat="58.139436962082982" lon="-5.241460958495736">
        <ele>66.469999999999999</ele>
        <time>2023-08-23T09:23:50Z</time>
      </trkpt>
      <trkpt lat="58.139444002881646" lon="-5.241287034004927">
        <ele>65.510000000000005</ele>
        <time>2023-08-23T09:23:51Z</time>
      </trkpt>
      <trkpt lat="58.139418018981814" lon="-5.24114697240293">
        <ele>65.030000000000001</ele>
        <time>2023-08-23T09:23:52Z</time>
      </trkpt>
      <trkpt lat="58.139379965141416" lon="-5.241008000448346">
        <ele>64.069999999999993</ele>
        <time>2023-08-23T09:23:53Z</time>
      </trkpt>
      <trkpt lat="58.139340989291668" lon="-5.240869028493762">
        <ele>63.100000000000001</ele>
        <time>2023-08-23T09:23:54Z</time>
      </trkpt>
      <trkpt lat="58.13930201344192" lon="-5.240727039054036">
        <ele>61.659999999999997</ele>
        <time>2023-08-23T09:23:55Z</time>
      </trkpt>
      <trkpt lat="58.139264965429902" lon="-5.240589994937182">
        <ele>60.700000000000003</ele>
        <time>2023-08-23T09:23:56Z</time>
      </trkpt>
      <trkpt lat="58.139228001236916" lon="-5.240456974133849">
        <ele>59.259999999999998</ele>
        <time>2023-08-23T09:23:57Z</time>
      </trkpt>
      <trkpt lat="58.139198999851942" lon="-5.24032898247242">
        <ele>57.82</ele>
        <time>2023-08-23T09:23:58Z</time>
      </trkpt>
      <trkpt lat="58.139198999851942" lon="-5.240185987204313">
        <ele>56.859999999999999</ele>
        <time>2023-08-23T09:23:59Z</time>
      </trkpt>
      <trkpt lat="58.139212997630239" lon="-5.240042991936207">
        <ele>55.409999999999997</ele>
        <time>2023-08-23T09:24:00Z</time>
      </trkpt>
      <trkpt lat="58.139273012056947" lon="-5.239932015538216">
        <ele>54.450000000000003</ele>
        <time>2023-08-23T09:24:01Z</time>
      </trkpt>
      <trkpt lat="58.139346018433571" lon="-5.239907037466765">
        <ele>53.490000000000002</ele>
        <time>2023-08-23T09:24:02Z</time>
      </trkpt>
      <trkpt lat="58.139421036466956" lon="-5.239881975576282">
        <ele>53.009999999999998</ele>
        <time>2023-08-23T09:24:03Z</time>
      </trkpt>
      <trkpt lat="58.139487002044916" lon="-5.239918017759919">
        <ele>52.049999999999997</ele>
        <time>2023-08-23T09:24:04Z</time>
      </trkpt>
      <trkpt lat="58.139568977057934" lon="-5.239981971681118">
        <ele>51.090000000000003</ele>
        <time>2023-08-23T09:24:05Z</time>
      </trkpt>
      <trkpt lat="58.139657992869616" lon="-5.240051038563252">
        <ele>50.609999999999999</ele>
        <time>2023-08-23T09:24:06Z</time>
      </trkpt>
      <trkpt lat="58.139750026166439" lon="-5.240123039111495">
        <ele>49.649999999999999</ele>
        <time>2023-08-23T09:24:07Z</time>
      </trkpt>
      <trkpt lat="58.13992696814239" lon="-5.240261005237699">
        <ele>48.200000000000003</ele>
        <time>2023-08-23T09:24:09Z</time>
      </trkpt>
      <trkpt lat="58.140013972297311" lon="-5.240327976644039">
        <ele>47.240000000000002</ele>
        <time>2023-08-23T09:24:10Z</time>
      </trkpt>
      <trkpt lat="58.140101982280612" lon="-5.240312973037362">
        <ele>46.280000000000001</ele>
        <time>2023-08-23T09:24:11Z</time>
      </trkpt>
      <trkpt lat="58.140193009749055" lon="-5.240296963602305">
        <ele>44.840000000000003</ele>
        <time>2023-08-23T09:24:12Z</time>
      </trkpt>
      <trkpt lat="58.140275990590453" lon="-5.240281959995627">
        <ele>43.880000000000003</ele>
        <time>2023-08-23T09:24:13Z</time>
      </trkpt>
      <trkpt lat="58.140379004180431" lon="-5.24026402272284">
        <ele>42.920000000000002</ele>
        <time>2023-08-23T09:24:14Z</time>
      </trkpt>
      <trkpt lat="58.140425020828843" lon="-5.240341974422336">
        <ele>41.469999999999999</ele>
        <time>2023-08-23T09:24:15Z</time>
      </trkpt>
      <trkpt lat="58.140463996678591" lon="-5.240495027974248">
        <ele>40.509999999999998</ele>
        <time>2023-08-23T09:24:16Z</time>
      </trkpt>
      <trkpt lat="58.140487968921661" lon="-5.240641040727496">
        <ele>39.549999999999997</ele>
        <time>2023-08-23T09:24:17Z</time>
      </trkpt>
      <trkpt lat="58.140514036640525" lon="-5.24079903960228">
        <ele>38.109999999999999</ele>
        <time>2023-08-23T09:24:18Z</time>
      </trkpt>
      <trkpt lat="58.140541026368737" lon="-5.240957960486412">
        <ele>37.149999999999999</ele>
        <time>2023-08-23T09:24:19Z</time>
      </trkpt>
      <trkpt lat="58.140566004440188" lon="-5.241110008209944">
        <ele>35.710000000000001</ele>
        <time>2023-08-23T09:24:20Z</time>
      </trkpt>
      <trkpt lat="58.140621995553374" lon="-5.241226013749838">
        <ele>34.740000000000002</ele>
        <time>2023-08-23T09:24:21Z</time>
      </trkpt>
      <trkpt lat="58.140673963353038" lon="-5.241308994591236">
        <ele>33.299999999999997</ele>
        <time>2023-08-23T09:24:22Z</time>
      </trkpt>
      <trkpt lat="58.140748981386423" lon="-5.241422988474369">
        <ele>32.340000000000003</ele>
        <time>2023-08-23T09:24:23Z</time>
      </trkpt>
      <trkpt lat="58.14084897749126" lon="-5.241329027339816">
        <ele>30.899999999999999</ele>
        <time>2023-08-23T09:24:24Z</time>
      </trkpt>
      <trkpt lat="58.140888037160039" lon="-5.241242023184896">
        <ele>29.940000000000001</ele>
        <time>2023-08-23T09:24:25Z</time>
      </trkpt>
      <trkpt lat="58.140933969989419" lon="-5.241138003766537">
        <ele>28.98</ele>
        <time>2023-08-23T09:24:26Z</time>
      </trkpt>
      <trkpt lat="58.140989039093256" lon="-5.240971958264709">
        <ele>28.02</ele>
        <time>2023-08-23T09:24:27Z</time>
      </trkpt>
      <trkpt lat="58.141015022993088" lon="-5.240797027945519">
        <ele>27.530000000000001</ele>
        <time>2023-08-23T09:24:28Z</time>
      </trkpt>
      <trkpt lat="58.14104100689292" lon="-5.240616984665394">
        <ele>27.530000000000001</ele>
        <time>2023-08-23T09:24:29Z</time>
      </trkpt>
      <trkpt lat="58.141069002449512" lon="-5.240424033254385">
        <ele>28.02</ele>
        <time>2023-08-23T09:24:30Z</time>
      </trkpt>
      <trkpt lat="58.141099009662867" lon="-5.24022102355957">
        <ele>27.530000000000001</ele>
        <time>2023-08-23T09:24:31Z</time>
      </trkpt>
      <trkpt lat="58.141129016876221" lon="-5.240014996379614">
        <ele>27.050000000000001</ele>
        <time>2023-08-23T09:24:32Z</time>
      </trkpt>
      <trkpt lat="58.141162041574717" lon="-5.2397929597646">
        <ele>26.57</ele>
        <time>2023-08-23T09:24:33Z</time>
      </trkpt>
      <trkpt lat="58.14123596996069" lon="-5.239351987838745">
        <ele>26.09</ele>
        <time>2023-08-23T09:24:35Z</time>
      </trkpt>
      <trkpt lat="58.141287015751004" lon="-5.239159958437085">
        <ele>26.09</ele>
        <time>2023-08-23T09:24:36Z</time>
      </trkpt>
      <trkpt lat="58.141373014077544" lon="-5.238986033946276">
        <ele>25.609999999999999</ele>
        <time>2023-08-23T09:24:37Z</time>
      </trkpt>
      <trkpt lat="58.141448032110929" lon="-5.238860975950956">
        <ele>25.609999999999999</ele>
        <time>2023-08-23T09:24:38Z</time>
      </trkpt>
      <trkpt lat="58.141518021002412" lon="-5.238743964582682">
        <ele>26.09</ele>
        <time>2023-08-23T09:24:39Z</time>
      </trkpt>
      <trkpt lat="58.1416239682585" lon="-5.238634999841452">
        <ele>26.09</ele>
        <time>2023-08-23T09:24:40Z</time>
      </trkpt>
      <trkpt lat="58.14170896075666" lon="-5.238581020385027">
        <ele>26.57</ele>
        <time>2023-08-23T09:24:41Z</time>
      </trkpt>
      <trkpt lat="58.1417949590832" lon="-5.238526035100222">
        <ele>26.09</ele>
        <time>2023-08-23T09:24:42Z</time>
      </trkpt>
      <trkpt lat="58.141829995438457" lon="-5.238377004861832">
        <ele>26.09</ele>
        <time>2023-08-23T09:24:43Z</time>
      </trkpt>
      <trkpt lat="58.141868971288204" lon="-5.238211965188384">
        <ele>26.09</ele>
        <time>2023-08-23T09:24:44Z</time>
      </trkpt>
      <trkpt lat="58.141909036785364" lon="-5.238044997677207">
        <ele>26.57</ele>
        <time>2023-08-23T09:24:45Z</time>
      </trkpt>
      <trkpt lat="58.141992017626762" lon="-5.237702010199428">
        <ele>27.050000000000001</ele>
        <time>2023-08-23T09:24:47Z</time>
      </trkpt>
      <trkpt lat="58.142064018175006" lon="-5.237558009102941">
        <ele>27.530000000000001</ele>
        <time>2023-08-23T09:24:48Z</time>
      </trkpt>
      <trkpt lat="58.142226040363312" lon="-5.237266989424825">
        <ele>28.02</ele>
        <time>2023-08-23T09:24:50Z</time>
      </trkpt>
      <trkpt lat="58.142311032861471" lon="-5.237115025520325">
        <ele>28.5</ele>
        <time>2023-08-23T09:24:51Z</time>
      </trkpt>
      <trkpt lat="58.142398959025741" lon="-5.23697798140347">
        <ele>28.5</ele>
        <time>2023-08-23T09:24:52Z</time>
      </trkpt>
      <trkpt lat="58.142508007586002" lon="-5.236914027482271">
        <ele>28.5</ele>
        <time>2023-08-23T09:24:53Z</time>
      </trkpt>
      <trkpt lat="58.142602974548936" lon="-5.236908998340368">
        <ele>28.98</ele>
        <time>2023-08-23T09:24:54Z</time>
      </trkpt>
      <trkpt lat="58.142704982310534" lon="-5.236902963370085">
        <ele>29.460000000000001</ele>
        <time>2023-08-23T09:24:55Z</time>
      </trkpt>
      <trkpt lat="58.142814030870795" lon="-5.236897012218833">
        <ele>29.940000000000001</ele>
        <time>2023-08-23T09:24:56Z</time>
      </trkpt>
      <trkpt lat="58.142930958420038" lon="-5.236915033310652">
        <ele>29.940000000000001</ele>
        <time>2023-08-23T09:24:57Z</time>
      </trkpt>
      <trkpt lat="58.143048975616693" lon="-5.236943028867245">
        <ele>30.420000000000002</ele>
        <time>2023-08-23T09:24:58Z</time>
      </trkpt>
      <trkpt lat="58.143164981156588" lon="-5.236970018595457">
        <ele>30.420000000000002</ele>
        <time>2023-08-23T09:24:59Z</time>
      </trkpt>
      <trkpt lat="58.143822038546205" lon="-5.237204041332007">
        <ele>32.82</ele>
        <time>2023-08-23T09:25:05Z</time>
      </trkpt>
      <trkpt lat="58.143928991630673" lon="-5.237263971939683">
        <ele>32.82</ele>
        <time>2023-08-23T09:25:06Z</time>
      </trkpt>
      <trkpt lat="58.144032005220652" lon="-5.23732197470963">
        <ele>32.82</ele>
        <time>2023-08-23T09:25:07Z</time>
      </trkpt>
      <trkpt lat="58.144124038517475" lon="-5.237380983307958">
        <ele>32.340000000000003</ele>
        <time>2023-08-23T09:25:08Z</time>
      </trkpt>
      <trkpt lat="58.144192015752196" lon="-5.237462958320975">
        <ele>32.340000000000003</ele>
        <time>2023-08-23T09:25:09Z</time>
      </trkpt>
      <trkpt lat="58.144251024350524" lon="-5.237549040466547">
        <ele>31.859999999999999</ele>
        <time>2023-08-23T09:25:10Z</time>
      </trkpt>
      <trkpt lat="58.144299974665046" lon="-5.237688012421131">
        <ele>32.340000000000003</ele>
        <time>2023-08-23T09:25:11Z</time>
      </trkpt>
      <trkpt lat="58.144334005191922" lon="-5.237856991589069">
        <ele>32.340000000000003</ele>
        <time>2023-08-23T09:25:12Z</time>
      </trkpt>
      <trkpt lat="58.144553024321795" lon="-5.238780006766319">
        <ele>29.940000000000001</ele>
        <time>2023-08-23T09:25:17Z</time>
      </trkpt>
      <trkpt lat="58.144610021263361" lon="-5.238923002034426">
        <ele>28.98</ele>
        <time>2023-08-23T09:25:18Z</time>
      </trkpt>
      <trkpt lat="58.144658971577883" lon="-5.239031966775656">
        <ele>28.5</ele>
        <time>2023-08-23T09:25:19Z</time>
      </trkpt>
      <trkpt lat="58.144756034016609" lon="-5.23914797231555">
        <ele>28.02</ele>
        <time>2023-08-23T09:25:20Z</time>
      </trkpt>
      <trkpt lat="58.144813030958176" lon="-5.239163981750608">
        <ele>27.050000000000001</ele>
        <time>2023-08-23T09:25:21Z</time>
      </trkpt>
      <trkpt lat="58.144913027063012" lon="-5.23919097147882">
        <ele>26.57</ele>
        <time>2023-08-23T09:25:22Z</time>
      </trkpt>
      <trkpt lat="58.145128022879362" lon="-5.239249980077148">
        <ele>24.649999999999999</ele>
        <time>2023-08-23T09:25:24Z</time>
      </trkpt>
      <trkpt lat="58.145236987620592" lon="-5.239284010604024">
        <ele>23.690000000000001</ele>
        <time>2023-08-23T09:25:25Z</time>
      </trkpt>
      <trkpt lat="58.145335977897048" lon="-5.2393629681319">
        <ele>22.73</ele>
        <time>2023-08-23T09:25:26Z</time>
      </trkpt>
      <trkpt lat="58.145745014771819" lon="-5.239649964496493">
        <ele>19.84</ele>
        <time>2023-08-23T09:25:30Z</time>
      </trkpt>
      <trkpt lat="58.145829001441598" lon="-5.239706039428711">
        <ele>18.879999999999999</ele>
        <time>2023-08-23T09:25:31Z</time>
      </trkpt>
      <trkpt lat="58.145921034738421" lon="-5.239695981144905">
        <ele>18.399999999999999</ele>
        <time>2023-08-23T09:25:32Z</time>
      </trkpt>
      <trkpt lat="58.146337028592825" lon="-5.239668991416693">
        <ele>15.039999999999999</ele>
        <time>2023-08-23T09:25:36Z</time>
      </trkpt>
      <trkpt lat="58.146420009434223" lon="-5.239674020558596">
        <ele>14.08</ele>
        <time>2023-08-23T09:25:37Z</time>
      </trkpt>
      <trkpt lat="58.146493015810847" lon="-5.239677960053086">
        <ele>13.6</ele>
        <time>2023-08-23T09:25:38Z</time>
      </trkpt>
      <trkpt lat="58.146551018580794" lon="-5.239680977538228">
        <ele>13.119999999999999</ele>
        <time>2023-08-23T09:25:39Z</time>
      </trkpt>
      <trkpt lat="58.146623019129038" lon="-5.23968500085175">
        <ele>12.630000000000001</ele>
        <time>2023-08-23T09:25:40Z</time>
      </trkpt>
      <trkpt lat="58.146653026342392" lon="-5.239623980596662">
        <ele>12.630000000000001</ele>
        <time>2023-08-23T09:25:41Z</time>
      </trkpt>
      <trkpt lat="58.146702982485294" lon="-5.239523984491825">
        <ele>12.630000000000001</ele>
        <time>2023-08-23T09:25:42Z</time>
      </trkpt>
      <trkpt lat="58.146767020225525" lon="-5.239447960630059">
        <ele>12.15</ele>
        <time>2023-08-23T09:25:43Z</time>
      </trkpt>
      <trkpt lat="58.146828962489963" lon="-5.239410996437073">
        <ele>11.67</ele>
        <time>2023-08-23T09:25:44Z</time>
      </trkpt>
      <trkpt lat="58.146869027987123" lon="-5.239452989771962">
        <ele>11.19</ele>
        <time>2023-08-23T09:25:45Z</time>
      </trkpt>
      <trkpt lat="58.146920995786786" lon="-5.239531025290489">
        <ele>10.710000000000001</ele>
        <time>2023-08-23T09:25:46Z</time>
      </trkpt>
      <trkpt lat="58.146982016041875" lon="-5.2396219689399">
        <ele>10.710000000000001</ele>
        <time>2023-08-23T09:25:47Z</time>
      </trkpt>
      <trkpt lat="58.147047981619835" lon="-5.239720959216356">
        <ele>10.23</ele>
        <time>2023-08-23T09:25:48Z</time>
      </trkpt>
      <trkpt lat="58.147127022966743" lon="-5.239808969199657">
        <ele>9.75</ele>
        <time>2023-08-23T09:25:49Z</time>
      </trkpt>
      <trkpt lat="58.147206986322999" lon="-5.239853980019689">
        <ele>9.75</ele>
        <time>2023-08-23T09:25:50Z</time>
      </trkpt>
      <trkpt lat="58.147279992699623" lon="-5.239893961697817">
        <ele>9.27</ele>
        <time>2023-08-23T09:25:51Z</time>
      </trkpt>
      <trkpt lat="58.147340007126331" lon="-5.239926986396313">
        <ele>9.27</ele>
        <time>2023-08-23T09:25:52Z</time>
      </trkpt>
      <trkpt lat="58.147609988227487" lon="-5.240284977480769">
        <ele>8.310000000000001</ele>
        <time>2023-08-23T09:25:59Z</time>
      </trkpt>
      <trkpt lat="58.147609988227487" lon="-5.240284977480769">
        <ele>8.310000000000001</ele>
        <time>2023-08-23T09:26:00Z</time>
      </trkpt>
      <trkpt lat="58.147649969905615" lon="-5.240294029936194">
        <ele>7.83</ele>
        <time>2023-08-23T09:26:01Z</time>
      </trkpt>
      <trkpt lat="58.147719958797097" lon="-5.240310039371252">
        <ele>7.83</ele>
        <time>2023-08-23T09:26:02Z</time>
      </trkpt>
      <trkpt lat="58.147803023457527" lon="-5.240327976644039">
        <ele>7.83</ele>
        <time>2023-08-23T09:26:03Z</time>
      </trkpt>
      <trkpt lat="58.147859014570713" lon="-5.240374999120832">
        <ele>7.35</ele>
        <time>2023-08-23T09:26:04Z</time>
      </trkpt>
      <trkpt lat="58.148870039731264" lon="-5.240791998803616">
        <ele>8.310000000000001</ele>
        <time>2023-08-23T09:26:15Z</time>
      </trkpt>
      <trkpt lat="58.15032497048378" lon="-5.241071032360196">
        <ele>12.630000000000001</ele>
        <time>2023-08-23T09:26:30Z</time>
      </trkpt>
      <trkpt lat="58.150498978793621" lon="-5.241033984348178">
        <ele>13.6</ele>
        <time>2023-08-23T09:26:32Z</time>
      </trkpt>
      <trkpt lat="58.150590006262064" lon="-5.240991991013289">
        <ele>14.08</ele>
        <time>2023-08-23T09:26:33Z</time>
      </trkpt>
      <trkpt lat="58.150859987363219" lon="-5.240870034322143">
        <ele>14.56</ele>
        <time>2023-08-23T09:26:36Z</time>
      </trkpt>
      <trkpt lat="58.150951014831662" lon="-5.240828040987253">
        <ele>14.56</ele>
        <time>2023-08-23T09:26:37Z</time>
      </trkpt>
      <trkpt lat="58.151748972013593" lon="-5.240464014932513">
        <ele>9.27</ele>
        <time>2023-08-23T09:26:46Z</time>
      </trkpt>
      <trkpt lat="58.15202197059989" lon="-5.240413974970579">
        <ele>8.310000000000001</ele>
        <time>2023-08-23T09:26:49Z</time>
      </trkpt>
      <trkpt lat="58.152115009725094" lon="-5.240443982183933">
        <ele>7.83</ele>
        <time>2023-08-23T09:26:50Z</time>
      </trkpt>
      <trkpt lat="58.152752034366131" lon="-5.240667024627328">
        <ele>7.83</ele>
        <time>2023-08-23T09:26:57Z</time>
      </trkpt>
      <trkpt lat="58.15283602103591" lon="-5.240696026012301">
        <ele>8.310000000000001</ele>
        <time>2023-08-23T09:26:58Z</time>
      </trkpt>
      <trkpt lat="58.152916990220547" lon="-5.240696026012301">
        <ele>8.310000000000001</ele>
        <time>2023-08-23T09:26:59Z</time>
      </trkpt>
      <trkpt lat="58.152998965233564" lon="-5.240643974393606">
        <ele>8.789999999999999</ele>
        <time>2023-08-23T09:27:00Z</time>
      </trkpt>
      <trkpt lat="58.153079012408853" lon="-5.240592006593943">
        <ele>8.789999999999999</ele>
        <time>2023-08-23T09:27:01Z</time>
      </trkpt>
      <trkpt lat="58.153188982978463" lon="-5.24052101187408">
        <ele>9.27</ele>
        <time>2023-08-23T09:27:02Z</time>
      </trkpt>
      <trkpt lat="58.153238017112017" lon="-5.240454962477088">
        <ele>9.27</ele>
        <time>2023-08-23T09:27:03Z</time>
      </trkpt>
      <trkpt lat="58.153312029317021" lon="-5.240352032706142">
        <ele>9.27</ele>
        <time>2023-08-23T09:27:04Z</time>
      </trkpt>
      <trkpt lat="58.154033962637186" lon="-5.23936003446579">
        <ele>10.23</ele>
        <time>2023-08-23T09:27:15Z</time>
      </trkpt>
      <trkpt lat="58.154783975332975" lon="-5.238145999610424">
        <ele>13.119999999999999</ele>
        <time>2023-08-23T09:27:28Z</time>
      </trkpt>
      <trkpt lat="58.155324021354318" lon="-5.237269001081586">
        <ele>15.039999999999999</ele>
        <time>2023-08-23T09:27:37Z</time>
      </trkpt>
      <trkpt lat="58.155736997723579" lon="-5.236844960600138">
        <ele>16.960000000000001</ele>
        <time>2023-08-23T09:27:42Z</time>
      </trkpt>
      <trkpt lat="58.15633999183774" lon="-5.236545978114009">
        <ele>19.84</ele>
        <time>2023-08-23T09:27:48Z</time>
      </trkpt>
      <trkpt lat="58.156444011256099" lon="-5.236488981172442">
        <ele>20.32</ele>
        <time>2023-08-23T09:27:49Z</time>
      </trkpt>
      <trkpt lat="58.157462999224663" lon="-5.235909037292004">
        <ele>28.98</ele>
        <time>2023-08-23T09:27:58Z</time>
      </trkpt>
      <trkpt lat="58.158074961975217" lon="-5.235435962677002">
        <ele>34.259999999999998</ele>
        <time>2023-08-23T09:28:03Z</time>
      </trkpt>
      <trkpt lat="58.158188033849001" lon="-5.235265977680683">
        <ele>35.710000000000001</ele>
        <time>2023-08-23T09:28:04Z</time>
      </trkpt>
      <trkpt lat="58.158288029953837" lon="-5.235090963542461">
        <ele>37.149999999999999</ele>
        <time>2023-08-23T09:28:05Z</time>
      </trkpt>
      <trkpt lat="58.158388026058674" lon="-5.234915027394891">
        <ele>38.590000000000003</ele>
        <time>2023-08-23T09:28:06Z</time>
      </trkpt>
      <trkpt lat="58.158483998849988" lon="-5.234722997993231">
        <ele>40.509999999999998</ele>
        <time>2023-08-23T09:28:07Z</time>
      </trkpt>
      <trkpt lat="58.15857301466167" lon="-5.234508002176881">
        <ele>42.439999999999998</ele>
        <time>2023-08-23T09:28:08Z</time>
      </trkpt>
      <trkpt lat="58.159512039273977" lon="-5.232225023210049">
        <ele>55.890000000000001</ele>
        <time>2023-08-23T09:28:18Z</time>
      </trkpt>
      <trkpt lat="58.160102963447571" lon="-5.230496004223824">
        <ele>56.369999999999997</ele>
        <time>2023-08-23T09:28:25Z</time>
      </trkpt>
      <trkpt lat="58.160146968439221" lon="-5.230228034779429">
        <ele>55.890000000000001</ele>
        <time>2023-08-23T09:28:26Z</time>
      </trkpt>
      <trkpt lat="58.16016398370266" lon="-5.229912037029862">
        <ele>54.93</ele>
        <time>2023-08-23T09:28:27Z</time>
      </trkpt>
      <trkpt lat="58.160182004794478" lon="-5.229590004310012">
        <ele>53.969999999999999</ele>
        <time>2023-08-23T09:28:28Z</time>
      </trkpt>
      <trkpt lat="58.160200025886297" lon="-5.229276018217206">
        <ele>53.009999999999998</ele>
        <time>2023-08-23T09:28:29Z</time>
      </trkpt>
      <trkpt lat="58.160187033936381" lon="-5.22898399271071">
        <ele>52.049999999999997</ele>
        <time>2023-08-23T09:28:30Z</time>
      </trkpt>
      <trkpt lat="58.160155015066266" lon="-5.228665983304381">
        <ele>51.090000000000003</ele>
        <time>2023-08-23T09:28:31Z</time>
      </trkpt>
      <trkpt lat="58.160122996196151" lon="-5.228342022746801">
        <ele>50.130000000000003</ele>
        <time>2023-08-23T09:28:32Z</time>
      </trkpt>
      <trkpt lat="58.159641958773136" lon="-5.225670039653778">
        <ele>41.469999999999999</ele>
        <time>2023-08-23T09:28:41Z</time>
      </trkpt>
      <trkpt lat="58.159635001793504" lon="-5.225378014147282">
        <ele>41.469999999999999</ele>
        <time>2023-08-23T09:28:42Z</time>
      </trkpt>
      <trkpt lat="58.159627038985491" lon="-5.225085988640785">
        <ele>41.469999999999999</ele>
        <time>2023-08-23T09:28:43Z</time>
      </trkpt>
      <trkpt lat="58.159668026492" lon="-5.224784994497895">
        <ele>41.950000000000003</ele>
        <time>2023-08-23T09:28:44Z</time>
      </trkpt>
      <trkpt lat="58.15971203148365" lon="-5.224508978426457">
        <ele>41.950000000000003</ele>
        <time>2023-08-23T09:28:45Z</time>
      </trkpt>
      <trkpt lat="58.159760981798172" lon="-5.224217036738992">
        <ele>42.439999999999998</ele>
        <time>2023-08-23T09:28:46Z</time>
      </trkpt>
      <trkpt lat="58.15984396263957" lon="-5.223949989303947">
        <ele>42.439999999999998</ele>
        <time>2023-08-23T09:28:47Z</time>
      </trkpt>
      <trkpt lat="58.15992996096611" lon="-5.223674979060888">
        <ele>42.920000000000002</ele>
        <time>2023-08-23T09:28:48Z</time>
      </trkpt>
      <trkpt lat="58.160712998360395" lon="-5.221170969307423">
        <ele>48.68</ele>
        <time>2023-08-23T09:28:57Z</time>
      </trkpt>
      <trkpt lat="58.161649005487561" lon="-5.218173014000058">
        <ele>59.259999999999998</ele>
        <time>2023-08-23T09:29:08Z</time>
      </trkpt>
      <trkpt lat="58.162538995966315" lon="-5.214757975190878">
        <ele>63.579999999999998</ele>
        <time>2023-08-23T09:29:19Z</time>
      </trkpt>
      <trkpt lat="58.162692971527576" lon="-5.214127991348505">
        <ele>64.549999999999997</ele>
        <time>2023-08-23T09:29:21Z</time>
      </trkpt>
      <trkpt lat="58.163916980847716" lon="-5.209667980670929">
        <ele>65.989999999999995</ele>
        <time>2023-08-23T09:29:35Z</time>
      </trkpt>
      <trkpt lat="58.165144007652998" lon="-5.205260021612048">
        <ele>59.740000000000002</ele>
        <time>2023-08-23T09:29:48Z</time>
      </trkpt>
      <trkpt lat="58.166390983387828" lon="-5.200775032863021">
        <ele>65.989999999999995</ele>
        <time>2023-08-23T09:30:02Z</time>
      </trkpt>
      <trkpt lat="58.167307963594794" lon="-5.198743008077145">
        <ele>62.140000000000001</ele>
        <time>2023-08-23T09:30:09Z</time>
      </trkpt>
      <trkpt lat="58.167884973809123" lon="-5.196781978011131">
        <ele>61.659999999999997</ele>
        <time>2023-08-23T09:30:15Z</time>
      </trkpt>
      <trkpt lat="58.168021012097597" lon="-5.19469597376883">
        <ele>67.430000000000007</ele>
        <time>2023-08-23T09:30:21Z</time>
      </trkpt>
      <trkpt lat="58.168068034574389" lon="-5.193024035543203">
        <ele>75.599999999999994</ele>
        <time>2023-08-23T09:30:26Z</time>
      </trkpt>
      <trkpt lat="58.168517975136638" lon="-5.189986014738679">
        <ele>81.849999999999994</ele>
        <time>2023-08-23T09:30:35Z</time>
      </trkpt>
      <trkpt lat="58.168682008981705" lon="-5.187652995809913">
        <ele>79.930000000000007</ele>
        <time>2023-08-23T09:30:42Z</time>
      </trkpt>
      <trkpt lat="58.169431015849113" lon="-5.184227982535958">
        <ele>74.640000000000001</ele>
        <time>2023-08-23T09:30:53Z</time>
      </trkpt>
      <trkpt lat="58.170255962759256" lon="-5.181434964761138">
        <ele>68.390000000000001</ele>
        <time>2023-08-23T09:31:02Z</time>
      </trkpt>
      <trkpt lat="58.170474981889129" lon="-5.18051597289741">
        <ele>68.870000000000005</ele>
        <time>2023-08-23T09:31:05Z</time>
      </trkpt>
      <trkpt lat="58.170504989102483" lon="-5.180185977369547">
        <ele>69.349999999999994</ele>
        <time>2023-08-23T09:31:06Z</time>
      </trkpt>
      <trkpt lat="58.170878989621997" lon="-5.176673959940672">
        <ele>70.310000000000002</ele>
        <time>2023-08-23T09:31:17Z</time>
      </trkpt>
      <trkpt lat="58.171535963192582" lon="-5.173167977482081">
        <ele>76.560000000000002</ele>
        <time>2023-08-23T09:31:28Z</time>
      </trkpt>
      <trkpt lat="58.172343978658319" lon="-5.169935999438167">
        <ele>77.519999999999996</ele>
        <time>2023-08-23T09:31:39Z</time>
      </trkpt>
      <trkpt lat="58.1734639685601" lon="-5.166761018335819">
        <ele>73.200000000000003</ele>
        <time>2023-08-23T09:31:50Z</time>
      </trkpt>
      <trkpt lat="58.174307020381093" lon="-5.165028981864452">
        <ele>74.159999999999997</ele>
        <time>2023-08-23T09:31:57Z</time>
      </trkpt>
      <trkpt lat="58.17567503079772" lon="-5.163184041157365">
        <ele>71.760000000000005</ele>
        <time>2023-08-23T09:32:06Z</time>
      </trkpt>
      <trkpt lat="58.176573989912868" lon="-5.16081397421658">
        <ele>71.760000000000005</ele>
        <time>2023-08-23T09:32:14Z</time>
      </trkpt>
      <trkpt lat="58.177453000098467" lon="-5.157276978716254">
        <ele>77.040000000000006</ele>
        <time>2023-08-23T09:32:25Z</time>
      </trkpt>
      <trkpt lat="58.177693979814649" lon="-5.154330991208553">
        <ele>90.5</ele>
        <time>2023-08-23T09:32:34Z</time>
      </trkpt>
      <trkpt lat="58.177686017006636" lon="-5.15314101241529">
        <ele>97.230000000000004</ele>
        <time>2023-08-23T09:32:38Z</time>
      </trkpt>
      <trkpt lat="58.177650980651379" lon="-5.152566013857722">
        <ele>100.11</ele>
        <time>2023-08-23T09:32:40Z</time>
      </trkpt>
      <trkpt lat="58.177616028115153" lon="-5.152307013049722">
        <ele>101.56</ele>
        <time>2023-08-23T09:32:41Z</time>
      </trkpt>
      <trkpt lat="58.177149994298816" lon="-5.149950021877885">
        <ele>106.36</ele>
        <time>2023-08-23T09:32:50Z</time>
      </trkpt>
      <trkpt lat="58.177057961001992" lon="-5.149291958659887">
        <ele>104.92</ele>
        <time>2023-08-23T09:32:55Z</time>
      </trkpt>
      <trkpt lat="58.177046980708838" lon="-5.14921098947525">
        <ele>104.44</ele>
        <time>2023-08-23T09:32:56Z</time>
      </trkpt>
      <trkpt lat="58.17702803760767" lon="-5.149069000035524">
        <ele>103.48</ele>
        <time>2023-08-23T09:32:58Z</time>
      </trkpt>
      <trkpt lat="58.177024014294147" lon="-5.148984007537365">
        <ele>103</ele>
        <time>2023-08-23T09:32:59Z</time>
      </trkpt>
      <trkpt lat="58.177020996809006" lon="-5.148920975625515">
        <ele>103</ele>
        <time>2023-08-23T09:33:00Z</time>
      </trkpt>
      <trkpt lat="58.177016973495483" lon="-5.148860961198807">
        <ele>102.52</ele>
        <time>2023-08-23T09:33:01Z</time>
      </trkpt>
      <trkpt lat="58.177014961838722" lon="-5.148808993399143">
        <ele>102.52</ele>
        <time>2023-08-23T09:33:02Z</time>
      </trkpt>
      <trkpt lat="58.177014961838722" lon="-5.148808993399143">
        <ele>102.52</ele>
        <time>2023-08-23T09:33:03Z</time>
      </trkpt>
      <trkpt lat="58.177014961838722" lon="-5.148808993399143">
        <ele>102.04000000000001</ele>
        <time>2023-08-23T09:33:16Z</time>
      </trkpt>
      <trkpt lat="58.177013034000993" lon="-5.148773035034537">
        <ele>102.04000000000001</ele>
        <time>2023-08-23T09:33:17Z</time>
      </trkpt>
      <trkpt lat="58.177013034000993" lon="-5.148770017549396">
        <ele>102.04000000000001</ele>
        <time>2023-08-23T09:33:18Z</time>
      </trkpt>
      <trkpt lat="58.177145970985293" lon="-5.149383991956711">
        <ele>86.659999999999997</ele>
        <time>2023-08-23T09:39:04Z</time>
      </trkpt>
      <trkpt lat="58.176994007080793" lon="-5.148788038641214">
        <ele>98.670000000000002</ele>
        <time>2023-08-23T09:39:17Z</time>
      </trkpt>
      <trkpt lat="58.17700901068747" lon="-5.148699022829533">
        <ele>98.670000000000002</ele>
        <time>2023-08-23T09:39:19Z</time>
      </trkpt>
      <trkpt lat="58.177003981545568" lon="-5.148604977875948">
        <ele>98.189999999999998</ele>
        <time>2023-08-23T09:39:20Z</time>
      </trkpt>
      <trkpt lat="58.176997024565935" lon="-5.14848000369966">
        <ele>98.189999999999998</ele>
        <time>2023-08-23T09:39:21Z</time>
      </trkpt>
      <trkpt lat="58.176989983767271" lon="-5.148339020088315">
        <ele>98.189999999999998</ele>
        <time>2023-08-23T09:39:22Z</time>
      </trkpt>
      <trkpt lat="58.176898034289479" lon="-5.146614024415612">
        <ele>97.709999999999994</ele>
        <time>2023-08-23T09:39:32Z</time>
      </trkpt>
      <trkpt lat="58.17677297629416" lon="-5.14463103376329">
        <ele>92.900000000000006</ele>
        <time>2023-08-23T09:39:40Z</time>
      </trkpt>
      <trkpt lat="58.176418002694845" lon="-5.142258033156395">
        <ele>77.040000000000006</ele>
        <time>2023-08-23T09:39:49Z</time>
      </trkpt>
      <trkpt lat="58.175834035500884" lon="-5.139886038377881">
        <ele>61.18</ele>
        <time>2023-08-23T09:40:00Z</time>
      </trkpt>
      <trkpt lat="58.175528012216091" lon="-5.138721037656069">
        <ele>60.219999999999999</ele>
        <time>2023-08-23T09:40:06Z</time>
      </trkpt>
      <trkpt lat="58.175474032759666" lon="-5.138515010476112">
        <ele>60.700000000000003</ele>
        <time>2023-08-23T09:40:07Z</time>
      </trkpt>
      <trkpt lat="58.175420975312591" lon="-5.138312000781298">
        <ele>61.18</ele>
        <time>2023-08-23T09:40:08Z</time>
      </trkpt>
      <trkpt lat="58.175019985064864" lon="-5.136354994028807">
        <ele>64.069999999999993</ele>
        <time>2023-08-23T09:40:17Z</time>
      </trkpt>
      <trkpt lat="58.175003975629807" lon="-5.1341069675982">
        <ele>65.030000000000001</ele>
        <time>2023-08-23T09:40:26Z</time>
      </trkpt>
      <trkpt lat="58.175490964204073" lon="-5.131185036152601">
        <ele>67.909999999999997</ele>
        <time>2023-08-23T09:40:38Z</time>
      </trkpt>
      <trkpt lat="58.175934031605721" lon="-5.128463013097644">
        <ele>69.829999999999998</ele>
        <time>2023-08-23T09:40:48Z</time>
      </trkpt>
      <trkpt lat="58.176286993548274" lon="-5.126765007153153">
        <ele>67.430000000000007</ele>
        <time>2023-08-23T09:40:55Z</time>
      </trkpt>
      <trkpt lat="58.177162986248732" lon="-5.124365016818047">
        <ele>69.829999999999998</ele>
        <time>2023-08-23T09:41:06Z</time>
      </trkpt>
      <trkpt lat="58.177431961521506" lon="-5.123683987185359">
        <ele>69.829999999999998</ele>
        <time>2023-08-23T09:41:09Z</time>
      </trkpt>
      <trkpt lat="58.178563015535474" lon="-5.121544003486633">
        <ele>69.349999999999994</ele>
        <time>2023-08-23T09:41:19Z</time>
      </trkpt>
      <trkpt lat="58.180075027048588" lon="-5.119487000629306">
        <ele>69.829999999999998</ele>
        <time>2023-08-23T09:41:30Z</time>
      </trkpt>
      <trkpt lat="58.180350959300995" lon="-5.119110988453031">
        <ele>69.349999999999994</ele>
        <time>2023-08-23T09:41:32Z</time>
      </trkpt>
      <trkpt lat="58.18048800341785" lon="-5.118923988193274">
        <ele>69.349999999999994</ele>
        <time>2023-08-23T09:41:33Z</time>
      </trkpt>
      <trkpt lat="58.180625969544053" lon="-5.118735982105136">
        <ele>69.349999999999994</ele>
        <time>2023-08-23T09:41:34Z</time>
      </trkpt>
      <trkpt lat="58.180762007832527" lon="-5.11855099350214">
        <ele>69.349999999999994</ele>
        <time>2023-08-23T09:41:35Z</time>
      </trkpt>
      <trkpt lat="58.18089896813035" lon="-5.118364999070764">
        <ele>69.349999999999994</ele>
        <time>2023-08-23T09:41:36Z</time>
      </trkpt>
      <trkpt lat="58.182044019922614" lon="-5.116391982883215">
        <ele>69.349999999999994</ele>
        <time>2023-08-23T09:41:45Z</time>
      </trkpt>
      <trkpt lat="58.182575013488531" lon="-5.11515699326992">
        <ele>68.390000000000001</ele>
        <time>2023-08-23T09:41:50Z</time>
      </trkpt>
      <trkpt lat="58.182674003764987" lon="-5.114916013553739">
        <ele>68.390000000000001</ele>
        <time>2023-08-23T09:41:51Z</time>
      </trkpt>
      <trkpt lat="58.182777017354965" lon="-5.114662041887641">
        <ele>68.870000000000005</ele>
        <time>2023-08-23T09:41:52Z</time>
      </trkpt>
      <trkpt lat="58.184024998918176" lon="-5.112174963578582">
        <ele>74.640000000000001</ele>
        <time>2023-08-23T09:42:03Z</time>
      </trkpt>
      <trkpt lat="58.185343975201249" lon="-5.110783986747265">
        <ele>78.969999999999999</ele>
        <time>2023-08-23T09:42:12Z</time>
      </trkpt>
      <trkpt lat="58.187046004459262" lon="-5.108594968914986">
        <ele>88.099999999999994</ele>
        <time>2023-08-23T09:42:24Z</time>
      </trkpt>
      <trkpt lat="58.188045965507627" lon="-5.107172979041934">
        <ele>90.019999999999996</ele>
        <time>2023-08-23T09:42:31Z</time>
      </trkpt>
      <trkpt lat="58.188205976039171" lon="-5.106996959075332">
        <ele>90.019999999999996</ele>
        <time>2023-08-23T09:42:32Z</time>
      </trkpt>
      <trkpt lat="58.189391009509563" lon="-5.106182992458344">
        <ele>88.579999999999998</ele>
        <time>2023-08-23T09:42:39Z</time>
      </trkpt>
      <trkpt lat="58.190275970846415" lon="-5.10578996501863">
        <ele>85.689999999999998</ele>
        <time>2023-08-23T09:42:44Z</time>
      </trkpt>
      <trkpt lat="58.190442016348243" lon="-5.105673959478736">
        <ele>85.209999999999994</ele>
        <time>2023-08-23T09:42:45Z</time>
      </trkpt>
      <trkpt lat="58.190588029101491" lon="-5.105478996410966">
        <ele>85.689999999999998</ele>
        <time>2023-08-23T09:42:46Z</time>
      </trkpt>
      <trkpt lat="58.190728006884456" lon="-5.105277998372912">
        <ele>85.689999999999998</ele>
        <time>2023-08-23T09:42:47Z</time>
      </trkpt>
      <trkpt lat="58.19086697883904" lon="-5.10507901199162">
        <ele>85.689999999999998</ele>
        <time>2023-08-23T09:42:48Z</time>
      </trkpt>
      <trkpt lat="58.190990025177598" lon="-5.104830991476774">
        <ele>85.689999999999998</ele>
        <time>2023-08-23T09:42:49Z</time>
      </trkpt>
      <trkpt lat="58.191099995747209" lon="-5.104551035910845">
        <ele>85.689999999999998</ele>
        <time>2023-08-23T09:42:50Z</time>
      </trkpt>
      <trkpt lat="58.191183982416987" lon="-5.104253981262445">
        <ele>86.180000000000007</ele>
        <time>2023-08-23T09:42:51Z</time>
      </trkpt>
      <trkpt lat="58.191266963258386" lon="-5.103966984897852">
        <ele>86.659999999999997</ele>
        <time>2023-08-23T09:42:52Z</time>
      </trkpt>
      <trkpt lat="58.191323038190603" lon="-5.103641012683511">
        <ele>87.620000000000005</ele>
        <time>2023-08-23T09:42:53Z</time>
      </trkpt>
      <trkpt lat="58.191364025697112" lon="-5.103297019377351">
        <ele>88.099999999999994</ele>
        <time>2023-08-23T09:42:54Z</time>
      </trkpt>
      <trkpt lat="58.191393027082086" lon="-5.102938022464514">
        <ele>88.579999999999998</ele>
        <time>2023-08-23T09:42:55Z</time>
      </trkpt>
      <trkpt lat="58.191410964354873" lon="-5.102583970874548">
        <ele>89.540000000000006</ele>
        <time>2023-08-23T09:42:56Z</time>
      </trkpt>
      <trkpt lat="58.191422028467059" lon="-5.102217011153698">
        <ele>90.019999999999996</ele>
        <time>2023-08-23T09:42:57Z</time>
      </trkpt>
      <trkpt lat="58.191392021253705" lon="-5.101870000362396">
        <ele>90.5</ele>
        <time>2023-08-23T09:42:58Z</time>
      </trkpt>
      <trkpt lat="58.1913370359689" lon="-5.101522989571095">
        <ele>90.980000000000004</ele>
        <time>2023-08-23T09:42:59Z</time>
      </trkpt>
      <trkpt lat="58.19127500988543" lon="-5.101189976558089">
        <ele>90.5</ele>
        <time>2023-08-23T09:43:00Z</time>
      </trkpt>
      <trkpt lat="58.191214995458722" lon="-5.100859981030226">
        <ele>90.5</ele>
        <time>2023-08-23T09:43:01Z</time>
      </trkpt>
      <trkpt lat="58.190989019349217" lon="-5.099331960082054">
        <ele>89.540000000000006</ele>
        <time>2023-08-23T09:43:06Z</time>
      </trkpt>
      <trkpt lat="58.190979966893792" lon="-5.099027026444674">
        <ele>90.019999999999996</ele>
        <time>2023-08-23T09:43:07Z</time>
      </trkpt>
      <trkpt lat="58.190991031005979" lon="-5.098742041736841">
        <ele>90.5</ele>
        <time>2023-08-23T09:43:08Z</time>
      </trkpt>
      <trkpt lat="58.191023971885443" lon="-5.098433000966907">
        <ele>90.980000000000004</ele>
        <time>2023-08-23T09:43:09Z</time>
      </trkpt>
      <trkpt lat="58.191058002412319" lon="-5.098119014874101">
        <ele>91.459999999999994</ele>
        <time>2023-08-23T09:43:10Z</time>
      </trkpt>
      <trkpt lat="58.191327983513474" lon="-5.095488019287586">
        <ele>94.829999999999998</ele>
        <time>2023-08-23T09:43:18Z</time>
      </trkpt>
      <trkpt lat="58.191465027630329" lon="-5.093260025605559">
        <ele>94.349999999999994</ele>
        <time>2023-08-23T09:43:25Z</time>
      </trkpt>
      <trkpt lat="58.191667031496763" lon="-5.091258008033037">
        <ele>94.829999999999998</ele>
        <time>2023-08-23T09:43:31Z</time>
      </trkpt>
      <trkpt lat="58.191652027890086" lon="-5.090904962271452">
        <ele>94.829999999999998</ele>
        <time>2023-08-23T09:43:32Z</time>
      </trkpt>
      <trkpt lat="58.191626965999603" lon="-5.090553006157279">
        <ele>95.310000000000002</ele>
        <time>2023-08-23T09:43:33Z</time>
      </trkpt>
      <trkpt lat="58.191570974886417" lon="-5.09021395817399">
        <ele>95.310000000000002</ele>
        <time>2023-08-23T09:43:34Z</time>
      </trkpt>
      <trkpt lat="58.191514983773232" lon="-5.08986703120172">
        <ele>95.310000000000002</ele>
        <time>2023-08-23T09:43:35Z</time>
      </trkpt>
      <trkpt lat="58.190757008269429" lon="-5.086141023784876">
        <ele>90.019999999999996</ele>
        <time>2023-08-23T09:43:46Z</time>
      </trkpt>
      <trkpt lat="58.189914962276816" lon="-5.08395996876061">
        <ele>87.620000000000005</ele>
        <time>2023-08-23T09:43:54Z</time>
      </trkpt>
      <trkpt lat="58.189505003392696" lon="-5.082895969972014">
        <ele>88.099999999999994</ele>
        <time>2023-08-23T09:43:58Z</time>
      </trkpt>
      <trkpt lat="58.189413975924253" lon="-5.082608973607421">
        <ele>88.099999999999994</ele>
        <time>2023-08-23T09:43:59Z</time>
      </trkpt>
      <trkpt lat="58.189367037266493" lon="-5.082289958372712">
        <ele>88.099999999999994</ele>
        <time>2023-08-23T09:44:00Z</time>
      </trkpt>
      <trkpt lat="58.189320014789701" lon="-5.081950994208455">
        <ele>88.099999999999994</ele>
        <time>2023-08-23T09:44:01Z</time>
      </trkpt>
      <trkpt lat="58.189296964555979" lon="-5.081607000902295">
        <ele>87.620000000000005</ele>
        <time>2023-08-23T09:44:02Z</time>
      </trkpt>
      <trkpt lat="58.189287995919585" lon="-5.081240963190794">
        <ele>87.620000000000005</ele>
        <time>2023-08-23T09:44:03Z</time>
      </trkpt>
      <trkpt lat="58.189258994534612" lon="-5.080108987167478">
        <ele>85.689999999999998</ele>
        <time>2023-08-23T09:44:06Z</time>
      </trkpt>
      <trkpt lat="58.189198980107903" lon="-5.079731969162822">
        <ele>85.209999999999994</ele>
        <time>2023-08-23T09:44:07Z</time>
      </trkpt>
      <trkpt lat="58.189141983166337" lon="-5.079381018877029">
        <ele>84.730000000000004</ele>
        <time>2023-08-23T09:44:08Z</time>
      </trkpt>
      <trkpt lat="58.189053973183036" lon="-5.079045994207263">
        <ele>83.769999999999996</ele>
        <time>2023-08-23T09:44:09Z</time>
      </trkpt>
      <trkpt lat="58.188936961814761" lon="-5.078761009499431">
        <ele>82.810000000000002</ele>
        <time>2023-08-23T09:44:10Z</time>
      </trkpt>
      <trkpt lat="58.188818022608757" lon="-5.078472001478076">
        <ele>82.329999999999998</ele>
        <time>2023-08-23T09:44:11Z</time>
      </trkpt>
      <trkpt lat="58.188697993755341" lon="-5.07817997597158">
        <ele>81.370000000000005</ele>
        <time>2023-08-23T09:44:12Z</time>
      </trkpt>
      <trkpt lat="58.187852008268237" lon="-5.075675966218114">
        <ele>75.599999999999994</ele>
        <time>2023-08-23T09:44:20Z</time>
      </trkpt>
      <trkpt lat="58.186846012249589" lon="-5.071237999945879">
        <ele>70.790000000000006</ele>
        <time>2023-08-23T09:44:33Z</time>
      </trkpt>
      <trkpt lat="58.18648299202323" lon="-5.069304965436459">
        <ele>72.239999999999995</ele>
        <time>2023-08-23T09:44:39Z</time>
      </trkpt>
      <trkpt lat="58.186470000073314" lon="-5.068972958251834">
        <ele>72.719999999999999</ele>
        <time>2023-08-23T09:44:40Z</time>
      </trkpt>
      <trkpt lat="58.186475029215217" lon="-5.068631982430816">
        <ele>72.719999999999999</ele>
        <time>2023-08-23T09:44:41Z</time>
      </trkpt>
      <trkpt lat="58.186500007286668" lon="-5.068290000781417">
        <ele>72.719999999999999</ele>
        <time>2023-08-23T09:44:42Z</time>
      </trkpt>
      <trkpt lat="58.186524985358119" lon="-5.067945001646876">
        <ele>73.200000000000003</ele>
        <time>2023-08-23T09:44:43Z</time>
      </trkpt>
      <trkpt lat="58.186733024194837" lon="-5.06434204056859">
        <ele>74.159999999999997</ele>
        <time>2023-08-23T09:44:53Z</time>
      </trkpt>
      <trkpt lat="58.18648399785161" lon="-5.061106961220503">
        <ele>74.159999999999997</ele>
        <time>2023-08-23T09:45:02Z</time>
      </trkpt>
      <trkpt lat="58.185700960457325" lon="-5.057468041777611">
        <ele>71.269999999999996</ele>
        <time>2023-08-23T09:45:12Z</time>
      </trkpt>
      <trkpt lat="58.185260994359851" lon="-5.054122991859913">
        <ele>72.719999999999999</ele>
        <time>2023-08-23T09:45:21Z</time>
      </trkpt>
      <trkpt lat="58.184506958350539" lon="-5.051871025934815">
        <ele>73.680000000000007</ele>
        <time>2023-08-23T09:45:28Z</time>
      </trkpt>
      <trkpt lat="58.18326098844409" lon="-5.04994603805244">
        <ele>76.560000000000002</ele>
        <time>2023-08-23T09:45:36Z</time>
      </trkpt>
      <trkpt lat="58.181904964148998" lon="-5.047979978844523">
        <ele>79.930000000000007</ele>
        <time>2023-08-23T09:45:45Z</time>
      </trkpt>
      <trkpt lat="58.181806979700923" lon="-5.04769298247993">
        <ele>79.930000000000007</ele>
        <time>2023-08-23T09:45:46Z</time>
      </trkpt>
      <trkpt lat="58.181706983596087" lon="-5.047399029135704">
        <ele>79.450000000000003</ele>
        <time>2023-08-23T09:45:47Z</time>
      </trkpt>
      <trkpt lat="58.181610004976392" lon="-5.047100968658924">
        <ele>78.969999999999999</ele>
        <time>2023-08-23T09:45:48Z</time>
      </trkpt>
      <trkpt lat="58.181534986943007" lon="-5.04676703363657">
        <ele>78.969999999999999</ele>
        <time>2023-08-23T09:45:49Z</time>
      </trkpt>
      <trkpt lat="58.180880025029182" lon="-5.044608023017645">
        <ele>77.519999999999996</ele>
        <time>2023-08-23T09:45:56Z</time>
      </trkpt>
      <trkpt lat="58.17945602349937" lon="-5.041432958096266">
        <ele>78.480000000000004</ele>
        <time>2023-08-23T09:46:07Z</time>
      </trkpt>
      <trkpt lat="58.179013039916754" lon="-5.039868978783488">
        <ele>77.040000000000006</ele>
        <time>2023-08-23T09:46:12Z</time>
      </trkpt>
      <trkpt lat="58.178965011611581" lon="-5.0395040307194">
        <ele>76.560000000000002</ele>
        <time>2023-08-23T09:46:13Z</time>
      </trkpt>
      <trkpt lat="58.178916983306408" lon="-5.039136987179518">
        <ele>76.079999999999998</ele>
        <time>2023-08-23T09:46:14Z</time>
      </trkpt>
      <trkpt lat="58.178895022720098" lon="-5.038758963346481">
        <ele>75.599999999999994</ele>
        <time>2023-08-23T09:46:15Z</time>
      </trkpt>
      <trkpt lat="58.178895022720098" lon="-5.038370965048671">
        <ele>74.640000000000001</ele>
        <time>2023-08-23T09:46:16Z</time>
      </trkpt>
      <trkpt lat="58.178895022720098" lon="-5.037972992286086">
        <ele>74.159999999999997</ele>
        <time>2023-08-23T09:46:17Z</time>
      </trkpt>
      <trkpt lat="58.178852023556828" lon="-5.036760969087482">
        <ele>73.200000000000003</ele>
        <time>2023-08-23T09:46:20Z</time>
      </trkpt>
      <trkpt lat="58.178822016343474" lon="-5.036356039345264">
        <ele>72.239999999999995</ele>
        <time>2023-08-23T09:46:21Z</time>
      </trkpt>
      <trkpt lat="58.178758984431624" lon="-5.035953037440777">
        <ele>71.760000000000005</ele>
        <time>2023-08-23T09:46:22Z</time>
      </trkpt>
      <trkpt lat="58.177851978689432" lon="-5.031808018684387">
        <ele>70.790000000000006</ele>
        <time>2023-08-23T09:46:33Z</time>
      </trkpt>
      <trkpt lat="58.177325008437037" lon="-5.028558019548655">
        <ele>76.560000000000002</ele>
        <time>2023-08-23T09:46:42Z</time>
      </trkpt>
      <trkpt lat="58.177252002060413" lon="-5.025479011237621">
        <ele>83.769999999999996</ele>
        <time>2023-08-23T09:46:50Z</time>
      </trkpt>
      <trkpt lat="58.176798960193992" lon="-5.023117996752262">
        <ele>83.290000000000006</ele>
        <time>2023-08-23T09:46:56Z</time>
      </trkpt>
      <trkpt lat="58.175593977794051" lon="-5.018843980506063">
        <ele>80.409999999999997</ele>
        <time>2023-08-23T09:47:08Z</time>
      </trkpt>
      <trkpt lat="58.175492975860834" lon="-5.018125986680389">
        <ele>80.409999999999997</ele>
        <time>2023-08-23T09:47:10Z</time>
      </trkpt>
      <trkpt lat="58.17548300139606" lon="-5.017752991989255">
        <ele>80.409999999999997</ele>
        <time>2023-08-23T09:47:11Z</time>
      </trkpt>
      <trkpt lat="58.17548300139606" lon="-5.017369017004967">
        <ele>80.409999999999997</ele>
        <time>2023-08-23T09:47:12Z</time>
      </trkpt>
      <trkpt lat="58.17548300139606" lon="-5.016975989565253">
        <ele>80.409999999999997</ele>
        <time>2023-08-23T09:47:13Z</time>
      </trkpt>
      <trkpt lat="58.175531029701233" lon="-5.016585979610682">
        <ele>79.930000000000007</ele>
        <time>2023-08-23T09:47:14Z</time>
      </trkpt>
      <trkpt lat="58.175579980015755" lon="-5.016181971877813">
        <ele>79.930000000000007</ele>
        <time>2023-08-23T09:47:15Z</time>
      </trkpt>
      <trkpt lat="58.175628008320928" lon="-5.01578601077199">
        <ele>79.450000000000003</ele>
        <time>2023-08-23T09:47:16Z</time>
      </trkpt>
      <trkpt lat="58.175734039396048" lon="-5.014622015878558">
        <ele>78</ele>
        <time>2023-08-23T09:47:19Z</time>
      </trkpt>
      <trkpt lat="58.175757005810738" lon="-5.014236029237509">
        <ele>77.040000000000006</ele>
        <time>2023-08-23T09:47:20Z</time>
      </trkpt>
      <trkpt lat="58.175734961405396" lon="-5.013836966827512">
        <ele>76.560000000000002</ele>
        <time>2023-08-23T09:47:21Z</time>
      </trkpt>
      <trkpt lat="58.175701014697552" lon="-5.013447962701321">
        <ele>76.079999999999998</ele>
        <time>2023-08-23T09:47:22Z</time>
      </trkpt>
      <trkpt lat="58.175624990835786" lon="-5.013077985495329">
        <ele>75.599999999999994</ele>
        <time>2023-08-23T09:47:23Z</time>
      </trkpt>
      <trkpt lat="58.175547039136291" lon="-5.012716976925731">
        <ele>75.120000000000005</ele>
        <time>2023-08-23T09:47:24Z</time>
      </trkpt>
      <trkpt lat="58.175447965040803" lon="-5.012384969741106">
        <ele>74.640000000000001</ele>
        <time>2023-08-23T09:47:25Z</time>
      </trkpt>
      <trkpt lat="58.175341011956334" lon="-5.012065032497048">
        <ele>74.640000000000001</ele>
        <time>2023-08-23T09:47:26Z</time>
      </trkpt>
      <trkpt lat="58.175210002809763" lon="-5.011775018647313">
        <ele>74.640000000000001</ele>
        <time>2023-08-23T09:47:27Z</time>
      </trkpt>
      <trkpt lat="58.175058960914612" lon="-5.011522974818945">
        <ele>74.640000000000001</ele>
        <time>2023-08-23T09:47:28Z</time>
      </trkpt>
      <trkpt lat="58.174899034202099" lon="-5.011293981224299">
        <ele>74.640000000000001</ele>
        <time>2023-08-23T09:47:29Z</time>
      </trkpt>
      <trkpt lat="58.174736006185412" lon="-5.01106197014451">
        <ele>75.120000000000005</ele>
        <time>2023-08-23T09:47:30Z</time>
      </trkpt>
      <trkpt lat="58.173996973782778" lon="-5.00988095998764">
        <ele>78.969999999999999</ele>
        <time>2023-08-23T09:47:35Z</time>
      </trkpt>
      <trkpt lat="58.173878034576774" lon="-5.009625982493162">
        <ele>79.930000000000007</ele>
        <time>2023-08-23T09:47:36Z</time>
      </trkpt>
      <trkpt lat="58.173807039856911" lon="-5.009339991956949">
        <ele>80.890000000000001</ele>
        <time>2023-08-23T09:47:37Z</time>
      </trkpt>
      <trkpt lat="58.173752976581454" lon="-5.009061964228749">
        <ele>81.849999999999994</ele>
        <time>2023-08-23T09:47:38Z</time>
      </trkpt>
      <trkpt lat="58.17369899712503" lon="-5.0087830144912">
        <ele>82.329999999999998</ele>
        <time>2023-08-23T09:47:39Z</time>
      </trkpt>
      <trkpt lat="58.173673013225198" lon="-5.008469028398395">
        <ele>83.290000000000006</ele>
        <time>2023-08-23T09:47:40Z</time>
      </trkpt>
      <trkpt lat="58.173661027103662" lon="-5.008140960708261">
        <ele>83.290000000000006</ele>
        <time>2023-08-23T09:47:41Z</time>
      </trkpt>
      <trkpt lat="58.17350696772337" lon="-5.005293963477016">
        <ele>80.409999999999997</ele>
        <time>2023-08-23T09:47:49Z</time>
      </trkpt>
      <trkpt lat="58.173042023554444" lon="-5.003457991406322">
        <ele>71.760000000000005</ele>
        <time>2023-08-23T09:47:56Z</time>
      </trkpt>
      <trkpt lat="58.172936998307705" lon="-5.00319697894156">
        <ele>70.790000000000006</ele>
        <time>2023-08-23T09:47:58Z</time>
      </trkpt>
      <trkpt lat="58.172906991094351" lon="-5.003121038898826">
        <ele>70.310000000000002</ele>
        <time>2023-08-23T09:47:59Z</time>
      </trkpt>
      <trkpt lat="58.17294898442924" lon="-5.002906965091825">
        <ele>69.829999999999998</ele>
        <time>2023-08-23T09:48:00Z</time>
      </trkpt>
      <trkpt lat="58.173006987199187" lon="-5.002875030040741">
        <ele>69.349999999999994</ele>
        <time>2023-08-23T09:48:01Z</time>
      </trkpt>
      <trkpt lat="58.173082005232573" lon="-5.0028339587152">
        <ele>68.870000000000005</ele>
        <time>2023-08-23T09:48:02Z</time>
      </trkpt>
      <trkpt lat="58.173175966367126" lon="-5.002781990915537">
        <ele>68.870000000000005</ele>
        <time>2023-08-23T09:48:03Z</time>
      </trkpt>
      <trkpt lat="58.174012983217835" lon="-5.002392986789346">
        <ele>67.909999999999997</ele>
        <time>2023-08-23T09:48:09Z</time>
      </trkpt>
      <trkpt lat="58.174968017265201" lon="-5.002349987626076">
        <ele>68.870000000000005</ele>
        <time>2023-08-23T09:48:15Z</time>
      </trkpt>
      <trkpt lat="58.175125010311604" lon="-5.002431962639093">
        <ele>69.829999999999998</ele>
        <time>2023-08-23T09:48:16Z</time>
      </trkpt>
      <trkpt lat="58.175277980044484" lon="-5.002546040341258">
        <ele>70.790000000000006</ele>
        <time>2023-08-23T09:48:17Z</time>
      </trkpt>
      <trkpt lat="58.175429021939635" lon="-5.002660034224391">
        <ele>71.760000000000005</ele>
        <time>2023-08-23T09:48:18Z</time>
      </trkpt>
      <trkpt lat="58.175578974187374" lon="-5.00281099230051">
        <ele>73.200000000000003</ele>
        <time>2023-08-23T09:48:19Z</time>
      </trkpt>
      <trkpt lat="58.176640039309859" lon="-5.003898041322827">
        <ele>84.730000000000004</ele>
        <time>2023-08-23T09:48:26Z</time>
      </trkpt>
      <trkpt lat="58.17679401487112" lon="-5.003989990800619">
        <ele>86.659999999999997</ele>
        <time>2023-08-23T09:48:27Z</time>
      </trkpt>
      <trkpt lat="58.17694497294724" lon="-5.004079006612301">
        <ele>88.579999999999998</ele>
        <time>2023-08-23T09:48:28Z</time>
      </trkpt>
      <trkpt lat="58.17709400318563" lon="-5.004018992185593">
        <ele>90.5</ele>
        <time>2023-08-23T09:48:29Z</time>
      </trkpt>
      <trkpt lat="58.177250996232033" lon="-5.003955960273743">
        <ele>91.939999999999998</ele>
        <time>2023-08-23T09:48:30Z</time>
      </trkpt>
      <trkpt lat="58.177410000935197" lon="-5.003865016624332">
        <ele>93.390000000000001</ele>
        <time>2023-08-23T09:48:31Z</time>
      </trkpt>
      <trkpt lat="58.177562970668077" lon="-5.003696037456393">
        <ele>94.829999999999998</ele>
        <time>2023-08-23T09:48:32Z</time>
      </trkpt>
      <trkpt lat="58.178197983652353" lon="-5.003016013652086">
        <ele>99.150000000000006</ele>
        <time>2023-08-23T09:48:36Z</time>
      </trkpt>
      <trkpt lat="58.178366040810943" lon="-5.002952981740236">
        <ele>99.629999999999995</ele>
        <time>2023-08-23T09:48:37Z</time>
      </trkpt>
      <trkpt lat="58.178547006100416" lon="-5.002904031425715">
        <ele>100.59999999999999</ele>
        <time>2023-08-23T09:48:38Z</time>
      </trkpt>
      <trkpt lat="58.17872897721827" lon="-5.002940995618701">
        <ele>101.56</ele>
        <time>2023-08-23T09:48:39Z</time>
      </trkpt>
      <trkpt lat="58.178908014670014" lon="-5.003016013652086">
        <ele>102.52</ele>
        <time>2023-08-23T09:48:40Z</time>
      </trkpt>
      <trkpt lat="58.179090991616249" lon="-5.003092037513852">
        <ele>103.95999999999999</ele>
        <time>2023-08-23T09:48:41Z</time>
      </trkpt>
      <trkpt lat="58.179445965215564" lon="-5.00324098393321">
        <ele>106.36</ele>
        <time>2023-08-23T09:48:43Z</time>
      </trkpt>
      <trkpt lat="58.179617961868644" lon="-5.003322958946228">
        <ele>108.29000000000001</ele>
        <time>2023-08-23T09:48:44Z</time>
      </trkpt>
      <trkpt lat="58.179772021248937" lon="-5.003487998619676">
        <ele>109.73</ele>
        <time>2023-08-23T09:48:45Z</time>
      </trkpt>
      <trkpt lat="58.179921973496675" lon="-5.003683967515826">
        <ele>111.65000000000001</ele>
        <time>2023-08-23T09:48:46Z</time>
      </trkpt>
      <trkpt lat="58.180050970986485" lon="-5.003932993859053">
        <ele>113.09</ele>
        <time>2023-08-23T09:48:47Z</time>
      </trkpt>
      <trkpt lat="58.180183991789818" lon="-5.004188977181912">
        <ele>115.01000000000001</ele>
        <time>2023-08-23T09:48:48Z</time>
      </trkpt>
      <trkpt lat="58.180652037262917" lon="-5.005123978480697">
        <ele>120.3</ele>
        <time>2023-08-23T09:48:52Z</time>
      </trkpt>
      <trkpt lat="58.180787991732359" lon="-5.005253981798887">
        <ele>121.26000000000001</ele>
        <time>2023-08-23T09:48:53Z</time>
      </trkpt>
      <trkpt lat="58.180932998657227" lon="-5.005356995388866">
        <ele>122.22</ele>
        <time>2023-08-23T09:48:54Z</time>
      </trkpt>
      <trkpt lat="58.181101977825165" lon="-5.005393959581852">
        <ele>123.67</ele>
        <time>2023-08-23T09:48:55Z</time>
      </trkpt>
      <trkpt lat="58.181282021105289" lon="-5.005403012037277">
        <ele>125.11</ele>
        <time>2023-08-23T09:48:56Z</time>
      </trkpt>
      <trkpt lat="58.181469021365047" lon="-5.005405023694038">
        <ele>126.06999999999999</ele>
        <time>2023-08-23T09:48:57Z</time>
      </trkpt>
      <trkpt lat="58.183455029502511" lon="-5.005181981250644">
        <ele>144.81999999999999</ele>
        <time>2023-08-23T09:49:07Z</time>
      </trkpt>
      <trkpt lat="58.183615040034056" lon="-5.005204025655985">
        <ele>146.74000000000001</ele>
        <time>2023-08-23T09:49:08Z</time>
      </trkpt>
      <trkpt lat="58.183770021423697" lon="-5.00525800511241">
        <ele>148.66</ele>
        <time>2023-08-23T09:49:09Z</time>
      </trkpt>
      <trkpt lat="58.183918967843056" lon="-5.005335034802556">
        <ele>150.58000000000001</ele>
        <time>2023-08-23T09:49:10Z</time>
      </trkpt>
      <trkpt lat="58.184046037495136" lon="-5.005500996485353">
        <ele>152.50999999999999</ele>
        <time>2023-08-23T09:49:11Z</time>
      </trkpt>
      <trkpt lat="58.184176040813327" lon="-5.005670981481671">
        <ele>154.91</ele>
        <time>2023-08-23T09:49:12Z</time>
      </trkpt>
      <trkpt lat="58.184295985847712" lon="-5.005891006439924">
        <ele>156.83000000000001</ele>
        <time>2023-08-23T09:49:13Z</time>
      </trkpt>
      <trkpt lat="58.184401011094451" lon="-5.00613802112639">
        <ele>158.75</ele>
        <time>2023-08-23T09:49:14Z</time>
      </trkpt>
      <trkpt lat="58.184493966400623" lon="-5.006409008055925">
        <ele>160.68000000000001</ele>
        <time>2023-08-23T09:49:15Z</time>
      </trkpt>
      <trkpt lat="58.184552974998951" lon="-5.006711008027196">
        <ele>163.08000000000001</ele>
        <time>2023-08-23T09:49:16Z</time>
      </trkpt>
      <trkpt lat="58.18489202298224" lon="-5.008192006498575">
        <ele>173.66</ele>
        <time>2023-08-23T09:49:21Z</time>
      </trkpt>
      <trkpt lat="58.185601970180869" lon="-5.00981499440968">
        <ele>182.31</ele>
        <time>2023-08-23T09:49:27Z</time>
      </trkpt>
      <trkpt lat="58.186911977827549" lon="-5.011277971789241">
        <ele>194.80000000000001</ele>
        <time>2023-08-23T09:49:35Z</time>
      </trkpt>
      <trkpt lat="58.188247969374061" lon="-5.012787971645594">
        <ele>206.34</ele>
        <time>2023-08-23T09:49:43Z</time>
      </trkpt>
      <trkpt lat="58.188765970990062" lon="-5.013305973261595">
        <ele>211.15000000000001</ele>
        <time>2023-08-23T09:49:46Z</time>
      </trkpt>
      <trkpt lat="58.188905026763678" lon="-5.013532033190131">
        <ele>212.59</ele>
        <time>2023-08-23T09:49:47Z</time>
      </trkpt>
      <trkpt lat="58.189430991187692" lon="-5.014293026179075">
        <ele>219.31999999999999</ele>
        <time>2023-08-23T09:49:51Z</time>
      </trkpt>
      <trkpt lat="58.189586978405714" lon="-5.014383969828486">
        <ele>220.75999999999999</ele>
        <time>2023-08-23T09:49:52Z</time>
      </trkpt>
      <trkpt lat="58.18972896784544" lon="-5.01443300396204">
        <ele>222.19999999999999</ele>
        <time>2023-08-23T09:49:53Z</time>
      </trkpt>
      <trkpt lat="58.189872968941927" lon="-5.014394028112292">
        <ele>223.63999999999999</ele>
        <time>2023-08-23T09:49:54Z</time>
      </trkpt>
      <trkpt lat="58.190029039978981" lon="-5.014344993978739">
        <ele>225.09</ele>
        <time>2023-08-23T09:49:55Z</time>
      </trkpt>
      <trkpt lat="58.190189972519875" lon="-5.014241980388761">
        <ele>227.00999999999999</ele>
        <time>2023-08-23T09:49:56Z</time>
      </trkpt>
      <trkpt lat="58.190360963344574" lon="-5.01413200981915">
        <ele>228.44999999999999</ele>
        <time>2023-08-23T09:49:57Z</time>
      </trkpt>
      <trkpt lat="58.192009013146162" lon="-5.013332962989807">
        <ele>242.38999999999999</ele>
        <time>2023-08-23T09:50:06Z</time>
      </trkpt>
      <trkpt lat="58.193324971944094" lon="-5.012411959469318">
        <ele>249.59999999999999</ele>
        <time>2023-08-23T09:50:14Z</time>
      </trkpt>
      <trkpt lat="58.194474969059229" lon="-5.0112300273031">
        <ele>252.96000000000001</ele>
        <time>2023-08-23T09:50:20Z</time>
      </trkpt>
      <trkpt lat="58.194685019552708" lon="-5.011122990399599">
        <ele>252.96000000000001</ele>
        <time>2023-08-23T09:50:21Z</time>
      </trkpt>
      <trkpt lat="58.196379002183676" lon="-5.010442966595292">
        <ele>257.29000000000002</ele>
        <time>2023-08-23T09:50:29Z</time>
      </trkpt>
      <trkpt lat="58.198504988104105" lon="-5.010238029062748">
        <ele>257.29000000000002</ele>
        <time>2023-08-23T09:50:39Z</time>
      </trkpt>
      <trkpt lat="58.199062971398234" lon="-5.010149013251066">
        <ele>257.76999999999998</ele>
        <time>2023-08-23T09:50:42Z</time>
      </trkpt>
      <trkpt lat="58.199236979708076" lon="-5.010082963854075">
        <ele>258.25</ele>
        <time>2023-08-23T09:50:43Z</time>
      </trkpt>
      <trkpt lat="58.199404031038284" lon="-5.009941980242729">
        <ele>258.73000000000002</ele>
        <time>2023-08-23T09:50:44Z</time>
      </trkpt>
      <trkpt lat="58.199559012427926" lon="-5.009774006903172">
        <ele>259.20999999999998</ele>
        <time>2023-08-23T09:50:45Z</time>
      </trkpt>
      <trkpt lat="58.199693039059639" lon="-5.009560016915202">
        <ele>259.20999999999998</ele>
        <time>2023-08-23T09:50:46Z</time>
      </trkpt>
      <trkpt lat="58.199808960780501" lon="-5.009305961430073">
        <ele>259.20999999999998</ele>
        <time>2023-08-23T09:50:47Z</time>
      </trkpt>
      <trkpt lat="58.19991298019886" lon="-5.00901997089386">
        <ele>259.20999999999998</ele>
        <time>2023-08-23T09:50:48Z</time>
      </trkpt>
      <trkpt lat="58.2000180054456" lon="-5.008729035034776">
        <ele>259.20999999999998</ele>
        <time>2023-08-23T09:50:49Z</time>
      </trkpt>
      <trkpt lat="58.200455959886312" lon="-5.007694959640503">
        <ele>259.69</ele>
        <time>2023-08-23T09:50:53Z</time>
      </trkpt>
      <trkpt lat="58.200582023710012" lon="-5.007502008229494">
        <ele>260.17000000000002</ele>
        <time>2023-08-23T09:50:54Z</time>
      </trkpt>
      <trkpt lat="58.200743962079287" lon="-5.007422966882587">
        <ele>260.17000000000002</ele>
        <time>2023-08-23T09:50:55Z</time>
      </trkpt>
      <trkpt lat="58.200917970389128" lon="-5.007346021011472">
        <ele>260.64999999999998</ele>
        <time>2023-08-23T09:50:56Z</time>
      </trkpt>
      <trkpt lat="58.201102036982775" lon="-5.007264968007803">
        <ele>261.13999999999999</ele>
        <time>2023-08-23T09:50:57Z</time>
      </trkpt>
      <trkpt lat="58.201491963118315" lon="-5.007092971354723">
        <ele>262.10000000000002</ele>
        <time>2023-08-23T09:50:59Z</time>
      </trkpt>
      <trkpt lat="58.202236024662852" lon="-5.006831958889961">
        <ele>263.06</ele>
        <time>2023-08-23T09:51:03Z</time>
      </trkpt>
      <trkpt lat="58.202420007437468" lon="-5.00684997998178">
        <ele>263.54000000000002</ele>
        <time>2023-08-23T09:51:04Z</time>
      </trkpt>
      <trkpt lat="58.202960975468159" lon="-5.006964979693294">
        <ele>264.98000000000002</ele>
        <time>2023-08-23T09:51:07Z</time>
      </trkpt>
      <trkpt lat="58.203126015141606" lon="-5.006942013278604">
        <ele>265.45999999999998</ele>
        <time>2023-08-23T09:51:08Z</time>
      </trkpt>
      <trkpt lat="58.20328401401639" lon="-5.006862971931696">
        <ele>265.45999999999998</ele>
        <time>2023-08-23T09:51:09Z</time>
      </trkpt>
      <trkpt lat="58.203441007062793" lon="-5.006723999977112">
        <ele>266.42000000000002</ele>
        <time>2023-08-23T09:51:10Z</time>
      </trkpt>
      <trkpt lat="58.203604035079479" lon="-5.006575975567102">
        <ele>266.89999999999998</ele>
        <time>2023-08-23T09:51:11Z</time>
      </trkpt>
      <trkpt lat="58.203762033954263" lon="-5.006383024156094">
        <ele>267.38</ele>
        <time>2023-08-23T09:51:12Z</time>
      </trkpt>
      <trkpt lat="58.205135995522141" lon="-5.005073016509414">
        <ele>271.23000000000002</ele>
        <time>2023-08-23T09:51:20Z</time>
      </trkpt>
      <trkpt lat="58.206204017624259" lon="-5.004616035148501">
        <ele>274.11000000000001</ele>
        <time>2023-08-23T09:51:27Z</time>
      </trkpt>
      <trkpt lat="58.206345001235604" lon="-5.004474967718124">
        <ele>274.11000000000001</ele>
        <time>2023-08-23T09:51:28Z</time>
      </trkpt>
      <trkpt lat="58.206483973190188" lon="-5.00429299660027">
        <ele>274.58999999999997</ele>
        <time>2023-08-23T09:51:29Z</time>
      </trkpt>
      <trkpt lat="58.206608025357127" lon="-5.004071965813637">
        <ele>274.11000000000001</ele>
        <time>2023-08-23T09:51:30Z</time>
      </trkpt>
      <trkpt lat="58.206732999533415" lon="-5.003811037167907">
        <ele>274.11000000000001</ele>
        <time>2023-08-23T09:51:31Z</time>
      </trkpt>
      <trkpt lat="58.206865014508367" lon="-5.00353803858161">
        <ele>273.63</ele>
        <time>2023-08-23T09:51:32Z</time>
      </trkpt>
      <trkpt lat="58.207291988655925" lon="-5.002758018672466">
        <ele>272.67000000000002</ele>
        <time>2023-08-23T09:51:35Z</time>
      </trkpt>
      <trkpt lat="58.207440013065934" lon="-5.002517038956285">
        <ele>272.19</ele>
        <time>2023-08-23T09:51:36Z</time>
      </trkpt>
      <trkpt lat="58.207619972527027" lon="-5.002372032031417">
        <ele>272.19</ele>
        <time>2023-08-23T09:51:37Z</time>
      </trkpt>
      <trkpt lat="58.207807978615165" lon="-5.002235993742943">
        <ele>271.70999999999998</ele>
        <time>2023-08-23T09:51:38Z</time>
      </trkpt>
      <trkpt lat="58.207992967218161" lon="-5.002100961282849">
        <ele>271.70999999999998</ele>
        <time>2023-08-23T09:51:39Z</time>
      </trkpt>
      <trkpt lat="58.208173010498285" lon="-5.001971963793039">
        <ele>271.70999999999998</ele>
        <time>2023-08-23T09:51:40Z</time>
      </trkpt>
      <trkpt lat="58.208346012979746" lon="-5.001827040687203">
        <ele>271.23000000000002</ele>
        <time>2023-08-23T09:51:41Z</time>
      </trkpt>
      <trkpt lat="58.208502000197768" lon="-5.001622019335628">
        <ele>270.75</ele>
        <time>2023-08-23T09:51:42Z</time>
      </trkpt>
      <trkpt lat="58.209897000342607" lon="-4.99988503754139">
        <ele>267.86000000000001</ele>
        <time>2023-08-23T09:51:50Z</time>
      </trkpt>
      <trkpt lat="58.210091963410378" lon="-4.999769032001495">
        <ele>267.38</ele>
        <time>2023-08-23T09:51:51Z</time>
      </trkpt>
      <trkpt lat="58.212421964854002" lon="-4.998374031856656">
        <ele>256.81</ele>
        <time>2023-08-23T09:52:03Z</time>
      </trkpt>
      <trkpt lat="58.214852968230844" lon="-4.997466020286083">
        <ele>249.12</ele>
        <time>2023-08-23T09:52:15Z</time>
      </trkpt>
      <trkpt lat="58.215958038344979" lon="-4.997134013101459">
        <ele>245.75</ele>
        <time>2023-08-23T09:52:22Z</time>
      </trkpt>
      <trkpt lat="58.216083012521267" lon="-4.997167959809303">
        <ele>245.27000000000001</ele>
        <time>2023-08-23T09:52:23Z</time>
      </trkpt>
      <trkpt lat="58.216196000576019" lon="-4.997240966185927">
        <ele>244.31</ele>
        <time>2023-08-23T09:52:24Z</time>
      </trkpt>
      <trkpt lat="58.216276969760656" lon="-4.997379016131163">
        <ele>243.34999999999999</ele>
        <time>2023-08-23T09:52:25Z</time>
      </trkpt>
      <trkpt lat="58.216332960873842" lon="-4.99754598364234">
        <ele>242.87</ele>
        <time>2023-08-23T09:52:26Z</time>
      </trkpt>
      <trkpt lat="58.216362968087196" lon="-4.99773901887238">
        <ele>241.91</ele>
        <time>2023-08-23T09:52:27Z</time>
      </trkpt>
      <trkpt lat="58.216373026371002" lon="-4.997958038002253">
        <ele>240.94999999999999</ele>
        <time>2023-08-23T09:52:28Z</time>
      </trkpt>
      <trkpt lat="58.216346958652139" lon="-4.998189965263009">
        <ele>239.99000000000001</ele>
        <time>2023-08-23T09:52:29Z</time>
      </trkpt>
      <trkpt lat="58.216312006115913" lon="-4.998436979949474">
        <ele>239.02000000000001</ele>
        <time>2023-08-23T09:52:30Z</time>
      </trkpt>
      <trkpt lat="58.216274958103895" lon="-4.998698998242617">
        <ele>237.58000000000001</ele>
        <time>2023-08-23T09:52:31Z</time>
      </trkpt>
      <trkpt lat="58.216087035834789" lon="-5.000027026981115">
        <ele>229.88999999999999</ele>
        <time>2023-08-23T09:52:36Z</time>
      </trkpt>
      <trkpt lat="58.216098016127944" lon="-5.00025199726224">
        <ele>228.44999999999999</ele>
        <time>2023-08-23T09:52:37Z</time>
      </trkpt>
      <trkpt lat="58.216116959229112" lon="-5.000459030270577">
        <ele>226.53</ele>
        <time>2023-08-23T09:52:38Z</time>
      </trkpt>
      <trkpt lat="58.216146966442466" lon="-5.000575035810471">
        <ele>225.09</ele>
        <time>2023-08-23T09:52:39Z</time>
      </trkpt>
      <trkpt lat="58.216215027496219" lon="-5.000684000551701">
        <ele>223.16</ele>
        <time>2023-08-23T09:52:40Z</time>
      </trkpt>
      <trkpt lat="58.21626297198236" lon="-5.000719036906958">
        <ele>222.19999999999999</ele>
        <time>2023-08-23T09:52:41Z</time>
      </trkpt>
      <trkpt lat="58.216338995844126" lon="-5.000740997493267">
        <ele>220.75999999999999</ele>
        <time>2023-08-23T09:52:42Z</time>
      </trkpt>
      <trkpt lat="58.216381995007396" lon="-5.000752983614802">
        <ele>219.80000000000001</ele>
        <time>2023-08-23T09:52:43Z</time>
      </trkpt>
      <trkpt lat="58.21645500138402" lon="-5.000680983066559">
        <ele>218.84</ele>
        <time>2023-08-23T09:52:44Z</time>
      </trkpt>
      <trkpt lat="58.21652096696198" lon="-5.000614011660218">
        <ele>217.40000000000001</ele>
        <time>2023-08-23T09:52:45Z</time>
      </trkpt>
      <trkpt lat="58.216565977782011" lon="-5.000524995848537">
        <ele>215.94999999999999</ele>
        <time>2023-08-23T09:52:46Z</time>
      </trkpt>
      <trkpt lat="58.21660503745079" lon="-5.000341013073921">
        <ele>214.99000000000001</ele>
        <time>2023-08-23T09:52:47Z</time>
      </trkpt>
      <trkpt lat="58.21664703078568" lon="-5.00014403834939">
        <ele>213.55000000000001</ele>
        <time>2023-08-23T09:52:48Z</time>
      </trkpt>
      <trkpt lat="58.216692041605711" lon="-4.999935999512672">
        <ele>212.11000000000001</ele>
        <time>2023-08-23T09:52:49Z</time>
      </trkpt>
      <trkpt lat="58.216781979426742" lon="-4.999514976516366">
        <ele>210.19</ele>
        <time>2023-08-23T09:52:51Z</time>
      </trkpt>
      <trkpt lat="58.216845011338592" lon="-4.999311966821551">
        <ele>209.22</ele>
        <time>2023-08-23T09:52:52Z</time>
      </trkpt>
      <trkpt lat="58.216924974694848" lon="-4.999152040109038">
        <ele>208.25999999999999</ele>
        <time>2023-08-23T09:52:53Z</time>
      </trkpt>
      <trkpt lat="58.217029999941587" lon="-4.999029999598861">
        <ele>207.30000000000001</ele>
        <time>2023-08-23T09:52:54Z</time>
      </trkpt>
      <trkpt lat="58.217146005481482" lon="-4.998946012929082">
        <ele>206.34</ele>
        <time>2023-08-23T09:52:55Z</time>
      </trkpt>
      <trkpt lat="58.217270979657769" lon="-4.998892033472657">
        <ele>205.38</ele>
        <time>2023-08-23T09:52:56Z</time>
      </trkpt>
      <trkpt lat="58.217404000461102" lon="-4.998862026259303">
        <ele>203.94</ele>
        <time>2023-08-23T09:52:57Z</time>
      </trkpt>
      <trkpt lat="58.217539032921195" lon="-4.998832019045949">
        <ele>202.97999999999999</ele>
        <time>2023-08-23T09:52:58Z</time>
      </trkpt>
      <trkpt lat="58.217819994315505" lon="-4.99876999296248">
        <ele>201.53</ele>
        <time>2023-08-23T09:53:00Z</time>
      </trkpt>
      <trkpt lat="58.21795997209847" lon="-4.998738979920745">
        <ele>200.09</ele>
        <time>2023-08-23T09:53:01Z</time>
      </trkpt>
      <trkpt lat="58.218092992901802" lon="-4.998612999916077">
        <ele>198.65000000000001</ele>
        <time>2023-08-23T09:53:02Z</time>
      </trkpt>
      <trkpt lat="58.218229031190276" lon="-4.998476961627603">
        <ele>197.21000000000001</ele>
        <time>2023-08-23T09:53:03Z</time>
      </trkpt>
      <trkpt lat="58.218363979831338" lon="-4.998310999944806">
        <ele>195.77000000000001</ele>
        <time>2023-08-23T09:53:04Z</time>
      </trkpt>
      <trkpt lat="58.218504963442683" lon="-4.998132968321443">
        <ele>194.80000000000001</ele>
        <time>2023-08-23T09:53:05Z</time>
      </trkpt>
      <trkpt lat="58.219063030555844" lon="-4.997570039704442">
        <ele>189.03999999999999</ele>
        <time>2023-08-23T09:53:09Z</time>
      </trkpt>
      <trkpt lat="58.219210971146822" lon="-4.997508013620973">
        <ele>187.59</ele>
        <time>2023-08-23T09:53:10Z</time>
      </trkpt>
      <trkpt lat="58.219352960586548" lon="-4.997492004185915">
        <ele>186.15000000000001</ele>
        <time>2023-08-23T09:53:11Z</time>
      </trkpt>
      <trkpt lat="58.219502996653318" lon="-4.997551012784243">
        <ele>184.71000000000001</ele>
        <time>2023-08-23T09:53:12Z</time>
      </trkpt>
      <trkpt lat="58.21965697221458" lon="-4.997613038867712">
        <ele>183.27000000000001</ele>
        <time>2023-08-23T09:53:13Z</time>
      </trkpt>
      <trkpt lat="58.219809019938111" lon="-4.997710017487407">
        <ele>181.83000000000001</ele>
        <time>2023-08-23T09:53:14Z</time>
      </trkpt>
      <trkpt lat="58.219962995499372" lon="-4.997841026633978">
        <ele>180.38</ele>
        <time>2023-08-23T09:53:15Z</time>
      </trkpt>
      <trkpt lat="58.221472995355725" lon="-4.999003009870648">
        <ele>172.69</ele>
        <time>2023-08-23T09:53:24Z</time>
      </trkpt>
      <trkpt lat="58.222329961135983" lon="-4.999598041176796">
        <ele>171.72999999999999</ele>
        <time>2023-08-23T09:53:29Z</time>
      </trkpt>
      <trkpt lat="58.222486032173038" lon="-4.999770037829876">
        <ele>172.21000000000001</ele>
        <time>2023-08-23T09:53:30Z</time>
      </trkpt>
      <trkpt lat="58.222616035491228" lon="-5.000000959262252">
        <ele>172.21000000000001</ele>
        <time>2023-08-23T09:53:31Z</time>
      </trkpt>
      <trkpt lat="58.2227280177176" lon="-5.0002730358392">
        <ele>172.21000000000001</ele>
        <time>2023-08-23T09:53:32Z</time>
      </trkpt>
      <trkpt lat="58.222818039357662" lon="-5.000576041638851">
        <ele>172.69</ele>
        <time>2023-08-23T09:53:33Z</time>
      </trkpt>
      <trkpt lat="58.223348027095199" lon="-5.002347975969315">
        <ele>172.69</ele>
        <time>2023-08-23T09:53:39Z</time>
      </trkpt>
      <trkpt lat="58.223448023200035" lon="-5.002548974007368">
        <ele>172.21000000000001</ele>
        <time>2023-08-23T09:53:40Z</time>
      </trkpt>
      <trkpt lat="58.223547013476491" lon="-5.002674032002688">
        <ele>171.72999999999999</ele>
        <time>2023-08-23T09:53:41Z</time>
      </trkpt>
      <trkpt lat="58.223661007359624" lon="-5.00270202755928">
        <ele>171.72999999999999</ele>
        <time>2023-08-23T09:53:42Z</time>
      </trkpt>
      <trkpt lat="58.223778018727899" lon="-5.002731028944254">
        <ele>171.25</ele>
        <time>2023-08-23T09:53:43Z</time>
      </trkpt>
      <trkpt lat="58.223905004560947" lon="-5.002714013680816">
        <ele>170.77000000000001</ele>
        <time>2023-08-23T09:53:44Z</time>
      </trkpt>
      <trkpt lat="58.224040037021041" lon="-5.002627009525895">
        <ele>169.81</ele>
        <time>2023-08-23T09:53:45Z</time>
      </trkpt>
      <trkpt lat="58.224186971783638" lon="-5.00253296457231">
        <ele>168.84999999999999</ele>
        <time>2023-08-23T09:53:46Z</time>
      </trkpt>
      <trkpt lat="58.224656023085117" lon="-5.002259965986013">
        <ele>165.47999999999999</ele>
        <time>2023-08-23T09:53:49Z</time>
      </trkpt>
      <trkpt lat="58.224802035838366" lon="-5.002281004562974">
        <ele>164.52000000000001</ele>
        <time>2023-08-23T09:53:50Z</time>
      </trkpt>
      <trkpt lat="58.224932961165905" lon="-5.002309000119567">
        <ele>163.08000000000001</ele>
        <time>2023-08-23T09:53:51Z</time>
      </trkpt>
      <trkpt lat="58.225048966705799" lon="-5.002425005659461">
        <ele>161.63999999999999</ele>
        <time>2023-08-23T09:53:52Z</time>
      </trkpt>
      <trkpt lat="58.225146029144526" lon="-5.002613011747599">
        <ele>160.68000000000001</ele>
        <time>2023-08-23T09:53:53Z</time>
      </trkpt>
      <trkpt lat="58.225250970572233" lon="-5.002814009785652">
        <ele>159.72</ele>
        <time>2023-08-23T09:53:54Z</time>
      </trkpt>
      <trkpt lat="58.22582496330142" lon="-5.004029972478747">
        <ele>156.34999999999999</ele>
        <time>2023-08-23T09:53:59Z</time>
      </trkpt>
      <trkpt lat="58.226461987942457" lon="-5.005768965929747">
        <ele>155.38999999999999</ele>
        <time>2023-08-23T09:54:05Z</time>
      </trkpt>
      <trkpt lat="58.226590985432267" lon="-5.006002988666296">
        <ele>155.38999999999999</ele>
        <time>2023-08-23T09:54:06Z</time>
      </trkpt>
      <trkpt lat="58.2267240062356" lon="-5.00624698586762">
        <ele>154.91</ele>
        <time>2023-08-23T09:54:07Z</time>
      </trkpt>
      <trkpt lat="58.226869013160467" lon="-5.006374977529049">
        <ele>154.91</ele>
        <time>2023-08-23T09:54:08Z</time>
      </trkpt>
      <trkpt lat="58.227031035348773" lon="-5.006516966968775">
        <ele>154.43000000000001</ele>
        <time>2023-08-23T09:54:09Z</time>
      </trkpt>
      <trkpt lat="58.228819984942675" lon="-5.008040964603424">
        <ele>149.13999999999999</ele>
        <time>2023-08-23T09:54:19Z</time>
      </trkpt>
      <trkpt lat="58.229751968756318" lon="-5.008545974269509">
        <ele>142.88999999999999</ele>
        <time>2023-08-23T09:54:24Z</time>
      </trkpt>
      <trkpt lat="58.229910973459482" lon="-5.008687041699886">
        <ele>141.44999999999999</ele>
        <time>2023-08-23T09:54:25Z</time>
      </trkpt>
      <trkpt lat="58.230057992041111" lon="-5.008886028081179">
        <ele>140.49000000000001</ele>
        <time>2023-08-23T09:54:26Z</time>
      </trkpt>
      <trkpt lat="58.230846980586648" lon="-5.009922031313181">
        <ele>134.24000000000001</ele>
        <time>2023-08-23T09:54:31Z</time>
      </trkpt>
      <trkpt lat="58.231017971411347" lon="-5.010024039074779">
        <ele>132.80000000000001</ele>
        <time>2023-08-23T09:54:32Z</time>
      </trkpt>
      <trkpt lat="58.231186028569937" lon="-5.010125041007996">
        <ele>131.36000000000001</ele>
        <time>2023-08-23T09:54:33Z</time>
      </trkpt>
      <trkpt lat="58.231806959956884" lon="-5.010570036247373">
        <ele>125.59</ele>
        <time>2023-08-23T09:54:37Z</time>
      </trkpt>
      <trkpt lat="58.231937969103456" lon="-5.010723005980253">
        <ele>124.15000000000001</ele>
        <time>2023-08-23T09:54:38Z</time>
      </trkpt>
      <trkpt lat="58.232055986300111" lon="-5.010921992361546">
        <ele>122.70999999999999</ele>
        <time>2023-08-23T09:54:39Z</time>
      </trkpt>
      <trkpt lat="58.232618998736143" lon="-5.011946009472013">
        <ele>114.05</ele>
        <time>2023-08-23T09:54:44Z</time>
      </trkpt>
      <trkpt lat="58.232686975970864" lon="-5.012209033593535">
        <ele>112.61</ele>
        <time>2023-08-23T09:54:45Z</time>
      </trkpt>
      <trkpt lat="58.232996016740799" lon="-5.013347966596484">
        <ele>105.40000000000001</ele>
        <time>2023-08-23T09:54:49Z</time>
      </trkpt>
      <trkpt lat="58.233099030330777" lon="-5.013619037345052">
        <ele>103.48</ele>
        <time>2023-08-23T09:54:50Z</time>
      </trkpt>
      <trkpt lat="58.233216963708401" lon="-5.013832021504641">
        <ele>101.56</ele>
        <time>2023-08-23T09:54:51Z</time>
      </trkpt>
      <trkpt lat="58.233783999457955" lon="-5.014765011146665">
        <ele>91.939999999999998</ele>
        <time>2023-08-23T09:54:57Z</time>
      </trkpt>
      <trkpt lat="58.233879972249269" lon="-5.014824019744992">
        <ele>90.980000000000004</ele>
        <time>2023-08-23T09:54:58Z</time>
      </trkpt>
      <trkpt lat="58.233978040516376" lon="-5.014884034171701">
        <ele>89.540000000000006</ele>
        <time>2023-08-23T09:54:59Z</time>
      </trkpt>
      <trkpt lat="58.234078036621213" lon="-5.014944970607758">
        <ele>88.579999999999998</ele>
        <time>2023-08-23T09:55:00Z</time>
      </trkpt>
      <trkpt lat="58.234169986099005" lon="-5.015000961720944">
        <ele>87.620000000000005</ele>
        <time>2023-08-23T09:55:01Z</time>
      </trkpt>
      <trkpt lat="58.234293032437563" lon="-5.014976989477873">
        <ele>87.140000000000001</ele>
        <time>2023-08-23T09:55:02Z</time>
      </trkpt>
      <trkpt lat="58.234411971643567" lon="-5.014953017234802">
        <ele>86.180000000000007</ele>
        <time>2023-08-23T09:55:03Z</time>
      </trkpt>
      <trkpt lat="58.234530994668603" lon="-5.014898031949997">
        <ele>85.209999999999994</ele>
        <time>2023-08-23T09:55:04Z</time>
      </trkpt>
      <trkpt lat="58.234645994380116" lon="-5.014783032238483">
        <ele>84.25</ele>
        <time>2023-08-23T09:55:05Z</time>
      </trkpt>
      <trkpt lat="58.234763005748391" lon="-5.014666020870209">
        <ele>83.769999999999996</ele>
        <time>2023-08-23T09:55:06Z</time>
      </trkpt>
      <trkpt lat="58.236023979261518" lon="-5.013028029352427">
        <ele>75.120000000000005</ele>
        <time>2023-08-23T09:55:17Z</time>
      </trkpt>
      <trkpt lat="58.236106960102916" lon="-5.012831976637244">
        <ele>74.159999999999997</ele>
        <time>2023-08-23T09:55:18Z</time>
      </trkpt>
      <trkpt lat="58.236188013106585" lon="-5.012640031054616">
        <ele>73.680000000000007</ele>
        <time>2023-08-23T09:55:19Z</time>
      </trkpt>
      <trkpt lat="58.237073980271816" lon="-5.010858960449696">
        <ele>69.349999999999994</ele>
        <time>2023-08-23T09:55:29Z</time>
      </trkpt>
      <trkpt lat="58.237343961372972" lon="-5.010527959093452">
        <ele>68.870000000000005</ele>
        <time>2023-08-23T09:55:32Z</time>
      </trkpt>
      <trkpt lat="58.23742501437664" lon="-5.010470962151885">
        <ele>68.390000000000001</ele>
        <time>2023-08-23T09:55:33Z</time>
      </trkpt>
      <trkpt lat="58.2375100068748" lon="-5.010465011000633">
        <ele>68.390000000000001</ele>
        <time>2023-08-23T09:55:34Z</time>
      </trkpt>
      <trkpt lat="58.237598016858101" lon="-5.01045897603035">
        <ele>68.870000000000005</ele>
        <time>2023-08-23T09:55:35Z</time>
      </trkpt>
      <trkpt lat="58.237688960507512" lon="-5.010452019050717">
        <ele>68.390000000000001</ele>
        <time>2023-08-23T09:55:36Z</time>
      </trkpt>
      <trkpt lat="58.237780993804336" lon="-5.010498035699129">
        <ele>68.390000000000001</ele>
        <time>2023-08-23T09:55:37Z</time>
      </trkpt>
      <trkpt lat="58.237878978252411" lon="-5.010546986013651">
        <ele>67.909999999999997</ele>
        <time>2023-08-23T09:55:38Z</time>
      </trkpt>
      <trkpt lat="58.238338977098465" lon="-5.010698027908802">
        <ele>67.909999999999997</ele>
        <time>2023-08-23T09:55:42Z</time>
      </trkpt>
      <trkpt lat="58.238466968759894" lon="-5.010704984888434">
        <ele>67.909999999999997</ele>
        <time>2023-08-23T09:55:43Z</time>
      </trkpt>
      <trkpt lat="58.238597977906466" lon="-5.010692998766899">
        <ele>67.909999999999997</ele>
        <time>2023-08-23T09:55:44Z</time>
      </trkpt>
      <trkpt lat="58.238730998709798" lon="-5.010646982118487">
        <ele>67.909999999999997</ele>
        <time>2023-08-23T09:55:45Z</time>
      </trkpt>
      <trkpt lat="58.238867036998272" lon="-5.010599959641695">
        <ele>67.909999999999997</ele>
        <time>2023-08-23T09:55:46Z</time>
      </trkpt>
      <trkpt lat="58.240295983850956" lon="-5.009812982752919">
        <ele>66.950000000000003</ele>
        <time>2023-08-23T09:55:56Z</time>
      </trkpt>
      <trkpt lat="58.241737000644207" lon="-5.008059991523624">
        <ele>58.780000000000001</ele>
        <time>2023-08-23T09:56:07Z</time>
      </trkpt>
      <trkpt lat="58.242111001163721" lon="-5.007562022656202">
        <ele>55.409999999999997</ele>
        <time>2023-08-23T09:56:10Z</time>
      </trkpt>
      <trkpt lat="58.242222983390093" lon="-5.007355995476246">
        <ele>53.969999999999999</ele>
        <time>2023-08-23T09:56:11Z</time>
      </trkpt>
      <trkpt lat="58.243200983852148" lon="-5.005176030099392">
        <ele>40.509999999999998</ele>
        <time>2023-08-23T09:56:20Z</time>
      </trkpt>
      <trkpt lat="58.243331992998719" lon="-5.005010990425944">
        <ele>39.549999999999997</ele>
        <time>2023-08-23T09:56:21Z</time>
      </trkpt>
      <trkpt lat="58.244190970435739" lon="-5.003996025770903">
        <ele>33.299999999999997</ele>
        <time>2023-08-23T09:56:28Z</time>
      </trkpt>
      <trkpt lat="58.244319967925549" lon="-5.003936011344194">
        <ele>32.82</ele>
        <time>2023-08-23T09:56:29Z</time>
      </trkpt>
      <trkpt lat="58.244447037577629" lon="-5.003892006352544">
        <ele>31.859999999999999</ele>
        <time>2023-08-23T09:56:30Z</time>
      </trkpt>
      <trkpt lat="58.244573017582297" lon="-5.00392796471715">
        <ele>31.379999999999999</ele>
        <time>2023-08-23T09:56:31Z</time>
      </trkpt>
      <trkpt lat="58.244694974273443" lon="-5.003963001072407">
        <ele>30.899999999999999</ele>
        <time>2023-08-23T09:56:32Z</time>
      </trkpt>
      <trkpt lat="58.244813997298479" lon="-5.004084035754204">
        <ele>30.420000000000002</ele>
        <time>2023-08-23T09:56:33Z</time>
      </trkpt>
      <trkpt lat="58.244930002838373" lon="-5.004233988001943">
        <ele>29.940000000000001</ele>
        <time>2023-08-23T09:56:34Z</time>
      </trkpt>
      <trkpt lat="58.245048020035028" lon="-5.004387041553855">
        <ele>29.460000000000001</ele>
        <time>2023-08-23T09:56:35Z</time>
      </trkpt>
      <trkpt lat="58.24541699141264" lon="-5.004864977672696">
        <ele>27.530000000000001</ele>
        <time>2023-08-23T09:56:38Z</time>
      </trkpt>
      <trkpt lat="58.24554699473083" lon="-5.004946030676365">
        <ele>27.050000000000001</ele>
        <time>2023-08-23T09:56:39Z</time>
      </trkpt>
      <trkpt lat="58.245686972513795" lon="-5.004992969334126">
        <ele>26.09</ele>
        <time>2023-08-23T09:56:40Z</time>
      </trkpt>
      <trkpt lat="58.245842959731817" lon="-5.005045020952821">
        <ele>25.609999999999999</ele>
        <time>2023-08-23T09:56:41Z</time>
      </trkpt>
      <trkpt lat="58.245967011898756" lon="-5.004987018182874">
        <ele>25.129999999999999</ele>
        <time>2023-08-23T09:56:42Z</time>
      </trkpt>
      <trkpt lat="58.246114030480385" lon="-5.004918035119772">
        <ele>25.129999999999999</ele>
        <time>2023-08-23T09:56:43Z</time>
      </trkpt>
      <trkpt lat="58.246264988556504" lon="-5.004847962409258">
        <ele>24.649999999999999</ele>
        <time>2023-08-23T09:56:44Z</time>
      </trkpt>
      <trkpt lat="58.246576962992549" lon="-5.004723994061351">
        <ele>23.690000000000001</ele>
        <time>2023-08-23T09:56:46Z</time>
      </trkpt>
      <trkpt lat="58.246733034029603" lon="-5.004688035696745">
        <ele>23.210000000000001</ele>
        <time>2023-08-23T09:56:47Z</time>
      </trkpt>
      <trkpt lat="58.246892038732767" lon="-5.004735980182886">
        <ele>22.73</ele>
        <time>2023-08-23T09:56:48Z</time>
      </trkpt>
      <trkpt lat="58.247048025950789" lon="-5.004805969074369">
        <ele>22.73</ele>
        <time>2023-08-23T09:56:49Z</time>
      </trkpt>
      <trkpt lat="58.247205018997192" lon="-5.004892973229289">
        <ele>22.25</ele>
        <time>2023-08-23T09:56:50Z</time>
      </trkpt>
      <trkpt lat="58.247353965416551" lon="-5.005006967112422">
        <ele>22.25</ele>
        <time>2023-08-23T09:56:51Z</time>
      </trkpt>
      <trkpt lat="58.248203974217176" lon="-5.006026038900018">
        <ele>22.25</ele>
        <time>2023-08-23T09:56:58Z</time>
      </trkpt>
      <trkpt lat="58.249359000474215" lon="-5.007761009037495">
        <ele>25.129999999999999</ele>
        <time>2023-08-23T09:57:09Z</time>
      </trkpt>
      <trkpt lat="58.249873984605074" lon="-5.009100018069148">
        <ele>30.420000000000002</ele>
        <time>2023-08-23T09:57:15Z</time>
      </trkpt>
      <trkpt lat="58.249904997646809" lon="-5.009356001392007">
        <ele>31.859999999999999</ele>
        <time>2023-08-23T09:57:16Z</time>
      </trkpt>
      <trkpt lat="58.249937016516924" lon="-5.009618019685149">
        <ele>33.299999999999997</ele>
        <time>2023-08-23T09:57:17Z</time>
      </trkpt>
      <trkpt lat="58.250171961262822" lon="-5.012767016887665">
        <ele>50.130000000000003</ele>
        <time>2023-08-23T09:57:28Z</time>
      </trkpt>
      <trkpt lat="58.250842010602355" lon="-5.016428986564279">
        <ele>58.780000000000001</ele>
        <time>2023-08-23T09:57:40Z</time>
      </trkpt>
      <trkpt lat="58.250933038070798" lon="-5.016683964058757">
        <ele>59.259999999999998</ele>
        <time>2023-08-23T09:57:41Z</time>
      </trkpt>
      <trkpt lat="58.251026999205351" lon="-5.01694799400866">
        <ele>59.259999999999998</ele>
        <time>2023-08-23T09:57:42Z</time>
      </trkpt>
      <trkpt lat="58.251759996637702" lon="-5.019242959097028">
        <ele>54.450000000000003</ele>
        <time>2023-08-23T09:57:50Z</time>
      </trkpt>
      <trkpt lat="58.252521995455027" lon="-5.021295016631484">
        <ele>43.880000000000003</ele>
        <time>2023-08-23T09:57:59Z</time>
      </trkpt>
      <trkpt lat="58.252629032358527" lon="-5.021474976092577">
        <ele>42.439999999999998</ele>
        <time>2023-08-23T09:58:00Z</time>
      </trkpt>
      <trkpt lat="58.25274302624166" lon="-5.021641021594405">
        <ele>40.990000000000002</ele>
        <time>2023-08-23T09:58:01Z</time>
      </trkpt>
      <trkpt lat="58.25287202373147" lon="-5.021793991327286">
        <ele>40.030000000000001</ele>
        <time>2023-08-23T09:58:02Z</time>
      </trkpt>
      <trkpt lat="58.253007978200912" lon="-5.02193103544414">
        <ele>39.07</ele>
        <time>2023-08-23T09:58:03Z</time>
      </trkpt>
      <trkpt lat="58.253148961812258" lon="-5.022071013227105">
        <ele>38.109999999999999</ele>
        <time>2023-08-23T09:58:04Z</time>
      </trkpt>
      <trkpt lat="58.254057979211211" lon="-5.022486001253128">
        <ele>33.780000000000001</ele>
        <time>2023-08-23T09:58:10Z</time>
      </trkpt>
      <trkpt lat="58.254207009449601" lon="-5.022504022344947">
        <ele>33.780000000000001</ele>
        <time>2023-08-23T09:58:11Z</time>
      </trkpt>
      <trkpt lat="58.254356039687991" lon="-5.022491030395031">
        <ele>33.780000000000001</ele>
        <time>2023-08-23T09:58:12Z</time>
      </trkpt>
      <trkpt lat="58.255434036254883" lon="-5.022304030135274">
        <ele>37.149999999999999</ele>
        <time>2023-08-23T09:58:20Z</time>
      </trkpt>
      <trkpt lat="58.256428968161345" lon="-5.022793030366302">
        <ele>40.509999999999998</ele>
        <time>2023-08-23T09:58:28Z</time>
      </trkpt>
      <trkpt lat="58.257503025233746" lon="-5.024223988875747">
        <ele>42.920000000000002</ele>
        <time>2023-08-23T09:58:38Z</time>
      </trkpt>
      <trkpt lat="58.257595980539918" lon="-5.024395985528827">
        <ele>42.920000000000002</ele>
        <time>2023-08-23T09:58:39Z</time>
      </trkpt>
      <trkpt lat="58.257670998573303" lon="-5.024594971910119">
        <ele>42.920000000000002</ele>
        <time>2023-08-23T09:58:40Z</time>
      </trkpt>
      <trkpt lat="58.257724978029728" lon="-5.024816002696753">
        <ele>42.920000000000002</ele>
        <time>2023-08-23T09:58:41Z</time>
      </trkpt>
      <trkpt lat="58.257779041305184" lon="-5.025039967149496">
        <ele>42.920000000000002</ele>
        <time>2023-08-23T09:58:42Z</time>
      </trkpt>
      <trkpt lat="58.257810976356268" lon="-5.025268038734794">
        <ele>43.399999999999999</ele>
        <time>2023-08-23T09:58:43Z</time>
      </trkpt>
      <trkpt lat="58.25783402658999" lon="-5.025506000965834">
        <ele>43.880000000000003</ele>
        <time>2023-08-23T09:58:44Z</time>
      </trkpt>
      <trkpt lat="58.257855987176299" lon="-5.025737006217241">
        <ele>43.880000000000003</ele>
        <time>2023-08-23T09:58:45Z</time>
      </trkpt>
      <trkpt lat="58.257846012711525" lon="-5.025956025347114">
        <ele>43.880000000000003</ele>
        <time>2023-08-23T09:58:46Z</time>
      </trkpt>
      <trkpt lat="58.257831009104848" lon="-5.026166997849941">
        <ele>43.880000000000003</ele>
        <time>2023-08-23T09:58:47Z</time>
      </trkpt>
      <trkpt lat="58.257818017154932" lon="-5.026355003938079">
        <ele>43.880000000000003</ele>
        <time>2023-08-23T09:58:48Z</time>
      </trkpt>
      <trkpt lat="58.257807036861777" lon="-5.026505962014198">
        <ele>43.880000000000003</ele>
        <time>2023-08-23T09:58:49Z</time>
      </trkpt>
      <trkpt lat="58.25779496692121" lon="-5.026674019172788">
        <ele>43.880000000000003</ele>
        <time>2023-08-23T09:58:50Z</time>
      </trkpt>
      <trkpt lat="58.257780969142914" lon="-5.026726992800832">
        <ele>43.399999999999999</ele>
        <time>2023-08-23T09:58:51Z</time>
      </trkpt>
      <trkpt lat="58.257762026041746" lon="-5.026797987520695">
        <ele>43.399999999999999</ele>
        <time>2023-08-23T09:58:52Z</time>
      </trkpt>
      <trkpt lat="58.257744004949927" lon="-5.026865964755416">
        <ele>42.920000000000002</ele>
        <time>2023-08-23T09:58:53Z</time>
      </trkpt>
      <trkpt lat="58.257725983858109" lon="-5.026934025809169">
        <ele>42.920000000000002</ele>
        <time>2023-08-23T09:58:54Z</time>
      </trkpt>
      <trkpt lat="58.257710980251431" lon="-5.026988005265594">
        <ele>42.920000000000002</ele>
        <time>2023-08-23T09:58:55Z</time>
      </trkpt>
      <trkpt lat="58.257506964728236" lon="-5.026749037206173">
        <ele>40.509999999999998</ele>
        <time>2023-08-23T09:59:00Z</time>
      </trkpt>
      <trkpt lat="58.257558010518551" lon="-5.026706038042903">
        <ele>40.030000000000001</ele>
        <time>2023-08-23T09:59:16Z</time>
      </trkpt>
      <trkpt lat="58.257558010518551" lon="-5.026706038042903">
        <ele>40.030000000000001</ele>
        <time>2023-08-23T09:59:17Z</time>
      </trkpt>
      <trkpt lat="58.257571002468467" lon="-5.026831012219191">
        <ele>40.030000000000001</ele>
        <time>2023-08-23T09:59:21Z</time>
      </trkpt>
      <trkpt lat="58.2576659694314" lon="-5.027160001918674">
        <ele>39.549999999999997</ele>
        <time>2023-08-23T09:59:25Z</time>
      </trkpt>
      <trkpt lat="58.25762297026813" lon="-5.027318000793457">
        <ele>39.07</ele>
        <time>2023-08-23T09:59:32Z</time>
      </trkpt>
      <trkpt lat="58.257521968334913" lon="-5.02751799300313">
        <ele>38.590000000000003</ele>
        <time>2023-08-23T09:59:33Z</time>
      </trkpt>
      <trkpt lat="58.257478969171643" lon="-5.027602985501289">
        <ele>38.590000000000003</ele>
        <time>2023-08-23T09:59:34Z</time>
      </trkpt>
      <trkpt lat="58.257420966401696" lon="-5.027716979384422">
        <ele>39.07</ele>
        <time>2023-08-23T09:59:35Z</time>
      </trkpt>
      <trkpt lat="58.257346032187343" lon="-5.027863997966051">
        <ele>39.549999999999997</ele>
        <time>2023-08-23T09:59:36Z</time>
      </trkpt>
      <trkpt lat="58.256850996986032" lon="-5.028841998428106">
        <ele>39.549999999999997</ele>
        <time>2023-08-23T09:59:42Z</time>
      </trkpt>
      <trkpt lat="58.256751000881195" lon="-5.029140980914235">
        <ele>40.030000000000001</ele>
        <time>2023-08-23T09:59:43Z</time>
      </trkpt>
      <trkpt lat="58.256674977019429" lon="-5.029369974508882">
        <ele>40.030000000000001</ele>
        <time>2023-08-23T09:59:44Z</time>
      </trkpt>
      <trkpt lat="58.256593002006412" lon="-5.029619000852108">
        <ele>40.030000000000001</ele>
        <time>2023-08-23T09:59:45Z</time>
      </trkpt>
      <trkpt lat="58.256556959822774" lon="-5.029889987781644">
        <ele>40.030000000000001</ele>
        <time>2023-08-23T09:59:46Z</time>
      </trkpt>
      <trkpt lat="58.256551008671522" lon="-5.030183019116521">
        <ele>39.549999999999997</ele>
        <time>2023-08-23T09:59:47Z</time>
      </trkpt>
      <trkpt lat="58.256551008671522" lon="-5.030478984117508">
        <ele>39.549999999999997</ele>
        <time>2023-08-23T09:59:48Z</time>
      </trkpt>
      <trkpt lat="58.256572969257832" lon="-5.030787019059062">
        <ele>39.07</ele>
        <time>2023-08-23T09:59:49Z</time>
      </trkpt>
      <trkpt lat="58.256628038361669" lon="-5.031082984060049">
        <ele>38.109999999999999</ele>
        <time>2023-08-23T09:59:50Z</time>
      </trkpt>
      <trkpt lat="58.256700038909912" lon="-5.031382972374558">
        <ele>37.630000000000003</ele>
        <time>2023-08-23T09:59:51Z</time>
      </trkpt>
      <trkpt lat="58.256789976730943" lon="-5.031672986224294">
        <ele>36.670000000000002</ele>
        <time>2023-08-23T09:59:52Z</time>
      </trkpt>
      <trkpt lat="58.256882010027766" lon="-5.031970962882042">
        <ele>35.710000000000001</ele>
        <time>2023-08-23T09:59:53Z</time>
      </trkpt>
      <trkpt lat="58.257539989426732" lon="-5.034641018137336">
        <ele>25.609999999999999</ele>
        <time>2023-08-23T10:00:01Z</time>
      </trkpt>
      <trkpt lat="58.257812988013029" lon="-5.035568978637457">
        <ele>21.289999999999999</ele>
        <time>2023-08-23T10:00:04Z</time>
      </trkpt>
      <trkpt lat="58.257935028523207" lon="-5.035835020244122">
        <ele>19.84</ele>
        <time>2023-08-23T10:00:05Z</time>
      </trkpt>
      <trkpt lat="58.258081963285804" lon="-5.036054961383343">
        <ele>18.879999999999999</ele>
        <time>2023-08-23T10:00:06Z</time>
      </trkpt>
      <trkpt lat="58.258252032101154" lon="-5.03619996830821">
        <ele>17.440000000000001</ele>
        <time>2023-08-23T10:00:07Z</time>
      </trkpt>
      <trkpt lat="58.258427968248725" lon="-5.0363489985466">
        <ele>16.48</ele>
        <time>2023-08-23T10:00:08Z</time>
      </trkpt>
      <trkpt lat="58.258612034842372" lon="-5.036466009914875">
        <ele>15.52</ele>
        <time>2023-08-23T10:00:09Z</time>
      </trkpt>
      <trkpt lat="58.258801968768239" lon="-5.036571035161614">
        <ele>15.039999999999999</ele>
        <time>2023-08-23T10:00:10Z</time>
      </trkpt>
      <trkpt lat="58.259176975116134" lon="-5.036831963807344">
        <ele>14.08</ele>
        <time>2023-08-23T10:00:12Z</time>
      </trkpt>
      <trkpt lat="58.25933899730444" lon="-5.037040002644062">
        <ele>14.08</ele>
        <time>2023-08-23T10:00:13Z</time>
      </trkpt>
      <trkpt lat="58.259501019492745" lon="-5.03724804148078">
        <ele>14.08</ele>
        <time>2023-08-23T10:00:14Z</time>
      </trkpt>
      <trkpt lat="58.259645020589232" lon="-5.037490027025342">
        <ele>14.08</ele>
        <time>2023-08-23T10:00:15Z</time>
      </trkpt>
      <trkpt lat="58.259781980887055" lon="-5.037751039490104">
        <ele>14.56</ele>
        <time>2023-08-23T10:00:16Z</time>
      </trkpt>
      <trkpt lat="58.260065959766507" lon="-5.038251020014286">
        <ele>15.039999999999999</ele>
        <time>2023-08-23T10:00:18Z</time>
      </trkpt>
      <trkpt lat="58.260224964469671" lon="-5.038446988910437">
        <ele>15.52</ele>
        <time>2023-08-23T10:00:19Z</time>
      </trkpt>
      <trkpt lat="58.260386986657977" lon="-5.038633989170194">
        <ele>16.48</ele>
        <time>2023-08-23T10:00:20Z</time>
      </trkpt>
      <trkpt lat="58.260569041594863" lon="-5.038714958354831">
        <ele>16.960000000000001</ele>
        <time>2023-08-23T10:00:21Z</time>
      </trkpt>
      <trkpt lat="58.260753024369478" lon="-5.0387960113585">
        <ele>17.440000000000001</ele>
        <time>2023-08-23T10:00:22Z</time>
      </trkpt>
      <trkpt lat="58.260937007144094" lon="-5.038877986371517">
        <ele>18.399999999999999</ele>
        <time>2023-08-23T10:00:23Z</time>
      </trkpt>
      <trkpt lat="58.261473029851913" lon="-5.039116032421589">
        <ele>22.25</ele>
        <time>2023-08-23T10:00:26Z</time>
      </trkpt>
      <trkpt lat="58.261639997363091" lon="-5.039251986891031">
        <ele>23.690000000000001</ele>
        <time>2023-08-23T10:00:27Z</time>
      </trkpt>
      <trkpt lat="58.261792967095971" lon="-5.039438987150788">
        <ele>25.609999999999999</ele>
        <time>2023-08-23T10:00:28Z</time>
      </trkpt>
      <trkpt lat="58.26194099150598" lon="-5.039652977138758">
        <ele>27.530000000000001</ele>
        <time>2023-08-23T10:00:29Z</time>
      </trkpt>
      <trkpt lat="58.262088010087609" lon="-5.039866967126727">
        <ele>28.98</ele>
        <time>2023-08-23T10:00:30Z</time>
      </trkpt>
      <trkpt lat="58.262743977829814" lon="-5.040617985650897">
        <ele>35.710000000000001</ele>
        <time>2023-08-23T10:00:35Z</time>
      </trkpt>
      <trkpt lat="58.26288403943181" lon="-5.040671965107322">
        <ele>37.149999999999999</ele>
        <time>2023-08-23T10:00:36Z</time>
      </trkpt>
      <trkpt lat="58.263030974194407" lon="-5.040728962048888">
        <ele>38.590000000000003</ele>
        <time>2023-08-23T10:00:37Z</time>
      </trkpt>
      <trkpt lat="58.263186039403081" lon="-5.040717981755734">
        <ele>40.030000000000001</ele>
        <time>2023-08-23T10:00:38Z</time>
      </trkpt>
      <trkpt lat="58.263330962508917" lon="-5.040708007290959">
        <ele>40.990000000000002</ele>
        <time>2023-08-23T10:00:39Z</time>
      </trkpt>
      <trkpt lat="58.263514023274183" lon="-5.040683029219508">
        <ele>41.950000000000003</ele>
        <time>2023-08-23T10:00:40Z</time>
      </trkpt>
      <trkpt lat="58.264036970213056" lon="-5.040648998692632">
        <ele>44.840000000000003</ele>
        <time>2023-08-23T10:00:43Z</time>
      </trkpt>
      <trkpt lat="58.264210978522897" lon="-5.040708007290959">
        <ele>45.32</ele>
        <time>2023-08-23T10:00:44Z</time>
      </trkpt>
      <trkpt lat="58.264390015974641" lon="-5.040767015889287">
        <ele>46.280000000000001</ele>
        <time>2023-08-23T10:00:45Z</time>
      </trkpt>
      <trkpt lat="58.264567041769624" lon="-5.040872963145375">
        <ele>47.240000000000002</ele>
        <time>2023-08-23T10:00:46Z</time>
      </trkpt>
      <trkpt lat="58.264738032594323" lon="-5.041012018918991">
        <ele>48.200000000000003</ele>
        <time>2023-08-23T10:00:47Z</time>
      </trkpt>
      <trkpt lat="58.266121968626976" lon="-5.042544985190034">
        <ele>57.340000000000003</ele>
        <time>2023-08-23T10:00:56Z</time>
      </trkpt>
      <trkpt lat="58.266752958297729" lon="-5.044307028874755">
        <ele>66.469999999999999</ele>
        <time>2023-08-23T10:01:03Z</time>
      </trkpt>
      <trkpt lat="58.266868041828275" lon="-5.044884961098433">
        <ele>69.349999999999994</ele>
        <time>2023-08-23T10:01:05Z</time>
      </trkpt>
      <trkpt lat="58.26700902543962" lon="-5.046431003138423">
        <ele>75.599999999999994</ele>
        <time>2023-08-23T10:01:10Z</time>
      </trkpt>
      <trkpt lat="58.267028974369168" lon="-5.046749012544751">
        <ele>76.560000000000002</ele>
        <time>2023-08-23T10:01:11Z</time>
      </trkpt>
      <trkpt lat="58.267388977110386" lon="-5.050162961706519">
        <ele>92.900000000000006</ele>
        <time>2023-08-23T10:01:22Z</time>
      </trkpt>
      <trkpt lat="58.267985014244914" lon="-5.052479971200228">
        <ele>107.81</ele>
        <time>2023-08-23T10:01:31Z</time>
      </trkpt>
      <trkpt lat="58.268938036635518" lon="-5.054605035111308">
        <ele>113.09</ele>
        <time>2023-08-23T10:01:39Z</time>
      </trkpt>
      <trkpt lat="58.270141007378697" lon="-5.056115034967661">
        <ele>112.61</ele>
        <time>2023-08-23T10:01:47Z</time>
      </trkpt>
      <trkpt lat="58.271382031962276" lon="-5.057163024321199">
        <ele>110.69</ele>
        <time>2023-08-23T10:01:55Z</time>
      </trkpt>
      <trkpt lat="58.272850038483739" lon="-5.058718034997582">
        <ele>107.31999999999999</ele>
        <time>2023-08-23T10:02:04Z</time>
      </trkpt>
      <trkpt lat="58.274608980864286" lon="-5.060846032574773">
        <ele>104.44</ele>
        <time>2023-08-23T10:02:14Z</time>
      </trkpt>
      <trkpt lat="58.276712000370026" lon="-5.063765030354261">
        <ele>101.56</ele>
        <time>2023-08-23T10:02:26Z</time>
      </trkpt>
      <trkpt lat="58.277995018288493" lon="-5.066043986007571">
        <ele>100.11</ele>
        <time>2023-08-23T10:02:35Z</time>
      </trkpt>
      <trkpt lat="58.278060983866453" lon="-5.066177006810904">
        <ele>100.11</ele>
        <time>2023-08-23T10:02:36Z</time>
      </trkpt>
      <trkpt lat="58.278115969151258" lon="-5.066286977380514">
        <ele>99.629999999999995</ele>
        <time>2023-08-23T10:02:37Z</time>
      </trkpt>
      <trkpt lat="58.278213031589985" lon="-5.066481018438935">
        <ele>99.150000000000006</ele>
        <time>2023-08-23T10:02:39Z</time>
      </trkpt>
      <trkpt lat="58.278253013268113" lon="-5.066559975966811">
        <ele>99.150000000000006</ele>
        <time>2023-08-23T10:02:40Z</time>
      </trkpt>
      <trkpt lat="58.278286037966609" lon="-5.066627031192184">
        <ele>98.670000000000002</ele>
        <time>2023-08-23T10:02:41Z</time>
      </trkpt>
      <trkpt lat="58.27831101603806" lon="-5.066675981506705">
        <ele>98.670000000000002</ele>
        <time>2023-08-23T10:02:42Z</time>
      </trkpt>
      <trkpt lat="58.278327025473118" lon="-5.066708000376821">
        <ele>98.189999999999998</ele>
        <time>2023-08-23T10:02:43Z</time>
      </trkpt>
      <trkpt lat="58.278327025473118" lon="-5.066708000376821">
        <ele>98.189999999999998</ele>
        <time>2023-08-23T10:02:55Z</time>
      </trkpt>
      <trkpt lat="58.278327025473118" lon="-5.066708000376821">
        <ele>97.230000000000004</ele>
        <time>2023-08-23T10:03:50Z</time>
      </trkpt>
      <trkpt lat="58.278347980231047" lon="-5.06674999371171">
        <ele>95.310000000000002</ele>
        <time>2023-08-23T10:04:40Z</time>
      </trkpt>
      <trkpt lat="58.278456022962928" lon="-5.066967001184821">
        <ele>90.980000000000004</ele>
        <time>2023-08-23T10:04:48Z</time>
      </trkpt>
      <trkpt lat="58.278479995205998" lon="-5.067015029489994">
        <ele>90.019999999999996</ele>
        <time>2023-08-23T10:04:49Z</time>
      </trkpt>
      <trkpt lat="58.278553001582623" lon="-5.067142015323043">
        <ele>89.540000000000006</ele>
        <time>2023-08-23T10:04:50Z</time>
      </trkpt>
      <trkpt lat="58.278623996302485" lon="-5.067264977842569">
        <ele>89.060000000000002</ele>
        <time>2023-08-23T10:04:51Z</time>
      </trkpt>
      <trkpt lat="58.279261020943522" lon="-5.06838203407824">
        <ele>86.180000000000007</ele>
        <time>2023-08-23T10:04:57Z</time>
      </trkpt>
      <trkpt lat="58.280349997803569" lon="-5.069904020056129">
        <ele>82.329999999999998</ele>
        <time>2023-08-23T10:05:04Z</time>
      </trkpt>
      <trkpt lat="58.281925963237882" lon="-5.071470011025667">
        <ele>76.560000000000002</ele>
        <time>2023-08-23T10:05:12Z</time>
      </trkpt>
      <trkpt lat="58.283867966383696" lon="-5.073254015296698">
        <ele>68.870000000000005</ele>
        <time>2023-08-23T10:05:22Z</time>
      </trkpt>
      <trkpt lat="58.285158025100827" lon="-5.074673993512988">
        <ele>65.510000000000005</ele>
        <time>2023-08-23T10:05:30Z</time>
      </trkpt>
      <trkpt lat="58.286375999450684" lon="-5.076247025281191">
        <ele>61.18</ele>
        <time>2023-08-23T10:05:38Z</time>
      </trkpt>
      <trkpt lat="58.287666980177164" lon="-5.078688003122807">
        <ele>50.609999999999999</ele>
        <time>2023-08-23T10:05:47Z</time>
      </trkpt>
      <trkpt lat="58.289254009723663" lon="-5.081235012039542">
        <ele>46.759999999999998</ele>
        <time>2023-08-23T10:05:58Z</time>
      </trkpt>
      <trkpt lat="58.28976396471262" lon="-5.082050990313292">
        <ele>51.57</ele>
        <time>2023-08-23T10:06:02Z</time>
      </trkpt>
      <trkpt lat="58.290494028478861" lon="-5.084311002865434">
        <ele>62.140000000000001</ele>
        <time>2023-08-23T10:06:10Z</time>
      </trkpt>
      <trkpt lat="58.290667030960321" lon="-5.086767990142107">
        <ele>72.239999999999995</ele>
        <time>2023-08-23T10:06:17Z</time>
      </trkpt>
      <trkpt lat="58.290709024295211" lon="-5.087835006415844">
        <ele>77.040000000000006</ele>
        <time>2023-08-23T10:06:20Z</time>
      </trkpt>
      <trkpt lat="58.29120296984911" lon="-5.090583013370633">
        <ele>90.5</ele>
        <time>2023-08-23T10:06:28Z</time>
      </trkpt>
      <trkpt lat="58.292025988921523" lon="-5.092436000704765">
        <ele>99.150000000000006</ele>
        <time>2023-08-23T10:06:34Z</time>
      </trkpt>
      <trkpt lat="58.293916024267673" lon="-5.095765041187406">
        <ele>104.92</ele>
        <time>2023-08-23T10:06:45Z</time>
      </trkpt>
      <trkpt lat="58.29556399025023" lon="-5.099423993378878">
        <ele>101.56</ele>
        <time>2023-08-23T10:06:56Z</time>
      </trkpt>
      <trkpt lat="58.297292003408074" lon="-5.103261983022094">
        <ele>93.390000000000001</ele>
        <time>2023-08-23T10:07:08Z</time>
      </trkpt>
      <trkpt lat="58.297786032781005" lon="-5.104365041479468">
        <ele>89.540000000000006</ele>
        <time>2023-08-23T10:07:12Z</time>
      </trkpt>
      <trkpt lat="58.297890974208713" lon="-5.10467098094523">
        <ele>88.099999999999994</ele>
        <time>2023-08-23T10:07:13Z</time>
      </trkpt>
      <trkpt lat="58.297960041090846" lon="-5.105004999786615">
        <ele>87.140000000000001</ele>
        <time>2023-08-23T10:07:14Z</time>
      </trkpt>
      <trkpt lat="58.298016032204032" lon="-5.105355028063059">
        <ele>86.180000000000007</ele>
        <time>2023-08-23T10:07:15Z</time>
      </trkpt>
      <trkpt lat="58.298071017488837" lon="-5.105702960863709">
        <ele>85.209999999999994</ele>
        <time>2023-08-23T10:07:16Z</time>
      </trkpt>
      <trkpt lat="58.298088032752275" lon="-5.106076961383224">
        <ele>84.25</ele>
        <time>2023-08-23T10:07:17Z</time>
      </trkpt>
      <trkpt lat="58.29807797446847" lon="-5.106441993266344">
        <ele>82.810000000000002</ele>
        <time>2023-08-23T10:07:18Z</time>
      </trkpt>
      <trkpt lat="58.298057019710541" lon="-5.106821022927761">
        <ele>80.890000000000001</ele>
        <time>2023-08-23T10:07:19Z</time>
      </trkpt>
      <trkpt lat="58.2980349753052" lon="-5.107211032882333">
        <ele>79.450000000000003</ele>
        <time>2023-08-23T10:07:20Z</time>
      </trkpt>
      <trkpt lat="58.29801301471889" lon="-5.107602970674634">
        <ele>78</ele>
        <time>2023-08-23T10:07:21Z</time>
      </trkpt>
      <trkpt lat="58.29794897697866" lon="-5.111062014475465">
        <ele>71.760000000000005</ele>
        <time>2023-08-23T10:07:30Z</time>
      </trkpt>
      <trkpt lat="58.298444012179971" lon="-5.113036958500743">
        <ele>79.450000000000003</ele>
        <time>2023-08-23T10:07:36Z</time>
      </trkpt>
      <trkpt lat="58.298694966360927" lon="-5.113563006743789">
        <ele>82.810000000000002</ele>
        <time>2023-08-23T10:07:38Z</time>
      </trkpt>
      <trkpt lat="58.299799030646682" lon="-5.114960018545389">
        <ele>93.390000000000001</ele>
        <time>2023-08-23T10:07:45Z</time>
      </trkpt>
      <trkpt lat="58.301459988579154" lon="-5.115664014592767">
        <ele>103</ele>
        <time>2023-08-23T10:07:53Z</time>
      </trkpt>
      <trkpt lat="58.303726958110929" lon="-5.116647966206074">
        <ele>97.709999999999994</ele>
        <time>2023-08-23T10:08:04Z</time>
      </trkpt>
      <trkpt lat="58.305160012096167" lon="-5.118173975497484">
        <ele>81.849999999999994</ele>
        <time>2023-08-23T10:08:12Z</time>
      </trkpt>
      <trkpt lat="58.306094007566571" lon="-5.120183033868671">
        <ele>66.950000000000003</ele>
        <time>2023-08-23T10:08:19Z</time>
      </trkpt>
      <trkpt lat="58.306697001680732" lon="-5.121474014595151">
        <ele>59.740000000000002</ele>
        <time>2023-08-23T10:08:24Z</time>
      </trkpt>
      <trkpt lat="58.306884001940489" lon="-5.121681969612837">
        <ele>58.780000000000001</ele>
        <time>2023-08-23T10:08:25Z</time>
      </trkpt>
      <trkpt lat="58.307046024128795" lon="-5.121862012892962">
        <ele>57.340000000000003</ele>
        <time>2023-08-23T10:08:26Z</time>
      </trkpt>
      <trkpt lat="58.307218020781875" lon="-5.121983969584107">
        <ele>56.369999999999997</ele>
        <time>2023-08-23T10:08:27Z</time>
      </trkpt>
      <trkpt lat="58.307398986071348" lon="-5.122093018144369">
        <ele>55.409999999999997</ele>
        <time>2023-08-23T10:08:28Z</time>
      </trkpt>
      <trkpt lat="58.307581041008234" lon="-5.12218002229929">
        <ele>53.969999999999999</ele>
        <time>2023-08-23T10:08:29Z</time>
      </trkpt>
      <trkpt lat="58.307773992419243" lon="-5.122230984270573">
        <ele>53.009999999999998</ele>
        <time>2023-08-23T10:08:30Z</time>
      </trkpt>
      <trkpt lat="58.307969961315393" lon="-5.122272977605462">
        <ele>52.049999999999997</ele>
        <time>2023-08-23T10:08:31Z</time>
      </trkpt>
      <trkpt lat="58.309924034401774" lon="-5.12295400723815">
        <ele>53.490000000000002</ele>
        <time>2023-08-23T10:08:41Z</time>
      </trkpt>
      <trkpt lat="58.311853967607021" lon="-5.124251022934914">
        <ele>60.219999999999999</ele>
        <time>2023-08-23T10:08:51Z</time>
      </trkpt>
      <trkpt lat="58.313272017985582" lon="-5.124470964074135">
        <ele>57.82</ele>
        <time>2023-08-23T10:08:58Z</time>
      </trkpt>
      <trkpt lat="58.315528007224202" lon="-5.123865036293864">
        <ele>54.450000000000003</ele>
        <time>2023-08-23T10:09:09Z</time>
      </trkpt>
      <trkpt lat="58.317298013716936" lon="-5.123372012749314">
        <ele>50.609999999999999</ele>
        <time>2023-08-23T10:09:17Z</time>
      </trkpt>
      <trkpt lat="58.319041030481458" lon="-5.123018966987729">
        <ele>45.32</ele>
        <time>2023-08-23T10:09:25Z</time>
      </trkpt>
      <trkpt lat="58.319241022691131" lon="-5.123060960322619">
        <ele>44.840000000000003</ele>
        <time>2023-08-23T10:09:26Z</time>
      </trkpt>
      <trkpt lat="58.31943497993052" lon="-5.123177971690893">
        <ele>44.840000000000003</ele>
        <time>2023-08-23T10:09:27Z</time>
      </trkpt>
      <trkpt lat="58.31962700933218" lon="-5.123302023857832">
        <ele>44.840000000000003</ele>
        <time>2023-08-23T10:09:28Z</time>
      </trkpt>
      <trkpt lat="58.319809986278415" lon="-5.123461028560996">
        <ele>44.840000000000003</ele>
        <time>2023-08-23T10:09:29Z</time>
      </trkpt>
      <trkpt lat="58.319989023730159" lon="-5.123660014942288">
        <ele>44.840000000000003</ele>
        <time>2023-08-23T10:09:30Z</time>
      </trkpt>
      <trkpt lat="58.320168983191252" lon="-5.123876016587019">
        <ele>44.840000000000003</ele>
        <time>2023-08-23T10:09:31Z</time>
      </trkpt>
      <trkpt lat="58.320343997329473" lon="-5.124119007959962">
        <ele>44.359999999999999</ele>
        <time>2023-08-23T10:09:32Z</time>
      </trkpt>
      <trkpt lat="58.322000009939075" lon="-5.126814963296056">
        <ele>41.950000000000003</ele>
        <time>2023-08-23T10:09:42Z</time>
      </trkpt>
      <trkpt lat="58.323491988703609" lon="-5.129771009087563">
        <ele>43.399999999999999</ele>
        <time>2023-08-23T10:09:52Z</time>
      </trkpt>
      <trkpt lat="58.3254489954561" lon="-5.133377993479371">
        <ele>47.240000000000002</ele>
        <time>2023-08-23T10:10:05Z</time>
      </trkpt>
      <trkpt lat="58.326162965968251" lon="-5.134827978909016">
        <ele>43.399999999999999</ele>
        <time>2023-08-23T10:10:11Z</time>
      </trkpt>
      <trkpt lat="58.326300010085106" lon="-5.135014979168773">
        <ele>42.920000000000002</ele>
        <time>2023-08-23T10:10:12Z</time>
      </trkpt>
      <trkpt lat="58.326457003131509" lon="-5.135142970830202">
        <ele>42.439999999999998</ele>
        <time>2023-08-23T10:10:13Z</time>
      </trkpt>
      <trkpt lat="58.32658801227808" lon="-5.135250007733703">
        <ele>41.950000000000003</ele>
        <time>2023-08-23T10:10:14Z</time>
      </trkpt>
      <trkpt lat="58.326779035851359" lon="-5.135322008281946">
        <ele>41.469999999999999</ele>
        <time>2023-08-23T10:10:15Z</time>
      </trkpt>
      <trkpt lat="58.326941980049014" lon="-5.135376993566752">
        <ele>41.469999999999999</ele>
        <time>2023-08-23T10:10:16Z</time>
      </trkpt>
      <trkpt lat="58.327118000015616" lon="-5.135350003838539">
        <ele>40.990000000000002</ele>
        <time>2023-08-23T10:10:17Z</time>
      </trkpt>
      <trkpt lat="58.327295025810599" lon="-5.135322008281946">
        <ele>40.509999999999998</ele>
        <time>2023-08-23T10:10:18Z</time>
      </trkpt>
      <trkpt lat="58.32860603928566" lon="-5.134718008339405">
        <ele>40.030000000000001</ele>
        <time>2023-08-23T10:10:26Z</time>
      </trkpt>
      <trkpt lat="58.330036997795105" lon="-5.133918039500713">
        <ele>46.759999999999998</ele>
        <time>2023-08-23T10:10:36Z</time>
      </trkpt>
      <trkpt lat="58.331840028986335" lon="-5.133828017860651">
        <ele>56.369999999999997</ele>
        <time>2023-08-23T10:10:46Z</time>
      </trkpt>
      <trkpt lat="58.334097024053335" lon="-5.133785018697381">
        <ele>72.719999999999999</ele>
        <time>2023-08-23T10:10:58Z</time>
      </trkpt>
      <trkpt lat="58.335132021456957" lon="-5.134446015581489">
        <ele>83.769999999999996</ele>
        <time>2023-08-23T10:11:04Z</time>
      </trkpt>
      <trkpt lat="58.336266009137034" lon="-5.135617973282933">
        <ele>92.900000000000006</ele>
        <time>2023-08-23T10:11:11Z</time>
      </trkpt>
      <trkpt lat="58.336412021890283" lon="-5.135798016563058">
        <ele>93.390000000000001</ele>
        <time>2023-08-23T10:11:12Z</time>
      </trkpt>
      <trkpt lat="58.336554011330009" lon="-5.136003037914634">
        <ele>93.870000000000005</ele>
        <time>2023-08-23T10:11:13Z</time>
      </trkpt>
      <trkpt lat="58.336674040183425" lon="-5.136263966560364">
        <ele>93.870000000000005</ele>
        <time>2023-08-23T10:11:14Z</time>
      </trkpt>
      <trkpt lat="58.336798008531332" lon="-5.13653201982379">
        <ele>93.870000000000005</ele>
        <time>2023-08-23T10:11:15Z</time>
      </trkpt>
      <trkpt lat="58.336918959394097" lon="-5.136814992874861">
        <ele>93.870000000000005</ele>
        <time>2023-08-23T10:11:16Z</time>
      </trkpt>
      <trkpt lat="58.336999006569386" lon="-5.137144988402724">
        <ele>93.390000000000001</ele>
        <time>2023-08-23T10:11:17Z</time>
      </trkpt>
      <trkpt lat="58.337079975754023" lon="-5.137475989758968">
        <ele>92.900000000000006</ele>
        <time>2023-08-23T10:11:18Z</time>
      </trkpt>
      <trkpt lat="58.337107971310616" lon="-5.137848984450102">
        <ele>92.420000000000002</ele>
        <time>2023-08-23T10:11:19Z</time>
      </trkpt>
      <trkpt lat="58.337134961038828" lon="-5.138218039646745">
        <ele>91.939999999999998</ele>
        <time>2023-08-23T10:11:20Z</time>
      </trkpt>
      <trkpt lat="58.33713898435235" lon="-5.138589022681117">
        <ele>91.459999999999994</ele>
        <time>2023-08-23T10:11:21Z</time>
      </trkpt>
      <trkpt lat="58.337126998230815" lon="-5.13896101154387">
        <ele>90.980000000000004</ele>
        <time>2023-08-23T10:11:22Z</time>
      </trkpt>
      <trkpt lat="58.337092967703938" lon="-5.139329982921481">
        <ele>90.5</ele>
        <time>2023-08-23T10:11:23Z</time>
      </trkpt>
      <trkpt lat="58.337048962712288" lon="-5.139699960127473">
        <ele>90.5</ele>
        <time>2023-08-23T10:11:24Z</time>
      </trkpt>
      <trkpt lat="58.337005041539669" lon="-5.140073038637638">
        <ele>90.019999999999996</ele>
        <time>2023-08-23T10:11:25Z</time>
      </trkpt>
      <trkpt lat="58.336931029334664" lon="-5.140823973342776">
        <ele>89.540000000000006</ele>
        <time>2023-08-23T10:11:27Z</time>
      </trkpt>
      <trkpt lat="58.336931029334664" lon="-5.141209037974477">
        <ele>89.060000000000002</ele>
        <time>2023-08-23T10:11:28Z</time>
      </trkpt>
      <trkpt lat="58.336931029334664" lon="-5.141558982431889">
        <ele>88.579999999999998</ele>
        <time>2023-08-23T10:11:29Z</time>
      </trkpt>
      <trkpt lat="58.336967993527651" lon="-5.141955027356744">
        <ele>87.620000000000005</ele>
        <time>2023-08-23T10:11:30Z</time>
      </trkpt>
      <trkpt lat="58.337002024054527" lon="-5.142322992905974">
        <ele>86.659999999999997</ele>
        <time>2023-08-23T10:11:31Z</time>
      </trkpt>
      <trkpt lat="58.337063966318965" lon="-5.142660029232502">
        <ele>85.689999999999998</ele>
        <time>2023-08-23T10:11:32Z</time>
      </trkpt>
      <trkpt lat="58.337148958817124" lon="-5.142984995618463">
        <ele>85.209999999999994</ele>
        <time>2023-08-23T10:11:33Z</time>
      </trkpt>
      <trkpt lat="58.337233029305935" lon="-5.143309039995074">
        <ele>84.25</ele>
        <time>2023-08-23T10:11:34Z</time>
      </trkpt>
      <trkpt lat="58.337340988218784" lon="-5.143587989732623">
        <ele>83.290000000000006</ele>
        <time>2023-08-23T10:11:35Z</time>
      </trkpt>
      <trkpt lat="58.33745900541544" lon="-5.143862999975681">
        <ele>82.810000000000002</ele>
        <time>2023-08-23T10:11:36Z</time>
      </trkpt>
      <trkpt lat="58.337576016783714" lon="-5.14413801021874">
        <ele>82.329999999999998</ele>
        <time>2023-08-23T10:11:37Z</time>
      </trkpt>
      <trkpt lat="58.337709037587047" lon="-5.144379995763302">
        <ele>81.370000000000005</ele>
        <time>2023-08-23T10:11:38Z</time>
      </trkpt>
      <trkpt lat="58.337861001491547" lon="-5.14459197409451">
        <ele>80.890000000000001</ele>
        <time>2023-08-23T10:11:39Z</time>
      </trkpt>
      <trkpt lat="58.338023023679852" lon="-5.14476103708148">
        <ele>80.409999999999997</ele>
        <time>2023-08-23T10:11:40Z</time>
      </trkpt>
      <trkpt lat="58.338197031989694" lon="-5.14491300098598">
        <ele>79.930000000000007</ele>
        <time>2023-08-23T10:11:41Z</time>
      </trkpt>
      <trkpt lat="58.338375985622406" lon="-5.145067982375622">
        <ele>79.930000000000007</ele>
        <time>2023-08-23T10:11:42Z</time>
      </trkpt>
      <trkpt lat="58.338562985882163" lon="-5.145141994580627">
        <ele>79.450000000000003</ele>
        <time>2023-08-23T10:11:43Z</time>
      </trkpt>
      <trkpt lat="58.338763983920217" lon="-5.145199997350574">
        <ele>78.969999999999999</ele>
        <time>2023-08-23T10:11:44Z</time>
      </trkpt>
      <trkpt lat="58.338969005271792" lon="-5.145258000120521">
        <ele>78.969999999999999</ele>
        <time>2023-08-23T10:11:45Z</time>
      </trkpt>
      <trkpt lat="58.339753970503807" lon="-5.145623032003641">
        <ele>76.560000000000002</ele>
        <time>2023-08-23T10:11:49Z</time>
      </trkpt>
      <trkpt lat="58.339944994077086" lon="-5.145769966766238">
        <ele>76.079999999999998</ele>
        <time>2023-08-23T10:11:50Z</time>
      </trkpt>
      <trkpt lat="58.340116990730166" lon="-5.145967025309801">
        <ele>76.079999999999998</ele>
        <time>2023-08-23T10:11:51Z</time>
      </trkpt>
      <trkpt lat="58.340278007090092" lon="-5.146199036389589">
        <ele>76.079999999999998</ele>
        <time>2023-08-23T10:11:52Z</time>
      </trkpt>
      <trkpt lat="58.340427959337831" lon="-5.146466000005603">
        <ele>75.599999999999994</ele>
        <time>2023-08-23T10:11:53Z</time>
      </trkpt>
      <trkpt lat="58.340561985969543" lon="-5.146769005805254">
        <ele>75.599999999999994</ele>
        <time>2023-08-23T10:11:54Z</time>
      </trkpt>
      <trkpt lat="58.340697018429637" lon="-5.147073017433286">
        <ele>75.599999999999994</ele>
        <time>2023-08-23T10:11:55Z</time>
      </trkpt>
      <trkpt lat="58.341255001723766" lon="-5.148242963477969">
        <ele>74.159999999999997</ele>
        <time>2023-08-23T10:11:59Z</time>
      </trkpt>
      <trkpt lat="58.341409983113408" lon="-5.148495007306337">
        <ele>73.680000000000007</ele>
        <time>2023-08-23T10:12:00Z</time>
      </trkpt>
      <trkpt lat="58.342017000541091" lon="-5.149478958919644">
        <ele>73.200000000000003</ele>
        <time>2023-08-23T10:12:04Z</time>
      </trkpt>
      <trkpt lat="58.34212202578783" lon="-5.149777019396424">
        <ele>73.200000000000003</ele>
        <time>2023-08-23T10:12:05Z</time>
      </trkpt>
      <trkpt lat="58.342226967215538" lon="-5.150072984397411">
        <ele>72.719999999999999</ele>
        <time>2023-08-23T10:12:06Z</time>
      </trkpt>
      <trkpt lat="58.3423169888556" lon="-5.150382025167346">
        <ele>72.719999999999999</ele>
        <time>2023-08-23T10:12:07Z</time>
      </trkpt>
      <trkpt lat="58.342395024374127" lon="-5.150701962411404">
        <ele>72.239999999999995</ele>
        <time>2023-08-23T10:12:08Z</time>
      </trkpt>
      <trkpt lat="58.342472976073623" lon="-5.151021983474493">
        <ele>72.239999999999995</ele>
        <time>2023-08-23T10:12:09Z</time>
      </trkpt>
      <trkpt lat="58.342513963580132" lon="-5.151353990659118">
        <ele>71.760000000000005</ele>
        <time>2023-08-23T10:12:10Z</time>
      </trkpt>
      <trkpt lat="58.342543970793486" lon="-5.151673005893827">
        <ele>70.790000000000006</ele>
        <time>2023-08-23T10:12:11Z</time>
      </trkpt>
      <trkpt lat="58.34257397800684" lon="-5.151983974501491">
        <ele>70.310000000000002</ele>
        <time>2023-08-23T10:12:12Z</time>
      </trkpt>
      <trkpt lat="58.342566015198827" lon="-5.152297038584948">
        <ele>69.349999999999994</ele>
        <time>2023-08-23T10:12:13Z</time>
      </trkpt>
      <trkpt lat="58.342556962743402" lon="-5.152611024677753">
        <ele>68.390000000000001</ele>
        <time>2023-08-23T10:12:14Z</time>
      </trkpt>
      <trkpt lat="58.342533996328712" lon="-5.152929034084082">
        <ele>66.950000000000003</ele>
        <time>2023-08-23T10:12:15Z</time>
      </trkpt>
      <trkpt lat="58.342502983286977" lon="-5.153252994641662">
        <ele>65.989999999999995</ele>
        <time>2023-08-23T10:12:16Z</time>
      </trkpt>
      <trkpt lat="58.342469958588481" lon="-5.153582990169525">
        <ele>65.030000000000001</ele>
        <time>2023-08-23T10:12:17Z</time>
      </trkpt>
      <trkpt lat="58.342411033809185" lon="-5.153905022889376">
        <ele>64.069999999999993</ele>
        <time>2023-08-23T10:12:18Z</time>
      </trkpt>
      <trkpt lat="58.342350013554096" lon="-5.154218003153801">
        <ele>63.579999999999998</ele>
        <time>2023-08-23T10:12:19Z</time>
      </trkpt>
      <trkpt lat="58.34210199303925" lon="-5.155485011637211">
        <ele>61.659999999999997</ele>
        <time>2023-08-23T10:12:24Z</time>
      </trkpt>
      <trkpt lat="58.342095036059618" lon="-5.155749963596463">
        <ele>61.659999999999997</ele>
        <time>2023-08-23T10:12:25Z</time>
      </trkpt>
      <trkpt lat="58.342089001089334" lon="-5.155967976897955">
        <ele>61.659999999999997</ele>
        <time>2023-08-23T10:12:26Z</time>
      </trkpt>
      <trkpt lat="58.342082966119051" lon="-5.156190013512969">
        <ele>62.140000000000001</ele>
        <time>2023-08-23T10:12:27Z</time>
      </trkpt>
      <trkpt lat="58.342089001089334" lon="-5.156410038471222">
        <ele>62.140000000000001</ele>
        <time>2023-08-23T10:12:28Z</time>
      </trkpt>
      <trkpt lat="58.342102998867631" lon="-5.156635008752346">
        <ele>62.140000000000001</ele>
        <time>2023-08-23T10:12:29Z</time>
      </trkpt>
      <trkpt lat="58.342116996645927" lon="-5.156864002346993">
        <ele>61.659999999999997</ele>
        <time>2023-08-23T10:12:30Z</time>
      </trkpt>
      <trkpt lat="58.342158989980817" lon="-5.157099030911923">
        <ele>61.18</ele>
        <time>2023-08-23T10:12:31Z</time>
      </trkpt>
      <trkpt lat="58.342220010235906" lon="-5.157321989536285">
        <ele>60.700000000000003</ele>
        <time>2023-08-23T10:12:32Z</time>
      </trkpt>
      <trkpt lat="58.342286981642246" lon="-5.15754796564579">
        <ele>60.219999999999999</ele>
        <time>2023-08-23T10:12:33Z</time>
      </trkpt>
      <trkpt lat="58.342355964705348" lon="-5.157779976725578">
        <ele>59.259999999999998</ele>
        <time>2023-08-23T10:12:34Z</time>
      </trkpt>
      <trkpt lat="58.342451015487313" lon="-5.157978963106871">
        <ele>58.299999999999997</ele>
        <time>2023-08-23T10:12:35Z</time>
      </trkpt>
      <trkpt lat="58.342556962743402" lon="-5.15814702026546">
        <ele>56.859999999999999</ele>
        <time>2023-08-23T10:12:36Z</time>
      </trkpt>
      <trkpt lat="58.342668022960424" lon="-5.158290015533567">
        <ele>55.890000000000001</ele>
        <time>2023-08-23T10:12:37Z</time>
      </trkpt>
      <trkpt lat="58.342782016843557" lon="-5.158417001366615">
        <ele>54.93</ele>
        <time>2023-08-23T10:12:38Z</time>
      </trkpt>
      <trkpt lat="58.342892993241549" lon="-5.158539963886142">
        <ele>53.490000000000002</ele>
        <time>2023-08-23T10:12:39Z</time>
      </trkpt>
      <trkpt lat="58.34300396963954" lon="-5.158648006618023">
        <ele>52.530000000000001</ele>
        <time>2023-08-23T10:12:40Z</time>
      </trkpt>
      <trkpt lat="58.343125004321337" lon="-5.158696034923196">
        <ele>51.57</ele>
        <time>2023-08-23T10:12:41Z</time>
      </trkpt>
      <trkpt lat="58.343242015689611" lon="-5.158742973580957">
        <ele>50.609999999999999</ele>
        <time>2023-08-23T10:12:42Z</time>
      </trkpt>
      <trkpt lat="58.343358021229506" lon="-5.158764012157917">
        <ele>50.130000000000003</ele>
        <time>2023-08-23T10:12:43Z</time>
      </trkpt>
      <trkpt lat="58.343473020941019" lon="-5.158754959702492">
        <ele>49.159999999999997</ele>
        <time>2023-08-23T10:12:44Z</time>
      </trkpt>
      <trkpt lat="58.343589026480913" lon="-5.158745991066098">
        <ele>48.68</ele>
        <time>2023-08-23T10:12:45Z</time>
      </trkpt>
      <trkpt lat="58.343705032020807" lon="-5.158737022429705">
        <ele>47.719999999999999</ele>
        <time>2023-08-23T10:12:46Z</time>
      </trkpt>
      <trkpt lat="58.34482703357935" lon="-5.158854033797979">
        <ele>45.799999999999997</ele>
        <time>2023-08-23T10:12:56Z</time>
      </trkpt>
      <trkpt lat="58.344912026077509" lon="-5.158938020467758">
        <ele>45.32</ele>
        <time>2023-08-23T10:12:57Z</time>
      </trkpt>
      <trkpt lat="58.345014033839107" lon="-5.159040028229356">
        <ele>45.32</ele>
        <time>2023-08-23T10:12:58Z</time>
      </trkpt>
      <trkpt lat="58.345905030146241" lon="-5.160264959558845">
        <ele>44.840000000000003</ele>
        <time>2023-08-23T10:13:07Z</time>
      </trkpt>
      <trkpt lat="58.346721008419991" lon="-5.160798970609903">
        <ele>41.950000000000003</ele>
        <time>2023-08-23T10:13:14Z</time>
      </trkpt>
      <trkpt lat="58.346866015344858" lon="-5.160849010571837">
        <ele>41.950000000000003</ele>
        <time>2023-08-23T10:13:15Z</time>
      </trkpt>
      <trkpt lat="58.346981015056372" lon="-5.160816991701722">
        <ele>41.469999999999999</ele>
        <time>2023-08-23T10:13:16Z</time>
      </trkpt>
      <trkpt lat="58.347113030031323" lon="-5.160780027508736">
        <ele>41.469999999999999</ele>
        <time>2023-08-23T10:13:17Z</time>
      </trkpt>
      <trkpt lat="58.347244961187243" lon="-5.160742979496718">
        <ele>40.990000000000002</ele>
        <time>2023-08-23T10:13:18Z</time>
      </trkpt>
      <trkpt lat="58.34891103208065" lon="-5.159977041184902">
        <ele>33.780000000000001</ele>
        <time>2023-08-23T10:13:30Z</time>
      </trkpt>
      <trkpt lat="58.350182985886931" lon="-5.158914970234036">
        <ele>27.050000000000001</ele>
        <time>2023-08-23T10:13:40Z</time>
      </trkpt>
      <trkpt lat="58.350922018289566" lon="-5.157405976206064">
        <ele>24.649999999999999</ele>
        <time>2023-08-23T10:13:48Z</time>
      </trkpt>
      <trkpt lat="58.351356033235788" lon="-5.155662959441543">
        <ele>24.649999999999999</ele>
        <time>2023-08-23T10:13:56Z</time>
      </trkpt>
      <trkpt lat="58.351591983810067" lon="-5.153208989650011">
        <ele>24.649999999999999</ele>
        <time>2023-08-23T10:14:08Z</time>
      </trkpt>
      <trkpt lat="58.351776972413063" lon="-5.151807032525539">
        <ele>26.57</ele>
        <time>2023-08-23T10:14:17Z</time>
      </trkpt>
      <trkpt lat="58.352086013182998" lon="-5.149508966132999">
        <ele>26.57</ele>
        <time>2023-08-23T10:14:30Z</time>
      </trkpt>
      <trkpt lat="58.352230014279485" lon="-5.14811497181654">
        <ele>26.57</ele>
        <time>2023-08-23T10:14:37Z</time>
      </trkpt>
      <trkpt lat="58.352050976827741" lon="-5.146518973633647">
        <ele>28.5</ele>
        <time>2023-08-23T10:14:44Z</time>
      </trkpt>
      <trkpt lat="58.352008983492851" lon="-5.146275982260704">
        <ele>28.98</ele>
        <time>2023-08-23T10:14:45Z</time>
      </trkpt>
      <trkpt lat="58.351491987705231" lon="-5.143295964226127">
        <ele>30.899999999999999</ele>
        <time>2023-08-23T10:14:56Z</time>
      </trkpt>
      <trkpt lat="58.350713979452848" lon="-5.140191977843642">
        <ele>30.899999999999999</ele>
        <time>2023-08-23T10:15:07Z</time>
      </trkpt>
      <trkpt lat="58.350617000833154" lon="-5.139935994520783">
        <ele>31.379999999999999</ele>
        <time>2023-08-23T10:15:08Z</time>
      </trkpt>
      <trkpt lat="58.349302969872952" lon="-5.13709201477468">
        <ele>34.740000000000002</ele>
        <time>2023-08-23T10:15:20Z</time>
      </trkpt>
      <trkpt lat="58.348769964650273" lon="-5.135168032720685">
        <ele>33.780000000000001</ele>
        <time>2023-08-23T10:15:27Z</time>
      </trkpt>
      <trkpt lat="58.348553963005543" lon="-5.133011033758521">
        <ele>33.299999999999997</ele>
        <time>2023-08-23T10:15:34Z</time>
      </trkpt>
      <trkpt lat="58.348576007410884" lon="-5.132694030180574">
        <ele>32.82</ele>
        <time>2023-08-23T10:15:35Z</time>
      </trkpt>
      <trkpt lat="58.348592016845942" lon="-5.130417002364993">
        <ele>32.82</ele>
        <time>2023-08-23T10:15:42Z</time>
      </trkpt>
      <trkpt lat="58.348615989089012" lon="-5.127690033987165">
        <ele>33.780000000000001</ele>
        <time>2023-08-23T10:15:50Z</time>
      </trkpt>
      <trkpt lat="58.348743980750442" lon="-5.123610980808735">
        <ele>31.379999999999999</ele>
        <time>2023-08-23T10:16:02Z</time>
      </trkpt>
      <trkpt lat="58.348823022097349" lon="-5.120428958907723">
        <ele>26.57</ele>
        <time>2023-08-23T10:16:11Z</time>
      </trkpt>
      <trkpt lat="58.348994012922049" lon="-5.118814017623663">
        <ele>34.259999999999998</ele>
        <time>2023-08-23T10:16:16Z</time>
      </trkpt>
      <trkpt lat="58.34908202290535" lon="-5.118536995723844">
        <ele>36.670000000000002</ele>
        <time>2023-08-23T10:16:17Z</time>
      </trkpt>
      <trkpt lat="58.349170032888651" lon="-5.118259973824024">
        <ele>39.07</ele>
        <time>2023-08-23T10:16:18Z</time>
      </trkpt>
      <trkpt lat="58.349270028993487" lon="-5.117993010208011">
        <ele>41.469999999999999</ele>
        <time>2023-08-23T10:16:19Z</time>
      </trkpt>
      <trkpt lat="58.349386034533381" lon="-5.117751024663448">
        <ele>44.359999999999999</ele>
        <time>2023-08-23T10:16:20Z</time>
      </trkpt>
      <trkpt lat="58.349888026714325" lon="-5.116834966465831">
        <ele>54.93</ele>
        <time>2023-08-23T10:16:24Z</time>
      </trkpt>
      <trkpt lat="58.350034039467573" lon="-5.116660036146641">
        <ele>57.82</ele>
        <time>2023-08-23T10:16:25Z</time>
      </trkpt>
      <trkpt lat="58.350191032513976" lon="-5.116542018949986">
        <ele>60.219999999999999</ele>
        <time>2023-08-23T10:16:26Z</time>
      </trkpt>
      <trkpt lat="58.35035196505487" lon="-5.116437999531627">
        <ele>63.100000000000001</ele>
        <time>2023-08-23T10:16:27Z</time>
      </trkpt>
      <trkpt lat="58.350518010556698" lon="-5.116358958184719">
        <ele>65.989999999999995</ele>
        <time>2023-08-23T10:16:28Z</time>
      </trkpt>
      <trkpt lat="58.35069302469492" lon="-5.116332974284887">
        <ele>68.390000000000001</ele>
        <time>2023-08-23T10:16:29Z</time>
      </trkpt>
      <trkpt lat="58.350870972499251" lon="-5.116354012861848">
        <ele>71.269999999999996</ele>
        <time>2023-08-23T10:16:30Z</time>
      </trkpt>
      <trkpt lat="58.351054033264518" lon="-5.116374967619777">
        <ele>74.159999999999997</ele>
        <time>2023-08-23T10:16:31Z</time>
      </trkpt>
      <trkpt lat="58.351614028215408" lon="-5.116441017016769">
        <ele>80.890000000000001</ele>
        <time>2023-08-23T10:16:34Z</time>
      </trkpt>
      <trkpt lat="58.351806979626417" lon="-5.116412015631795">
        <ele>82.810000000000002</ele>
        <time>2023-08-23T10:16:35Z</time>
      </trkpt>
      <trkpt lat="58.351993979886174" lon="-5.116329034790397">
        <ele>84.25</ele>
        <time>2023-08-23T10:16:36Z</time>
      </trkpt>
      <trkpt lat="58.352177040651441" lon="-5.116215962916613">
        <ele>86.180000000000007</ele>
        <time>2023-08-23T10:16:37Z</time>
      </trkpt>
      <trkpt lat="58.352344008162618" lon="-5.11603600345552">
        <ele>87.620000000000005</ele>
        <time>2023-08-23T10:16:38Z</time>
      </trkpt>
      <trkpt lat="58.352503012865782" lon="-5.115826036781073">
        <ele>89.060000000000002</ele>
        <time>2023-08-23T10:16:39Z</time>
      </trkpt>
      <trkpt lat="58.352654976770282" lon="-5.115596037358046">
        <ele>90.5</ele>
        <time>2023-08-23T10:16:40Z</time>
      </trkpt>
      <trkpt lat="58.35280098952353" lon="-5.115337958559394">
        <ele>91.459999999999994</ele>
        <time>2023-08-23T10:16:41Z</time>
      </trkpt>
      <trkpt lat="58.353653009980917" lon="-5.113641964271665">
        <ele>94.829999999999998</ele>
        <time>2023-08-23T10:16:47Z</time>
      </trkpt>
      <trkpt lat="58.35376800969243" lon="-5.113315992057324">
        <ele>95.310000000000002</ele>
        <time>2023-08-23T10:16:48Z</time>
      </trkpt>
      <trkpt lat="58.355193017050624" lon="-5.108533026650548">
        <ele>104.44</ele>
        <time>2023-08-23T10:17:02Z</time>
      </trkpt>
      <trkpt lat="58.356117038056254" lon="-5.104642985388637">
        <ele>107.31999999999999</ele>
        <time>2023-08-23T10:17:13Z</time>
      </trkpt>
      <trkpt lat="58.356595980003476" lon="-5.101518966257572">
        <ele>103.95999999999999</ele>
        <time>2023-08-23T10:17:21Z</time>
      </trkpt>
      <trkpt lat="58.356666974723339" lon="-5.101199029013515">
        <ele>103</ele>
        <time>2023-08-23T10:17:22Z</time>
      </trkpt>
      <trkpt lat="58.356783986091614" lon="-5.100934999063611">
        <ele>103</ele>
        <time>2023-08-23T10:17:23Z</time>
      </trkpt>
      <trkpt lat="58.356909966096282" lon="-5.100665017962456">
        <ele>102.52</ele>
        <time>2023-08-23T10:17:24Z</time>
      </trkpt>
      <trkpt lat="58.357050027698278" lon="-5.100405011326075">
        <ele>102.04000000000001</ele>
        <time>2023-08-23T10:17:25Z</time>
      </trkpt>
      <trkpt lat="58.357202997431159" lon="-5.100154979154468">
        <ele>101.56</ele>
        <time>2023-08-23T10:17:26Z</time>
      </trkpt>
      <trkpt lat="58.357360996305943" lon="-5.099897990003228">
        <ele>101.56</ele>
        <time>2023-08-23T10:17:27Z</time>
      </trkpt>
      <trkpt lat="58.357823006808758" lon="-5.099091986194253">
        <ele>100.59999999999999</ele>
        <time>2023-08-23T10:17:30Z</time>
      </trkpt>
      <trkpt lat="58.357929037883878" lon="-5.098758973181248">
        <ele>99.629999999999995</ele>
        <time>2023-08-23T10:17:31Z</time>
      </trkpt>
      <trkpt lat="58.358034985139966" lon="-5.098424032330513">
        <ele>99.150000000000006</ele>
        <time>2023-08-23T10:17:32Z</time>
      </trkpt>
      <trkpt lat="58.358463970944285" lon="-5.097146965563297">
        <ele>97.230000000000004</ele>
        <time>2023-08-23T10:17:36Z</time>
      </trkpt>
      <trkpt lat="58.358600009232759" lon="-5.096899028867483">
        <ele>96.75</ele>
        <time>2023-08-23T10:17:37Z</time>
      </trkpt>
      <trkpt lat="58.358749039471149" lon="-5.096668023616076">
        <ele>96.269999999999996</ele>
        <time>2023-08-23T10:17:38Z</time>
      </trkpt>
      <trkpt lat="58.359934994950891" lon="-5.094511024653912">
        <ele>91.939999999999998</ele>
        <time>2023-08-23T10:17:46Z</time>
      </trkpt>
      <trkpt lat="58.360947025939822" lon="-5.092500038444996">
        <ele>83.769999999999996</ele>
        <time>2023-08-23T10:17:53Z</time>
      </trkpt>
      <trkpt lat="58.361472990363836" lon="-5.091962004080415">
        <ele>80.890000000000001</ele>
        <time>2023-08-23T10:17:56Z</time>
      </trkpt>
      <trkpt lat="58.361653033643961" lon="-5.09184499271214">
        <ele>80.409999999999997</ele>
        <time>2023-08-23T10:17:57Z</time>
      </trkpt>
      <trkpt lat="58.361835004761815" lon="-5.091767963021994">
        <ele>79.930000000000007</ele>
        <time>2023-08-23T10:17:58Z</time>
      </trkpt>
      <trkpt lat="58.362024016678333" lon="-5.091748014092445">
        <ele>79.450000000000003</ele>
        <time>2023-08-23T10:17:59Z</time>
      </trkpt>
      <trkpt lat="58.362215040251613" lon="-5.091762011870742">
        <ele>79.450000000000003</ele>
        <time>2023-08-23T10:18:00Z</time>
      </trkpt>
      <trkpt lat="58.362406985834241" lon="-5.091839041560888">
        <ele>78.969999999999999</ele>
        <time>2023-08-23T10:18:01Z</time>
      </trkpt>
      <trkpt lat="58.362601026892662" lon="-5.091916993260384">
        <ele>78.480000000000004</ele>
        <time>2023-08-23T10:18:02Z</time>
      </trkpt>
      <trkpt lat="58.363892007619143" lon="-5.092131989076734">
        <ele>78</ele>
        <time>2023-08-23T10:18:09Z</time>
      </trkpt>
      <trkpt lat="58.364057969301939" lon="-5.092140035703778">
        <ele>77.519999999999996</ele>
        <time>2023-08-23T10:18:10Z</time>
      </trkpt>
      <trkpt lat="58.364212028682232" lon="-5.092082032933831">
        <ele>77.040000000000006</ele>
        <time>2023-08-23T10:18:11Z</time>
      </trkpt>
      <trkpt lat="58.364343037828803" lon="-5.091949012130499">
        <ele>77.040000000000006</ele>
        <time>2023-08-23T10:18:12Z</time>
      </trkpt>
      <trkpt lat="58.364460971206427" lon="-5.091820014640689">
        <ele>76.560000000000002</ele>
        <time>2023-08-23T10:18:13Z</time>
      </trkpt>
      <trkpt lat="58.364550992846489" lon="-5.091599989682436">
        <ele>76.079999999999998</ele>
        <time>2023-08-23T10:18:14Z</time>
      </trkpt>
      <trkpt lat="58.364640008658171" lon="-5.091381976380944">
        <ele>76.079999999999998</ele>
        <time>2023-08-23T10:18:15Z</time>
      </trkpt>
      <trkpt lat="58.364716032519937" lon="-5.091144014149904">
        <ele>76.079999999999998</ele>
        <time>2023-08-23T10:18:16Z</time>
      </trkpt>
      <trkpt lat="58.364765988662839" lon="-5.090861963108182">
        <ele>75.599999999999994</ele>
        <time>2023-08-23T10:18:17Z</time>
      </trkpt>
      <trkpt lat="58.36478996090591" lon="-5.090557029470801">
        <ele>75.120000000000005</ele>
        <time>2023-08-23T10:18:18Z</time>
      </trkpt>
      <trkpt lat="58.364791972562671" lon="-5.090255029499531">
        <ele>75.120000000000005</ele>
        <time>2023-08-23T10:18:19Z</time>
      </trkpt>
      <trkpt lat="58.364761965349317" lon="-5.0899319909513">
        <ele>75.120000000000005</ele>
        <time>2023-08-23T10:18:20Z</time>
      </trkpt>
      <trkpt lat="58.364691976457834" lon="-5.089640971273184">
        <ele>75.599999999999994</ele>
        <time>2023-08-23T10:18:21Z</time>
      </trkpt>
      <trkpt lat="58.364619975909591" lon="-5.089337965473533">
        <ele>75.599999999999994</ele>
        <time>2023-08-23T10:18:22Z</time>
      </trkpt>
      <trkpt lat="58.364327028393745" lon="-5.088023012503982">
        <ele>76.560000000000002</ele>
        <time>2023-08-23T10:18:26Z</time>
      </trkpt>
      <trkpt lat="58.364309007301927" lon="-5.087672984227538">
        <ele>77.040000000000006</ele>
        <time>2023-08-23T10:18:27Z</time>
      </trkpt>
      <trkpt lat="58.364290986210108" lon="-5.087326979264617">
        <ele>76.560000000000002</ele>
        <time>2023-08-23T10:18:28Z</time>
      </trkpt>
      <trkpt lat="58.364324010908604" lon="-5.087002012878656">
        <ele>76.560000000000002</ele>
        <time>2023-08-23T10:18:29Z</time>
      </trkpt>
      <trkpt lat="58.364363992586732" lon="-5.08666698820889">
        <ele>76.079999999999998</ele>
        <time>2023-08-23T10:18:30Z</time>
      </trkpt>
      <trkpt lat="58.364404980093241" lon="-5.086331963539124">
        <ele>76.079999999999998</ele>
        <time>2023-08-23T10:18:31Z</time>
      </trkpt>
      <trkpt lat="58.364493995904922" lon="-5.086029041558504">
        <ele>75.599999999999994</ele>
        <time>2023-08-23T10:18:32Z</time>
      </trkpt>
      <trkpt lat="58.364607989788055" lon="-5.08574103936553">
        <ele>75.599999999999994</ele>
        <time>2023-08-23T10:18:33Z</time>
      </trkpt>
      <trkpt lat="58.364726006984711" lon="-5.08544297888875">
        <ele>75.599999999999994</ele>
        <time>2023-08-23T10:18:34Z</time>
      </trkpt>
      <trkpt lat="58.364846035838127" lon="-5.085139973089099">
        <ele>75.120000000000005</ele>
        <time>2023-08-23T10:18:35Z</time>
      </trkpt>
      <trkpt lat="58.365552965551615" lon="-5.083843963220716">
        <ele>73.680000000000007</ele>
        <time>2023-08-23T10:18:40Z</time>
      </trkpt>
      <trkpt lat="58.365715993568301" lon="-5.08363701403141">
        <ele>73.200000000000003</ele>
        <time>2023-08-23T10:18:41Z</time>
      </trkpt>
      <trkpt lat="58.367994027212262" lon="-5.081374989822507">
        <ele>67.909999999999997</ele>
        <time>2023-08-23T10:18:54Z</time>
      </trkpt>
      <trkpt lat="58.368731969967484" lon="-5.080711981281638">
        <ele>65.030000000000001</ele>
        <time>2023-08-23T10:18:58Z</time>
      </trkpt>
      <trkpt lat="58.369205966591835" lon="-5.080056013539434">
        <ele>62.140000000000001</ele>
        <time>2023-08-23T10:19:01Z</time>
      </trkpt>
      <trkpt lat="58.369334964081645" lon="-5.079798018559814">
        <ele>60.700000000000003</ele>
        <time>2023-08-23T10:19:02Z</time>
      </trkpt>
      <trkpt lat="58.369463039562106" lon="-5.079541029408574">
        <ele>59.740000000000002</ele>
        <time>2023-08-23T10:19:03Z</time>
      </trkpt>
      <trkpt lat="58.369592037051916" lon="-5.079284040257335">
        <ele>58.780000000000001</ele>
        <time>2023-08-23T10:19:04Z</time>
      </trkpt>
      <trkpt lat="58.369690021499991" lon="-5.078980028629303">
        <ele>57.340000000000003</ele>
        <time>2023-08-23T10:19:05Z</time>
      </trkpt>
      <trkpt lat="58.369783982634544" lon="-5.078664030879736">
        <ele>56.369999999999997</ele>
        <time>2023-08-23T10:19:06Z</time>
      </trkpt>
      <trkpt lat="58.36987903341651" lon="-5.078341998159885">
        <ele>55.409999999999997</ele>
        <time>2023-08-23T10:19:07Z</time>
      </trkpt>
      <trkpt lat="58.370554028078914" lon="-5.076537039130926">
        <ele>50.609999999999999</ele>
        <time>2023-08-23T10:19:13Z</time>
      </trkpt>
      <trkpt lat="58.370698029175401" lon="-5.076270997524262">
        <ele>50.130000000000003</ele>
        <time>2023-08-23T10:19:14Z</time>
      </trkpt>
      <trkpt lat="58.372162012383342" lon="-5.074472995474935">
        <ele>50.130000000000003</ele>
        <time>2023-08-23T10:19:23Z</time>
      </trkpt>
      <trkpt lat="58.373395996168256" lon="-5.073793977499008">
        <ele>51.57</ele>
        <time>2023-08-23T10:19:30Z</time>
      </trkpt>
      <trkpt lat="58.373553995043039" lon="-5.073651988059282">
        <ele>51.57</ele>
        <time>2023-08-23T10:19:31Z</time>
      </trkpt>
      <trkpt lat="58.3737079706043" lon="-5.073513016104698">
        <ele>51.57</ele>
        <time>2023-08-23T10:19:32Z</time>
      </trkpt>
      <trkpt lat="58.373854989185929" lon="-5.073307994753122">
        <ele>52.049999999999997</ele>
        <time>2023-08-23T10:19:33Z</time>
      </trkpt>
      <trkpt lat="58.373998990282416" lon="-5.073075983673334">
        <ele>52.049999999999997</ele>
        <time>2023-08-23T10:19:34Z</time>
      </trkpt>
      <trkpt lat="58.374147014692426" lon="-5.072839027270675">
        <ele>51.57</ele>
        <time>2023-08-23T10:19:35Z</time>
      </trkpt>
      <trkpt lat="58.375238003209233" lon="-5.07177896797657">
        <ele>50.609999999999999</ele>
        <time>2023-08-23T10:19:41Z</time>
      </trkpt>
      <trkpt lat="58.377514025196433" lon="-5.070185987278819">
        <ele>44.840000000000003</ele>
        <time>2023-08-23T10:19:53Z</time>
      </trkpt>
      <trkpt lat="58.378593027591705" lon="-5.06894001737237">
        <ele>41.950000000000003</ele>
        <time>2023-08-23T10:20:00Z</time>
      </trkpt>
      <trkpt lat="58.37871003895998" lon="-5.068690991029143">
        <ele>41.469999999999999</ele>
        <time>2023-08-23T10:20:01Z</time>
      </trkpt>
      <trkpt lat="58.378815986216068" lon="-5.068406006321311">
        <ele>41.469999999999999</ele>
        <time>2023-08-23T10:20:02Z</time>
      </trkpt>
      <trkpt lat="58.378913970664144" lon="-5.068100988864899">
        <ele>40.990000000000002</ele>
        <time>2023-08-23T10:20:03Z</time>
      </trkpt>
      <trkpt lat="58.379007009789348" lon="-5.067770993337035">
        <ele>41.469999999999999</ele>
        <time>2023-08-23T10:20:04Z</time>
      </trkpt>
      <trkpt lat="58.379371035844088" lon="-5.065508969128132">
        <ele>42.920000000000002</ele>
        <time>2023-08-23T10:20:11Z</time>
      </trkpt>
      <trkpt lat="58.379385033622384" lon="-5.065251979976893">
        <ele>43.399999999999999</ele>
        <time>2023-08-23T10:20:12Z</time>
      </trkpt>
      <trkpt lat="58.379390984773636" lon="-5.064994990825653">
        <ele>43.880000000000003</ele>
        <time>2023-08-23T10:20:13Z</time>
      </trkpt>
      <trkpt lat="58.379366006702185" lon="-5.064722998067737">
        <ele>43.880000000000003</ele>
        <time>2023-08-23T10:20:14Z</time>
      </trkpt>
      <trkpt lat="58.379340022802353" lon="-5.064448993653059">
        <ele>43.880000000000003</ele>
        <time>2023-08-23T10:20:15Z</time>
      </trkpt>
      <trkpt lat="58.379293000325561" lon="-5.064178006723523">
        <ele>43.399999999999999</ele>
        <time>2023-08-23T10:20:16Z</time>
      </trkpt>
      <trkpt lat="58.379231980070472" lon="-5.063897967338562">
        <ele>42.920000000000002</ele>
        <time>2023-08-23T10:20:17Z</time>
      </trkpt>
      <trkpt lat="58.379164002835751" lon="-5.063622035086155">
        <ele>42.439999999999998</ele>
        <time>2023-08-23T10:20:18Z</time>
      </trkpt>
      <trkpt lat="58.379059983417392" lon="-5.063358005136251">
        <ele>41.469999999999999</ele>
        <time>2023-08-23T10:20:19Z</time>
      </trkpt>
      <trkpt lat="58.378953030332923" lon="-5.063084000721574">
        <ele>40.990000000000002</ele>
        <time>2023-08-23T10:20:20Z</time>
      </trkpt>
      <trkpt lat="58.378838030621409" lon="-5.062788035720587">
        <ele>40.030000000000001</ele>
        <time>2023-08-23T10:20:21Z</time>
      </trkpt>
      <trkpt lat="58.378719007596374" lon="-5.062549989670515">
        <ele>39.549999999999997</ele>
        <time>2023-08-23T10:20:22Z</time>
      </trkpt>
      <trkpt lat="58.376976996660233" lon="-5.059033026918769">
        <ele>40.030000000000001</ele>
        <time>2023-08-23T10:20:36Z</time>
      </trkpt>
      <trkpt lat="58.375455010682344" lon="-5.055569037795067">
        <ele>39.07</ele>
        <time>2023-08-23T10:20:49Z</time>
      </trkpt>
      <trkpt lat="58.374600978568196" lon="-5.052363965660334">
        <ele>31.379999999999999</ele>
        <time>2023-08-23T10:20:58Z</time>
      </trkpt>
      <trkpt lat="58.373752981424332" lon="-5.048078969120979">
        <ele>19.84</ele>
        <time>2023-08-23T10:21:09Z</time>
      </trkpt>
      <trkpt lat="58.373009003698826" lon="-5.044334018602967">
        <ele>12.630000000000001</ele>
        <time>2023-08-23T10:21:19Z</time>
      </trkpt>
      <trkpt lat="58.372485972940922" lon="-5.04182699136436">
        <ele>14.56</ele>
        <time>2023-08-23T10:21:26Z</time>
      </trkpt>
      <trkpt lat="58.372403997927904" lon="-5.041447961702943">
        <ele>14.56</ele>
        <time>2023-08-23T10:21:27Z</time>
      </trkpt>
      <trkpt lat="58.371819024905562" lon="-5.038456963375211">
        <ele>14.08</ele>
        <time>2023-08-23T10:21:35Z</time>
      </trkpt>
      <trkpt lat="58.371788011863828" lon="-5.038101989775896">
        <ele>13.6</ele>
        <time>2023-08-23T10:21:36Z</time>
      </trkpt>
      <trkpt lat="58.371758004650474" lon="-5.03776403144002">
        <ele>13.6</ele>
        <time>2023-08-23T10:21:37Z</time>
      </trkpt>
      <trkpt lat="58.37179203517735" lon="-5.037449039518833">
        <ele>13.6</ele>
        <time>2023-08-23T10:21:38Z</time>
      </trkpt>
      <trkpt lat="58.371831011027098" lon="-5.037132035940886">
        <ele>13.119999999999999</ele>
        <time>2023-08-23T10:21:39Z</time>
      </trkpt>
      <trkpt lat="58.371868981048465" lon="-5.036813020706177">
        <ele>13.119999999999999</ele>
        <time>2023-08-23T10:21:40Z</time>
      </trkpt>
      <trkpt lat="58.371936958283186" lon="-5.036510014906526">
        <ele>12.630000000000001</ele>
        <time>2023-08-23T10:21:41Z</time>
      </trkpt>
      <trkpt lat="58.372032009065151" lon="-5.036211032420397">
        <ele>13.119999999999999</ele>
        <time>2023-08-23T10:21:42Z</time>
      </trkpt>
      <trkpt lat="58.372129993513227" lon="-5.035899979993701">
        <ele>13.119999999999999</ele>
        <time>2023-08-23T10:21:43Z</time>
      </trkpt>
      <trkpt lat="58.372383965179324" lon="-5.034919967874885">
        <ele>13.6</ele>
        <time>2023-08-23T10:21:46Z</time>
      </trkpt>
      <trkpt lat="58.372436016798019" lon="-5.034569017589092">
        <ele>13.6</ele>
        <time>2023-08-23T10:21:47Z</time>
      </trkpt>
      <trkpt lat="58.372466024011374" lon="-5.03419803455472">
        <ele>13.6</ele>
        <time>2023-08-23T10:21:48Z</time>
      </trkpt>
      <trkpt lat="58.372472980991006" lon="-5.033815987408161">
        <ele>13.6</ele>
        <time>2023-08-23T10:21:49Z</time>
      </trkpt>
      <trkpt lat="58.372436016798019" lon="-5.033442992717028">
        <ele>13.6</ele>
        <time>2023-08-23T10:21:50Z</time>
      </trkpt>
      <trkpt lat="58.37239402346313" lon="-5.033062035217881">
        <ele>14.08</ele>
        <time>2023-08-23T10:21:51Z</time>
      </trkpt>
      <trkpt lat="58.372313976287842" lon="-5.032699014991522">
        <ele>14.56</ele>
        <time>2023-08-23T10:21:52Z</time>
      </trkpt>
      <trkpt lat="58.372232001274824" lon="-5.032327026128769">
        <ele>15.039999999999999</ele>
        <time>2023-08-23T10:21:53Z</time>
      </trkpt>
      <trkpt lat="58.371360031887889" lon="-5.028372025117278">
        <ele>17.920000000000002</ele>
        <time>2023-08-23T10:22:03Z</time>
      </trkpt>
      <trkpt lat="58.37065301835537" lon="-5.024806028231978">
        <ele>18.879999999999999</ele>
        <time>2023-08-23T10:22:12Z</time>
      </trkpt>
      <trkpt lat="58.370622005313635" lon="-5.02446698024869">
        <ele>18.879999999999999</ele>
        <time>2023-08-23T10:22:13Z</time>
      </trkpt>
      <trkpt lat="58.370638014748693" lon="-5.024129021912813">
        <ele>18.879999999999999</ele>
        <time>2023-08-23T10:22:14Z</time>
      </trkpt>
      <trkpt lat="58.37065402418375" lon="-5.023789973929524">
        <ele>18.399999999999999</ele>
        <time>2023-08-23T10:22:15Z</time>
      </trkpt>
      <trkpt lat="58.370695011690259" lon="-5.023475987836719">
        <ele>18.879999999999999</ele>
        <time>2023-08-23T10:22:16Z</time>
      </trkpt>
      <trkpt lat="58.370771035552025" lon="-5.023170970380306">
        <ele>18.879999999999999</ele>
        <time>2023-08-23T10:22:17Z</time>
      </trkpt>
      <trkpt lat="58.37084898725152" lon="-5.022861007601023">
        <ele>19.359999999999999</ele>
        <time>2023-08-23T10:22:18Z</time>
      </trkpt>
      <trkpt lat="58.370959963649511" lon="-5.022591026499867">
        <ele>19.359999999999999</ele>
        <time>2023-08-23T10:22:19Z</time>
      </trkpt>
      <trkpt lat="58.371079992502928" lon="-5.022338982671499">
        <ele>19.84</ele>
        <time>2023-08-23T10:22:20Z</time>
      </trkpt>
      <trkpt lat="58.371227011084557" lon="-5.022137984633446">
        <ele>20.32</ele>
        <time>2023-08-23T10:22:21Z</time>
      </trkpt>
      <trkpt lat="58.371375035494566" lon="-5.02193296328187">
        <ele>20.32</ele>
        <time>2023-08-23T10:22:22Z</time>
      </trkpt>
      <trkpt lat="58.372680013999343" lon="-5.019800020381808">
        <ele>21.289999999999999</ele>
        <time>2023-08-23T10:22:31Z</time>
      </trkpt>
      <trkpt lat="58.373302035033703" lon="-5.018005035817623">
        <ele>22.25</ele>
        <time>2023-08-23T10:22:38Z</time>
      </trkpt>
      <trkpt lat="58.37348903529346" lon="-5.01763204112649">
        <ele>23.210000000000001</ele>
        <time>2023-08-23T10:22:40Z</time>
      </trkpt>
      <trkpt lat="58.373603029176593" lon="-5.017453003674746">
        <ele>23.210000000000001</ele>
        <time>2023-08-23T10:22:41Z</time>
      </trkpt>
      <trkpt lat="58.373730015009642" lon="-5.017297016456723">
        <ele>23.210000000000001</ele>
        <time>2023-08-23T10:22:42Z</time>
      </trkpt>
      <trkpt lat="58.37400603108108" lon="-5.017039021477103">
        <ele>23.210000000000001</ele>
        <time>2023-08-23T10:22:44Z</time>
      </trkpt>
      <trkpt lat="58.3741569891572" lon="-5.016976995393634">
        <ele>23.210000000000001</ele>
        <time>2023-08-23T10:22:45Z</time>
      </trkpt>
      <trkpt lat="58.374819997698069" lon="-5.016761999577284">
        <ele>22.25</ele>
        <time>2023-08-23T10:22:51Z</time>
      </trkpt>
      <trkpt lat="58.37540497072041" lon="-5.016781026497483">
        <ele>21.289999999999999</ele>
        <time>2023-08-23T10:22:57Z</time>
      </trkpt>
      <trkpt lat="58.37632798589766" lon="-5.017105992883444">
        <ele>21.77</ele>
        <time>2023-08-23T10:23:05Z</time>
      </trkpt>
      <trkpt lat="58.376899966970086" lon="-5.017786016687751">
        <ele>23.210000000000001</ele>
        <time>2023-08-23T10:23:09Z</time>
      </trkpt>
      <trkpt lat="58.377028964459896" lon="-5.018049040809274">
        <ele>23.690000000000001</ele>
        <time>2023-08-23T10:23:10Z</time>
      </trkpt>
      <trkpt lat="58.3771410305053" lon="-5.018319021910429">
        <ele>24.170000000000002</ele>
        <time>2023-08-23T10:23:11Z</time>
      </trkpt>
      <trkpt lat="58.377255024388433" lon="-5.018597971647978">
        <ele>24.170000000000002</ele>
        <time>2023-08-23T10:23:12Z</time>
      </trkpt>
      <trkpt lat="58.377373041585088" lon="-5.018883040174842">
        <ele>24.649999999999999</ele>
        <time>2023-08-23T10:23:13Z</time>
      </trkpt>
      <trkpt lat="58.377469014376402" lon="-5.019214963540435">
        <ele>24.649999999999999</ele>
        <time>2023-08-23T10:23:14Z</time>
      </trkpt>
      <trkpt lat="58.378566037863493" lon="-5.02347799949348">
        <ele>24.170000000000002</ele>
        <time>2023-08-23T10:23:26Z</time>
      </trkpt>
      <trkpt lat="58.379429960623384" lon="-5.027537019923329">
        <ele>18.399999999999999</ele>
        <time>2023-08-23T10:23:36Z</time>
      </trkpt>
      <trkpt lat="58.380442997440696" lon="-5.031288005411625">
        <ele>16.960000000000001</ele>
        <time>2023-08-23T10:23:46Z</time>
      </trkpt>
      <trkpt lat="58.381343968212605" lon="-5.03250296227634">
        <ele>16.48</ele>
        <time>2023-08-23T10:23:51Z</time>
      </trkpt>
      <trkpt lat="58.381549995392561" lon="-5.032671019434929">
        <ele>16</ele>
        <time>2023-08-23T10:23:52Z</time>
      </trkpt>
      <trkpt lat="58.383097965270281" lon="-5.033121965825558">
        <ele>14.56</ele>
        <time>2023-08-23T10:23:59Z</time>
      </trkpt>
      <trkpt lat="58.383321007713675" lon="-5.033074021339417">
        <ele>14.56</ele>
        <time>2023-08-23T10:24:00Z</time>
      </trkpt>
      <trkpt lat="58.383533991873264" lon="-5.032958015799522">
        <ele>14.56</ele>
        <time>2023-08-23T10:24:01Z</time>
      </trkpt>
      <trkpt lat="58.383745970204473" lon="-5.032834969460964">
        <ele>15.039999999999999</ele>
        <time>2023-08-23T10:24:02Z</time>
      </trkpt>
      <trkpt lat="58.383958032354712" lon="-5.032712006941438">
        <ele>15.52</ele>
        <time>2023-08-23T10:24:03Z</time>
      </trkpt>
      <trkpt lat="58.384156012907624" lon="-5.032513020560145">
        <ele>16.48</ele>
        <time>2023-08-23T10:24:04Z</time>
      </trkpt>
      <trkpt lat="58.384347958490252" lon="-5.032290983945131">
        <ele>17.440000000000001</ele>
        <time>2023-08-23T10:24:05Z</time>
      </trkpt>
      <trkpt lat="58.384540993720293" lon="-5.032067019492388">
        <ele>18.879999999999999</ele>
        <time>2023-08-23T10:24:06Z</time>
      </trkpt>
      <trkpt lat="58.384734028950334" lon="-5.031829979270697">
        <ele>20.32</ele>
        <time>2023-08-23T10:24:07Z</time>
      </trkpt>
      <trkpt lat="58.387446999549866" lon="-5.027699964120984">
        <ele>47.719999999999999</ele>
        <time>2023-08-23T10:24:22Z</time>
      </trkpt>
      <trkpt lat="58.389074010774493" lon="-5.025909002870321">
        <ele>50.130000000000003</ele>
        <time>2023-08-23T10:24:30Z</time>
      </trkpt>
      <trkpt lat="58.391550024971366" lon="-5.02392802387476">
        <ele>48.200000000000003</ele>
        <time>2023-08-23T10:24:41Z</time>
      </trkpt>
      <trkpt lat="58.393766032531857" lon="-5.022018039599061">
        <ele>44.840000000000003</ele>
        <time>2023-08-23T10:24:51Z</time>
      </trkpt>
      <trkpt lat="58.394961040467024" lon="-5.02045095898211">
        <ele>43.880000000000003</ele>
        <time>2023-08-23T10:24:57Z</time>
      </trkpt>
      <trkpt lat="58.396666003391147" lon="-5.017243037000299">
        <ele>52.049999999999997</ele>
        <time>2023-08-23T10:25:06Z</time>
      </trkpt>
      <trkpt lat="58.398214979097247" lon="-5.014943964779377">
        <ele>61.659999999999997</ele>
        <time>2023-08-23T10:25:14Z</time>
      </trkpt>
      <trkpt lat="58.400439033284783" lon="-5.012825019657612">
        <ele>62.140000000000001</ele>
        <time>2023-08-23T10:25:24Z</time>
      </trkpt>
      <trkpt lat="58.402794012799859" lon="-5.010690987110138">
        <ele>54.93</ele>
        <time>2023-08-23T10:25:34Z</time>
      </trkpt>
      <trkpt lat="58.40434399433434" lon="-5.008842023089528">
        <ele>48.68</ele>
        <time>2023-08-23T10:25:42Z</time>
      </trkpt>
      <trkpt lat="58.404656974598765" lon="-5.008198963478208">
        <ele>47.240000000000002</ele>
        <time>2023-08-23T10:25:44Z</time>
      </trkpt>
      <trkpt lat="58.404792007058859" lon="-5.007843989878893">
        <ele>46.759999999999998</ele>
        <time>2023-08-23T10:25:45Z</time>
      </trkpt>
      <trkpt lat="58.405945021659136" lon="-5.004516039043665">
        <ele>45.799999999999997</ele>
        <time>2023-08-23T10:25:54Z</time>
      </trkpt>
      <trkpt lat="58.407097030431032" lon="-5.003022970631719">
        <ele>45.799999999999997</ele>
        <time>2023-08-23T10:26:00Z</time>
      </trkpt>
      <trkpt lat="58.408480966463685" lon="-5.002556014806032">
        <ele>45.799999999999997</ele>
        <time>2023-08-23T10:26:06Z</time>
      </trkpt>
      <trkpt lat="58.41083200648427" lon="-5.00291702337563">
        <ele>46.759999999999998</ele>
        <time>2023-08-23T10:26:16Z</time>
      </trkpt>
      <trkpt lat="58.414573017507792" lon="-5.003600986674428">
        <ele>43.880000000000003</ele>
        <time>2023-08-23T10:26:31Z</time>
      </trkpt>
      <trkpt lat="58.418556014075875" lon="-5.004329038783908">
        <ele>30.420000000000002</ele>
        <time>2023-08-23T10:26:47Z</time>
      </trkpt>
      <trkpt lat="58.420039024204016" lon="-5.003870967775583">
        <ele>32.340000000000003</ele>
        <time>2023-08-23T10:26:53Z</time>
      </trkpt>
      <trkpt lat="58.420267011970282" lon="-5.003662006929517">
        <ele>32.340000000000003</ele>
        <time>2023-08-23T10:26:54Z</time>
      </trkpt>
      <trkpt lat="58.420485025271773" lon="-5.003414992243052">
        <ele>32.340000000000003</ele>
        <time>2023-08-23T10:26:55Z</time>
      </trkpt>
      <trkpt lat="58.420703960582614" lon="-5.003167977556586">
        <ele>32.82</ele>
        <time>2023-08-23T10:26:56Z</time>
      </trkpt>
      <trkpt lat="58.420911999419332" lon="-5.002888021990657">
        <ele>32.82</ele>
        <time>2023-08-23T10:26:57Z</time>
      </trkpt>
      <trkpt lat="58.421107968315482" lon="-5.002578981220722">
        <ele>32.82</ele>
        <time>2023-08-23T10:26:58Z</time>
      </trkpt>
      <trkpt lat="58.421268984675407" lon="-5.002190982922912">
        <ele>32.82</ele>
        <time>2023-08-23T10:26:59Z</time>
      </trkpt>
      <trkpt lat="58.42142597772181" lon="-5.001810025423765">
        <ele>32.82</ele>
        <time>2023-08-23T10:27:00Z</time>
      </trkpt>
      <trkpt lat="58.421562016010284" lon="-5.00141398049891">
        <ele>32.340000000000003</ele>
        <time>2023-08-23T10:27:01Z</time>
      </trkpt>
      <trkpt lat="58.421670980751514" lon="-5.000988012179732">
        <ele>31.859999999999999</ele>
        <time>2023-08-23T10:27:02Z</time>
      </trkpt>
      <trkpt lat="58.421780029311776" lon="-5.000557014718652">
        <ele>31.379999999999999</ele>
        <time>2023-08-23T10:27:03Z</time>
      </trkpt>
      <trkpt lat="58.421870972961187" lon="-5.000109001994133">
        <ele>30.420000000000002</ele>
        <time>2023-08-23T10:27:04Z</time>
      </trkpt>
      <trkpt lat="58.421958982944489" lon="-4.999654032289982">
        <ele>29.460000000000001</ele>
        <time>2023-08-23T10:27:05Z</time>
      </trkpt>
      <trkpt lat="58.422502968460321" lon="-4.995883014053106">
        <ele>20.32</ele>
        <time>2023-08-23T10:27:14Z</time>
      </trkpt>
      <trkpt lat="58.423261027783155" lon="-4.991834973916411">
        <ele>11.67</ele>
        <time>2023-08-23T10:27:25Z</time>
      </trkpt>
      <trkpt lat="58.423499995842576" lon="-4.991233991459012">
        <ele>11.19</ele>
        <time>2023-08-23T10:27:27Z</time>
      </trkpt>
      <trkpt lat="58.423640979453921" lon="-4.991001980379224">
        <ele>10.710000000000001</ele>
        <time>2023-08-23T10:27:28Z</time>
      </trkpt>
      <trkpt lat="58.423778023570776" lon="-4.990776004269719">
        <ele>11.19</ele>
        <time>2023-08-23T10:27:29Z</time>
      </trkpt>
      <trkpt lat="58.424157975241542" lon="-4.990149037912488">
        <ele>12.630000000000001</ele>
        <time>2023-08-23T10:27:32Z</time>
      </trkpt>
      <trkpt lat="58.424255037680268" lon="-4.989936975762248">
        <ele>13.6</ele>
        <time>2023-08-23T10:27:33Z</time>
      </trkpt>
      <trkpt lat="58.424577992409468" lon="-4.989232979714871">
        <ele>16.48</ele>
        <time>2023-08-23T10:27:37Z</time>
      </trkpt>
      <trkpt lat="58.424714030697942" lon="-4.988935003057122">
        <ele>17.920000000000002</ele>
        <time>2023-08-23T10:27:39Z</time>
      </trkpt>
      <trkpt lat="58.424747977405787" lon="-4.988762000575662">
        <ele>17.920000000000002</ele>
        <time>2023-08-23T10:27:40Z</time>
      </trkpt>
      <trkpt lat="58.424768010154366" lon="-4.988566031679511">
        <ele>18.879999999999999</ele>
        <time>2023-08-23T10:27:41Z</time>
      </trkpt>
      <trkpt lat="58.424774967133999" lon="-4.988366039469838">
        <ele>19.359999999999999</ele>
        <time>2023-08-23T10:27:42Z</time>
      </trkpt>
      <trkpt lat="58.424767004325986" lon="-4.988153977319598">
        <ele>19.84</ele>
        <time>2023-08-23T10:27:43Z</time>
      </trkpt>
      <trkpt lat="58.424759041517973" lon="-4.987938981503248">
        <ele>20.32</ele>
        <time>2023-08-23T10:27:44Z</time>
      </trkpt>
      <trkpt lat="58.424576986581087" lon="-4.985747030004859">
        <ele>23.690000000000001</ele>
        <time>2023-08-23T10:27:53Z</time>
      </trkpt>
      <trkpt lat="58.424583021551371" lon="-4.985476965084672">
        <ele>24.170000000000002</ele>
        <time>2023-08-23T10:27:54Z</time>
      </trkpt>
      <trkpt lat="58.424626020714641" lon="-4.985226010903716">
        <ele>24.649999999999999</ele>
        <time>2023-08-23T10:27:55Z</time>
      </trkpt>
      <trkpt lat="58.424697015434504" lon="-4.98497698456049">
        <ele>25.609999999999999</ele>
        <time>2023-08-23T10:27:56Z</time>
      </trkpt>
      <trkpt lat="58.424769015982747" lon="-4.984727036207914">
        <ele>26.09</ele>
        <time>2023-08-23T10:27:57Z</time>
      </trkpt>
      <trkpt lat="58.424861971288919" lon="-4.98452796600759">
        <ele>26.57</ele>
        <time>2023-08-23T10:27:58Z</time>
      </trkpt>
      <trkpt lat="58.424980994313955" lon="-4.98435496352613">
        <ele>27.050000000000001</ele>
        <time>2023-08-23T10:27:59Z</time>
      </trkpt>
      <trkpt lat="58.425110997632146" lon="-4.984229989349842">
        <ele>27.530000000000001</ele>
        <time>2023-08-23T10:28:00Z</time>
      </trkpt>
      <trkpt lat="58.425258016213775" lon="-4.984144996851683">
        <ele>28.02</ele>
        <time>2023-08-23T10:28:01Z</time>
      </trkpt>
      <trkpt lat="58.425408974289894" lon="-4.984123958274722">
        <ele>28.5</ele>
        <time>2023-08-23T10:28:02Z</time>
      </trkpt>
      <trkpt lat="58.425565967336297" lon="-4.984123958274722">
        <ele>28.98</ele>
        <time>2023-08-23T10:28:03Z</time>
      </trkpt>
      <trkpt lat="58.4257229603827" lon="-4.984181961044669">
        <ele>29.940000000000001</ele>
        <time>2023-08-23T10:28:04Z</time>
      </trkpt>
      <trkpt lat="58.425883976742625" lon="-4.984254967421293">
        <ele>30.420000000000002</ele>
        <time>2023-08-23T10:28:05Z</time>
      </trkpt>
      <trkpt lat="58.426047004759312" lon="-4.984329985454679">
        <ele>30.899999999999999</ele>
        <time>2023-08-23T10:28:06Z</time>
      </trkpt>
      <trkpt lat="58.42666600830853" lon="-4.98461103066802">
        <ele>33.299999999999997</ele>
        <time>2023-08-23T10:28:10Z</time>
      </trkpt>
      <trkpt lat="58.426813026890159" lon="-4.984655035659671">
        <ele>33.780000000000001</ele>
        <time>2023-08-23T10:28:11Z</time>
      </trkpt>
      <trkpt lat="58.426945963874459" lon="-4.984639026224613">
        <ele>34.740000000000002</ele>
        <time>2023-08-23T10:28:12Z</time>
      </trkpt>
      <trkpt lat="58.427099017426372" lon="-4.9845240265131">
        <ele>35.229999999999997</ele>
        <time>2023-08-23T10:28:13Z</time>
      </trkpt>
      <trkpt lat="58.427230026572943" lon="-4.984399974346161">
        <ele>35.229999999999997</ele>
        <time>2023-08-23T10:28:14Z</time>
      </trkpt>
      <trkpt lat="58.427347959950566" lon="-4.984195958822966">
        <ele>35.710000000000001</ele>
        <time>2023-08-23T10:28:15Z</time>
      </trkpt>
      <trkpt lat="58.427473017945886" lon="-4.983980963006616">
        <ele>36.189999999999998</ele>
        <time>2023-08-23T10:28:16Z</time>
      </trkpt>
      <trkpt lat="58.427600003778934" lon="-4.98375398106873">
        <ele>36.670000000000002</ele>
        <time>2023-08-23T10:28:17Z</time>
      </trkpt>
      <trkpt lat="58.428273992612958" lon="-4.981566974893212">
        <ele>41.469999999999999</ele>
        <time>2023-08-23T10:28:24Z</time>
      </trkpt>
      <trkpt lat="58.428589990362525" lon="-4.979463033378124">
        <ele>51.57</ele>
        <time>2023-08-23T10:28:31Z</time>
      </trkpt>
      <trkpt lat="58.42900799587369" lon="-4.976507993414998">
        <ele>63.100000000000001</ele>
        <time>2023-08-23T10:28:42Z</time>
      </trkpt>
      <trkpt lat="58.429290968924761" lon="-4.974888022989035">
        <ele>69.829999999999998</ele>
        <time>2023-08-23T10:28:49Z</time>
      </trkpt>
      <trkpt lat="58.429683996364474" lon="-4.97343703173101">
        <ele>72.239999999999995</ele>
        <time>2023-08-23T10:28:55Z</time>
      </trkpt>
      <trkpt lat="58.430065959692001" lon="-4.972261972725391">
        <ele>73.680000000000007</ele>
        <time>2023-08-23T10:29:00Z</time>
      </trkpt>
      <trkpt lat="58.430157992988825" lon="-4.972077989950776">
        <ele>73.680000000000007</ele>
        <time>2023-08-23T10:29:01Z</time>
      </trkpt>
      <trkpt lat="58.430266035720706" lon="-4.97193600051105">
        <ele>74.159999999999997</ele>
        <time>2023-08-23T10:29:02Z</time>
      </trkpt>
      <trkpt lat="58.430379023775458" lon="-4.971813037991524">
        <ele>74.640000000000001</ele>
        <time>2023-08-23T10:29:03Z</time>
      </trkpt>
      <trkpt lat="58.430503997951746" lon="-4.971702983602881">
        <ele>75.120000000000005</ele>
        <time>2023-08-23T10:29:04Z</time>
      </trkpt>
      <trkpt lat="58.430644981563091" lon="-4.971636012196541">
        <ele>75.599999999999994</ele>
        <time>2023-08-23T10:29:05Z</time>
      </trkpt>
      <trkpt lat="58.430793005973101" lon="-4.971567029133439">
        <ele>75.599999999999994</ele>
        <time>2023-08-23T10:29:06Z</time>
      </trkpt>
      <trkpt lat="58.430952010676265" lon="-4.971514977514744">
        <ele>76.079999999999998</ele>
        <time>2023-08-23T10:29:07Z</time>
      </trkpt>
      <trkpt lat="58.431114032864571" lon="-4.971468960866332">
        <ele>76.079999999999998</ele>
        <time>2023-08-23T10:29:08Z</time>
      </trkpt>
      <trkpt lat="58.432651022449136" lon="-4.970810981467366">
        <ele>74.640000000000001</ele>
        <time>2023-08-23T10:29:18Z</time>
      </trkpt>
      <trkpt lat="58.432926032692194" lon="-4.97053898870945">
        <ele>73.200000000000003</ele>
        <time>2023-08-23T10:29:22Z</time>
      </trkpt>
      <trkpt lat="58.433060981333256" lon="-4.970350982621312">
        <ele>71.760000000000005</ele>
        <time>2023-08-23T10:29:27Z</time>
      </trkpt>
      <trkpt lat="58.43354201875627" lon="-4.969683028757572">
        <ele>68.870000000000005</ele>
        <time>2023-08-23T10:29:33Z</time>
      </trkpt>
      <trkpt lat="58.434624960646033" lon="-4.968091975897551">
        <ele>67.909999999999997</ele>
        <time>2023-08-23T10:29:42Z</time>
      </trkpt>
      <trkpt lat="58.435706980526447" lon="-4.966279976069927">
        <ele>65.030000000000001</ele>
        <time>2023-08-23T10:29:51Z</time>
      </trkpt>
      <trkpt lat="58.436580961570144" lon="-4.964833008125424">
        <ele>64.549999999999997</ele>
        <time>2023-08-23T10:29:59Z</time>
      </trkpt>
      <trkpt lat="58.43667701818049" lon="-4.964708033949137">
        <ele>64.549999999999997</ele>
        <time>2023-08-23T10:30:00Z</time>
      </trkpt>
      <trkpt lat="58.436795035377145" lon="-4.964553974568844">
        <ele>64.549999999999997</ele>
        <time>2023-08-23T10:30:01Z</time>
      </trkpt>
      <trkpt lat="58.436857983469963" lon="-4.964407039806247">
        <ele>64.069999999999993</ele>
        <time>2023-08-23T10:30:02Z</time>
      </trkpt>
      <trkpt lat="58.437874959781766" lon="-4.962026998400688">
        <ele>65.030000000000001</ele>
        <time>2023-08-23T10:30:13Z</time>
      </trkpt>
      <trkpt lat="58.437977973371744" lon="-4.961836980655789">
        <ele>65.510000000000005</ele>
        <time>2023-08-23T10:30:14Z</time>
      </trkpt>
      <trkpt lat="58.438098002225161" lon="-4.961689040064812">
        <ele>65.510000000000005</ele>
        <time>2023-08-23T10:30:15Z</time>
      </trkpt>
      <trkpt lat="58.438218031078577" lon="-4.961541015654802">
        <ele>65.989999999999995</ele>
        <time>2023-08-23T10:30:16Z</time>
      </trkpt>
      <trkpt lat="58.43833495862782" lon="-4.961396008729935">
        <ele>65.989999999999995</ele>
        <time>2023-08-23T10:30:17Z</time>
      </trkpt>
      <trkpt lat="58.438450964167714" lon="-4.961254019290209">
        <ele>65.989999999999995</ele>
        <time>2023-08-23T10:30:18Z</time>
      </trkpt>
      <trkpt lat="58.43932100571692" lon="-4.959954991936684">
        <ele>67.430000000000007</ele>
        <time>2023-08-23T10:30:26Z</time>
      </trkpt>
      <trkpt lat="58.44041702337563" lon="-4.958155984058976">
        <ele>69.829999999999998</ele>
        <time>2023-08-23T10:30:36Z</time>
      </trkpt>
      <trkpt lat="58.441426958888769" lon="-4.956066040322185">
        <ele>76.079999999999998</ele>
        <time>2023-08-23T10:30:46Z</time>
      </trkpt>
      <trkpt lat="58.442434966564178" lon="-4.953744001686573">
        <ele>81.849999999999994</ele>
        <time>2023-08-23T10:30:56Z</time>
      </trkpt>
      <trkpt lat="58.442934025079012" lon="-4.952284041792154">
        <ele>86.659999999999997</ele>
        <time>2023-08-23T10:31:02Z</time>
      </trkpt>
      <trkpt lat="58.44335999339819" lon="-4.951257007196546">
        <ele>91.459999999999994</ele>
        <time>2023-08-23T10:31:09Z</time>
      </trkpt>
      <trkpt lat="58.443464012816548" lon="-4.951117029413581">
        <ele>91.939999999999998</ele>
        <time>2023-08-23T10:31:10Z</time>
      </trkpt>
      <trkpt lat="58.443580018356442" lon="-4.950970010831952">
        <ele>92.900000000000006</ele>
        <time>2023-08-23T10:31:11Z</time>
      </trkpt>
      <trkpt lat="58.444228023290634" lon="-4.950399035587907">
        <ele>97.230000000000004</ele>
        <time>2023-08-23T10:31:16Z</time>
      </trkpt>
      <trkpt lat="58.444331958889961" lon="-4.950261991471052">
        <ele>98.189999999999998</ele>
        <time>2023-08-23T10:31:17Z</time>
      </trkpt>
      <trkpt lat="58.444530023261905" lon="-4.949907017871738">
        <ele>101.56</ele>
        <time>2023-08-23T10:31:22Z</time>
      </trkpt>
      <trkpt lat="58.444560030475259" lon="-4.949852032586932">
        <ele>103.48</ele>
        <time>2023-08-23T10:31:41Z</time>
      </trkpt>
      <trkpt lat="58.444596994668245" lon="-4.949785983189941">
        <ele>104.92</ele>
        <time>2023-08-23T10:31:42Z</time>
      </trkpt>
      <trkpt lat="58.44464804045856" lon="-4.949694033712149">
        <ele>105.88</ele>
        <time>2023-08-23T10:31:43Z</time>
      </trkpt>
      <trkpt lat="58.445307025685906" lon="-4.948507994413376">
        <ele>108.77</ele>
        <time>2023-08-23T10:31:52Z</time>
      </trkpt>
      <trkpt lat="58.446051003411412" lon="-4.946695994585753">
        <ele>115.01000000000001</ele>
        <time>2023-08-23T10:32:01Z</time>
      </trkpt>
      <trkpt lat="58.447049036622047" lon="-4.944178992882371">
        <ele>123.67</ele>
        <time>2023-08-23T10:32:11Z</time>
      </trkpt>
      <trkpt lat="58.447712967172265" lon="-4.942669998854399">
        <ele>130.40000000000001</ele>
        <time>2023-08-23T10:32:18Z</time>
      </trkpt>
      <trkpt lat="58.448618967086077" lon="-4.940615007653832">
        <ele>133.75999999999999</ele>
        <time>2023-08-23T10:32:27Z</time>
      </trkpt>
      <trkpt lat="58.450076999142766" lon="-4.938555993139744">
        <ele>139.05000000000001</ele>
        <time>2023-08-23T10:32:36Z</time>
      </trkpt>
      <trkpt lat="58.451841976493597" lon="-4.935631966218352">
        <ele>147.69999999999999</ele>
        <time>2023-08-23T10:32:47Z</time>
      </trkpt>
      <trkpt lat="58.452155962586403" lon="-4.934975998476148">
        <ele>149.62</ele>
        <time>2023-08-23T10:32:50Z</time>
      </trkpt>
      <trkpt lat="58.452860964462161" lon="-4.933362985029817">
        <ele>152.03</ele>
        <time>2023-08-23T10:32:57Z</time>
      </trkpt>
      <trkpt lat="58.453420037403703" lon="-4.931648969650269">
        <ele>154.91</ele>
        <time>2023-08-23T10:33:05Z</time>
      </trkpt>
      <trkpt lat="58.453879030421376" lon="-4.930506013333798">
        <ele>157.78999999999999</ele>
        <time>2023-08-23T10:33:11Z</time>
      </trkpt>
      <trkpt lat="58.45406100153923" lon="-4.930170988664031">
        <ele>159.72</ele>
        <time>2023-08-23T10:33:19Z</time>
      </trkpt>
      <trkpt lat="58.454612027853727" lon="-4.929330032318831">
        <ele>160.68000000000001</ele>
        <time>2023-08-23T10:33:25Z</time>
      </trkpt>
      <trkpt lat="58.455668985843658" lon="-4.92754502221942">
        <ele>160.19999999999999</ele>
        <time>2023-08-23T10:33:33Z</time>
      </trkpt>
      <trkpt lat="58.457423988729715" lon="-4.923372007906437">
        <ele>164.52000000000001</ele>
        <time>2023-08-23T10:33:49Z</time>
      </trkpt>
      <trkpt lat="58.457885999232531" lon="-4.922358971089125">
        <ele>166.44999999999999</ele>
        <time>2023-08-23T10:33:53Z</time>
      </trkpt>
      <trkpt lat="58.459116965532303" lon="-4.920725002884865">
        <ele>168.84999999999999</ele>
        <time>2023-08-23T10:34:01Z</time>
      </trkpt>
      <trkpt lat="58.459243029356003" lon="-4.920442029833794">
        <ele>168.84999999999999</ele>
        <time>2023-08-23T10:34:02Z</time>
      </trkpt>
      <trkpt lat="58.459358029067516" lon="-4.920142041519284">
        <ele>169.33000000000001</ele>
        <time>2023-08-23T10:34:03Z</time>
      </trkpt>
      <trkpt lat="58.460454968735576" lon="-4.916721973568201">
        <ele>173.66</ele>
        <time>2023-08-23T10:34:14Z</time>
      </trkpt>
      <trkpt lat="58.460989985615015" lon="-4.915018016472459">
        <ele>176.06</ele>
        <time>2023-08-23T10:34:21Z</time>
      </trkpt>
      <trkpt lat="58.46145199611783" lon="-4.913743967190385">
        <ele>177.5</ele>
        <time>2023-08-23T10:34:27Z</time>
      </trkpt>
      <trkpt lat="58.461932027712464" lon="-4.912318037822843">
        <ele>177.5</ele>
        <time>2023-08-23T10:34:32Z</time>
      </trkpt>
      <trkpt lat="58.462004028260708" lon="-4.911993993446231">
        <ele>177.97999999999999</ele>
        <time>2023-08-23T10:34:33Z</time>
      </trkpt>
      <trkpt lat="58.46256603486836" lon="-4.909686958417296">
        <ele>180.87</ele>
        <time>2023-08-23T10:34:41Z</time>
      </trkpt>
      <trkpt lat="58.463464993983507" lon="-4.907632973045111">
        <ele>186.15000000000001</ele>
        <time>2023-08-23T10:34:49Z</time>
      </trkpt>
      <trkpt lat="58.464192962273955" lon="-4.90548100322485">
        <ele>188.08000000000001</ele>
        <time>2023-08-23T10:34:56Z</time>
      </trkpt>
      <trkpt lat="58.465151013806462" lon="-4.902715981006622">
        <ele>179.90000000000001</ele>
        <time>2023-08-23T10:35:05Z</time>
      </trkpt>
      <trkpt lat="58.465668009594083" lon="-4.901951970532537">
        <ele>176.53999999999999</ele>
        <time>2023-08-23T10:35:09Z</time>
      </trkpt>
      <trkpt lat="58.465817961841822" lon="-4.901826996356249">
        <ele>176.06</ele>
        <time>2023-08-23T10:35:10Z</time>
      </trkpt>
      <trkpt lat="58.467508004978299" lon="-4.900419004261494">
        <ele>170.28999999999999</ele>
        <time>2023-08-23T10:35:20Z</time>
      </trkpt>
      <trkpt lat="58.46809096634388" lon="-4.899829002097249">
        <ele>167.88999999999999</ele>
        <time>2023-08-23T10:35:24Z</time>
      </trkpt>
      <trkpt lat="58.468209989368916" lon="-4.899642001837492">
        <ele>167.41</ele>
        <time>2023-08-23T10:35:25Z</time>
      </trkpt>
      <trkpt lat="58.468316020444036" lon="-4.899431029334664">
        <ele>166.93000000000001</ele>
        <time>2023-08-23T10:35:26Z</time>
      </trkpt>
      <trkpt lat="58.468420961871743" lon="-4.899220978841186">
        <ele>166.44999999999999</ele>
        <time>2023-08-23T10:35:27Z</time>
      </trkpt>
      <trkpt lat="58.468517018482089" lon="-4.898979999125004">
        <ele>166.44999999999999</ele>
        <time>2023-08-23T10:35:28Z</time>
      </trkpt>
      <trkpt lat="58.468588013201952" lon="-4.898722004145384">
        <ele>166.44999999999999</ele>
        <time>2023-08-23T10:35:29Z</time>
      </trkpt>
      <trkpt lat="58.468649033457041" lon="-4.898447999730706">
        <ele>166.44999999999999</ele>
        <time>2023-08-23T10:35:30Z</time>
      </trkpt>
      <trkpt lat="58.468702007085085" lon="-4.89817600697279">
        <ele>166.93000000000001</ele>
        <time>2023-08-23T10:35:31Z</time>
      </trkpt>
      <trkpt lat="58.469340959563851" lon="-4.895605025812984">
        <ele>167.41</ele>
        <time>2023-08-23T10:35:41Z</time>
      </trkpt>
      <trkpt lat="58.469640025869012" lon="-4.894831962883472">
        <ele>166.44999999999999</ele>
        <time>2023-08-23T10:35:47Z</time>
      </trkpt>
      <trkpt lat="58.469747984781861" lon="-4.894551001489162">
        <ele>165.47999999999999</ele>
        <time>2023-08-23T10:35:55Z</time>
      </trkpt>
      <trkpt lat="58.469857033342123" lon="-4.894270040094852">
        <ele>163.08000000000001</ele>
        <time>2023-08-23T10:36:08Z</time>
      </trkpt>
      <trkpt lat="58.470080997794867" lon="-4.893691018223763">
        <ele>161.63999999999999</ele>
        <time>2023-08-23T10:36:17Z</time>
      </trkpt>
      <trkpt lat="58.470310997217894" lon="-4.893136974424124">
        <ele>161.63999999999999</ele>
        <time>2023-08-23T10:36:24Z</time>
      </trkpt>
      <trkpt lat="58.470907034352422" lon="-4.892210019752383">
        <ele>159.24000000000001</ele>
        <time>2023-08-23T10:36:34Z</time>
      </trkpt>
      <trkpt lat="58.471774980425835" lon="-4.89140803925693">
        <ele>155.38999999999999</ele>
        <time>2023-08-23T10:36:45Z</time>
      </trkpt>
      <trkpt lat="58.472523987293243" lon="-4.890430038794875">
        <ele>152.03</ele>
        <time>2023-08-23T10:36:55Z</time>
      </trkpt>
      <trkpt lat="58.47372000105679" lon="-4.888953985646367">
        <ele>147.22</ele>
        <time>2023-08-23T10:37:07Z</time>
      </trkpt>
      <trkpt lat="58.475405015051365" lon="-4.887242987751961">
        <ele>137.61000000000001</ele>
        <time>2023-08-23T10:37:21Z</time>
      </trkpt>
      <trkpt lat="58.475976996123791" lon="-4.886520970612764">
        <ele>133.28</ele>
        <time>2023-08-23T10:37:28Z</time>
      </trkpt>
      <trkpt lat="58.476120997220278" lon="-4.886336987838149">
        <ele>132.31999999999999</ele>
        <time>2023-08-23T10:37:30Z</time>
      </trkpt>
      <trkpt lat="58.47621001303196" lon="-4.886221988126636">
        <ele>131.84</ele>
        <time>2023-08-23T10:37:31Z</time>
      </trkpt>
      <trkpt lat="58.477087011560798" lon="-4.885094035416842">
        <ele>127.51000000000001</ele>
        <time>2023-08-23T10:37:38Z</time>
      </trkpt>
      <trkpt lat="58.478075992316008" lon="-4.883651006966829">
        <ele>122.22</ele>
        <time>2023-08-23T10:37:45Z</time>
      </trkpt>
      <trkpt lat="58.478272967040539" lon="-4.883296033367515">
        <ele>120.78</ele>
        <time>2023-08-23T10:37:48Z</time>
      </trkpt>
      <trkpt lat="58.478313032537699" lon="-4.883225960657001">
        <ele>120.3</ele>
        <time>2023-08-23T10:37:49Z</time>
      </trkpt>
      <trkpt lat="58.478343039751053" lon="-4.883170975372195">
        <ele>120.3</ele>
        <time>2023-08-23T10:37:50Z</time>
      </trkpt>
      <trkpt lat="58.478363994508982" lon="-4.883133005350828">
        <ele>119.81999999999999</ele>
        <time>2023-08-23T10:37:51Z</time>
      </trkpt>
      <trkpt lat="58.478363994508982" lon="-4.883133005350828">
        <ele>118.86</ele>
        <time>2023-08-23T10:38:01Z</time>
      </trkpt>
      <trkpt lat="58.478428032249212" lon="-4.88300702534616">
        <ele>118.38</ele>
        <time>2023-08-23T10:38:38Z</time>
      </trkpt>
      <trkpt lat="58.478476982563734" lon="-4.882909962907434">
        <ele>118.38</ele>
        <time>2023-08-23T10:38:39Z</time>
      </trkpt>
      <trkpt lat="58.478533979505301" lon="-4.882797980681062">
        <ele>117.90000000000001</ele>
        <time>2023-08-23T10:38:40Z</time>
      </trkpt>
      <trkpt lat="58.479051981121302" lon="-4.881777986884117">
        <ele>115.98</ele>
        <time>2023-08-23T10:38:46Z</time>
      </trkpt>
      <trkpt lat="58.480206001549959" lon="-4.879502970725298">
        <ele>107.81</ele>
        <time>2023-08-23T10:38:56Z</time>
      </trkpt>
      <trkpt lat="58.481052992865443" lon="-4.878025995567441">
        <ele>101.56</ele>
        <time>2023-08-23T10:39:04Z</time>
      </trkpt>
      <trkpt lat="58.481137985363603" lon="-4.877890041097999">
        <ele>101.08</ele>
        <time>2023-08-23T10:39:05Z</time>
      </trkpt>
      <trkpt lat="58.481967961415648" lon="-4.876567041501403">
        <ele>97.230000000000004</ele>
        <time>2023-08-23T10:39:12Z</time>
      </trkpt>
      <trkpt lat="58.483074959367514" lon="-4.874802986159921">
        <ele>90.019999999999996</ele>
        <time>2023-08-23T10:39:20Z</time>
      </trkpt>
      <trkpt lat="58.483201023191214" lon="-4.874567035585642">
        <ele>87.620000000000005</ele>
        <time>2023-08-23T10:39:23Z</time>
      </trkpt>
      <trkpt lat="58.483290039002895" lon="-4.874399984255433">
        <ele>82.810000000000002</ele>
        <time>2023-08-23T10:39:32Z</time>
      </trkpt>
      <trkpt lat="58.483360027894378" lon="-4.874267969280481">
        <ele>81.370000000000005</ele>
        <time>2023-08-23T10:39:38Z</time>
      </trkpt>
      <trkpt lat="58.483814997598529" lon="-4.873409997671843">
        <ele>79.450000000000003</ele>
        <time>2023-08-23T10:39:44Z</time>
      </trkpt>
      <trkpt lat="58.484878996387124" lon="-4.871543012559414">
        <ele>75.120000000000005</ele>
        <time>2023-08-23T10:39:53Z</time>
      </trkpt>
      <trkpt lat="58.486206019297242" lon="-4.86923698335886">
        <ele>70.310000000000002</ele>
        <time>2023-08-23T10:40:03Z</time>
      </trkpt>
      <trkpt lat="58.487718030810356" lon="-4.865883970633149">
        <ele>65.510000000000005</ele>
        <time>2023-08-23T10:40:16Z</time>
      </trkpt>
      <trkpt lat="58.488653032109141" lon="-4.863931993022561">
        <ele>63.100000000000001</ele>
        <time>2023-08-23T10:40:24Z</time>
      </trkpt>
      <trkpt lat="58.489486025646329" lon="-4.8612239677459">
        <ele>59.740000000000002</ele>
        <time>2023-08-23T10:40:34Z</time>
      </trkpt>
      <trkpt lat="58.490372998639941" lon="-4.858895977959037">
        <ele>56.859999999999999</ele>
        <time>2023-08-23T10:40:43Z</time>
      </trkpt>
      <trkpt lat="58.491455018520355" lon="-4.855455961078405">
        <ele>51.57</ele>
        <time>2023-08-23T10:40:55Z</time>
      </trkpt>
      <trkpt lat="58.491990035399795" lon="-4.85370296984911">
        <ele>49.159999999999997</ele>
        <time>2023-08-23T10:41:02Z</time>
      </trkpt>
      <trkpt lat="58.492052983492613" lon="-4.853495014831424">
        <ele>47.719999999999999</ele>
        <time>2023-08-23T10:41:08Z</time>
      </trkpt>
      <trkpt lat="58.492161026224494" lon="-4.853140963241458">
        <ele>47.240000000000002</ele>
        <time>2023-08-23T10:41:16Z</time>
      </trkpt>
      <trkpt lat="58.492546007037163" lon="-4.85179197974503">
        <ele>45.799999999999997</ele>
        <time>2023-08-23T10:41:23Z</time>
      </trkpt>
      <trkpt lat="58.492653965950012" lon="-4.851351007819176">
        <ele>45.32</ele>
        <time>2023-08-23T10:41:29Z</time>
      </trkpt>
      <trkpt lat="58.492849012836814" lon="-4.850556990131736">
        <ele>43.880000000000003</ele>
        <time>2023-08-23T10:41:36Z</time>
      </trkpt>
      <trkpt lat="58.493159981444478" lon="-4.849129971116781">
        <ele>42.439999999999998</ele>
        <time>2023-08-23T10:41:44Z</time>
      </trkpt>
      <trkpt lat="58.4933159686625" lon="-4.848178960382938">
        <ele>41.469999999999999</ele>
        <time>2023-08-23T10:41:52Z</time>
      </trkpt>
      <trkpt lat="58.493545968085527" lon="-4.846351034939289">
        <ele>40.990000000000002</ele>
        <time>2023-08-23T10:42:00Z</time>
      </trkpt>
      <trkpt lat="58.493905970826745" lon="-4.843480987474322">
        <ele>37.630000000000003</ele>
        <time>2023-08-23T10:42:09Z</time>
      </trkpt>
      <trkpt lat="58.494463032111526" lon="-4.8390509840101">
        <ele>30.420000000000002</ele>
        <time>2023-08-23T10:42:22Z</time>
      </trkpt>
      <trkpt lat="58.494651960209012" lon="-4.837549030780792">
        <ele>29.460000000000001</ele>
        <time>2023-08-23T10:42:29Z</time>
      </trkpt>
      <trkpt lat="58.495081029832363" lon="-4.835248030722141">
        <ele>30.420000000000002</ele>
        <time>2023-08-23T10:42:38Z</time>
      </trkpt>
      <trkpt lat="58.495398033410311" lon="-4.833797961473465">
        <ele>29.940000000000001</ele>
        <time>2023-08-23T10:42:44Z</time>
      </trkpt>
      <trkpt lat="58.495437009260058" lon="-4.833620013669133">
        <ele>28.98</ele>
        <time>2023-08-23T10:42:48Z</time>
      </trkpt>
      <trkpt lat="58.495445977896452" lon="-4.833578020334244">
        <ele>28.98</ele>
        <time>2023-08-23T10:42:56Z</time>
      </trkpt>
      <trkpt lat="58.495455030351877" lon="-4.833537032827735">
        <ele>28.98</ele>
        <time>2023-08-23T10:42:57Z</time>
      </trkpt>
      <trkpt lat="58.495613029226661" lon="-4.832806969061494">
        <ele>28.5</ele>
        <time>2023-08-23T10:43:02Z</time>
      </trkpt>
      <trkpt lat="58.495716964825988" lon="-4.831939022988081">
        <ele>27.530000000000001</ele>
        <time>2023-08-23T10:43:06Z</time>
      </trkpt>
      <trkpt lat="58.495735991746187" lon="-4.831784041598439">
        <ele>27.050000000000001</ele>
        <time>2023-08-23T10:43:07Z</time>
      </trkpt>
      <trkpt lat="58.495785025879741" lon="-4.831368969753385">
        <ele>25.609999999999999</ele>
        <time>2023-08-23T10:43:13Z</time>
      </trkpt>
      <trkpt lat="58.49582601338625" lon="-4.831031011417508">
        <ele>24.170000000000002</ele>
        <time>2023-08-23T10:43:28Z</time>
      </trkpt>
      <trkpt lat="58.495993986725807" lon="-4.829629976302385">
        <ele>23.690000000000001</ele>
        <time>2023-08-23T10:43:36Z</time>
      </trkpt>
      <trkpt lat="58.49627997726202" lon="-4.82811201363802">
        <ele>22.73</ele>
        <time>2023-08-23T10:43:43Z</time>
      </trkpt>
      <trkpt lat="58.496455997228622" lon="-4.827345991507173">
        <ele>21.289999999999999</ele>
        <time>2023-08-23T10:43:48Z</time>
      </trkpt>
      <trkpt lat="58.496564961969852" lon="-4.826865959912539">
        <ele>19.359999999999999</ele>
        <time>2023-08-23T10:43:58Z</time>
      </trkpt>
      <trkpt lat="58.496588012203574" lon="-4.826766969636083">
        <ele>18.879999999999999</ele>
        <time>2023-08-23T10:43:59Z</time>
      </trkpt>
      <trkpt lat="58.496619025245309" lon="-4.82663101516664">
        <ele>18.879999999999999</ele>
        <time>2023-08-23T10:44:00Z</time>
      </trkpt>
      <trkpt lat="58.496656995266676" lon="-4.826466981321573">
        <ele>18.879999999999999</ele>
        <time>2023-08-23T10:44:01Z</time>
      </trkpt>
      <trkpt lat="58.496698988601565" lon="-4.826282998546958">
        <ele>18.879999999999999</ele>
        <time>2023-08-23T10:44:02Z</time>
      </trkpt>
      <trkpt lat="58.496794961392879" lon="-4.825860969722271">
        <ele>18.399999999999999</ele>
        <time>2023-08-23T10:44:04Z</time>
      </trkpt>
      <trkpt lat="58.496870985254645" lon="-4.82564396224916">
        <ele>18.399999999999999</ele>
        <time>2023-08-23T10:44:05Z</time>
      </trkpt>
      <trkpt lat="58.497676989063621" lon="-4.823505990207195">
        <ele>18.399999999999999</ele>
        <time>2023-08-23T10:44:14Z</time>
      </trkpt>
      <trkpt lat="58.498456003144383" lon="-4.821526017040014">
        <ele>18.399999999999999</ele>
        <time>2023-08-23T10:44:23Z</time>
      </trkpt>
      <trkpt lat="58.499206015840173" lon="-4.819225016981363">
        <ele>16.48</ele>
        <time>2023-08-23T10:44:33Z</time>
      </trkpt>
      <trkpt lat="58.49997203797102" lon="-4.817407988011837">
        <ele>16.48</ele>
        <time>2023-08-23T10:44:42Z</time>
      </trkpt>
      <trkpt lat="58.500464977696538" lon="-4.816501988098025">
        <ele>15.52</ele>
        <time>2023-08-23T10:44:48Z</time>
      </trkpt>
      <trkpt lat="58.500566985458136" lon="-4.816427975893021">
        <ele>15.52</ele>
        <time>2023-08-23T10:44:49Z</time>
      </trkpt>
      <trkpt lat="58.500667987391353" lon="-4.816372990608215">
        <ele>15.52</ele>
        <time>2023-08-23T10:44:50Z</time>
      </trkpt>
      <trkpt lat="58.500767983496189" lon="-4.816316999495029">
        <ele>15.039999999999999</ele>
        <time>2023-08-23T10:44:51Z</time>
      </trkpt>
      <trkpt lat="58.500866973772645" lon="-4.816263020038605">
        <ele>15.039999999999999</ele>
        <time>2023-08-23T10:44:52Z</time>
      </trkpt>
      <trkpt lat="58.500981973484159" lon="-4.816256985068321">
        <ele>15.039999999999999</ele>
        <time>2023-08-23T10:44:53Z</time>
      </trkpt>
      <trkpt lat="58.50109001621604" lon="-4.816283974796534">
        <ele>15.039999999999999</ele>
        <time>2023-08-23T10:44:54Z</time>
      </trkpt>
      <trkpt lat="58.50119898095727" lon="-4.816310964524746">
        <ele>15.039999999999999</ele>
        <time>2023-08-23T10:44:55Z</time>
      </trkpt>
      <trkpt lat="58.501529982313514" lon="-4.816394029185176">
        <ele>15.039999999999999</ele>
        <time>2023-08-23T10:44:58Z</time>
      </trkpt>
      <trkpt lat="58.501643976196647" lon="-4.816396962851286">
        <ele>15.039999999999999</ele>
        <time>2023-08-23T10:44:59Z</time>
      </trkpt>
      <trkpt lat="58.501766016706824" lon="-4.816359998658299">
        <ele>15.039999999999999</ele>
        <time>2023-08-23T10:45:00Z</time>
      </trkpt>
      <trkpt lat="58.501890990883112" lon="-4.816276011988521">
        <ele>15.52</ele>
        <time>2023-08-23T10:45:01Z</time>
      </trkpt>
      <trkpt lat="58.502019988372922" lon="-4.816149026155472">
        <ele>15.52</ele>
        <time>2023-08-23T10:45:02Z</time>
      </trkpt>
      <trkpt lat="58.502133982256055" lon="-4.815958002582192">
        <ele>16</ele>
        <time>2023-08-23T10:45:03Z</time>
      </trkpt>
      <trkpt lat="58.502256022766232" lon="-4.815752981230617">
        <ele>16.48</ele>
        <time>2023-08-23T10:45:04Z</time>
      </trkpt>
      <trkpt lat="58.503664014860988" lon="-4.813390038907528">
        <ele>16.48</ele>
        <time>2023-08-23T10:45:14Z</time>
      </trkpt>
      <trkpt lat="58.504809988662601" lon="-4.812124036252499">
        <ele>15.039999999999999</ele>
        <time>2023-08-23T10:45:21Z</time>
      </trkpt>
      <trkpt lat="58.50717100314796" lon="-4.810591991990805">
        <ele>14.56</ele>
        <time>2023-08-23T10:45:34Z</time>
      </trkpt>
      <trkpt lat="58.508609002456069" lon="-4.809885984286666">
        <ele>15.039999999999999</ele>
        <time>2023-08-23T10:45:42Z</time>
      </trkpt>
      <trkpt lat="58.509565964341164" lon="-4.809726979583502">
        <ele>16</ele>
        <time>2023-08-23T10:45:49Z</time>
      </trkpt>
      <trkpt lat="58.510633986443281" lon="-4.809392960742116">
        <ele>17.920000000000002</ele>
        <time>2023-08-23T10:45:58Z</time>
      </trkpt>
      <trkpt lat="58.511775014922023" lon="-4.808750990778208">
        <ele>16.960000000000001</ele>
        <time>2023-08-23T10:46:07Z</time>
      </trkpt>
      <trkpt lat="58.511967966333032" lon="-4.808617969974876">
        <ele>16</ele>
        <time>2023-08-23T10:46:14Z</time>
      </trkpt>
      <trkpt lat="58.512047007679939" lon="-4.808564996346831">
        <ele>15.52</ele>
        <time>2023-08-23T10:46:28Z</time>
      </trkpt>
      <trkpt lat="58.512101992964745" lon="-4.808526020497084">
        <ele>15.039999999999999</ele>
        <time>2023-08-23T10:46:29Z</time>
      </trkpt>
      <trkpt lat="58.512237025424838" lon="-4.80843398720026">
        <ele>15.039999999999999</ele>
        <time>2023-08-23T10:46:31Z</time>
      </trkpt>
      <trkpt lat="58.513055015355349" lon="-4.80787499807775">
        <ele>14.56</ele>
        <time>2023-08-23T10:46:39Z</time>
      </trkpt>
      <trkpt lat="58.514710022136569" lon="-4.806688958778977">
        <ele>14.56</ele>
        <time>2023-08-23T10:46:50Z</time>
      </trkpt>
      <trkpt lat="58.516383972018957" lon="-4.805452963337302">
        <ele>13.6</ele>
        <time>2023-08-23T10:47:01Z</time>
      </trkpt>
      <trkpt lat="58.516597039997578" lon="-4.805294964462519">
        <ele>13.6</ele>
        <time>2023-08-23T10:47:07Z</time>
      </trkpt>
      <trkpt lat="58.516716985031962" lon="-4.805206032469869">
        <ele>13.119999999999999</ele>
        <time>2023-08-23T10:47:17Z</time>
      </trkpt>
      <trkpt lat="58.517478983849287" lon="-4.804643020033836">
        <ele>11.19</ele>
        <time>2023-08-23T10:47:25Z</time>
      </trkpt>
      <trkpt lat="58.519047992303967" lon="-4.803483970463276">
        <ele>10.23</ele>
        <time>2023-08-23T10:47:36Z</time>
      </trkpt>
      <trkpt lat="58.520399993285537" lon="-4.801999032497406">
        <ele>8.310000000000001</ele>
        <time>2023-08-23T10:47:45Z</time>
      </trkpt>
      <trkpt lat="58.521485030651093" lon="-4.80015903711319">
        <ele>6.39</ele>
        <time>2023-08-23T10:47:55Z</time>
      </trkpt>
      <trkpt lat="58.522335961461067" lon="-4.798373021185398">
        <ele>6.87</ele>
        <time>2023-08-23T10:48:06Z</time>
      </trkpt>
      <trkpt lat="58.522438975051045" lon="-4.798224996775389">
        <ele>7.35</ele>
        <time>2023-08-23T10:48:07Z</time>
      </trkpt>
      <trkpt lat="58.522545006126165" lon="-4.798073032870889">
        <ele>7.35</ele>
        <time>2023-08-23T10:48:08Z</time>
      </trkpt>
      <trkpt lat="58.522918000817299" lon="-4.797700960189104">
        <ele>7.83</ele>
        <time>2023-08-23T10:48:11Z</time>
      </trkpt>
      <trkpt lat="58.523057978600264" lon="-4.797620996832848">
        <ele>7.83</ele>
        <time>2023-08-23T10:48:12Z</time>
      </trkpt>
      <trkpt lat="58.523206003010273" lon="-4.797545978799462">
        <ele>7.35</ele>
        <time>2023-08-23T10:48:13Z</time>
      </trkpt>
      <trkpt lat="58.523357966914773" lon="-4.797524018213153">
        <ele>7.35</ele>
        <time>2023-08-23T10:48:14Z</time>
      </trkpt>
      <trkpt lat="58.523514037951827" lon="-4.797507002949715">
        <ele>6.87</ele>
        <time>2023-08-23T10:48:15Z</time>
      </trkpt>
      <trkpt lat="58.523668013513088" lon="-4.797509014606476">
        <ele>6.87</ele>
        <time>2023-08-23T10:48:16Z</time>
      </trkpt>
      <trkpt lat="58.525458974763751" lon="-4.797534998506308">
        <ele>9.75</ele>
        <time>2023-08-23T10:48:27Z</time>
      </trkpt>
      <trkpt lat="58.526321975514293" lon="-4.797546984627843">
        <ele>11.19</ele>
        <time>2023-08-23T10:48:34Z</time>
      </trkpt>
      <trkpt lat="58.52661500684917" lon="-4.797508008778095">
        <ele>11.67</ele>
        <time>2023-08-23T10:48:41Z</time>
      </trkpt>
      <trkpt lat="58.527212971821427" lon="-4.797339029610157">
        <ele>11.19</ele>
        <time>2023-08-23T10:48:50Z</time>
      </trkpt>
      <trkpt lat="58.527654027566314" lon="-4.797106012701988">
        <ele>12.15</ele>
        <time>2023-08-23T10:48:58Z</time>
      </trkpt>
      <trkpt lat="58.527955021709204" lon="-4.79689403437078">
        <ele>13.119999999999999</ele>
        <time>2023-08-23T10:49:08Z</time>
      </trkpt>
      <trkpt lat="58.528005983680487" lon="-4.796839971095324">
        <ele>13.119999999999999</ele>
        <time>2023-08-23T10:49:09Z</time>
      </trkpt>
      <trkpt lat="58.528560027480125" lon="-4.796256003901362">
        <ele>12.630000000000001</ele>
        <time>2023-08-23T10:49:18Z</time>
      </trkpt>
      <trkpt lat="58.529402995482087" lon="-4.795173984020948">
        <ele>11.67</ele>
        <time>2023-08-23T10:49:26Z</time>
      </trkpt>
      <trkpt lat="58.53091299533844" lon="-4.792628986760974">
        <ele>14.08</ele>
        <time>2023-08-23T10:49:39Z</time>
      </trkpt>
      <trkpt lat="58.531631994992495" lon="-4.791459040716291">
        <ele>13.6</ele>
        <time>2023-08-23T10:49:46Z</time>
      </trkpt>
      <trkpt lat="58.532446967437863" lon="-4.790491014719009">
        <ele>13.6</ele>
        <time>2023-08-23T10:49:54Z</time>
      </trkpt>
      <trkpt lat="58.532572025433183" lon="-4.790404010564089">
        <ele>13.6</ele>
        <time>2023-08-23T10:49:55Z</time>
      </trkpt>
      <trkpt lat="58.532710997387767" lon="-4.790360005572438">
        <ele>13.6</ele>
        <time>2023-08-23T10:49:56Z</time>
      </trkpt>
      <trkpt lat="58.533965013921261" lon="-4.790099998936057">
        <ele>16.960000000000001</ele>
        <time>2023-08-23T10:50:04Z</time>
      </trkpt>
      <trkpt lat="58.534216973930597" lon="-4.790047025308013">
        <ele>17.920000000000002</ele>
        <time>2023-08-23T10:50:06Z</time>
      </trkpt>
      <trkpt lat="58.53432702831924" lon="-4.789988016709685">
        <ele>18.879999999999999</ele>
        <time>2023-08-23T10:50:07Z</time>
      </trkpt>
      <trkpt lat="58.53443699888885" lon="-4.789893971756101">
        <ele>19.359999999999999</ele>
        <time>2023-08-23T10:50:08Z</time>
      </trkpt>
      <trkpt lat="58.534545041620731" lon="-4.789758017286658">
        <ele>19.84</ele>
        <time>2023-08-23T10:50:09Z</time>
      </trkpt>
      <trkpt lat="58.534660963341594" lon="-4.789613010361791">
        <ele>19.84</ele>
        <time>2023-08-23T10:50:10Z</time>
      </trkpt>
      <trkpt lat="58.535851025953889" lon="-4.78827802464366">
        <ele>16.960000000000001</ele>
        <time>2023-08-23T10:50:19Z</time>
      </trkpt>
      <trkpt lat="58.536499030888081" lon="-4.787276973947883">
        <ele>12.630000000000001</ele>
        <time>2023-08-23T10:50:24Z</time>
      </trkpt>
      <trkpt lat="58.536604978144169" lon="-4.787039011716843">
        <ele>12.15</ele>
        <time>2023-08-23T10:50:25Z</time>
      </trkpt>
      <trkpt lat="58.536687958985567" lon="-4.78675302118063">
        <ele>11.67</ele>
        <time>2023-08-23T10:50:26Z</time>
      </trkpt>
      <trkpt lat="58.537448029965162" lon="-4.784472975879908">
        <ele>5.42</ele>
        <time>2023-08-23T10:50:34Z</time>
      </trkpt>
      <trkpt lat="58.537538973614573" lon="-4.784267032518983">
        <ele>4.94</ele>
        <time>2023-08-23T10:50:35Z</time>
      </trkpt>
      <trkpt lat="58.537686998024583" lon="-4.784044995903969">
        <ele>4.46</ele>
        <time>2023-08-23T10:50:36Z</time>
      </trkpt>
      <trkpt lat="58.537817001342773" lon="-4.783850032836199">
        <ele>3.98</ele>
        <time>2023-08-23T10:50:37Z</time>
      </trkpt>
      <trkpt lat="58.539224993437529" lon="-4.782509012147784">
        <ele>3.02</ele>
        <time>2023-08-23T10:50:46Z</time>
      </trkpt>
      <trkpt lat="58.540743961930275" lon="-4.781420035287738">
        <ele>2.54</ele>
        <time>2023-08-23T10:50:55Z</time>
      </trkpt>
      <trkpt lat="58.541241008788347" lon="-4.781193975359201">
        <ele>2.54</ele>
        <time>2023-08-23T10:50:58Z</time>
      </trkpt>
      <trkpt lat="58.541403030976653" lon="-4.781178971752524">
        <ele>2.54</ele>
        <time>2023-08-23T10:50:59Z</time>
      </trkpt>
      <trkpt lat="58.541563963517547" lon="-4.781164973974228">
        <ele>2.54</ele>
        <time>2023-08-23T10:51:00Z</time>
      </trkpt>
      <trkpt lat="58.542326968163252" lon="-4.781065983697772">
        <ele>2.54</ele>
        <time>2023-08-23T10:51:05Z</time>
      </trkpt>
      <trkpt lat="58.542473986744881" lon="-4.781027007848024">
        <ele>2.54</ele>
        <time>2023-08-23T10:51:06Z</time>
      </trkpt>
      <trkpt lat="58.542597033083439" lon="-4.780934974551201">
        <ele>2.54</ele>
        <time>2023-08-23T10:51:07Z</time>
      </trkpt>
      <trkpt lat="58.542724018916488" lon="-4.780797008424997">
        <ele>2.54</ele>
        <time>2023-08-23T10:51:08Z</time>
      </trkpt>
      <trkpt lat="58.542851004749537" lon="-4.78063297457993">
        <ele>3.02</ele>
        <time>2023-08-23T10:51:09Z</time>
      </trkpt>
      <trkpt lat="58.542984025552869" lon="-4.78046097792685">
        <ele>2.54</ele>
        <time>2023-08-23T10:51:10Z</time>
      </trkpt>
      <trkpt lat="58.543122997507453" lon="-4.780282024294138">
        <ele>2.54</ele>
        <time>2023-08-23T10:51:11Z</time>
      </trkpt>
      <trkpt lat="58.543278984725475" lon="-4.780141962692142">
        <ele>2.54</ele>
        <time>2023-08-23T10:51:12Z</time>
      </trkpt>
      <trkpt lat="58.543443018570542" lon="-4.780016988515854">
        <ele>2.54</ele>
        <time>2023-08-23T10:51:13Z</time>
      </trkpt>
      <trkpt lat="58.544440967962146" lon="-4.779289020225406">
        <ele>2.06</ele>
        <time>2023-08-23T10:51:19Z</time>
      </trkpt>
      <trkpt lat="58.544618999585509" lon="-4.779241997748613">
        <ele>2.06</ele>
        <time>2023-08-23T10:51:20Z</time>
      </trkpt>
      <trkpt lat="58.545978963375092" lon="-4.778852993622422">
        <ele>1.58</ele>
        <time>2023-08-23T10:51:29Z</time>
      </trkpt>
      <trkpt lat="58.546077031642199" lon="-4.778801025822759">
        <ele>1.58</ele>
        <time>2023-08-23T10:51:34Z</time>
      </trkpt>
      <trkpt lat="58.546346006914973" lon="-4.778659036383033">
        <ele>0.62</ele>
        <time>2023-08-23T10:51:43Z</time>
      </trkpt>
      <trkpt lat="58.547321995720267" lon="-4.778156960383058">
        <ele>1.58</ele>
        <time>2023-08-23T10:51:51Z</time>
      </trkpt>
      <trkpt lat="58.548235958442092" lon="-4.777925033122301">
        <ele>4.94</ele>
        <time>2023-08-23T10:51:59Z</time>
      </trkpt>
      <trkpt lat="58.54833603836596" lon="-4.777898965403438">
        <ele>5.91</ele>
        <time>2023-08-23T10:52:00Z</time>
      </trkpt>
      <trkpt lat="58.549445969983935" lon="-4.777083992958069">
        <ele>11.19</ele>
        <time>2023-08-23T10:52:10Z</time>
      </trkpt>
      <trkpt lat="58.550237976014614" lon="-4.775584973394871">
        <ele>15.52</ele>
        <time>2023-08-23T10:52:18Z</time>
      </trkpt>
      <trkpt lat="58.550581969320774" lon="-4.775150958448649">
        <ele>16.960000000000001</ele>
        <time>2023-08-23T10:52:21Z</time>
      </trkpt>
      <trkpt lat="58.550712978467345" lon="-4.775038976222277">
        <ele>17.440000000000001</ele>
        <time>2023-08-23T10:52:22Z</time>
      </trkpt>
      <trkpt lat="58.552209986373782" lon="-4.774010013788939">
        <ele>24.649999999999999</ele>
        <time>2023-08-23T10:52:32Z</time>
      </trkpt>
      <trkpt lat="58.553440030664206" lon="-4.772868985310197">
        <ele>33.780000000000001</ele>
        <time>2023-08-23T10:52:40Z</time>
      </trkpt>
      <trkpt lat="58.555252030491829" lon="-4.770377967506647">
        <ele>48.68</ele>
        <time>2023-08-23T10:52:53Z</time>
      </trkpt>
      <trkpt lat="58.555354038253427" lon="-4.770156014710665">
        <ele>49.159999999999997</ele>
        <time>2023-08-23T10:52:54Z</time>
      </trkpt>
      <trkpt lat="58.555420003831387" lon="-4.7699090000242">
        <ele>50.130000000000003</ele>
        <time>2023-08-23T10:52:55Z</time>
      </trkpt>
      <trkpt lat="58.555560987442732" lon="-4.769384963437915">
        <ele>50.609999999999999</ele>
        <time>2023-08-23T10:52:57Z</time>
      </trkpt>
      <trkpt lat="58.555630976334214" lon="-4.769131997600198">
        <ele>50.609999999999999</ele>
        <time>2023-08-23T10:52:58Z</time>
      </trkpt>
      <trkpt lat="58.555737007409334" lon="-4.76892102509737">
        <ele>51.090000000000003</ele>
        <time>2023-08-23T10:52:59Z</time>
      </trkpt>
      <trkpt lat="58.555845972150564" lon="-4.768735030665994">
        <ele>51.090000000000003</ele>
        <time>2023-08-23T10:53:00Z</time>
      </trkpt>
      <trkpt lat="58.555984022095799" lon="-4.768636962398887">
        <ele>50.609999999999999</ele>
        <time>2023-08-23T10:53:01Z</time>
      </trkpt>
      <trkpt lat="58.556116037070751" lon="-4.768544007092714">
        <ele>50.609999999999999</ele>
        <time>2023-08-23T10:53:02Z</time>
      </trkpt>
      <trkpt lat="58.556242017075419" lon="-4.768454991281033">
        <ele>50.609999999999999</ele>
        <time>2023-08-23T10:53:03Z</time>
      </trkpt>
      <trkpt lat="58.556478973478079" lon="-4.768286012113094">
        <ele>50.609999999999999</ele>
        <time>2023-08-23T10:53:05Z</time>
      </trkpt>
      <trkpt lat="58.556593973189592" lon="-4.768160032108426">
        <ele>49.649999999999999</ele>
        <time>2023-08-23T10:53:06Z</time>
      </trkpt>
      <trkpt lat="58.556718025356531" lon="-4.76801997050643">
        <ele>49.159999999999997</ele>
        <time>2023-08-23T10:53:07Z</time>
      </trkpt>
      <trkpt lat="58.556989012286067" lon="-4.767715958878398">
        <ele>47.719999999999999</ele>
        <time>2023-08-23T10:53:09Z</time>
      </trkpt>
      <trkpt lat="58.557140976190567" lon="-4.767618980258703">
        <ele>46.759999999999998</ele>
        <time>2023-08-23T10:53:10Z</time>
      </trkpt>
      <trkpt lat="58.557296963408589" lon="-4.767528036609292">
        <ele>45.799999999999997</ele>
        <time>2023-08-23T10:53:11Z</time>
      </trkpt>
      <trkpt lat="58.557445993646979" lon="-4.767441032454372">
        <ele>45.32</ele>
        <time>2023-08-23T10:53:12Z</time>
      </trkpt>
      <trkpt lat="58.557585971429944" lon="-4.767358973622322">
        <ele>44.359999999999999</ele>
        <time>2023-08-23T10:53:13Z</time>
      </trkpt>
      <trkpt lat="58.557711029425263" lon="-4.76722402498126">
        <ele>43.399999999999999</ele>
        <time>2023-08-23T10:53:14Z</time>
      </trkpt>
      <trkpt lat="58.557828962802887" lon="-4.76707398891449">
        <ele>42.920000000000002</ele>
        <time>2023-08-23T10:53:15Z</time>
      </trkpt>
      <trkpt lat="58.557949997484684" lon="-4.766920013353229">
        <ele>42.439999999999998</ele>
        <time>2023-08-23T10:53:16Z</time>
      </trkpt>
      <trkpt lat="58.558573024347425" lon="-4.766124989837408">
        <ele>39.07</ele>
        <time>2023-08-23T10:53:21Z</time>
      </trkpt>
      <trkpt lat="58.558708978816867" lon="-4.766002027317882">
        <ele>38.590000000000003</ele>
        <time>2023-08-23T10:53:22Z</time>
      </trkpt>
      <trkpt lat="58.558854991570115" lon="-4.765909994021058">
        <ele>37.630000000000003</ele>
        <time>2023-08-23T10:53:23Z</time>
      </trkpt>
      <trkpt lat="58.560129962861538" lon="-4.765069037675858">
        <ele>36.189999999999998</ele>
        <time>2023-08-23T10:53:32Z</time>
      </trkpt>
      <trkpt lat="58.560254015028477" lon="-4.764959989115596">
        <ele>36.189999999999998</ele>
        <time>2023-08-23T10:53:33Z</time>
      </trkpt>
      <trkpt lat="58.561432007700205" lon="-4.763579992577434">
        <ele>38.590000000000003</ele>
        <time>2023-08-23T10:53:43Z</time>
      </trkpt>
      <trkpt lat="58.562341025099158" lon="-4.761910988017917">
        <ele>40.509999999999998</ele>
        <time>2023-08-23T10:53:52Z</time>
      </trkpt>
      <trkpt lat="58.56344198808074" lon="-4.759044041857123">
        <ele>43.399999999999999</ele>
        <time>2023-08-23T10:54:03Z</time>
      </trkpt>
      <trkpt lat="58.564720982685685" lon="-4.75536597892642">
        <ele>42.920000000000002</ele>
        <time>2023-08-23T10:54:17Z</time>
      </trkpt>
      <trkpt lat="58.566012969240546" lon="-4.752044985070825">
        <ele>43.880000000000003</ele>
        <time>2023-08-23T10:54:30Z</time>
      </trkpt>
      <trkpt lat="58.56651496142149" lon="-4.75023097358644">
        <ele>44.359999999999999</ele>
        <time>2023-08-23T10:54:39Z</time>
      </trkpt>
      <trkpt lat="58.566929027438164" lon="-4.748670011758804">
        <ele>43.880000000000003</ele>
        <time>2023-08-23T10:54:50Z</time>
      </trkpt>
      <trkpt lat="58.567021982744336" lon="-4.748346973210573">
        <ele>43.880000000000003</ele>
        <time>2023-08-23T10:54:52Z</time>
      </trkpt>
      <trkpt lat="58.567069005221128" lon="-4.748244965448976">
        <ele>43.880000000000003</ele>
        <time>2023-08-23T10:54:53Z</time>
      </trkpt>
      <trkpt lat="58.567130025476217" lon="-4.748114962130785">
        <ele>43.880000000000003</ele>
        <time>2023-08-23T10:54:54Z</time>
      </trkpt>
      <trkpt lat="58.567204959690571" lon="-4.747993005439639">
        <ele>43.880000000000003</ele>
        <time>2023-08-23T10:54:55Z</time>
      </trkpt>
      <trkpt lat="58.567290036007762" lon="-4.747912036255002">
        <ele>43.880000000000003</ele>
        <time>2023-08-23T10:54:56Z</time>
      </trkpt>
      <trkpt lat="58.567375028505921" lon="-4.747829977422953">
        <ele>44.359999999999999</ele>
        <time>2023-08-23T10:54:57Z</time>
      </trkpt>
      <trkpt lat="58.567460021004081" lon="-4.747748002409935">
        <ele>44.359999999999999</ele>
        <time>2023-08-23T10:54:58Z</time>
      </trkpt>
      <trkpt lat="58.568128980696201" lon="-4.747141990810633">
        <ele>41.469999999999999</ele>
        <time>2023-08-23T10:55:08Z</time>
      </trkpt>
      <trkpt lat="58.568519996479154" lon="-4.746764972805977">
        <ele>39.549999999999997</ele>
        <time>2023-08-23T10:55:15Z</time>
      </trkpt>
      <trkpt lat="58.568547992035747" lon="-4.746709987521172">
        <ele>39.07</ele>
        <time>2023-08-23T10:55:16Z</time>
      </trkpt>
      <trkpt lat="58.568559978157282" lon="-4.746610997244716">
        <ele>39.07</ele>
        <time>2023-08-23T10:55:17Z</time>
      </trkpt>
      <trkpt lat="58.568572970107198" lon="-4.746495997533202">
        <ele>38.590000000000003</ele>
        <time>2023-08-23T10:55:18Z</time>
      </trkpt>
      <trkpt lat="58.568587973713875" lon="-4.746373035013676">
        <ele>38.590000000000003</ele>
        <time>2023-08-23T10:55:19Z</time>
      </trkpt>
      <trkpt lat="58.568583028391004" lon="-4.746243031695485">
        <ele>38.109999999999999</ele>
        <time>2023-08-23T10:55:20Z</time>
      </trkpt>
      <trkpt lat="58.568527959287167" lon="-4.744846019893885">
        <ele>35.710000000000001</ele>
        <time>2023-08-23T10:55:30Z</time>
      </trkpt>
      <trkpt lat="58.568392004817724" lon="-4.742697989568114">
        <ele>31.859999999999999</ele>
        <time>2023-08-23T10:55:41Z</time>
      </trkpt>
      <trkpt lat="58.567962013185024" lon="-4.740658001974225">
        <ele>25.609999999999999</ele>
        <time>2023-08-23T10:55:51Z</time>
      </trkpt>
      <trkpt lat="58.567794039845467" lon="-4.740086020901799">
        <ele>23.210000000000001</ele>
        <time>2023-08-23T10:55:54Z</time>
      </trkpt>
      <trkpt lat="58.567721033468843" lon="-4.73996096290648">
        <ele>22.73</ele>
        <time>2023-08-23T10:55:55Z</time>
      </trkpt>
      <trkpt lat="58.567644003778696" lon="-4.739828025922179">
        <ele>21.77</ele>
        <time>2023-08-23T10:55:56Z</time>
      </trkpt>
      <trkpt lat="58.56754501350224" lon="-4.739738004282117">
        <ele>21.289999999999999</ele>
        <time>2023-08-23T10:55:57Z</time>
      </trkpt>
      <trkpt lat="58.567440994083881" lon="-4.739643037319183">
        <ele>20.32</ele>
        <time>2023-08-23T10:55:58Z</time>
      </trkpt>
      <trkpt lat="58.567335968837142" lon="-4.739582017064095">
        <ele>19.359999999999999</ele>
        <time>2023-08-23T10:55:59Z</time>
      </trkpt>
      <trkpt lat="58.567219963297248" lon="-4.739558966830373">
        <ele>18.399999999999999</ele>
        <time>2023-08-23T10:56:00Z</time>
      </trkpt>
      <trkpt lat="58.567116027697921" lon="-4.739570030942559">
        <ele>17.920000000000002</ele>
        <time>2023-08-23T10:56:01Z</time>
      </trkpt>
      <trkpt lat="58.567003961652517" lon="-4.739611018449068">
        <ele>17.440000000000001</ele>
        <time>2023-08-23T10:56:02Z</time>
      </trkpt>
      <trkpt lat="58.566888039931655" lon="-4.739654017612338">
        <ele>16.960000000000001</ele>
        <time>2023-08-23T10:56:03Z</time>
      </trkpt>
      <trkpt lat="58.566763987764716" lon="-4.739699028432369">
        <ele>16.48</ele>
        <time>2023-08-23T10:56:04Z</time>
      </trkpt>
      <trkpt lat="58.566659968346357" lon="-4.739797012880445">
        <ele>16.48</ele>
        <time>2023-08-23T10:56:05Z</time>
      </trkpt>
      <trkpt lat="58.565452974289656" lon="-4.740926977247">
        <ele>19.359999999999999</ele>
        <time>2023-08-23T10:56:16Z</time>
      </trkpt>
      <trkpt lat="58.564376989379525" lon="-4.741895003244281">
        <ele>25.129999999999999</ele>
        <time>2023-08-23T10:56:25Z</time>
      </trkpt>
      <trkpt lat="58.563108975067735" lon="-4.74309797398746">
        <ele>28.5</ele>
        <time>2023-08-23T10:56:35Z</time>
      </trkpt>
      <trkpt lat="58.561791004613042" lon="-4.744223998859525">
        <ele>26.57</ele>
        <time>2023-08-23T10:56:45Z</time>
      </trkpt>
      <trkpt lat="58.561699977144599" lon="-4.744270015507937">
        <ele>26.09</ele>
        <time>2023-08-23T10:56:46Z</time>
      </trkpt>
      <trkpt lat="58.561581959947944" lon="-4.744227016344667">
        <ele>25.609999999999999</ele>
        <time>2023-08-23T10:56:47Z</time>
      </trkpt>
      <trkpt lat="58.561479030176997" lon="-4.744189968332648">
        <ele>25.129999999999999</ele>
        <time>2023-08-23T10:56:48Z</time>
      </trkpt>
      <trkpt lat="58.56140099465847" lon="-4.744052002206445">
        <ele>25.129999999999999</ele>
        <time>2023-08-23T10:56:49Z</time>
      </trkpt>
      <trkpt lat="58.561323964968324" lon="-4.743889980018139">
        <ele>25.609999999999999</ele>
        <time>2023-08-23T10:56:50Z</time>
      </trkpt>
      <trkpt lat="58.56124903075397" lon="-4.743732986971736">
        <ele>25.129999999999999</ele>
        <time>2023-08-23T10:56:51Z</time>
      </trkpt>
      <trkpt lat="58.561215000227094" lon="-4.74352695979178">
        <ele>25.609999999999999</ele>
        <time>2023-08-23T10:56:52Z</time>
      </trkpt>
      <trkpt lat="58.56118499301374" lon="-4.743315987288952">
        <ele>26.09</ele>
        <time>2023-08-23T10:56:53Z</time>
      </trkpt>
      <trkpt lat="58.56118499301374" lon="-4.743087999522686">
        <ele>26.57</ele>
        <time>2023-08-23T10:56:54Z</time>
      </trkpt>
      <trkpt lat="58.561244001612067" lon="-4.742874009534717">
        <ele>27.530000000000001</ele>
        <time>2023-08-23T10:56:55Z</time>
      </trkpt>
      <trkpt lat="58.56131399050355" lon="-4.742643004283309">
        <ele>28.5</ele>
        <time>2023-08-23T10:56:56Z</time>
      </trkpt>
      <trkpt lat="58.561389008536935" lon="-4.742395989596844">
        <ele>29.460000000000001</ele>
        <time>2023-08-23T10:56:57Z</time>
      </trkpt>
      <trkpt lat="58.562175985425711" lon="-4.740106975659728">
        <ele>36.189999999999998</ele>
        <time>2023-08-23T10:57:05Z</time>
      </trkpt>
      <trkpt lat="58.563345009461045" lon="-4.737862972542644">
        <ele>41.950000000000003</ele>
        <time>2023-08-23T10:57:14Z</time>
      </trkpt>
      <trkpt lat="58.564717965200543" lon="-4.735901020467281">
        <ele>42.920000000000002</ele>
        <time>2023-08-23T10:57:24Z</time>
      </trkpt>
      <trkpt lat="58.564820978790522" lon="-4.73568300716579">
        <ele>42.920000000000002</ele>
        <time>2023-08-23T10:57:25Z</time>
      </trkpt>
      <trkpt lat="58.564906977117062" lon="-4.735435992479324">
        <ele>42.920000000000002</ele>
        <time>2023-08-23T10:57:26Z</time>
      </trkpt>
      <trkpt lat="58.564984006807208" lon="-4.735174980014563">
        <ele>43.399999999999999</ele>
        <time>2023-08-23T10:57:27Z</time>
      </trkpt>
      <trkpt lat="58.565043015405536" lon="-4.734893012791872">
        <ele>43.399999999999999</ele>
        <time>2023-08-23T10:57:28Z</time>
      </trkpt>
      <trkpt lat="58.565061958506703" lon="-4.734604004770517">
        <ele>43.399999999999999</ele>
        <time>2023-08-23T10:57:29Z</time>
      </trkpt>
      <trkpt lat="58.565076040104032" lon="-4.734328994527459">
        <ele>42.920000000000002</ele>
        <time>2023-08-23T10:57:30Z</time>
      </trkpt>
      <trkpt lat="58.565089032053947" lon="-4.7340730112046">
        <ele>42.920000000000002</ele>
        <time>2023-08-23T10:57:31Z</time>
      </trkpt>
      <trkpt lat="58.565057013183832" lon="-4.733830019831657">
        <ele>42.920000000000002</ele>
        <time>2023-08-23T10:57:32Z</time>
      </trkpt>
      <trkpt lat="58.565018959343433" lon="-4.733574958518148">
        <ele>42.439999999999998</ele>
        <time>2023-08-23T10:57:33Z</time>
      </trkpt>
      <trkpt lat="58.564964979887009" lon="-4.733316041529179">
        <ele>42.439999999999998</ele>
        <time>2023-08-23T10:57:34Z</time>
      </trkpt>
      <trkpt lat="58.564303983002901" lon="-4.730494022369385">
        <ele>44.359999999999999</ele>
        <time>2023-08-23T10:57:44Z</time>
      </trkpt>
      <trkpt lat="58.564276993274689" lon="-4.730196967720985">
        <ele>44.840000000000003</ele>
        <time>2023-08-23T10:57:45Z</time>
      </trkpt>
      <trkpt lat="58.564283028244972" lon="-4.729906031861901">
        <ele>45.32</ele>
        <time>2023-08-23T10:57:46Z</time>
      </trkpt>
      <trkpt lat="58.564327033236623" lon="-4.727794965729117">
        <ele>51.57</ele>
        <time>2023-08-23T10:57:54Z</time>
      </trkpt>
      <trkpt lat="58.564009023830295" lon="-4.725353987887502">
        <ele>47.719999999999999</ele>
        <time>2023-08-23T10:58:04Z</time>
      </trkpt>
      <trkpt lat="58.563611973077059" lon="-4.723639972507954">
        <ele>42.439999999999998</ele>
        <time>2023-08-23T10:58:14Z</time>
      </trkpt>
      <trkpt lat="58.563480963930488" lon="-4.72313404083252">
        <ele>38.590000000000003</ele>
        <time>2023-08-23T10:58:17Z</time>
      </trkpt>
      <trkpt lat="58.563471995294094" lon="-4.723002025857568">
        <ele>37.630000000000003</ele>
        <time>2023-08-23T10:58:18Z</time>
      </trkpt>
      <trkpt lat="58.563460009172559" lon="-4.722837992012501">
        <ele>36.189999999999998</ele>
        <time>2023-08-23T10:58:19Z</time>
      </trkpt>
      <trkpt lat="58.563337968662381" lon="-4.721114002168179">
        <ele>28.5</ele>
        <time>2023-08-23T10:58:31Z</time>
      </trkpt>
      <trkpt lat="58.563294969499111" lon="-4.720876039937139">
        <ele>27.530000000000001</ele>
        <time>2023-08-23T10:58:33Z</time>
      </trkpt>
      <trkpt lat="58.563262028619647" lon="-4.72075299359858">
        <ele>27.050000000000001</ele>
        <time>2023-08-23T10:58:34Z</time>
      </trkpt>
      <trkpt lat="58.563225986436009" lon="-4.720619972795248">
        <ele>27.050000000000001</ele>
        <time>2023-08-23T10:58:35Z</time>
      </trkpt>
      <trkpt lat="58.563188016414642" lon="-4.720477983355522">
        <ele>27.050000000000001</ele>
        <time>2023-08-23T10:58:36Z</time>
      </trkpt>
      <trkpt lat="58.563112998381257" lon="-4.720374969765544">
        <ele>27.530000000000001</ele>
        <time>2023-08-23T10:58:37Z</time>
      </trkpt>
      <trkpt lat="58.563035968691111" lon="-4.720286037772894">
        <ele>28.02</ele>
        <time>2023-08-23T10:58:38Z</time>
      </trkpt>
      <trkpt lat="58.562958016991615" lon="-4.720197021961212">
        <ele>28.5</ele>
        <time>2023-08-23T10:58:39Z</time>
      </trkpt>
      <trkpt lat="58.562879981473088" lon="-4.720109011977911">
        <ele>28.98</ele>
        <time>2023-08-23T10:58:40Z</time>
      </trkpt>
      <trkpt lat="58.56279700063169" lon="-4.720070036128163">
        <ele>29.460000000000001</ele>
        <time>2023-08-23T10:58:41Z</time>
      </trkpt>
      <trkpt lat="58.562707984820008" lon="-4.720029970631003">
        <ele>29.940000000000001</ele>
        <time>2023-08-23T10:58:42Z</time>
      </trkpt>
      <trkpt lat="58.562617963179946" lon="-4.719988983124495">
        <ele>30.420000000000002</ele>
        <time>2023-08-23T10:58:43Z</time>
      </trkpt>
      <trkpt lat="58.56182998046279" lon="-4.719627974554896">
        <ele>34.259999999999998</ele>
        <time>2023-08-23T10:58:53Z</time>
      </trkpt>
      <trkpt lat="58.56140099465847" lon="-4.719379032030702">
        <ele>36.670000000000002</ele>
        <time>2023-08-23T10:58:57Z</time>
      </trkpt>
      <trkpt lat="58.560152007266879" lon="-4.718142030760646">
        <ele>44.840000000000003</ele>
        <time>2023-08-23T10:59:08Z</time>
      </trkpt>
      <trkpt lat="58.559870040044188" lon="-4.717667028307915">
        <ele>45.799999999999997</ele>
        <time>2023-08-23T10:59:11Z</time>
      </trkpt>
      <trkpt lat="58.559769038110971" lon="-4.717491008341312">
        <ele>46.280000000000001</ele>
        <time>2023-08-23T10:59:12Z</time>
      </trkpt>
      <trkpt lat="58.559498973190784" lon="-4.716878961771727">
        <ele>47.240000000000002</ele>
        <time>2023-08-23T10:59:18Z</time>
      </trkpt>
      <trkpt lat="58.559461003169417" lon="-4.716791035607457">
        <ele>47.240000000000002</ele>
        <time>2023-08-23T10:59:27Z</time>
      </trkpt>
      <trkpt lat="58.559461003169417" lon="-4.716791035607457">
        <ele>47.719999999999999</ele>
        <time>2023-08-23T11:00:12Z</time>
      </trkpt>
      <trkpt lat="58.559409035369754" lon="-4.716673018410802">
        <ele>48.200000000000003</ele>
        <time>2023-08-23T11:00:36Z</time>
      </trkpt>
      <trkpt lat="58.559366958215833" lon="-4.716578973457217">
        <ele>48.200000000000003</ele>
        <time>2023-08-23T11:00:37Z</time>
      </trkpt>
      <trkpt lat="58.558869995176792" lon="-4.71523099578917">
        <ele>43.880000000000003</ele>
        <time>2023-08-23T11:00:46Z</time>
      </trkpt>
      <trkpt lat="58.558475039899349" lon="-4.714059038087726">
        <ele>40.509999999999998</ele>
        <time>2023-08-23T11:00:52Z</time>
      </trkpt>
      <trkpt lat="58.558460958302021" lon="-4.713872959837318">
        <ele>40.030000000000001</ele>
        <time>2023-08-23T11:00:53Z</time>
      </trkpt>
      <trkpt lat="58.558462969958782" lon="-4.713654024526477">
        <ele>40.030000000000001</ele>
        <time>2023-08-23T11:00:54Z</time>
      </trkpt>
      <trkpt lat="58.558463975787163" lon="-4.713438022881746">
        <ele>39.549999999999997</ele>
        <time>2023-08-23T11:00:55Z</time>
      </trkpt>
      <trkpt lat="58.558465987443924" lon="-4.713225038722158">
        <ele>39.07</ele>
        <time>2023-08-23T11:00:56Z</time>
      </trkpt>
      <trkpt lat="58.558480991050601" lon="-4.711238024756312">
        <ele>38.590000000000003</ele>
        <time>2023-08-23T11:01:07Z</time>
      </trkpt>
      <trkpt lat="58.558397004380822" lon="-4.709749985486269">
        <ele>38.109999999999999</ele>
        <time>2023-08-23T11:01:14Z</time>
      </trkpt>
      <trkpt lat="58.558212015777826" lon="-4.70764696598053">
        <ele>36.189999999999998</ele>
        <time>2023-08-23T11:01:23Z</time>
      </trkpt>
      <trkpt lat="58.558157030493021" lon="-4.707441022619605">
        <ele>35.710000000000001</ele>
        <time>2023-08-23T11:01:24Z</time>
      </trkpt>
      <trkpt lat="58.558089975267649" lon="-4.707241030409932">
        <ele>35.710000000000001</ele>
        <time>2023-08-23T11:01:25Z</time>
      </trkpt>
      <trkpt lat="58.558018980547786" lon="-4.707047995179892">
        <ele>35.229999999999997</ele>
        <time>2023-08-23T11:01:26Z</time>
      </trkpt>
      <trkpt lat="58.557914961129427" lon="-4.706926038488746">
        <ele>34.740000000000002</ele>
        <time>2023-08-23T11:01:27Z</time>
      </trkpt>
      <trkpt lat="58.557810019701719" lon="-4.706800980493426">
        <ele>34.740000000000002</ele>
        <time>2023-08-23T11:01:28Z</time>
      </trkpt>
      <trkpt lat="58.557695019990206" lon="-4.70672101713717">
        <ele>34.259999999999998</ele>
        <time>2023-08-23T11:01:29Z</time>
      </trkpt>
      <trkpt lat="58.557569039985538" lon="-4.706653961911798">
        <ele>33.780000000000001</ele>
        <time>2023-08-23T11:01:30Z</time>
      </trkpt>
      <trkpt lat="58.557431995868683" lon="-4.706597970798612">
        <ele>33.299999999999997</ele>
        <time>2023-08-23T11:01:31Z</time>
      </trkpt>
      <trkpt lat="58.556057028472424" lon="-4.706032024696469">
        <ele>22.25</ele>
        <time>2023-08-23T11:01:42Z</time>
      </trkpt>
      <trkpt lat="58.555906992405653" lon="-4.706039987504482">
        <ele>21.77</ele>
        <time>2023-08-23T11:01:43Z</time>
      </trkpt>
      <trkpt lat="58.55579299852252" lon="-4.706047028303146">
        <ele>20.809999999999999</ele>
        <time>2023-08-23T11:01:44Z</time>
      </trkpt>
      <trkpt lat="58.555670036002994" lon="-4.706053985282779">
        <ele>19.359999999999999</ele>
        <time>2023-08-23T11:01:45Z</time>
      </trkpt>
      <trkpt lat="58.555568028241396" lon="-4.706117017194629">
        <ele>18.399999999999999</ele>
        <time>2023-08-23T11:01:46Z</time>
      </trkpt>
      <trkpt lat="58.555460991337895" lon="-4.706182982772589">
        <ele>17.440000000000001</ele>
        <time>2023-08-23T11:01:47Z</time>
      </trkpt>
      <trkpt lat="58.555355966091156" lon="-4.7062480263412">
        <ele>16.960000000000001</ele>
        <time>2023-08-23T11:01:48Z</time>
      </trkpt>
      <trkpt lat="58.555253958329558" lon="-4.706310974434018">
        <ele>16</ele>
        <time>2023-08-23T11:01:49Z</time>
      </trkpt>
      <trkpt lat="58.555156979709864" lon="-4.706319021061063">
        <ele>15.52</ele>
        <time>2023-08-23T11:01:50Z</time>
      </trkpt>
      <trkpt lat="58.555078022181988" lon="-4.706300999969244">
        <ele>14.56</ele>
        <time>2023-08-23T11:01:51Z</time>
      </trkpt>
      <trkpt lat="58.555023036897182" lon="-4.706284990534186">
        <ele>13.6</ele>
        <time>2023-08-23T11:01:52Z</time>
      </trkpt>
      <trkpt lat="58.55499504134059" lon="-4.706247020512819">
        <ele>13.119999999999999</ele>
        <time>2023-08-23T11:01:53Z</time>
      </trkpt>
      <trkpt lat="58.554978026077151" lon="-4.706223970279098">
        <ele>12.630000000000001</ele>
        <time>2023-08-23T11:01:54Z</time>
      </trkpt>
      <trkpt lat="58.554908959195018" lon="-4.706129003316164">
        <ele>10.710000000000001</ele>
        <time>2023-08-23T11:02:05Z</time>
      </trkpt>
      <trkpt lat="58.554853973910213" lon="-4.706051973626018">
        <ele>10.23</ele>
        <time>2023-08-23T11:02:06Z</time>
      </trkpt>
      <trkpt lat="58.554333038628101" lon="-4.704965008422732">
        <ele>7.35</ele>
        <time>2023-08-23T11:02:13Z</time>
      </trkpt>
      <trkpt lat="58.554253997281194" lon="-4.704737020656467">
        <ele>6.87</ele>
        <time>2023-08-23T11:02:14Z</time>
      </trkpt>
      <trkpt lat="58.554179985076189" lon="-4.704506015405059">
        <ele>6.87</ele>
        <time>2023-08-23T11:02:15Z</time>
      </trkpt>
      <trkpt lat="58.554124999791384" lon="-4.704253971576691">
        <ele>6.87</ele>
        <time>2023-08-23T11:02:16Z</time>
      </trkpt>
      <trkpt lat="58.554084012284875" lon="-4.70399497076869">
        <ele>6.87</ele>
        <time>2023-08-23T11:02:17Z</time>
      </trkpt>
      <trkpt lat="58.554088035598397" lon="-4.70371400937438">
        <ele>6.87</ele>
        <time>2023-08-23T11:02:18Z</time>
      </trkpt>
      <trkpt lat="58.554092980921268" lon="-4.703415026888251">
        <ele>6.87</ele>
        <time>2023-08-23T11:02:19Z</time>
      </trkpt>
      <trkpt lat="58.554098010063171" lon="-4.70311101526022">
        <ele>7.35</ele>
        <time>2023-08-23T11:02:20Z</time>
      </trkpt>
      <trkpt lat="58.554103039205074" lon="-4.702802980318666">
        <ele>8.310000000000001</ele>
        <time>2023-08-23T11:02:21Z</time>
      </trkpt>
      <trkpt lat="58.554248968139291" lon="-4.700762992724776">
        <ele>15.52</ele>
        <time>2023-08-23T11:02:29Z</time>
      </trkpt>
      <trkpt lat="58.554425993934274" lon="-4.699015030637384">
        <ele>20.32</ele>
        <time>2023-08-23T11:02:36Z</time>
      </trkpt>
      <trkpt lat="58.554425993934274" lon="-4.698733985424042">
        <ele>21.289999999999999</ele>
        <time>2023-08-23T11:02:37Z</time>
      </trkpt>
      <trkpt lat="58.554411996155977" lon="-4.698439026251435">
        <ele>22.25</ele>
        <time>2023-08-23T11:02:38Z</time>
      </trkpt>
      <trkpt lat="58.554361034184694" lon="-4.698145994916558">
        <ele>23.210000000000001</ele>
        <time>2023-08-23T11:02:39Z</time>
      </trkpt>
      <trkpt lat="58.554308982565999" lon="-4.697845000773668">
        <ele>24.170000000000002</ele>
        <time>2023-08-23T11:02:40Z</time>
      </trkpt>
      <trkpt lat="58.554256008937955" lon="-4.697534032166004">
        <ele>25.129999999999999</ele>
        <time>2023-08-23T11:02:41Z</time>
      </trkpt>
      <trkpt lat="58.553854012861848" lon="-4.69544199295342">
        <ele>31.859999999999999</ele>
        <time>2023-08-23T11:02:48Z</time>
      </trkpt>
      <trkpt lat="58.553799027577043" lon="-4.694922985509038">
        <ele>33.299999999999997</ele>
        <time>2023-08-23T11:02:50Z</time>
      </trkpt>
      <trkpt lat="58.55368503369391" lon="-4.693259010091424">
        <ele>37.149999999999999</ele>
        <time>2023-08-23T11:02:57Z</time>
      </trkpt>
      <trkpt lat="58.553677992895246" lon="-4.693154990673065">
        <ele>37.630000000000003</ele>
        <time>2023-08-23T11:02:58Z</time>
      </trkpt>
      <trkpt lat="58.55366500094533" lon="-4.693091958761215">
        <ele>38.109999999999999</ele>
        <time>2023-08-23T11:02:59Z</time>
      </trkpt>
      <trkpt lat="58.553520999848843" lon="-4.692769004032016">
        <ele>40.509999999999998</ele>
        <time>2023-08-23T11:03:07Z</time>
      </trkpt>
      <trkpt lat="58.553486969321966" lon="-4.69269298017025">
        <ele>40.509999999999998</ele>
        <time>2023-08-23T11:03:08Z</time>
      </trkpt>
      <trkpt lat="58.553019007667899" lon="-4.691920001059771">
        <ele>40.030000000000001</ele>
        <time>2023-08-23T11:03:14Z</time>
      </trkpt>
      <trkpt lat="58.551956014707685" lon="-4.690482001751661">
        <ele>43.880000000000003</ele>
        <time>2023-08-23T11:03:23Z</time>
      </trkpt>
      <trkpt lat="58.551847971975803" lon="-4.690336994826794">
        <ele>44.840000000000003</ele>
        <time>2023-08-23T11:03:24Z</time>
      </trkpt>
      <trkpt lat="58.55177597142756" lon="-4.690124010667205">
        <ele>45.799999999999997</ele>
        <time>2023-08-23T11:03:25Z</time>
      </trkpt>
      <trkpt lat="58.55173003859818" lon="-4.689889987930656">
        <ele>46.280000000000001</ele>
        <time>2023-08-23T11:03:26Z</time>
      </trkpt>
      <trkpt lat="58.551683016121387" lon="-4.689654959365726">
        <ele>47.240000000000002</ele>
        <time>2023-08-23T11:03:27Z</time>
      </trkpt>
      <trkpt lat="58.551663989201188" lon="-4.689408028498292">
        <ele>48.200000000000003</ele>
        <time>2023-08-23T11:03:28Z</time>
      </trkpt>
      <trkpt lat="58.55164697393775" lon="-4.689155984669924">
        <ele>49.159999999999997</ele>
        <time>2023-08-23T11:03:29Z</time>
      </trkpt>
      <trkpt lat="58.551629036664963" lon="-4.688897989690304">
        <ele>50.130000000000003</ele>
        <time>2023-08-23T11:03:30Z</time>
      </trkpt>
      <trkpt lat="58.551329970359802" lon="-4.686485007405281">
        <ele>53.969999999999999</ele>
        <time>2023-08-23T11:03:39Z</time>
      </trkpt>
      <trkpt lat="58.551233997568488" lon="-4.685773970559239">
        <ele>55.890000000000001</ele>
        <time>2023-08-23T11:03:44Z</time>
      </trkpt>
      <trkpt lat="58.551166020333767" lon="-4.684963021427393">
        <ele>58.780000000000001</ele>
        <time>2023-08-23T11:03:51Z</time>
      </trkpt>
      <trkpt lat="58.551095025613904" lon="-4.68420404009521">
        <ele>61.659999999999997</ele>
        <time>2023-08-23T11:03:55Z</time>
      </trkpt>
      <trkpt lat="58.551070969551802" lon="-4.683999018743634">
        <ele>62.140000000000001</ele>
        <time>2023-08-23T11:03:56Z</time>
      </trkpt>
      <trkpt lat="58.551046997308731" lon="-4.683787962421775">
        <ele>62.619999999999997</ele>
        <time>2023-08-23T11:03:57Z</time>
      </trkpt>
      <trkpt lat="58.550792019814253" lon="-4.682858996093273">
        <ele>62.619999999999997</ele>
        <time>2023-08-23T11:04:02Z</time>
      </trkpt>
      <trkpt lat="58.550750026479363" lon="-4.682717006653547">
        <ele>62.619999999999997</ele>
        <time>2023-08-23T11:04:03Z</time>
      </trkpt>
      <trkpt lat="58.550703004002571" lon="-4.682611981406808">
        <ele>62.619999999999997</ele>
        <time>2023-08-23T11:04:04Z</time>
      </trkpt>
      <trkpt lat="58.550243005156517" lon="-4.681849982589483">
        <ele>61.18</ele>
        <time>2023-08-23T11:04:14Z</time>
      </trkpt>
      <trkpt lat="58.550211992114782" lon="-4.681800026446581">
        <ele>61.18</ele>
        <time>2023-08-23T11:04:15Z</time>
      </trkpt>
      <trkpt lat="58.550125993788242" lon="-4.681690977886319">
        <ele>60.219999999999999</ele>
        <time>2023-08-23T11:04:24Z</time>
      </trkpt>
      <trkpt lat="58.550125993788242" lon="-4.681690977886319">
        <ele>60.219999999999999</ele>
        <time>2023-08-23T11:05:01Z</time>
      </trkpt>
      <trkpt lat="58.549975035712123" lon="-4.681545970961452">
        <ele>58.780000000000001</ele>
        <time>2023-08-23T11:05:19Z</time>
      </trkpt>
      <trkpt lat="58.549811001867056" lon="-4.681499032303691">
        <ele>57.340000000000003</ele>
        <time>2023-08-23T11:05:22Z</time>
      </trkpt>
      <trkpt lat="58.549017990007997" lon="-4.681267021223903">
        <ele>52.049999999999997</ele>
        <time>2023-08-23T11:05:31Z</time>
      </trkpt>
      <trkpt lat="58.548954036086798" lon="-4.681249000132084">
        <ele>51.57</ele>
        <time>2023-08-23T11:05:32Z</time>
      </trkpt>
      <trkpt lat="58.54885496199131" lon="-4.681116985157132">
        <ele>50.609999999999999</ele>
        <time>2023-08-23T11:05:33Z</time>
      </trkpt>
      <trkpt lat="58.548777010291815" lon="-4.681012965738773">
        <ele>49.649999999999999</ele>
        <time>2023-08-23T11:05:34Z</time>
      </trkpt>
      <trkpt lat="58.548755971714854" lon="-4.680890003219247">
        <ele>48.200000000000003</ele>
        <time>2023-08-23T11:05:35Z</time>
      </trkpt>
      <trkpt lat="58.54874599725008" lon="-4.68070400878787">
        <ele>47.240000000000002</ele>
        <time>2023-08-23T11:05:36Z</time>
      </trkpt>
      <trkpt lat="58.548751026391983" lon="-4.680547015741468">
        <ele>45.799999999999997</ele>
        <time>2023-08-23T11:05:37Z</time>
      </trkpt>
      <trkpt lat="58.548808023333549" lon="-4.680373007431626">
        <ele>44.359999999999999</ele>
        <time>2023-08-23T11:05:38Z</time>
      </trkpt>
      <trkpt lat="58.548866026103497" lon="-4.680197993293405">
        <ele>43.399999999999999</ele>
        <time>2023-08-23T11:05:39Z</time>
      </trkpt>
      <trkpt lat="58.549080016091466" lon="-4.679544037207961">
        <ele>39.07</ele>
        <time>2023-08-23T11:05:43Z</time>
      </trkpt>
      <trkpt lat="58.549117986112833" lon="-4.679367011412978">
        <ele>38.590000000000003</ele>
        <time>2023-08-23T11:05:44Z</time>
      </trkpt>
      <trkpt lat="58.549199039116502" lon="-4.678531000390649">
        <ele>34.740000000000002</ele>
        <time>2023-08-23T11:05:49Z</time>
      </trkpt>
      <trkpt lat="58.549183029681444" lon="-4.678379036486149">
        <ele>34.259999999999998</ele>
        <time>2023-08-23T11:05:50Z</time>
      </trkpt>
      <trkpt lat="58.549168026074767" lon="-4.67823101207614">
        <ele>33.780000000000001</ele>
        <time>2023-08-23T11:05:51Z</time>
      </trkpt>
      <trkpt lat="58.54915302246809" lon="-4.678084999322891">
        <ele>33.299999999999997</ele>
        <time>2023-08-23T11:05:52Z</time>
      </trkpt>
      <trkpt lat="58.549118991941214" lon="-4.677957007661462">
        <ele>32.82</ele>
        <time>2023-08-23T11:05:53Z</time>
      </trkpt>
      <trkpt lat="58.549070041626692" lon="-4.677832033485174">
        <ele>32.340000000000003</ele>
        <time>2023-08-23T11:05:54Z</time>
      </trkpt>
      <trkpt lat="58.549018995836377" lon="-4.677702030166984">
        <ele>31.859999999999999</ele>
        <time>2023-08-23T11:05:55Z</time>
      </trkpt>
      <trkpt lat="58.548968033865094" lon="-4.677573032677174">
        <ele>31.379999999999999</ele>
        <time>2023-08-23T11:05:56Z</time>
      </trkpt>
      <trkpt lat="58.548909025266767" lon="-4.677484016865492">
        <ele>31.379999999999999</ele>
        <time>2023-08-23T11:05:57Z</time>
      </trkpt>
      <trkpt lat="58.54878899641335" lon="-4.677343033254147">
        <ele>30.420000000000002</ele>
        <time>2023-08-23T11:06:00Z</time>
      </trkpt>
      <trkpt lat="58.548217015340924" lon="-4.676672983914614">
        <ele>25.609999999999999</ele>
        <time>2023-08-23T11:06:10Z</time>
      </trkpt>
      <trkpt lat="58.548176027834415" lon="-4.676567036658526">
        <ele>25.129999999999999</ele>
        <time>2023-08-23T11:06:11Z</time>
      </trkpt>
      <trkpt lat="58.548137973994017" lon="-4.676441978663206">
        <ele>24.649999999999999</ele>
        <time>2023-08-23T11:06:12Z</time>
      </trkpt>
      <trkpt lat="58.548103021457791" lon="-4.676325973123312">
        <ele>24.649999999999999</ele>
        <time>2023-08-23T11:06:13Z</time>
      </trkpt>
      <trkpt lat="58.548068990930915" lon="-4.676211979240179">
        <ele>24.170000000000002</ele>
        <time>2023-08-23T11:06:14Z</time>
      </trkpt>
      <trkpt lat="58.547961032018065" lon="-4.675848037004471">
        <ele>23.690000000000001</ele>
        <time>2023-08-23T11:06:17Z</time>
      </trkpt>
      <trkpt lat="58.547634975984693" lon="-4.674821002408862">
        <ele>24.170000000000002</ele>
        <time>2023-08-23T11:06:24Z</time>
      </trkpt>
      <trkpt lat="58.547561969608068" lon="-4.67466501519084">
        <ele>24.649999999999999</ele>
        <time>2023-08-23T11:06:25Z</time>
      </trkpt>
      <trkpt lat="58.547463985159993" lon="-4.674575999379158">
        <ele>25.129999999999999</ele>
        <time>2023-08-23T11:06:26Z</time>
      </trkpt>
      <trkpt lat="58.547360971570015" lon="-4.674481032416225">
        <ele>26.09</ele>
        <time>2023-08-23T11:06:27Z</time>
      </trkpt>
      <trkpt lat="58.54724396020174" lon="-4.674427974969149">
        <ele>26.57</ele>
        <time>2023-08-23T11:06:28Z</time>
      </trkpt>
      <trkpt lat="58.547117980197072" lon="-4.674398973584175">
        <ele>27.050000000000001</ele>
        <time>2023-08-23T11:06:29Z</time>
      </trkpt>
      <trkpt lat="58.546987976878881" lon="-4.674369972199202">
        <ele>28.02</ele>
        <time>2023-08-23T11:06:30Z</time>
      </trkpt>
      <trkpt lat="58.545749969780445" lon="-4.673964958637953">
        <ele>34.740000000000002</ele>
        <time>2023-08-23T11:06:39Z</time>
      </trkpt>
      <trkpt lat="58.545284019783139" lon="-4.673855993896723">
        <ele>37.149999999999999</ele>
        <time>2023-08-23T11:06:44Z</time>
      </trkpt>
      <trkpt lat="58.545284019783139" lon="-4.673855993896723">
        <ele>37.630000000000003</ele>
        <time>2023-08-23T11:06:53Z</time>
      </trkpt>
      <trkpt lat="58.544991994276643" lon="-4.673788016662002">
        <ele>39.07</ele>
        <time>2023-08-23T11:07:03Z</time>
      </trkpt>
      <trkpt lat="58.543802015483379" lon="-4.673480987548828">
        <ele>41.469999999999999</ele>
        <time>2023-08-23T11:07:13Z</time>
      </trkpt>
      <trkpt lat="58.543059965595603" lon="-4.673213018104434">
        <ele>42.920000000000002</ele>
        <time>2023-08-23T11:07:20Z</time>
      </trkpt>
      <trkpt lat="58.542972961440682" lon="-4.673225004225969">
        <ele>42.920000000000002</ele>
        <time>2023-08-23T11:07:21Z</time>
      </trkpt>
      <trkpt lat="58.542874976992607" lon="-4.673261968418956">
        <ele>42.920000000000002</ele>
        <time>2023-08-23T11:07:22Z</time>
      </trkpt>
      <trkpt lat="58.542753020301461" lon="-4.673308990895748">
        <ele>42.920000000000002</ele>
        <time>2023-08-23T11:07:23Z</time>
      </trkpt>
      <trkpt lat="58.542649000883102" lon="-4.673427008092403">
        <ele>42.920000000000002</ele>
        <time>2023-08-23T11:07:24Z</time>
      </trkpt>
      <trkpt lat="58.542532995343208" lon="-4.673576038330793">
        <ele>42.920000000000002</ele>
        <time>2023-08-23T11:07:25Z</time>
      </trkpt>
      <trkpt lat="58.542422018945217" lon="-4.673744011670351">
        <ele>43.399999999999999</ele>
        <time>2023-08-23T11:07:26Z</time>
      </trkpt>
      <trkpt lat="58.541580978780985" lon="-4.674928961321712">
        <ele>46.759999999999998</ele>
        <time>2023-08-23T11:07:34Z</time>
      </trkpt>
      <trkpt lat="58.541535967960954" lon="-4.674983024597168">
        <ele>47.240000000000002</ele>
        <time>2023-08-23T11:07:35Z</time>
      </trkpt>
      <trkpt lat="58.541321977972984" lon="-4.675143035128713">
        <ele>47.240000000000002</ele>
        <time>2023-08-23T11:07:40Z</time>
      </trkpt>
      <trkpt lat="58.541235979646444" lon="-4.675187962129712">
        <ele>47.719999999999999</ele>
        <time>2023-08-23T11:07:41Z</time>
      </trkpt>
      <trkpt lat="58.541136989369988" lon="-4.675239007920027">
        <ele>47.240000000000002</ele>
        <time>2023-08-23T11:07:42Z</time>
      </trkpt>
      <trkpt lat="58.540048012509942" lon="-4.675620971247554">
        <ele>47.719999999999999</ele>
        <time>2023-08-23T11:07:50Z</time>
      </trkpt>
      <trkpt lat="58.538759965449572" lon="-4.675551988184452">
        <ele>51.57</ele>
        <time>2023-08-23T11:07:59Z</time>
      </trkpt>
      <trkpt lat="58.53862602263689" lon="-4.675544025376439">
        <ele>51.57</ele>
        <time>2023-08-23T11:08:00Z</time>
      </trkpt>
      <trkpt lat="58.536882000043988" lon="-4.675994971767068">
        <ele>53.969999999999999</ele>
        <time>2023-08-23T11:08:12Z</time>
      </trkpt>
      <trkpt lat="58.535628989338875" lon="-4.675926994532347">
        <ele>54.450000000000003</ele>
        <time>2023-08-23T11:08:21Z</time>
      </trkpt>
      <trkpt lat="58.534260978922248" lon="-4.675437994301319">
        <ele>51.57</ele>
        <time>2023-08-23T11:08:31Z</time>
      </trkpt>
      <trkpt lat="58.534128963947296" lon="-4.675445035099983">
        <ele>51.090000000000003</ele>
        <time>2023-08-23T11:08:32Z</time>
      </trkpt>
      <trkpt lat="58.533996026962996" lon="-4.67552600428462">
        <ele>50.609999999999999</ele>
        <time>2023-08-23T11:08:33Z</time>
      </trkpt>
      <trkpt lat="58.532097022980452" lon="-4.676727969199419">
        <ele>46.280000000000001</ele>
        <time>2023-08-23T11:08:46Z</time>
      </trkpt>
      <trkpt lat="58.530418965965509" lon="-4.678683970123529">
        <ele>44.359999999999999</ele>
        <time>2023-08-23T11:08:58Z</time>
      </trkpt>
      <trkpt lat="58.52880897000432" lon="-4.680355992168188">
        <ele>45.32</ele>
        <time>2023-08-23T11:09:09Z</time>
      </trkpt>
      <trkpt lat="58.527357978746295" lon="-4.681964982300997">
        <ele>47.240000000000002</ele>
        <time>2023-08-23T11:09:19Z</time>
      </trkpt>
      <trkpt lat="58.527210038155317" lon="-4.682085011154413">
        <ele>47.240000000000002</ele>
        <time>2023-08-23T11:09:20Z</time>
      </trkpt>
      <trkpt lat="58.525896007195115" lon="-4.683347996324301">
        <ele>49.159999999999997</ele>
        <time>2023-08-23T11:09:29Z</time>
      </trkpt>
      <trkpt lat="58.52530600503087" lon="-4.683924000710249">
        <ele>49.649999999999999</ele>
        <time>2023-08-23T11:09:34Z</time>
      </trkpt>
      <trkpt lat="58.525205003097653" lon="-4.683958031237125">
        <ele>50.130000000000003</ele>
        <time>2023-08-23T11:09:35Z</time>
      </trkpt>
      <trkpt lat="58.525104001164436" lon="-4.68399197794497">
        <ele>50.130000000000003</ele>
        <time>2023-08-23T11:09:36Z</time>
      </trkpt>
      <trkpt lat="58.524999981746078" lon="-4.684026008471847">
        <ele>49.649999999999999</ele>
        <time>2023-08-23T11:09:37Z</time>
      </trkpt>
      <trkpt lat="58.524890011176467" lon="-4.684004969894886">
        <ele>49.159999999999997</ele>
        <time>2023-08-23T11:09:38Z</time>
      </trkpt>
      <trkpt lat="58.524784985929728" lon="-4.683959037065506">
        <ele>48.68</ele>
        <time>2023-08-23T11:09:39Z</time>
      </trkpt>
      <trkpt lat="58.524681972339749" lon="-4.683913020417094">
        <ele>48.200000000000003</ele>
        <time>2023-08-23T11:09:40Z</time>
      </trkpt>
      <trkpt lat="58.524580970406532" lon="-4.683868009597063">
        <ele>47.719999999999999</ele>
        <time>2023-08-23T11:09:41Z</time>
      </trkpt>
      <trkpt lat="58.524486003443599" lon="-4.683826016262174">
        <ele>47.240000000000002</ele>
        <time>2023-08-23T11:09:42Z</time>
      </trkpt>
      <trkpt lat="58.524391958490014" lon="-4.683784022927284">
        <ele>46.759999999999998</ele>
        <time>2023-08-23T11:09:43Z</time>
      </trkpt>
      <trkpt lat="58.524305038154125" lon="-4.683800032362342">
        <ele>45.799999999999997</ele>
        <time>2023-08-23T11:09:44Z</time>
      </trkpt>
      <trkpt lat="58.524207975715399" lon="-4.683821992948651">
        <ele>44.840000000000003</ele>
        <time>2023-08-23T11:09:45Z</time>
      </trkpt>
      <trkpt lat="58.524104962125421" lon="-4.683846971020103">
        <ele>44.359999999999999</ele>
        <time>2023-08-23T11:09:46Z</time>
      </trkpt>
      <trkpt lat="58.524000020697713" lon="-4.683890976011753">
        <ele>43.880000000000003</ele>
        <time>2023-08-23T11:09:47Z</time>
      </trkpt>
      <trkpt lat="58.523897007107735" lon="-4.684017039835453">
        <ele>43.399999999999999</ele>
        <time>2023-08-23T11:09:48Z</time>
      </trkpt>
      <trkpt lat="58.523787036538124" lon="-4.684151988476515">
        <ele>43.399999999999999</ele>
        <time>2023-08-23T11:09:49Z</time>
      </trkpt>
      <trkpt lat="58.523672958835959" lon="-4.68429196625948">
        <ele>43.399999999999999</ele>
        <time>2023-08-23T11:09:50Z</time>
      </trkpt>
      <trkpt lat="58.523441031575203" lon="-4.684575023129582">
        <ele>43.399999999999999</ele>
        <time>2023-08-23T11:09:52Z</time>
      </trkpt>
      <trkpt lat="58.523299964144826" lon="-4.684674013406038">
        <ele>43.399999999999999</ele>
        <time>2023-08-23T11:09:53Z</time>
      </trkpt>
      <trkpt lat="58.523163003847003" lon="-4.684770992025733">
        <ele>43.399999999999999</ele>
        <time>2023-08-23T11:09:54Z</time>
      </trkpt>
      <trkpt lat="58.523023026064038" lon="-4.68484902754426">
        <ele>43.399999999999999</ele>
        <time>2023-08-23T11:09:55Z</time>
      </trkpt>
      <trkpt lat="58.522879024967551" lon="-4.684893032535911">
        <ele>43.399999999999999</ele>
        <time>2023-08-23T11:09:56Z</time>
      </trkpt>
      <trkpt lat="58.521770015358925" lon="-4.685067962855101">
        <ele>44.359999999999999</ele>
        <time>2023-08-23T11:10:05Z</time>
      </trkpt>
      <trkpt lat="58.521390985697508" lon="-4.685113979503512">
        <ele>43.880000000000003</ele>
        <time>2023-08-23T11:10:08Z</time>
      </trkpt>
      <trkpt lat="58.521271040663123" lon="-4.685199977830052">
        <ele>43.880000000000003</ele>
        <time>2023-08-23T11:10:09Z</time>
      </trkpt>
      <trkpt lat="58.521152017638087" lon="-4.685285976156592">
        <ele>43.880000000000003</ele>
        <time>2023-08-23T11:10:10Z</time>
      </trkpt>
      <trkpt lat="58.521032994613051" lon="-4.685378009453416">
        <ele>44.359999999999999</ele>
        <time>2023-08-23T11:10:11Z</time>
      </trkpt>
      <trkpt lat="58.520939033478498" lon="-4.685541959479451">
        <ele>45.32</ele>
        <time>2023-08-23T11:10:12Z</time>
      </trkpt>
      <trkpt lat="58.520843982696533" lon="-4.685708004981279">
        <ele>45.799999999999997</ele>
        <time>2023-08-23T11:10:13Z</time>
      </trkpt>
      <trkpt lat="58.520753039047122" lon="-4.685896011069417">
        <ele>46.759999999999998</ele>
        <time>2023-08-23T11:10:14Z</time>
      </trkpt>
      <trkpt lat="58.520677015185356" lon="-4.686108995229006">
        <ele>47.240000000000002</ele>
        <time>2023-08-23T11:10:15Z</time>
      </trkpt>
      <trkpt lat="58.519857013598084" lon="-4.688420975580812">
        <ele>52.530000000000001</ele>
        <time>2023-08-23T11:10:26Z</time>
      </trkpt>
      <trkpt lat="58.519731033593416" lon="-4.688676036894321">
        <ele>53.009999999999998</ele>
        <time>2023-08-23T11:10:31Z</time>
      </trkpt>
      <trkpt lat="58.519463986158371" lon="-4.689171994104981">
        <ele>53.969999999999999</ele>
        <time>2023-08-23T11:10:37Z</time>
      </trkpt>
      <trkpt lat="58.518756972625852" lon="-4.690541010349989">
        <ele>53.490000000000002</ele>
        <time>2023-08-23T11:10:45Z</time>
      </trkpt>
      <trkpt lat="58.518267972394824" lon="-4.691605009138584">
        <ele>53.009999999999998</ele>
        <time>2023-08-23T11:10:50Z</time>
      </trkpt>
      <trkpt lat="58.518155990168452" lon="-4.691791003569961">
        <ele>52.530000000000001</ele>
        <time>2023-08-23T11:10:51Z</time>
      </trkpt>
      <trkpt lat="58.518024981021881" lon="-4.691922012716532">
        <ele>52.530000000000001</ele>
        <time>2023-08-23T11:10:52Z</time>
      </trkpt>
      <trkpt lat="58.51789397187531" lon="-4.692053021863103">
        <ele>52.049999999999997</ele>
        <time>2023-08-23T11:10:53Z</time>
      </trkpt>
      <trkpt lat="58.517753994092345" lon="-4.692156035453081">
        <ele>51.57</ele>
        <time>2023-08-23T11:10:54Z</time>
      </trkpt>
      <trkpt lat="58.517609992995858" lon="-4.692239016294479">
        <ele>51.57</ele>
        <time>2023-08-23T11:10:55Z</time>
      </trkpt>
      <trkpt lat="58.515994967892766" lon="-4.693180974572897">
        <ele>44.840000000000003</ele>
        <time>2023-08-23T11:11:06Z</time>
      </trkpt>
      <trkpt lat="58.515254007652402" lon="-4.694017991423607">
        <ele>44.359999999999999</ele>
        <time>2023-08-23T11:11:12Z</time>
      </trkpt>
      <trkpt lat="58.515144037082791" lon="-4.694194011390209">
        <ele>43.880000000000003</ele>
        <time>2023-08-23T11:11:13Z</time>
      </trkpt>
      <trkpt lat="58.515043035149574" lon="-4.694413030520082">
        <ele>43.880000000000003</ele>
        <time>2023-08-23T11:11:14Z</time>
      </trkpt>
      <trkpt lat="58.514953013509512" lon="-4.694659961387515">
        <ele>43.399999999999999</ele>
        <time>2023-08-23T11:11:15Z</time>
      </trkpt>
      <trkpt lat="58.514859974384308" lon="-4.694914016872644">
        <ele>43.399999999999999</ele>
        <time>2023-08-23T11:11:16Z</time>
      </trkpt>
      <trkpt lat="58.514534002169967" lon="-4.695731000974774">
        <ele>43.399999999999999</ele>
        <time>2023-08-23T11:11:20Z</time>
      </trkpt>
      <trkpt lat="58.514474993571639" lon="-4.695824962109327">
        <ele>43.399999999999999</ele>
        <time>2023-08-23T11:11:21Z</time>
      </trkpt>
      <trkpt lat="58.514353958889842" lon="-4.696015985682607">
        <ele>43.880000000000003</ele>
        <time>2023-08-23T11:11:24Z</time>
      </trkpt>
      <trkpt lat="58.514296961948276" lon="-4.696071976795793">
        <ele>43.880000000000003</ele>
        <time>2023-08-23T11:11:25Z</time>
      </trkpt>
      <trkpt lat="58.514228984713554" lon="-4.69612997956574">
        <ele>43.880000000000003</ele>
        <time>2023-08-23T11:11:26Z</time>
      </trkpt>
      <trkpt lat="58.514144998043776" lon="-4.696200974285603">
        <ele>43.880000000000003</ele>
        <time>2023-08-23T11:11:27Z</time>
      </trkpt>
      <trkpt lat="58.514064028859138" lon="-4.696269035339356">
        <ele>42.920000000000002</ele>
        <time>2023-08-23T11:11:28Z</time>
      </trkpt>
      <trkpt lat="58.513937965035439" lon="-4.696333995088935">
        <ele>42.439999999999998</ele>
        <time>2023-08-23T11:11:29Z</time>
      </trkpt>
      <trkpt lat="58.513817014172673" lon="-4.696396021172404">
        <ele>41.950000000000003</ele>
        <time>2023-08-23T11:11:30Z</time>
      </trkpt>
      <trkpt lat="58.513689022511244" lon="-4.696461986750364">
        <ele>40.990000000000002</ele>
        <time>2023-08-23T11:11:31Z</time>
      </trkpt>
      <trkpt lat="58.51327202282846" lon="-4.696674970909953">
        <ele>38.590000000000003</ele>
        <time>2023-08-23T11:11:34Z</time>
      </trkpt>
      <trkpt lat="58.51314403116703" lon="-4.696814026683569">
        <ele>38.109999999999999</ele>
        <time>2023-08-23T11:11:35Z</time>
      </trkpt>
      <trkpt lat="58.511982969939709" lon="-4.698432991281152">
        <ele>32.82</ele>
        <time>2023-08-23T11:11:44Z</time>
      </trkpt>
      <trkpt lat="58.51185698993504" lon="-4.698608005419374">
        <ele>31.859999999999999</ele>
        <time>2023-08-23T11:11:45Z</time>
      </trkpt>
      <trkpt lat="58.511742996051908" lon="-4.698829958215356">
        <ele>30.899999999999999</ele>
        <time>2023-08-23T11:11:46Z</time>
      </trkpt>
      <trkpt lat="58.511633025482297" lon="-4.699082002043724">
        <ele>29.940000000000001</ele>
        <time>2023-08-23T11:11:47Z</time>
      </trkpt>
      <trkpt lat="58.511537974700332" lon="-4.699378972873092">
        <ele>28.5</ele>
        <time>2023-08-23T11:11:48Z</time>
      </trkpt>
      <trkpt lat="58.511453988030553" lon="-4.699691031128168">
        <ele>27.530000000000001</ele>
        <time>2023-08-23T11:11:49Z</time>
      </trkpt>
      <trkpt lat="58.511133966967463" lon="-4.700870029628277">
        <ele>25.129999999999999</ele>
        <time>2023-08-23T11:11:53Z</time>
      </trkpt>
      <trkpt lat="58.511028019711375" lon="-4.701079996302724">
        <ele>24.649999999999999</ele>
        <time>2023-08-23T11:11:54Z</time>
      </trkpt>
      <trkpt lat="58.510922994464636" lon="-4.701274037361145">
        <ele>24.649999999999999</ele>
        <time>2023-08-23T11:11:55Z</time>
      </trkpt>
      <trkpt lat="58.510805983096361" lon="-4.701427007094026">
        <ele>24.170000000000002</ele>
        <time>2023-08-23T11:11:56Z</time>
      </trkpt>
      <trkpt lat="58.510672962293029" lon="-4.701537983492017">
        <ele>24.170000000000002</ele>
        <time>2023-08-23T11:11:57Z</time>
      </trkpt>
      <trkpt lat="58.510534996166825" lon="-4.70160897821188">
        <ele>24.170000000000002</ele>
        <time>2023-08-23T11:11:58Z</time>
      </trkpt>
      <trkpt lat="58.510395018383861" lon="-4.701644014567137">
        <ele>23.690000000000001</ele>
        <time>2023-08-23T11:11:59Z</time>
      </trkpt>
      <trkpt lat="58.510259985923767" lon="-4.701625993475318">
        <ele>24.170000000000002</ele>
        <time>2023-08-23T11:12:00Z</time>
      </trkpt>
      <trkpt lat="58.510121013969183" lon="-4.701581988483667">
        <ele>24.170000000000002</ele>
        <time>2023-08-23T11:12:01Z</time>
      </trkpt>
      <trkpt lat="58.509988998994231" lon="-4.701538989320397">
        <ele>24.170000000000002</ele>
        <time>2023-08-23T11:12:02Z</time>
      </trkpt>
      <trkpt lat="58.509890008717775" lon="-4.701507976278663">
        <ele>24.649999999999999</ele>
        <time>2023-08-23T11:12:03Z</time>
      </trkpt>
      <trkpt lat="58.509726980701089" lon="-4.701456008478999">
        <ele>25.609999999999999</ele>
        <time>2023-08-23T11:12:06Z</time>
      </trkpt>
      <trkpt lat="58.509660009294748" lon="-4.701434969902039">
        <ele>25.609999999999999</ele>
        <time>2023-08-23T11:12:07Z</time>
      </trkpt>
      <trkpt lat="58.509579040110111" lon="-4.701408986002207">
        <ele>25.609999999999999</ele>
        <time>2023-08-23T11:12:08Z</time>
      </trkpt>
      <trkpt lat="58.50940796546638" lon="-4.701355006545782">
        <ele>26.09</ele>
        <time>2023-08-23T11:12:10Z</time>
      </trkpt>
      <trkpt lat="58.509283997118473" lon="-4.701389959082007">
        <ele>26.09</ele>
        <time>2023-08-23T11:12:11Z</time>
      </trkpt>
      <trkpt lat="58.509164974093437" lon="-4.701423989608884">
        <ele>26.09</ele>
        <time>2023-08-23T11:12:12Z</time>
      </trkpt>
      <trkpt lat="58.509042011573911" lon="-4.701459025964141">
        <ele>26.09</ele>
        <time>2023-08-23T11:12:13Z</time>
      </trkpt>
      <trkpt lat="58.508919971063733" lon="-4.701539995148778">
        <ele>26.09</ele>
        <time>2023-08-23T11:12:14Z</time>
      </trkpt>
      <trkpt lat="58.508815029636025" lon="-4.701701011508703">
        <ele>26.09</ele>
        <time>2023-08-23T11:12:15Z</time>
      </trkpt>
      <trkpt lat="58.508705981075764" lon="-4.701868984848261">
        <ele>26.57</ele>
        <time>2023-08-23T11:12:16Z</time>
      </trkpt>
      <trkpt lat="58.508612019941211" lon="-4.702073000371456">
        <ele>27.050000000000001</ele>
        <time>2023-08-23T11:12:17Z</time>
      </trkpt>
      <trkpt lat="58.508526021614671" lon="-4.702281039208174">
        <ele>27.530000000000001</ele>
        <time>2023-08-23T11:12:18Z</time>
      </trkpt>
      <trkpt lat="58.507741978392005" lon="-4.70407702960074">
        <ele>32.82</ele>
        <time>2023-08-23T11:12:27Z</time>
      </trkpt>
      <trkpt lat="58.50762203335762" lon="-4.704237040132284">
        <ele>33.299999999999997</ele>
        <time>2023-08-23T11:12:28Z</time>
      </trkpt>
      <trkpt lat="58.50710503757" lon="-4.704929972067475">
        <ele>36.670000000000002</ele>
        <time>2023-08-23T11:12:33Z</time>
      </trkpt>
      <trkpt lat="58.507010992616415" lon="-4.705083025619388">
        <ele>37.149999999999999</ele>
        <time>2023-08-23T11:12:34Z</time>
      </trkpt>
      <trkpt lat="58.506436999887228" lon="-4.706117017194629">
        <ele>40.030000000000001</ele>
        <time>2023-08-23T11:12:40Z</time>
      </trkpt>
      <trkpt lat="58.506357036530972" lon="-4.706203015521169">
        <ele>39.549999999999997</ele>
        <time>2023-08-23T11:12:41Z</time>
      </trkpt>
      <trkpt lat="58.50629199296236" lon="-4.706264035776258">
        <ele>39.549999999999997</ele>
        <time>2023-08-23T11:12:42Z</time>
      </trkpt>
      <trkpt lat="58.506243964657187" lon="-4.706309968605638">
        <ele>40.030000000000001</ele>
        <time>2023-08-23T11:12:43Z</time>
      </trkpt>
      <trkpt lat="58.506207000464201" lon="-4.706343999132514">
        <ele>40.030000000000001</ele>
        <time>2023-08-23T11:12:44Z</time>
      </trkpt>
      <trkpt lat="58.506179004907608" lon="-4.706370988860726">
        <ele>39.549999999999997</ele>
        <time>2023-08-23T11:12:45Z</time>
      </trkpt>
      <trkpt lat="58.506158972159028" lon="-4.706389009952545">
        <ele>39.549999999999997</ele>
        <time>2023-08-23T11:12:54Z</time>
      </trkpt>
      <trkpt lat="58.506082026287913" lon="-4.706461010500789">
        <ele>39.549999999999997</ele>
        <time>2023-08-23T11:12:59Z</time>
      </trkpt>
      <trkpt lat="58.506001979112625" lon="-4.706491017714143">
        <ele>39.549999999999997</ele>
        <time>2023-08-23T11:13:00Z</time>
      </trkpt>
      <trkpt lat="58.5057960357517" lon="-4.706567041575909">
        <ele>39.07</ele>
        <time>2023-08-23T11:13:02Z</time>
      </trkpt>
      <trkpt lat="58.505673995241523" lon="-4.706611968576908">
        <ele>39.549999999999997</ele>
        <time>2023-08-23T11:13:03Z</time>
      </trkpt>
      <trkpt lat="58.505555978044868" lon="-4.70659201964736">
        <ele>39.549999999999997</ele>
        <time>2023-08-23T11:13:04Z</time>
      </trkpt>
      <trkpt lat="58.50543100386858" lon="-4.706570981070399">
        <ele>40.030000000000001</ele>
        <time>2023-08-23T11:13:05Z</time>
      </trkpt>
      <trkpt lat="58.505308041349053" lon="-4.706551032140851">
        <ele>40.030000000000001</ele>
        <time>2023-08-23T11:13:06Z</time>
      </trkpt>
      <trkpt lat="58.505089022219181" lon="-4.706513984128833">
        <ele>40.030000000000001</ele>
        <time>2023-08-23T11:13:08Z</time>
      </trkpt>
      <trkpt lat="58.504988020285964" lon="-4.706497974693775">
        <ele>40.030000000000001</ele>
        <time>2023-08-23T11:13:09Z</time>
      </trkpt>
      <trkpt lat="58.504303973168135" lon="-4.70670199021697">
        <ele>40.509999999999998</ele>
        <time>2023-08-23T11:13:15Z</time>
      </trkpt>
      <trkpt lat="58.504197020083666" lon="-4.706780025735498">
        <ele>40.990000000000002</ele>
        <time>2023-08-23T11:13:16Z</time>
      </trkpt>
      <trkpt lat="58.504091994836926" lon="-4.706884967163205">
        <ele>41.469999999999999</ele>
        <time>2023-08-23T11:13:17Z</time>
      </trkpt>
      <trkpt lat="58.504000967368484" lon="-4.707051012665033">
        <ele>41.469999999999999</ele>
        <time>2023-08-23T11:13:18Z</time>
      </trkpt>
      <trkpt lat="58.503908012062311" lon="-4.707225020974875">
        <ele>42.439999999999998</ele>
        <time>2023-08-23T11:13:19Z</time>
      </trkpt>
      <trkpt lat="58.503813967108727" lon="-4.707403974607587">
        <ele>42.920000000000002</ele>
        <time>2023-08-23T11:13:20Z</time>
      </trkpt>
      <trkpt lat="58.502968987450004" lon="-4.708404019474983">
        <ele>43.880000000000003</ele>
        <time>2023-08-23T11:13:27Z</time>
      </trkpt>
      <trkpt lat="58.50218502804637" lon="-4.709012964740396">
        <ele>42.920000000000002</ele>
        <time>2023-08-23T11:13:33Z</time>
      </trkpt>
      <trkpt lat="58.502072039991617" lon="-4.709180016070604">
        <ele>42.920000000000002</ele>
        <time>2023-08-23T11:13:34Z</time>
      </trkpt>
      <trkpt lat="58.501954022794962" lon="-4.709354024380446">
        <ele>42.920000000000002</ele>
        <time>2023-08-23T11:13:35Z</time>
      </trkpt>
      <trkpt lat="58.500694977119565" lon="-4.71149199642241">
        <ele>43.880000000000003</ele>
        <time>2023-08-23T11:13:46Z</time>
      </trkpt>
      <trkpt lat="58.499452024698257" lon="-4.714010003954172">
        <ele>43.880000000000003</ele>
        <time>2023-08-23T11:13:58Z</time>
      </trkpt>
      <trkpt lat="58.499345993623137" lon="-4.714184012264013">
        <ele>43.880000000000003</ele>
        <time>2023-08-23T11:13:59Z</time>
      </trkpt>
      <trkpt lat="58.499229988083243" lon="-4.714358020573854">
        <ele>43.880000000000003</ele>
        <time>2023-08-23T11:14:00Z</time>
      </trkpt>
      <trkpt lat="58.49909302778542" lon="-4.714502021670342">
        <ele>43.880000000000003</ele>
        <time>2023-08-23T11:14:01Z</time>
      </trkpt>
      <trkpt lat="58.498948020860553" lon="-4.714647028595209">
        <ele>43.880000000000003</ele>
        <time>2023-08-23T11:14:02Z</time>
      </trkpt>
      <trkpt lat="58.497791988775134" lon="-4.716124003753066">
        <ele>41.469999999999999</ele>
        <time>2023-08-23T11:14:10Z</time>
      </trkpt>
      <trkpt lat="58.497571963816881" lon="-4.716557012870908">
        <ele>41.469999999999999</ele>
        <time>2023-08-23T11:14:12Z</time>
      </trkpt>
      <trkpt lat="58.497473979368806" lon="-4.716792963445187">
        <ele>41.469999999999999</ele>
        <time>2023-08-23T11:14:13Z</time>
      </trkpt>
      <trkpt lat="58.496831003576517" lon="-4.718206990510225">
        <ele>41.469999999999999</ele>
        <time>2023-08-23T11:14:19Z</time>
      </trkpt>
      <trkpt lat="58.496696976944804" lon="-4.718391979113221">
        <ele>40.990000000000002</ele>
        <time>2023-08-23T11:14:20Z</time>
      </trkpt>
      <trkpt lat="58.49655800499022" lon="-4.718548972159624">
        <ele>40.509999999999998</ele>
        <time>2023-08-23T11:14:21Z</time>
      </trkpt>
      <trkpt lat="58.49640604108572" lon="-4.718675035983324">
        <ele>40.030000000000001</ele>
        <time>2023-08-23T11:14:22Z</time>
      </trkpt>
      <trkpt lat="58.496252987533808" lon="-4.718802021816373">
        <ele>39.549999999999997</ele>
        <time>2023-08-23T11:14:23Z</time>
      </trkpt>
      <trkpt lat="58.495632978156209" lon="-4.71931298263371">
        <ele>37.149999999999999</ele>
        <time>2023-08-23T11:14:27Z</time>
      </trkpt>
      <trkpt lat="58.495498029515147" lon="-4.719510041177273">
        <ele>36.670000000000002</ele>
        <time>2023-08-23T11:14:28Z</time>
      </trkpt>
      <trkpt lat="58.495360985398293" lon="-4.719710033386946">
        <ele>36.189999999999998</ele>
        <time>2023-08-23T11:14:29Z</time>
      </trkpt>
      <trkpt lat="58.494300004094839" lon="-4.721016017720103">
        <ele>33.299999999999997</ele>
        <time>2023-08-23T11:14:37Z</time>
      </trkpt>
      <trkpt lat="58.493918040767312" lon="-4.721349030733109">
        <ele>31.379999999999999</ele>
        <time>2023-08-23T11:14:42Z</time>
      </trkpt>
      <trkpt lat="58.493870012462139" lon="-4.721391024067998">
        <ele>29.940000000000001</ele>
        <time>2023-08-23T11:14:53Z</time>
      </trkpt>
      <trkpt lat="58.493672031909227" lon="-4.721564026549459">
        <ele>27.050000000000001</ele>
        <time>2023-08-23T11:15:07Z</time>
      </trkpt>
      <trkpt lat="58.49297096952796" lon="-4.722304986789823">
        <ele>27.050000000000001</ele>
        <time>2023-08-23T11:15:14Z</time>
      </trkpt>
      <trkpt lat="58.492408962920308" lon="-4.72322297282517">
        <ele>27.530000000000001</ele>
        <time>2023-08-23T11:15:19Z</time>
      </trkpt>
      <trkpt lat="58.492270996794105" lon="-4.723356999456883">
        <ele>27.530000000000001</ele>
        <time>2023-08-23T11:15:20Z</time>
      </trkpt>
      <trkpt lat="58.491603964939713" lon="-4.723891010507941">
        <ele>27.530000000000001</ele>
        <time>2023-08-23T11:15:25Z</time>
      </trkpt>
      <trkpt lat="58.491469016298652" lon="-4.723938032984734">
        <ele>27.050000000000001</ele>
        <time>2023-08-23T11:15:26Z</time>
      </trkpt>
      <trkpt lat="58.490467965602875" lon="-4.724095026031137">
        <ele>26.09</ele>
        <time>2023-08-23T11:15:33Z</time>
      </trkpt>
      <trkpt lat="58.490336034446955" lon="-4.724170966073871">
        <ele>26.09</ele>
        <time>2023-08-23T11:15:34Z</time>
      </trkpt>
      <trkpt lat="58.490207958966494" lon="-4.724259981885552">
        <ele>26.09</ele>
        <time>2023-08-23T11:15:35Z</time>
      </trkpt>
      <trkpt lat="58.490087008103728" lon="-4.724402977153659">
        <ele>26.09</ele>
        <time>2023-08-23T11:15:36Z</time>
      </trkpt>
      <trkpt lat="58.489974020048976" lon="-4.724575979635119">
        <ele>26.09</ele>
        <time>2023-08-23T11:15:37Z</time>
      </trkpt>
      <trkpt lat="58.489864971488714" lon="-4.724765997380018">
        <ele>25.609999999999999</ele>
        <time>2023-08-23T11:15:38Z</time>
      </trkpt>
      <trkpt lat="58.489753995090723" lon="-4.724960038438439">
        <ele>25.609999999999999</ele>
        <time>2023-08-23T11:15:39Z</time>
      </trkpt>
      <trkpt lat="58.489542016759515" lon="-4.725331021472812">
        <ele>24.649999999999999</ele>
        <time>2023-08-23T11:15:41Z</time>
      </trkpt>
      <trkpt lat="58.489421987906098" lon="-4.725489020347595">
        <ele>24.649999999999999</ele>
        <time>2023-08-23T11:15:42Z</time>
      </trkpt>
      <trkpt lat="58.489284021779895" lon="-4.725589016452432">
        <ele>24.170000000000002</ele>
        <time>2023-08-23T11:15:43Z</time>
      </trkpt>
      <trkpt lat="58.48914597183466" lon="-4.725689012557268">
        <ele>24.170000000000002</ele>
        <time>2023-08-23T11:15:44Z</time>
      </trkpt>
      <trkpt lat="58.489006999880075" lon="-4.725790014490485">
        <ele>24.649999999999999</ele>
        <time>2023-08-23T11:15:45Z</time>
      </trkpt>
      <trkpt lat="58.488723021000624" lon="-4.725925968959928">
        <ele>24.649999999999999</ele>
        <time>2023-08-23T11:15:47Z</time>
      </trkpt>
      <trkpt lat="58.488573990762234" lon="-4.725953964516521">
        <ele>25.129999999999999</ele>
        <time>2023-08-23T11:15:48Z</time>
      </trkpt>
      <trkpt lat="58.488132013007998" lon="-4.726006016135216">
        <ele>25.609999999999999</ele>
        <time>2023-08-23T11:15:51Z</time>
      </trkpt>
      <trkpt lat="58.48798600025475" lon="-4.726086985319853">
        <ele>25.609999999999999</ele>
        <time>2023-08-23T11:15:52Z</time>
      </trkpt>
      <trkpt lat="58.487846022471786" lon="-4.726181030273438">
        <ele>25.609999999999999</ele>
        <time>2023-08-23T11:15:53Z</time>
      </trkpt>
      <trkpt lat="58.487407984212041" lon="-4.726476995274425">
        <ele>25.129999999999999</ele>
        <time>2023-08-23T11:15:56Z</time>
      </trkpt>
      <trkpt lat="58.487259037792683" lon="-4.726559976115823">
        <ele>25.129999999999999</ele>
        <time>2023-08-23T11:15:57Z</time>
      </trkpt>
      <trkpt lat="58.486131001263857" lon="-4.7271310351789">
        <ele>25.609999999999999</ele>
        <time>2023-08-23T11:16:05Z</time>
      </trkpt>
      <trkpt lat="58.485781978815794" lon="-4.727294985204935">
        <ele>25.609999999999999</ele>
        <time>2023-08-23T11:16:10Z</time>
      </trkpt>
      <trkpt lat="58.485663961619139" lon="-4.727323986589909">
        <ele>25.609999999999999</ele>
        <time>2023-08-23T11:16:12Z</time>
      </trkpt>
      <trkpt lat="58.48562297411263" lon="-4.727333961054683">
        <ele>25.129999999999999</ele>
        <time>2023-08-23T11:16:13Z</time>
      </trkpt>
      <trkpt lat="58.485594978556037" lon="-4.727341001853347">
        <ele>25.129999999999999</ele>
        <time>2023-08-23T11:16:14Z</time>
      </trkpt>
      <trkpt lat="58.485576035454869" lon="-4.727345025166869">
        <ele>25.129999999999999</ele>
        <time>2023-08-23T11:16:15Z</time>
      </trkpt>
      <trkpt lat="58.485576035454869" lon="-4.727345025166869">
        <ele>25.129999999999999</ele>
        <time>2023-08-23T11:16:16Z</time>
      </trkpt>
      <trkpt lat="58.485505962744355" lon="-4.727362040430307">
        <ele>25.129999999999999</ele>
        <time>2023-08-23T11:16:22Z</time>
      </trkpt>
      <trkpt lat="58.485439997166395" lon="-4.727377966046333">
        <ele>25.129999999999999</ele>
        <time>2023-08-23T11:16:23Z</time>
      </trkpt>
      <trkpt lat="58.484747987240553" lon="-4.727857997640967">
        <ele>23.210000000000001</ele>
        <time>2023-08-23T11:16:30Z</time>
      </trkpt>
      <trkpt lat="58.48463399335742" lon="-4.727994035929442">
        <ele>22.73</ele>
        <time>2023-08-23T11:16:31Z</time>
      </trkpt>
      <trkpt lat="58.483508974313736" lon="-4.729102039709687">
        <ele>21.77</ele>
        <time>2023-08-23T11:16:40Z</time>
      </trkpt>
      <trkpt lat="58.482125960290432" lon="-4.730282966047525">
        <ele>19.84</ele>
        <time>2023-08-23T11:16:51Z</time>
      </trkpt>
      <trkpt lat="58.481623968109488" lon="-4.730696026235819">
        <ele>19.359999999999999</ele>
        <time>2023-08-23T11:16:56Z</time>
      </trkpt>
      <trkpt lat="58.481495976448059" lon="-4.730767020955682">
        <ele>19.359999999999999</ele>
        <time>2023-08-23T11:16:57Z</time>
      </trkpt>
      <trkpt lat="58.480261992663145" lon="-4.731271024793387">
        <ele>20.32</ele>
        <time>2023-08-23T11:17:06Z</time>
      </trkpt>
      <trkpt lat="58.48012201488018" lon="-4.731371020898223">
        <ele>20.809999999999999</ele>
        <time>2023-08-23T11:17:07Z</time>
      </trkpt>
      <trkpt lat="58.479710966348648" lon="-4.731744015589356">
        <ele>21.289999999999999</ele>
        <time>2023-08-23T11:17:10Z</time>
      </trkpt>
      <trkpt lat="58.479582974687219" lon="-4.731901008635759">
        <ele>21.77</ele>
        <time>2023-08-23T11:17:11Z</time>
      </trkpt>
      <trkpt lat="58.479462023824453" lon="-4.732089014723897">
        <ele>22.25</ele>
        <time>2023-08-23T11:17:12Z</time>
      </trkpt>
      <trkpt lat="58.479072013869882" lon="-4.732592012733221">
        <ele>23.690000000000001</ele>
        <time>2023-08-23T11:17:15Z</time>
      </trkpt>
      <trkpt lat="58.478916026651859" lon="-4.732746994122863">
        <ele>23.690000000000001</ele>
        <time>2023-08-23T11:17:16Z</time>
      </trkpt>
      <trkpt lat="58.47878803499043" lon="-4.732821006327868">
        <ele>24.170000000000002</ele>
        <time>2023-08-23T11:17:17Z</time>
      </trkpt>
      <trkpt lat="58.478165008127689" lon="-4.733175979927182">
        <ele>25.129999999999999</ele>
        <time>2023-08-23T11:17:21Z</time>
      </trkpt>
      <trkpt lat="58.47803701646626" lon="-4.733304977416992">
        <ele>25.609999999999999</ele>
        <time>2023-08-23T11:17:22Z</time>
      </trkpt>
      <trkpt lat="58.477595038712025" lon="-4.733747038990259">
        <ele>25.129999999999999</ele>
        <time>2023-08-23T11:17:25Z</time>
      </trkpt>
      <trkpt lat="58.477441985160112" lon="-4.733866984024644">
        <ele>25.129999999999999</ele>
        <time>2023-08-23T11:17:26Z</time>
      </trkpt>
      <trkpt lat="58.476169025525451" lon="-4.734673993662">
        <ele>25.129999999999999</ele>
        <time>2023-08-23T11:17:35Z</time>
      </trkpt>
      <trkpt lat="58.474439000710845" lon="-4.735943013802171">
        <ele>23.690000000000001</ele>
        <time>2023-08-23T11:17:48Z</time>
      </trkpt>
      <trkpt lat="58.474351996555924" lon="-4.73600797355175">
        <ele>23.690000000000001</ele>
        <time>2023-08-23T11:17:53Z</time>
      </trkpt>
      <trkpt lat="58.47421302460134" lon="-4.736109981313348">
        <ele>23.210000000000001</ele>
        <time>2023-08-23T11:18:14Z</time>
      </trkpt>
      <trkpt lat="58.474101964384317" lon="-4.736191034317017">
        <ele>22.73</ele>
        <time>2023-08-23T11:18:18Z</time>
      </trkpt>
      <trkpt lat="58.474101964384317" lon="-4.736191034317017">
        <ele>22.73</ele>
        <time>2023-08-23T11:18:30Z</time>
      </trkpt>
      <trkpt lat="58.474080003798008" lon="-4.736207965761423">
        <ele>22.25</ele>
        <time>2023-08-23T11:18:33Z</time>
      </trkpt>
      <trkpt lat="58.473714971914887" lon="-4.736475013196468">
        <ele>20.809999999999999</ele>
        <time>2023-08-23T11:18:39Z</time>
      </trkpt>
      <trkpt lat="58.47296797670424" lon="-4.737388975918293">
        <ele>20.32</ele>
        <time>2023-08-23T11:18:48Z</time>
      </trkpt>
      <trkpt lat="58.472930006682873" lon="-4.73744597285986">
        <ele>20.32</ele>
        <time>2023-08-23T11:18:54Z</time>
      </trkpt>
      <trkpt lat="58.472918020561337" lon="-4.737470028921962">
        <ele>20.32</ele>
        <time>2023-08-23T11:18:57Z</time>
      </trkpt>
      <trkpt lat="58.472896981984377" lon="-4.737514033913612">
        <ele>20.809999999999999</ele>
        <time>2023-08-23T11:18:58Z</time>
      </trkpt>
      <trkpt lat="58.47285901196301" lon="-4.737589973956347">
        <ele>21.289999999999999</ele>
        <time>2023-08-23T11:18:59Z</time>
      </trkpt>
      <trkpt lat="58.472428014501929" lon="-4.738469989970326">
        <ele>22.25</ele>
        <time>2023-08-23T11:19:05Z</time>
      </trkpt>
      <trkpt lat="58.471457976847887" lon="-4.740451974794269">
        <ele>25.129999999999999</ele>
        <time>2023-08-23T11:19:14Z</time>
      </trkpt>
      <trkpt lat="58.471325961872935" lon="-4.740670993924141">
        <ele>25.129999999999999</ele>
        <time>2023-08-23T11:19:15Z</time>
      </trkpt>
      <trkpt lat="58.471175003796816" lon="-4.740851959213615">
        <ele>25.129999999999999</ele>
        <time>2023-08-23T11:19:16Z</time>
      </trkpt>
      <trkpt lat="58.470351984724402" lon="-4.741899026557803">
        <ele>24.170000000000002</ele>
        <time>2023-08-23T11:19:22Z</time>
      </trkpt>
      <trkpt lat="58.470229022204876" lon="-4.74215199239552">
        <ele>24.170000000000002</ele>
        <time>2023-08-23T11:19:23Z</time>
      </trkpt>
      <trkpt lat="58.469470962882042" lon="-4.743716977536678">
        <ele>24.170000000000002</ele>
        <time>2023-08-23T11:19:29Z</time>
      </trkpt>
      <trkpt lat="58.469338025897741" lon="-4.743929961696267">
        <ele>24.170000000000002</ele>
        <time>2023-08-23T11:19:30Z</time>
      </trkpt>
      <trkpt lat="58.469192013144493" lon="-4.744110004976392">
        <ele>23.690000000000001</ele>
        <time>2023-08-23T11:19:31Z</time>
      </trkpt>
      <trkpt lat="58.469027979299426" lon="-4.744257023558021">
        <ele>23.690000000000001</ele>
        <time>2023-08-23T11:19:32Z</time>
      </trkpt>
      <trkpt lat="58.468849025666714" lon="-4.744381997734308">
        <ele>23.690000000000001</ele>
        <time>2023-08-23T11:19:33Z</time>
      </trkpt>
      <trkpt lat="58.468667976558208" lon="-4.744509989395738">
        <ele>23.690000000000001</ele>
        <time>2023-08-23T11:19:34Z</time>
      </trkpt>
      <trkpt lat="58.46781000494957" lon="-4.745112983509898">
        <ele>23.210000000000001</ele>
        <time>2023-08-23T11:19:39Z</time>
      </trkpt>
      <trkpt lat="58.467680001631379" lon="-4.745269976556301">
        <ele>23.210000000000001</ele>
        <time>2023-08-23T11:19:40Z</time>
      </trkpt>
      <trkpt lat="58.467558966949582" lon="-4.745454965159297">
        <ele>23.210000000000001</ele>
        <time>2023-08-23T11:19:41Z</time>
      </trkpt>
      <trkpt lat="58.467433992773294" lon="-4.745645988732576">
        <ele>22.73</ele>
        <time>2023-08-23T11:19:42Z</time>
      </trkpt>
      <trkpt lat="58.467307006940246" lon="-4.745840029790998">
        <ele>22.25</ele>
        <time>2023-08-23T11:19:43Z</time>
      </trkpt>
      <trkpt lat="58.467049011960626" lon="-4.74623498506844">
        <ele>22.73</ele>
        <time>2023-08-23T11:19:45Z</time>
      </trkpt>
      <trkpt lat="58.466894030570984" lon="-4.746371023356915">
        <ele>22.73</ele>
        <time>2023-08-23T11:19:46Z</time>
      </trkpt>
      <trkpt lat="58.466732008382678" lon="-4.746497003361583">
        <ele>22.73</ele>
        <time>2023-08-23T11:19:47Z</time>
      </trkpt>
      <trkpt lat="58.465332984924316" lon="-4.747683964669704">
        <ele>22.73</ele>
        <time>2023-08-23T11:19:56Z</time>
      </trkpt>
      <trkpt lat="58.465088987722993" lon="-4.747944977134466">
        <ele>22.25</ele>
        <time>2023-08-23T11:20:02Z</time>
      </trkpt>
      <trkpt lat="58.465055041015148" lon="-4.747982025146484">
        <ele>21.77</ele>
        <time>2023-08-23T11:20:15Z</time>
      </trkpt>
      <trkpt lat="58.465027967467904" lon="-4.748052014037967">
        <ele>21.77</ele>
        <time>2023-08-23T11:20:42Z</time>
      </trkpt>
      <trkpt lat="58.465013969689608" lon="-4.748087972402573">
        <ele>21.77</ele>
        <time>2023-08-23T11:20:43Z</time>
      </trkpt>
      <trkpt lat="58.464992009103298" lon="-4.748147986829281">
        <ele>22.25</ele>
        <time>2023-08-23T11:20:44Z</time>
      </trkpt>
      <trkpt lat="58.464923026040196" lon="-4.748328030109406">
        <ele>22.73</ele>
        <time>2023-08-23T11:20:46Z</time>
      </trkpt>
      <trkpt lat="58.464548019692302" lon="-4.74926101975143">
        <ele>23.210000000000001</ele>
        <time>2023-08-23T11:20:51Z</time>
      </trkpt>
      <trkpt lat="58.464020965620875" lon="-4.750196021050215">
        <ele>22.73</ele>
        <time>2023-08-23T11:20:56Z</time>
      </trkpt>
      <trkpt lat="58.463938990607858" lon="-4.750342033803463">
        <ele>22.25</ele>
        <time>2023-08-23T11:20:57Z</time>
      </trkpt>
      <trkpt lat="58.463502964004874" lon="-4.751363033428788">
        <ele>21.77</ele>
        <time>2023-08-23T11:21:02Z</time>
      </trkpt>
      <trkpt lat="58.463402967900038" lon="-4.751527989283204">
        <ele>21.77</ele>
        <time>2023-08-23T11:21:03Z</time>
      </trkpt>
      <trkpt lat="58.463218985125422" lon="-4.751864019781351">
        <ele>21.77</ele>
        <time>2023-08-23T11:21:06Z</time>
      </trkpt>
      <trkpt lat="58.463199958205223" lon="-4.751913975924254">
        <ele>21.77</ele>
        <time>2023-08-23T11:21:07Z</time>
      </trkpt>
      <trkpt lat="58.463187972083688" lon="-4.751944988965988">
        <ele>21.77</ele>
        <time>2023-08-23T11:21:08Z</time>
      </trkpt>
      <trkpt lat="58.463175985962152" lon="-4.751976002007723">
        <ele>21.77</ele>
        <time>2023-08-23T11:21:09Z</time>
      </trkpt>
      <trkpt lat="58.463156037032604" lon="-4.752027969807386">
        <ele>21.77</ele>
        <time>2023-08-23T11:21:10Z</time>
      </trkpt>
      <trkpt lat="58.46312602981925" lon="-4.752106005325913">
        <ele>21.77</ele>
        <time>2023-08-23T11:21:11Z</time>
      </trkpt>
      <trkpt lat="58.463084036484361" lon="-4.752212958410382">
        <ele>21.77</ele>
        <time>2023-08-23T11:21:12Z</time>
      </trkpt>
      <trkpt lat="58.463030979037285" lon="-4.752351008355618">
        <ele>21.77</ele>
        <time>2023-08-23T11:21:13Z</time>
      </trkpt>
      <trkpt lat="58.462524963542819" lon="-4.753614999353886">
        <ele>22.25</ele>
        <time>2023-08-23T11:21:19Z</time>
      </trkpt>
      <trkpt lat="58.461422994732857" lon="-4.755206974223256">
        <ele>24.170000000000002</ele>
        <time>2023-08-23T11:21:27Z</time>
      </trkpt>
      <trkpt lat="58.460114998742938" lon="-4.756967006251216">
        <ele>25.129999999999999</ele>
        <time>2023-08-23T11:21:36Z</time>
      </trkpt>
      <trkpt lat="58.458957960829139" lon="-4.757893038913608">
        <ele>25.129999999999999</ele>
        <time>2023-08-23T11:21:43Z</time>
      </trkpt>
      <trkpt lat="58.457888010889292" lon="-4.758668029680848">
        <ele>25.609999999999999</ele>
        <time>2023-08-23T11:21:50Z</time>
      </trkpt>
      <trkpt lat="58.457570001482964" lon="-4.758948991075158">
        <ele>24.649999999999999</ele>
        <time>2023-08-23T11:21:55Z</time>
      </trkpt>
      <trkpt lat="58.457001037895679" lon="-4.759450983256102">
        <ele>23.210000000000001</ele>
        <time>2023-08-23T11:22:02Z</time>
      </trkpt>
      <trkpt lat="58.456785036250949" lon="-4.759586015716195">
        <ele>23.210000000000001</ele>
        <time>2023-08-23T11:22:04Z</time>
      </trkpt>
      <trkpt lat="58.456690991297364" lon="-4.75963999517262">
        <ele>23.210000000000001</ele>
        <time>2023-08-23T11:22:05Z</time>
      </trkpt>
      <trkpt lat="58.456627959385514" lon="-4.759646030142903">
        <ele>23.210000000000001</ele>
        <time>2023-08-23T11:22:06Z</time>
      </trkpt>
      <trkpt lat="58.456599963828921" lon="-4.759638989344239">
        <ele>23.210000000000001</ele>
        <time>2023-08-23T11:22:07Z</time>
      </trkpt>
      <trkpt lat="58.456599963828921" lon="-4.759638989344239">
        <ele>23.690000000000001</ele>
        <time>2023-08-23T11:22:18Z</time>
      </trkpt>
      <trkpt lat="58.456330988556147" lon="-4.759573023766279">
        <ele>23.210000000000001</ele>
        <time>2023-08-23T11:22:28Z</time>
      </trkpt>
      <trkpt lat="58.455524984747171" lon="-4.759374959394336">
        <ele>19.359999999999999</ele>
        <time>2023-08-23T11:22:34Z</time>
      </trkpt>
      <trkpt lat="58.454325031489134" lon="-4.759220983833075">
        <ele>16.48</ele>
        <time>2023-08-23T11:22:41Z</time>
      </trkpt>
      <trkpt lat="58.453086018562317" lon="-4.758854024112225">
        <ele>11.19</ele>
        <time>2023-08-23T11:22:48Z</time>
      </trkpt>
      <trkpt lat="58.452928019687533" lon="-4.758875984698534">
        <ele>10.710000000000001</ele>
        <time>2023-08-23T11:22:49Z</time>
      </trkpt>
      <trkpt lat="58.452764991670847" lon="-4.758942034095526">
        <ele>10.23</ele>
        <time>2023-08-23T11:22:50Z</time>
      </trkpt>
      <trkpt lat="58.451614994555712" lon="-4.759407984092832">
        <ele>8.789999999999999</ele>
        <time>2023-08-23T11:22:58Z</time>
      </trkpt>
      <trkpt lat="58.451397987082601" lon="-4.75951200351119">
        <ele>7.83</ele>
        <time>2023-08-23T11:23:04Z</time>
      </trkpt>
      <trkpt lat="58.451397987082601" lon="-4.75951200351119">
        <ele>7.83</ele>
        <time>2023-08-23T11:23:05Z</time>
      </trkpt>
      <trkpt lat="58.451369991526008" lon="-4.759537987411022">
        <ele>7.83</ele>
        <time>2023-08-23T11:23:07Z</time>
      </trkpt>
      <trkpt lat="58.451351970434189" lon="-4.75955399684608">
        <ele>7.83</ele>
        <time>2023-08-23T11:23:08Z</time>
      </trkpt>
      <trkpt lat="58.451315006241202" lon="-4.759588027372956">
        <ele>7.35</ele>
        <time>2023-08-23T11:23:09Z</time>
      </trkpt>
      <trkpt lat="58.450802033767104" lon="-4.760138969868422">
        <ele>6.87</ele>
        <time>2023-08-23T11:23:15Z</time>
      </trkpt>
      <trkpt lat="58.449898967519403" lon="-4.761161981150508">
        <ele>5.91</ele>
        <time>2023-08-23T11:23:22Z</time>
      </trkpt>
      <trkpt lat="58.449778016656637" lon="-4.761351998895407">
        <ele>5.91</ele>
        <time>2023-08-23T11:23:23Z</time>
      </trkpt>
      <trkpt lat="58.449307037517428" lon="-4.762064041569829">
        <ele>6.87</ele>
        <time>2023-08-23T11:23:27Z</time>
      </trkpt>
      <trkpt lat="58.449190026149154" lon="-4.762191027402878">
        <ele>6.87</ele>
        <time>2023-08-23T11:23:28Z</time>
      </trkpt>
      <trkpt lat="58.449065973982215" lon="-4.762278031557798">
        <ele>6.87</ele>
        <time>2023-08-23T11:23:29Z</time>
      </trkpt>
      <trkpt lat="58.448936976492405" lon="-4.762329999357462">
        <ele>7.35</ele>
        <time>2023-08-23T11:23:30Z</time>
      </trkpt>
      <trkpt lat="58.448806973174214" lon="-4.762297980487347">
        <ele>7.83</ele>
        <time>2023-08-23T11:23:31Z</time>
      </trkpt>
      <trkpt lat="58.448672024533153" lon="-4.762250036001205">
        <ele>7.83</ele>
        <time>2023-08-23T11:23:32Z</time>
      </trkpt>
      <trkpt lat="58.448550989851356" lon="-4.762150961905718">
        <ele>8.310000000000001</ele>
        <time>2023-08-23T11:23:33Z</time>
      </trkpt>
      <trkpt lat="58.4484329726547" lon="-4.762014001607895">
        <ele>8.789999999999999</ele>
        <time>2023-08-23T11:23:34Z</time>
      </trkpt>
      <trkpt lat="58.448331970721483" lon="-4.761863965541124">
        <ele>9.27</ele>
        <time>2023-08-23T11:23:35Z</time>
      </trkpt>
      <trkpt lat="58.448247984051704" lon="-4.761667996644974">
        <ele>10.23</ele>
        <time>2023-08-23T11:23:36Z</time>
      </trkpt>
      <trkpt lat="58.448166009038687" lon="-4.761469010263681">
        <ele>10.710000000000001</ele>
        <time>2023-08-23T11:23:37Z</time>
      </trkpt>
      <trkpt lat="58.448124015703797" lon="-4.761194000020623">
        <ele>11.67</ele>
        <time>2023-08-23T11:23:38Z</time>
      </trkpt>
      <trkpt lat="58.448077999055386" lon="-4.760890994220972">
        <ele>12.15</ele>
        <time>2023-08-23T11:23:39Z</time>
      </trkpt>
      <trkpt lat="58.448027959093451" lon="-4.760568961501122">
        <ele>12.630000000000001</ele>
        <time>2023-08-23T11:23:40Z</time>
      </trkpt>
      <trkpt lat="58.447725959122181" lon="-4.758813036605716">
        <ele>14.56</ele>
        <time>2023-08-23T11:23:46Z</time>
      </trkpt>
      <trkpt lat="58.447662005200982" lon="-4.758572978898883">
        <ele>14.56</ele>
        <time>2023-08-23T11:23:47Z</time>
      </trkpt>
      <trkpt lat="58.447568966075778" lon="-4.758355971425772">
        <ele>15.039999999999999</ele>
        <time>2023-08-23T11:23:48Z</time>
      </trkpt>
      <trkpt lat="58.44746695831418" lon="-4.758170982822776">
        <ele>15.039999999999999</ele>
        <time>2023-08-23T11:23:49Z</time>
      </trkpt>
      <trkpt lat="58.447362016886473" lon="-4.757993035018444">
        <ele>15.039999999999999</ele>
        <time>2023-08-23T11:23:50Z</time>
      </trkpt>
      <trkpt lat="58.446180000901222" lon="-4.755993029102683">
        <ele>11.67</ele>
        <time>2023-08-23T11:24:00Z</time>
      </trkpt>
      <trkpt lat="58.445928040891886" lon="-4.75568700581789">
        <ele>10.710000000000001</ele>
        <time>2023-08-23T11:24:02Z</time>
      </trkpt>
      <trkpt lat="58.445361005142331" lon="-4.755135979503393">
        <ele>11.19</ele>
        <time>2023-08-23T11:24:08Z</time>
      </trkpt>
      <trkpt lat="58.445341978222132" lon="-4.755119970068336">
        <ele>12.15</ele>
        <time>2023-08-23T11:24:18Z</time>
      </trkpt>
      <trkpt lat="58.445137040689588" lon="-4.754941016435623">
        <ele>13.119999999999999</ele>
        <time>2023-08-23T11:24:25Z</time>
      </trkpt>
      <trkpt lat="58.444325001910329" lon="-4.754235008731484">
        <ele>13.119999999999999</ele>
        <time>2023-08-23T11:24:32Z</time>
      </trkpt>
      <trkpt lat="58.444202961400151" lon="-4.75409796461463">
        <ele>13.119999999999999</ele>
        <time>2023-08-23T11:24:33Z</time>
      </trkpt>
      <trkpt lat="58.444100031629205" lon="-4.753922028467059">
        <ele>13.6</ele>
        <time>2023-08-23T11:24:34Z</time>
      </trkpt>
      <trkpt lat="58.444006992504001" lon="-4.753719018772245">
        <ele>13.6</ele>
        <time>2023-08-23T11:24:35Z</time>
      </trkpt>
      <trkpt lat="58.443945972248912" lon="-4.753478039056063">
        <ele>14.08</ele>
        <time>2023-08-23T11:24:36Z</time>
      </trkpt>
      <trkpt lat="58.443894004449248" lon="-4.753236975520849">
        <ele>15.039999999999999</ele>
        <time>2023-08-23T11:24:37Z</time>
      </trkpt>
      <trkpt lat="58.44387598335743" lon="-4.752974035218358">
        <ele>15.52</ele>
        <time>2023-08-23T11:24:38Z</time>
      </trkpt>
      <trkpt lat="58.443857040256262" lon="-4.75270195864141">
        <ele>16</ele>
        <time>2023-08-23T11:24:39Z</time>
      </trkpt>
      <trkpt lat="58.443886041641235" lon="-4.752423008903861">
        <ele>16.960000000000001</ele>
        <time>2023-08-23T11:24:40Z</time>
      </trkpt>
      <trkpt lat="58.443920994177461" lon="-4.752156967297196">
        <ele>17.920000000000002</ele>
        <time>2023-08-23T11:24:41Z</time>
      </trkpt>
      <trkpt lat="58.443947983905673" lon="-4.751945994794369">
        <ele>18.399999999999999</ele>
        <time>2023-08-23T11:24:42Z</time>
      </trkpt>
      <trkpt lat="58.443964999169111" lon="-4.751816997304559">
        <ele>18.879999999999999</ele>
        <time>2023-08-23T11:24:43Z</time>
      </trkpt>
      <trkpt lat="58.443981008604169" lon="-4.751691017299891">
        <ele>20.32</ele>
        <time>2023-08-23T11:24:49Z</time>
      </trkpt>
      <trkpt lat="58.444045968353748" lon="-4.751185001805425">
        <ele>21.77</ele>
        <time>2023-08-23T11:24:53Z</time>
      </trkpt>
      <trkpt lat="58.444271022453904" lon="-4.749441985040903">
        <ele>20.809999999999999</ele>
        <time>2023-08-23T11:24:59Z</time>
      </trkpt>
      <trkpt lat="58.444792963564396" lon="-4.745398974046111">
        <ele>15.52</ele>
        <time>2023-08-23T11:25:10Z</time>
      </trkpt>
      <trkpt lat="58.444815007969737" lon="-4.743478009477258">
        <ele>15.039999999999999</ele>
        <time>2023-08-23T11:25:16Z</time>
      </trkpt>
      <trkpt lat="58.444806961342692" lon="-4.742991020902991">
        <ele>15.039999999999999</ele>
        <time>2023-08-23T11:25:21Z</time>
      </trkpt>
      <trkpt lat="58.444816013798118" lon="-4.74204202182591">
        <ele>14.08</ele>
        <time>2023-08-23T11:25:27Z</time>
      </trkpt>
      <trkpt lat="58.444919027388096" lon="-4.739887034520507">
        <ele>9.75</ele>
        <time>2023-08-23T11:25:35Z</time>
      </trkpt>
      <trkpt lat="58.444979041814804" lon="-4.739289991557598">
        <ele>8.789999999999999</ele>
        <time>2023-08-23T11:25:37Z</time>
      </trkpt>
      <trkpt lat="58.445027992129326" lon="-4.739008024334908">
        <ele>8.789999999999999</ele>
        <time>2023-08-23T11:25:38Z</time>
      </trkpt>
      <trkpt lat="58.445094041526318" lon="-4.738726979121566">
        <ele>8.310000000000001</ele>
        <time>2023-08-23T11:25:39Z</time>
      </trkpt>
      <trkpt lat="58.445168975740671" lon="-4.738458003848791">
        <ele>8.310000000000001</ele>
        <time>2023-08-23T11:25:40Z</time>
      </trkpt>
      <trkpt lat="58.445275006815791" lon="-4.738221969455481">
        <ele>7.83</ele>
        <time>2023-08-23T11:25:41Z</time>
      </trkpt>
      <trkpt lat="58.445383971557021" lon="-4.737979983910918">
        <ele>7.83</ele>
        <time>2023-08-23T11:25:42Z</time>
      </trkpt>
      <trkpt lat="58.44550802372396" lon="-4.737758031114936">
        <ele>7.83</ele>
        <time>2023-08-23T11:25:43Z</time>
      </trkpt>
      <trkpt lat="58.445646995678544" lon="-4.737538006156683">
        <ele>7.35</ele>
        <time>2023-08-23T11:25:44Z</time>
      </trkpt>
      <trkpt lat="58.447118019685149" lon="-4.735487038269639">
        <ele>8.310000000000001</ele>
        <time>2023-08-23T11:25:54Z</time>
      </trkpt>
      <trkpt lat="58.44738095998764" lon="-4.735245974734426">
        <ele>9.27</ele>
        <time>2023-08-23T11:25:56Z</time>
      </trkpt>
      <trkpt lat="58.44752999022603" lon="-4.735128963366151">
        <ele>9.75</ele>
        <time>2023-08-23T11:25:57Z</time>
      </trkpt>
      <trkpt lat="58.44894896261394" lon="-4.734010985121131">
        <ele>10.710000000000001</ele>
        <time>2023-08-23T11:26:05Z</time>
      </trkpt>
      <trkpt lat="58.449755972251296" lon="-4.733375972136855">
        <ele>9.75</ele>
        <time>2023-08-23T11:26:11Z</time>
      </trkpt>
      <trkpt lat="58.45034496858716" lon="-4.73299995996058">
        <ele>7.83</ele>
        <time>2023-08-23T11:26:17Z</time>
      </trkpt>
      <trkpt lat="58.450705977156758" lon="-4.732724027708173">
        <ele>7.83</ele>
        <time>2023-08-23T11:26:20Z</time>
      </trkpt>
      <trkpt lat="58.450829023495317" lon="-4.732577009126544">
        <ele>7.35</ele>
        <time>2023-08-23T11:26:21Z</time>
      </trkpt>
      <trkpt lat="58.450960032641888" lon="-4.732421021908522">
        <ele>7.35</ele>
        <time>2023-08-23T11:26:22Z</time>
      </trkpt>
      <trkpt lat="58.451634021475911" lon="-4.731325004249811">
        <ele>7.35</ele>
        <time>2023-08-23T11:26:27Z</time>
      </trkpt>
      <trkpt lat="58.451812975108624" lon="-4.731165999546647">
        <ele>7.35</ele>
        <time>2023-08-23T11:26:28Z</time>
      </trkpt>
      <trkpt lat="58.453116025775671" lon="-4.730030000209808">
        <ele>7.35</ele>
        <time>2023-08-23T11:26:36Z</time>
      </trkpt>
      <trkpt lat="58.453229013830423" lon="-4.729846017435193">
        <ele>7.35</ele>
        <time>2023-08-23T11:26:37Z</time>
      </trkpt>
      <trkpt lat="58.453735029324889" lon="-4.729025010019541">
        <ele>7.35</ele>
        <time>2023-08-23T11:26:41Z</time>
      </trkpt>
      <trkpt lat="58.453893028199673" lon="-4.728848990052939">
        <ele>6.87</ele>
        <time>2023-08-23T11:26:42Z</time>
      </trkpt>
      <trkpt lat="58.455362040549517" lon="-4.727212004363537">
        <ele>7.35</ele>
        <time>2023-08-23T11:26:51Z</time>
      </trkpt>
      <trkpt lat="58.45646501518786" lon="-4.726340034976602">
        <ele>10.23</ele>
        <time>2023-08-23T11:26:58Z</time>
      </trkpt>
      <trkpt lat="58.456722004339099" lon="-4.726215982809663">
        <ele>10.710000000000001</ele>
        <time>2023-08-23T11:27:00Z</time>
      </trkpt>
      <trkpt lat="58.456824012100697" lon="-4.72612302750349">
        <ele>10.710000000000001</ele>
        <time>2023-08-23T11:27:01Z</time>
      </trkpt>
      <trkpt lat="58.456904981285334" lon="-4.725971985608339">
        <ele>11.67</ele>
        <time>2023-08-23T11:27:02Z</time>
      </trkpt>
      <trkpt lat="58.456970024853945" lon="-4.725808035582304">
        <ele>11.67</ele>
        <time>2023-08-23T11:27:03Z</time>
      </trkpt>
      <trkpt lat="58.456991985440254" lon="-4.725594967603684">
        <ele>12.15</ele>
        <time>2023-08-23T11:27:04Z</time>
      </trkpt>
      <trkpt lat="58.456993997097015" lon="-4.725376032292843">
        <ele>11.67</ele>
        <time>2023-08-23T11:27:05Z</time>
      </trkpt>
      <trkpt lat="58.45693901181221" lon="-4.725162964314222">
        <ele>11.67</ele>
        <time>2023-08-23T11:27:06Z</time>
      </trkpt>
      <trkpt lat="58.456880003213882" lon="-4.724937994033098">
        <ele>11.19</ele>
        <time>2023-08-23T11:27:07Z</time>
      </trkpt>
      <trkpt lat="58.456796016544104" lon="-4.724728027358651">
        <ele>11.19</ele>
        <time>2023-08-23T11:27:08Z</time>
      </trkpt>
      <trkpt lat="58.456691997125745" lon="-4.724522000178695">
        <ele>10.710000000000001</ele>
        <time>2023-08-23T11:27:09Z</time>
      </trkpt>
      <trkpt lat="58.455765964463353" lon="-4.722524005919695">
        <ele>11.19</ele>
        <time>2023-08-23T11:27:18Z</time>
      </trkpt>
      <trkpt lat="58.455711985006928" lon="-4.722270034253597">
        <ele>11.19</ele>
        <time>2023-08-23T11:27:19Z</time>
      </trkpt>
      <trkpt lat="58.455656999722123" lon="-4.722015978768468">
        <ele>10.710000000000001</ele>
        <time>2023-08-23T11:27:20Z</time>
      </trkpt>
      <trkpt lat="58.455635039135814" lon="-4.721753038465977">
        <ele>10.710000000000001</ele>
        <time>2023-08-23T11:27:21Z</time>
      </trkpt>
      <trkpt lat="58.455635039135814" lon="-4.721470987424254">
        <ele>10.710000000000001</ele>
        <time>2023-08-23T11:27:22Z</time>
      </trkpt>
      <trkpt lat="58.455635039135814" lon="-4.721180973574519">
        <ele>10.710000000000001</ele>
        <time>2023-08-23T11:27:23Z</time>
      </trkpt>
      <trkpt lat="58.455665968358517" lon="-4.720879979431629">
        <ele>11.19</ele>
        <time>2023-08-23T11:27:24Z</time>
      </trkpt>
      <trkpt lat="58.455698993057013" lon="-4.720559036359191">
        <ele>11.67</ele>
        <time>2023-08-23T11:27:25Z</time>
      </trkpt>
      <trkpt lat="58.455776022747159" lon="-4.720275979489088">
        <ele>12.15</ele>
        <time>2023-08-23T11:27:26Z</time>
      </trkpt>
      <trkpt lat="58.45586596056819" lon="-4.719970962032676">
        <ele>13.119999999999999</ele>
        <time>2023-08-23T11:27:27Z</time>
      </trkpt>
      <trkpt lat="58.455965034663677" lon="-4.719664016738534">
        <ele>14.08</ele>
        <time>2023-08-23T11:27:28Z</time>
      </trkpt>
      <trkpt lat="58.456937000155449" lon="-4.716446958482266">
        <ele>25.129999999999999</ele>
        <time>2023-08-23T11:27:38Z</time>
      </trkpt>
      <trkpt lat="58.457461958751082" lon="-4.713001996278763">
        <ele>31.379999999999999</ele>
        <time>2023-08-23T11:27:48Z</time>
      </trkpt>
      <trkpt lat="58.457502024248242" lon="-4.712725980207324">
        <ele>31.859999999999999</ele>
        <time>2023-08-23T11:27:49Z</time>
      </trkpt>
      <trkpt lat="58.457491965964437" lon="-4.712469996884465">
        <ele>32.340000000000003</ele>
        <time>2023-08-23T11:27:50Z</time>
      </trkpt>
      <trkpt lat="58.457482997328043" lon="-4.712210996076465">
        <ele>32.82</ele>
        <time>2023-08-23T11:27:51Z</time>
      </trkpt>
      <trkpt lat="58.45743496902287" lon="-4.711931040510535">
        <ele>33.299999999999997</ele>
        <time>2023-08-23T11:27:52Z</time>
      </trkpt>
      <trkpt lat="58.457376966252923" lon="-4.711651001125574">
        <ele>33.780000000000001</ele>
        <time>2023-08-23T11:27:53Z</time>
      </trkpt>
      <trkpt lat="58.457335978746414" lon="-4.711368028074503">
        <ele>33.780000000000001</ele>
        <time>2023-08-23T11:27:54Z</time>
      </trkpt>
      <trkpt lat="58.457307983189821" lon="-4.711078014224768">
        <ele>34.259999999999998</ele>
        <time>2023-08-23T11:27:55Z</time>
      </trkpt>
      <trkpt lat="58.457302032038569" lon="-4.710785988718271">
        <ele>34.740000000000002</ele>
        <time>2023-08-23T11:27:56Z</time>
      </trkpt>
      <trkpt lat="58.457358023151755" lon="-4.710507038980722">
        <ele>34.740000000000002</ele>
        <time>2023-08-23T11:27:57Z</time>
      </trkpt>
      <trkpt lat="58.457418037578464" lon="-4.710206966847181">
        <ele>34.740000000000002</ele>
        <time>2023-08-23T11:27:58Z</time>
      </trkpt>
      <trkpt lat="58.457480985671282" lon="-4.709889041259885">
        <ele>34.740000000000002</ele>
        <time>2023-08-23T11:27:59Z</time>
      </trkpt>
      <trkpt lat="58.457922963425517" lon="-4.70831198617816">
        <ele>34.740000000000002</ele>
        <time>2023-08-23T11:28:04Z</time>
      </trkpt>
      <trkpt lat="58.458046009764075" lon="-4.708081986755133">
        <ele>34.740000000000002</ele>
        <time>2023-08-23T11:28:05Z</time>
      </trkpt>
      <trkpt lat="58.458169978111982" lon="-4.70786296762526">
        <ele>34.740000000000002</ele>
        <time>2023-08-23T11:28:06Z</time>
      </trkpt>
      <trkpt lat="58.458311967551708" lon="-4.707698011770845">
        <ele>34.740000000000002</ele>
        <time>2023-08-23T11:28:07Z</time>
      </trkpt>
      <trkpt lat="58.458462003618479" lon="-4.70756096765399">
        <ele>34.740000000000002</ele>
        <time>2023-08-23T11:28:08Z</time>
      </trkpt>
      <trkpt lat="58.458626037463546" lon="-4.707492990419269">
        <ele>34.740000000000002</ele>
        <time>2023-08-23T11:28:09Z</time>
      </trkpt>
      <trkpt lat="58.458790993317962" lon="-4.707428030669689">
        <ele>34.740000000000002</ele>
        <time>2023-08-23T11:28:10Z</time>
      </trkpt>
      <trkpt lat="58.458946980535984" lon="-4.7073670104146">
        <ele>34.740000000000002</ele>
        <time>2023-08-23T11:28:11Z</time>
      </trkpt>
      <trkpt lat="58.459235988557339" lon="-4.707226026803255">
        <ele>35.229999999999997</ele>
        <time>2023-08-23T11:28:13Z</time>
      </trkpt>
      <trkpt lat="58.459363980218768" lon="-4.707116978242993">
        <ele>35.229999999999997</ele>
        <time>2023-08-23T11:28:14Z</time>
      </trkpt>
      <trkpt lat="58.45947403460741" lon="-4.706995021551848">
        <ele>35.229999999999997</ele>
        <time>2023-08-23T11:28:15Z</time>
      </trkpt>
      <trkpt lat="58.459556009620428" lon="-4.706800980493426">
        <ele>35.229999999999997</ele>
        <time>2023-08-23T11:28:16Z</time>
      </trkpt>
      <trkpt lat="58.459647037088871" lon="-4.706585984677076">
        <ele>35.229999999999997</ele>
        <time>2023-08-23T11:28:17Z</time>
      </trkpt>
      <trkpt lat="58.459744015708566" lon="-4.70635699108243">
        <ele>35.229999999999997</ele>
        <time>2023-08-23T11:28:18Z</time>
      </trkpt>
      <trkpt lat="58.459845017641783" lon="-4.706118023023009">
        <ele>35.229999999999997</ele>
        <time>2023-08-23T11:28:19Z</time>
      </trkpt>
      <trkpt lat="58.459953982383013" lon="-4.705887017771602">
        <ele>34.740000000000002</ele>
        <time>2023-08-23T11:28:20Z</time>
      </trkpt>
      <trkpt lat="58.460089014843106" lon="-4.705704962834716">
        <ele>34.740000000000002</ele>
        <time>2023-08-23T11:28:21Z</time>
      </trkpt>
      <trkpt lat="58.460617996752262" lon="-4.704991998150945">
        <ele>34.259999999999998</ele>
        <time>2023-08-23T11:28:25Z</time>
      </trkpt>
      <trkpt lat="58.460728973150253" lon="-4.704841040074825">
        <ele>34.259999999999998</ele>
        <time>2023-08-23T11:28:26Z</time>
      </trkpt>
      <trkpt lat="58.460823018103838" lon="-4.704643981531262">
        <ele>34.740000000000002</ele>
        <time>2023-08-23T11:28:27Z</time>
      </trkpt>
      <trkpt lat="58.460897030308843" lon="-4.704409036785364">
        <ele>34.259999999999998</ele>
        <time>2023-08-23T11:28:28Z</time>
      </trkpt>
      <trkpt lat="58.460974982008338" lon="-4.704159004613757">
        <ele>34.259999999999998</ele>
        <time>2023-08-23T11:28:29Z</time>
      </trkpt>
      <trkpt lat="58.461055029183626" lon="-4.70390503294766">
        <ele>34.259999999999998</ele>
        <time>2023-08-23T11:28:30Z</time>
      </trkpt>
      <trkpt lat="58.461131975054741" lon="-4.703659024089575">
        <ele>33.780000000000001</ele>
        <time>2023-08-23T11:28:31Z</time>
      </trkpt>
      <trkpt lat="58.461205987259746" lon="-4.703420978039503">
        <ele>33.780000000000001</ele>
        <time>2023-08-23T11:28:32Z</time>
      </trkpt>
      <trkpt lat="58.46130296587944" lon="-4.703256022185087">
        <ele>33.299999999999997</ele>
        <time>2023-08-23T11:28:33Z</time>
      </trkpt>
      <trkpt lat="58.461425006389618" lon="-4.703127024695277">
        <ele>33.299999999999997</ele>
        <time>2023-08-23T11:28:34Z</time>
      </trkpt>
      <trkpt lat="58.461578981950879" lon="-4.702963996678591">
        <ele>32.82</ele>
        <time>2023-08-23T11:28:35Z</time>
      </trkpt>
      <trkpt lat="58.461688030511141" lon="-4.702917980030179">
        <ele>32.82</ele>
        <time>2023-08-23T11:28:36Z</time>
      </trkpt>
      <trkpt lat="58.461831025779247" lon="-4.70285695977509">
        <ele>32.82</ele>
        <time>2023-08-23T11:28:37Z</time>
      </trkpt>
      <trkpt lat="58.462087009102106" lon="-4.702749000862241">
        <ele>33.299999999999997</ele>
        <time>2023-08-23T11:28:39Z</time>
      </trkpt>
      <trkpt lat="58.462197985500097" lon="-4.702645987272263">
        <ele>33.299999999999997</ele>
        <time>2023-08-23T11:28:40Z</time>
      </trkpt>
      <trkpt lat="58.462307034060359" lon="-4.702499974519014">
        <ele>33.299999999999997</ele>
        <time>2023-08-23T11:28:41Z</time>
      </trkpt>
      <trkpt lat="58.462759992107749" lon="-4.701811987906694">
        <ele>33.299999999999997</ele>
        <time>2023-08-23T11:28:45Z</time>
      </trkpt>
      <trkpt lat="58.462841967120767" lon="-4.701588023453951">
        <ele>33.299999999999997</ele>
        <time>2023-08-23T11:28:46Z</time>
      </trkpt>
      <trkpt lat="58.462897036224604" lon="-4.701381996273994">
        <ele>32.82</ele>
        <time>2023-08-23T11:28:47Z</time>
      </trkpt>
      <trkpt lat="58.463016981258988" lon="-4.700843961909413">
        <ele>32.82</ele>
        <time>2023-08-23T11:28:52Z</time>
      </trkpt>
      <trkpt lat="58.463045982643962" lon="-4.700675988569856">
        <ele>32.82</ele>
        <time>2023-08-23T11:28:53Z</time>
      </trkpt>
      <trkpt lat="58.463081018999219" lon="-4.700474990531802">
        <ele>32.82</ele>
        <time>2023-08-23T11:28:54Z</time>
      </trkpt>
      <trkpt lat="58.463065009564161" lon="-4.700251026079059">
        <ele>32.82</ele>
        <time>2023-08-23T11:28:55Z</time>
      </trkpt>
      <trkpt lat="58.463045982643962" lon="-4.699996970593929">
        <ele>32.340000000000003</ele>
        <time>2023-08-23T11:28:56Z</time>
      </trkpt>
      <trkpt lat="58.463027039542794" lon="-4.699719026684761">
        <ele>31.859999999999999</ele>
        <time>2023-08-23T11:28:57Z</time>
      </trkpt>
      <trkpt lat="58.463006000965834" lon="-4.699434963986278">
        <ele>31.379999999999999</ele>
        <time>2023-08-23T11:28:58Z</time>
      </trkpt>
      <trkpt lat="58.463009018450975" lon="-4.699146961793304">
        <ele>30.899999999999999</ele>
        <time>2023-08-23T11:28:59Z</time>
      </trkpt>
      <trkpt lat="58.46304195933044" lon="-4.698866000398994">
        <ele>29.940000000000001</ele>
        <time>2023-08-23T11:29:00Z</time>
      </trkpt>
      <trkpt lat="58.46308495849371" lon="-4.698581015691161">
        <ele>29.940000000000001</ele>
        <time>2023-08-23T11:29:01Z</time>
      </trkpt>
      <trkpt lat="58.463138015940785" lon="-4.698304999619722">
        <ele>30.420000000000002</ele>
        <time>2023-08-23T11:29:02Z</time>
      </trkpt>
      <trkpt lat="58.463202975690365" lon="-4.698052033782005">
        <ele>30.420000000000002</ele>
        <time>2023-08-23T11:29:03Z</time>
      </trkpt>
      <trkpt lat="58.463281011208892" lon="-4.697823962196708">
        <ele>30.899999999999999</ele>
        <time>2023-08-23T11:29:04Z</time>
      </trkpt>
      <trkpt lat="58.463358040899038" lon="-4.697599997743964">
        <ele>31.379999999999999</ele>
        <time>2023-08-23T11:29:05Z</time>
      </trkpt>
      <trkpt lat="58.463446972891688" lon="-4.697378966957331">
        <ele>31.859999999999999</ele>
        <time>2023-08-23T11:29:06Z</time>
      </trkpt>
      <trkpt lat="58.463565995916724" lon="-4.697233038023114">
        <ele>32.340000000000003</ele>
        <time>2023-08-23T11:29:07Z</time>
      </trkpt>
      <trkpt lat="58.463709997013211" lon="-4.697128012776375">
        <ele>32.340000000000003</ele>
        <time>2023-08-23T11:29:08Z</time>
      </trkpt>
      <trkpt lat="58.463866990059614" lon="-4.697061963379383">
        <ele>32.82</ele>
        <time>2023-08-23T11:29:09Z</time>
      </trkpt>
      <trkpt lat="58.464032029733062" lon="-4.697044026106596">
        <ele>33.780000000000001</ele>
        <time>2023-08-23T11:29:10Z</time>
      </trkpt>
      <trkpt lat="58.464202014729381" lon="-4.697024999186397">
        <ele>34.259999999999998</ele>
        <time>2023-08-23T11:29:11Z</time>
      </trkpt>
      <trkpt lat="58.465454019606113" lon="-4.696883009746671">
        <ele>46.759999999999998</ele>
        <time>2023-08-23T11:29:19Z</time>
      </trkpt>
      <trkpt lat="58.465572958812118" lon="-4.696802962571383">
        <ele>48.68</ele>
        <time>2023-08-23T11:29:20Z</time>
      </trkpt>
      <trkpt lat="58.465682007372379" lon="-4.696685029193759">
        <ele>50.609999999999999</ele>
        <time>2023-08-23T11:29:21Z</time>
      </trkpt>
      <trkpt lat="58.465760964900255" lon="-4.696555025875568">
        <ele>52.530000000000001</ele>
        <time>2023-08-23T11:29:22Z</time>
      </trkpt>
      <trkpt lat="58.465817961841822" lon="-4.696460980921984">
        <ele>53.969999999999999</ele>
        <time>2023-08-23T11:29:23Z</time>
      </trkpt>
      <trkpt lat="58.465870013460517" lon="-4.696375988423824">
        <ele>55.409999999999997</ele>
        <time>2023-08-23T11:29:24Z</time>
      </trkpt>
      <trkpt lat="58.465887028723955" lon="-4.69632301479578">
        <ele>56.859999999999999</ele>
        <time>2023-08-23T11:29:25Z</time>
      </trkpt>
      <trkpt lat="58.465906977653503" lon="-4.696260988712311">
        <ele>58.299999999999997</ele>
        <time>2023-08-23T11:29:26Z</time>
      </trkpt>
      <trkpt lat="58.465987024828792" lon="-4.696013974025846">
        <ele>61.659999999999997</ele>
        <time>2023-08-23T11:29:29Z</time>
      </trkpt>
      <trkpt lat="58.466352978721261" lon="-4.694842016324401">
        <ele>67.909999999999997</ele>
        <time>2023-08-23T11:29:35Z</time>
      </trkpt>
      <trkpt lat="58.466556994244456" lon="-4.693972980603576">
        <ele>70.790000000000006</ele>
        <time>2023-08-23T11:29:38Z</time>
      </trkpt>
      <trkpt lat="58.466584989801049" lon="-4.693687995895743">
        <ele>71.760000000000005</ele>
        <time>2023-08-23T11:29:39Z</time>
      </trkpt>
      <trkpt lat="58.466613991186023" lon="-4.693403011187911">
        <ele>72.719999999999999</ele>
        <time>2023-08-23T11:29:40Z</time>
      </trkpt>
      <trkpt lat="58.466579960659146" lon="-4.690807973966003">
        <ele>67.909999999999997</ele>
        <time>2023-08-23T11:29:49Z</time>
      </trkpt>
      <trkpt lat="58.466592030599713" lon="-4.690577974542975">
        <ele>66.469999999999999</ele>
        <time>2023-08-23T11:29:50Z</time>
      </trkpt>
      <trkpt lat="58.466616002842784" lon="-4.690379993990064">
        <ele>65.510000000000005</ele>
        <time>2023-08-23T11:29:51Z</time>
      </trkpt>
      <trkpt lat="58.466810965910554" lon="-4.689458990469575">
        <ele>60.219999999999999</ele>
        <time>2023-08-23T11:29:58Z</time>
      </trkpt>
      <trkpt lat="58.466835021972656" lon="-4.68938497826457">
        <ele>59.259999999999998</ele>
        <time>2023-08-23T11:29:59Z</time>
      </trkpt>
      <trkpt lat="58.466858994215727" lon="-4.689313983544707">
        <ele>58.780000000000001</ele>
        <time>2023-08-23T11:30:00Z</time>
      </trkpt>
      <trkpt lat="58.466881038621068" lon="-4.68925204128027">
        <ele>58.299999999999997</ele>
        <time>2023-08-23T11:30:01Z</time>
      </trkpt>
      <trkpt lat="58.466980028897524" lon="-4.688964039087296">
        <ele>55.890000000000001</ele>
        <time>2023-08-23T11:30:07Z</time>
      </trkpt>
      <trkpt lat="58.467256966978312" lon="-4.688182007521391">
        <ele>53.490000000000002</ele>
        <time>2023-08-23T11:30:12Z</time>
      </trkpt>
      <trkpt lat="58.467966997995973" lon="-4.686332959681749">
        <ele>47.240000000000002</ele>
        <time>2023-08-23T11:30:21Z</time>
      </trkpt>
      <trkpt lat="58.468936029821634" lon="-4.684554990381002">
        <ele>42.920000000000002</ele>
        <time>2023-08-23T11:30:31Z</time>
      </trkpt>
      <trkpt lat="58.469739016145468" lon="-4.68353901989758">
        <ele>40.030000000000001</ele>
        <time>2023-08-23T11:30:39Z</time>
      </trkpt>
      <trkpt lat="58.470505038276315" lon="-4.682536041364074">
        <ele>40.030000000000001</ele>
        <time>2023-08-23T11:30:47Z</time>
      </trkpt>
      <trkpt lat="58.470580978319049" lon="-4.68240100890398">
        <ele>40.509999999999998</ele>
        <time>2023-08-23T11:30:48Z</time>
      </trkpt>
      <trkpt lat="58.470808966085315" lon="-4.681995995342732">
        <ele>40.990000000000002</ele>
        <time>2023-08-23T11:30:51Z</time>
      </trkpt>
      <trkpt lat="58.470880966633558" lon="-4.681868003681302">
        <ele>40.990000000000002</ele>
        <time>2023-08-23T11:30:52Z</time>
      </trkpt>
      <trkpt lat="58.470965959131718" lon="-4.681769013404846">
        <ele>40.990000000000002</ele>
        <time>2023-08-23T11:30:53Z</time>
      </trkpt>
      <trkpt lat="58.471058998256922" lon="-4.68166901730001">
        <ele>40.990000000000002</ele>
        <time>2023-08-23T11:30:54Z</time>
      </trkpt>
      <trkpt lat="58.471147008240223" lon="-4.681573966518045">
        <ele>40.990000000000002</ele>
        <time>2023-08-23T11:30:55Z</time>
      </trkpt>
      <trkpt lat="58.471237029880285" lon="-4.681525016203523">
        <ele>40.990000000000002</ele>
        <time>2023-08-23T11:30:56Z</time>
      </trkpt>
      <trkpt lat="58.471327973529696" lon="-4.681492997333407">
        <ele>40.990000000000002</ele>
        <time>2023-08-23T11:30:57Z</time>
      </trkpt>
      <trkpt lat="58.471417995169759" lon="-4.681460978463292">
        <ele>41.469999999999999</ele>
        <time>2023-08-23T11:30:58Z</time>
      </trkpt>
      <trkpt lat="58.471504999324679" lon="-4.681443963199854">
        <ele>41.950000000000003</ele>
        <time>2023-08-23T11:30:59Z</time>
      </trkpt>
      <trkpt lat="58.4715920034796" lon="-4.681451003998518">
        <ele>42.439999999999998</ele>
        <time>2023-08-23T11:31:00Z</time>
      </trkpt>
      <trkpt lat="58.471679007634521" lon="-4.68145796097815">
        <ele>43.399999999999999</ele>
        <time>2023-08-23T11:31:01Z</time>
      </trkpt>
      <trkpt lat="58.471766011789441" lon="-4.681471036747098">
        <ele>44.359999999999999</ele>
        <time>2023-08-23T11:31:02Z</time>
      </trkpt>
      <trkpt lat="58.471852010115981" lon="-4.681511018425226">
        <ele>44.840000000000003</ele>
        <time>2023-08-23T11:31:03Z</time>
      </trkpt>
      <trkpt lat="58.472475036978722" lon="-4.681803965941072">
        <ele>48.68</ele>
        <time>2023-08-23T11:31:12Z</time>
      </trkpt>
      <trkpt lat="58.472647033631802" lon="-4.68188401311636">
        <ele>50.609999999999999</ele>
        <time>2023-08-23T11:31:17Z</time>
      </trkpt>
      <trkpt lat="58.472703024744987" lon="-4.681911002844572">
        <ele>51.090000000000003</ele>
        <time>2023-08-23T11:31:18Z</time>
      </trkpt>
      <trkpt lat="58.472937969490886" lon="-4.681892981752753">
        <ele>52.530000000000001</ele>
        <time>2023-08-23T11:31:21Z</time>
      </trkpt>
      <trkpt lat="58.473018016666174" lon="-4.681856017559767">
        <ele>52.530000000000001</ele>
        <time>2023-08-23T11:31:22Z</time>
      </trkpt>
      <trkpt lat="58.473227983340621" lon="-4.681701036170125">
        <ele>51.57</ele>
        <time>2023-08-23T11:31:28Z</time>
      </trkpt>
      <trkpt lat="58.473379025235772" lon="-4.681549994274974">
        <ele>51.57</ele>
        <time>2023-08-23T11:31:35Z</time>
      </trkpt>
      <trkpt lat="58.473492013290524" lon="-4.681438012048602">
        <ele>51.090000000000003</ele>
        <time>2023-08-23T11:31:37Z</time>
      </trkpt>
      <trkpt lat="58.474099030718207" lon="-4.680829988792539">
        <ele>51.57</ele>
        <time>2023-08-23T11:31:44Z</time>
      </trkpt>
      <trkpt lat="58.474154016003013" lon="-4.680795036256313">
        <ele>51.57</ele>
        <time>2023-08-23T11:31:45Z</time>
      </trkpt>
      <trkpt lat="58.474211012944579" lon="-4.680787995457649">
        <ele>51.57</ele>
        <time>2023-08-23T11:31:46Z</time>
      </trkpt>
      <trkpt lat="58.474713005125523" lon="-4.680806016549468">
        <ele>50.609999999999999</ele>
        <time>2023-08-23T11:31:57Z</time>
      </trkpt>
      <trkpt lat="58.474788023158908" lon="-4.680822025984526">
        <ele>50.609999999999999</ele>
        <time>2023-08-23T11:32:06Z</time>
      </trkpt>
      <trkpt lat="58.475118018686771" lon="-4.680868964642286">
        <ele>50.130000000000003</ele>
        <time>2023-08-23T11:32:12Z</time>
      </trkpt>
      <trkpt lat="58.475303007289767" lon="-4.680800987407565">
        <ele>50.609999999999999</ele>
        <time>2023-08-23T11:32:14Z</time>
      </trkpt>
      <trkpt lat="58.475395040586591" lon="-4.680718006566167">
        <ele>50.609999999999999</ele>
        <time>2023-08-23T11:32:15Z</time>
      </trkpt>
      <trkpt lat="58.475495036691427" lon="-4.680623039603233">
        <ele>51.090000000000003</ele>
        <time>2023-08-23T11:32:16Z</time>
      </trkpt>
      <trkpt lat="58.476283019408584" lon="-4.679573960602284">
        <ele>51.57</ele>
        <time>2023-08-23T11:32:24Z</time>
      </trkpt>
      <trkpt lat="58.476874027401209" lon="-4.677997995167971">
        <ele>51.57</ele>
        <time>2023-08-23T11:32:33Z</time>
      </trkpt>
      <trkpt lat="58.476951979100704" lon="-4.67784502543509">
        <ele>51.57</ele>
        <time>2023-08-23T11:32:34Z</time>
      </trkpt>
      <trkpt lat="58.477034959942102" lon="-4.677685014903545">
        <ele>51.57</ele>
        <time>2023-08-23T11:32:35Z</time>
      </trkpt>
      <trkpt lat="58.477135039865971" lon="-4.677493991330266">
        <ele>51.57</ele>
        <time>2023-08-23T11:32:36Z</time>
      </trkpt>
      <trkpt lat="58.477212991565466" lon="-4.677403969690204">
        <ele>51.090000000000003</ele>
        <time>2023-08-23T11:32:37Z</time>
      </trkpt>
      <trkpt lat="58.477314999327064" lon="-4.67728603631258">
        <ele>51.090000000000003</ele>
        <time>2023-08-23T11:32:38Z</time>
      </trkpt>
      <trkpt lat="58.478374974802136" lon="-4.676125980913639">
        <ele>50.609999999999999</ele>
        <time>2023-08-23T11:32:48Z</time>
      </trkpt>
      <trkpt lat="58.478497015312314" lon="-4.676064038649201">
        <ele>50.609999999999999</ele>
        <time>2023-08-23T11:32:49Z</time>
      </trkpt>
      <trkpt lat="58.478624001145363" lon="-4.676033025607467">
        <ele>50.609999999999999</ele>
        <time>2023-08-23T11:32:50Z</time>
      </trkpt>
      <trkpt lat="58.478749981150031" lon="-4.676001006737351">
        <ele>50.609999999999999</ele>
        <time>2023-08-23T11:32:51Z</time>
      </trkpt>
      <trkpt lat="58.478875961154699" lon="-4.676003018394113">
        <ele>50.609999999999999</ele>
        <time>2023-08-23T11:32:52Z</time>
      </trkpt>
      <trkpt lat="58.479736028239131" lon="-4.676070995628834">
        <ele>51.090000000000003</ele>
        <time>2023-08-23T11:32:59Z</time>
      </trkpt>
      <trkpt lat="58.479847004637122" lon="-4.676047023385763">
        <ele>51.090000000000003</ele>
        <time>2023-08-23T11:33:00Z</time>
      </trkpt>
      <trkpt lat="58.47994901239872" lon="-4.676006035879254">
        <ele>51.090000000000003</ele>
        <time>2023-08-23T11:33:01Z</time>
      </trkpt>
      <trkpt lat="58.480052025988698" lon="-4.675940992310643">
        <ele>51.090000000000003</ele>
        <time>2023-08-23T11:33:02Z</time>
      </trkpt>
      <trkpt lat="58.480166019871831" lon="-4.6758689917624">
        <ele>51.090000000000003</ele>
        <time>2023-08-23T11:33:03Z</time>
      </trkpt>
      <trkpt lat="58.480793992057443" lon="-4.675471018999815">
        <ele>50.609999999999999</ele>
        <time>2023-08-23T11:33:10Z</time>
      </trkpt>
      <trkpt lat="58.480955008417368" lon="-4.675369011238217">
        <ele>50.130000000000003</ele>
        <time>2023-08-23T11:33:14Z</time>
      </trkpt>
      <trkpt lat="58.481446020305157" lon="-4.674973972141743">
        <ele>50.130000000000003</ele>
        <time>2023-08-23T11:33:21Z</time>
      </trkpt>
      <trkpt lat="58.482267027720809" lon="-4.674076018854976">
        <ele>50.130000000000003</ele>
        <time>2023-08-23T11:33:30Z</time>
      </trkpt>
      <trkpt lat="58.482416979968548" lon="-4.673740994185209">
        <ele>48.68</ele>
        <time>2023-08-23T11:33:32Z</time>
      </trkpt>
      <trkpt lat="58.482476994395256" lon="-4.673542007803917">
        <ele>48.200000000000003</ele>
        <time>2023-08-23T11:33:33Z</time>
      </trkpt>
      <trkpt lat="58.482533991336823" lon="-4.673342015594244">
        <ele>47.240000000000002</ele>
        <time>2023-08-23T11:33:34Z</time>
      </trkpt>
      <trkpt lat="58.482583025470376" lon="-4.673138000071049">
        <ele>46.759999999999998</ele>
        <time>2023-08-23T11:33:35Z</time>
      </trkpt>
      <trkpt lat="58.482629964128137" lon="-4.672943037003279">
        <ele>45.799999999999997</ele>
        <time>2023-08-23T11:33:36Z</time>
      </trkpt>
      <trkpt lat="58.482649996876717" lon="-4.672744972631335">
        <ele>44.840000000000003</ele>
        <time>2023-08-23T11:33:37Z</time>
      </trkpt>
      <trkpt lat="58.482649996876717" lon="-4.672553027048707">
        <ele>43.880000000000003</ele>
        <time>2023-08-23T11:33:38Z</time>
      </trkpt>
      <trkpt lat="58.482649996876717" lon="-4.672365020960569">
        <ele>42.920000000000002</ele>
        <time>2023-08-23T11:33:39Z</time>
      </trkpt>
      <trkpt lat="58.482609009370208" lon="-4.672152036800981">
        <ele>41.950000000000003</ele>
        <time>2023-08-23T11:33:40Z</time>
      </trkpt>
      <trkpt lat="58.482566010206938" lon="-4.671926982700825">
        <ele>40.509999999999998</ele>
        <time>2023-08-23T11:33:41Z</time>
      </trkpt>
      <trkpt lat="58.482272978872061" lon="-4.670398039743304">
        <ele>33.299999999999997</ele>
        <time>2023-08-23T11:33:48Z</time>
      </trkpt>
      <trkpt lat="58.482165019959211" lon="-4.67008899897337">
        <ele>31.859999999999999</ele>
        <time>2023-08-23T11:33:50Z</time>
      </trkpt>
      <trkpt lat="58.482087990269065" lon="-4.66993804089725">
        <ele>30.420000000000002</ele>
        <time>2023-08-23T11:33:51Z</time>
      </trkpt>
      <trkpt lat="58.482009032741189" lon="-4.669782975688577">
        <ele>29.940000000000001</ele>
        <time>2023-08-23T11:33:52Z</time>
      </trkpt>
      <trkpt lat="58.481568982824683" lon="-4.668787959963083">
        <ele>23.690000000000001</ele>
        <time>2023-08-23T11:33:58Z</time>
      </trkpt>
      <trkpt lat="58.481508968397975" lon="-4.668601965531707">
        <ele>22.73</ele>
        <time>2023-08-23T11:33:59Z</time>
      </trkpt>
      <trkpt lat="58.481462029740214" lon="-4.668425023555756">
        <ele>21.77</ele>
        <time>2023-08-23T11:34:00Z</time>
      </trkpt>
      <trkpt lat="58.481434034183621" lon="-4.668226037174463">
        <ele>21.289999999999999</ele>
        <time>2023-08-23T11:34:01Z</time>
      </trkpt>
      <trkpt lat="58.481406960636377" lon="-4.668031996116042">
        <ele>20.32</ele>
        <time>2023-08-23T11:34:02Z</time>
      </trkpt>
      <trkpt lat="58.481379970908165" lon="-4.667840972542763">
        <ele>19.84</ele>
        <time>2023-08-23T11:34:03Z</time>
      </trkpt>
      <trkpt lat="58.481197999790311" lon="-4.666544962674379">
        <ele>17.920000000000002</ele>
        <time>2023-08-23T11:34:11Z</time>
      </trkpt>
      <trkpt lat="58.481147959828377" lon="-4.666184959933162">
        <ele>17.440000000000001</ele>
        <time>2023-08-23T11:34:13Z</time>
      </trkpt>
      <trkpt lat="58.481136979535222" lon="-4.665805008262396">
        <ele>16.960000000000001</ele>
        <time>2023-08-23T11:34:15Z</time>
      </trkpt>
      <trkpt lat="58.481132034212351" lon="-4.665629994124174">
        <ele>16.48</ele>
        <time>2023-08-23T11:34:16Z</time>
      </trkpt>
      <trkpt lat="58.481129016727209" lon="-4.665442993864417">
        <ele>16</ele>
        <time>2023-08-23T11:34:17Z</time>
      </trkpt>
      <trkpt lat="58.481161035597324" lon="-4.665293041616678">
        <ele>15.52</ele>
        <time>2023-08-23T11:34:18Z</time>
      </trkpt>
      <trkpt lat="58.481213003396988" lon="-4.665123978629708">
        <ele>15.52</ele>
        <time>2023-08-23T11:34:19Z</time>
      </trkpt>
      <trkpt lat="58.481288021430373" lon="-4.665017025545239">
        <ele>15.039999999999999</ele>
        <time>2023-08-23T11:34:20Z</time>
      </trkpt>
      <trkpt lat="58.481340995058417" lon="-4.664941001683474">
        <ele>15.039999999999999</ele>
        <time>2023-08-23T11:34:21Z</time>
      </trkpt>
      <trkpt lat="58.481449037790298" lon="-4.664852991700172">
        <ele>14.56</ele>
        <time>2023-08-23T11:34:22Z</time>
      </trkpt>
      <trkpt lat="58.481533024460077" lon="-4.664785014465451">
        <ele>14.08</ele>
        <time>2023-08-23T11:34:23Z</time>
      </trkpt>
      <trkpt lat="58.481613993644714" lon="-4.66471896506846">
        <ele>13.6</ele>
        <time>2023-08-23T11:34:24Z</time>
      </trkpt>
      <trkpt lat="58.481766963377595" lon="-4.664593990892172">
        <ele>12.630000000000001</ele>
        <time>2023-08-23T11:34:26Z</time>
      </trkpt>
      <trkpt lat="58.481837036088109" lon="-4.664536993950605">
        <ele>12.630000000000001</ele>
        <time>2023-08-23T11:34:27Z</time>
      </trkpt>
      <trkpt lat="58.481920016929507" lon="-4.664469016715884">
        <ele>12.630000000000001</ele>
        <time>2023-08-23T11:34:28Z</time>
      </trkpt>
      <trkpt lat="58.481978019699454" lon="-4.664329960942268">
        <ele>12.630000000000001</ele>
        <time>2023-08-23T11:34:29Z</time>
      </trkpt>
      <trkpt lat="58.482039039954543" lon="-4.66418000869453">
        <ele>12.630000000000001</ele>
        <time>2023-08-23T11:34:30Z</time>
      </trkpt>
      <trkpt lat="58.482166025787592" lon="-4.663872979581356">
        <ele>12.630000000000001</ele>
        <time>2023-08-23T11:34:32Z</time>
      </trkpt>
      <trkpt lat="58.482234003022313" lon="-4.663719004020095">
        <ele>12.630000000000001</ele>
        <time>2023-08-23T11:34:33Z</time>
      </trkpt>
      <trkpt lat="58.482320001348853" lon="-4.663590006530285">
        <ele>12.630000000000001</ele>
        <time>2023-08-23T11:34:34Z</time>
      </trkpt>
      <trkpt lat="58.483217032626271" lon="-4.66250597499311">
        <ele>15.039999999999999</ele>
        <time>2023-08-23T11:34:44Z</time>
      </trkpt>
      <trkpt lat="58.483385005965829" lon="-4.662306988611817">
        <ele>15.52</ele>
        <time>2023-08-23T11:34:50Z</time>
      </trkpt>
      <trkpt lat="58.483385005965829" lon="-4.662306988611817">
        <ele>16</ele>
        <time>2023-08-23T11:35:09Z</time>
      </trkpt>
      <trkpt lat="58.483627997338772" lon="-4.662060979753733">
        <ele>15.52</ele>
        <time>2023-08-23T11:35:24Z</time>
      </trkpt>
      <trkpt lat="58.483730005100369" lon="-4.661962995305657">
        <ele>15.039999999999999</ele>
        <time>2023-08-23T11:35:26Z</time>
      </trkpt>
      <trkpt lat="58.483787002041936" lon="-4.661908010020852">
        <ele>15.039999999999999</ele>
        <time>2023-08-23T11:35:27Z</time>
      </trkpt>
      <trkpt lat="58.483919017016888" lon="-4.661782030016184">
        <ele>15.039999999999999</ele>
        <time>2023-08-23T11:35:29Z</time>
      </trkpt>
      <trkpt lat="58.484651008620858" lon="-4.661128995940089">
        <ele>13.119999999999999</ele>
        <time>2023-08-23T11:35:37Z</time>
      </trkpt>
      <trkpt lat="58.484765002503991" lon="-4.661061018705368">
        <ele>12.630000000000001</ele>
        <time>2023-08-23T11:35:38Z</time>
      </trkpt>
      <trkpt lat="58.485690029338002" lon="-4.660595990717411">
        <ele>12.630000000000001</ele>
        <time>2023-08-23T11:35:46Z</time>
      </trkpt>
      <trkpt lat="58.485782984644175" lon="-4.660563971847296">
        <ele>12.630000000000001</ele>
        <time>2023-08-23T11:35:47Z</time>
      </trkpt>
      <trkpt lat="58.485893039032817" lon="-4.660625997930765">
        <ele>12.15</ele>
        <time>2023-08-23T11:35:48Z</time>
      </trkpt>
      <trkpt lat="58.485998986288905" lon="-4.660688024014235">
        <ele>12.15</ele>
        <time>2023-08-23T11:35:49Z</time>
      </trkpt>
      <trkpt lat="58.486104011535645" lon="-4.660748038440943">
        <ele>12.15</ele>
        <time>2023-08-23T11:35:50Z</time>
      </trkpt>
      <trkpt lat="58.486471977084875" lon="-4.660960016772151">
        <ele>12.630000000000001</ele>
        <time>2023-08-23T11:35:54Z</time>
      </trkpt>
      <trkpt lat="58.486616984009743" lon="-4.661042997613549">
        <ele>13.6</ele>
        <time>2023-08-23T11:36:01Z</time>
      </trkpt>
      <trkpt lat="58.486651014536619" lon="-4.661058001220226">
        <ele>13.6</ele>
        <time>2023-08-23T11:36:02Z</time>
      </trkpt>
      <trkpt lat="58.48719198256731" lon="-4.661112986505032">
        <ele>12.15</ele>
        <time>2023-08-23T11:36:09Z</time>
      </trkpt>
      <trkpt lat="58.48770797252655" lon="-4.661169983446598">
        <ele>11.19</ele>
        <time>2023-08-23T11:36:13Z</time>
      </trkpt>
      <trkpt lat="58.487888015806675" lon="-4.661241983994842">
        <ele>11.19</ele>
        <time>2023-08-23T11:36:14Z</time>
      </trkpt>
      <trkpt lat="58.48923297598958" lon="-4.661780018359423">
        <ele>10.710000000000001</ele>
        <time>2023-08-23T11:36:20Z</time>
      </trkpt>
      <trkpt lat="58.490610038861632" lon="-4.662230964750052">
        <ele>13.119999999999999</ele>
        <time>2023-08-23T11:36:27Z</time>
      </trkpt>
      <trkpt lat="58.490773988887668" lon="-4.662217972800136">
        <ele>13.6</ele>
        <time>2023-08-23T11:36:28Z</time>
      </trkpt>
      <trkpt lat="58.490940034389496" lon="-4.662170028313994">
        <ele>14.08</ele>
        <time>2023-08-23T11:36:29Z</time>
      </trkpt>
      <trkpt lat="58.492743987590075" lon="-4.661340974271298">
        <ele>17.440000000000001</ele>
        <time>2023-08-23T11:36:39Z</time>
      </trkpt>
      <trkpt lat="58.494310984387994" lon="-4.660561960190535">
        <ele>19.84</ele>
        <time>2023-08-23T11:36:48Z</time>
      </trkpt>
      <trkpt lat="58.495929026976228" lon="-4.659344991669059">
        <ele>24.170000000000002</ele>
        <time>2023-08-23T11:36:58Z</time>
      </trkpt>
      <trkpt lat="58.497812021523714" lon="-4.657838009297848">
        <ele>39.549999999999997</ele>
        <time>2023-08-23T11:37:09Z</time>
      </trkpt>
      <trkpt lat="58.497988963499665" lon="-4.657838009297848">
        <ele>40.990000000000002</ele>
        <time>2023-08-23T11:37:10Z</time>
      </trkpt>
      <trkpt lat="58.498165989294648" lon="-4.657853012904525">
        <ele>42.920000000000002</ele>
        <time>2023-08-23T11:37:11Z</time>
      </trkpt>
      <trkpt lat="58.49834200926125" lon="-4.657910009846091">
        <ele>44.359999999999999</ele>
        <time>2023-08-23T11:37:12Z</time>
      </trkpt>
      <trkpt lat="58.498520962893963" lon="-4.657969018444419">
        <ele>45.799999999999997</ele>
        <time>2023-08-23T11:37:13Z</time>
      </trkpt>
      <trkpt lat="58.499025972560048" lon="-4.658133974298835">
        <ele>51.090000000000003</ele>
        <time>2023-08-23T11:37:16Z</time>
      </trkpt>
      <trkpt lat="58.499171985313296" lon="-4.658182002604008">
        <ele>53.009999999999998</ele>
        <time>2023-08-23T11:37:17Z</time>
      </trkpt>
      <trkpt lat="58.499346999451518" lon="-4.658137997612357">
        <ele>55.409999999999997</ele>
        <time>2023-08-23T11:37:18Z</time>
      </trkpt>
      <trkpt lat="58.499503992497921" lon="-4.65809902176261">
        <ele>57.340000000000003</ele>
        <time>2023-08-23T11:37:19Z</time>
      </trkpt>
      <trkpt lat="58.499665008857846" lon="-4.658059040084481">
        <ele>59.740000000000002</ele>
        <time>2023-08-23T11:37:20Z</time>
      </trkpt>
      <trkpt lat="58.499826025217772" lon="-4.657981004565954">
        <ele>61.659999999999997</ele>
        <time>2023-08-23T11:37:21Z</time>
      </trkpt>
      <trkpt lat="58.499987963587046" lon="-4.657826023176312">
        <ele>63.579999999999998</ele>
        <time>2023-08-23T11:37:22Z</time>
      </trkpt>
      <trkpt lat="58.500156020745635" lon="-4.657666012644768">
        <ele>65.989999999999995</ele>
        <time>2023-08-23T11:37:23Z</time>
      </trkpt>
      <trkpt lat="58.501982018351555" lon="-4.65590899810195">
        <ele>87.620000000000005</ele>
        <time>2023-08-23T11:37:33Z</time>
      </trkpt>
      <trkpt lat="58.503018021583557" lon="-4.654881963506341">
        <ele>93.870000000000005</ele>
        <time>2023-08-23T11:37:40Z</time>
      </trkpt>
      <trkpt lat="58.503719000145793" lon="-4.654064979404211">
        <ele>90.5</ele>
        <time>2023-08-23T11:37:46Z</time>
      </trkpt>
      <trkpt lat="58.503812961280346" lon="-4.6538479719311">
        <ele>89.060000000000002</ele>
        <time>2023-08-23T11:37:47Z</time>
      </trkpt>
      <trkpt lat="58.503914969041944" lon="-4.653611015528441">
        <ele>87.620000000000005</ele>
        <time>2023-08-23T11:37:48Z</time>
      </trkpt>
      <trkpt lat="58.503965009003878" lon="-4.653380010277033">
        <ele>86.180000000000007</ele>
        <time>2023-08-23T11:37:49Z</time>
      </trkpt>
      <trkpt lat="58.504018988460302" lon="-4.653128972277045">
        <ele>84.25</ele>
        <time>2023-08-23T11:37:50Z</time>
      </trkpt>
      <trkpt lat="58.504044972360134" lon="-4.652851028367877">
        <ele>82.810000000000002</ele>
        <time>2023-08-23T11:37:51Z</time>
      </trkpt>
      <trkpt lat="58.504062993451953" lon="-4.652575012296438">
        <ele>81.370000000000005</ele>
        <time>2023-08-23T11:37:52Z</time>
      </trkpt>
      <trkpt lat="58.504051007330418" lon="-4.652305031195283">
        <ele>79.450000000000003</ele>
        <time>2023-08-23T11:37:53Z</time>
      </trkpt>
      <trkpt lat="58.504027035087347" lon="-4.652047036215663">
        <ele>78</ele>
        <time>2023-08-23T11:37:54Z</time>
      </trkpt>
      <trkpt lat="58.503979006782174" lon="-4.651798009872437">
        <ele>76.079999999999998</ele>
        <time>2023-08-23T11:37:55Z</time>
      </trkpt>
      <trkpt lat="58.503927038982511" lon="-4.651530962437391">
        <ele>73.680000000000007</ele>
        <time>2023-08-23T11:37:56Z</time>
      </trkpt>
      <trkpt lat="58.503760993480682" lon="-4.650678019970655">
        <ele>67.909999999999997</ele>
        <time>2023-08-23T11:37:59Z</time>
      </trkpt>
      <trkpt lat="58.503746995702386" lon="-4.65038800612092">
        <ele>65.989999999999995</ele>
        <time>2023-08-23T11:38:00Z</time>
      </trkpt>
      <trkpt lat="58.503753030672669" lon="-4.650093968957663">
        <ele>64.069999999999993</ele>
        <time>2023-08-23T11:38:01Z</time>
      </trkpt>
      <trkpt lat="58.503758981823921" lon="-4.649793980643153">
        <ele>62.619999999999997</ele>
        <time>2023-08-23T11:38:02Z</time>
      </trkpt>
      <trkpt lat="58.503765016794205" lon="-4.649494998157024">
        <ele>61.18</ele>
        <time>2023-08-23T11:38:03Z</time>
      </trkpt>
      <trkpt lat="58.503775997087359" lon="-4.64892896823585">
        <ele>58.299999999999997</ele>
        <time>2023-08-23T11:38:05Z</time>
      </trkpt>
      <trkpt lat="58.503781026229262" lon="-4.648680025711656">
        <ele>57.340000000000003</ele>
        <time>2023-08-23T11:38:06Z</time>
      </trkpt>
      <trkpt lat="58.503785971552134" lon="-4.648461006581783">
        <ele>55.890000000000001</ele>
        <time>2023-08-23T11:38:07Z</time>
      </trkpt>
      <trkpt lat="58.503732997924089" lon="-4.648224972188473">
        <ele>54.93</ele>
        <time>2023-08-23T11:38:08Z</time>
      </trkpt>
      <trkpt lat="58.503679018467665" lon="-4.64798198081553">
        <ele>53.490000000000002</ele>
        <time>2023-08-23T11:38:09Z</time>
      </trkpt>
      <trkpt lat="58.503588996827602" lon="-4.647747036069632">
        <ele>51.57</ele>
        <time>2023-08-23T11:38:10Z</time>
      </trkpt>
      <trkpt lat="58.50347600877285" lon="-4.647519970312715">
        <ele>50.130000000000003</ele>
        <time>2023-08-23T11:38:11Z</time>
      </trkpt>
      <trkpt lat="58.503341982141137" lon="-4.647310003638268">
        <ele>48.68</ele>
        <time>2023-08-23T11:38:12Z</time>
      </trkpt>
      <trkpt lat="58.503191024065018" lon="-4.647115962579846">
        <ele>47.240000000000002</ele>
        <time>2023-08-23T11:38:13Z</time>
      </trkpt>
      <trkpt lat="58.501753024756908" lon="-4.645460033789277">
        <ele>38.109999999999999</ele>
        <time>2023-08-23T11:38:22Z</time>
      </trkpt>
      <trkpt lat="58.501621009781957" lon="-4.645242020487785">
        <ele>37.630000000000003</ele>
        <time>2023-08-23T11:38:23Z</time>
      </trkpt>
      <trkpt lat="58.501512967050076" lon="-4.644988970831037">
        <ele>36.670000000000002</ele>
        <time>2023-08-23T11:38:24Z</time>
      </trkpt>
      <trkpt lat="58.501445995643735" lon="-4.644690994173288">
        <ele>36.670000000000002</ele>
        <time>2023-08-23T11:38:25Z</time>
      </trkpt>
      <trkpt lat="58.501382963731885" lon="-4.644406009465456">
        <ele>36.670000000000002</ele>
        <time>2023-08-23T11:38:26Z</time>
      </trkpt>
      <trkpt lat="58.50137198343873" lon="-4.644054975360632">
        <ele>36.670000000000002</ele>
        <time>2023-08-23T11:38:27Z</time>
      </trkpt>
      <trkpt lat="58.501362008973956" lon="-4.643711987882853">
        <ele>36.670000000000002</ele>
        <time>2023-08-23T11:38:28Z</time>
      </trkpt>
      <trkpt lat="58.501396961510181" lon="-4.643376963213086">
        <ele>37.149999999999999</ele>
        <time>2023-08-23T11:38:29Z</time>
      </trkpt>
      <trkpt lat="58.50143501535058" lon="-4.643029030412436">
        <ele>38.109999999999999</ele>
        <time>2023-08-23T11:38:30Z</time>
      </trkpt>
      <trkpt lat="58.501914963126183" lon="-4.638287974521518">
        <ele>54.93</ele>
        <time>2023-08-23T11:38:43Z</time>
      </trkpt>
      <trkpt lat="58.501899959519506" lon="-4.637939035892487">
        <ele>55.890000000000001</ele>
        <time>2023-08-23T11:38:44Z</time>
      </trkpt>
      <trkpt lat="58.501868024468422" lon="-4.637600993737578">
        <ele>56.859999999999999</ele>
        <time>2023-08-23T11:38:45Z</time>
      </trkpt>
      <trkpt lat="58.501812033355236" lon="-4.637279966846108">
        <ele>58.299999999999997</ele>
        <time>2023-08-23T11:38:46Z</time>
      </trkpt>
      <trkpt lat="58.501738021150231" lon="-4.636975033208728">
        <ele>59.259999999999998</ele>
        <time>2023-08-23T11:38:47Z</time>
      </trkpt>
      <trkpt lat="58.501659985631704" lon="-4.63665802963078">
        <ele>60.219999999999999</ele>
        <time>2023-08-23T11:38:48Z</time>
      </trkpt>
      <trkpt lat="58.501214990392327" lon="-4.635105030611157">
        <ele>61.659999999999997</ele>
        <time>2023-08-23T11:38:53Z</time>
      </trkpt>
      <trkpt lat="58.501117005944252" lon="-4.634842006489635">
        <ele>61.659999999999997</ele>
        <time>2023-08-23T11:38:54Z</time>
      </trkpt>
      <trkpt lat="58.500981973484159" lon="-4.6346400026232">
        <ele>61.18</ele>
        <time>2023-08-23T11:38:55Z</time>
      </trkpt>
      <trkpt lat="58.500829003751278" lon="-4.634472029283643">
        <ele>60.219999999999999</ele>
        <time>2023-08-23T11:38:56Z</time>
      </trkpt>
      <trkpt lat="58.500668993219733" lon="-4.63429600931704">
        <ele>59.259999999999998</ele>
        <time>2023-08-23T11:38:57Z</time>
      </trkpt>
      <trkpt lat="58.500490039587021" lon="-4.634199030697346">
        <ele>58.299999999999997</ele>
        <time>2023-08-23T11:38:58Z</time>
      </trkpt>
      <trkpt lat="58.500308990478516" lon="-4.634110014885664">
        <ele>57.340000000000003</ele>
        <time>2023-08-23T11:38:59Z</time>
      </trkpt>
      <trkpt lat="58.500132970511913" lon="-4.634024016559124">
        <ele>55.890000000000001</ele>
        <time>2023-08-23T11:39:00Z</time>
      </trkpt>
      <trkpt lat="58.499650005251169" lon="-4.633734002709389">
        <ele>52.530000000000001</ele>
        <time>2023-08-23T11:39:03Z</time>
      </trkpt>
      <trkpt lat="58.499506004154682" lon="-4.633598970249295">
        <ele>51.57</ele>
        <time>2023-08-23T11:39:04Z</time>
      </trkpt>
      <trkpt lat="58.499383963644505" lon="-4.633400989696384">
        <ele>51.090000000000003</ele>
        <time>2023-08-23T11:39:05Z</time>
      </trkpt>
      <trkpt lat="58.499281033873558" lon="-4.633173001930118">
        <ele>50.609999999999999</ele>
        <time>2023-08-23T11:39:06Z</time>
      </trkpt>
      <trkpt lat="58.499192018061876" lon="-4.632930010557175">
        <ele>50.130000000000003</ele>
        <time>2023-08-23T11:39:07Z</time>
      </trkpt>
      <trkpt lat="58.499133009463549" lon="-4.632660029456019">
        <ele>49.649999999999999</ele>
        <time>2023-08-23T11:39:08Z</time>
      </trkpt>
      <trkpt lat="58.499105013906956" lon="-4.632385019212961">
        <ele>49.159999999999997</ele>
        <time>2023-08-23T11:39:09Z</time>
      </trkpt>
      <trkpt lat="58.499095039442182" lon="-4.632107997313142">
        <ele>48.68</ele>
        <time>2023-08-23T11:39:10Z</time>
      </trkpt>
      <trkpt lat="58.49909302778542" lon="-4.631831981241703">
        <ele>48.200000000000003</ele>
        <time>2023-08-23T11:39:11Z</time>
      </trkpt>
      <trkpt lat="58.499129991978407" lon="-4.631573986262083">
        <ele>47.240000000000002</ele>
        <time>2023-08-23T11:39:12Z</time>
      </trkpt>
      <trkpt lat="58.499208027496934" lon="-4.631304005160928">
        <ele>46.759999999999998</ele>
        <time>2023-08-23T11:39:13Z</time>
      </trkpt>
      <trkpt lat="58.499281033873558" lon="-4.631056990474463">
        <ele>46.280000000000001</ele>
        <time>2023-08-23T11:39:14Z</time>
      </trkpt>
      <trkpt lat="58.499391004443169" lon="-4.630847023800015">
        <ele>44.840000000000003</ele>
        <time>2023-08-23T11:39:15Z</time>
      </trkpt>
      <trkpt lat="58.499507009983063" lon="-4.630624987185001">
        <ele>43.880000000000003</ele>
        <time>2023-08-23T11:39:16Z</time>
      </trkpt>
      <trkpt lat="58.501031007617712" lon="-4.628415014594793">
        <ele>32.340000000000003</ele>
        <time>2023-08-23T11:39:26Z</time>
      </trkpt>
      <trkpt lat="58.503219019621611" lon="-4.625327959656715">
        <ele>24.170000000000002</ele>
        <time>2023-08-23T11:39:40Z</time>
      </trkpt>
      <trkpt lat="58.503828970715404" lon="-4.624665034934878">
        <ele>24.170000000000002</ele>
        <time>2023-08-23T11:39:44Z</time>
      </trkpt>
      <trkpt lat="58.503950005397201" lon="-4.624493960291147">
        <ele>24.170000000000002</ele>
        <time>2023-08-23T11:39:45Z</time>
      </trkpt>
      <trkpt lat="58.504065005108714" lon="-4.624330010265112">
        <ele>23.690000000000001</ele>
        <time>2023-08-23T11:39:46Z</time>
      </trkpt>
      <trkpt lat="58.504145974293351" lon="-4.624114008620381">
        <ele>22.73</ele>
        <time>2023-08-23T11:39:47Z</time>
      </trkpt>
      <trkpt lat="58.504218980669975" lon="-4.623886020854116">
        <ele>22.25</ele>
        <time>2023-08-23T11:39:48Z</time>
      </trkpt>
      <trkpt lat="58.504277989268303" lon="-4.623641017824411">
        <ele>21.289999999999999</ele>
        <time>2023-08-23T11:39:49Z</time>
      </trkpt>
      <trkpt lat="58.504320988431573" lon="-4.623386040329933">
        <ele>20.32</ele>
        <time>2023-08-23T11:39:50Z</time>
      </trkpt>
      <trkpt lat="58.504340015351772" lon="-4.623124022036791">
        <ele>19.359999999999999</ele>
        <time>2023-08-23T11:39:51Z</time>
      </trkpt>
      <trkpt lat="58.504332974553108" lon="-4.622870972380042">
        <ele>18.399999999999999</ele>
        <time>2023-08-23T11:39:52Z</time>
      </trkpt>
      <trkpt lat="58.504326017573476" lon="-4.62262898683548">
        <ele>17.440000000000001</ele>
        <time>2023-08-23T11:39:53Z</time>
      </trkpt>
      <trkpt lat="58.504303973168135" lon="-4.622422037646174">
        <ele>16.48</ele>
        <time>2023-08-23T11:39:54Z</time>
      </trkpt>
      <trkpt lat="58.504266003146768" lon="-4.622225984930992">
        <ele>15.039999999999999</ele>
        <time>2023-08-23T11:39:55Z</time>
      </trkpt>
      <trkpt lat="58.504224009811878" lon="-4.622038984671235">
        <ele>14.08</ele>
        <time>2023-08-23T11:39:56Z</time>
      </trkpt>
      <trkpt lat="58.504157038405538" lon="-4.621872017160058">
        <ele>12.630000000000001</ele>
        <time>2023-08-23T11:39:57Z</time>
      </trkpt>
      <trkpt lat="58.503811033442616" lon="-4.621116975322366">
        <ele>9.75</ele>
        <time>2023-08-23T11:40:02Z</time>
      </trkpt>
      <trkpt lat="58.503712965175509" lon="-4.62103801779449">
        <ele>9.75</ele>
        <time>2023-08-23T11:40:03Z</time>
      </trkpt>
      <trkpt lat="58.503636019304395" lon="-4.620973980054259">
        <ele>9.27</ele>
        <time>2023-08-23T11:40:04Z</time>
      </trkpt>
      <trkpt lat="58.503507021814585" lon="-4.621003987267613">
        <ele>9.27</ele>
        <time>2023-08-23T11:40:05Z</time>
      </trkpt>
      <trkpt lat="58.503409037366509" lon="-4.621026031672955">
        <ele>9.27</ele>
        <time>2023-08-23T11:40:06Z</time>
      </trkpt>
      <trkpt lat="58.503328990191221" lon="-4.621066013351083">
        <ele>9.27</ele>
        <time>2023-08-23T11:40:07Z</time>
      </trkpt>
      <trkpt lat="58.503260007128119" lon="-4.621134996414185">
        <ele>9.27</ele>
        <time>2023-08-23T11:40:08Z</time>
      </trkpt>
      <trkpt lat="58.503195969387889" lon="-4.621199034154415">
        <ele>8.789999999999999</ele>
        <time>2023-08-23T11:40:09Z</time>
      </trkpt>
      <trkpt lat="58.503064038231969" lon="-4.621330965310335">
        <ele>8.789999999999999</ele>
        <time>2023-08-23T11:40:11Z</time>
      </trkpt>
      <trkpt lat="58.502994971349835" lon="-4.621400032192469">
        <ele>8.789999999999999</ele>
        <time>2023-08-23T11:40:12Z</time>
      </trkpt>
      <trkpt lat="58.502930011600256" lon="-4.621464991942048">
        <ele>8.310000000000001</ele>
        <time>2023-08-23T11:40:13Z</time>
      </trkpt>
      <trkpt lat="58.502863040193915" lon="-4.62151100859046">
        <ele>8.310000000000001</ele>
        <time>2023-08-23T11:40:14Z</time>
      </trkpt>
      <trkpt lat="58.502796990796924" lon="-4.62151100859046">
        <ele>7.83</ele>
        <time>2023-08-23T11:40:15Z</time>
      </trkpt>
      <trkpt lat="58.502732031047344" lon="-4.62151100859046">
        <ele>7.83</ele>
        <time>2023-08-23T11:40:16Z</time>
      </trkpt>
      <trkpt lat="58.502668999135494" lon="-4.621489970013499">
        <ele>7.83</ele>
        <time>2023-08-23T11:40:17Z</time>
      </trkpt>
      <trkpt lat="58.502607978880405" lon="-4.621434984728694">
        <ele>7.83</ele>
        <time>2023-08-23T11:40:18Z</time>
      </trkpt>
      <trkpt lat="58.502540001645684" lon="-4.621372958645225">
        <ele>7.83</ele>
        <time>2023-08-23T11:40:19Z</time>
      </trkpt>
      <trkpt lat="58.502469006925821" lon="-4.621307998895645">
        <ele>7.83</ele>
        <time>2023-08-23T11:40:20Z</time>
      </trkpt>
      <trkpt lat="58.501774985343218" lon="-4.620294962078333">
        <ele>15.039999999999999</ele>
        <time>2023-08-23T11:40:29Z</time>
      </trkpt>
      <trkpt lat="58.501710025593638" lon="-4.620160013437271">
        <ele>16</ele>
        <time>2023-08-23T11:40:30Z</time>
      </trkpt>
      <trkpt lat="58.501683035865426" lon="-4.620050964877009">
        <ele>17.440000000000001</ele>
        <time>2023-08-23T11:40:31Z</time>
      </trkpt>
      <trkpt lat="58.50167297758162" lon="-4.619861030951142">
        <ele>18.399999999999999</ele>
        <time>2023-08-23T11:40:32Z</time>
      </trkpt>
      <trkpt lat="58.501665014773607" lon="-4.619705965742469">
        <ele>19.359999999999999</ele>
        <time>2023-08-23T11:40:33Z</time>
      </trkpt>
      <trkpt lat="58.501685969531536" lon="-4.619546039029956">
        <ele>20.809999999999999</ele>
        <time>2023-08-23T11:40:34Z</time>
      </trkpt>
      <trkpt lat="58.501718994230032" lon="-4.619412012398243">
        <ele>22.25</ele>
        <time>2023-08-23T11:40:35Z</time>
      </trkpt>
      <trkpt lat="58.501746989786625" lon="-4.619300030171871">
        <ele>23.690000000000001</ele>
        <time>2023-08-23T11:40:36Z</time>
      </trkpt>
      <trkpt lat="58.501804992556572" lon="-4.619214031845331">
        <ele>25.129999999999999</ele>
        <time>2023-08-23T11:40:37Z</time>
      </trkpt>
      <trkpt lat="58.501875987276435" lon="-4.619106994941831">
        <ele>26.09</ele>
        <time>2023-08-23T11:40:38Z</time>
      </trkpt>
      <trkpt lat="58.501924015581608" lon="-4.619092997163534">
        <ele>27.530000000000001</ele>
        <time>2023-08-23T11:40:39Z</time>
      </trkpt>
      <trkpt lat="58.501986041665077" lon="-4.619074976071715">
        <ele>28.5</ele>
        <time>2023-08-23T11:40:40Z</time>
      </trkpt>
      <trkpt lat="58.502140017226338" lon="-4.619047986343503">
        <ele>30.899999999999999</ele>
        <time>2023-08-23T11:40:43Z</time>
      </trkpt>
      <trkpt lat="58.502173963934183" lon="-4.619051003828645">
        <ele>31.379999999999999</ele>
        <time>2023-08-23T11:40:44Z</time>
      </trkpt>
      <trkpt lat="58.502173963934183" lon="-4.619051003828645">
        <ele>34.259999999999998</ele>
        <time>2023-08-23T11:40:54Z</time>
      </trkpt>
      <trkpt lat="58.502200031653047" lon="-4.619053015485406">
        <ele>37.149999999999999</ele>
        <time>2023-08-23T11:41:07Z</time>
      </trkpt>
      <trkpt lat="58.502200031653047" lon="-4.619053015485406">
        <ele>37.630000000000003</ele>
        <time>2023-08-23T11:41:50Z</time>
      </trkpt>
      <trkpt lat="58.502284018322825" lon="-4.619060978293419">
        <ele>37.149999999999999</ele>
        <time>2023-08-23T11:41:59Z</time>
      </trkpt>
      <trkpt lat="58.50233799777925" lon="-4.619066007435322">
        <ele>37.149999999999999</ele>
        <time>2023-08-23T11:42:00Z</time>
      </trkpt>
      <trkpt lat="58.502398012205958" lon="-4.619071958586574">
        <ele>36.670000000000002</ele>
        <time>2023-08-23T11:42:01Z</time>
      </trkpt>
      <trkpt lat="58.502451991662383" lon="-4.619076987728477">
        <ele>36.189999999999998</ele>
        <time>2023-08-23T11:42:02Z</time>
      </trkpt>
      <trkpt lat="58.502484010532498" lon="-4.619080005213618">
        <ele>35.710000000000001</ele>
        <time>2023-08-23T11:42:03Z</time>
      </trkpt>
      <trkpt lat="58.502503037452698" lon="-4.618895016610622">
        <ele>35.229999999999997</ele>
        <time>2023-08-23T11:42:04Z</time>
      </trkpt>
      <trkpt lat="58.502489039674401" lon="-4.618822010233998">
        <ele>34.740000000000002</ele>
        <time>2023-08-23T11:42:05Z</time>
      </trkpt>
      <trkpt lat="58.502437993884087" lon="-4.618735006079078">
        <ele>34.740000000000002</ele>
        <time>2023-08-23T11:42:06Z</time>
      </trkpt>
      <trkpt lat="58.502390971407294" lon="-4.618699969723821">
        <ele>34.740000000000002</ele>
        <time>2023-08-23T11:42:07Z</time>
      </trkpt>
      <trkpt lat="58.502327017486095" lon="-4.618715979158878">
        <ele>34.259999999999998</ele>
        <time>2023-08-23T11:42:08Z</time>
      </trkpt>
      <trkpt lat="58.502273038029671" lon="-4.618729976937175">
        <ele>33.299999999999997</ele>
        <time>2023-08-23T11:42:09Z</time>
      </trkpt>
      <trkpt lat="58.502216963097453" lon="-4.618743974715471">
        <ele>33.299999999999997</ele>
        <time>2023-08-23T11:42:10Z</time>
      </trkpt>
      <trkpt lat="58.501640958711505" lon="-4.618893004953861">
        <ele>29.460000000000001</ele>
        <time>2023-08-23T11:42:22Z</time>
      </trkpt>
      <trkpt lat="58.501555966213346" lon="-4.61891395971179">
        <ele>28.98</ele>
        <time>2023-08-23T11:42:24Z</time>
      </trkpt>
      <trkpt lat="58.501509027555585" lon="-4.618926029652357">
        <ele>28.98</ele>
        <time>2023-08-23T11:42:25Z</time>
      </trkpt>
      <trkpt lat="58.50145697593689" lon="-4.618940027430654">
        <ele>28.98</ele>
        <time>2023-08-23T11:42:26Z</time>
      </trkpt>
      <trkpt lat="58.500903015956283" lon="-4.619082016870379">
        <ele>28.02</ele>
        <time>2023-08-23T11:42:35Z</time>
      </trkpt>
      <trkpt lat="58.500846019014716" lon="-4.619077993556857">
        <ele>28.02</ele>
        <time>2023-08-23T11:42:36Z</time>
      </trkpt>
      <trkpt lat="58.500174963846803" lon="-4.618679014965892">
        <ele>28.02</ele>
        <time>2023-08-23T11:42:45Z</time>
      </trkpt>
      <trkpt lat="58.499202998355031" lon="-4.617780977860093">
        <ele>30.899999999999999</ele>
        <time>2023-08-23T11:42:55Z</time>
      </trkpt>
      <trkpt lat="58.499105013906956" lon="-4.617750970646739">
        <ele>31.859999999999999</ele>
        <time>2023-08-23T11:42:56Z</time>
      </trkpt>
      <trkpt lat="58.497669026255608" lon="-4.617462968453765">
        <ele>30.899999999999999</ele>
        <time>2023-08-23T11:43:09Z</time>
      </trkpt>
      <trkpt lat="58.497334001585841" lon="-4.617578973993659">
        <ele>28.98</ele>
        <time>2023-08-23T11:43:12Z</time>
      </trkpt>
      <trkpt lat="58.497226964682341" lon="-4.617654997855425">
        <ele>28.5</ele>
        <time>2023-08-23T11:43:13Z</time>
      </trkpt>
      <trkpt lat="58.496904009953141" lon="-4.617820037528873">
        <ele>26.57</ele>
        <time>2023-08-23T11:43:16Z</time>
      </trkpt>
      <trkpt lat="58.496800996363163" lon="-4.61783797480166">
        <ele>26.57</ele>
        <time>2023-08-23T11:43:17Z</time>
      </trkpt>
      <trkpt lat="58.496704017743468" lon="-4.617854990065098">
        <ele>26.57</ele>
        <time>2023-08-23T11:43:18Z</time>
      </trkpt>
      <trkpt lat="58.496607961133122" lon="-4.617829006165266">
        <ele>26.57</ele>
        <time>2023-08-23T11:43:19Z</time>
      </trkpt>
      <trkpt lat="58.496518023312092" lon="-4.61777301505208">
        <ele>27.050000000000001</ele>
        <time>2023-08-23T11:43:20Z</time>
      </trkpt>
      <trkpt lat="58.496454991400242" lon="-4.617683999240398">
        <ele>27.050000000000001</ele>
        <time>2023-08-23T11:43:21Z</time>
      </trkpt>
      <trkpt lat="58.496400006115437" lon="-4.617576040327549">
        <ele>27.050000000000001</ele>
        <time>2023-08-23T11:43:22Z</time>
      </trkpt>
      <trkpt lat="58.496345020830631" lon="-4.617463974282146">
        <ele>27.050000000000001</ele>
        <time>2023-08-23T11:43:23Z</time>
      </trkpt>
      <trkpt lat="58.496296992525458" lon="-4.617369007319212">
        <ele>27.050000000000001</ele>
        <time>2023-08-23T11:43:24Z</time>
      </trkpt>
      <trkpt lat="58.496215017512441" lon="-4.617307987064123">
        <ele>27.050000000000001</ele>
        <time>2023-08-23T11:43:25Z</time>
      </trkpt>
      <trkpt lat="58.496124995872378" lon="-4.617240009829402">
        <ele>27.050000000000001</ele>
        <time>2023-08-23T11:43:26Z</time>
      </trkpt>
      <trkpt lat="58.496059030294418" lon="-4.617320979014039">
        <ele>27.050000000000001</ele>
        <time>2023-08-23T11:43:27Z</time>
      </trkpt>
      <trkpt lat="58.495980994775891" lon="-4.617414018139243">
        <ele>27.050000000000001</ele>
        <time>2023-08-23T11:43:28Z</time>
      </trkpt>
      <trkpt lat="58.495911005884409" lon="-4.617498004809022">
        <ele>27.050000000000001</ele>
        <time>2023-08-23T11:43:29Z</time>
      </trkpt>
      <trkpt lat="58.495802041143179" lon="-4.617533963173628">
        <ele>27.050000000000001</ele>
        <time>2023-08-23T11:43:30Z</time>
      </trkpt>
      <trkpt lat="58.495710007846355" lon="-4.617564976215363">
        <ele>27.050000000000001</ele>
        <time>2023-08-23T11:43:31Z</time>
      </trkpt>
      <trkpt lat="58.495610011741519" lon="-4.61757997982204">
        <ele>27.050000000000001</ele>
        <time>2023-08-23T11:43:32Z</time>
      </trkpt>
      <trkpt lat="58.49550599232316" lon="-4.617572017014027">
        <ele>27.050000000000001</ele>
        <time>2023-08-23T11:43:33Z</time>
      </trkpt>
      <trkpt lat="58.495398033410311" lon="-4.617562964558601">
        <ele>27.050000000000001</ele>
        <time>2023-08-23T11:43:34Z</time>
      </trkpt>
      <trkpt lat="58.494111998006701" lon="-4.617159040644765">
        <ele>27.530000000000001</ele>
        <time>2023-08-23T11:43:46Z</time>
      </trkpt>
      <trkpt lat="58.49294900894165" lon="-4.616436017677188">
        <ele>29.460000000000001</ele>
        <time>2023-08-23T11:43:57Z</time>
      </trkpt>
      <trkpt lat="58.492852030321956" lon="-4.616344990208745">
        <ele>28.98</ele>
        <time>2023-08-23T11:43:58Z</time>
      </trkpt>
      <trkpt lat="58.492778018116951" lon="-4.616275001317263">
        <ele>28.02</ele>
        <time>2023-08-23T11:43:59Z</time>
      </trkpt>
      <trkpt lat="58.492661006748676" lon="-4.616253962740302">
        <ele>28.02</ele>
        <time>2023-08-23T11:44:00Z</time>
      </trkpt>
      <trkpt lat="58.492578025907278" lon="-4.616238959133625">
        <ele>27.530000000000001</ele>
        <time>2023-08-23T11:44:01Z</time>
      </trkpt>
      <trkpt lat="58.492500996217132" lon="-4.616265026852489">
        <ele>27.050000000000001</ele>
        <time>2023-08-23T11:44:02Z</time>
      </trkpt>
      <trkpt lat="58.492422960698605" lon="-4.616328980773687">
        <ele>27.050000000000001</ele>
        <time>2023-08-23T11:44:03Z</time>
      </trkpt>
      <trkpt lat="58.492342997342348" lon="-4.616394024342299">
        <ele>26.57</ele>
        <time>2023-08-23T11:44:04Z</time>
      </trkpt>
      <trkpt lat="58.491502040997148" lon="-4.616858968511224">
        <ele>24.170000000000002</ele>
        <time>2023-08-23T11:44:13Z</time>
      </trkpt>
      <trkpt lat="58.489953987300396" lon="-4.617045968770981">
        <ele>23.690000000000001</ele>
        <time>2023-08-23T11:44:28Z</time>
      </trkpt>
      <trkpt lat="58.488346002995968" lon="-4.617458023130894">
        <ele>27.530000000000001</ele>
        <time>2023-08-23T11:44:44Z</time>
      </trkpt>
      <trkpt lat="58.487452995032072" lon="-4.617242021486163">
        <ele>27.530000000000001</ele>
        <time>2023-08-23T11:44:53Z</time>
      </trkpt>
      <trkpt lat="58.486604997888207" lon="-4.6168929990381">
        <ele>27.050000000000001</ele>
        <time>2023-08-23T11:45:01Z</time>
      </trkpt>
      <trkpt lat="58.486493015661836" lon="-4.616857040673494">
        <ele>26.57</ele>
        <time>2023-08-23T11:45:02Z</time>
      </trkpt>
      <trkpt lat="58.486376004293561" lon="-4.61687196046114">
        <ele>26.09</ele>
        <time>2023-08-23T11:45:03Z</time>
      </trkpt>
      <trkpt lat="58.484944961965084" lon="-4.617057032883167">
        <ele>24.649999999999999</ele>
        <time>2023-08-23T11:45:16Z</time>
      </trkpt>
      <trkpt lat="58.483669990673661" lon="-4.616944966837764">
        <ele>21.77</ele>
        <time>2023-08-23T11:45:27Z</time>
      </trkpt>
      <trkpt lat="58.482036022469401" lon="-4.616712033748627">
        <ele>19.359999999999999</ele>
        <time>2023-08-23T11:45:41Z</time>
      </trkpt>
      <trkpt lat="58.481965027749538" lon="-4.616672974079847">
        <ele>19.84</ele>
        <time>2023-08-23T11:45:42Z</time>
      </trkpt>
      <trkpt lat="58.481908030807972" lon="-4.616582030430436">
        <ele>20.32</ele>
        <time>2023-08-23T11:45:43Z</time>
      </trkpt>
      <trkpt lat="58.481852961704135" lon="-4.616473987698555">
        <ele>20.32</ele>
        <time>2023-08-23T11:45:44Z</time>
      </trkpt>
      <trkpt lat="58.481800993904471" lon="-4.616344990208745">
        <ele>20.809999999999999</ele>
        <time>2023-08-23T11:45:45Z</time>
      </trkpt>
      <trkpt lat="58.481743996962905" lon="-4.616208029910922">
        <ele>20.32</ele>
        <time>2023-08-23T11:45:46Z</time>
      </trkpt>
      <trkpt lat="58.481630003079772" lon="-4.615932013839483">
        <ele>19.84</ele>
        <time>2023-08-23T11:45:48Z</time>
      </trkpt>
      <trkpt lat="58.481579963117838" lon="-4.615810979157686">
        <ele>19.359999999999999</ele>
        <time>2023-08-23T11:45:49Z</time>
      </trkpt>
      <trkpt lat="58.481515003368258" lon="-4.615740990266204">
        <ele>18.879999999999999</ele>
        <time>2023-08-23T11:45:50Z</time>
      </trkpt>
      <trkpt lat="58.481457000598311" lon="-4.615682987496257">
        <ele>18.879999999999999</ele>
        <time>2023-08-23T11:45:51Z</time>
      </trkpt>
      <trkpt lat="58.481400003656745" lon="-4.615721963346005">
        <ele>18.399999999999999</ele>
        <time>2023-08-23T11:45:52Z</time>
      </trkpt>
      <trkpt lat="58.481340995058417" lon="-4.615780971944332">
        <ele>18.399999999999999</ele>
        <time>2023-08-23T11:45:53Z</time>
      </trkpt>
      <trkpt lat="58.48130302503705" lon="-4.615854984149337">
        <ele>17.920000000000002</ele>
        <time>2023-08-23T11:45:54Z</time>
      </trkpt>
      <trkpt lat="58.481252985075116" lon="-4.615951962769032">
        <ele>17.440000000000001</ele>
        <time>2023-08-23T11:45:55Z</time>
      </trkpt>
      <trkpt lat="58.480604980140924" lon="-4.617208996787667">
        <ele>14.08</ele>
        <time>2023-08-23T11:46:04Z</time>
      </trkpt>
      <trkpt lat="58.480053031817079" lon="-4.618082977831364">
        <ele>9.75</ele>
        <time>2023-08-23T11:46:11Z</time>
      </trkpt>
      <trkpt lat="58.479911964386702" lon="-4.618143998086453">
        <ele>8.310000000000001</ele>
        <time>2023-08-23T11:46:13Z</time>
      </trkpt>
      <trkpt lat="58.479839041829109" lon="-4.618176016956568">
        <ele>7.83</ele>
        <time>2023-08-23T11:46:14Z</time>
      </trkpt>
      <trkpt lat="58.47896103747189" lon="-4.618256986141205">
        <ele>3.5</ele>
        <time>2023-08-23T11:46:24Z</time>
      </trkpt>
      <trkpt lat="58.477567965164781" lon="-4.61817903444171">
        <ele>-1.79</ele>
        <time>2023-08-23T11:46:38Z</time>
      </trkpt>
      <trkpt lat="58.476003985852003" lon="-4.618090018630028">
        <ele>1.1</ele>
        <time>2023-08-23T11:46:52Z</time>
      </trkpt>
      <trkpt lat="58.473915969952941" lon="-4.617972001433373">
        <ele>6.87</ele>
        <time>2023-08-23T11:47:11Z</time>
      </trkpt>
      <trkpt lat="58.472326006740332" lon="-4.61788197979331">
        <ele>8.789999999999999</ele>
        <time>2023-08-23T11:47:24Z</time>
      </trkpt>
      <trkpt lat="58.471484966576099" lon="-4.617888014763594">
        <ele>8.789999999999999</ele>
        <time>2023-08-23T11:47:31Z</time>
      </trkpt>
      <trkpt lat="58.471372984349728" lon="-4.617935037240386">
        <ele>8.789999999999999</ele>
        <time>2023-08-23T11:47:32Z</time>
      </trkpt>
      <trkpt lat="58.471257984638214" lon="-4.617981975898147">
        <ele>9.27</ele>
        <time>2023-08-23T11:47:33Z</time>
      </trkpt>
      <trkpt lat="58.471154971048236" lon="-4.618093958124518">
        <ele>9.27</ele>
        <time>2023-08-23T11:47:34Z</time>
      </trkpt>
      <trkpt lat="58.471053969115019" lon="-4.618223961442709">
        <ele>9.75</ele>
        <time>2023-08-23T11:47:35Z</time>
      </trkpt>
      <trkpt lat="58.470954978838563" lon="-4.61835103109479">
        <ele>9.75</ele>
        <time>2023-08-23T11:47:36Z</time>
      </trkpt>
      <trkpt lat="58.470858000218868" lon="-4.618476005271077">
        <ele>10.23</ele>
        <time>2023-08-23T11:47:37Z</time>
      </trkpt>
      <trkpt lat="58.470059037208557" lon="-4.619259964674711">
        <ele>13.6</ele>
        <time>2023-08-23T11:47:45Z</time>
      </trkpt>
      <trkpt lat="58.468871992081404" lon="-4.619630025699735">
        <ele>16</ele>
        <time>2023-08-23T11:47:55Z</time>
      </trkpt>
      <trkpt lat="58.468752969056368" lon="-4.619640000164509">
        <ele>16</ele>
        <time>2023-08-23T11:47:56Z</time>
      </trkpt>
      <trkpt lat="58.468632018193603" lon="-4.619604041799903">
        <ele>16</ele>
        <time>2023-08-23T11:47:57Z</time>
      </trkpt>
      <trkpt lat="58.467051023617387" lon="-4.618925023823977">
        <ele>20.809999999999999</ele>
        <time>2023-08-23T11:48:10Z</time>
      </trkpt>
      <trkpt lat="58.466829992830753" lon="-4.618875989690423">
        <ele>21.289999999999999</ele>
        <time>2023-08-23T11:48:12Z</time>
      </trkpt>
      <trkpt lat="58.466718010604382" lon="-4.618891999125481">
        <ele>21.77</ele>
        <time>2023-08-23T11:48:13Z</time>
      </trkpt>
      <trkpt lat="58.465424012392759" lon="-4.619252001866698">
        <ele>24.649999999999999</ele>
        <time>2023-08-23T11:48:23Z</time>
      </trkpt>
      <trkpt lat="58.463605977594852" lon="-4.619647040963173">
        <ele>23.210000000000001</ele>
        <time>2023-08-23T11:48:37Z</time>
      </trkpt>
      <trkpt lat="58.462462015450001" lon="-4.619780983775854">
        <ele>26.09</ele>
        <time>2023-08-23T11:48:47Z</time>
      </trkpt>
      <trkpt lat="58.461316041648388" lon="-4.620259003713727">
        <ele>31.379999999999999</ele>
        <time>2023-08-23T11:48:58Z</time>
      </trkpt>
      <trkpt lat="58.461238006129861" lon="-4.620211981236935">
        <ele>31.859999999999999</ele>
        <time>2023-08-23T11:48:59Z</time>
      </trkpt>
      <trkpt lat="58.461163993924856" lon="-4.620148027315736">
        <ele>32.340000000000003</ele>
        <time>2023-08-23T11:49:00Z</time>
      </trkpt>
      <trkpt lat="58.46099903807044" lon="-4.62000603787601">
        <ele>32.82</ele>
        <time>2023-08-23T11:49:02Z</time>
      </trkpt>
      <trkpt lat="58.460913961753249" lon="-4.619933031499386">
        <ele>33.299999999999997</ele>
        <time>2023-08-23T11:49:03Z</time>
      </trkpt>
      <trkpt lat="58.460386991500854" lon="-4.619546039029956">
        <ele>36.670000000000002</ele>
        <time>2023-08-23T11:49:09Z</time>
      </trkpt>
      <trkpt lat="58.460205020383" lon="-4.619494993239641">
        <ele>38.109999999999999</ele>
        <time>2023-08-23T11:49:11Z</time>
      </trkpt>
      <trkpt lat="58.460120027884841" lon="-4.619471020996571">
        <ele>39.07</ele>
        <time>2023-08-23T11:49:12Z</time>
      </trkpt>
      <trkpt lat="58.46003201790154" lon="-4.619446964934468">
        <ele>40.030000000000001</ele>
        <time>2023-08-23T11:49:13Z</time>
      </trkpt>
      <trkpt lat="58.459940990433097" lon="-4.619412012398243">
        <ele>40.509999999999998</ele>
        <time>2023-08-23T11:49:14Z</time>
      </trkpt>
      <trkpt lat="58.459854992106557" lon="-4.619359960779548">
        <ele>40.990000000000002</ele>
        <time>2023-08-23T11:49:15Z</time>
      </trkpt>
      <trkpt lat="58.459437992423773" lon="-4.619131973013282">
        <ele>42.920000000000002</ele>
        <time>2023-08-23T11:49:20Z</time>
      </trkpt>
      <trkpt lat="58.459355011582375" lon="-4.619140019640327">
        <ele>42.920000000000002</ele>
        <time>2023-08-23T11:49:21Z</time>
      </trkpt>
      <trkpt lat="58.459269013255835" lon="-4.619146976619959">
        <ele>42.920000000000002</ele>
        <time>2023-08-23T11:49:22Z</time>
      </trkpt>
      <trkpt lat="58.459185026586056" lon="-4.61919198743999">
        <ele>43.399999999999999</ele>
        <time>2023-08-23T11:49:23Z</time>
      </trkpt>
      <trkpt lat="58.459096010774374" lon="-4.619259964674711">
        <ele>42.920000000000002</ele>
        <time>2023-08-23T11:49:24Z</time>
      </trkpt>
      <trkpt lat="58.45900297164917" lon="-4.619330037385225">
        <ele>42.920000000000002</ele>
        <time>2023-08-23T11:49:25Z</time>
      </trkpt>
      <trkpt lat="58.458915967494249" lon="-4.619396002963185">
        <ele>42.920000000000002</ele>
        <time>2023-08-23T11:49:26Z</time>
      </trkpt>
      <trkpt lat="58.458836004137993" lon="-4.619458029046655">
        <ele>42.439999999999998</ele>
        <time>2023-08-23T11:49:27Z</time>
      </trkpt>
      <trkpt lat="58.458753023296595" lon="-4.619493987411261">
        <ele>42.439999999999998</ele>
        <time>2023-08-23T11:49:28Z</time>
      </trkpt>
      <trkpt lat="58.458669958636165" lon="-4.619493987411261">
        <ele>41.950000000000003</ele>
        <time>2023-08-23T11:49:29Z</time>
      </trkpt>
      <trkpt lat="58.458398971706629" lon="-4.619533969089389">
        <ele>40.990000000000002</ele>
        <time>2023-08-23T11:49:32Z</time>
      </trkpt>
      <trkpt lat="58.458302998915315" lon="-4.619563976302743">
        <ele>40.990000000000002</ele>
        <time>2023-08-23T11:49:33Z</time>
      </trkpt>
      <trkpt lat="58.457940984517336" lon="-4.619649974629283">
        <ele>40.990000000000002</ele>
        <time>2023-08-23T11:49:37Z</time>
      </trkpt>
      <trkpt lat="58.457863032817841" lon="-4.619613010436297">
        <ele>40.990000000000002</ele>
        <time>2023-08-23T11:49:38Z</time>
      </trkpt>
      <trkpt lat="58.457780973985791" lon="-4.619575040414929">
        <ele>40.990000000000002</ele>
        <time>2023-08-23T11:49:39Z</time>
      </trkpt>
      <trkpt lat="58.457274036481977" lon="-4.619338000193238">
        <ele>40.030000000000001</ele>
        <time>2023-08-23T11:49:45Z</time>
      </trkpt>
      <trkpt lat="58.457188038155437" lon="-4.619297012686729">
        <ele>39.549999999999997</ele>
        <time>2023-08-23T11:49:46Z</time>
      </trkpt>
      <trkpt lat="58.456882014870644" lon="-4.619211014360189">
        <ele>38.109999999999999</ele>
        <time>2023-08-23T11:49:50Z</time>
      </trkpt>
      <trkpt lat="58.4568100143224" lon="-4.619227023795247">
        <ele>37.630000000000003</ele>
        <time>2023-08-23T11:49:51Z</time>
      </trkpt>
      <trkpt lat="58.456585966050625" lon="-4.619275974109769">
        <ele>37.630000000000003</ele>
        <time>2023-08-23T11:49:54Z</time>
      </trkpt>
      <trkpt lat="58.456512959674001" lon="-4.619290977716446">
        <ele>37.630000000000003</ele>
        <time>2023-08-23T11:49:55Z</time>
      </trkpt>
      <trkpt lat="58.456435007974505" lon="-4.619285026565194">
        <ele>37.630000000000003</ele>
        <time>2023-08-23T11:49:56Z</time>
      </trkpt>
      <trkpt lat="58.456362001597881" lon="-4.619253007695079">
        <ele>37.149999999999999</ele>
        <time>2023-08-23T11:49:57Z</time>
      </trkpt>
      <trkpt lat="58.456284971907735" lon="-4.619220988824964">
        <ele>37.149999999999999</ele>
        <time>2023-08-23T11:49:58Z</time>
      </trkpt>
      <trkpt lat="58.456040974706411" lon="-4.619115963578224">
        <ele>36.189999999999998</ele>
        <time>2023-08-23T11:50:01Z</time>
      </trkpt>
      <trkpt lat="58.455073032528162" lon="-4.619164997711778">
        <ele>38.109999999999999</ele>
        <time>2023-08-23T11:50:11Z</time>
      </trkpt>
      <trkpt lat="58.45401699654758" lon="-4.619523994624615">
        <ele>36.670000000000002</ele>
        <time>2023-08-23T11:50:21Z</time>
      </trkpt>
      <trkpt lat="58.453861009329557" lon="-4.619618039578199">
        <ele>35.710000000000001</ele>
        <time>2023-08-23T11:50:23Z</time>
      </trkpt>
      <trkpt lat="58.453796971589327" lon="-4.619686016812921">
        <ele>35.229999999999997</ele>
        <time>2023-08-23T11:50:24Z</time>
      </trkpt>
      <trkpt lat="58.453725976869464" lon="-4.619762040674686">
        <ele>34.740000000000002</ele>
        <time>2023-08-23T11:50:25Z</time>
      </trkpt>
      <trkpt lat="58.453642996028066" lon="-4.619848961010575">
        <ele>34.259999999999998</ele>
        <time>2023-08-23T11:50:26Z</time>
      </trkpt>
      <trkpt lat="58.453556997701526" lon="-4.619940994307399">
        <ele>33.780000000000001</ele>
        <time>2023-08-23T11:50:27Z</time>
      </trkpt>
      <trkpt lat="58.452703971415758" lon="-4.620843976736069">
        <ele>31.379999999999999</ele>
        <time>2023-08-23T11:50:36Z</time>
      </trkpt>
      <trkpt lat="58.451806018128991" lon="-4.62159801274538">
        <ele>29.460000000000001</ele>
        <time>2023-08-23T11:50:47Z</time>
      </trkpt>
      <trkpt lat="58.451580964028835" lon="-4.621740002185106">
        <ele>28.98</ele>
        <time>2023-08-23T11:50:50Z</time>
      </trkpt>
      <trkpt lat="58.451508041471243" lon="-4.621827006340027">
        <ele>28.98</ele>
        <time>2023-08-23T11:50:51Z</time>
      </trkpt>
      <trkpt lat="58.451452972367406" lon="-4.621946029365063">
        <ele>28.5</ele>
        <time>2023-08-23T11:50:52Z</time>
      </trkpt>
      <trkpt lat="58.451393041759729" lon="-4.622072009369731">
        <ele>28.02</ele>
        <time>2023-08-23T11:50:53Z</time>
      </trkpt>
      <trkpt lat="58.451330009847879" lon="-4.622207041829824">
        <ele>28.02</ele>
        <time>2023-08-23T11:50:54Z</time>
      </trkpt>
      <trkpt lat="58.451264966279268" lon="-4.622345007956028">
        <ele>28.02</ele>
        <time>2023-08-23T11:50:55Z</time>
      </trkpt>
      <trkpt lat="58.451200006529689" lon="-4.622481968253851">
        <ele>28.02</ele>
        <time>2023-08-23T11:50:56Z</time>
      </trkpt>
      <trkpt lat="58.451137980446219" lon="-4.622613983228803">
        <ele>28.02</ele>
        <time>2023-08-23T11:50:57Z</time>
      </trkpt>
      <trkpt lat="58.451017029583454" lon="-4.622870972380042">
        <ele>28.02</ele>
        <time>2023-08-23T11:50:59Z</time>
      </trkpt>
      <trkpt lat="58.450956009328365" lon="-4.623000975698233">
        <ele>27.530000000000001</ele>
        <time>2023-08-23T11:51:00Z</time>
      </trkpt>
      <trkpt lat="58.450898006558418" lon="-4.623125027865171">
        <ele>27.530000000000001</ele>
        <time>2023-08-23T11:51:01Z</time>
      </trkpt>
      <trkpt lat="58.450213959440589" lon="-4.624122977256775">
        <ele>24.649999999999999</ele>
        <time>2023-08-23T11:51:11Z</time>
      </trkpt>
      <trkpt lat="58.450135001912713" lon="-4.624211993068457">
        <ele>24.170000000000002</ele>
        <time>2023-08-23T11:51:12Z</time>
      </trkpt>
      <trkpt lat="58.449558997526765" lon="-4.624908026307821">
        <ele>21.77</ele>
        <time>2023-08-23T11:51:19Z</time>
      </trkpt>
      <trkpt lat="58.448973018676043" lon="-4.625992979854345">
        <ele>16.48</ele>
        <time>2023-08-23T11:51:26Z</time>
      </trkpt>
      <trkpt lat="58.448583008721471" lon="-4.626772999763489">
        <ele>13.6</ele>
        <time>2023-08-23T11:51:31Z</time>
      </trkpt>
      <trkpt lat="58.448506984859705" lon="-4.626924963667989">
        <ele>12.630000000000001</ele>
        <time>2023-08-23T11:51:32Z</time>
      </trkpt>
      <trkpt lat="58.447781028226018" lon="-4.628377966582775">
        <ele>4.46</ele>
        <time>2023-08-23T11:51:42Z</time>
      </trkpt>
      <trkpt lat="58.447134029120207" lon="-4.629670958966017">
        <ele>1.1</ele>
        <time>2023-08-23T11:51:51Z</time>
      </trkpt>
      <trkpt lat="58.447000002488494" lon="-4.629931971430779">
        <ele>0.14</ele>
        <time>2023-08-23T11:51:53Z</time>
      </trkpt>
      <trkpt lat="58.446924984455109" lon="-4.630015036091209">
        <ele>-0.34</ele>
        <time>2023-08-23T11:51:54Z</time>
      </trkpt>
      <trkpt lat="58.446346968412399" lon="-4.630817016586661">
        <ele>-4.19</ele>
        <time>2023-08-23T11:52:02Z</time>
      </trkpt>
      <trkpt lat="58.445857968181372" lon="-4.63184698484838">
        <ele>-8.51</ele>
        <time>2023-08-23T11:52:11Z</time>
      </trkpt>
      <trkpt lat="58.445478016510606" lon="-4.632500018924475">
        <ele>-6.11</ele>
        <time>2023-08-23T11:52:18Z</time>
      </trkpt>
      <trkpt lat="58.445373997092247" lon="-4.632635973393917">
        <ele>-4.67</ele>
        <time>2023-08-23T11:52:20Z</time>
      </trkpt>
      <trkpt lat="58.445328986272216" lon="-4.632685007527471">
        <ele>-4.67</ele>
        <time>2023-08-23T11:52:21Z</time>
      </trkpt>
      <trkpt lat="58.445298979058862" lon="-4.632718032225967">
        <ele>-4.19</ele>
        <time>2023-08-23T11:52:22Z</time>
      </trkpt>
      <trkpt lat="58.445282969623804" lon="-4.632734963670373">
        <ele>-3.71</ele>
        <time>2023-08-23T11:52:23Z</time>
      </trkpt>
      <trkpt lat="58.445282969623804" lon="-4.632734963670373">
        <ele>-2.75</ele>
        <time>2023-08-23T11:52:36Z</time>
      </trkpt>
      <trkpt lat="58.445282969623804" lon="-4.632734963670373">
        <ele>-2.27</ele>
        <time>2023-08-23T11:53:21Z</time>
      </trkpt>
      <trkpt lat="58.445282969623804" lon="-4.632734963670373">
        <ele>-1.79</ele>
        <time>2023-08-23T11:54:17Z</time>
      </trkpt>
      <trkpt lat="58.445176016539335" lon="-4.632867984473705">
        <ele>-0.82</ele>
        <time>2023-08-23T11:54:56Z</time>
      </trkpt>
      <trkpt lat="58.444794975221157" lon="-4.633492017164826">
        <ele>0.14</ele>
        <time>2023-08-23T11:55:03Z</time>
      </trkpt>
      <trkpt lat="58.44469103962183" lon="-4.63362998329103">
        <ele>1.1</ele>
        <time>2023-08-23T11:55:05Z</time>
      </trkpt>
      <trkpt lat="58.4439189825207" lon="-4.634313024580479">
        <ele>2.54</ele>
        <time>2023-08-23T11:55:15Z</time>
      </trkpt>
      <trkpt lat="58.443584041669965" lon="-4.634609995409846">
        <ele>1.1</ele>
        <time>2023-08-23T11:55:19Z</time>
      </trkpt>
      <trkpt lat="58.443409027531743" lon="-4.634751984849572">
        <ele>0.62</ele>
        <time>2023-08-23T11:55:21Z</time>
      </trkpt>
      <trkpt lat="58.44331699423492" lon="-4.634762965142727">
        <ele>0.62</ele>
        <time>2023-08-23T11:55:22Z</time>
      </trkpt>
      <trkpt lat="58.443224960938096" lon="-4.634775035083294">
        <ele>0.62</ele>
        <time>2023-08-23T11:55:23Z</time>
      </trkpt>
      <trkpt lat="58.443130999803543" lon="-4.634787021204829">
        <ele>1.1</ele>
        <time>2023-08-23T11:55:24Z</time>
      </trkpt>
      <trkpt lat="58.443035027012229" lon="-4.634799007326365">
        <ele>1.1</ele>
        <time>2023-08-23T11:55:25Z</time>
      </trkpt>
      <trkpt lat="58.442545020952821" lon="-4.634872013702989">
        <ele>3.98</ele>
        <time>2023-08-23T11:55:30Z</time>
      </trkpt>
      <trkpt lat="58.441458977758884" lon="-4.635619008913636">
        <ele>8.789999999999999</ele>
        <time>2023-08-23T11:55:40Z</time>
      </trkpt>
      <trkpt lat="58.440507967025042" lon="-4.636181015521288">
        <ele>5.91</ele>
        <time>2023-08-23T11:55:50Z</time>
      </trkpt>
      <trkpt lat="58.440237985923886" lon="-4.63629400357604">
        <ele>5.42</ele>
        <time>2023-08-23T11:55:53Z</time>
      </trkpt>
      <trkpt lat="58.440092978999019" lon="-4.636414032429457">
        <ele>5.42</ele>
        <time>2023-08-23T11:55:55Z</time>
      </trkpt>
      <trkpt lat="58.439937997609377" lon="-4.636577982455492">
        <ele>6.39</ele>
        <time>2023-08-23T11:55:57Z</time>
      </trkpt>
      <trkpt lat="58.43985702842474" lon="-4.636663980782032">
        <ele>6.87</ele>
        <time>2023-08-23T11:55:58Z</time>
      </trkpt>
      <trkpt lat="58.439761977642775" lon="-4.636734975501895">
        <ele>7.35</ele>
        <time>2023-08-23T11:55:59Z</time>
      </trkpt>
      <trkpt lat="58.439586963504553" lon="-4.63683295994997">
        <ele>8.310000000000001</ele>
        <time>2023-08-23T11:56:01Z</time>
      </trkpt>
      <trkpt lat="58.438596976920962" lon="-4.63738800957799">
        <ele>13.6</ele>
        <time>2023-08-23T11:56:11Z</time>
      </trkpt>
      <trkpt lat="58.438059026375413" lon="-4.637585990130901">
        <ele>15.52</ele>
        <time>2023-08-23T11:56:17Z</time>
      </trkpt>
      <trkpt lat="58.437970010563731" lon="-4.637576015666127">
        <ele>15.52</ele>
        <time>2023-08-23T11:56:18Z</time>
      </trkpt>
      <trkpt lat="58.437002990394831" lon="-4.637257000431418">
        <ele>11.67</ele>
        <time>2023-08-23T11:56:27Z</time>
      </trkpt>
      <trkpt lat="58.435673033818603" lon="-4.636579994112253">
        <ele>11.19</ele>
        <time>2023-08-23T11:56:40Z</time>
      </trkpt>
      <trkpt lat="58.434326983988285" lon="-4.635909022763372">
        <ele>13.119999999999999</ele>
        <time>2023-08-23T11:56:53Z</time>
      </trkpt>
      <trkpt lat="58.434255989268422" lon="-4.635811960324645">
        <ele>13.6</ele>
        <time>2023-08-23T11:56:54Z</time>
      </trkpt>
      <trkpt lat="58.43412003479898" lon="-4.635624960064888">
        <ele>14.56</ele>
        <time>2023-08-23T11:56:56Z</time>
      </trkpt>
      <trkpt lat="58.434044010937214" lon="-4.635572992265225">
        <ele>14.56</ele>
        <time>2023-08-23T11:56:57Z</time>
      </trkpt>
      <trkpt lat="58.433958012610674" lon="-4.635549020022154">
        <ele>14.56</ele>
        <time>2023-08-23T11:56:58Z</time>
      </trkpt>
      <trkpt lat="58.43386497348547" lon="-4.635583972558379">
        <ele>14.56</ele>
        <time>2023-08-23T11:56:59Z</time>
      </trkpt>
      <trkpt lat="58.433761959895492" lon="-4.635639041662216">
        <ele>14.56</ele>
        <time>2023-08-23T11:57:00Z</time>
      </trkpt>
      <trkpt lat="58.433646038174629" lon="-4.635700983926654">
        <ele>14.56</ele>
        <time>2023-08-23T11:57:01Z</time>
      </trkpt>
      <trkpt lat="58.433523997664452" lon="-4.635767033323646">
        <ele>15.039999999999999</ele>
        <time>2023-08-23T11:57:02Z</time>
      </trkpt>
      <trkpt lat="58.431991031393409" lon="-4.636585023254156">
        <ele>14.56</ele>
        <time>2023-08-23T11:57:13Z</time>
      </trkpt>
      <trkpt lat="58.431124007329345" lon="-4.637192962691188">
        <ele>15.52</ele>
        <time>2023-08-23T11:57:20Z</time>
      </trkpt>
      <trkpt lat="58.431019987910986" lon="-4.637178964912891">
        <ele>16</ele>
        <time>2023-08-23T11:57:21Z</time>
      </trkpt>
      <trkpt lat="58.430904988199472" lon="-4.637163039296866">
        <ele>16.48</ele>
        <time>2023-08-23T11:57:22Z</time>
      </trkpt>
      <trkpt lat="58.430059002712369" lon="-4.636973021551967">
        <ele>19.359999999999999</ele>
        <time>2023-08-23T11:57:29Z</time>
      </trkpt>
      <trkpt lat="58.429956994950771" lon="-4.636989030987024">
        <ele>19.359999999999999</ele>
        <time>2023-08-23T11:57:30Z</time>
      </trkpt>
      <trkpt lat="58.429852975532413" lon="-4.637009985744953">
        <ele>19.359999999999999</ele>
        <time>2023-08-23T11:57:31Z</time>
      </trkpt>
      <trkpt lat="58.429749961942434" lon="-4.637081986293197">
        <ele>19.84</ele>
        <time>2023-08-23T11:57:32Z</time>
      </trkpt>
      <trkpt lat="58.429639991372824" lon="-4.637159015983343">
        <ele>19.84</ele>
        <time>2023-08-23T11:57:33Z</time>
      </trkpt>
      <trkpt lat="58.42952398583293" lon="-4.6372389793396">
        <ele>19.84</ele>
        <time>2023-08-23T11:57:34Z</time>
      </trkpt>
      <trkpt lat="58.429405968636274" lon="-4.637321038171649">
        <ele>19.84</ele>
        <time>2023-08-23T11:57:35Z</time>
      </trkpt>
      <trkpt lat="58.429280994459987" lon="-4.637373005971313">
        <ele>20.32</ele>
        <time>2023-08-23T11:57:36Z</time>
      </trkpt>
      <trkpt lat="58.42915702611208" lon="-4.637409970164299">
        <ele>20.809999999999999</ele>
        <time>2023-08-23T11:57:37Z</time>
      </trkpt>
      <trkpt lat="58.428057990968227" lon="-4.637694032862783">
        <ele>23.690000000000001</ele>
        <time>2023-08-23T11:57:46Z</time>
      </trkpt>
      <trkpt lat="58.426417987793684" lon="-4.6379469987005">
        <ele>22.73</ele>
        <time>2023-08-23T11:57:58Z</time>
      </trkpt>
      <trkpt lat="58.426206009462476" lon="-4.637999972328544">
        <ele>21.77</ele>
        <time>2023-08-23T11:58:00Z</time>
      </trkpt>
      <trkpt lat="58.425515005365014" lon="-4.638237012550235">
        <ele>19.359999999999999</ele>
        <time>2023-08-23T11:58:07Z</time>
      </trkpt>
      <trkpt lat="58.425420960411429" lon="-4.638242963701487">
        <ele>18.879999999999999</ele>
        <time>2023-08-23T11:58:08Z</time>
      </trkpt>
      <trkpt lat="58.425311995670199" lon="-4.638251010328531">
        <ele>17.920000000000002</ele>
        <time>2023-08-23T11:58:09Z</time>
      </trkpt>
      <trkpt lat="58.424681005999446" lon="-4.638293003663421">
        <ele>14.56</ele>
        <time>2023-08-23T11:58:14Z</time>
      </trkpt>
      <trkpt lat="58.423835020512342" lon="-4.638439016416669">
        <ele>11.67</ele>
        <time>2023-08-23T11:58:21Z</time>
      </trkpt>
      <trkpt lat="58.423366975039244" lon="-4.638545969501138">
        <ele>10.710000000000001</ele>
        <time>2023-08-23T11:58:25Z</time>
      </trkpt>
      <trkpt lat="58.422340024262667" lon="-4.638911001384258">
        <ele>8.310000000000001</ele>
        <time>2023-08-23T11:58:34Z</time>
      </trkpt>
      <trkpt lat="58.422157969325781" lon="-4.639069000259042">
        <ele>7.83</ele>
        <time>2023-08-23T11:58:36Z</time>
      </trkpt>
      <trkpt lat="58.422055961564183" lon="-4.639159021899104">
        <ele>8.310000000000001</ele>
        <time>2023-08-23T11:58:37Z</time>
      </trkpt>
      <trkpt lat="58.421949008479714" lon="-4.639251977205277">
        <ele>7.83</ele>
        <time>2023-08-23T11:58:38Z</time>
      </trkpt>
      <trkpt lat="58.420947035774589" lon="-4.639661014080048">
        <ele>8.310000000000001</ele>
        <time>2023-08-23T11:58:47Z</time>
      </trkpt>
      <trkpt lat="58.419326981529593" lon="-4.639947004616261">
        <ele>9.75</ele>
        <time>2023-08-23T11:58:59Z</time>
      </trkpt>
      <trkpt lat="58.418236998841166" lon="-4.640220003202558">
        <ele>9.75</ele>
        <time>2023-08-23T11:59:07Z</time>
      </trkpt>
      <trkpt lat="58.418126022443175" lon="-4.640167029574513">
        <ele>10.23</ele>
        <time>2023-08-23T11:59:08Z</time>
      </trkpt>
      <trkpt lat="58.418012028560042" lon="-4.64009502902627">
        <ele>10.710000000000001</ele>
        <time>2023-08-23T11:59:09Z</time>
      </trkpt>
      <trkpt lat="58.417895017191768" lon="-4.640021016821265">
        <ele>10.710000000000001</ele>
        <time>2023-08-23T11:59:10Z</time>
      </trkpt>
      <trkpt lat="58.417778005823493" lon="-4.639939963817596">
        <ele>11.67</ele>
        <time>2023-08-23T11:59:11Z</time>
      </trkpt>
      <trkpt lat="58.41712798923254" lon="-4.639359014108777">
        <ele>13.6</ele>
        <time>2023-08-23T11:59:17Z</time>
      </trkpt>
      <trkpt lat="58.417021036148071" lon="-4.639319032430649">
        <ele>14.08</ele>
        <time>2023-08-23T11:59:18Z</time>
      </trkpt>
      <trkpt lat="58.416906958445907" lon="-4.639305034652352">
        <ele>14.08</ele>
        <time>2023-08-23T11:59:19Z</time>
      </trkpt>
      <trkpt lat="58.415681021288037" lon="-4.639427997171879">
        <ele>14.56</ele>
        <time>2023-08-23T11:59:28Z</time>
      </trkpt>
      <trkpt lat="58.41542998328805" lon="-4.639315009117127">
        <ele>14.56</ele>
        <time>2023-08-23T11:59:30Z</time>
      </trkpt>
      <trkpt lat="58.414642000570893" lon="-4.638926004990935">
        <ele>15.039999999999999</ele>
        <time>2023-08-23T11:59:36Z</time>
      </trkpt>
      <trkpt lat="58.414423987269402" lon="-4.638776974752545">
        <ele>14.56</ele>
        <time>2023-08-23T11:59:38Z</time>
      </trkpt>
      <trkpt lat="58.414310999214649" lon="-4.638756019994617">
        <ele>14.08</ele>
        <time>2023-08-23T11:59:39Z</time>
      </trkpt>
      <trkpt lat="58.414192982017994" lon="-4.63878502137959">
        <ele>14.08</ele>
        <time>2023-08-23T11:59:40Z</time>
      </trkpt>
      <trkpt lat="58.413459984585643" lon="-4.638864984735847">
        <ele>13.119999999999999</ele>
        <time>2023-08-23T11:59:46Z</time>
      </trkpt>
      <trkpt lat="58.413226967677474" lon="-4.638860039412975">
        <ele>13.119999999999999</ele>
        <time>2023-08-23T11:59:48Z</time>
      </trkpt>
      <trkpt lat="58.413119008764625" lon="-4.638901026919484">
        <ele>13.119999999999999</ele>
        <time>2023-08-23T11:59:49Z</time>
      </trkpt>
      <trkpt lat="58.412825977429748" lon="-4.638989958912134">
        <ele>13.119999999999999</ele>
        <time>2023-08-23T11:59:52Z</time>
      </trkpt>
      <trkpt lat="58.412713995203376" lon="-4.638966992497444">
        <ele>13.119999999999999</ele>
        <time>2023-08-23T11:59:53Z</time>
      </trkpt>
      <trkpt lat="58.411701964214444" lon="-4.638694999739528">
        <ele>13.6</ele>
        <time>2023-08-23T12:00:00Z</time>
      </trkpt>
      <trkpt lat="58.410162962973118" lon="-4.638173980638385">
        <ele>14.56</ele>
        <time>2023-08-23T12:00:10Z</time>
      </trkpt>
      <trkpt lat="58.409595005214214" lon="-4.638063004240394">
        <ele>15.52</ele>
        <time>2023-08-23T12:00:14Z</time>
      </trkpt>
      <trkpt lat="58.409375986084342" lon="-4.637912968173623">
        <ele>16</ele>
        <time>2023-08-23T12:00:16Z</time>
      </trkpt>
      <trkpt lat="58.409254029393196" lon="-4.637894025072455">
        <ele>16</ele>
        <time>2023-08-23T12:00:17Z</time>
      </trkpt>
      <trkpt lat="58.408004958182573" lon="-4.637868041172624">
        <ele>16.48</ele>
        <time>2023-08-23T12:00:25Z</time>
      </trkpt>
      <trkpt lat="58.407286964356899" lon="-4.637912968173623">
        <ele>17.440000000000001</ele>
        <time>2023-08-23T12:00:30Z</time>
      </trkpt>
      <trkpt lat="58.406914975494146" lon="-4.638006007298827">
        <ele>17.440000000000001</ele>
        <time>2023-08-23T12:00:33Z</time>
      </trkpt>
      <trkpt lat="58.406790001317859" lon="-4.637996032834053">
        <ele>17.440000000000001</ele>
        <time>2023-08-23T12:00:34Z</time>
      </trkpt>
      <trkpt lat="58.406658992171288" lon="-4.637985974550247">
        <ele>17.440000000000001</ele>
        <time>2023-08-23T12:00:35Z</time>
      </trkpt>
      <trkpt lat="58.406526977196336" lon="-4.637976000085473">
        <ele>17.440000000000001</ele>
        <time>2023-08-23T12:00:36Z</time>
      </trkpt>
      <trkpt lat="58.406392028555274" lon="-4.637985974550247">
        <ele>17.440000000000001</ele>
        <time>2023-08-23T12:00:37Z</time>
      </trkpt>
      <trkpt lat="58.406258001923561" lon="-4.638043977320194">
        <ele>17.440000000000001</ele>
        <time>2023-08-23T12:00:38Z</time>
      </trkpt>
      <trkpt lat="58.406120035797358" lon="-4.638103991746903">
        <ele>17.440000000000001</ele>
        <time>2023-08-23T12:00:39Z</time>
      </trkpt>
      <trkpt lat="58.404809022322297" lon="-4.638745039701462">
        <ele>16.960000000000001</ele>
        <time>2023-08-23T12:00:48Z</time>
      </trkpt>
      <trkpt lat="58.404352962970734" lon="-4.639168996363878">
        <ele>16.960000000000001</ele>
        <time>2023-08-23T12:00:52Z</time>
      </trkpt>
      <trkpt lat="58.404237041249871" lon="-4.639226999133825">
        <ele>16.960000000000001</ele>
        <time>2023-08-23T12:00:53Z</time>
      </trkpt>
      <trkpt lat="58.404115000739694" lon="-4.639288019388914">
        <ele>17.440000000000001</ele>
        <time>2023-08-23T12:00:54Z</time>
      </trkpt>
      <trkpt lat="58.403984997421503" lon="-4.639352979138494">
        <ele>17.440000000000001</ele>
        <time>2023-08-23T12:00:55Z</time>
      </trkpt>
      <trkpt lat="58.403844013810158" lon="-4.639422968029976">
        <ele>17.440000000000001</ele>
        <time>2023-08-23T12:00:56Z</time>
      </trkpt>
      <trkpt lat="58.402505004778504" lon="-4.640172980725765">
        <ele>18.399999999999999</ele>
        <time>2023-08-23T12:01:04Z</time>
      </trkpt>
      <trkpt lat="58.400967009365559" lon="-4.641109993681312">
        <ele>19.359999999999999</ele>
        <time>2023-08-23T12:01:14Z</time>
      </trkpt>
      <trkpt lat="58.400037037208676" lon="-4.641422973945737">
        <ele>18.879999999999999</ele>
        <time>2023-08-23T12:01:21Z</time>
      </trkpt>
      <trkpt lat="58.399914996698499" lon="-4.641411993652582">
        <ele>18.879999999999999</ele>
        <time>2023-08-23T12:01:22Z</time>
      </trkpt>
      <trkpt lat="58.399794967845082" lon="-4.641400007531047">
        <ele>18.399999999999999</ele>
        <time>2023-08-23T12:01:23Z</time>
      </trkpt>
      <trkpt lat="58.399267997592688" lon="-4.64138500392437">
        <ele>17.920000000000002</ele>
        <time>2023-08-23T12:01:27Z</time>
      </trkpt>
      <trkpt lat="58.398126969113946" lon="-4.641695972532034">
        <ele>16.48</ele>
        <time>2023-08-23T12:01:35Z</time>
      </trkpt>
      <trkpt lat="58.397996965795755" lon="-4.641691027209163">
        <ele>16.48</ele>
        <time>2023-08-23T12:01:36Z</time>
      </trkpt>
      <trkpt lat="58.397864028811455" lon="-4.641684992238879">
        <ele>16</ele>
        <time>2023-08-23T12:01:37Z</time>
      </trkpt>
      <trkpt lat="58.397736037150025" lon="-4.641660014167428">
        <ele>16</ele>
        <time>2023-08-23T12:01:38Z</time>
      </trkpt>
      <trkpt lat="58.397616008296609" lon="-4.641567980870605">
        <ele>15.52</ele>
        <time>2023-08-23T12:01:39Z</time>
      </trkpt>
      <trkpt lat="58.397497991099954" lon="-4.641477959230542">
        <ele>15.039999999999999</ele>
        <time>2023-08-23T12:01:40Z</time>
      </trkpt>
      <trkpt lat="58.397386008873582" lon="-4.64138500392437">
        <ele>14.56</ele>
        <time>2023-08-23T12:01:41Z</time>
      </trkpt>
      <trkpt lat="58.39727696031332" lon="-4.641244020313025">
        <ele>14.56</ele>
        <time>2023-08-23T12:01:42Z</time>
      </trkpt>
      <trkpt lat="58.397165983915329" lon="-4.641099013388157">
        <ele>14.08</ele>
        <time>2023-08-23T12:01:43Z</time>
      </trkpt>
      <trkpt lat="58.39678100310266" lon="-4.640381019562483">
        <ele>12.630000000000001</ele>
        <time>2023-08-23T12:01:47Z</time>
      </trkpt>
      <trkpt lat="58.396696010604501" lon="-4.640171974897385">
        <ele>12.630000000000001</ele>
        <time>2023-08-23T12:01:48Z</time>
      </trkpt>
      <trkpt lat="58.395680962130427" lon="-4.637879021465778">
        <ele>10.710000000000001</ele>
        <time>2023-08-23T12:01:59Z</time>
      </trkpt>
      <trkpt lat="58.394722994416952" lon="-4.636310013011098">
        <ele>9.27</ele>
        <time>2023-08-23T12:02:09Z</time>
      </trkpt>
      <trkpt lat="58.39360099285841" lon="-4.635009979829192">
        <ele>8.310000000000001</ele>
        <time>2023-08-23T12:02:20Z</time>
      </trkpt>
      <trkpt lat="58.392592985183001" lon="-4.634383013471961">
        <ele>9.75</ele>
        <time>2023-08-23T12:02:29Z</time>
      </trkpt>
      <trkpt lat="58.391975993290544" lon="-4.63427497074008">
        <ele>11.19</ele>
        <time>2023-08-23T12:02:34Z</time>
      </trkpt>
      <trkpt lat="58.391851019114256" lon="-4.634228032082319">
        <ele>11.19</ele>
        <time>2023-08-23T12:02:35Z</time>
      </trkpt>
      <trkpt lat="58.391721015796065" lon="-4.634161982685328">
        <ele>10.710000000000001</ele>
        <time>2023-08-23T12:02:36Z</time>
      </trkpt>
      <trkpt lat="58.39070001617074" lon="-4.633288001641631">
        <ele>12.15</ele>
        <time>2023-08-23T12:02:46Z</time>
      </trkpt>
      <trkpt lat="58.390384018421173" lon="-4.633002011105418">
        <ele>11.67</ele>
        <time>2023-08-23T12:02:51Z</time>
      </trkpt>
      <trkpt lat="58.390321992337704" lon="-4.632903020828962">
        <ele>11.67</ele>
        <time>2023-08-23T12:02:52Z</time>
      </trkpt>
      <trkpt lat="58.390254015102983" lon="-4.632795983925462">
        <ele>11.19</ele>
        <time>2023-08-23T12:02:53Z</time>
      </trkpt>
      <trkpt lat="58.38958203792572" lon="-4.631891995668411">
        <ele>10.23</ele>
        <time>2023-08-23T12:03:01Z</time>
      </trkpt>
      <trkpt lat="58.389482041820884" lon="-4.631813960149884">
        <ele>10.710000000000001</ele>
        <time>2023-08-23T12:03:02Z</time>
      </trkpt>
      <trkpt lat="58.389121033251286" lon="-4.631521012634039">
        <ele>11.19</ele>
        <time>2023-08-23T12:03:06Z</time>
      </trkpt>
      <trkpt lat="58.389037968590856" lon="-4.631443982943893">
        <ele>11.19</ele>
        <time>2023-08-23T12:03:07Z</time>
      </trkpt>
      <trkpt lat="58.388949036598206" lon="-4.631362007930875">
        <ele>11.19</ele>
        <time>2023-08-23T12:03:08Z</time>
      </trkpt>
      <trkpt lat="58.388857003301382" lon="-4.631276009604335">
        <ele>11.19</ele>
        <time>2023-08-23T12:03:09Z</time>
      </trkpt>
      <trkpt lat="58.388761030510068" lon="-4.631186993792653">
        <ele>11.19</ele>
        <time>2023-08-23T12:03:10Z</time>
      </trkpt>
      <trkpt lat="58.388657011091709" lon="-4.63109202682972">
        <ele>11.19</ele>
        <time>2023-08-23T12:03:11Z</time>
      </trkpt>
      <trkpt lat="58.387580020353198" lon="-4.630436981096864">
        <ele>10.710000000000001</ele>
        <time>2023-08-23T12:03:20Z</time>
      </trkpt>
      <trkpt lat="58.386030960828066" lon="-4.630179991945624">
        <ele>10.23</ele>
        <time>2023-08-23T12:03:32Z</time>
      </trkpt>
      <trkpt lat="58.384279981255531" lon="-4.630199018865824">
        <ele>11.67</ele>
        <time>2023-08-23T12:03:45Z</time>
      </trkpt>
      <trkpt lat="58.38389097712934" lon="-4.630281999707222">
        <ele>11.67</ele>
        <time>2023-08-23T12:03:48Z</time>
      </trkpt>
      <trkpt lat="58.383764997124672" lon="-4.630336984992027">
        <ele>11.67</ele>
        <time>2023-08-23T12:03:49Z</time>
      </trkpt>
      <trkpt lat="58.38365200906992" lon="-4.630446033552289">
        <ele>12.15</ele>
        <time>2023-08-23T12:03:50Z</time>
      </trkpt>
      <trkpt lat="58.383064018562436" lon="-4.630931010469794">
        <ele>12.630000000000001</ele>
        <time>2023-08-23T12:03:55Z</time>
      </trkpt>
      <trkpt lat="58.382979026064277" lon="-4.630973003804684">
        <ele>12.630000000000001</ele>
        <time>2023-08-23T12:03:56Z</time>
      </trkpt>
      <trkpt lat="58.382834019139409" lon="-4.630973003804684">
        <ele>12.630000000000001</ele>
        <time>2023-08-23T12:03:57Z</time>
      </trkpt>
      <trkpt lat="58.382702004164457" lon="-4.630973003804684">
        <ele>12.630000000000001</ele>
        <time>2023-08-23T12:03:58Z</time>
      </trkpt>
      <trkpt lat="58.382562026381493" lon="-4.630973003804684">
        <ele>12.630000000000001</ele>
        <time>2023-08-23T12:03:59Z</time>
      </trkpt>
      <trkpt lat="58.382022986188531" lon="-4.630893962457776">
        <ele>12.15</ele>
        <time>2023-08-23T12:04:03Z</time>
      </trkpt>
      <trkpt lat="58.381901029497385" lon="-4.63083503767848">
        <ele>12.15</ele>
        <time>2023-08-23T12:04:04Z</time>
      </trkpt>
      <trkpt lat="58.381776977330446" lon="-4.630774017423391">
        <ele>11.67</ele>
        <time>2023-08-23T12:04:05Z</time>
      </trkpt>
      <trkpt lat="58.380873994901776" lon="-4.630587017163634">
        <ele>10.710000000000001</ele>
        <time>2023-08-23T12:04:12Z</time>
      </trkpt>
      <trkpt lat="58.38075103238225" lon="-4.630607971921563">
        <ele>10.710000000000001</ele>
        <time>2023-08-23T12:04:13Z</time>
      </trkpt>
      <trkpt lat="58.380137979984283" lon="-4.630941990762949">
        <ele>10.23</ele>
        <time>2023-08-23T12:04:18Z</time>
      </trkpt>
      <trkpt lat="58.380014011636376" lon="-4.631045004352927">
        <ele>10.23</ele>
        <time>2023-08-23T12:04:19Z</time>
      </trkpt>
      <trkpt lat="58.379902029410005" lon="-4.631204009056091">
        <ele>10.23</ele>
        <time>2023-08-23T12:04:20Z</time>
      </trkpt>
      <trkpt lat="58.379792980849743" lon="-4.631368964910507">
        <ele>10.23</ele>
        <time>2023-08-23T12:04:21Z</time>
      </trkpt>
      <trkpt lat="58.379686027765274" lon="-4.631532998755574">
        <ele>10.710000000000001</ele>
        <time>2023-08-23T12:04:22Z</time>
      </trkpt>
      <trkpt lat="58.379467008635402" lon="-4.631794011220336">
        <ele>11.19</ele>
        <time>2023-08-23T12:04:24Z</time>
      </trkpt>
      <trkpt lat="58.37935502640903" lon="-4.631897024810314">
        <ele>11.67</ele>
        <time>2023-08-23T12:04:25Z</time>
      </trkpt>
      <trkpt lat="58.379227034747601" lon="-4.631939018145204">
        <ele>11.67</ele>
        <time>2023-08-23T12:04:26Z</time>
      </trkpt>
      <trkpt lat="58.37909703142941" lon="-4.631939018145204">
        <ele>11.67</ele>
        <time>2023-08-23T12:04:27Z</time>
      </trkpt>
      <trkpt lat="58.378961998969316" lon="-4.631939018145204">
        <ele>11.67</ele>
        <time>2023-08-23T12:04:28Z</time>
      </trkpt>
      <trkpt lat="58.378825038671494" lon="-4.631939018145204">
        <ele>12.15</ele>
        <time>2023-08-23T12:04:29Z</time>
      </trkpt>
      <trkpt lat="58.378687994554639" lon="-4.631939018145204">
        <ele>12.15</ele>
        <time>2023-08-23T12:04:30Z</time>
      </trkpt>
      <trkpt lat="58.378141997382045" lon="-4.632086958736181">
        <ele>12.15</ele>
        <time>2023-08-23T12:04:34Z</time>
      </trkpt>
      <trkpt lat="58.377753999084234" lon="-4.632226014509797">
        <ele>12.630000000000001</ele>
        <time>2023-08-23T12:04:37Z</time>
      </trkpt>
      <trkpt lat="58.377622989937663" lon="-4.632238000631332">
        <ele>12.630000000000001</ele>
        <time>2023-08-23T12:04:38Z</time>
      </trkpt>
      <trkpt lat="58.377489969134331" lon="-4.632248980924487">
        <ele>12.630000000000001</ele>
        <time>2023-08-23T12:04:39Z</time>
      </trkpt>
      <trkpt lat="58.37735895998776" lon="-4.632260967046022">
        <ele>12.630000000000001</ele>
        <time>2023-08-23T12:04:40Z</time>
      </trkpt>
      <trkpt lat="58.377232979983091" lon="-4.632349982857704">
        <ele>12.630000000000001</ele>
        <time>2023-08-23T12:04:41Z</time>
      </trkpt>
      <trkpt lat="58.377109011635184" lon="-4.632438998669386">
        <ele>12.630000000000001</ele>
        <time>2023-08-23T12:04:42Z</time>
      </trkpt>
      <trkpt lat="58.375835968181491" lon="-4.633353967219591">
        <ele>13.119999999999999</ele>
        <time>2023-08-23T12:04:52Z</time>
      </trkpt>
      <trkpt lat="58.374960981309414" lon="-4.633893007412553">
        <ele>13.119999999999999</ele>
        <time>2023-08-23T12:04:59Z</time>
      </trkpt>
      <trkpt lat="58.374841958284378" lon="-4.633903987705708">
        <ele>13.119999999999999</ele>
        <time>2023-08-23T12:05:00Z</time>
      </trkpt>
      <trkpt lat="58.374485978856683" lon="-4.633957967162132">
        <ele>13.119999999999999</ele>
        <time>2023-08-23T12:05:03Z</time>
      </trkpt>
      <trkpt lat="58.374249022454023" lon="-4.634103979915381">
        <ele>13.6</ele>
        <time>2023-08-23T12:05:05Z</time>
      </trkpt>
      <trkpt lat="58.374143997207284" lon="-4.634232977405191">
        <ele>14.08</ele>
        <time>2023-08-23T12:05:06Z</time>
      </trkpt>
      <trkpt lat="58.373286025598645" lon="-4.635376017540693">
        <ele>15.039999999999999</ele>
        <time>2023-08-23T12:05:14Z</time>
      </trkpt>
      <trkpt lat="58.372411038726568" lon="-4.637296982109547">
        <ele>16.48</ele>
        <time>2023-08-23T12:05:25Z</time>
      </trkpt>
      <trkpt lat="58.372338032349944" lon="-4.63743201456964">
        <ele>16.48</ele>
        <time>2023-08-23T12:05:26Z</time>
      </trkpt>
      <trkpt lat="58.37226795963943" lon="-4.637541985139251">
        <ele>16.48</ele>
        <time>2023-08-23T12:05:27Z</time>
      </trkpt>
      <trkpt lat="58.372192019596696" lon="-4.637628989294171">
        <ele>16.48</ele>
        <time>2023-08-23T12:05:28Z</time>
      </trkpt>
      <trkpt lat="58.372111972421408" lon="-4.637681040912867">
        <ele>16.48</ele>
        <time>2023-08-23T12:05:29Z</time>
      </trkpt>
      <trkpt lat="58.372032009065151" lon="-4.637735020369291">
        <ele>16.960000000000001</ele>
        <time>2023-08-23T12:05:30Z</time>
      </trkpt>
      <trkpt lat="58.371951961889863" lon="-4.637787993997335">
        <ele>16.960000000000001</ele>
        <time>2023-08-23T12:05:31Z</time>
      </trkpt>
      <trkpt lat="58.371874010190368" lon="-4.637823030352593">
        <ele>16.960000000000001</ele>
        <time>2023-08-23T12:05:32Z</time>
      </trkpt>
      <trkpt lat="58.371786000207067" lon="-4.637834010645747">
        <ele>16.960000000000001</ele>
        <time>2023-08-23T12:05:33Z</time>
      </trkpt>
      <trkpt lat="58.371693966910243" lon="-4.637845996767283">
        <ele>16.960000000000001</ele>
        <time>2023-08-23T12:05:34Z</time>
      </trkpt>
      <trkpt lat="58.371045039966702" lon="-4.63788497261703">
        <ele>17.440000000000001</ele>
        <time>2023-08-23T12:05:42Z</time>
      </trkpt>
      <trkpt lat="58.370975973084569" lon="-4.637826969847083">
        <ele>17.440000000000001</ele>
        <time>2023-08-23T12:05:43Z</time>
      </trkpt>
      <trkpt lat="58.370900033041835" lon="-4.637762010097504">
        <ele>17.440000000000001</ele>
        <time>2023-08-23T12:05:44Z</time>
      </trkpt>
      <trkpt lat="58.370815040543675" lon="-4.63768900372088">
        <ele>17.440000000000001</ele>
        <time>2023-08-23T12:05:45Z</time>
      </trkpt>
      <trkpt lat="58.370733987540007" lon="-4.63758397847414">
        <ele>17.440000000000001</ele>
        <time>2023-08-23T12:05:46Z</time>
      </trkpt>
      <trkpt lat="58.370648995041847" lon="-4.637457998469472">
        <ele>17.440000000000001</ele>
        <time>2023-08-23T12:05:47Z</time>
      </trkpt>
      <trkpt lat="58.370561990886927" lon="-4.637331012636423">
        <ele>17.440000000000001</ele>
        <time>2023-08-23T12:05:48Z</time>
      </trkpt>
      <trkpt lat="58.370403992012143" lon="-4.637096989899874">
        <ele>17.440000000000001</ele>
        <time>2023-08-23T12:05:50Z</time>
      </trkpt>
      <trkpt lat="58.370316987857223" lon="-4.637034963816404">
        <ele>17.440000000000001</ele>
        <time>2023-08-23T12:05:51Z</time>
      </trkpt>
      <trkpt lat="58.37022302672267" lon="-4.636987019330263">
        <ele>17.440000000000001</ele>
        <time>2023-08-23T12:05:52Z</time>
      </trkpt>
      <trkpt lat="58.370114983990788" lon="-4.637005962431431">
        <ele>17.440000000000001</ele>
        <time>2023-08-23T12:05:53Z</time>
      </trkpt>
      <trkpt lat="58.370004007592797" lon="-4.637033035978675">
        <ele>17.440000000000001</ele>
        <time>2023-08-23T12:05:54Z</time>
      </trkpt>
      <trkpt lat="58.369888002052903" lon="-4.637061031535268">
        <ele>17.440000000000001</ele>
        <time>2023-08-23T12:05:55Z</time>
      </trkpt>
      <trkpt lat="58.368816040456295" lon="-4.637687997892499">
        <ele>18.399999999999999</ele>
        <time>2023-08-23T12:06:04Z</time>
      </trkpt>
      <trkpt lat="58.36848696693778" lon="-4.637931995093823">
        <ele>18.399999999999999</ele>
        <time>2023-08-23T12:06:07Z</time>
      </trkpt>
      <trkpt lat="58.367455992847681" lon="-4.638545969501138">
        <ele>17.440000000000001</ele>
        <time>2023-08-23T12:06:16Z</time>
      </trkpt>
      <trkpt lat="58.366703968495131" lon="-4.638811005279422">
        <ele>17.440000000000001</ele>
        <time>2023-08-23T12:06:24Z</time>
      </trkpt>
      <trkpt lat="58.366410015150905" lon="-4.638860039412975">
        <ele>17.440000000000001</ele>
        <time>2023-08-23T12:06:29Z</time>
      </trkpt>
      <trkpt lat="58.366309013217688" lon="-4.638875965029001">
        <ele>17.920000000000002</ele>
        <time>2023-08-23T12:06:37Z</time>
      </trkpt>
      <trkpt lat="58.366309013217688" lon="-4.638875965029001">
        <ele>17.440000000000001</ele>
        <time>2023-08-23T12:07:26Z</time>
      </trkpt>
      <trkpt lat="58.366221003234386" lon="-4.638890968635678">
        <ele>18.399999999999999</ele>
        <time>2023-08-23T12:08:15Z</time>
      </trkpt>
      <trkpt lat="58.366069039329886" lon="-4.638902032747865">
        <ele>18.399999999999999</ele>
        <time>2023-08-23T12:08:18Z</time>
      </trkpt>
      <trkpt lat="58.366000978276134" lon="-4.638906978070736">
        <ele>18.399999999999999</ele>
        <time>2023-08-23T12:08:19Z</time>
      </trkpt>
      <trkpt lat="58.365153986960649" lon="-4.638989958912134">
        <ele>19.84</ele>
        <time>2023-08-23T12:08:28Z</time>
      </trkpt>
      <trkpt lat="58.363729985430837" lon="-4.639217024669051">
        <ele>25.129999999999999</ele>
        <time>2023-08-23T12:08:41Z</time>
      </trkpt>
      <trkpt lat="58.363624960184097" lon="-4.63925801217556">
        <ele>25.129999999999999</ele>
        <time>2023-08-23T12:08:42Z</time>
      </trkpt>
      <trkpt lat="58.363518007099628" lon="-4.639298999682069">
        <ele>25.609999999999999</ele>
        <time>2023-08-23T12:08:43Z</time>
      </trkpt>
      <trkpt lat="58.362969998270273" lon="-4.639474013820291">
        <ele>27.530000000000001</ele>
        <time>2023-08-23T12:08:48Z</time>
      </trkpt>
      <trkpt lat="58.362293997779489" lon="-4.639578033238649">
        <ele>30.420000000000002</ele>
        <time>2023-08-23T12:08:54Z</time>
      </trkpt>
      <trkpt lat="58.362162988632917" lon="-4.639517012983561">
        <ele>31.379999999999999</ele>
        <time>2023-08-23T12:08:55Z</time>
      </trkpt>
      <trkpt lat="58.362056035548449" lon="-4.639465967193246">
        <ele>31.859999999999999</ele>
        <time>2023-08-23T12:08:56Z</time>
      </trkpt>
      <trkpt lat="58.36169402115047" lon="-4.639421040192246">
        <ele>32.82</ele>
        <time>2023-08-23T12:08:59Z</time>
      </trkpt>
      <trkpt lat="58.361562006175518" lon="-4.639429003000259">
        <ele>33.299999999999997</ele>
        <time>2023-08-23T12:09:00Z</time>
      </trkpt>
      <trkpt lat="58.360490966588259" lon="-4.639248959720135">
        <ele>38.590000000000003</ele>
        <time>2023-08-23T12:09:08Z</time>
      </trkpt>
      <trkpt lat="58.359062019735575" lon="-4.638566002249718">
        <ele>43.880000000000003</ele>
        <time>2023-08-23T12:09:19Z</time>
      </trkpt>
      <trkpt lat="58.358673015609384" lon="-4.638325022533536">
        <ele>46.280000000000001</ele>
        <time>2023-08-23T12:09:23Z</time>
      </trkpt>
      <trkpt lat="58.358592968434095" lon="-4.638231983408332">
        <ele>47.240000000000002</ele>
        <time>2023-08-23T12:09:24Z</time>
      </trkpt>
      <trkpt lat="58.358504036441445" lon="-4.638127963989973">
        <ele>47.719999999999999</ele>
        <time>2023-08-23T12:09:25Z</time>
      </trkpt>
      <trkpt lat="58.357739020138979" lon="-4.637491023167968">
        <ele>52.530000000000001</ele>
        <time>2023-08-23T12:09:32Z</time>
      </trkpt>
      <trkpt lat="58.357629971578717" lon="-4.637486999854446">
        <ele>53.969999999999999</ele>
        <time>2023-08-23T12:09:33Z</time>
      </trkpt>
      <trkpt lat="58.357512038201094" lon="-4.637482976540923">
        <ele>54.93</ele>
        <time>2023-08-23T12:09:34Z</time>
      </trkpt>
      <trkpt lat="58.356621041893959" lon="-4.63738901540637">
        <ele>62.140000000000001</ele>
        <time>2023-08-23T12:09:41Z</time>
      </trkpt>
      <trkpt lat="58.356542000547051" lon="-4.637289019301534">
        <ele>63.100000000000001</ele>
        <time>2023-08-23T12:09:42Z</time>
      </trkpt>
      <trkpt lat="58.356456002220511" lon="-4.637177959084511">
        <ele>64.069999999999993</ele>
        <time>2023-08-23T12:09:43Z</time>
      </trkpt>
      <trkpt lat="58.356200018897653" lon="-4.63685299269855">
        <ele>66.950000000000003</ele>
        <time>2023-08-23T12:09:46Z</time>
      </trkpt>
      <trkpt lat="58.356080995872617" lon="-4.636813011020422">
        <ele>67.909999999999997</ele>
        <time>2023-08-23T12:09:47Z</time>
      </trkpt>
      <trkpt lat="58.355988040566444" lon="-4.636801024898887">
        <ele>68.870000000000005</ele>
        <time>2023-08-23T12:09:48Z</time>
      </trkpt>
      <trkpt lat="58.355885026976466" lon="-4.6367899607867">
        <ele>70.310000000000002</ele>
        <time>2023-08-23T12:09:49Z</time>
      </trkpt>
      <trkpt lat="58.355772960931063" lon="-4.636778980493546">
        <ele>71.269999999999996</ele>
        <time>2023-08-23T12:09:50Z</time>
      </trkpt>
      <trkpt lat="58.355655027553439" lon="-4.636769006028771">
        <ele>71.760000000000005</ele>
        <time>2023-08-23T12:09:51Z</time>
      </trkpt>
      <trkpt lat="58.355524018406868" lon="-4.636793984100223">
        <ele>72.719999999999999</ele>
        <time>2023-08-23T12:09:52Z</time>
      </trkpt>
      <trkpt lat="58.354453984647989" lon="-4.636826002970338">
        <ele>75.599999999999994</ele>
        <time>2023-08-23T12:10:00Z</time>
      </trkpt>
      <trkpt lat="58.3540890365839" lon="-4.636711003258824">
        <ele>77.519999999999996</ele>
        <time>2023-08-23T12:10:03Z</time>
      </trkpt>
      <trkpt lat="58.353974036872387" lon="-4.636639002710581">
        <ele>78.480000000000004</ele>
        <time>2023-08-23T12:10:04Z</time>
      </trkpt>
      <trkpt lat="58.353859037160873" lon="-4.636568007990718">
        <ele>78.969999999999999</ele>
        <time>2023-08-23T12:10:05Z</time>
      </trkpt>
      <trkpt lat="58.352609965950251" lon="-4.635786982253194">
        <ele>85.689999999999998</ele>
        <time>2023-08-23T12:10:15Z</time>
      </trkpt>
      <trkpt lat="58.352502007037401" lon="-4.635743983089924">
        <ele>86.180000000000007</ele>
        <time>2023-08-23T12:10:16Z</time>
      </trkpt>
      <trkpt lat="58.352394970133901" lon="-4.635768039152026">
        <ele>87.140000000000001</ele>
        <time>2023-08-23T12:10:17Z</time>
      </trkpt>
      <trkpt lat="58.352282987907529" lon="-4.635794023051858">
        <ele>87.620000000000005</ele>
        <time>2023-08-23T12:10:18Z</time>
      </trkpt>
      <trkpt lat="58.352163964882493" lon="-4.63582101278007">
        <ele>88.579999999999998</ele>
        <time>2023-08-23T12:10:19Z</time>
      </trkpt>
      <trkpt lat="58.351375982165337" lon="-4.63597297668457">
        <ele>91.939999999999998</ele>
        <time>2023-08-23T12:10:25Z</time>
      </trkpt>
      <trkpt lat="58.351258970797062" lon="-4.63597297668457">
        <ele>92.420000000000002</ele>
        <time>2023-08-23T12:10:26Z</time>
      </trkpt>
      <trkpt lat="58.350518010556698" lon="-4.635916985571384">
        <ele>94.349999999999994</ele>
        <time>2023-08-23T12:10:32Z</time>
      </trkpt>
      <trkpt lat="58.350400999188423" lon="-4.635872980579734">
        <ele>94.829999999999998</ele>
        <time>2023-08-23T12:10:33Z</time>
      </trkpt>
      <trkpt lat="58.349574040621519" lon="-4.635350033640862">
        <ele>100.11</ele>
        <time>2023-08-23T12:10:41Z</time>
      </trkpt>
      <trkpt lat="58.348428988829255" lon="-4.634694987908006">
        <ele>107.81</ele>
        <time>2023-08-23T12:10:51Z</time>
      </trkpt>
      <trkpt lat="58.347817026078701" lon="-4.634206993505359">
        <ele>109.25</ele>
        <time>2023-08-23T12:10:56Z</time>
      </trkpt>
      <trkpt lat="58.34768702276051" lon="-4.634142033755779">
        <ele>109.73</ele>
        <time>2023-08-23T12:10:57Z</time>
      </trkpt>
      <trkpt lat="58.347551990300417" lon="-4.634105991572142">
        <ele>109.73</ele>
        <time>2023-08-23T12:10:58Z</time>
      </trkpt>
      <trkpt lat="58.346136035397649" lon="-4.633827041834593">
        <ele>113.56999999999999</ele>
        <time>2023-08-23T12:11:08Z</time>
      </trkpt>
      <trkpt lat="58.346013994887471" lon="-4.633725034072995">
        <ele>114.53</ele>
        <time>2023-08-23T12:11:09Z</time>
      </trkpt>
      <trkpt lat="58.345904024317861" lon="-4.633634006604552">
        <ele>115.5</ele>
        <time>2023-08-23T12:11:10Z</time>
      </trkpt>
      <trkpt lat="58.34506499581039" lon="-4.633099995553494">
        <ele>119.34</ele>
        <time>2023-08-23T12:11:17Z</time>
      </trkpt>
      <trkpt lat="58.344998024404049" lon="-4.632997987791896">
        <ele>119.81999999999999</ele>
        <time>2023-08-23T12:11:18Z</time>
      </trkpt>
      <trkpt lat="58.344929963350296" lon="-4.632894974201918">
        <ele>120.3</ele>
        <time>2023-08-23T12:11:19Z</time>
      </trkpt>
      <trkpt lat="58.34469803608954" lon="-4.632542012259364">
        <ele>120.3</ele>
        <time>2023-08-23T12:11:22Z</time>
      </trkpt>
      <trkpt lat="58.344607008621097" lon="-4.63240496814251">
        <ele>120.3</ele>
        <time>2023-08-23T12:11:23Z</time>
      </trkpt>
      <trkpt lat="58.344514975324273" lon="-4.632265996187925">
        <ele>120.3</ele>
        <time>2023-08-23T12:11:24Z</time>
      </trkpt>
      <trkpt lat="58.344396958127618" lon="-4.632198018953204">
        <ele>120.3</ele>
        <time>2023-08-23T12:11:25Z</time>
      </trkpt>
      <trkpt lat="58.344278018921614" lon="-4.632170023396611">
        <ele>120.3</ele>
        <time>2023-08-23T12:11:26Z</time>
      </trkpt>
      <trkpt lat="58.344153966754675" lon="-4.632141022011638">
        <ele>120.3</ele>
        <time>2023-08-23T12:11:27Z</time>
      </trkpt>
      <trkpt lat="58.344023963436484" lon="-4.632111014798284">
        <ele>120.3</ele>
        <time>2023-08-23T12:11:28Z</time>
      </trkpt>
      <trkpt lat="58.343664966523647" lon="-4.631936000660062">
        <ele>120.78</ele>
        <time>2023-08-23T12:11:31Z</time>
      </trkpt>
      <trkpt lat="58.34356002509594" lon="-4.631850002333522">
        <ele>120.78</ele>
        <time>2023-08-23T12:11:32Z</time>
      </trkpt>
      <trkpt lat="58.3434549998492" lon="-4.631735002622008">
        <ele>120.78</ele>
        <time>2023-08-23T12:11:33Z</time>
      </trkpt>
      <trkpt lat="58.34304696880281" lon="-4.631252959370613">
        <ele>121.26000000000001</ele>
        <time>2023-08-23T12:11:37Z</time>
      </trkpt>
      <trkpt lat="58.342970022931695" lon="-4.63111499324441">
        <ele>121.73999999999999</ele>
        <time>2023-08-23T12:11:38Z</time>
      </trkpt>
      <trkpt lat="58.342899028211832" lon="-4.630930004641414">
        <ele>121.73999999999999</ele>
        <time>2023-08-23T12:11:39Z</time>
      </trkpt>
      <trkpt lat="58.342682020738721" lon="-4.630373027175665">
        <ele>121.26000000000001</ele>
        <time>2023-08-23T12:11:42Z</time>
      </trkpt>
      <trkpt lat="58.342590993270278" lon="-4.630251992493868">
        <ele>121.26000000000001</ele>
        <time>2023-08-23T12:11:43Z</time>
      </trkpt>
      <trkpt lat="58.342507006600499" lon="-4.63019197806716">
        <ele>121.26000000000001</ele>
        <time>2023-08-23T12:11:44Z</time>
      </trkpt>
      <trkpt lat="58.342416984960437" lon="-4.630173034965992">
        <ele>121.26000000000001</ele>
        <time>2023-08-23T12:11:45Z</time>
      </trkpt>
      <trkpt lat="58.3423169888556" lon="-4.630153002217412">
        <ele>121.26000000000001</ele>
        <time>2023-08-23T12:11:46Z</time>
      </trkpt>
      <trkpt lat="58.342205006629229" lon="-4.630130035802722">
        <ele>121.26000000000001</ele>
        <time>2023-08-23T12:11:47Z</time>
      </trkpt>
      <trkpt lat="58.341703014448285" lon="-4.630027022212744">
        <ele>122.70999999999999</ele>
        <time>2023-08-23T12:11:52Z</time>
      </trkpt>
      <trkpt lat="58.341644005849957" lon="-4.630015036091209">
        <ele>123.19</ele>
        <time>2023-08-23T12:11:53Z</time>
      </trkpt>
      <trkpt lat="58.341591032221913" lon="-4.629967007786036">
        <ele>123.19</ele>
        <time>2023-08-23T12:11:54Z</time>
      </trkpt>
      <trkpt lat="58.34154199808836" lon="-4.629853013902903">
        <ele>123.67</ele>
        <time>2023-08-23T12:11:55Z</time>
      </trkpt>
      <trkpt lat="58.341482989490032" lon="-4.62971898727119">
        <ele>124.15000000000001</ele>
        <time>2023-08-23T12:11:56Z</time>
      </trkpt>
      <trkpt lat="58.341418029740453" lon="-4.62956802919507">
        <ele>124.15000000000001</ele>
        <time>2023-08-23T12:11:57Z</time>
      </trkpt>
      <trkpt lat="58.341346029192209" lon="-4.629401983693242">
        <ele>124.15000000000001</ele>
        <time>2023-08-23T12:11:58Z</time>
      </trkpt>
      <trkpt lat="58.340809000656009" lon="-4.628347959369421">
        <ele>123.67</ele>
        <time>2023-08-23T12:12:04Z</time>
      </trkpt>
      <trkpt lat="58.340717973187566" lon="-4.628233965486288">
        <ele>123.67</ele>
        <time>2023-08-23T12:12:05Z</time>
      </trkpt>
      <trkpt lat="58.340613031759858" lon="-4.628185015171766">
        <ele>123.19</ele>
        <time>2023-08-23T12:12:06Z</time>
      </trkpt>
      <trkpt lat="58.340502977371216" lon="-4.628134975209832">
        <ele>123.19</ele>
        <time>2023-08-23T12:12:07Z</time>
      </trkpt>
      <trkpt lat="58.340395018458366" lon="-4.62808501906693">
        <ele>123.19</ele>
        <time>2023-08-23T12:12:08Z</time>
      </trkpt>
      <trkpt lat="58.34029502235353" lon="-4.628040008246899">
        <ele>123.19</ele>
        <time>2023-08-23T12:12:09Z</time>
      </trkpt>
      <trkpt lat="58.340235007926822" lon="-4.628012012690306">
        <ele>123.19</ele>
        <time>2023-08-23T12:12:10Z</time>
      </trkpt>
      <trkpt lat="58.340146997943521" lon="-4.627899024635553">
        <ele>123.19</ele>
        <time>2023-08-23T12:12:11Z</time>
      </trkpt>
      <trkpt lat="58.34008296020329" lon="-4.627812020480633">
        <ele>123.19</ele>
        <time>2023-08-23T12:12:12Z</time>
      </trkpt>
      <trkpt lat="58.340034009888768" lon="-4.627676988020539">
        <ele>123.19</ele>
        <time>2023-08-23T12:12:13Z</time>
      </trkpt>
      <trkpt lat="58.339979024603963" lon="-4.627522006630898">
        <ele>122.70999999999999</ele>
        <time>2023-08-23T12:12:14Z</time>
      </trkpt>
      <trkpt lat="58.339618016034365" lon="-4.62673201225698">
        <ele>121.73999999999999</ele>
        <time>2023-08-23T12:12:19Z</time>
      </trkpt>
      <trkpt lat="58.339531011879444" lon="-4.626617012545466">
        <ele>121.26000000000001</ele>
        <time>2023-08-23T12:12:20Z</time>
      </trkpt>
      <trkpt lat="58.339360021054745" lon="-4.626434035599232">
        <ele>120.78</ele>
        <time>2023-08-23T12:12:22Z</time>
      </trkpt>
      <trkpt lat="58.339269999414682" lon="-4.626351976767182">
        <ele>120.78</ele>
        <time>2023-08-23T12:12:23Z</time>
      </trkpt>
      <trkpt lat="58.339177966117859" lon="-4.626315012574196">
        <ele>120.3</ele>
        <time>2023-08-23T12:12:24Z</time>
      </trkpt>
      <trkpt lat="58.339085010811687" lon="-4.626277964562178">
        <ele>120.3</ele>
        <time>2023-08-23T12:12:25Z</time>
      </trkpt>
      <trkpt lat="58.338990965858102" lon="-4.626311995089054">
        <ele>120.3</ele>
        <time>2023-08-23T12:12:26Z</time>
      </trkpt>
      <trkpt lat="58.33889901638031" lon="-4.626352982595563">
        <ele>120.3</ele>
        <time>2023-08-23T12:12:27Z</time>
      </trkpt>
      <trkpt lat="58.338802959769964" lon="-4.626389024779201">
        <ele>120.78</ele>
        <time>2023-08-23T12:12:28Z</time>
      </trkpt>
      <trkpt lat="58.338614031672478" lon="-4.626455996185541">
        <ele>121.26000000000001</ele>
        <time>2023-08-23T12:12:30Z</time>
      </trkpt>
      <trkpt lat="58.338525015860796" lon="-4.626433029770851">
        <ele>121.26000000000001</ele>
        <time>2023-08-23T12:12:31Z</time>
      </trkpt>
      <trkpt lat="58.338441029191017" lon="-4.626383995637298">
        <ele>121.73999999999999</ele>
        <time>2023-08-23T12:12:32Z</time>
      </trkpt>
      <trkpt lat="58.337449030950665" lon="-4.625824000686407">
        <ele>123.19</ele>
        <time>2023-08-23T12:12:41Z</time>
      </trkpt>
      <trkpt lat="58.336547976359725" lon="-4.625333994626999">
        <ele>121.26000000000001</ele>
        <time>2023-08-23T12:12:49Z</time>
      </trkpt>
      <trkpt lat="58.336467007175088" lon="-4.625255959108472">
        <ele>121.26000000000001</ele>
        <time>2023-08-23T12:12:50Z</time>
      </trkpt>
      <trkpt lat="58.336391989141703" lon="-4.625131990760565">
        <ele>120.78</ele>
        <time>2023-08-23T12:12:51Z</time>
      </trkpt>
      <trkpt lat="58.336317976936698" lon="-4.624982038512826">
        <ele>120.3</ele>
        <time>2023-08-23T12:12:52Z</time>
      </trkpt>
      <trkpt lat="58.33623600192368" lon="-4.624816998839378">
        <ele>120.3</ele>
        <time>2023-08-23T12:12:53Z</time>
      </trkpt>
      <trkpt lat="58.335239980369806" lon="-4.622810035943985">
        <ele>117.90000000000001</ele>
        <time>2023-08-23T12:13:04Z</time>
      </trkpt>
      <trkpt lat="58.335092961788177" lon="-4.622511975467205">
        <ele>118.38</ele>
        <time>2023-08-23T12:13:06Z</time>
      </trkpt>
      <trkpt lat="58.335040993988514" lon="-4.62235095910728">
        <ele>118.38</ele>
        <time>2023-08-23T12:13:07Z</time>
      </trkpt>
      <trkpt lat="58.335004029795527" lon="-4.6221789624542">
        <ele>118.38</ele>
        <time>2023-08-23T12:13:08Z</time>
      </trkpt>
      <trkpt lat="58.334963964298368" lon="-4.622000008821487">
        <ele>118.38</ele>
        <time>2023-08-23T12:13:09Z</time>
      </trkpt>
      <trkpt lat="58.334923982620239" lon="-4.621818037703633">
        <ele>118.38</ele>
        <time>2023-08-23T12:13:10Z</time>
      </trkpt>
      <trkpt lat="58.334693983197212" lon="-4.619978964328766">
        <ele>119.81999999999999</ele>
        <time>2023-08-23T12:13:19Z</time>
      </trkpt>
      <trkpt lat="58.33460203371942" lon="-4.619638994336128">
        <ele>119.81999999999999</ele>
        <time>2023-08-23T12:13:21Z</time>
      </trkpt>
      <trkpt lat="58.334535984322429" lon="-4.619503961876035">
        <ele>120.3</ele>
        <time>2023-08-23T12:13:22Z</time>
      </trkpt>
      <trkpt lat="58.334468007087708" lon="-4.619385022670031">
        <ele>120.3</ele>
        <time>2023-08-23T12:13:23Z</time>
      </trkpt>
      <trkpt lat="58.334330040961504" lon="-4.619146976619959">
        <ele>120.78</ele>
        <time>2023-08-23T12:13:25Z</time>
      </trkpt>
      <trkpt lat="58.334255022928119" lon="-4.619031976908445">
        <ele>120.78</ele>
        <time>2023-08-23T12:13:26Z</time>
      </trkpt>
      <trkpt lat="58.334160977974534" lon="-4.618965005502105">
        <ele>120.78</ele>
        <time>2023-08-23T12:13:27Z</time>
      </trkpt>
      <trkpt lat="58.334060981869698" lon="-4.618894010782242">
        <ele>121.26000000000001</ele>
        <time>2023-08-23T12:13:28Z</time>
      </trkpt>
      <trkpt lat="58.33395604044199" lon="-4.618819998577237">
        <ele>121.73999999999999</ele>
        <time>2023-08-23T12:13:29Z</time>
      </trkpt>
      <trkpt lat="58.333630990236998" lon="-4.61858899332583">
        <ele>123.19</ele>
        <time>2023-08-23T12:13:32Z</time>
      </trkpt>
      <trkpt lat="58.333523031324148" lon="-4.618512969464064">
        <ele>123.19</ele>
        <time>2023-08-23T12:13:33Z</time>
      </trkpt>
      <trkpt lat="58.333418006077409" lon="-4.618390006944537">
        <ele>124.15000000000001</ele>
        <time>2023-08-23T12:13:34Z</time>
      </trkpt>
      <trkpt lat="58.333336031064391" lon="-4.61822597309947">
        <ele>124.63</ele>
        <time>2023-08-23T12:13:35Z</time>
      </trkpt>
      <trkpt lat="58.333252966403961" lon="-4.618059005588293">
        <ele>125.59</ele>
        <time>2023-08-23T12:13:36Z</time>
      </trkpt>
      <trkpt lat="58.333177026361227" lon="-4.617874016985297">
        <ele>126.06999999999999</ele>
        <time>2023-08-23T12:13:37Z</time>
      </trkpt>
      <trkpt lat="58.33311902359128" lon="-4.617667989805341">
        <ele>126.55</ele>
        <time>2023-08-23T12:13:38Z</time>
      </trkpt>
      <trkpt lat="58.333079963922501" lon="-4.617441007867456">
        <ele>127.51000000000001</ele>
        <time>2023-08-23T12:13:39Z</time>
      </trkpt>
      <trkpt lat="58.333061020821333" lon="-4.61719399318099">
        <ele>127.98999999999999</ele>
        <time>2023-08-23T12:13:40Z</time>
      </trkpt>
      <trkpt lat="58.333038976415992" lon="-4.616929963231087">
        <ele>128.47</ele>
        <time>2023-08-23T12:13:41Z</time>
      </trkpt>
      <trkpt lat="58.332813000306487" lon="-4.614110039547086">
        <ele>133.28</ele>
        <time>2023-08-23T12:13:50Z</time>
      </trkpt>
      <trkpt lat="58.332442017272115" lon="-4.610900022089481">
        <ele>140.00999999999999</ele>
        <time>2023-08-23T12:14:01Z</time>
      </trkpt>
      <trkpt lat="58.331796023994684" lon="-4.607204021885991">
        <ele>142.41</ele>
        <time>2023-08-23T12:14:13Z</time>
      </trkpt>
      <trkpt lat="58.331405008211732" lon="-4.602876026183367">
        <ele>143.84999999999999</ele>
        <time>2023-08-23T12:14:26Z</time>
      </trkpt>
      <trkpt lat="58.331020027399063" lon="-4.600979033857584">
        <ele>144.34</ele>
        <time>2023-08-23T12:14:33Z</time>
      </trkpt>
      <trkpt lat="58.330196002498269" lon="-4.597736997529864">
        <ele>145.78</ele>
        <time>2023-08-23T12:14:43Z</time>
      </trkpt>
      <trkpt lat="58.329671965911984" lon="-4.596117027103901">
        <ele>148.18000000000001</ele>
        <time>2023-08-23T12:14:49Z</time>
      </trkpt>
      <trkpt lat="58.32955302670598" lon="-4.595959028229117">
        <ele>148.66</ele>
        <time>2023-08-23T12:14:50Z</time>
      </trkpt>
      <trkpt lat="58.32933702506125" lon="-4.595671026036143">
        <ele>149.13999999999999</ele>
        <time>2023-08-23T12:14:52Z</time>
      </trkpt>
      <trkpt lat="58.329266030341387" lon="-4.595505986362696">
        <ele>149.62</ele>
        <time>2023-08-23T12:14:53Z</time>
      </trkpt>
      <trkpt lat="58.329214984551072" lon="-4.595304988324642">
        <ele>150.09999999999999</ele>
        <time>2023-08-23T12:14:54Z</time>
      </trkpt>
      <trkpt lat="58.328740987926722" lon="-4.593525007367134">
        <ele>148.18000000000001</ele>
        <time>2023-08-23T12:15:01Z</time>
      </trkpt>
      <trkpt lat="58.328558010980487" lon="-4.593075988814235">
        <ele>146.74000000000001</ele>
        <time>2023-08-23T12:15:03Z</time>
      </trkpt>
      <trkpt lat="58.328454997390509" lon="-4.592928970232606">
        <ele>146.25999999999999</ele>
        <time>2023-08-23T12:15:04Z</time>
      </trkpt>
      <trkpt lat="58.32832801155746" lon="-4.592782035470009">
        <ele>145.78</ele>
        <time>2023-08-23T12:15:05Z</time>
      </trkpt>
      <trkpt lat="58.327515972778201" lon="-4.591844016686082">
        <ele>146.74000000000001</ele>
        <time>2023-08-23T12:15:12Z</time>
      </trkpt>
      <trkpt lat="58.327471967786551" lon="-4.591730022802949">
        <ele>147.22</ele>
        <time>2023-08-23T12:15:13Z</time>
      </trkpt>
      <trkpt lat="58.327443972229958" lon="-4.591601025313139">
        <ele>147.69999999999999</ele>
        <time>2023-08-23T12:15:14Z</time>
      </trkpt>
      <trkpt lat="58.327413965016603" lon="-4.591460041701794">
        <ele>147.69999999999999</ele>
        <time>2023-08-23T12:15:15Z</time>
      </trkpt>
      <trkpt lat="58.327379012480378" lon="-4.591293996199966">
        <ele>148.18000000000001</ele>
        <time>2023-08-23T12:15:16Z</time>
      </trkpt>
      <trkpt lat="58.327217996120453" lon="-4.590683961287141">
        <ele>148.66</ele>
        <time>2023-08-23T12:15:19Z</time>
      </trkpt>
      <trkpt lat="58.327129986137152" lon="-4.590497966855764">
        <ele>148.66</ele>
        <time>2023-08-23T12:15:20Z</time>
      </trkpt>
      <trkpt lat="58.327026972547174" lon="-4.590346002951264">
        <ele>148.66</ele>
        <time>2023-08-23T12:15:21Z</time>
      </trkpt>
      <trkpt lat="58.326917001977563" lon="-4.59020996466279">
        <ele>148.66</ele>
        <time>2023-08-23T12:15:22Z</time>
      </trkpt>
      <trkpt lat="58.326798984780908" lon="-4.590082978829742">
        <ele>149.13999999999999</ele>
        <time>2023-08-23T12:15:23Z</time>
      </trkpt>
      <trkpt lat="58.326663030311465" lon="-4.590011984109879">
        <ele>149.13999999999999</ele>
        <time>2023-08-23T12:15:24Z</time>
      </trkpt>
      <trkpt lat="58.326522968709469" lon="-4.589937971904874">
        <ele>149.13999999999999</ele>
        <time>2023-08-23T12:15:25Z</time>
      </trkpt>
      <trkpt lat="58.326017959043384" lon="-4.589673019945622">
        <ele>150.58000000000001</ele>
        <time>2023-08-23T12:15:29Z</time>
      </trkpt>
      <trkpt lat="58.325904970988631" lon="-4.589571012184024">
        <ele>150.58000000000001</ele>
        <time>2023-08-23T12:15:30Z</time>
      </trkpt>
      <trkpt lat="58.32547296769917" lon="-4.589054016396403">
        <ele>151.06</ele>
        <time>2023-08-23T12:15:34Z</time>
      </trkpt>
      <trkpt lat="58.325348999351263" lon="-4.588975980877876">
        <ele>151.06</ele>
        <time>2023-08-23T12:15:35Z</time>
      </trkpt>
      <trkpt lat="58.325224025174975" lon="-4.588898029178381">
        <ele>151.06</ele>
        <time>2023-08-23T12:15:36Z</time>
      </trkpt>
      <trkpt lat="58.325098967179656" lon="-4.588850000873208">
        <ele>151.06</ele>
        <time>2023-08-23T12:15:37Z</time>
      </trkpt>
      <trkpt lat="58.324971981346607" lon="-4.588843965902925">
        <ele>151.53999999999999</ele>
        <time>2023-08-23T12:15:38Z</time>
      </trkpt>
      <trkpt lat="58.324840972200036" lon="-4.588839020580053">
        <ele>152.03</ele>
        <time>2023-08-23T12:15:39Z</time>
      </trkpt>
      <trkpt lat="58.324575014412403" lon="-4.588779006153345">
        <ele>152.99000000000001</ele>
        <time>2023-08-23T12:15:41Z</time>
      </trkpt>
      <trkpt lat="58.32444098778069" lon="-4.588697031140328">
        <ele>153.47</ele>
        <time>2023-08-23T12:15:42Z</time>
      </trkpt>
      <trkpt lat="58.322776006534696" lon="-4.587663039565086">
        <ele>157.31</ele>
        <time>2023-08-23T12:15:53Z</time>
      </trkpt>
      <trkpt lat="58.321521990001202" lon="-4.586561992764473">
        <ele>161.16</ele>
        <time>2023-08-23T12:16:02Z</time>
      </trkpt>
      <trkpt lat="58.321138015016913" lon="-4.585847016423941">
        <ele>163.08000000000001</ele>
        <time>2023-08-23T12:16:06Z</time>
      </trkpt>
      <trkpt lat="58.321072971448302" lon="-4.585678037256002">
        <ele>163.56</ele>
        <time>2023-08-23T12:16:07Z</time>
      </trkpt>
      <trkpt lat="58.321022009477019" lon="-4.58548097871244">
        <ele>164.03999999999999</ele>
        <time>2023-08-23T12:16:08Z</time>
      </trkpt>
      <trkpt lat="58.320795027539134" lon="-4.584602974355221">
        <ele>165</ele>
        <time>2023-08-23T12:16:12Z</time>
      </trkpt>
      <trkpt lat="58.32072202116251" lon="-4.584413040429354">
        <ele>165.47999999999999</ele>
        <time>2023-08-23T12:16:13Z</time>
      </trkpt>
      <trkpt lat="58.319746032357216" lon="-4.581853039562702">
        <ele>167.41</ele>
        <time>2023-08-23T12:16:24Z</time>
      </trkpt>
      <trkpt lat="58.318752022460103" lon="-4.579312987625599">
        <ele>168.37</ele>
        <time>2023-08-23T12:16:35Z</time>
      </trkpt>
      <trkpt lat="58.31857399083674" lon="-4.57895097322762">
        <ele>167.88999999999999</ele>
        <time>2023-08-23T12:16:37Z</time>
      </trkpt>
      <trkpt lat="58.318203007802367" lon="-4.578198026865721">
        <ele>166.93000000000001</ele>
        <time>2023-08-23T12:16:41Z</time>
      </trkpt>
      <trkpt lat="58.318125978112221" lon="-4.577986970543861">
        <ele>166.44999999999999</ele>
        <time>2023-08-23T12:16:42Z</time>
      </trkpt>
      <trkpt lat="58.318097982555628" lon="-4.577749008312821">
        <ele>165.96000000000001</ele>
        <time>2023-08-23T12:16:43Z</time>
      </trkpt>
      <trkpt lat="58.318069986999035" lon="-4.577507022768259">
        <ele>165.47999999999999</ele>
        <time>2023-08-23T12:16:44Z</time>
      </trkpt>
      <trkpt lat="58.318076021969318" lon="-4.577254978939891">
        <ele>165</ele>
        <time>2023-08-23T12:16:45Z</time>
      </trkpt>
      <trkpt lat="58.318128995597363" lon="-4.57501701079309">
        <ele>161.16</ele>
        <time>2023-08-23T12:16:54Z</time>
      </trkpt>
      <trkpt lat="58.318133018910885" lon="-4.574863035231829">
        <ele>160.68000000000001</ele>
        <time>2023-08-23T12:16:55Z</time>
      </trkpt>
      <trkpt lat="58.31807903945446" lon="-4.574721967801452">
        <ele>160.19999999999999</ele>
        <time>2023-08-23T12:16:56Z</time>
      </trkpt>
      <trkpt lat="58.31801500171423" lon="-4.574608979746699">
        <ele>160.19999999999999</ele>
        <time>2023-08-23T12:16:57Z</time>
      </trkpt>
      <trkpt lat="58.317938977852464" lon="-4.574475036934018">
        <ele>159.72</ele>
        <time>2023-08-23T12:16:58Z</time>
      </trkpt>
      <trkpt lat="58.317852979525924" lon="-4.574323995038867">
        <ele>159.24000000000001</ele>
        <time>2023-08-23T12:16:59Z</time>
      </trkpt>
      <trkpt lat="58.316832985728979" lon="-4.57289001904428">
        <ele>157.78999999999999</ele>
        <time>2023-08-23T12:17:08Z</time>
      </trkpt>
      <trkpt lat="58.316717986017466" lon="-4.572737971320748">
        <ele>157.78999999999999</ele>
        <time>2023-08-23T12:17:09Z</time>
      </trkpt>
      <trkpt lat="58.316617989912629" lon="-4.572566980496049">
        <ele>157.78999999999999</ele>
        <time>2023-08-23T12:17:10Z</time>
      </trkpt>
      <trkpt lat="58.31653400324285" lon="-4.572367994114757">
        <ele>157.78999999999999</ele>
        <time>2023-08-23T12:17:11Z</time>
      </trkpt>
      <trkpt lat="58.316053971648216" lon="-4.570417022332549">
        <ele>156.83000000000001</ele>
        <time>2023-08-23T12:17:19Z</time>
      </trkpt>
      <trkpt lat="58.315442008897662" lon="-4.567899014800787">
        <ele>153.47</ele>
        <time>2023-08-23T12:17:29Z</time>
      </trkpt>
      <trkpt lat="58.315390041097999" lon="-4.567631967365742">
        <ele>152.99000000000001</ele>
        <time>2023-08-23T12:17:30Z</time>
      </trkpt>
      <trkpt lat="58.315356010571122" lon="-4.567357040941715">
        <ele>152.50999999999999</ele>
        <time>2023-08-23T12:17:31Z</time>
      </trkpt>
      <trkpt lat="58.315218966454268" lon="-4.566336963325739">
        <ele>151.06</ele>
        <time>2023-08-23T12:17:35Z</time>
      </trkpt>
      <trkpt lat="58.315168004482985" lon="-4.566149041056633">
        <ele>151.06</ele>
        <time>2023-08-23T12:17:36Z</time>
      </trkpt>
      <trkpt lat="58.315098015591502" lon="-4.56597100943327">
        <ele>151.06</ele>
        <time>2023-08-23T12:17:37Z</time>
      </trkpt>
      <trkpt lat="58.314926018938422" lon="-4.565605977550149">
        <ele>150.58000000000001</ele>
        <time>2023-08-23T12:17:39Z</time>
      </trkpt>
      <trkpt lat="58.314829962328076" lon="-4.565399028360844">
        <ele>150.09999999999999</ele>
        <time>2023-08-23T12:17:40Z</time>
      </trkpt>
      <trkpt lat="58.313997974619269" lon="-4.562367964535952">
        <ele>149.62</ele>
        <time>2023-08-23T12:17:51Z</time>
      </trkpt>
      <trkpt lat="58.313927985727787" lon="-4.562116004526615">
        <ele>149.62</ele>
        <time>2023-08-23T12:17:52Z</time>
      </trkpt>
      <trkpt lat="58.313908036798239" lon="-4.561879970133305">
        <ele>149.62</ele>
        <time>2023-08-23T12:17:53Z</time>
      </trkpt>
      <trkpt lat="58.313625985756516" lon="-4.559600008651614">
        <ele>150.58000000000001</ele>
        <time>2023-08-23T12:18:01Z</time>
      </trkpt>
      <trkpt lat="58.313302025198936" lon="-4.55836501903832">
        <ele>151.53999999999999</ele>
        <time>2023-08-23T12:18:06Z</time>
      </trkpt>
      <trkpt lat="58.313213009387255" lon="-4.558152034878731">
        <ele>151.53999999999999</ele>
        <time>2023-08-23T12:18:07Z</time>
      </trkpt>
      <trkpt lat="58.312953002750874" lon="-4.557531019672751">
        <ele>151.53999999999999</ele>
        <time>2023-08-23T12:18:10Z</time>
      </trkpt>
      <trkpt lat="58.312918972223997" lon="-4.557275958359242">
        <ele>152.03</ele>
        <time>2023-08-23T12:18:11Z</time>
      </trkpt>
      <trkpt lat="58.312894999980927" lon="-4.55703497864306">
        <ele>152.03</ele>
        <time>2023-08-23T12:18:12Z</time>
      </trkpt>
      <trkpt lat="58.312797015532851" lon="-4.556269962340593">
        <ele>152.50999999999999</ele>
        <time>2023-08-23T12:18:15Z</time>
      </trkpt>
      <trkpt lat="58.312732977792621" lon="-4.556035017594695">
        <ele>152.99000000000001</ele>
        <time>2023-08-23T12:18:16Z</time>
      </trkpt>
      <trkpt lat="58.312618983909488" lon="-4.555613994598389">
        <ele>153.47</ele>
        <time>2023-08-23T12:18:18Z</time>
      </trkpt>
      <trkpt lat="58.31262300722301" lon="-4.555386006832123">
        <ele>153.94999999999999</ele>
        <time>2023-08-23T12:18:19Z</time>
      </trkpt>
      <trkpt lat="58.312625018879771" lon="-4.555211998522282">
        <ele>154.43000000000001</ele>
        <time>2023-08-23T12:18:20Z</time>
      </trkpt>
      <trkpt lat="58.312627030536532" lon="-4.555030027404428">
        <ele>154.43000000000001</ele>
        <time>2023-08-23T12:18:21Z</time>
      </trkpt>
      <trkpt lat="58.312629964202642" lon="-4.55482198856771">
        <ele>154.91</ele>
        <time>2023-08-23T12:18:22Z</time>
      </trkpt>
      <trkpt lat="58.312632981687784" lon="-4.554586037993431">
        <ele>154.91</ele>
        <time>2023-08-23T12:18:23Z</time>
      </trkpt>
      <trkpt lat="58.312637005001307" lon="-4.554342040792108">
        <ele>154.91</ele>
        <time>2023-08-23T12:18:24Z</time>
      </trkpt>
      <trkpt lat="58.312640022486448" lon="-4.554121010005474">
        <ele>154.91</ele>
        <time>2023-08-23T12:18:25Z</time>
      </trkpt>
      <trkpt lat="58.312685033306479" lon="-4.553935015574098">
        <ele>155.87</ele>
        <time>2023-08-23T12:18:26Z</time>
      </trkpt>
      <trkpt lat="58.312745969742537" lon="-4.553780034184456">
        <ele>156.34999999999999</ele>
        <time>2023-08-23T12:18:27Z</time>
      </trkpt>
      <trkpt lat="58.312816964462399" lon="-4.553600996732712">
        <ele>156.83000000000001</ele>
        <time>2023-08-23T12:18:28Z</time>
      </trkpt>
      <trkpt lat="58.312891982495785" lon="-4.553408967331052">
        <ele>157.31</ele>
        <time>2023-08-23T12:18:29Z</time>
      </trkpt>
      <trkpt lat="58.312936993315816" lon="-4.553183997049928">
        <ele>158.27000000000001</ele>
        <time>2023-08-23T12:18:30Z</time>
      </trkpt>
      <trkpt lat="58.312960965558887" lon="-4.55295198597014">
        <ele>158.27000000000001</ele>
        <time>2023-08-23T12:18:31Z</time>
      </trkpt>
      <trkpt lat="58.312984015792608" lon="-4.552739001810551">
        <ele>158.75</ele>
        <time>2023-08-23T12:18:32Z</time>
      </trkpt>
      <trkpt lat="58.312974963337183" lon="-4.552483018487692">
        <ele>159.24000000000001</ele>
        <time>2023-08-23T12:18:33Z</time>
      </trkpt>
      <trkpt lat="58.31296700052917" lon="-4.552237009629607">
        <ele>159.24000000000001</ele>
        <time>2023-08-23T12:18:34Z</time>
      </trkpt>
      <trkpt lat="58.312937999144197" lon="-4.552011033520103">
        <ele>159.72</ele>
        <time>2023-08-23T12:18:35Z</time>
      </trkpt>
      <trkpt lat="58.312882008031011" lon="-4.551777010783553">
        <ele>160.19999999999999</ele>
        <time>2023-08-23T12:18:36Z</time>
      </trkpt>
      <trkpt lat="58.312824005261064" lon="-4.551535025238991">
        <ele>160.19999999999999</ele>
        <time>2023-08-23T12:18:37Z</time>
      </trkpt>
      <trkpt lat="58.312762985005975" lon="-4.551278036087751">
        <ele>160.68000000000001</ele>
        <time>2023-08-23T12:18:38Z</time>
      </trkpt>
      <trkpt lat="58.312669023871422" lon="-4.551048958674073">
        <ele>161.16</ele>
        <time>2023-08-23T12:18:39Z</time>
      </trkpt>
      <trkpt lat="58.312561986967921" lon="-4.55082499422133">
        <ele>161.16</ele>
        <time>2023-08-23T12:18:40Z</time>
      </trkpt>
      <trkpt lat="58.312453022226691" lon="-4.550594994798303">
        <ele>161.16</ele>
        <time>2023-08-23T12:18:41Z</time>
      </trkpt>
      <trkpt lat="58.31124703399837" lon="-4.548873016610742">
        <ele>163.08000000000001</ele>
        <time>2023-08-23T12:18:50Z</time>
      </trkpt>
      <trkpt lat="58.310865992680192" lon="-4.548412011936307">
        <ele>162.59999999999999</ele>
        <time>2023-08-23T12:18:53Z</time>
      </trkpt>
      <trkpt lat="58.310730960220098" lon="-4.548316961154342">
        <ele>162.59999999999999</ele>
        <time>2023-08-23T12:18:54Z</time>
      </trkpt>
      <trkpt lat="58.310592994093895" lon="-4.548218976706266">
        <ele>162.59999999999999</ele>
        <time>2023-08-23T12:18:55Z</time>
      </trkpt>
      <trkpt lat="58.309150971472263" lon="-4.547545993700624">
        <ele>165</ele>
        <time>2023-08-23T12:19:04Z</time>
      </trkpt>
      <trkpt lat="58.307865019887686" lon="-4.54614101909101">
        <ele>165.47999999999999</ele>
        <time>2023-08-23T12:19:13Z</time>
      </trkpt>
      <trkpt lat="58.306482005864382" lon="-4.544011009857059">
        <ele>160.68000000000001</ele>
        <time>2023-08-23T12:19:23Z</time>
      </trkpt>
      <trkpt lat="58.304604040458798" lon="-4.542092978954315">
        <ele>157.31</ele>
        <time>2023-08-23T12:19:35Z</time>
      </trkpt>
      <trkpt lat="58.302897987887263" lon="-4.540057014673948">
        <ele>155.87</ele>
        <time>2023-08-23T12:19:47Z</time>
      </trkpt>
      <trkpt lat="58.301680013537407" lon="-4.537562979385257">
        <ele>152.50999999999999</ele>
        <time>2023-08-23T12:19:57Z</time>
      </trkpt>
      <trkpt lat="58.300668988376856" lon="-4.535090988501906">
        <ele>146.25999999999999</ele>
        <time>2023-08-23T12:20:06Z</time>
      </trkpt>
      <trkpt lat="58.299991982057691" lon="-4.533733958378434">
        <ele>142.88999999999999</ele>
        <time>2023-08-23T12:20:13Z</time>
      </trkpt>
      <trkpt lat="58.299917969852686" lon="-4.533477975055575">
        <ele>140.97</ele>
        <time>2023-08-23T12:20:19Z</time>
      </trkpt>
      <trkpt lat="58.299857033416629" lon="-4.533254010602832">
        <ele>140.49000000000001</ele>
        <time>2023-08-23T12:20:33Z</time>
      </trkpt>
      <trkpt lat="58.299825014546514" lon="-4.53314102254808">
        <ele>140.00999999999999</ele>
        <time>2023-08-23T12:20:34Z</time>
      </trkpt>
      <trkpt lat="58.299556961283088" lon="-4.531992031261325">
        <ele>138.09</ele>
        <time>2023-08-23T12:20:41Z</time>
      </trkpt>
      <trkpt lat="58.299567019566894" lon="-4.531772006303072">
        <ele>138.09</ele>
        <time>2023-08-23T12:20:42Z</time>
      </trkpt>
      <trkpt lat="58.299584034830332" lon="-4.531564973294735">
        <ele>137.61000000000001</ele>
        <time>2023-08-23T12:20:43Z</time>
      </trkpt>
      <trkpt lat="58.299620999023318" lon="-4.529767977073789">
        <ele>135.68000000000001</ele>
        <time>2023-08-23T12:20:50Z</time>
      </trkpt>
      <trkpt lat="58.299198970198631" lon="-4.527081996202469">
        <ele>131.84</ele>
        <time>2023-08-23T12:20:59Z</time>
      </trkpt>
      <trkpt lat="58.298994032666087" lon="-4.525809036567807">
        <ele>129.91999999999999</ele>
        <time>2023-08-23T12:21:04Z</time>
      </trkpt>
      <trkpt lat="58.299008030444384" lon="-4.525608960539103">
        <ele>129.43000000000001</ele>
        <time>2023-08-23T12:21:05Z</time>
      </trkpt>
      <trkpt lat="58.29902202822268" lon="-4.525417014956474">
        <ele>128.94999999999999</ele>
        <time>2023-08-23T12:21:06Z</time>
      </trkpt>
      <trkpt lat="58.299037031829357" lon="-4.525205958634615">
        <ele>128.47</ele>
        <time>2023-08-23T12:21:07Z</time>
      </trkpt>
      <trkpt lat="58.299053041264415" lon="-4.524986017495394">
        <ele>127.98999999999999</ele>
        <time>2023-08-23T12:21:08Z</time>
      </trkpt>
      <trkpt lat="58.299040971323848" lon="-4.524770015850663">
        <ele>127.51000000000001</ele>
        <time>2023-08-23T12:21:09Z</time>
      </trkpt>
      <trkpt lat="58.299014987424016" lon="-4.524566000327468">
        <ele>127.03</ele>
        <time>2023-08-23T12:21:10Z</time>
      </trkpt>
      <trkpt lat="58.298981040716171" lon="-4.524347987025976">
        <ele>126.06999999999999</ele>
        <time>2023-08-23T12:21:11Z</time>
      </trkpt>
      <trkpt lat="58.298921026289463" lon="-4.524127962067723">
        <ele>126.06999999999999</ele>
        <time>2023-08-23T12:21:12Z</time>
      </trkpt>
      <trkpt lat="58.298855982720852" lon="-4.523892011493444">
        <ele>125.59</ele>
        <time>2023-08-23T12:21:13Z</time>
      </trkpt>
      <trkpt lat="58.297989964485168" lon="-4.521095976233482">
        <ele>127.51000000000001</ele>
        <time>2023-08-23T12:21:24Z</time>
      </trkpt>
      <trkpt lat="58.296565040946007" lon="-4.517836002632976">
        <ele>128.47</ele>
        <time>2023-08-23T12:21:38Z</time>
      </trkpt>
      <trkpt lat="58.295787032693624" lon="-4.516132967546582">
        <ele>127.03</ele>
        <time>2023-08-23T12:21:46Z</time>
      </trkpt>
      <trkpt lat="58.295681001618505" lon="-4.516047975048423">
        <ele>126.55</ele>
        <time>2023-08-23T12:21:47Z</time>
      </trkpt>
      <trkpt lat="58.29556399025023" lon="-4.515985026955605">
        <ele>126.06999999999999</ele>
        <time>2023-08-23T12:21:48Z</time>
      </trkpt>
      <trkpt lat="58.295433986932039" lon="-4.515946973115206">
        <ele>125.59</ele>
        <time>2023-08-23T12:21:49Z</time>
      </trkpt>
      <trkpt lat="58.295299038290977" lon="-4.515906991437078">
        <ele>125.11</ele>
        <time>2023-08-23T12:21:50Z</time>
      </trkpt>
      <trkpt lat="58.294902993366122" lon="-4.515790985897183">
        <ele>125.11</ele>
        <time>2023-08-23T12:21:53Z</time>
      </trkpt>
      <trkpt lat="58.294786987826228" lon="-4.515652013942599">
        <ele>125.11</ele>
        <time>2023-08-23T12:21:54Z</time>
      </trkpt>
      <trkpt lat="58.294671988114715" lon="-4.515508012846112">
        <ele>125.59</ele>
        <time>2023-08-23T12:21:55Z</time>
      </trkpt>
      <trkpt lat="58.293614024296403" lon="-4.514468992128968">
        <ele>128.47</ele>
        <time>2023-08-23T12:22:03Z</time>
      </trkpt>
      <trkpt lat="58.292791005223989" lon="-4.514056015759707">
        <ele>129.43000000000001</ele>
        <time>2023-08-23T12:22:09Z</time>
      </trkpt>
      <trkpt lat="58.291338002309203" lon="-4.513047002255917">
        <ele>130.88</ele>
        <time>2023-08-23T12:22:20Z</time>
      </trkpt>
      <trkpt lat="58.291242029517889" lon="-4.512928985059261">
        <ele>130.88</ele>
        <time>2023-08-23T12:22:21Z</time>
      </trkpt>
      <trkpt lat="58.291161982342601" lon="-4.512776015326381">
        <ele>130.88</ele>
        <time>2023-08-23T12:22:22Z</time>
      </trkpt>
      <trkpt lat="58.2910739723593" lon="-4.512606030330062">
        <ele>130.40000000000001</ele>
        <time>2023-08-23T12:22:23Z</time>
      </trkpt>
      <trkpt lat="58.290979005396366" lon="-4.512425987049937">
        <ele>130.40000000000001</ele>
        <time>2023-08-23T12:22:24Z</time>
      </trkpt>
      <trkpt lat="58.290446000173688" lon="-4.511258974671364">
        <ele>130.88</ele>
        <time>2023-08-23T12:22:30Z</time>
      </trkpt>
      <trkpt lat="58.290379028767347" lon="-4.511046996340156">
        <ele>131.36000000000001</ele>
        <time>2023-08-23T12:22:31Z</time>
      </trkpt>
      <trkpt lat="58.289745021611452" lon="-4.509268021211028">
        <ele>131.36000000000001</ele>
        <time>2023-08-23T12:22:39Z</time>
      </trkpt>
      <trkpt lat="58.289435980841517" lon="-4.508787989616394">
        <ele>130.40000000000001</ele>
        <time>2023-08-23T12:22:42Z</time>
      </trkpt>
      <trkpt lat="58.289358029142022" lon="-4.508643988519907">
        <ele>130.40000000000001</ele>
        <time>2023-08-23T12:22:43Z</time>
      </trkpt>
      <trkpt lat="58.289302960038185" lon="-4.508489007130265">
        <ele>129.91999999999999</ele>
        <time>2023-08-23T12:22:44Z</time>
      </trkpt>
      <trkpt lat="58.289273036643863" lon="-4.50828499160707">
        <ele>129.91999999999999</ele>
        <time>2023-08-23T12:22:45Z</time>
      </trkpt>
      <trkpt lat="58.289273036643863" lon="-4.508074019104242">
        <ele>129.91999999999999</ele>
        <time>2023-08-23T12:22:46Z</time>
      </trkpt>
      <trkpt lat="58.289273036643863" lon="-4.507851982489228">
        <ele>129.91999999999999</ele>
        <time>2023-08-23T12:22:47Z</time>
      </trkpt>
      <trkpt lat="58.289273036643863" lon="-4.507616031914949">
        <ele>129.91999999999999</ele>
        <time>2023-08-23T12:22:48Z</time>
      </trkpt>
      <trkpt lat="58.289260966703296" lon="-4.507106998935342">
        <ele>129.43000000000001</ele>
        <time>2023-08-23T12:22:50Z</time>
      </trkpt>
      <trkpt lat="58.288937006145716" lon="-4.504448007792234">
        <ele>127.03</ele>
        <time>2023-08-23T12:22:59Z</time>
      </trkpt>
      <trkpt lat="58.288858970627189" lon="-4.503934029489756">
        <ele>127.03</ele>
        <time>2023-08-23T12:23:01Z</time>
      </trkpt>
      <trkpt lat="58.288843967020512" lon="-4.503668993711472">
        <ele>127.03</ele>
        <time>2023-08-23T12:23:02Z</time>
      </trkpt>
      <trkpt lat="58.28881898894906" lon="-4.502781014889479">
        <ele>126.55</ele>
        <time>2023-08-23T12:23:05Z</time>
      </trkpt>
      <trkpt lat="58.288683034479618" lon="-4.499681973829866">
        <ele>124.63</ele>
        <time>2023-08-23T12:23:15Z</time>
      </trkpt>
      <trkpt lat="58.288690997287631" lon="-4.498537005856633">
        <ele>123.19</ele>
        <time>2023-08-23T12:23:19Z</time>
      </trkpt>
      <trkpt lat="58.28873299062252" lon="-4.498264007270336">
        <ele>122.70999999999999</ele>
        <time>2023-08-23T12:23:20Z</time>
      </trkpt>
      <trkpt lat="58.289070026949048" lon="-4.495596969500184">
        <ele>118.86</ele>
        <time>2023-08-23T12:23:29Z</time>
      </trkpt>
      <trkpt lat="58.289437992498279" lon="-4.493485987186432">
        <ele>116.45999999999999</ele>
        <time>2023-08-23T12:23:37Z</time>
      </trkpt>
      <trkpt lat="58.289744015783072" lon="-4.492013035342097">
        <ele>114.05</ele>
        <time>2023-08-23T12:23:43Z</time>
      </trkpt>
      <trkpt lat="58.289809981361032" lon="-4.491781024262309">
        <ele>113.09</ele>
        <time>2023-08-23T12:23:44Z</time>
      </trkpt>
      <trkpt lat="58.290781024843454" lon="-4.489092025905848">
        <ele>108.29000000000001</ele>
        <time>2023-08-23T12:23:55Z</time>
      </trkpt>
      <trkpt lat="58.291899003088474" lon="-4.4863470364362">
        <ele>104.44</ele>
        <time>2023-08-23T12:24:07Z</time>
      </trkpt>
      <trkpt lat="58.291977038607001" lon="-4.486156012862921">
        <ele>104.44</ele>
        <time>2023-08-23T12:24:08Z</time>
      </trkpt>
      <trkpt lat="58.292003022506833" lon="-4.485947974026203">
        <ele>103.95999999999999</ele>
        <time>2023-08-23T12:24:09Z</time>
      </trkpt>
      <trkpt lat="58.292030012235045" lon="-4.485729038715363">
        <ele>103.95999999999999</ele>
        <time>2023-08-23T12:24:10Z</time>
      </trkpt>
      <trkpt lat="58.292324971407652" lon="-4.483738001435995">
        <ele>103</ele>
        <time>2023-08-23T12:24:18Z</time>
      </trkpt>
      <trkpt lat="58.292739037424326" lon="-4.4809989631176">
        <ele>101.56</ele>
        <time>2023-08-23T12:24:28Z</time>
      </trkpt>
      <trkpt lat="58.2927490118891" lon="-4.480750020593405">
        <ele>101.56</ele>
        <time>2023-08-23T12:24:29Z</time>
      </trkpt>
      <trkpt lat="58.292724033817649" lon="-4.480499988421798">
        <ele>101.08</ele>
        <time>2023-08-23T12:24:30Z</time>
      </trkpt>
      <trkpt lat="58.292695032432675" lon="-4.4802460167557">
        <ele>101.08</ele>
        <time>2023-08-23T12:24:31Z</time>
      </trkpt>
      <trkpt lat="58.292667958885431" lon="-4.480002019554377">
        <ele>100.59999999999999</ele>
        <time>2023-08-23T12:24:32Z</time>
      </trkpt>
      <trkpt lat="58.2926419749856" lon="-4.479778977110982">
        <ele>100.59999999999999</ele>
        <time>2023-08-23T12:24:33Z</time>
      </trkpt>
      <trkpt lat="58.292621020227671" lon="-4.479589965194464">
        <ele>100.59999999999999</ele>
        <time>2023-08-23T12:24:34Z</time>
      </trkpt>
      <trkpt lat="58.292669970542192" lon="-4.479359965771437">
        <ele>100.11</ele>
        <time>2023-08-23T12:24:35Z</time>
      </trkpt>
      <trkpt lat="58.292711041867733" lon="-4.479167014360428">
        <ele>99.629999999999995</ele>
        <time>2023-08-23T12:24:36Z</time>
      </trkpt>
      <trkpt lat="58.292762003839016" lon="-4.478954030200839">
        <ele>99.629999999999995</ele>
        <time>2023-08-23T12:24:37Z</time>
      </trkpt>
      <trkpt lat="58.292839033529162" lon="-4.478748003020883">
        <ele>99.150000000000006</ele>
        <time>2023-08-23T12:24:38Z</time>
      </trkpt>
      <trkpt lat="58.293145978823304" lon="-4.477923978120089">
        <ele>98.189999999999998</ele>
        <time>2023-08-23T12:24:42Z</time>
      </trkpt>
      <trkpt lat="58.293214039877057" lon="-4.477743012830615">
        <ele>97.709999999999994</ele>
        <time>2023-08-23T12:24:43Z</time>
      </trkpt>
      <trkpt lat="58.293306995183229" lon="-4.477631030604243">
        <ele>97.709999999999994</ele>
        <time>2023-08-23T12:24:44Z</time>
      </trkpt>
      <trkpt lat="58.293415959924459" lon="-4.477513013407588">
        <ele>97.709999999999994</ele>
        <time>2023-08-23T12:24:45Z</time>
      </trkpt>
      <trkpt lat="58.293533977121115" lon="-4.477385021746159">
        <ele>98.189999999999998</ele>
        <time>2023-08-23T12:24:46Z</time>
      </trkpt>
      <trkpt lat="58.294025994837284" lon="-4.476841036230326">
        <ele>98.189999999999998</ele>
        <time>2023-08-23T12:24:50Z</time>
      </trkpt>
      <trkpt lat="58.294111993163824" lon="-4.476644983515143">
        <ele>98.189999999999998</ele>
        <time>2023-08-23T12:24:51Z</time>
      </trkpt>
      <trkpt lat="58.294181982055306" lon="-4.476436022669077">
        <ele>98.189999999999998</ele>
        <time>2023-08-23T12:24:52Z</time>
      </trkpt>
      <trkpt lat="58.294225987046957" lon="-4.476196970790625">
        <ele>98.189999999999998</ele>
        <time>2023-08-23T12:24:53Z</time>
      </trkpt>
      <trkpt lat="58.294269992038608" lon="-4.475956996902823">
        <ele>98.189999999999998</ele>
        <time>2023-08-23T12:24:54Z</time>
      </trkpt>
      <trkpt lat="58.294291030615568" lon="-4.475710988044739">
        <ele>98.189999999999998</ele>
        <time>2023-08-23T12:24:55Z</time>
      </trkpt>
      <trkpt lat="58.294309973716736" lon="-4.475458022207022">
        <ele>98.189999999999998</ele>
        <time>2023-08-23T12:24:56Z</time>
      </trkpt>
      <trkpt lat="58.294302010908723" lon="-4.475193992257118">
        <ele>98.189999999999998</ele>
        <time>2023-08-23T12:24:57Z</time>
      </trkpt>
      <trkpt lat="58.294282983988523" lon="-4.474926022812724">
        <ele>98.189999999999998</ele>
        <time>2023-08-23T12:24:58Z</time>
      </trkpt>
      <trkpt lat="58.294264040887356" lon="-4.474657969549298">
        <ele>98.189999999999998</ele>
        <time>2023-08-23T12:24:59Z</time>
      </trkpt>
      <trkpt lat="58.293890962377191" lon="-4.472465012222529">
        <ele>98.189999999999998</ele>
        <time>2023-08-23T12:25:07Z</time>
      </trkpt>
      <trkpt lat="58.293606983497739" lon="-4.469423973932862">
        <ele>98.670000000000002</ele>
        <time>2023-08-23T12:25:18Z</time>
      </trkpt>
      <trkpt lat="58.29356599599123" lon="-4.468432981520891">
        <ele>99.150000000000006</ele>
        <time>2023-08-23T12:25:22Z</time>
      </trkpt>
      <trkpt lat="58.293504975736141" lon="-4.468264002352953">
        <ele>98.670000000000002</ele>
        <time>2023-08-23T12:25:23Z</time>
      </trkpt>
      <trkpt lat="58.293439010158181" lon="-4.468100974336267">
        <ele>98.670000000000002</ele>
        <time>2023-08-23T12:25:24Z</time>
      </trkpt>
      <trkpt lat="58.293370027095079" lon="-4.467930989339948">
        <ele>98.670000000000002</ele>
        <time>2023-08-23T12:25:25Z</time>
      </trkpt>
      <trkpt lat="58.293300038203597" lon="-4.467758992686868">
        <ele>98.670000000000002</ele>
        <time>2023-08-23T12:25:26Z</time>
      </trkpt>
      <trkpt lat="58.293159976601601" lon="-4.467411981895566">
        <ele>98.670000000000002</ele>
        <time>2023-08-23T12:25:28Z</time>
      </trkpt>
      <trkpt lat="58.293089987710118" lon="-4.467240991070867">
        <ele>98.670000000000002</ele>
        <time>2023-08-23T12:25:29Z</time>
      </trkpt>
      <trkpt lat="58.29300700686872" lon="-4.467036975547671">
        <ele>98.189999999999998</ele>
        <time>2023-08-23T12:25:30Z</time>
      </trkpt>
      <trkpt lat="58.292824029922485" lon="-4.465221958234906">
        <ele>97.230000000000004</ele>
        <time>2023-08-23T12:25:38Z</time>
      </trkpt>
      <trkpt lat="58.292971970513463" lon="-4.462376972660422">
        <ele>98.189999999999998</ele>
        <time>2023-08-23T12:25:48Z</time>
      </trkpt>
      <trkpt lat="58.293193001300097" lon="-4.460945008322597">
        <ele>98.189999999999998</ele>
        <time>2023-08-23T12:25:53Z</time>
      </trkpt>
      <trkpt lat="58.293202975764871" lon="-4.460634961724281">
        <ele>97.709999999999994</ele>
        <time>2023-08-23T12:25:54Z</time>
      </trkpt>
      <trkpt lat="58.293205993250012" lon="-4.460323993116617">
        <ele>97.230000000000004</ele>
        <time>2023-08-23T12:25:55Z</time>
      </trkpt>
      <trkpt lat="58.293085964396596" lon="-4.457034012302756">
        <ele>95.310000000000002</ele>
        <time>2023-08-23T12:26:06Z</time>
      </trkpt>
      <trkpt lat="58.293028967455029" lon="-4.456228008493781">
        <ele>95.310000000000002</ele>
        <time>2023-08-23T12:26:09Z</time>
      </trkpt>
      <trkpt lat="58.293028967455029" lon="-4.455989962443709">
        <ele>94.829999999999998</ele>
        <time>2023-08-23T12:26:10Z</time>
      </trkpt>
      <trkpt lat="58.293054029345512" lon="-4.455763986334205">
        <ele>94.349999999999994</ele>
        <time>2023-08-23T12:26:11Z</time>
      </trkpt>
      <trkpt lat="58.293109014630318" lon="-4.455514037981629">
        <ele>93.870000000000005</ele>
        <time>2023-08-23T12:26:12Z</time>
      </trkpt>
      <trkpt lat="58.293168023228645" lon="-4.455246990546584">
        <ele>93.390000000000001</ele>
        <time>2023-08-23T12:26:13Z</time>
      </trkpt>
      <trkpt lat="58.293749978765845" lon="-4.452387001365423">
        <ele>90.5</ele>
        <time>2023-08-23T12:26:22Z</time>
      </trkpt>
      <trkpt lat="58.294062959030271" lon="-4.450594028457999">
        <ele>89.060000000000002</ele>
        <time>2023-08-23T12:26:28Z</time>
      </trkpt>
      <trkpt lat="58.294076034799218" lon="-4.450305020436645">
        <ele>89.060000000000002</ele>
        <time>2023-08-23T12:26:29Z</time>
      </trkpt>
      <trkpt lat="58.294057007879019" lon="-4.449996985495091">
        <ele>88.579999999999998</ele>
        <time>2023-08-23T12:26:30Z</time>
      </trkpt>
      <trkpt lat="58.294023983180523" lon="-4.449696997180581">
        <ele>88.579999999999998</ele>
        <time>2023-08-23T12:26:31Z</time>
      </trkpt>
      <trkpt lat="58.293993975967169" lon="-4.449419975280762">
        <ele>88.099999999999994</ele>
        <time>2023-08-23T12:26:32Z</time>
      </trkpt>
      <trkpt lat="58.293916024267673" lon="-4.44915602914989">
        <ele>87.620000000000005</ele>
        <time>2023-08-23T12:26:33Z</time>
      </trkpt>
      <trkpt lat="58.293847963213921" lon="-4.448926029726863">
        <ele>87.620000000000005</ele>
        <time>2023-08-23T12:26:34Z</time>
      </trkpt>
      <trkpt lat="58.293767999857664" lon="-4.448753027245402">
        <ele>87.140000000000001</ele>
        <time>2023-08-23T12:26:35Z</time>
      </trkpt>
      <trkpt lat="58.293668003752828" lon="-4.448624029755592">
        <ele>87.140000000000001</ele>
        <time>2023-08-23T12:26:36Z</time>
      </trkpt>
      <trkpt lat="58.293548980727792" lon="-4.448510035872459">
        <ele>86.659999999999997</ele>
        <time>2023-08-23T12:26:37Z</time>
      </trkpt>
      <trkpt lat="58.293421994894743" lon="-4.448390007019043">
        <ele>86.659999999999997</ele>
        <time>2023-08-23T12:26:38Z</time>
      </trkpt>
      <trkpt lat="58.292204020544887" lon="-4.447161974385381">
        <ele>86.659999999999997</ele>
        <time>2023-08-23T12:26:47Z</time>
      </trkpt>
      <trkpt lat="58.291462976485491" lon="-4.446118008345366">
        <ele>85.209999999999994</ele>
        <time>2023-08-23T12:26:53Z</time>
      </trkpt>
      <trkpt lat="58.290153974667192" lon="-4.44460398517549">
        <ele>81.370000000000005</ele>
        <time>2023-08-23T12:27:02Z</time>
      </trkpt>
      <trkpt lat="58.288756040856242" lon="-4.442507000640035">
        <ele>81.370000000000005</ele>
        <time>2023-08-23T12:27:14Z</time>
      </trkpt>
      <trkpt lat="58.288543978706002" lon="-4.442188991233707">
        <ele>82.329999999999998</ele>
        <time>2023-08-23T12:27:20Z</time>
      </trkpt>
      <trkpt lat="58.288414981216192" lon="-4.442039038985968">
        <ele>82.329999999999998</ele>
        <time>2023-08-23T12:27:23Z</time>
      </trkpt>
      <trkpt lat="58.288371982052922" lon="-4.442037027329207">
        <ele>82.329999999999998</ele>
        <time>2023-08-23T12:27:24Z</time>
      </trkpt>
      <trkpt lat="58.288304004818201" lon="-4.442034009844065">
        <ele>82.329999999999998</ele>
        <time>2023-08-23T12:27:25Z</time>
      </trkpt>
      <trkpt lat="58.287499006837606" lon="-4.442135011777282">
        <ele>81.370000000000005</ele>
        <time>2023-08-23T12:27:33Z</time>
      </trkpt>
      <trkpt lat="58.287164987996221" lon="-4.442408010363579">
        <ele>80.890000000000001</ele>
        <time>2023-08-23T12:27:36Z</time>
      </trkpt>
      <trkpt lat="58.287063986063004" lon="-4.442551005631685">
        <ele>80.890000000000001</ele>
        <time>2023-08-23T12:27:37Z</time>
      </trkpt>
      <trkpt lat="58.286961978301406" lon="-4.442697018384934">
        <ele>80.890000000000001</ele>
        <time>2023-08-23T12:27:38Z</time>
      </trkpt>
      <trkpt lat="58.286440037190914" lon="-4.443616010248661">
        <ele>81.849999999999994</ele>
        <time>2023-08-23T12:27:44Z</time>
      </trkpt>
      <trkpt lat="58.286150023341179" lon="-4.444012977182865">
        <ele>81.370000000000005</ele>
        <time>2023-08-23T12:27:48Z</time>
      </trkpt>
      <trkpt lat="58.286099983379245" lon="-4.444066034629941">
        <ele>81.370000000000005</ele>
        <time>2023-08-23T12:27:49Z</time>
      </trkpt>
      <trkpt lat="58.285871995612979" lon="-4.444249011576176">
        <ele>80.890000000000001</ele>
        <time>2023-08-23T12:27:52Z</time>
      </trkpt>
      <trkpt lat="58.285774011164904" lon="-4.444249011576176">
        <ele>81.370000000000005</ele>
        <time>2023-08-23T12:27:53Z</time>
      </trkpt>
      <trkpt lat="58.285674015060067" lon="-4.444249011576176">
        <ele>81.849999999999994</ele>
        <time>2023-08-23T12:27:54Z</time>
      </trkpt>
      <trkpt lat="58.285345025360584" lon="-4.444202994927764">
        <ele>83.290000000000006</ele>
        <time>2023-08-23T12:27:57Z</time>
      </trkpt>
      <trkpt lat="58.285117037594318" lon="-4.444133006036282">
        <ele>83.769999999999996</ele>
        <time>2023-08-23T12:27:59Z</time>
      </trkpt>
      <trkpt lat="58.28499298542738" lon="-4.444095036014915">
        <ele>84.25</ele>
        <time>2023-08-23T12:28:00Z</time>
      </trkpt>
      <trkpt lat="58.283584993332624" lon="-4.443736039102078">
        <ele>86.180000000000007</ele>
        <time>2023-08-23T12:28:11Z</time>
      </trkpt>
      <trkpt lat="58.282528035342693" lon="-4.443638976663351">
        <ele>89.540000000000006</ele>
        <time>2023-08-23T12:28:20Z</time>
      </trkpt>
      <trkpt lat="58.281603008508682" lon="-4.44372002966702">
        <ele>95.310000000000002</ele>
        <time>2023-08-23T12:28:29Z</time>
      </trkpt>
      <trkpt lat="58.281358005478978" lon="-4.443594971671701">
        <ele>95.790000000000006</ele>
        <time>2023-08-23T12:28:32Z</time>
      </trkpt>
      <trkpt lat="58.281286004930735" lon="-4.44355096668005">
        <ele>95.790000000000006</ele>
        <time>2023-08-23T12:28:33Z</time>
      </trkpt>
      <trkpt lat="58.281238982453942" lon="-4.443494975566864">
        <ele>95.790000000000006</ele>
        <time>2023-08-23T12:28:35Z</time>
      </trkpt>
      <trkpt lat="58.28106002882123" lon="-4.44320403970778">
        <ele>96.269999999999996</ele>
        <time>2023-08-23T12:28:38Z</time>
      </trkpt>
      <trkpt lat="58.280838998034596" lon="-4.442662987858057">
        <ele>97.230000000000004</ele>
        <time>2023-08-23T12:28:45Z</time>
      </trkpt>
      <trkpt lat="58.280689967796206" lon="-4.442102992907167">
        <ele>98.670000000000002</ele>
        <time>2023-08-23T12:28:53Z</time>
      </trkpt>
      <trkpt lat="58.280668007209897" lon="-4.442028980702162">
        <ele>98.670000000000002</ele>
        <time>2023-08-23T12:28:54Z</time>
      </trkpt>
      <trkpt lat="58.280648980289698" lon="-4.441963015124202">
        <ele>99.150000000000006</ele>
        <time>2023-08-23T12:28:55Z</time>
      </trkpt>
      <trkpt lat="58.280628025531769" lon="-4.4418940320611">
        <ele>99.150000000000006</ele>
        <time>2023-08-23T12:28:56Z</time>
      </trkpt>
      <trkpt lat="58.280602041631937" lon="-4.441807027906179">
        <ele>99.150000000000006</ele>
        <time>2023-08-23T12:28:57Z</time>
      </trkpt>
      <trkpt lat="58.280405988916755" lon="-4.441145025193691">
        <ele>98.189999999999998</ele>
        <time>2023-08-23T12:29:06Z</time>
      </trkpt>
      <trkpt lat="58.280357960611582" lon="-4.440984008833766">
        <ele>98.189999999999998</ele>
        <time>2023-08-23T12:29:10Z</time>
      </trkpt>
      <trkpt lat="58.280316973105073" lon="-4.440845036879182">
        <ele>98.189999999999998</ele>
        <time>2023-08-23T12:29:23Z</time>
      </trkpt>
      <trkpt lat="58.280053026974201" lon="-4.439957980066538">
        <ele>99.150000000000006</ele>
        <time>2023-08-23T12:29:29Z</time>
      </trkpt>
      <trkpt lat="58.279466964304447" lon="-4.43798303604126">
        <ele>102.52</ele>
        <time>2023-08-23T12:29:40Z</time>
      </trkpt>
      <trkpt lat="58.279157001525164" lon="-4.436969999223948">
        <ele>108.29000000000001</ele>
        <time>2023-08-23T12:29:49Z</time>
      </trkpt>
      <trkpt lat="58.27906102873385" lon="-4.436689037829638">
        <ele>109.25</ele>
        <time>2023-08-23T12:29:52Z</time>
      </trkpt>
      <trkpt lat="58.279033033177257" lon="-4.436608990654349">
        <ele>109.73</ele>
        <time>2023-08-23T12:29:53Z</time>
      </trkpt>
      <trkpt lat="58.279013000428677" lon="-4.436550987884402">
        <ele>109.73</ele>
        <time>2023-08-23T12:29:54Z</time>
      </trkpt>
      <trkpt lat="58.279013000428677" lon="-4.436550987884402">
        <ele>110.20999999999999</ele>
        <time>2023-08-23T12:30:03Z</time>
      </trkpt>
      <trkpt lat="58.278820971027017" lon="-4.436090989038348">
        <ele>111.65000000000001</ele>
        <time>2023-08-23T12:30:16Z</time>
      </trkpt>
      <trkpt lat="58.278755005449057" lon="-4.435956962406635">
        <ele>111.65000000000001</ele>
        <time>2023-08-23T12:30:17Z</time>
      </trkpt>
      <trkpt lat="58.278620978817344" lon="-4.435709025710821">
        <ele>111.65000000000001</ele>
        <time>2023-08-23T12:30:19Z</time>
      </trkpt>
      <trkpt lat="58.278571022674441" lon="-4.435639958828688">
        <ele>111.65000000000001</ele>
        <time>2023-08-23T12:30:20Z</time>
      </trkpt>
      <trkpt lat="58.278541015461087" lon="-4.435597965493798">
        <ele>111.65000000000001</ele>
        <time>2023-08-23T12:30:21Z</time>
      </trkpt>
      <trkpt lat="58.278520982712507" lon="-4.435570975765586">
        <ele>111.65000000000001</ele>
        <time>2023-08-23T12:30:22Z</time>
      </trkpt>
      <trkpt lat="58.278520982712507" lon="-4.435570975765586">
        <ele>111.17</ele>
        <time>2023-08-23T12:30:33Z</time>
      </trkpt>
      <trkpt lat="58.278520982712507" lon="-4.435570975765586">
        <ele>110.69</ele>
        <time>2023-08-23T12:31:25Z</time>
      </trkpt>
      <trkpt lat="58.278520982712507" lon="-4.435570975765586">
        <ele>110.69</ele>
        <time>2023-08-23T12:32:17Z</time>
      </trkpt>
      <trkpt lat="58.278520982712507" lon="-4.435570975765586">
        <ele>110.69</ele>
        <time>2023-08-23T12:33:01Z</time>
      </trkpt>
      <trkpt lat="58.278520982712507" lon="-4.435570975765586">
        <ele>110.20999999999999</ele>
        <time>2023-08-23T12:33:55Z</time>
      </trkpt>
      <trkpt lat="58.278520982712507" lon="-4.435570975765586">
        <ele>110.20999999999999</ele>
        <time>2023-08-23T12:34:38Z</time>
      </trkpt>
      <trkpt lat="58.278520982712507" lon="-4.435570975765586">
        <ele>110.69</ele>
        <time>2023-08-23T12:35:24Z</time>
      </trkpt>
      <trkpt lat="58.278520982712507" lon="-4.435570975765586">
        <ele>110.69</ele>
        <time>2023-08-23T12:36:18Z</time>
      </trkpt>
      <trkpt lat="58.278479995205998" lon="-4.435727968811989">
        <ele>116.94</ele>
        <time>2023-08-23T12:37:37Z</time>
      </trkpt>
      <trkpt lat="58.278492987155914" lon="-4.435637025162578">
        <ele>106.84</ele>
        <time>2023-08-23T12:38:17Z</time>
      </trkpt>
      <trkpt lat="58.278494998812675" lon="-4.435625039041042">
        <ele>109.73</ele>
        <time>2023-08-23T12:38:54Z</time>
      </trkpt>
      <trkpt lat="58.278510002419353" lon="-4.435667032375932">
        <ele>109.25</ele>
        <time>2023-08-23T12:39:38Z</time>
      </trkpt>
      <trkpt lat="58.278493992984295" lon="-4.435533005744219">
        <ele>109.25</ele>
        <time>2023-08-23T12:39:41Z</time>
      </trkpt>
      <trkpt lat="58.278447976335883" lon="-4.435468968003988">
        <ele>108.77</ele>
        <time>2023-08-23T12:39:42Z</time>
      </trkpt>
      <trkpt lat="58.278385028243065" lon="-4.435381963849068">
        <ele>108.77</ele>
        <time>2023-08-23T12:39:43Z</time>
      </trkpt>
      <trkpt lat="58.278295006603003" lon="-4.435311974957585">
        <ele>108.77</ele>
        <time>2023-08-23T12:39:44Z</time>
      </trkpt>
      <trkpt lat="58.278198027983308" lon="-4.435246009379625">
        <ele>108.29000000000001</ele>
        <time>2023-08-23T12:39:45Z</time>
      </trkpt>
      <trkpt lat="58.278093002736568" lon="-4.435174008831382">
        <ele>108.29000000000001</ele>
        <time>2023-08-23T12:39:46Z</time>
      </trkpt>
      <trkpt lat="58.277980014681816" lon="-4.435095973312855">
        <ele>108.29000000000001</ele>
        <time>2023-08-23T12:39:47Z</time>
      </trkpt>
      <trkpt lat="58.276824988424778" lon="-4.434910984709859">
        <ele>104.92</ele>
        <time>2023-08-23T12:39:56Z</time>
      </trkpt>
      <trkpt lat="58.27609802596271" lon="-4.434872008860111">
        <ele>100.59999999999999</ele>
        <time>2023-08-23T12:40:02Z</time>
      </trkpt>
      <trkpt lat="58.275996018201113" lon="-4.43491199053824">
        <ele>100.11</ele>
        <time>2023-08-23T12:40:03Z</time>
      </trkpt>
      <trkpt lat="58.275913037359715" lon="-4.434996983036399">
        <ele>100.11</ele>
        <time>2023-08-23T12:40:04Z</time>
      </trkpt>
      <trkpt lat="58.275830978527665" lon="-4.435081975534558">
        <ele>100.11</ele>
        <time>2023-08-23T12:40:05Z</time>
      </trkpt>
      <trkpt lat="58.275747997686267" lon="-4.435168979689479">
        <ele>99.629999999999995</ele>
        <time>2023-08-23T12:40:06Z</time>
      </trkpt>
      <trkpt lat="58.275660993531346" lon="-4.435259001329541">
        <ele>99.629999999999995</ele>
        <time>2023-08-23T12:40:07Z</time>
      </trkpt>
      <trkpt lat="58.274686010554433" lon="-4.436427019536495">
        <ele>102.04000000000001</ele>
        <time>2023-08-23T12:40:16Z</time>
      </trkpt>
      <trkpt lat="58.274159040302038" lon="-4.437197986990213">
        <ele>103</ele>
        <time>2023-08-23T12:40:21Z</time>
      </trkpt>
      <trkpt lat="58.273517992347479" lon="-4.438331974670291">
        <ele>103.95999999999999</ele>
        <time>2023-08-23T12:40:29Z</time>
      </trkpt>
      <trkpt lat="58.273352030664682" lon="-4.438627017661929">
        <ele>103.95999999999999</ele>
        <time>2023-08-23T12:40:32Z</time>
      </trkpt>
      <trkpt lat="58.273237030953169" lon="-4.438933962956071">
        <ele>104.44</ele>
        <time>2023-08-23T12:40:35Z</time>
      </trkpt>
      <trkpt lat="58.273216998204589" lon="-4.439005041494966">
        <ele>104.92</ele>
        <time>2023-08-23T12:40:36Z</time>
      </trkpt>
      <trkpt lat="58.273205012083054" lon="-4.439077964052558">
        <ele>104.92</ele>
        <time>2023-08-23T12:40:37Z</time>
      </trkpt>
      <trkpt lat="58.273194031789899" lon="-4.439136972650886">
        <ele>104.92</ele>
        <time>2023-08-23T12:40:38Z</time>
      </trkpt>
      <trkpt lat="58.273184979334474" lon="-4.439190030097961">
        <ele>104.92</ele>
        <time>2023-08-23T12:40:39Z</time>
      </trkpt>
      <trkpt lat="58.273177016526461" lon="-4.439238980412483">
        <ele>105.40000000000001</ele>
        <time>2023-08-23T12:40:40Z</time>
      </trkpt>
      <trkpt lat="58.273167964071035" lon="-4.439290026202798">
        <ele>105.40000000000001</ele>
        <time>2023-08-23T12:40:41Z</time>
      </trkpt>
      <trkpt lat="58.273156983777881" lon="-4.439353980123997">
        <ele>105.40000000000001</ele>
        <time>2023-08-23T12:40:42Z</time>
      </trkpt>
      <trkpt lat="58.273141980171204" lon="-4.439439978450537">
        <ele>105.88</ele>
        <time>2023-08-23T12:40:43Z</time>
      </trkpt>
      <trkpt lat="58.273123037070036" lon="-4.439550032839179">
        <ele>105.88</ele>
        <time>2023-08-23T12:40:44Z</time>
      </trkpt>
      <trkpt lat="58.273099986836314" lon="-4.439679030328989">
        <ele>105.88</ele>
        <time>2023-08-23T12:40:45Z</time>
      </trkpt>
      <trkpt lat="58.273072997108102" lon="-4.439837029203773">
        <ele>105.88</ele>
        <time>2023-08-23T12:40:46Z</time>
      </trkpt>
      <trkpt lat="58.272543009370565" lon="-4.441280979663134">
        <ele>104.92</ele>
        <time>2023-08-23T12:40:54Z</time>
      </trkpt>
      <trkpt lat="58.272480983287096" lon="-4.44140000268817">
        <ele>104.44</ele>
        <time>2023-08-23T12:40:59Z</time>
      </trkpt>
      <trkpt lat="58.272285014390945" lon="-4.441704014316201">
        <ele>104.44</ele>
        <time>2023-08-23T12:41:05Z</time>
      </trkpt>
      <trkpt lat="58.271461995318532" lon="-4.442766001448035">
        <ele>103.95999999999999</ele>
        <time>2023-08-23T12:41:13Z</time>
      </trkpt>
      <trkpt lat="58.270666971802711" lon="-4.443252990022302">
        <ele>103.95999999999999</ele>
        <time>2023-08-23T12:41:19Z</time>
      </trkpt>
      <trkpt lat="58.270538980141282" lon="-4.443365978077054">
        <ele>103.95999999999999</ele>
        <time>2023-08-23T12:41:20Z</time>
      </trkpt>
      <trkpt lat="58.269557962194085" lon="-4.445007992908359">
        <ele>107.81</ele>
        <time>2023-08-23T12:41:29Z</time>
      </trkpt>
      <trkpt lat="58.268505027517676" lon="-4.446604996919632">
        <ele>113.56999999999999</ele>
        <time>2023-08-23T12:41:38Z</time>
      </trkpt>
      <trkpt lat="58.266980024054646" lon="-4.44799697957933">
        <ele>120.3</ele>
        <time>2023-08-23T12:41:49Z</time>
      </trkpt>
      <trkpt lat="58.266787994652987" lon="-4.448252962902188">
        <ele>121.26000000000001</ele>
        <time>2023-08-23T12:41:51Z</time>
      </trkpt>
      <trkpt lat="58.266696967184544" lon="-4.448430994525552">
        <ele>121.26000000000001</ele>
        <time>2023-08-23T12:41:52Z</time>
      </trkpt>
      <trkpt lat="58.266598982736468" lon="-4.448622018098831">
        <ele>121.73999999999999</ele>
        <time>2023-08-23T12:41:53Z</time>
      </trkpt>
      <trkpt lat="58.266399996355176" lon="-4.449012028053403">
        <ele>122.22</ele>
        <time>2023-08-23T12:41:55Z</time>
      </trkpt>
      <trkpt lat="58.266264963895082" lon="-4.449185030534864">
        <ele>122.22</ele>
        <time>2023-08-23T12:41:56Z</time>
      </trkpt>
      <trkpt lat="58.266133032739162" lon="-4.449355015531182">
        <ele>122.22</ele>
        <time>2023-08-23T12:41:57Z</time>
      </trkpt>
      <trkpt lat="58.264599982649088" lon="-4.45064096711576">
        <ele>127.51000000000001</ele>
        <time>2023-08-23T12:42:07Z</time>
      </trkpt>
      <trkpt lat="58.263069028034806" lon="-4.452160019427538">
        <ele>136.16</ele>
        <time>2023-08-23T12:42:18Z</time>
      </trkpt>
      <trkpt lat="58.262415993958712" lon="-4.452730994671583">
        <ele>140.97</ele>
        <time>2023-08-23T12:42:23Z</time>
      </trkpt>
      <trkpt lat="58.262300994247198" lon="-4.4528319966048">
        <ele>141.93000000000001</ele>
        <time>2023-08-23T12:42:24Z</time>
      </trkpt>
      <trkpt lat="58.262234022840858" lon="-4.452994018793106">
        <ele>142.88999999999999</ele>
        <time>2023-08-23T12:42:25Z</time>
      </trkpt>
      <trkpt lat="58.262152969837189" lon="-4.453191999346018">
        <ele>143.84999999999999</ele>
        <time>2023-08-23T12:42:26Z</time>
      </trkpt>
      <trkpt lat="58.262064959853888" lon="-4.453405989333987">
        <ele>144.34</ele>
        <time>2023-08-23T12:42:27Z</time>
      </trkpt>
      <trkpt lat="58.261972004547715" lon="-4.453632971271873">
        <ele>144.81999999999999</ele>
        <time>2023-08-23T12:42:28Z</time>
      </trkpt>
      <trkpt lat="58.26187502592802" lon="-4.453869005665183">
        <ele>145.78</ele>
        <time>2023-08-23T12:42:29Z</time>
      </trkpt>
      <trkpt lat="58.261762959882617" lon="-4.454095987603068">
        <ele>146.25999999999999</ele>
        <time>2023-08-23T12:42:30Z</time>
      </trkpt>
      <trkpt lat="58.261631028726697" lon="-4.454279970377684">
        <ele>147.22</ele>
        <time>2023-08-23T12:42:31Z</time>
      </trkpt>
      <trkpt lat="58.261501025408506" lon="-4.45446303114295">
        <ele>148.18000000000001</ele>
        <time>2023-08-23T12:42:32Z</time>
      </trkpt>
      <trkpt lat="58.261371022090316" lon="-4.454645002260804">
        <ele>149.13999999999999</ele>
        <time>2023-08-23T12:42:33Z</time>
      </trkpt>
      <trkpt lat="58.261238001286983" lon="-4.454830996692181">
        <ele>149.62</ele>
        <time>2023-08-23T12:42:34Z</time>
      </trkpt>
      <trkpt lat="58.261105986312032" lon="-4.455015985295177">
        <ele>150.58000000000001</ele>
        <time>2023-08-23T12:42:35Z</time>
      </trkpt>
      <trkpt lat="58.260890990495682" lon="-4.455446982756257">
        <ele>152.03</ele>
        <time>2023-08-23T12:42:37Z</time>
      </trkpt>
      <trkpt lat="58.260788982734084" lon="-4.455693997442722">
        <ele>152.99000000000001</ele>
        <time>2023-08-23T12:42:38Z</time>
      </trkpt>
      <trkpt lat="58.260501986369491" lon="-4.456490026786923">
        <ele>155.38999999999999</ele>
        <time>2023-08-23T12:42:41Z</time>
      </trkpt>
      <trkpt lat="58.260380029678345" lon="-4.456722959876061">
        <ele>155.87</ele>
        <time>2023-08-23T12:42:42Z</time>
      </trkpt>
      <trkpt lat="58.260248014703393" lon="-4.456943990662694">
        <ele>156.34999999999999</ele>
        <time>2023-08-23T12:42:43Z</time>
      </trkpt>
      <trkpt lat="58.258914034813643" lon="-4.458658006042242">
        <ele>159.24000000000001</ele>
        <time>2023-08-23T12:42:52Z</time>
      </trkpt>
      <trkpt lat="58.258669031783938" lon="-4.458951037377119">
        <ele>160.19999999999999</ele>
        <time>2023-08-23T12:42:54Z</time>
      </trkpt>
      <trkpt lat="58.25854598544538" lon="-4.459096966311336">
        <ele>161.16</ele>
        <time>2023-08-23T12:42:55Z</time>
      </trkpt>
      <trkpt lat="58.258482031524181" lon="-4.45927700959146">
        <ele>161.63999999999999</ele>
        <time>2023-08-23T12:42:56Z</time>
      </trkpt>
      <trkpt lat="58.258405001834035" lon="-4.459488987922669">
        <ele>162.12</ele>
        <time>2023-08-23T12:42:57Z</time>
      </trkpt>
      <trkpt lat="58.258324032649398" lon="-4.459714964032173">
        <ele>162.59999999999999</ele>
        <time>2023-08-23T12:42:58Z</time>
      </trkpt>
      <trkpt lat="58.258153041824698" lon="-4.460192983970046">
        <ele>163.56</ele>
        <time>2023-08-23T12:43:00Z</time>
      </trkpt>
      <trkpt lat="58.258066037669778" lon="-4.460433963686228">
        <ele>164.03999999999999</ele>
        <time>2023-08-23T12:43:01Z</time>
      </trkpt>
      <trkpt lat="58.257948020473123" lon="-4.460624987259507">
        <ele>165</ele>
        <time>2023-08-23T12:43:02Z</time>
      </trkpt>
      <trkpt lat="58.257822040468454" lon="-4.460810981690884">
        <ele>165.47999999999999</ele>
        <time>2023-08-23T12:43:03Z</time>
      </trkpt>
      <trkpt lat="58.257695976644754" lon="-4.460997981950641">
        <ele>165.96000000000001</ele>
        <time>2023-08-23T12:43:04Z</time>
      </trkpt>
      <trkpt lat="58.257567984983325" lon="-4.461186993867159">
        <ele>166.44999999999999</ele>
        <time>2023-08-23T12:43:05Z</time>
      </trkpt>
      <trkpt lat="58.257452985271811" lon="-4.461416993290186">
        <ele>166.93000000000001</ele>
        <time>2023-08-23T12:43:06Z</time>
      </trkpt>
      <trkpt lat="58.256907993927598" lon="-4.462621975690126">
        <ele>167.88999999999999</ele>
        <time>2023-08-23T12:43:11Z</time>
      </trkpt>
      <trkpt lat="58.256815960630774" lon="-4.462900003418326">
        <ele>168.37</ele>
        <time>2023-08-23T12:43:12Z</time>
      </trkpt>
      <trkpt lat="58.255876014009118" lon="-4.465362019836903">
        <ele>173.16999999999999</ele>
        <time>2023-08-23T12:43:21Z</time>
      </trkpt>
      <trkpt lat="58.255639979615808" lon="-4.465754963457584">
        <ele>173.66</ele>
        <time>2023-08-23T12:43:23Z</time>
      </trkpt>
      <trkpt lat="58.255500001832843" lon="-4.465912962332368">
        <ele>174.13999999999999</ele>
        <time>2023-08-23T12:43:24Z</time>
      </trkpt>
      <trkpt lat="58.254409013316035" lon="-4.467353979125619">
        <ele>173.16999999999999</ele>
        <time>2023-08-23T12:43:32Z</time>
      </trkpt>
      <trkpt lat="58.254013974219561" lon="-4.468014976009727">
        <ele>173.16999999999999</ele>
        <time>2023-08-23T12:43:35Z</time>
      </trkpt>
      <trkpt lat="58.253880031406879" lon="-4.468240030109882">
        <ele>173.16999999999999</ele>
        <time>2023-08-23T12:43:36Z</time>
      </trkpt>
      <trkpt lat="58.253714991733432" lon="-4.468386964872479">
        <ele>172.69</ele>
        <time>2023-08-23T12:43:37Z</time>
      </trkpt>
      <trkpt lat="58.253548024222255" lon="-4.468525014817715">
        <ele>172.69</ele>
        <time>2023-08-23T12:43:38Z</time>
      </trkpt>
      <trkpt lat="58.253382984548807" lon="-4.468661975115538">
        <ele>172.21000000000001</ele>
        <time>2023-08-23T12:43:39Z</time>
      </trkpt>
      <trkpt lat="58.253219034522772" lon="-4.468792984262109">
        <ele>172.21000000000001</ele>
        <time>2023-08-23T12:43:40Z</time>
      </trkpt>
      <trkpt lat="58.251941967755556" lon="-4.470000984147191">
        <ele>169.81</ele>
        <time>2023-08-23T12:43:48Z</time>
      </trkpt>
      <trkpt lat="58.249756973236799" lon="-4.472323022782803">
        <ele>165</ele>
        <time>2023-08-23T12:44:02Z</time>
      </trkpt>
      <trkpt lat="58.247987972572446" lon="-4.473588019609451">
        <ele>165.96000000000001</ele>
        <time>2023-08-23T12:44:13Z</time>
      </trkpt>
      <trkpt lat="58.245855029672384" lon="-4.475054014474154">
        <ele>169.33000000000001</ele>
        <time>2023-08-23T12:44:26Z</time>
      </trkpt>
      <trkpt lat="58.244936037808657" lon="-4.475619038566947">
        <ele>172.21000000000001</ele>
        <time>2023-08-23T12:44:32Z</time>
      </trkpt>
      <trkpt lat="58.244798993691802" lon="-4.475742001086474">
        <ele>172.21000000000001</ele>
        <time>2023-08-23T12:44:33Z</time>
      </trkpt>
      <trkpt lat="58.244136990979314" lon="-4.476389000192285">
        <ele>173.16999999999999</ele>
        <time>2023-08-23T12:44:38Z</time>
      </trkpt>
      <trkpt lat="58.244041018188" lon="-4.476499976590276">
        <ele>173.16999999999999</ele>
        <time>2023-08-23T12:44:39Z</time>
      </trkpt>
      <trkpt lat="58.243960971012712" lon="-4.476750008761883">
        <ele>173.66</ele>
        <time>2023-08-23T12:44:40Z</time>
      </trkpt>
      <trkpt lat="58.243884025141597" lon="-4.476990988478065">
        <ele>173.66</ele>
        <time>2023-08-23T12:44:41Z</time>
      </trkpt>
      <trkpt lat="58.243803977966309" lon="-4.477244038134813">
        <ele>174.13999999999999</ele>
        <time>2023-08-23T12:44:42Z</time>
      </trkpt>
      <trkpt lat="58.243533996865153" lon="-4.478026991710067">
        <ele>175.09999999999999</ele>
        <time>2023-08-23T12:44:45Z</time>
      </trkpt>
      <trkpt lat="58.242961009964347" lon="-4.47897900827229">
        <ele>176.53999999999999</ele>
        <time>2023-08-23T12:44:50Z</time>
      </trkpt>
      <trkpt lat="58.242843998596072" lon="-4.479123009368777">
        <ele>176.53999999999999</ele>
        <time>2023-08-23T12:44:51Z</time>
      </trkpt>
      <trkpt lat="58.242703014984727" lon="-4.479169026017189">
        <ele>176.53999999999999</ele>
        <time>2023-08-23T12:44:52Z</time>
      </trkpt>
      <trkpt lat="58.241264009848237" lon="-4.479582002386451">
        <ele>177.5</ele>
        <time>2023-08-23T12:45:01Z</time>
      </trkpt>
      <trkpt lat="58.239791980013251" lon="-4.479225017130375">
        <ele>177.5</ele>
        <time>2023-08-23T12:45:10Z</time>
      </trkpt>
      <trkpt lat="58.2394889742136" lon="-4.479225017130375">
        <ele>177.5</ele>
        <time>2023-08-23T12:45:12Z</time>
      </trkpt>
      <trkpt lat="58.239334998652339" lon="-4.479283019900322">
        <ele>177.5</ele>
        <time>2023-08-23T12:45:13Z</time>
      </trkpt>
      <trkpt lat="58.237802032381296" lon="-4.480004031211138">
        <ele>178.46000000000001</ele>
        <time>2023-08-23T12:45:22Z</time>
      </trkpt>
      <trkpt lat="58.237504977732897" lon="-4.480147026479244">
        <ele>178.94</ele>
        <time>2023-08-23T12:45:24Z</time>
      </trkpt>
      <trkpt lat="58.237352008000016" lon="-4.480147026479244">
        <ele>179.90000000000001</ele>
        <time>2023-08-23T12:45:25Z</time>
      </trkpt>
      <trkpt lat="58.237196020781994" lon="-4.480147026479244">
        <ele>180.38</ele>
        <time>2023-08-23T12:45:26Z</time>
      </trkpt>
      <trkpt lat="58.23675999417901" lon="-4.479996990412474">
        <ele>181.83000000000001</ele>
        <time>2023-08-23T12:45:29Z</time>
      </trkpt>
      <trkpt lat="58.236611969769001" lon="-4.479962959885597">
        <ele>181.83000000000001</ele>
        <time>2023-08-23T12:45:30Z</time>
      </trkpt>
      <trkpt lat="58.236468974500895" lon="-4.48000998236239">
        <ele>181.83000000000001</ele>
        <time>2023-08-23T12:45:31Z</time>
      </trkpt>
      <trkpt lat="58.236319022253156" lon="-4.480089023709297">
        <ele>181.83000000000001</ele>
        <time>2023-08-23T12:45:32Z</time>
      </trkpt>
      <trkpt lat="58.236164040863514" lon="-4.480212992057204">
        <ele>181.83000000000001</ele>
        <time>2023-08-23T12:45:33Z</time>
      </trkpt>
      <trkpt lat="58.235824992880225" lon="-4.480437962338328">
        <ele>181.34999999999999</ele>
        <time>2023-08-23T12:45:35Z</time>
      </trkpt>
      <trkpt lat="58.234034031629562" lon="-4.481334993615747">
        <ele>182.31</ele>
        <time>2023-08-23T12:45:45Z</time>
      </trkpt>
      <trkpt lat="58.232612041756511" lon="-4.48239304125309">
        <ele>183.75</ele>
        <time>2023-08-23T12:45:54Z</time>
      </trkpt>
      <trkpt lat="58.231992032378912" lon="-4.483021013438702">
        <ele>183.27000000000001</ele>
        <time>2023-08-23T12:45:58Z</time>
      </trkpt>
      <trkpt lat="58.231854988262057" lon="-4.483208013698459">
        <ele>183.27000000000001</ele>
        <time>2023-08-23T12:45:59Z</time>
      </trkpt>
      <trkpt lat="58.231723979115486" lon="-4.483387973159552">
        <ele>183.75</ele>
        <time>2023-08-23T12:46:00Z</time>
      </trkpt>
      <trkpt lat="58.231614008545876" lon="-4.483633982017636">
        <ele>183.75</ele>
        <time>2023-08-23T12:46:01Z</time>
      </trkpt>
      <trkpt lat="58.231503032147884" lon="-4.483884014189243">
        <ele>184.22999999999999</ele>
        <time>2023-08-23T12:46:02Z</time>
      </trkpt>
      <trkpt lat="58.23018598370254" lon="-4.486535964533687">
        <ele>190.47999999999999</ele>
        <time>2023-08-23T12:46:13Z</time>
      </trkpt>
      <trkpt lat="58.228703979402781" lon="-4.488679971545935">
        <ele>190.47999999999999</ele>
        <time>2023-08-23T12:46:24Z</time>
      </trkpt>
      <trkpt lat="58.226826013997197" lon="-4.49083898216486">
        <ele>190</ele>
        <time>2023-08-23T12:46:36Z</time>
      </trkpt>
      <trkpt lat="58.225674005225301" lon="-4.492347976192832">
        <ele>191.44</ele>
        <time>2023-08-23T12:46:44Z</time>
      </trkpt>
      <trkpt lat="58.225516006350517" lon="-4.492475967854261">
        <ele>191.44</ele>
        <time>2023-08-23T12:46:45Z</time>
      </trkpt>
      <trkpt lat="58.225362030789256" lon="-4.4926000200212">
        <ele>191.91999999999999</ele>
        <time>2023-08-23T12:46:46Z</time>
      </trkpt>
      <trkpt lat="58.225223980844021" lon="-4.492692975327373">
        <ele>191.91999999999999</ele>
        <time>2023-08-23T12:46:47Z</time>
      </trkpt>
      <trkpt lat="58.225104035809636" lon="-4.492734968662262">
        <ele>192.40000000000001</ele>
        <time>2023-08-23T12:46:48Z</time>
      </trkpt>
      <trkpt lat="58.224055040627718" lon="-4.492773022502661">
        <ele>191.91999999999999</ele>
        <time>2023-08-23T12:46:55Z</time>
      </trkpt>
      <trkpt lat="58.223881032317877" lon="-4.492805041372776">
        <ele>191.44</ele>
        <time>2023-08-23T12:46:56Z</time>
      </trkpt>
      <trkpt lat="58.223707024008036" lon="-4.492878969758749">
        <ele>191.44</ele>
        <time>2023-08-23T12:46:57Z</time>
      </trkpt>
      <trkpt lat="58.222140027210116" lon="-4.493902986869216">
        <ele>192.88</ele>
        <time>2023-08-23T12:47:06Z</time>
      </trkpt>
      <trkpt lat="58.220195006579161" lon="-4.495532009750605">
        <ele>193.36000000000001</ele>
        <time>2023-08-23T12:47:17Z</time>
      </trkpt>
      <trkpt lat="58.219565022736788" lon="-4.496020004153252">
        <ele>194.31999999999999</ele>
        <time>2023-08-23T12:47:21Z</time>
      </trkpt>
      <trkpt lat="58.219394031912088" lon="-4.496084041893482">
        <ele>194.31999999999999</ele>
        <time>2023-08-23T12:47:22Z</time>
      </trkpt>
      <trkpt lat="58.219223041087389" lon="-4.496110025793314">
        <ele>193.84</ele>
        <time>2023-08-23T12:47:23Z</time>
      </trkpt>
      <trkpt lat="58.219051966443658" lon="-4.496069038286805">
        <ele>193.84</ele>
        <time>2023-08-23T12:47:24Z</time>
      </trkpt>
      <trkpt lat="58.218878963962197" lon="-4.496023021638393">
        <ele>193.36000000000001</ele>
        <time>2023-08-23T12:47:25Z</time>
      </trkpt>
      <trkpt lat="58.218714008107781" lon="-4.495979016646743">
        <ele>193.36000000000001</ele>
        <time>2023-08-23T12:47:26Z</time>
      </trkpt>
      <trkpt lat="58.218549974262714" lon="-4.495941968634725">
        <ele>193.36000000000001</ele>
        <time>2023-08-23T12:47:27Z</time>
      </trkpt>
      <trkpt lat="58.218380995094776" lon="-4.495954038575292">
        <ele>193.36000000000001</ele>
        <time>2023-08-23T12:47:28Z</time>
      </trkpt>
      <trkpt lat="58.218203969299793" lon="-4.495995026081801">
        <ele>192.88</ele>
        <time>2023-08-23T12:47:29Z</time>
      </trkpt>
      <trkpt lat="58.218026021495461" lon="-4.496084041893482">
        <ele>193.36000000000001</ele>
        <time>2023-08-23T12:47:30Z</time>
      </trkpt>
      <trkpt lat="58.217841032892466" lon="-4.496175991371274">
        <ele>193.36000000000001</ele>
        <time>2023-08-23T12:47:31Z</time>
      </trkpt>
      <trkpt lat="58.216663962230086" lon="-4.496714025735855">
        <ele>193.84</ele>
        <time>2023-08-23T12:47:37Z</time>
      </trkpt>
      <trkpt lat="58.216473022475839" lon="-4.4967479724437">
        <ele>193.84</ele>
        <time>2023-08-23T12:47:38Z</time>
      </trkpt>
      <trkpt lat="58.21628401055932" lon="-4.496720982715488">
        <ele>194.31999999999999</ele>
        <time>2023-08-23T12:47:39Z</time>
      </trkpt>
      <trkpt lat="58.215028988197446" lon="-4.496544040739536">
        <ele>195.77000000000001</ele>
        <time>2023-08-23T12:47:46Z</time>
      </trkpt>
      <trkpt lat="58.214880963787436" lon="-4.496593996882439">
        <ele>195.77000000000001</ele>
        <time>2023-08-23T12:47:47Z</time>
      </trkpt>
      <trkpt lat="58.214731011539698" lon="-4.496664991602302">
        <ele>196.25</ele>
        <time>2023-08-23T12:47:48Z</time>
      </trkpt>
      <trkpt lat="58.214581981301308" lon="-4.49679197743535">
        <ele>196.25</ele>
        <time>2023-08-23T12:47:49Z</time>
      </trkpt>
      <trkpt lat="58.214425994083285" lon="-4.496923992410302">
        <ele>196.25</ele>
        <time>2023-08-23T12:47:50Z</time>
      </trkpt>
      <trkpt lat="58.213934982195497" lon="-4.497303022071719">
        <ele>196.25</ele>
        <time>2023-08-23T12:47:53Z</time>
      </trkpt>
      <trkpt lat="58.213767008855939" lon="-4.497376028448343">
        <ele>196.25</ele>
        <time>2023-08-23T12:47:54Z</time>
      </trkpt>
      <trkpt lat="58.21359601803124" lon="-4.497358007356525">
        <ele>196.25</ele>
        <time>2023-08-23T12:47:55Z</time>
      </trkpt>
      <trkpt lat="58.213416980579495" lon="-4.497339986264706">
        <ele>196.25</ele>
        <time>2023-08-23T12:47:56Z</time>
      </trkpt>
      <trkpt lat="58.213230986148119" lon="-4.497320959344506">
        <ele>196.25</ele>
        <time>2023-08-23T12:47:57Z</time>
      </trkpt>
      <trkpt lat="58.211261993274093" lon="-4.497419027611613">
        <ele>198.65000000000001</ele>
        <time>2023-08-23T12:48:08Z</time>
      </trkpt>
      <trkpt lat="58.209466002881527" lon="-4.498394010588527">
        <ele>201.05000000000001</ele>
        <time>2023-08-23T12:48:19Z</time>
      </trkpt>
      <trkpt lat="58.208279041573405" lon="-4.499193979427218">
        <ele>202.49000000000001</ele>
        <time>2023-08-23T12:48:27Z</time>
      </trkpt>
      <trkpt lat="58.206650018692017" lon="-4.500373983755708">
        <ele>213.55000000000001</ele>
        <time>2023-08-23T12:48:37Z</time>
      </trkpt>
      <trkpt lat="58.205172037705779" lon="-4.502570964396">
        <ele>225.09</ele>
        <time>2023-08-23T12:48:47Z</time>
      </trkpt>
      <trkpt lat="58.203903017565608" lon="-4.505249988287687">
        <ele>236.62</ele>
        <time>2023-08-23T12:48:57Z</time>
      </trkpt>
      <trkpt lat="58.202900039032102" lon="-4.508360009640455">
        <ele>245.75</ele>
        <time>2023-08-23T12:49:07Z</time>
      </trkpt>
      <trkpt lat="58.202250022441149" lon="-4.511468019336462">
        <ele>254.41</ele>
        <time>2023-08-23T12:49:16Z</time>
      </trkpt>
      <trkpt lat="58.200837001204491" lon="-4.514422975480557">
        <ele>265.45999999999998</ele>
        <time>2023-08-23T12:49:27Z</time>
      </trkpt>
      <trkpt lat="58.199354996904731" lon="-4.516315022483468">
        <ele>270.75</ele>
        <time>2023-08-23T12:49:36Z</time>
      </trkpt>
      <trkpt lat="58.197948010638356" lon="-4.517409028485417">
        <ele>273.14999999999998</ele>
        <time>2023-08-23T12:49:44Z</time>
      </trkpt>
      <trkpt lat="58.19718299433589" lon="-4.517445992678404">
        <ele>273.14999999999998</ele>
        <time>2023-08-23T12:49:48Z</time>
      </trkpt>
      <trkpt lat="58.196992976590991" lon="-4.517396036535502">
        <ele>273.63</ele>
        <time>2023-08-23T12:49:49Z</time>
      </trkpt>
      <trkpt lat="58.196807987987995" lon="-4.517314983531833">
        <ele>273.63</ele>
        <time>2023-08-23T12:49:50Z</time>
      </trkpt>
      <trkpt lat="58.195364959537983" lon="-4.516102960333228">
        <ele>272.67000000000002</ele>
        <time>2023-08-23T12:49:58Z</time>
      </trkpt>
      <trkpt lat="58.193518007174134" lon="-4.514712989330292">
        <ele>264.5</ele>
        <time>2023-08-23T12:50:07Z</time>
      </trkpt>
      <trkpt lat="58.191171996295452" lon="-4.514411995187402">
        <ele>256.32999999999998</ele>
        <time>2023-08-23T12:50:17Z</time>
      </trkpt>
      <trkpt lat="58.189841033890843" lon="-4.514319039881229">
        <ele>252</ele>
        <time>2023-08-23T12:50:23Z</time>
      </trkpt>
      <trkpt lat="58.189641963690519" lon="-4.514277968555689">
        <ele>251.03999999999999</ele>
        <time>2023-08-23T12:50:24Z</time>
      </trkpt>
      <trkpt lat="58.189455969259143" lon="-4.514157017692924">
        <ele>250.56</ele>
        <time>2023-08-23T12:50:25Z</time>
      </trkpt>
      <trkpt lat="58.188923969864845" lon="-4.513809001073241">
        <ele>247.68000000000001</ele>
        <time>2023-08-23T12:50:29Z</time>
      </trkpt>
      <trkpt lat="58.188291974365711" lon="-4.51339703053236">
        <ele>245.27000000000001</ele>
        <time>2023-08-23T12:50:35Z</time>
      </trkpt>
      <trkpt lat="58.186808964237571" lon="-4.512436967343092">
        <ele>238.06</ele>
        <time>2023-08-23T12:50:45Z</time>
      </trkpt>
      <trkpt lat="58.185548996552825" lon="-4.511703969910741">
        <ele>233.25999999999999</ele>
        <time>2023-08-23T12:50:54Z</time>
      </trkpt>
      <trkpt lat="58.184526991099119" lon="-4.511455027386546">
        <ele>230.37</ele>
        <time>2023-08-23T12:51:00Z</time>
      </trkpt>
      <trkpt lat="58.184359017759562" lon="-4.511500960215926">
        <ele>230.37</ele>
        <time>2023-08-23T12:51:01Z</time>
      </trkpt>
      <trkpt lat="58.184190960600972" lon="-4.511559968814254">
        <ele>230.37</ele>
        <time>2023-08-23T12:51:02Z</time>
      </trkpt>
      <trkpt lat="58.184029022231698" lon="-4.511689972132444">
        <ele>230.84999999999999</ele>
        <time>2023-08-23T12:51:03Z</time>
      </trkpt>
      <trkpt lat="58.18386297672987" lon="-4.511822992935777">
        <ele>231.33000000000001</ele>
        <time>2023-08-23T12:51:04Z</time>
      </trkpt>
      <trkpt lat="58.182205958291888" lon="-4.513414967805147">
        <ele>237.58000000000001</ele>
        <time>2023-08-23T12:51:14Z</time>
      </trkpt>
      <trkpt lat="58.180220033973455" lon="-4.515230990946293">
        <ele>240.94999999999999</ele>
        <time>2023-08-23T12:51:26Z</time>
      </trkpt>
      <trkpt lat="58.179527018219233" lon="-4.515515975654125">
        <ele>240.47</ele>
        <time>2023-08-23T12:51:30Z</time>
      </trkpt>
      <trkpt lat="58.179345969110727" lon="-4.515514969825745">
        <ele>239.99000000000001</ele>
        <time>2023-08-23T12:51:31Z</time>
      </trkpt>
      <trkpt lat="58.17915796302259" lon="-4.515468031167984">
        <ele>240.47</ele>
        <time>2023-08-23T12:51:32Z</time>
      </trkpt>
      <trkpt lat="58.177406983450055" lon="-4.514587009325624">
        <ele>238.53999999999999</ele>
        <time>2023-08-23T12:51:41Z</time>
      </trkpt>
      <trkpt lat="58.175374958664179" lon="-4.512847010046244">
        <ele>234.22</ele>
        <time>2023-08-23T12:51:52Z</time>
      </trkpt>
      <trkpt lat="58.173401020467281" lon="-4.510453976690769">
        <ele>227.97</ele>
        <time>2023-08-23T12:52:05Z</time>
      </trkpt>
      <trkpt lat="58.171192975714803" lon="-4.507951978594065">
        <ele>223.16</ele>
        <time>2023-08-23T12:52:18Z</time>
      </trkpt>
      <trkpt lat="58.169654980301857" lon="-4.506505010649562">
        <ele>217.88</ele>
        <time>2023-08-23T12:52:27Z</time>
      </trkpt>
      <trkpt lat="58.168529961258173" lon="-4.505172958597541">
        <ele>213.55000000000001</ele>
        <time>2023-08-23T12:52:35Z</time>
      </trkpt>
      <trkpt lat="58.168403981253505" lon="-4.504963997751474">
        <ele>212.11000000000001</ele>
        <time>2023-08-23T12:52:39Z</time>
      </trkpt>
      <trkpt lat="58.168369028717279" lon="-4.504907000809908">
        <ele>211.63</ele>
        <time>2023-08-23T12:52:40Z</time>
      </trkpt>
      <trkpt lat="58.167960997670889" lon="-4.504135027527809">
        <ele>209.69999999999999</ele>
        <time>2023-08-23T12:52:46Z</time>
      </trkpt>
      <trkpt lat="58.167100008577108" lon="-4.502186989411712">
        <ele>206.81999999999999</ele>
        <time>2023-08-23T12:52:54Z</time>
      </trkpt>
      <trkpt lat="58.16598697565496" lon="-4.500167034566402">
        <ele>202.00999999999999</ele>
        <time>2023-08-23T12:53:02Z</time>
      </trkpt>
      <trkpt lat="58.163291020318866" lon="-4.496214967221022">
        <ele>194.80000000000001</ele>
        <time>2023-08-23T12:53:19Z</time>
      </trkpt>
      <trkpt lat="58.16084903664887" lon="-4.492978965863586">
        <ele>195.77000000000001</ele>
        <time>2023-08-23T12:53:34Z</time>
      </trkpt>
      <trkpt lat="58.159151030704379" lon="-4.491438958793879">
        <ele>199.13</ele>
        <time>2023-08-23T12:53:43Z</time>
      </trkpt>
      <trkpt lat="58.15629699267447" lon="-4.488999992609024">
        <ele>201.53</ele>
        <time>2023-08-23T12:53:58Z</time>
      </trkpt>
      <trkpt lat="58.153772028163075" lon="-4.486631015315652">
        <ele>202.00999999999999</ele>
        <time>2023-08-23T12:54:12Z</time>
      </trkpt>
      <trkpt lat="58.15159197896719" lon="-4.484318029135466">
        <ele>201.05000000000001</ele>
        <time>2023-08-23T12:54:25Z</time>
      </trkpt>
      <trkpt lat="58.151450995355844" lon="-4.484138991683722">
        <ele>201.53</ele>
        <time>2023-08-23T12:54:26Z</time>
      </trkpt>
      <trkpt lat="58.151337001472712" lon="-4.483883008360863">
        <ele>201.53</ele>
        <time>2023-08-23T12:54:27Z</time>
      </trkpt>
      <trkpt lat="58.151222001761198" lon="-4.483624007552862">
        <ele>202.00999999999999</ele>
        <time>2023-08-23T12:54:28Z</time>
      </trkpt>
      <trkpt lat="58.151103984564543" lon="-4.483357965946198">
        <ele>202.00999999999999</ele>
        <time>2023-08-23T12:54:29Z</time>
      </trkpt>
      <trkpt lat="58.149677971377969" lon="-4.480322962626815">
        <ele>202.49000000000001</ele>
        <time>2023-08-23T12:54:41Z</time>
      </trkpt>
      <trkpt lat="58.148548007011414" lon="-4.478490008041263">
        <ele>202.97999999999999</ele>
        <time>2023-08-23T12:54:50Z</time>
      </trkpt>
      <trkpt lat="58.147668996825814" lon="-4.475949034094811">
        <ele>201.53</ele>
        <time>2023-08-23T12:54:59Z</time>
      </trkpt>
      <trkpt lat="58.146326970309019" lon="-4.471466979011893">
        <ele>203.46000000000001</ele>
        <time>2023-08-23T12:55:14Z</time>
      </trkpt>
      <trkpt lat="58.146065035834908" lon="-4.470701040700078">
        <ele>202.97999999999999</ele>
        <time>2023-08-23T12:55:17Z</time>
      </trkpt>
      <trkpt lat="58.145971996709704" lon="-4.470505993813276">
        <ele>202.97999999999999</ele>
        <time>2023-08-23T12:55:18Z</time>
      </trkpt>
      <trkpt lat="58.145858002826571" lon="-4.470391999930143">
        <ele>202.97999999999999</ele>
        <time>2023-08-23T12:55:19Z</time>
      </trkpt>
      <trkpt lat="58.145743003115058" lon="-4.47027700021863">
        <ele>202.97999999999999</ele>
        <time>2023-08-23T12:55:20Z</time>
      </trkpt>
      <trkpt lat="58.145604031160474" lon="-4.470221009105444">
        <ele>202.97999999999999</ele>
        <time>2023-08-23T12:55:21Z</time>
      </trkpt>
      <trkpt lat="58.145455000922084" lon="-4.470162000507116">
        <ele>202.97999999999999</ele>
        <time>2023-08-23T12:55:22Z</time>
      </trkpt>
      <trkpt lat="58.145300019532442" lon="-4.47010600939393">
        <ele>202.97999999999999</ele>
        <time>2023-08-23T12:55:23Z</time>
      </trkpt>
      <trkpt lat="58.145136991515756" lon="-4.470117995515466">
        <ele>202.97999999999999</ele>
        <time>2023-08-23T12:55:24Z</time>
      </trkpt>
      <trkpt lat="58.144968012347817" lon="-4.470130987465382">
        <ele>202.49000000000001</ele>
        <time>2023-08-23T12:55:25Z</time>
      </trkpt>
      <trkpt lat="58.144044997170568" lon="-4.470154959708452">
        <ele>202.97999999999999</ele>
        <time>2023-08-23T12:55:31Z</time>
      </trkpt>
      <trkpt lat="58.143926979973912" lon="-4.470076002180576">
        <ele>202.97999999999999</ele>
        <time>2023-08-23T12:55:32Z</time>
      </trkpt>
      <trkpt lat="58.143822038546205" lon="-4.469922026619315">
        <ele>202.97999999999999</ele>
        <time>2023-08-23T12:55:33Z</time>
      </trkpt>
      <trkpt lat="58.143166992813349" lon="-4.469004040583968">
        <ele>203.94</ele>
        <time>2023-08-23T12:55:38Z</time>
      </trkpt>
      <trkpt lat="58.143012011423707" lon="-4.46883799508214">
        <ele>203.94</ele>
        <time>2023-08-23T12:55:39Z</time>
      </trkpt>
      <trkpt lat="58.142843032255769" lon="-4.468719977885485">
        <ele>203.94</ele>
        <time>2023-08-23T12:55:40Z</time>
      </trkpt>
      <trkpt lat="58.142663994804025" lon="-4.468631967902184">
        <ele>203.94</ele>
        <time>2023-08-23T12:55:41Z</time>
      </trkpt>
      <trkpt lat="58.142482023686171" lon="-4.468542030081153">
        <ele>203.94</ele>
        <time>2023-08-23T12:55:42Z</time>
      </trkpt>
      <trkpt lat="58.140778988599777" lon="-4.467511978000403">
        <ele>203.94</ele>
        <time>2023-08-23T12:55:52Z</time>
      </trkpt>
      <trkpt lat="58.139505023136735" lon="-4.466103985905647">
        <ele>202.97999999999999</ele>
        <time>2023-08-23T12:56:01Z</time>
      </trkpt>
      <trkpt lat="58.138095019385219" lon="-4.464116971939802">
        <ele>203.94</ele>
        <time>2023-08-23T12:56:11Z</time>
      </trkpt>
      <trkpt lat="58.136848965659738" lon="-4.462997987866402">
        <ele>204.90000000000001</ele>
        <time>2023-08-23T12:56:19Z</time>
      </trkpt>
      <trkpt lat="58.136687027290463" lon="-4.462974015623331">
        <ele>204.90000000000001</ele>
        <time>2023-08-23T12:56:20Z</time>
      </trkpt>
      <trkpt lat="58.136518970131874" lon="-4.46294903755188">
        <ele>204.90000000000001</ele>
        <time>2023-08-23T12:56:21Z</time>
      </trkpt>
      <trkpt lat="58.134975023567677" lon="-4.462676038965583">
        <ele>206.81999999999999</ele>
        <time>2023-08-23T12:56:30Z</time>
      </trkpt>
      <trkpt lat="58.133164029568434" lon="-4.462046977132559">
        <ele>203.94</ele>
        <time>2023-08-23T12:56:40Z</time>
      </trkpt>
      <trkpt lat="58.133007036522031" lon="-4.461913034319878">
        <ele>203.94</ele>
        <time>2023-08-23T12:56:41Z</time>
      </trkpt>
      <trkpt lat="58.13143802806735" lon="-4.460130035877228">
        <ele>203.46000000000001</ele>
        <time>2023-08-23T12:56:51Z</time>
      </trkpt>
      <trkpt lat="58.128738971427083" lon="-4.457529969513416">
        <ele>197.21000000000001</ele>
        <time>2023-08-23T12:57:06Z</time>
      </trkpt>
      <trkpt lat="58.126762015745044" lon="-4.455743031576276">
        <ele>192.40000000000001</ele>
        <time>2023-08-23T12:57:17Z</time>
      </trkpt>
      <trkpt lat="58.125215973705053" lon="-4.45384101010859">
        <ele>185.66999999999999</ele>
        <time>2023-08-23T12:57:26Z</time>
      </trkpt>
      <trkpt lat="58.122699977830052" lon="-4.449836974963546">
        <ele>178.46000000000001</ele>
        <time>2023-08-23T12:57:42Z</time>
      </trkpt>
      <trkpt lat="58.120453041046858" lon="-4.446629974991083">
        <ele>172.21000000000001</ele>
        <time>2023-08-23T12:57:56Z</time>
      </trkpt>
      <trkpt lat="58.118028994649649" lon="-4.443802004680038">
        <ele>165.47999999999999</ele>
        <time>2023-08-23T12:58:10Z</time>
      </trkpt>
      <trkpt lat="58.115286016836762" lon="-4.440684020519257">
        <ele>158.75</ele>
        <time>2023-08-23T12:58:26Z</time>
      </trkpt>
      <trkpt lat="58.115127012133598" lon="-4.44056298583746">
        <ele>158.75</ele>
        <time>2023-08-23T12:58:27Z</time>
      </trkpt>
      <trkpt lat="58.114814031869173" lon="-4.440300967544317">
        <ele>158.75</ele>
        <time>2023-08-23T12:58:29Z</time>
      </trkpt>
      <trkpt lat="58.113547023385763" lon="-4.438874032348394">
        <ele>158.75</ele>
        <time>2023-08-23T12:58:37Z</time>
      </trkpt>
      <trkpt lat="58.111734017729759" lon="-4.437165968120098">
        <ele>155.87</ele>
        <time>2023-08-23T12:58:47Z</time>
      </trkpt>
      <trkpt lat="58.108167015016079" lon="-4.434060975909233">
        <ele>151.06</ele>
        <time>2023-08-23T12:59:06Z</time>
      </trkpt>
      <trkpt lat="58.106874022632837" lon="-4.4326760340482">
        <ele>149.62</ele>
        <time>2023-08-23T12:59:14Z</time>
      </trkpt>
      <trkpt lat="58.104245960712433" lon="-4.429404996335506">
        <ele>146.74000000000001</ele>
        <time>2023-08-23T12:59:30Z</time>
      </trkpt>
      <trkpt lat="58.10137901455164" lon="-4.425837993621826">
        <ele>143.37</ele>
        <time>2023-08-23T12:59:47Z</time>
      </trkpt>
      <trkpt lat="58.098881039768457" lon="-4.422979010269046">
        <ele>140.49000000000001</ele>
        <time>2023-08-23T13:00:02Z</time>
      </trkpt>
      <trkpt lat="58.096906011924148" lon="-4.422067981213331">
        <ele>135.68000000000001</ele>
        <time>2023-08-23T13:00:12Z</time>
      </trkpt>
      <trkpt lat="58.09457098133862" lon="-4.42113901488483">
        <ele>135.68000000000001</ele>
        <time>2023-08-23T13:00:24Z</time>
      </trkpt>
      <trkpt lat="58.0924859829247" lon="-4.420122960582376">
        <ele>135.68000000000001</ele>
        <time>2023-08-23T13:00:35Z</time>
      </trkpt>
      <trkpt lat="58.091724989935756" lon="-4.419470010325313">
        <ele>135.68000000000001</ele>
        <time>2023-08-23T13:00:40Z</time>
      </trkpt>
      <trkpt lat="58.091609990224242" lon="-4.419308993965387">
        <ele>136.16</ele>
        <time>2023-08-23T13:00:41Z</time>
      </trkpt>
      <trkpt lat="58.09151703491807" lon="-4.419124005362392">
        <ele>136.63999999999999</ele>
        <time>2023-08-23T13:00:42Z</time>
      </trkpt>
      <trkpt lat="58.091431958600879" lon="-4.418934993445873">
        <ele>137.13</ele>
        <time>2023-08-23T13:00:43Z</time>
      </trkpt>
      <trkpt lat="58.091323999688029" lon="-4.418791998177767">
        <ele>136.63999999999999</ele>
        <time>2023-08-23T13:00:44Z</time>
      </trkpt>
      <trkpt lat="58.091203970834613" lon="-4.418699964880943">
        <ele>136.63999999999999</ele>
        <time>2023-08-23T13:00:45Z</time>
      </trkpt>
      <trkpt lat="58.091083019971848" lon="-4.418631987646222">
        <ele>136.63999999999999</ele>
        <time>2023-08-23T13:00:46Z</time>
      </trkpt>
      <trkpt lat="58.090951004996896" lon="-4.418646991252899">
        <ele>136.63999999999999</ele>
        <time>2023-08-23T13:00:47Z</time>
      </trkpt>
      <trkpt lat="58.090813038870692" lon="-4.418663000687957">
        <ele>136.16</ele>
        <time>2023-08-23T13:00:48Z</time>
      </trkpt>
      <trkpt lat="58.090672977268696" lon="-4.418716980144382">
        <ele>136.16</ele>
        <time>2023-08-23T13:00:49Z</time>
      </trkpt>
      <trkpt lat="58.090529982000589" lon="-4.418807001784444">
        <ele>135.68000000000001</ele>
        <time>2023-08-23T13:00:50Z</time>
      </trkpt>
      <trkpt lat="58.090383969247341" lon="-4.41890699788928">
        <ele>135.68000000000001</ele>
        <time>2023-08-23T13:00:51Z</time>
      </trkpt>
      <trkpt lat="58.090244997292757" lon="-4.41905502229929">
        <ele>135.68000000000001</ele>
        <time>2023-08-23T13:00:52Z</time>
      </trkpt>
      <trkpt lat="58.090105019509792" lon="-4.419204974547029">
        <ele>135.68000000000001</ele>
        <time>2023-08-23T13:00:53Z</time>
      </trkpt>
      <trkpt lat="58.089947020635009" lon="-4.419315028935671">
        <ele>135.68000000000001</ele>
        <time>2023-08-23T13:00:54Z</time>
      </trkpt>
      <trkpt lat="58.089780975133181" lon="-4.419390968978405">
        <ele>135.68000000000001</ele>
        <time>2023-08-23T13:00:55Z</time>
      </trkpt>
      <trkpt lat="58.089610990136862" lon="-4.419423993676901">
        <ele>135.19999999999999</ele>
        <time>2023-08-23T13:00:56Z</time>
      </trkpt>
      <trkpt lat="58.089437987655401" lon="-4.419456012547016">
        <ele>135.19999999999999</ele>
        <time>2023-08-23T13:00:57Z</time>
      </trkpt>
      <trkpt lat="58.088037958368659" lon="-4.419218972325325">
        <ele>133.75999999999999</ele>
        <time>2023-08-23T13:01:05Z</time>
      </trkpt>
      <trkpt lat="58.086615968495607" lon="-4.41847700625658">
        <ele>131.84</ele>
        <time>2023-08-23T13:01:14Z</time>
      </trkpt>
      <trkpt lat="58.086456041783094" lon="-4.41841397434473">
        <ele>131.84</ele>
        <time>2023-08-23T13:01:15Z</time>
      </trkpt>
      <trkpt lat="58.086312040686607" lon="-4.418264022096992">
        <ele>131.84</ele>
        <time>2023-08-23T13:01:16Z</time>
      </trkpt>
      <trkpt lat="58.086164016276598" lon="-4.418108034878969">
        <ele>131.84</ele>
        <time>2023-08-23T13:01:17Z</time>
      </trkpt>
      <trkpt lat="58.086005011573434" lon="-4.417941989377141">
        <ele>131.84</ele>
        <time>2023-08-23T13:01:18Z</time>
      </trkpt>
      <trkpt lat="58.08462199755013" lon="-4.41639200784266">
        <ele>131.36000000000001</ele>
        <time>2023-08-23T13:01:27Z</time>
      </trkpt>
      <trkpt lat="58.084125034511089" lon="-4.416077015921474">
        <ele>132.31999999999999</ele>
        <time>2023-08-23T13:01:32Z</time>
      </trkpt>
      <trkpt lat="58.083953959867358" lon="-4.415968973189592">
        <ele>132.80000000000001</ele>
        <time>2023-08-23T13:01:38Z</time>
      </trkpt>
      <trkpt lat="58.083199001848698" lon="-4.4154919590801">
        <ele>131.84</ele>
        <time>2023-08-23T13:01:46Z</time>
      </trkpt>
      <trkpt lat="58.081896035000682" lon="-4.414668017998338">
        <ele>130.88</ele>
        <time>2023-08-23T13:01:55Z</time>
      </trkpt>
      <trkpt lat="58.081263033673167" lon="-4.41437004134059">
        <ele>129.91999999999999</ele>
        <time>2023-08-23T13:01:59Z</time>
      </trkpt>
      <trkpt lat="58.08112196624279" lon="-4.414387978613377">
        <ele>129.43000000000001</ele>
        <time>2023-08-23T13:02:00Z</time>
      </trkpt>
      <trkpt lat="58.080982994288206" lon="-4.414430977776647">
        <ele>128.94999999999999</ele>
        <time>2023-08-23T13:02:01Z</time>
      </trkpt>
      <trkpt lat="58.080843016505241" lon="-4.414529968053103">
        <ele>128.94999999999999</ele>
        <time>2023-08-23T13:02:02Z</time>
      </trkpt>
      <trkpt lat="58.080703038722277" lon="-4.414654020220041">
        <ele>128.47</ele>
        <time>2023-08-23T13:02:03Z</time>
      </trkpt>
      <trkpt lat="58.080558031797409" lon="-4.414782011881471">
        <ele>128.47</ele>
        <time>2023-08-23T13:02:04Z</time>
      </trkpt>
      <trkpt lat="58.079816987738013" lon="-4.415419036522508">
        <ele>128.94999999999999</ele>
        <time>2023-08-23T13:02:09Z</time>
      </trkpt>
      <trkpt lat="58.079668963328004" lon="-4.41546899266541">
        <ele>129.43000000000001</ele>
        <time>2023-08-23T13:02:10Z</time>
      </trkpt>
      <trkpt lat="58.079520016908646" lon="-4.415518026798964">
        <ele>129.43000000000001</ele>
        <time>2023-08-23T13:02:11Z</time>
      </trkpt>
      <trkpt lat="58.079366963356733" lon="-4.415482990443707">
        <ele>129.91999999999999</ele>
        <time>2023-08-23T13:02:12Z</time>
      </trkpt>
      <trkpt lat="58.079219022765756" lon="-4.415394980460405">
        <ele>129.91999999999999</ele>
        <time>2023-08-23T13:02:13Z</time>
      </trkpt>
      <trkpt lat="58.079066975042224" lon="-4.415304036810994">
        <ele>130.40000000000001</ele>
        <time>2023-08-23T13:02:14Z</time>
      </trkpt>
      <trkpt lat="58.078911993652582" lon="-4.415212003514171">
        <ele>130.40000000000001</ele>
        <time>2023-08-23T13:02:15Z</time>
      </trkpt>
      <trkpt lat="58.077399982139468" lon="-4.414310026913881">
        <ele>129.91999999999999</ele>
        <time>2023-08-23T13:02:24Z</time>
      </trkpt>
      <trkpt lat="58.077260004356503" lon="-4.414171976968646">
        <ele>129.43000000000001</ele>
        <time>2023-08-23T13:02:25Z</time>
      </trkpt>
      <trkpt lat="58.077126983553171" lon="-4.413998974487186">
        <ele>129.43000000000001</ele>
        <time>2023-08-23T13:02:26Z</time>
      </trkpt>
      <trkpt lat="58.076990023255348" lon="-4.413820020854473">
        <ele>128.94999999999999</ele>
        <time>2023-08-23T13:02:27Z</time>
      </trkpt>
      <trkpt lat="58.075785962864757" lon="-4.412545971572399">
        <ele>126.55</ele>
        <time>2023-08-23T13:02:35Z</time>
      </trkpt>
      <trkpt lat="58.074433039873838" lon="-4.412154033780098">
        <ele>125.11</ele>
        <time>2023-08-23T13:02:43Z</time>
      </trkpt>
      <trkpt lat="58.074092986062169" lon="-4.412200972437859">
        <ele>124.63</ele>
        <time>2023-08-23T13:02:45Z</time>
      </trkpt>
      <trkpt lat="58.073928030207753" lon="-4.41226702183485">
        <ele>124.63</ele>
        <time>2023-08-23T13:02:46Z</time>
      </trkpt>
      <trkpt lat="58.073768019676208" lon="-4.412371041253209">
        <ele>125.11</ele>
        <time>2023-08-23T13:02:47Z</time>
      </trkpt>
      <trkpt lat="58.072438985109329" lon="-4.41342799924314">
        <ele>124.63</ele>
        <time>2023-08-23T13:02:56Z</time>
      </trkpt>
      <trkpt lat="58.072294984012842" lon="-4.413527995347977">
        <ele>124.63</ele>
        <time>2023-08-23T13:02:57Z</time>
      </trkpt>
      <trkpt lat="58.070638971403241" lon="-4.414201984182">
        <ele>122.70999999999999</ele>
        <time>2023-08-23T13:03:07Z</time>
      </trkpt>
      <trkpt lat="58.067879984155297" lon="-4.41497596912086">
        <ele>117.90000000000001</ele>
        <time>2023-08-23T13:03:23Z</time>
      </trkpt>
      <trkpt lat="58.064937014132738" lon="-4.415751965716481">
        <ele>113.09</ele>
        <time>2023-08-23T13:03:40Z</time>
      </trkpt>
      <trkpt lat="58.06234197691083" lon="-4.416440036147833">
        <ele>112.13</ele>
        <time>2023-08-23T13:03:55Z</time>
      </trkpt>
      <trkpt lat="58.05991399101913" lon="-4.417390041053295">
        <ele>110.69</ele>
        <time>2023-08-23T13:04:09Z</time>
      </trkpt>
      <trkpt lat="58.057837039232254" lon="-4.41823803819716">
        <ele>108.29000000000001</ele>
        <time>2023-08-23T13:04:21Z</time>
      </trkpt>
      <trkpt lat="58.055821023881435" lon="-4.419061979278922">
        <ele>104.92</ele>
        <time>2023-08-23T13:04:33Z</time>
      </trkpt>
      <trkpt lat="58.055412992835045" lon="-4.419220983982086">
        <ele>103.48</ele>
        <time>2023-08-23T13:04:38Z</time>
      </trkpt>
      <trkpt lat="58.054484026506543" lon="-4.41957201808691">
        <ele>102.52</ele>
        <time>2023-08-23T13:04:46Z</time>
      </trkpt>
      <trkpt lat="58.052368015050888" lon="-4.420263022184372">
        <ele>101.56</ele>
        <time>2023-08-23T13:04:59Z</time>
      </trkpt>
      <trkpt lat="58.050328027456999" lon="-4.420928964391351">
        <ele>101.08</ele>
        <time>2023-08-23T13:05:11Z</time>
      </trkpt>
      <trkpt lat="58.047832986339927" lon="-4.421744020655751">
        <ele>103.48</ele>
        <time>2023-08-23T13:05:26Z</time>
      </trkpt>
      <trkpt lat="58.045846978202462" lon="-4.422423038631678">
        <ele>109.25</ele>
        <time>2023-08-23T13:05:38Z</time>
      </trkpt>
      <trkpt lat="58.044571001082659" lon="-4.423099039122462">
        <ele>111.65000000000001</ele>
        <time>2023-08-23T13:05:46Z</time>
      </trkpt>
      <trkpt lat="58.043260993435979" lon="-4.423849973827601">
        <ele>112.61</ele>
        <time>2023-08-23T13:05:54Z</time>
      </trkpt>
      <trkpt lat="58.041418986395001" lon="-4.42442798987031">
        <ele>111.17</ele>
        <time>2023-08-23T13:06:05Z</time>
      </trkpt>
      <trkpt lat="58.039413029327989" lon="-4.424948003143072">
        <ele>110.69</ele>
        <time>2023-08-23T13:06:17Z</time>
      </trkpt>
      <trkpt lat="58.038426982238889" lon="-4.424975998699665">
        <ele>111.17</ele>
        <time>2023-08-23T13:06:23Z</time>
      </trkpt>
      <trkpt lat="58.036786979064345" lon="-4.424207964912057">
        <ele>110.20999999999999</ele>
        <time>2023-08-23T13:06:33Z</time>
      </trkpt>
      <trkpt lat="58.03634500131011" lon="-4.423852991312742">
        <ele>110.20999999999999</ele>
        <time>2023-08-23T13:06:36Z</time>
      </trkpt>
      <trkpt lat="58.035161979496479" lon="-4.422750016674399">
        <ele>107.31999999999999</ele>
        <time>2023-08-23T13:06:44Z</time>
      </trkpt>
      <trkpt lat="58.034227984026074" lon="-4.421840999275446">
        <ele>104.44</ele>
        <time>2023-08-23T13:06:50Z</time>
      </trkpt>
      <trkpt lat="58.033249983564019" lon="-4.420521017163992">
        <ele>103</ele>
        <time>2023-08-23T13:06:57Z</time>
      </trkpt>
      <trkpt lat="58.032320011407137" lon="-4.419115036725998">
        <ele>103</ele>
        <time>2023-08-23T13:07:04Z</time>
      </trkpt>
      <trkpt lat="58.032213980332017" lon="-4.418895011767745">
        <ele>103</ele>
        <time>2023-08-23T13:07:05Z</time>
      </trkpt>
      <trkpt lat="58.032152960076928" lon="-4.418704994022846">
        <ele>103</ele>
        <time>2023-08-23T13:07:06Z</time>
      </trkpt>
      <trkpt lat="58.032111972570419" lon="-4.418550012633205">
        <ele>103</ele>
        <time>2023-08-23T13:07:07Z</time>
      </trkpt>
      <trkpt lat="58.032074002549052" lon="-4.418395031243563">
        <ele>103</ele>
        <time>2023-08-23T13:07:08Z</time>
      </trkpt>
      <trkpt lat="58.032039972022176" lon="-4.41821901127696">
        <ele>103.48</ele>
        <time>2023-08-23T13:07:09Z</time>
      </trkpt>
      <trkpt lat="58.032003007829189" lon="-4.418028993532062">
        <ele>103.48</ele>
        <time>2023-08-23T13:07:10Z</time>
      </trkpt>
      <trkpt lat="58.031778959557414" lon="-4.416934987530112">
        <ele>103.48</ele>
        <time>2023-08-23T13:07:15Z</time>
      </trkpt>
      <trkpt lat="58.031701007857919" lon="-4.416730972006917">
        <ele>103.48</ele>
        <time>2023-08-23T13:07:16Z</time>
      </trkpt>
      <trkpt lat="58.03161702118814" lon="-4.416512958705425">
        <ele>103.95999999999999</ele>
        <time>2023-08-23T13:07:17Z</time>
      </trkpt>
      <trkpt lat="58.031530017033219" lon="-4.416287988424301">
        <ele>104.44</ele>
        <time>2023-08-23T13:07:18Z</time>
      </trkpt>
      <trkpt lat="58.031439995393157" lon="-4.41607098095119">
        <ele>104.44</ele>
        <time>2023-08-23T13:07:19Z</time>
      </trkpt>
      <trkpt lat="58.030921993777156" lon="-4.414782011881471">
        <ele>105.88</ele>
        <time>2023-08-23T13:07:25Z</time>
      </trkpt>
      <trkpt lat="58.030873965471983" lon="-4.414519993588328">
        <ele>106.36</ele>
        <time>2023-08-23T13:07:26Z</time>
      </trkpt>
      <trkpt lat="58.030825015157461" lon="-4.414251018315554">
        <ele>106.36</ele>
        <time>2023-08-23T13:07:27Z</time>
      </trkpt>
      <trkpt lat="58.030338026583195" lon="-4.412028975784779">
        <ele>106.36</ele>
        <time>2023-08-23T13:07:35Z</time>
      </trkpt>
      <trkpt lat="58.029768979176879" lon="-4.410877972841263">
        <ele>103.48</ele>
        <time>2023-08-23T13:07:40Z</time>
      </trkpt>
      <trkpt lat="58.028940008953214" lon="-4.409290021285415">
        <ele>99.629999999999995</ele>
        <time>2023-08-23T13:07:48Z</time>
      </trkpt>
      <trkpt lat="58.028471041470766" lon="-4.40764700062573">
        <ele>94.829999999999998</ele>
        <time>2023-08-23T13:07:57Z</time>
      </trkpt>
      <trkpt lat="58.028252022340894" lon="-4.406431037932634">
        <ele>91.459999999999994</ele>
        <time>2023-08-23T13:08:07Z</time>
      </trkpt>
      <trkpt lat="58.028195025399327" lon="-4.406100958585739">
        <ele>90.980000000000004</ele>
        <time>2023-08-23T13:08:11Z</time>
      </trkpt>
      <trkpt lat="58.027990004047751" lon="-4.405075013637543">
        <ele>89.060000000000002</ele>
        <time>2023-08-23T13:08:27Z</time>
      </trkpt>
      <trkpt lat="58.027919009327888" lon="-4.404849959537387">
        <ele>89.060000000000002</ele>
        <time>2023-08-23T13:08:30Z</time>
      </trkpt>
      <trkpt lat="58.027889002114534" lon="-4.404752980917692">
        <ele>89.060000000000002</ele>
        <time>2023-08-23T13:08:31Z</time>
      </trkpt>
      <trkpt lat="58.027823958545923" lon="-4.404547037556768">
        <ele>89.060000000000002</ele>
        <time>2023-08-23T13:08:33Z</time>
      </trkpt>
      <trkpt lat="58.027393966913223" lon="-4.403772968798876">
        <ele>89.540000000000006</ele>
        <time>2023-08-23T13:08:43Z</time>
      </trkpt>
      <trkpt lat="58.02729899995029" lon="-4.403606001287699">
        <ele>90.019999999999996</ele>
        <time>2023-08-23T13:08:46Z</time>
      </trkpt>
      <trkpt lat="58.027288019657135" lon="-4.403585968539119">
        <ele>90.019999999999996</ele>
        <time>2023-08-23T13:08:47Z</time>
      </trkpt>
      <trkpt lat="58.027207972481847" lon="-4.403444984927774">
        <ele>90.5</ele>
        <time>2023-08-23T13:08:58Z</time>
      </trkpt>
      <trkpt lat="58.027195986360312" lon="-4.403424030169845">
        <ele>90.5</ele>
        <time>2023-08-23T13:09:11Z</time>
      </trkpt>
      <trkpt lat="58.027195986360312" lon="-4.403424030169845">
        <ele>90.5</ele>
        <time>2023-08-23T13:09:59Z</time>
      </trkpt>
      <trkpt lat="58.027175031602383" lon="-4.403386982157826">
        <ele>90.5</ele>
        <time>2023-08-23T13:10:04Z</time>
      </trkpt>
      <trkpt lat="58.026924999430776" lon="-4.402817012742162">
        <ele>91.939999999999998</ele>
        <time>2023-08-23T13:10:11Z</time>
      </trkpt>
      <trkpt lat="58.026884011924267" lon="-4.402670999988914">
        <ele>91.939999999999998</ele>
        <time>2023-08-23T13:10:12Z</time>
      </trkpt>
      <trkpt lat="58.026527026668191" lon="-4.401519997045398">
        <ele>90.5</ele>
        <time>2023-08-23T13:10:19Z</time>
      </trkpt>
      <trkpt lat="58.02646298892796" lon="-4.401470962911844">
        <ele>90.5</ele>
        <time>2023-08-23T13:10:20Z</time>
      </trkpt>
      <trkpt lat="58.02637598477304" lon="-4.401444979012013">
        <ele>90.5</ele>
        <time>2023-08-23T13:10:21Z</time>
      </trkpt>
      <trkpt lat="58.026285963132977" lon="-4.40141698345542">
        <ele>90.5</ele>
        <time>2023-08-23T13:10:22Z</time>
      </trkpt>
      <trkpt lat="58.026202982291579" lon="-4.401401979848743">
        <ele>90.019999999999996</ele>
        <time>2023-08-23T13:10:23Z</time>
      </trkpt>
      <trkpt lat="58.026101980358362" lon="-4.401425030082464">
        <ele>90.019999999999996</ele>
        <time>2023-08-23T13:10:24Z</time>
      </trkpt>
      <trkpt lat="58.026001984253526" lon="-4.401447996497154">
        <ele>90.019999999999996</ele>
        <time>2023-08-23T13:10:25Z</time>
      </trkpt>
      <trkpt lat="58.024757020175457" lon="-4.401798024773598">
        <ele>89.540000000000006</ele>
        <time>2023-08-23T13:10:38Z</time>
      </trkpt>
      <trkpt lat="58.024311019107699" lon="-4.401990976184607">
        <ele>88.579999999999998</ele>
        <time>2023-08-23T13:10:47Z</time>
      </trkpt>
      <trkpt lat="58.024286041036248" lon="-4.401970021426678">
        <ele>88.579999999999998</ele>
        <time>2023-08-23T13:10:48Z</time>
      </trkpt>
      <trkpt lat="58.02427195943892" lon="-4.401906989514828">
        <ele>88.579999999999998</ele>
        <time>2023-08-23T13:10:49Z</time>
      </trkpt>
      <trkpt lat="58.024252010509372" lon="-4.401816967874765">
        <ele>88.579999999999998</ele>
        <time>2023-08-23T13:10:50Z</time>
      </trkpt>
      <trkpt lat="58.024228038266301" lon="-4.401706997305155">
        <ele>88.579999999999998</ele>
        <time>2023-08-23T13:10:51Z</time>
      </trkpt>
      <trkpt lat="58.024201970547438" lon="-4.401590991765261">
        <ele>88.579999999999998</ele>
        <time>2023-08-23T13:10:52Z</time>
      </trkpt>
      <trkpt lat="58.024176992475986" lon="-4.401472974568605">
        <ele>88.579999999999998</ele>
        <time>2023-08-23T13:10:53Z</time>
      </trkpt>
      <trkpt lat="58.024153020232916" lon="-4.401361998170614">
        <ele>88.579999999999998</ele>
        <time>2023-08-23T13:10:54Z</time>
      </trkpt>
      <trkpt lat="58.024128964170814" lon="-4.401253033429384">
        <ele>88.579999999999998</ele>
        <time>2023-08-23T13:10:55Z</time>
      </trkpt>
      <trkpt lat="58.024082025513053" lon="-4.401024961844087">
        <ele>88.579999999999998</ele>
        <time>2023-08-23T13:10:57Z</time>
      </trkpt>
      <trkpt lat="58.024060986936092" lon="-4.400909962132573">
        <ele>88.579999999999998</ele>
        <time>2023-08-23T13:10:58Z</time>
      </trkpt>
      <trkpt lat="58.024041038006544" lon="-4.400797979906201">
        <ele>88.579999999999998</ele>
        <time>2023-08-23T13:10:59Z</time>
      </trkpt>
      <trkpt lat="58.024018993601203" lon="-4.400682980194688">
        <ele>88.579999999999998</ele>
        <time>2023-08-23T13:11:00Z</time>
      </trkpt>
      <trkpt lat="58.023907011374831" lon="-4.400075962767005">
        <ele>88.579999999999998</ele>
        <time>2023-08-23T13:11:05Z</time>
      </trkpt>
      <trkpt lat="58.02388496696949" lon="-4.399957023561001">
        <ele>88.579999999999998</ele>
        <time>2023-08-23T13:11:06Z</time>
      </trkpt>
      <trkpt lat="58.023864012211561" lon="-4.399842023849487">
        <ele>88.579999999999998</ele>
        <time>2023-08-23T13:11:07Z</time>
      </trkpt>
      <trkpt lat="58.023737026378512" lon="-4.399299966171384">
        <ele>89.540000000000006</ele>
        <time>2023-08-23T13:11:12Z</time>
      </trkpt>
      <trkpt lat="58.023638036102057" lon="-4.399006012827158">
        <ele>90.019999999999996</ele>
        <time>2023-08-23T13:11:15Z</time>
      </trkpt>
      <trkpt lat="58.023517001420259" lon="-4.398565040901303">
        <ele>90.980000000000004</ele>
        <time>2023-08-23T13:11:19Z</time>
      </trkpt>
      <trkpt lat="58.023484982550144" lon="-4.398441994562745">
        <ele>91.459999999999994</ele>
        <time>2023-08-23T13:11:20Z</time>
      </trkpt>
      <trkpt lat="58.0234320089221" lon="-4.39821601845324">
        <ele>92.420000000000002</ele>
        <time>2023-08-23T13:11:22Z</time>
      </trkpt>
      <trkpt lat="58.023419016972184" lon="-4.398093977943063">
        <ele>92.420000000000002</ele>
        <time>2023-08-23T13:11:23Z</time>
      </trkpt>
      <trkpt lat="58.023391021415591" lon="-4.397835982963443">
        <ele>93.390000000000001</ele>
        <time>2023-08-23T13:11:25Z</time>
      </trkpt>
      <trkpt lat="58.023385992273688" lon="-4.397735986858606">
        <ele>93.390000000000001</ele>
        <time>2023-08-23T13:11:26Z</time>
      </trkpt>
      <trkpt lat="58.023304017260671" lon="-4.396176030859351">
        <ele>96.75</ele>
        <time>2023-08-23T13:11:39Z</time>
      </trkpt>
      <trkpt lat="58.023288007825613" lon="-4.395917030051351">
        <ele>97.230000000000004</ele>
        <time>2023-08-23T13:11:41Z</time>
      </trkpt>
      <trkpt lat="58.023279039189219" lon="-4.395794989541173">
        <ele>97.230000000000004</ele>
        <time>2023-08-23T13:11:42Z</time>
      </trkpt>
      <trkpt lat="58.023232016712427" lon="-4.395193001255393">
        <ele>98.670000000000002</ele>
        <time>2023-08-23T13:11:49Z</time>
      </trkpt>
      <trkpt lat="58.023224975913763" lon="-4.395124018192291">
        <ele>98.670000000000002</ele>
        <time>2023-08-23T13:11:50Z</time>
      </trkpt>
      <trkpt lat="58.023219024762511" lon="-4.395046988502145">
        <ele>99.150000000000006</ele>
        <time>2023-08-23T13:11:51Z</time>
      </trkpt>
      <trkpt lat="58.023210978135467" lon="-4.394965013489127">
        <ele>99.150000000000006</ele>
        <time>2023-08-23T13:11:52Z</time>
      </trkpt>
      <trkpt lat="58.023203015327454" lon="-4.394875997677445">
        <ele>99.629999999999995</ele>
        <time>2023-08-23T13:11:53Z</time>
      </trkpt>
      <trkpt lat="58.023194968700409" lon="-4.39477700740099">
        <ele>99.629999999999995</ele>
        <time>2023-08-23T13:11:54Z</time>
      </trkpt>
      <trkpt lat="58.023183988407254" lon="-4.394658990204334">
        <ele>100.11</ele>
        <time>2023-08-23T13:11:55Z</time>
      </trkpt>
      <trkpt lat="58.0231730081141" lon="-4.394536027684808">
        <ele>100.11</ele>
        <time>2023-08-23T13:11:57Z</time>
      </trkpt>
      <trkpt lat="58.023055996745825" lon="-4.392563011497259">
        <ele>103.95999999999999</ele>
        <time>2023-08-23T13:12:09Z</time>
      </trkpt>
      <trkpt lat="58.023030012845993" lon="-4.391781985759735">
        <ele>104.44</ele>
        <time>2023-08-23T13:12:14Z</time>
      </trkpt>
      <trkpt lat="58.023026995360851" lon="-4.391699004918337">
        <ele>104.92</ele>
        <time>2023-08-23T13:12:15Z</time>
      </trkpt>
      <trkpt lat="58.023026995360851" lon="-4.391673021018505">
        <ele>104.92</ele>
        <time>2023-08-23T13:12:16Z</time>
      </trkpt>
      <trkpt lat="58.023026995360851" lon="-4.391673021018505">
        <ele>105.40000000000001</ele>
        <time>2023-08-23T13:12:17Z</time>
      </trkpt>
      <trkpt lat="58.023026995360851" lon="-4.3915990088135">
        <ele>106.36</ele>
        <time>2023-08-23T13:12:24Z</time>
      </trkpt>
      <trkpt lat="58.023026995360851" lon="-4.391630021855235">
        <ele>106.84</ele>
        <time>2023-08-23T13:12:25Z</time>
      </trkpt>
      <trkpt lat="58.023026995360851" lon="-4.391699004918337">
        <ele>107.31999999999999</ele>
        <time>2023-08-23T13:12:26Z</time>
      </trkpt>
      <trkpt lat="58.023059014230967" lon="-4.392646998167038">
        <ele>108.29000000000001</ele>
        <time>2023-08-23T13:12:32Z</time>
      </trkpt>
      <trkpt lat="58.023177031427622" lon="-4.394583972170949">
        <ele>108.29000000000001</ele>
        <time>2023-08-23T13:12:42Z</time>
      </trkpt>
      <trkpt lat="58.023263029754162" lon="-4.395587034523487">
        <ele>107.31999999999999</ele>
        <time>2023-08-23T13:12:49Z</time>
      </trkpt>
      <trkpt lat="58.023377023637295" lon="-4.397567007690668">
        <ele>102.52</ele>
        <time>2023-08-23T13:13:02Z</time>
      </trkpt>
      <trkpt lat="58.023423040285707" lon="-4.398137982934713">
        <ele>101.56</ele>
        <time>2023-08-23T13:13:06Z</time>
      </trkpt>
      <trkpt lat="58.02347500808537" lon="-4.398402012884617">
        <ele>101.08</ele>
        <time>2023-08-23T13:13:08Z</time>
      </trkpt>
      <trkpt lat="58.023508032783866" lon="-4.398528998717666">
        <ele>100.59999999999999</ele>
        <time>2023-08-23T13:13:09Z</time>
      </trkpt>
      <trkpt lat="58.023565029725432" lon="-4.39875204116106">
        <ele>99.629999999999995</ele>
        <time>2023-08-23T13:13:11Z</time>
      </trkpt>
      <trkpt lat="58.023582966998219" lon="-4.39881800673902">
        <ele>99.150000000000006</ele>
        <time>2023-08-23T13:13:12Z</time>
      </trkpt>
      <trkpt lat="58.023606017231941" lon="-4.398909034207463">
        <ele>98.189999999999998</ele>
        <time>2023-08-23T13:13:13Z</time>
      </trkpt>
      <trkpt lat="58.023606017231941" lon="-4.398910040035844">
        <ele>97.709999999999994</ele>
        <time>2023-08-23T13:13:14Z</time>
      </trkpt>
      <trkpt lat="58.023621020838618" lon="-4.398953039199114">
        <ele>96.75</ele>
        <time>2023-08-23T13:13:15Z</time>
      </trkpt>
      <trkpt lat="58.023630995303392" lon="-4.398983968421817">
        <ele>96.75</ele>
        <time>2023-08-23T13:13:16Z</time>
      </trkpt>
      <trkpt lat="58.023630995303392" lon="-4.398983968421817">
        <ele>95.310000000000002</ele>
        <time>2023-08-23T13:13:28Z</time>
      </trkpt>
      <trkpt lat="58.023643987253308" lon="-4.399021016433835">
        <ele>93.870000000000005</ele>
        <time>2023-08-23T13:14:04Z</time>
      </trkpt>
      <trkpt lat="58.02369000390172" lon="-4.399159988388419">
        <ele>94.349999999999994</ele>
        <time>2023-08-23T13:14:06Z</time>
      </trkpt>
      <trkpt lat="58.023724034428596" lon="-4.399261996150017">
        <ele>94.829999999999998</ele>
        <time>2023-08-23T13:14:07Z</time>
      </trkpt>
      <trkpt lat="58.023830987513065" lon="-4.399663992226124">
        <ele>92.900000000000006</ele>
        <time>2023-08-23T13:14:11Z</time>
      </trkpt>
      <trkpt lat="58.023880021646619" lon="-4.399927016347647">
        <ele>89.540000000000006</ele>
        <time>2023-08-23T13:14:19Z</time>
      </trkpt>
      <trkpt lat="58.023955039680004" lon="-4.400335969403386">
        <ele>86.659999999999997</ele>
        <time>2023-08-23T13:14:34Z</time>
      </trkpt>
      <trkpt lat="58.024124018847942" lon="-4.401233000680804">
        <ele>82.329999999999998</ele>
        <time>2023-08-23T13:14:41Z</time>
      </trkpt>
      <trkpt lat="58.024259973317385" lon="-4.401849992573261">
        <ele>79.930000000000007</ele>
        <time>2023-08-23T13:14:48Z</time>
      </trkpt>
      <trkpt lat="58.024242036044598" lon="-4.402042021974921">
        <ele>79.930000000000007</ele>
        <time>2023-08-23T13:14:49Z</time>
      </trkpt>
      <trkpt lat="58.024201970547438" lon="-4.402075968682766">
        <ele>80.409999999999997</ele>
        <time>2023-08-23T13:14:50Z</time>
      </trkpt>
      <trkpt lat="58.024144973605871" lon="-4.40212500281632">
        <ele>81.370000000000005</ele>
        <time>2023-08-23T13:14:51Z</time>
      </trkpt>
      <trkpt lat="58.024079008027911" lon="-4.402180993929505">
        <ele>82.329999999999998</ele>
        <time>2023-08-23T13:14:52Z</time>
      </trkpt>
      <trkpt lat="58.024000972509384" lon="-4.402247965335846">
        <ele>82.810000000000002</ele>
        <time>2023-08-23T13:14:53Z</time>
      </trkpt>
      <trkpt lat="58.023205026984215" lon="-4.402931006625295">
        <ele>84.25</ele>
        <time>2023-08-23T13:15:01Z</time>
      </trkpt>
      <trkpt lat="58.021904993802309" lon="-4.403963992372155">
        <ele>86.180000000000007</ele>
        <time>2023-08-23T13:15:13Z</time>
      </trkpt>
      <trkpt lat="58.021697038784623" lon="-4.404097013175488">
        <ele>86.659999999999997</ele>
        <time>2023-08-23T13:15:15Z</time>
      </trkpt>
      <trkpt lat="58.021580027416348" lon="-4.40416700206697">
        <ele>86.659999999999997</ele>
        <time>2023-08-23T13:15:16Z</time>
      </trkpt>
      <trkpt lat="58.021462010219693" lon="-4.404177982360125">
        <ele>87.140000000000001</ele>
        <time>2023-08-23T13:15:17Z</time>
      </trkpt>
      <trkpt lat="58.021337036043406" lon="-4.404179994016886">
        <ele>87.140000000000001</ele>
        <time>2023-08-23T13:15:18Z</time>
      </trkpt>
      <trkpt lat="58.021216001361609" lon="-4.404154010117054">
        <ele>87.140000000000001</ele>
        <time>2023-08-23T13:15:19Z</time>
      </trkpt>
      <trkpt lat="58.020564978942275" lon="-4.40401797182858">
        <ele>87.620000000000005</ele>
        <time>2023-08-23T13:15:26Z</time>
      </trkpt>
      <trkpt lat="58.020521979779005" lon="-4.404009003192186">
        <ele>88.099999999999994</ele>
        <time>2023-08-23T13:15:27Z</time>
      </trkpt>
      <trkpt lat="58.020442016422749" lon="-4.404049990698695">
        <ele>88.099999999999994</ele>
        <time>2023-08-23T13:15:28Z</time>
      </trkpt>
      <trkpt lat="58.02042399533093" lon="-4.404145963490009">
        <ele>88.579999999999998</ele>
        <time>2023-08-23T13:15:30Z</time>
      </trkpt>
      <trkpt lat="58.020288040861487" lon="-4.404845014214516">
        <ele>89.060000000000002</ele>
        <time>2023-08-23T13:15:35Z</time>
      </trkpt>
      <trkpt lat="58.020255016162992" lon="-4.404934030026197">
        <ele>89.060000000000002</ele>
        <time>2023-08-23T13:15:36Z</time>
      </trkpt>
      <trkpt lat="58.020221991464496" lon="-4.404993038624525">
        <ele>89.060000000000002</ele>
        <time>2023-08-23T13:15:37Z</time>
      </trkpt>
      <trkpt lat="58.020176980644464" lon="-4.40502799116075">
        <ele>89.060000000000002</ele>
        <time>2023-08-23T13:15:38Z</time>
      </trkpt>
      <trkpt lat="58.020132975652814" lon="-4.405062021687627">
        <ele>89.060000000000002</ele>
        <time>2023-08-23T13:15:39Z</time>
      </trkpt>
      <trkpt lat="58.020088970661163" lon="-4.405096974223852">
        <ele>89.060000000000002</ele>
        <time>2023-08-23T13:15:40Z</time>
      </trkpt>
      <trkpt lat="58.020043037831783" lon="-4.405131004750729">
        <ele>89.060000000000002</ele>
        <time>2023-08-23T13:15:41Z</time>
      </trkpt>
      <trkpt lat="58.01993197761476" lon="-4.405109966173768">
        <ele>89.060000000000002</ele>
        <time>2023-08-23T13:15:45Z</time>
      </trkpt>
      <trkpt lat="58.020043959841132" lon="-4.405131004750729">
        <ele>88.579999999999998</ele>
        <time>2023-08-23T13:15:46Z</time>
      </trkpt>
      <trkpt lat="58.019915968179703" lon="-4.405290009453893">
        <ele>88.099999999999994</ele>
        <time>2023-08-23T13:15:49Z</time>
      </trkpt>
      <trkpt lat="58.019942035898566" lon="-4.405256984755397">
        <ele>72.239999999999995</ele>
        <time>2023-08-23T13:19:48Z</time>
      </trkpt>
      <trkpt lat="58.019956033676863" lon="-4.405291015282273">
        <ele>75.599999999999994</ele>
        <time>2023-08-23T13:20:25Z</time>
      </trkpt>
      <trkpt lat="58.020003978163004" lon="-4.405323034152389">
        <ele>75.599999999999994</ele>
        <time>2023-08-23T13:20:36Z</time>
      </trkpt>
      <trkpt lat="58.020031973719597" lon="-4.405208034440875">
        <ele>81.370000000000005</ele>
        <time>2023-08-23T13:20:46Z</time>
      </trkpt>
      <trkpt lat="58.020023005083203" lon="-4.405126981437206">
        <ele>81.849999999999994</ele>
        <time>2023-08-23T13:20:48Z</time>
      </trkpt>
      <trkpt lat="58.019996015354991" lon="-4.405122036114335">
        <ele>82.329999999999998</ele>
        <time>2023-08-23T13:20:49Z</time>
      </trkpt>
      <trkpt lat="58.019949998706579" lon="-4.40511398948729">
        <ele>82.810000000000002</ele>
        <time>2023-08-23T13:20:50Z</time>
      </trkpt>
      <trkpt lat="58.019884033128619" lon="-4.405100997537375">
        <ele>83.290000000000006</ele>
        <time>2023-08-23T13:20:51Z</time>
      </trkpt>
      <trkpt lat="58.019813960418105" lon="-4.405088005587459">
        <ele>83.769999999999996</ele>
        <time>2023-08-23T13:20:52Z</time>
      </trkpt>
      <trkpt lat="58.019014997407794" lon="-4.404911985620856">
        <ele>86.659999999999997</ele>
        <time>2023-08-23T13:21:00Z</time>
      </trkpt>
      <trkpt lat="58.018682990223169" lon="-4.404866974800825">
        <ele>87.140000000000001</ele>
        <time>2023-08-23T13:21:03Z</time>
      </trkpt>
      <trkpt lat="58.018570002168417" lon="-4.404888013377786">
        <ele>87.620000000000005</ele>
        <time>2023-08-23T13:21:04Z</time>
      </trkpt>
      <trkpt lat="58.018327010795474" lon="-4.404934030026197">
        <ele>88.099999999999994</ele>
        <time>2023-08-23T13:21:06Z</time>
      </trkpt>
      <trkpt lat="58.018204970285296" lon="-4.405024973675609">
        <ele>88.099999999999994</ele>
        <time>2023-08-23T13:21:07Z</time>
      </trkpt>
      <trkpt lat="58.018081001937389" lon="-4.405131004750729">
        <ele>88.579999999999998</ele>
        <time>2023-08-23T13:21:08Z</time>
      </trkpt>
      <trkpt lat="58.017963990569115" lon="-4.405267965048552">
        <ele>88.579999999999998</ele>
        <time>2023-08-23T13:21:09Z</time>
      </trkpt>
      <trkpt lat="58.017858965322375" lon="-4.405452031642199">
        <ele>89.060000000000002</ele>
        <time>2023-08-23T13:21:10Z</time>
      </trkpt>
      <trkpt lat="58.017750000581145" lon="-4.405642971396446">
        <ele>89.540000000000006</ele>
        <time>2023-08-23T13:21:11Z</time>
      </trkpt>
      <trkpt lat="58.017640030011535" lon="-4.405836006626487">
        <ele>90.019999999999996</ele>
        <time>2023-08-23T13:21:12Z</time>
      </trkpt>
      <trkpt lat="58.017183970659971" lon="-4.406495997682214">
        <ele>93.390000000000001</ele>
        <time>2023-08-23T13:21:16Z</time>
      </trkpt>
      <trkpt lat="58.017082968726754" lon="-4.406569004058838">
        <ele>93.870000000000005</ele>
        <time>2023-08-23T13:21:17Z</time>
      </trkpt>
      <trkpt lat="58.01692396402359" lon="-4.40652902238071">
        <ele>94.349999999999994</ele>
        <time>2023-08-23T13:21:18Z</time>
      </trkpt>
      <trkpt lat="58.016791027039289" lon="-4.406495997682214">
        <ele>94.829999999999998</ele>
        <time>2023-08-23T13:21:19Z</time>
      </trkpt>
      <trkpt lat="58.016664041206241" lon="-4.406417962163687">
        <ele>95.310000000000002</ele>
        <time>2023-08-23T13:21:20Z</time>
      </trkpt>
      <trkpt lat="58.016531020402908" lon="-4.406303968280554">
        <ele>95.310000000000002</ele>
        <time>2023-08-23T13:21:21Z</time>
      </trkpt>
      <trkpt lat="58.016393976286054" lon="-4.406187040731311">
        <ele>95.310000000000002</ele>
        <time>2023-08-23T13:21:22Z</time>
      </trkpt>
      <trkpt lat="58.014986990019679" lon="-4.404979040846229">
        <ele>94.349999999999994</ele>
        <time>2023-08-23T13:21:31Z</time>
      </trkpt>
      <trkpt lat="58.01311899907887" lon="-4.403755031526089">
        <ele>92.900000000000006</ele>
        <time>2023-08-23T13:21:42Z</time>
      </trkpt>
      <trkpt lat="58.011996997520328" lon="-4.403265025466681">
        <ele>93.870000000000005</ele>
        <time>2023-08-23T13:21:49Z</time>
      </trkpt>
      <trkpt lat="58.01182902418077" lon="-4.403354041278362">
        <ele>93.870000000000005</ele>
        <time>2023-08-23T13:21:50Z</time>
      </trkpt>
      <trkpt lat="58.011690974235535" lon="-4.403427969664335">
        <ele>94.349999999999994</ele>
        <time>2023-08-23T13:21:51Z</time>
      </trkpt>
      <trkpt lat="58.011570023372769" lon="-4.403556967154145">
        <ele>94.829999999999998</ele>
        <time>2023-08-23T13:21:52Z</time>
      </trkpt>
      <trkpt lat="58.011458963155746" lon="-4.403733992949128">
        <ele>95.790000000000006</ele>
        <time>2023-08-23T13:21:53Z</time>
      </trkpt>
      <trkpt lat="58.011346980929375" lon="-4.403945971280336">
        <ele>96.269999999999996</ele>
        <time>2023-08-23T13:21:54Z</time>
      </trkpt>
      <trkpt lat="58.011271040886641" lon="-4.404185023158789">
        <ele>96.75</ele>
        <time>2023-08-23T13:21:55Z</time>
      </trkpt>
      <trkpt lat="58.011202979832888" lon="-4.404470007866621">
        <ele>97.709999999999994</ele>
        <time>2023-08-23T13:21:56Z</time>
      </trkpt>
      <trkpt lat="58.011132990941405" lon="-4.404763039201498">
        <ele>98.670000000000002</ele>
        <time>2023-08-23T13:21:57Z</time>
      </trkpt>
      <trkpt lat="58.010973986238241" lon="-4.405599972233176">
        <ele>101.08</ele>
        <time>2023-08-23T13:22:00Z</time>
      </trkpt>
      <trkpt lat="58.010945990681648" lon="-4.405868025496602">
        <ele>102.04000000000001</ele>
        <time>2023-08-23T13:22:01Z</time>
      </trkpt>
      <trkpt lat="58.010948002338409" lon="-4.406174970790744">
        <ele>103</ele>
        <time>2023-08-23T13:22:02Z</time>
      </trkpt>
      <trkpt lat="58.010952025651932" lon="-4.409607024863362">
        <ele>110.20999999999999</ele>
        <time>2023-08-23T13:22:12Z</time>
      </trkpt>
      <trkpt lat="58.010569978505373" lon="-4.411980025470257">
        <ele>113.09</ele>
        <time>2023-08-23T13:22:19Z</time>
      </trkpt>
      <trkpt lat="58.009623996913433" lon="-4.415976013988257">
        <ele>120.78</ele>
        <time>2023-08-23T13:22:32Z</time>
      </trkpt>
      <trkpt lat="58.008903991430998" lon="-4.41933698952198">
        <ele>127.03</ele>
        <time>2023-08-23T13:22:43Z</time>
      </trkpt>
      <trkpt lat="58.008842971175909" lon="-4.419635972008109">
        <ele>127.03</ele>
        <time>2023-08-23T13:22:44Z</time>
      </trkpt>
      <trkpt lat="58.008755967020988" lon="-4.419903019443154">
        <ele>127.03</ele>
        <time>2023-08-23T13:22:45Z</time>
      </trkpt>
      <trkpt lat="58.008651025593281" lon="-4.420160008594394">
        <ele>127.03</ele>
        <time>2023-08-23T13:22:46Z</time>
      </trkpt>
      <trkpt lat="58.008540971204638" lon="-4.420427978038788">
        <ele>126.55</ele>
        <time>2023-08-23T13:22:47Z</time>
      </trkpt>
      <trkpt lat="58.008419014513493" lon="-4.420699970796704">
        <ele>126.55</ele>
        <time>2023-08-23T13:22:48Z</time>
      </trkpt>
      <trkpt lat="58.00721101462841" lon="-4.423137009143829">
        <ele>122.70999999999999</ele>
        <time>2023-08-23T13:22:57Z</time>
      </trkpt>
      <trkpt lat="58.006710028275847" lon="-4.424334028735757">
        <ele>120.78</ele>
        <time>2023-08-23T13:23:02Z</time>
      </trkpt>
      <trkpt lat="58.006654037162662" lon="-4.424567967653275">
        <ele>120.3</ele>
        <time>2023-08-23T13:23:03Z</time>
      </trkpt>
      <trkpt lat="58.00661196000874" lon="-4.424782963469625">
        <ele>119.81999999999999</ele>
        <time>2023-08-23T13:23:04Z</time>
      </trkpt>
      <trkpt lat="58.00661196000874" lon="-4.425020003691316">
        <ele>119.34</ele>
        <time>2023-08-23T13:23:05Z</time>
      </trkpt>
      <trkpt lat="58.006620006635785" lon="-4.42524497397244">
        <ele>118.38</ele>
        <time>2023-08-23T13:23:06Z</time>
      </trkpt>
      <trkpt lat="58.006656970828772" lon="-4.425483020022512">
        <ele>117.90000000000001</ele>
        <time>2023-08-23T13:23:07Z</time>
      </trkpt>
      <trkpt lat="58.006697036325932" lon="-4.425736991688609">
        <ele>116.94</ele>
        <time>2023-08-23T13:23:08Z</time>
      </trkpt>
      <trkpt lat="58.006891999393702" lon="-4.427626021206379">
        <ele>113.09</ele>
        <time>2023-08-23T13:23:15Z</time>
      </trkpt>
      <trkpt lat="58.006869032979012" lon="-4.427872030064464">
        <ele>112.61</ele>
        <time>2023-08-23T13:23:16Z</time>
      </trkpt>
      <trkpt lat="58.006817987188697" lon="-4.428106974810362">
        <ele>111.65000000000001</ele>
        <time>2023-08-23T13:23:17Z</time>
      </trkpt>
      <trkpt lat="58.006754033267498" lon="-4.428330017253757">
        <ele>111.65000000000001</ele>
        <time>2023-08-23T13:23:18Z</time>
      </trkpt>
      <trkpt lat="58.006666023284197" lon="-4.42853000946343">
        <ele>111.65000000000001</ele>
        <time>2023-08-23T13:23:19Z</time>
      </trkpt>
      <trkpt lat="58.006562003865838" lon="-4.428696976974607">
        <ele>111.65000000000001</ele>
        <time>2023-08-23T13:23:20Z</time>
      </trkpt>
      <trkpt lat="58.006444992497563" lon="-4.428847013041377">
        <ele>112.13</ele>
        <time>2023-08-23T13:23:21Z</time>
      </trkpt>
      <trkpt lat="58.006323035806417" lon="-4.428997971117497">
        <ele>112.13</ele>
        <time>2023-08-23T13:23:22Z</time>
      </trkpt>
      <trkpt lat="58.00617903470993" lon="-4.429096961393952">
        <ele>112.13</ele>
        <time>2023-08-23T13:23:23Z</time>
      </trkpt>
      <trkpt lat="58.00603000447154" lon="-4.429197963327169">
        <ele>112.13</ele>
        <time>2023-08-23T13:23:24Z</time>
      </trkpt>
      <trkpt lat="58.004891993477941" lon="-4.429924003779888">
        <ele>112.61</ele>
        <time>2023-08-23T13:23:31Z</time>
      </trkpt>
      <trkpt lat="58.004716979339719" lon="-4.429945964366198">
        <ele>112.61</ele>
        <time>2023-08-23T13:23:32Z</time>
      </trkpt>
      <trkpt lat="58.004383966326714" lon="-4.430016959086061">
        <ele>113.09</ele>
        <time>2023-08-23T13:23:34Z</time>
      </trkpt>
      <trkpt lat="58.004237031564116" lon="-4.430085020139813">
        <ele>113.09</ele>
        <time>2023-08-23T13:23:35Z</time>
      </trkpt>
      <trkpt lat="58.004105016589165" lon="-4.430197002366185">
        <ele>114.05</ele>
        <time>2023-08-23T13:23:36Z</time>
      </trkpt>
      <trkpt lat="58.003973001614213" lon="-4.430341003462672">
        <ele>114.05</ele>
        <time>2023-08-23T13:23:37Z</time>
      </trkpt>
      <trkpt lat="58.003836963325739" lon="-4.430490033701062">
        <ele>114.53</ele>
        <time>2023-08-23T13:23:38Z</time>
      </trkpt>
      <trkpt lat="58.00265402533114" lon="-4.431623015552759">
        <ele>117.42</ele>
        <time>2023-08-23T13:23:46Z</time>
      </trkpt>
      <trkpt lat="58.001849027350545" lon="-4.432217041030526">
        <ele>118.86</ele>
        <time>2023-08-23T13:23:51Z</time>
      </trkpt>
      <trkpt lat="58.001692034304142" lon="-4.432280994951725">
        <ele>119.34</ele>
        <time>2023-08-23T13:23:52Z</time>
      </trkpt>
      <trkpt lat="58.001422975212336" lon="-4.432466989383102">
        <ele>120.78</ele>
        <time>2023-08-23T13:23:54Z</time>
      </trkpt>
      <trkpt lat="58.001299006864429" lon="-4.43259397521615">
        <ele>121.26000000000001</ele>
        <time>2023-08-23T13:23:55Z</time>
      </trkpt>
      <trkpt lat="58.000625018030405" lon="-4.433283973485231">
        <ele>126.06999999999999</ele>
        <time>2023-08-23T13:24:00Z</time>
      </trkpt>
      <trkpt lat="58.000473976135254" lon="-4.433336025103927">
        <ele>127.03</ele>
        <time>2023-08-23T13:24:01Z</time>
      </trkpt>
      <trkpt lat="57.999850027263165" lon="-4.433621009811759">
        <ele>131.36000000000001</ele>
        <time>2023-08-23T13:24:05Z</time>
      </trkpt>
      <trkpt lat="57.999697979539633" lon="-4.433750007301569">
        <ele>132.31999999999999</ele>
        <time>2023-08-23T13:24:06Z</time>
      </trkpt>
      <trkpt lat="57.999552972614765" lon="-4.433917980641127">
        <ele>133.28</ele>
        <time>2023-08-23T13:24:07Z</time>
      </trkpt>
      <trkpt lat="57.998993983492255" lon="-4.434657013043761">
        <ele>136.63999999999999</ele>
        <time>2023-08-23T13:24:11Z</time>
      </trkpt>
      <trkpt lat="57.998908990994096" lon="-4.43491199053824">
        <ele>137.61000000000001</ele>
        <time>2023-08-23T13:24:12Z</time>
      </trkpt>
      <trkpt lat="57.998825004324317" lon="-4.435164034366608">
        <ele>138.09</ele>
        <time>2023-08-23T13:24:13Z</time>
      </trkpt>
      <trkpt lat="57.998775970190763" lon="-4.435450024902821">
        <ele>139.05000000000001</ele>
        <time>2023-08-23T13:24:14Z</time>
      </trkpt>
      <trkpt lat="57.998726014047861" lon="-4.435753030702472">
        <ele>139.53</ele>
        <time>2023-08-23T13:24:15Z</time>
      </trkpt>
      <trkpt lat="57.998687038198113" lon="-4.436062993481755">
        <ele>140.00999999999999</ele>
        <time>2023-08-23T13:24:16Z</time>
      </trkpt>
      <trkpt lat="57.998647978529334" lon="-4.438395006582141">
        <ele>143.84999999999999</ele>
        <time>2023-08-23T13:24:23Z</time>
      </trkpt>
      <trkpt lat="57.998609002679586" lon="-4.43871402181685">
        <ele>144.34</ele>
        <time>2023-08-23T13:24:24Z</time>
      </trkpt>
      <trkpt lat="57.998571032658219" lon="-4.439036976546049">
        <ele>144.34</ele>
        <time>2023-08-23T13:24:25Z</time>
      </trkpt>
      <trkpt lat="57.998530967161059" lon="-4.439368983730674">
        <ele>144.81999999999999</ele>
        <time>2023-08-23T13:24:26Z</time>
      </trkpt>
      <trkpt lat="57.998468019068241" lon="-4.439694033935666">
        <ele>145.30000000000001</ele>
        <time>2023-08-23T13:24:27Z</time>
      </trkpt>
      <trkpt lat="57.998398030176759" lon="-4.440020006150007">
        <ele>145.78</ele>
        <time>2023-08-23T13:24:28Z</time>
      </trkpt>
      <trkpt lat="57.997726975008845" lon="-4.443149976432324">
        <ele>149.62</ele>
        <time>2023-08-23T13:24:38Z</time>
      </trkpt>
      <trkpt lat="57.997209979221225" lon="-4.445559019222856">
        <ele>149.13999999999999</ele>
        <time>2023-08-23T13:24:46Z</time>
      </trkpt>
      <trkpt lat="57.996723996475339" lon="-4.4478689879179">
        <ele>146.74000000000001</ele>
        <time>2023-08-23T13:24:53Z</time>
      </trkpt>
      <trkpt lat="57.996680997312069" lon="-4.448192026466131">
        <ele>146.25999999999999</ele>
        <time>2023-08-23T13:24:54Z</time>
      </trkpt>
      <trkpt lat="57.996633974835277" lon="-4.448539959266782">
        <ele>145.78</ele>
        <time>2023-08-23T13:24:55Z</time>
      </trkpt>
      <trkpt lat="57.996547976508737" lon="-4.451109012588859">
        <ele>139.53</ele>
        <time>2023-08-23T13:25:03Z</time>
      </trkpt>
      <trkpt lat="57.996503971517086" lon="-4.451321996748447">
        <ele>139.53</ele>
        <time>2023-08-23T13:25:04Z</time>
      </trkpt>
      <trkpt lat="57.996392995119095" lon="-4.451755005866289">
        <ele>139.05000000000001</ele>
        <time>2023-08-23T13:25:07Z</time>
      </trkpt>
      <trkpt lat="57.996331974864006" lon="-4.451914010569453">
        <ele>139.05000000000001</ele>
        <time>2023-08-23T13:25:08Z</time>
      </trkpt>
      <trkpt lat="57.995793018490076" lon="-4.453298030421138">
        <ele>140.49000000000001</ele>
        <time>2023-08-23T13:25:14Z</time>
      </trkpt>
      <trkpt lat="57.994503965601325" lon="-4.455778989940882">
        <ele>146.74000000000001</ele>
        <time>2023-08-23T13:25:23Z</time>
      </trkpt>
      <trkpt lat="57.993381964042783" lon="-4.457316985353828">
        <ele>153.94999999999999</ele>
        <time>2023-08-23T13:25:30Z</time>
      </trkpt>
      <trkpt lat="57.992863962426782" lon="-4.457990974187851">
        <ele>157.31</ele>
        <time>2023-08-23T13:25:33Z</time>
      </trkpt>
      <trkpt lat="57.991098985075951" lon="-4.459900036454201">
        <ele>165.47999999999999</ele>
        <time>2023-08-23T13:25:43Z</time>
      </trkpt>
      <trkpt lat="57.990811988711357" lon="-4.460324998944998">
        <ele>166.93000000000001</ele>
        <time>2023-08-23T13:25:45Z</time>
      </trkpt>
      <trkpt lat="57.990676034241915" lon="-4.46058601140976">
        <ele>167.41</ele>
        <time>2023-08-23T13:25:46Z</time>
      </trkpt>
      <trkpt lat="57.989886961877346" lon="-4.462610995396972">
        <ele>170.77000000000001</ele>
        <time>2023-08-23T13:25:53Z</time>
      </trkpt>
      <trkpt lat="57.989837005734444" lon="-4.462917018681765">
        <ele>171.72999999999999</ele>
        <time>2023-08-23T13:25:54Z</time>
      </trkpt>
      <trkpt lat="57.98978503793478" lon="-4.463236033916473">
        <ele>172.21000000000001</ele>
        <time>2023-08-23T13:25:55Z</time>
      </trkpt>
      <trkpt lat="57.98961597494781" lon="-4.464209005236626">
        <ele>173.66</ele>
        <time>2023-08-23T13:25:58Z</time>
      </trkpt>
      <trkpt lat="57.989524025470018" lon="-4.4644970074296">
        <ele>173.66</ele>
        <time>2023-08-23T13:25:59Z</time>
      </trkpt>
      <trkpt lat="57.989428974688053" lon="-4.464793978258967">
        <ele>173.66</ele>
        <time>2023-08-23T13:26:00Z</time>
      </trkpt>
      <trkpt lat="57.988551976159215" lon="-4.466599021106958">
        <ele>175.58000000000001</ele>
        <time>2023-08-23T13:26:07Z</time>
      </trkpt>
      <trkpt lat="57.987153958529234" lon="-4.468310019001365">
        <ele>177.5</ele>
        <time>2023-08-23T13:26:16Z</time>
      </trkpt>
      <trkpt lat="57.987009035423398" lon="-4.468500036746264">
        <ele>177.5</ele>
        <time>2023-08-23T13:26:17Z</time>
      </trkpt>
      <trkpt lat="57.986888000741601" lon="-4.468762977048755">
        <ele>177.02000000000001</ele>
        <time>2023-08-23T13:26:18Z</time>
      </trkpt>
      <trkpt lat="57.986764032393694" lon="-4.469031030312181">
        <ele>176.06</ele>
        <time>2023-08-23T13:26:19Z</time>
      </trkpt>
      <trkpt lat="57.986674010753632" lon="-4.469343004748225">
        <ele>175.58000000000001</ele>
        <time>2023-08-23T13:26:20Z</time>
      </trkpt>
      <trkpt lat="57.986592035740614" lon="-4.469633018597961">
        <ele>175.09999999999999</ele>
        <time>2023-08-23T13:26:21Z</time>
      </trkpt>
      <trkpt lat="57.986554987728596" lon="-4.469984974712133">
        <ele>174.62</ele>
        <time>2023-08-23T13:26:22Z</time>
      </trkpt>
      <trkpt lat="57.986529003828764" lon="-4.470336008816958">
        <ele>174.13999999999999</ele>
        <time>2023-08-23T13:26:23Z</time>
      </trkpt>
      <trkpt lat="57.986535038799047" lon="-4.470720989629626">
        <ele>174.62</ele>
        <time>2023-08-23T13:26:24Z</time>
      </trkpt>
      <trkpt lat="57.98654199577868" lon="-4.471122985705733">
        <ele>174.62</ele>
        <time>2023-08-23T13:26:25Z</time>
      </trkpt>
      <trkpt lat="57.986482987180352" lon="-4.474713960662484">
        <ele>181.83000000000001</ele>
        <time>2023-08-23T13:26:34Z</time>
      </trkpt>
      <trkpt lat="57.986250976100564" lon="-4.478368973359466">
        <ele>187.59</ele>
        <time>2023-08-23T13:26:43Z</time>
      </trkpt>
      <trkpt lat="57.98604603856802" lon="-4.482455989345908">
        <ele>191.44</ele>
        <time>2023-08-23T13:26:53Z</time>
      </trkpt>
      <trkpt lat="57.985969008877873" lon="-4.483461985364556">
        <ele>193.36000000000001</ele>
        <time>2023-08-23T13:26:56Z</time>
      </trkpt>
      <trkpt lat="57.985926009714603" lon="-4.483797010034323">
        <ele>194.31999999999999</ele>
        <time>2023-08-23T13:26:57Z</time>
      </trkpt>
      <trkpt lat="57.985714031383395" lon="-4.48475799523294">
        <ele>194.80000000000001</ele>
        <time>2023-08-23T13:27:00Z</time>
      </trkpt>
      <trkpt lat="57.985617974773049" lon="-4.485062006860972">
        <ele>194.80000000000001</ele>
        <time>2023-08-23T13:27:01Z</time>
      </trkpt>
      <trkpt lat="57.984516005963087" lon="-4.487501978874207">
        <ele>193.36000000000001</ele>
        <time>2023-08-23T13:27:09Z</time>
      </trkpt>
      <trkpt lat="57.983529036864638" lon="-4.490197012200952">
        <ele>192.40000000000001</ele>
        <time>2023-08-23T13:27:17Z</time>
      </trkpt>
      <trkpt lat="57.982433019205928" lon="-4.493997031822801">
        <ele>187.11000000000001</ele>
        <time>2023-08-23T13:27:28Z</time>
      </trkpt>
      <trkpt lat="57.981289979070425" lon="-4.498153030872345">
        <ele>179.90000000000001</ele>
        <time>2023-08-23T13:27:40Z</time>
      </trkpt>
      <trkpt lat="57.980475006625056" lon="-4.501906028017402">
        <ele>175.58000000000001</ele>
        <time>2023-08-23T13:27:50Z</time>
      </trkpt>
      <trkpt lat="57.980300998315215" lon="-4.503165995702148">
        <ele>176.53999999999999</ele>
        <time>2023-08-23T13:27:54Z</time>
      </trkpt>
      <trkpt lat="57.980284988880157" lon="-4.503521975129843">
        <ele>176.06</ele>
        <time>2023-08-23T13:27:55Z</time>
      </trkpt>
      <trkpt lat="57.980322036892176" lon="-4.503888012841344">
        <ele>176.06</ele>
        <time>2023-08-23T13:27:56Z</time>
      </trkpt>
      <trkpt lat="57.980539966374636" lon="-4.506427980959415">
        <ele>173.66</ele>
        <time>2023-08-23T13:28:03Z</time>
      </trkpt>
      <trkpt lat="57.980539966374636" lon="-4.506746996194124">
        <ele>173.16999999999999</ele>
        <time>2023-08-23T13:28:04Z</time>
      </trkpt>
      <trkpt lat="57.980539966374636" lon="-4.507098030298948">
        <ele>172.69</ele>
        <time>2023-08-23T13:28:05Z</time>
      </trkpt>
      <trkpt lat="57.980499984696507" lon="-4.507373040542007">
        <ele>172.21000000000001</ele>
        <time>2023-08-23T13:28:06Z</time>
      </trkpt>
      <trkpt lat="57.980452040210366" lon="-4.507700018584728">
        <ele>171.72999999999999</ele>
        <time>2023-08-23T13:28:07Z</time>
      </trkpt>
      <trkpt lat="57.980389008298516" lon="-4.50802699662745">
        <ele>170.77000000000001</ele>
        <time>2023-08-23T13:28:08Z</time>
      </trkpt>
      <trkpt lat="57.980316001921892" lon="-4.508356992155314">
        <ele>170.28999999999999</ele>
        <time>2023-08-23T13:28:09Z</time>
      </trkpt>
      <trkpt lat="57.980241989716887" lon="-4.50869201682508">
        <ele>169.33000000000001</ele>
        <time>2023-08-23T13:28:10Z</time>
      </trkpt>
      <trkpt lat="57.9800979886204" lon="-4.509343961253762">
        <ele>167.41</ele>
        <time>2023-08-23T13:28:12Z</time>
      </trkpt>
      <trkpt lat="57.980061024427414" lon="-4.5096580311656">
        <ele>166.93000000000001</ele>
        <time>2023-08-23T13:28:13Z</time>
      </trkpt>
      <trkpt lat="57.980048032477498" lon="-4.509976040571928">
        <ele>166.44999999999999</ele>
        <time>2023-08-23T13:28:14Z</time>
      </trkpt>
      <trkpt lat="57.979747960343957" lon="-4.512948011979461">
        <ele>161.16</ele>
        <time>2023-08-23T13:28:23Z</time>
      </trkpt>
      <trkpt lat="57.979295002296567" lon="-4.51470997184515">
        <ele>156.83000000000001</ele>
        <time>2023-08-23T13:28:29Z</time>
      </trkpt>
      <trkpt lat="57.979253008961678" lon="-4.515015995129943">
        <ele>155.87</ele>
        <time>2023-08-23T13:28:30Z</time>
      </trkpt>
      <trkpt lat="57.979238005355" lon="-4.515326963737607">
        <ele>155.38999999999999</ele>
        <time>2023-08-23T13:28:31Z</time>
      </trkpt>
      <trkpt lat="57.979244040325284" lon="-4.515638016164303">
        <ele>154.43000000000001</ele>
        <time>2023-08-23T13:28:32Z</time>
      </trkpt>
      <trkpt lat="57.979269018396735" lon="-4.515974968671799">
        <ele>153.47</ele>
        <time>2023-08-23T13:28:33Z</time>
      </trkpt>
      <trkpt lat="57.979341018944979" lon="-4.516952969133854">
        <ele>150.58000000000001</ele>
        <time>2023-08-23T13:28:37Z</time>
      </trkpt>
      <trkpt lat="57.979358034208417" lon="-4.517186991870403">
        <ele>149.62</ele>
        <time>2023-08-23T13:28:39Z</time>
      </trkpt>
      <trkpt lat="57.979382006451488" lon="-4.517505001276732">
        <ele>148.66</ele>
        <time>2023-08-23T13:28:41Z</time>
      </trkpt>
      <trkpt lat="57.979382006451488" lon="-4.519276013597846">
        <ele>145.30000000000001</ele>
        <time>2023-08-23T13:28:47Z</time>
      </trkpt>
      <trkpt lat="57.979316962882876" lon="-4.52018897049129">
        <ele>143.37</ele>
        <time>2023-08-23T13:28:50Z</time>
      </trkpt>
      <trkpt lat="57.979239011183381" lon="-4.52040002681315">
        <ele>142.41</ele>
        <time>2023-08-23T13:28:51Z</time>
      </trkpt>
      <trkpt lat="57.979132980108261" lon="-4.520587027072907">
        <ele>141.44999999999999</ele>
        <time>2023-08-23T13:28:52Z</time>
      </trkpt>
      <trkpt lat="57.978995013982058" lon="-4.520738990977407">
        <ele>140.49000000000001</ele>
        <time>2023-08-23T13:28:53Z</time>
      </trkpt>
      <trkpt lat="57.978846989572048" lon="-4.520902018994093">
        <ele>139.53</ele>
        <time>2023-08-23T13:28:54Z</time>
      </trkpt>
      <trkpt lat="57.978238966315985" lon="-4.521667035296559">
        <ele>134.72</ele>
        <time>2023-08-23T13:28:58Z</time>
      </trkpt>
      <trkpt lat="57.978114997968078" lon="-4.521926958113909">
        <ele>133.75999999999999</ele>
        <time>2023-08-23T13:28:59Z</time>
      </trkpt>
      <trkpt lat="57.978011984378099" lon="-4.522200962528586">
        <ele>132.31999999999999</ele>
        <time>2023-08-23T13:29:00Z</time>
      </trkpt>
      <trkpt lat="57.977915005758405" lon="-4.52248502522707">
        <ele>130.88</ele>
        <time>2023-08-23T13:29:01Z</time>
      </trkpt>
      <trkpt lat="57.977860020473599" lon="-4.522803034633398">
        <ele>129.43000000000001</ele>
        <time>2023-08-23T13:29:02Z</time>
      </trkpt>
      <trkpt lat="57.977848034352064" lon="-4.523118026554585">
        <ele>127.98999999999999</ele>
        <time>2023-08-23T13:29:03Z</time>
      </trkpt>
      <trkpt lat="57.977866977453232" lon="-4.52345103956759">
        <ele>126.55</ele>
        <time>2023-08-23T13:29:04Z</time>
      </trkpt>
      <trkpt lat="57.977893967181444" lon="-4.52379897236824">
        <ele>125.11</ele>
        <time>2023-08-23T13:29:05Z</time>
      </trkpt>
      <trkpt lat="57.977931015193462" lon="-4.524164004251361">
        <ele>123.67</ele>
        <time>2023-08-23T13:29:06Z</time>
      </trkpt>
      <trkpt lat="57.978159002959728" lon="-4.526986023411155">
        <ele>115.98</ele>
        <time>2023-08-23T13:29:14Z</time>
      </trkpt>
      <trkpt lat="57.978117009624839" lon="-4.528641030192375">
        <ele>111.65000000000001</ele>
        <time>2023-08-23T13:29:20Z</time>
      </trkpt>
      <trkpt lat="57.978133019059896" lon="-4.528798023238778">
        <ele>111.17</ele>
        <time>2023-08-23T13:29:21Z</time>
      </trkpt>
      <trkpt lat="57.978186998516321" lon="-4.528897013515234">
        <ele>108.29000000000001</ele>
        <time>2023-08-23T13:29:24Z</time>
      </trkpt>
      <trkpt lat="57.978204013779759" lon="-4.528917968273163">
        <ele>107.31999999999999</ele>
        <time>2023-08-23T13:29:25Z</time>
      </trkpt>
      <trkpt lat="57.978311972692609" lon="-4.52903900295496">
        <ele>105.40000000000001</ele>
        <time>2023-08-23T13:29:28Z</time>
      </trkpt>
      <trkpt lat="57.978381961584091" lon="-4.529116032645106">
        <ele>104.92</ele>
        <time>2023-08-23T13:29:29Z</time>
      </trkpt>
      <trkpt lat="57.978477012366056" lon="-4.529245030134916">
        <ele>104.44</ele>
        <time>2023-08-23T13:29:30Z</time>
      </trkpt>
      <trkpt lat="57.978543983772397" lon="-4.529417026787996">
        <ele>103.95999999999999</ele>
        <time>2023-08-23T13:29:31Z</time>
      </trkpt>
      <trkpt lat="57.978617995977402" lon="-4.529606038704515">
        <ele>103.48</ele>
        <time>2023-08-23T13:29:32Z</time>
      </trkpt>
      <trkpt lat="57.978683039546013" lon="-4.529857998713851">
        <ele>103.48</ele>
        <time>2023-08-23T13:29:33Z</time>
      </trkpt>
      <trkpt lat="57.978732995688915" lon="-4.530120017006993">
        <ele>103.95999999999999</ele>
        <time>2023-08-23T13:29:34Z</time>
      </trkpt>
      <trkpt lat="57.979123005643487" lon="-4.532363014295697">
        <ele>105.88</ele>
        <time>2023-08-23T13:29:42Z</time>
      </trkpt>
      <trkpt lat="57.979148989543319" lon="-4.532613968476653">
        <ele>105.88</ele>
        <time>2023-08-23T13:29:43Z</time>
      </trkpt>
      <trkpt lat="57.979157958179712" lon="-4.532908005639911">
        <ele>106.36</ele>
        <time>2023-08-23T13:29:44Z</time>
      </trkpt>
      <trkpt lat="57.978959977626801" lon="-4.535167012363672">
        <ele>109.25</ele>
        <time>2023-08-23T13:29:52Z</time>
      </trkpt>
      <trkpt lat="57.978344997391105" lon="-4.537988025695086">
        <ele>111.65000000000001</ele>
        <time>2023-08-23T13:30:01Z</time>
      </trkpt>
      <trkpt lat="57.977994969114661" lon="-4.540698984637857">
        <ele>108.77</ele>
        <time>2023-08-23T13:30:09Z</time>
      </trkpt>
      <trkpt lat="57.977987006306648" lon="-4.543041978031397">
        <ele>105.40000000000001</ele>
        <time>2023-08-23T13:30:16Z</time>
      </trkpt>
      <trkpt lat="57.97807602211833" lon="-4.545095041394234">
        <ele>101.56</ele>
        <time>2023-08-23T13:30:22Z</time>
      </trkpt>
      <trkpt lat="57.978120027109981" lon="-4.545397963374853">
        <ele>101.08</ele>
        <time>2023-08-23T13:30:23Z</time>
      </trkpt>
      <trkpt lat="57.978164032101631" lon="-4.545683031901717">
        <ele>100.59999999999999</ele>
        <time>2023-08-23T13:30:24Z</time>
      </trkpt>
      <trkpt lat="57.978222034871578" lon="-4.545943960547447">
        <ele>100.11</ele>
        <time>2023-08-23T13:30:25Z</time>
      </trkpt>
      <trkpt lat="57.978280959650874" lon="-4.54620698466897">
        <ele>99.629999999999995</ele>
        <time>2023-08-23T13:30:26Z</time>
      </trkpt>
      <trkpt lat="57.978338962420821" lon="-4.546470008790493">
        <ele>99.150000000000006</ele>
        <time>2023-08-23T13:30:27Z</time>
      </trkpt>
      <trkpt lat="57.978397971019149" lon="-4.546734960749745">
        <ele>98.670000000000002</ele>
        <time>2023-08-23T13:30:28Z</time>
      </trkpt>
      <trkpt lat="57.978411968797445" lon="-4.547042995691299">
        <ele>98.189999999999998</ele>
        <time>2023-08-23T13:30:29Z</time>
      </trkpt>
      <trkpt lat="57.978406017646194" lon="-4.547356981784105">
        <ele>97.230000000000004</ele>
        <time>2023-08-23T13:30:30Z</time>
      </trkpt>
      <trkpt lat="57.97839998267591" lon="-4.547669040039182">
        <ele>97.230000000000004</ele>
        <time>2023-08-23T13:30:31Z</time>
      </trkpt>
      <trkpt lat="57.978395037353039" lon="-4.547954024747014">
        <ele>97.230000000000004</ele>
        <time>2023-08-23T13:30:32Z</time>
      </trkpt>
      <trkpt lat="57.978421021252871" lon="-4.548260970041156">
        <ele>97.230000000000004</ele>
        <time>2023-08-23T13:30:33Z</time>
      </trkpt>
      <trkpt lat="57.978447005152702" lon="-4.548560036346316">
        <ele>97.230000000000004</ele>
        <time>2023-08-23T13:30:34Z</time>
      </trkpt>
      <trkpt lat="57.978470977395773" lon="-4.548842003569007">
        <ele>97.230000000000004</ele>
        <time>2023-08-23T13:30:35Z</time>
      </trkpt>
      <trkpt lat="57.978493021801114" lon="-4.549099998548627">
        <ele>96.75</ele>
        <time>2023-08-23T13:30:36Z</time>
      </trkpt>
      <trkpt lat="57.978465026244521" lon="-4.549346007406712">
        <ele>96.75</ele>
        <time>2023-08-23T13:30:37Z</time>
      </trkpt>
      <trkpt lat="57.978410962969065" lon="-4.549561003223062">
        <ele>96.75</ele>
        <time>2023-08-23T13:30:38Z</time>
      </trkpt>
      <trkpt lat="57.978355977684259" lon="-4.549783039838076">
        <ele>96.269999999999996</ele>
        <time>2023-08-23T13:30:39Z</time>
      </trkpt>
      <trkpt lat="57.978260004892945" lon="-4.549976997077465">
        <ele>96.269999999999996</ele>
        <time>2023-08-23T13:30:40Z</time>
      </trkpt>
      <trkpt lat="57.978164032101631" lon="-4.550103982910514">
        <ele>96.269999999999996</ele>
        <time>2023-08-23T13:30:41Z</time>
      </trkpt>
      <trkpt lat="57.978066969662905" lon="-4.550231974571943">
        <ele>95.790000000000006</ele>
        <time>2023-08-23T13:30:42Z</time>
      </trkpt>
      <trkpt lat="57.977839987725019" lon="-4.550551995635033">
        <ele>95.790000000000006</ele>
        <time>2023-08-23T13:30:45Z</time>
      </trkpt>
      <trkpt lat="57.977788019925356" lon="-4.550674958154559">
        <ele>95.310000000000002</ele>
        <time>2023-08-23T13:30:46Z</time>
      </trkpt>
      <trkpt lat="57.977750971913338" lon="-4.55080303363502">
        <ele>94.829999999999998</ele>
        <time>2023-08-23T13:30:47Z</time>
      </trkpt>
      <trkpt lat="57.977750971913338" lon="-4.550967989489436">
        <ele>94.829999999999998</ele>
        <time>2023-08-23T13:30:48Z</time>
      </trkpt>
      <trkpt lat="57.977750971913338" lon="-4.551152978092432">
        <ele>94.829999999999998</ele>
        <time>2023-08-23T13:30:49Z</time>
      </trkpt>
      <trkpt lat="57.977673020213842" lon="-4.553383989259601">
        <ele>93.870000000000005</ele>
        <time>2023-08-23T13:31:00Z</time>
      </trkpt>
      <trkpt lat="57.977471016347408" lon="-4.555731005966663">
        <ele>88.099999999999994</ele>
        <time>2023-08-23T13:31:09Z</time>
      </trkpt>
      <trkpt lat="57.977477973327041" lon="-4.558063019067049">
        <ele>80.890000000000001</ele>
        <time>2023-08-23T13:31:17Z</time>
      </trkpt>
      <trkpt lat="57.977601019665599" lon="-4.559836965054274">
        <ele>75.599999999999994</ele>
        <time>2023-08-23T13:31:24Z</time>
      </trkpt>
      <trkpt lat="57.977616023272276" lon="-4.560045003890991">
        <ele>75.120000000000005</ele>
        <time>2023-08-23T13:31:25Z</time>
      </trkpt>
      <trkpt lat="57.977657010778785" lon="-4.561670003458858">
        <ele>69.349999999999994</ele>
        <time>2023-08-23T13:31:34Z</time>
      </trkpt>
      <trkpt lat="57.977607976645231" lon="-4.562701983377338">
        <ele>66.950000000000003</ele>
        <time>2023-08-23T13:31:40Z</time>
      </trkpt>
      <trkpt lat="57.977670002728701" lon="-4.563572024926543">
        <ele>66.469999999999999</ele>
        <time>2023-08-23T13:31:46Z</time>
      </trkpt>
      <trkpt lat="57.977761030197144" lon="-4.564075022935867">
        <ele>66.950000000000003</ele>
        <time>2023-08-23T13:31:53Z</time>
      </trkpt>
      <trkpt lat="57.977783996611834" lon="-4.564175019040704">
        <ele>66.950000000000003</ele>
        <time>2023-08-23T13:31:54Z</time>
      </trkpt>
      <trkpt lat="57.977808974683285" lon="-4.564283983781934">
        <ele>66.950000000000003</ele>
        <time>2023-08-23T13:31:55Z</time>
      </trkpt>
      <trkpt lat="57.977834958583117" lon="-4.564402000978589">
        <ele>66.950000000000003</ele>
        <time>2023-08-23T13:31:56Z</time>
      </trkpt>
      <trkpt lat="57.97786395996809" lon="-4.564526975154877">
        <ele>67.430000000000007</ele>
        <time>2023-08-23T13:31:57Z</time>
      </trkpt>
      <trkpt lat="57.977901007980108" lon="-4.564691008999944">
        <ele>67.430000000000007</ele>
        <time>2023-08-23T13:31:58Z</time>
      </trkpt>
      <trkpt lat="57.977927997708321" lon="-4.564779018983245">
        <ele>67.430000000000007</ele>
        <time>2023-08-23T13:31:59Z</time>
      </trkpt>
      <trkpt lat="57.977964039891958" lon="-4.56489603035152">
        <ele>67.430000000000007</ele>
        <time>2023-08-23T13:32:00Z</time>
      </trkpt>
      <trkpt lat="57.977995974943042" lon="-4.565001977607608">
        <ele>67.909999999999997</ele>
        <time>2023-08-23T13:32:01Z</time>
      </trkpt>
      <trkpt lat="57.978021958842874" lon="-4.565085964277387">
        <ele>67.909999999999997</ele>
        <time>2023-08-23T13:32:02Z</time>
      </trkpt>
      <trkpt lat="57.978040985763073" lon="-4.565151007845998">
        <ele>68.390000000000001</ele>
        <time>2023-08-23T13:32:03Z</time>
      </trkpt>
      <trkpt lat="57.978054983541369" lon="-4.56519702449441">
        <ele>68.390000000000001</ele>
        <time>2023-08-23T13:32:04Z</time>
      </trkpt>
      <trkpt lat="57.978065963834524" lon="-4.565230971202254">
        <ele>68.390000000000001</ele>
        <time>2023-08-23T13:32:05Z</time>
      </trkpt>
      <trkpt lat="57.977889021858573" lon="-4.56552199088037">
        <ele>67.430000000000007</ele>
        <time>2023-08-23T13:32:10Z</time>
      </trkpt>
      <trkpt lat="57.978103011846542" lon="-4.565354017540813">
        <ele>65.989999999999995</ele>
        <time>2023-08-23T13:32:13Z</time>
      </trkpt>
      <trkpt lat="57.978111980482936" lon="-4.565383018925786">
        <ele>65.510000000000005</ele>
        <time>2023-08-23T13:32:14Z</time>
      </trkpt>
      <trkpt lat="57.978121032938361" lon="-4.56541202031076">
        <ele>65.030000000000001</ele>
        <time>2023-08-23T13:32:15Z</time>
      </trkpt>
      <trkpt lat="57.978121032938361" lon="-4.56541202031076">
        <ele>65.030000000000001</ele>
        <time>2023-08-23T13:32:16Z</time>
      </trkpt>
      <trkpt lat="57.978121032938361" lon="-4.56541202031076">
        <ele>64.549999999999997</ele>
        <time>2023-08-23T13:32:31Z</time>
      </trkpt>
      <trkpt lat="57.978121032938361" lon="-4.56541202031076">
        <ele>64.549999999999997</ele>
        <time>2023-08-23T13:32:56Z</time>
      </trkpt>
      <trkpt lat="57.978121032938361" lon="-4.56541202031076">
        <ele>63.579999999999998</ele>
        <time>2023-08-23T13:33:18Z</time>
      </trkpt>
      <trkpt lat="57.978121032938361" lon="-4.56541202031076">
        <ele>62.619999999999997</ele>
        <time>2023-08-23T13:33:41Z</time>
      </trkpt>
      <trkpt lat="57.978121032938361" lon="-4.56541202031076">
        <ele>62.619999999999997</ele>
        <time>2023-08-23T13:34:01Z</time>
      </trkpt>
      <trkpt lat="57.978121032938361" lon="-4.56541202031076">
        <ele>61.659999999999997</ele>
        <time>2023-08-23T13:34:21Z</time>
      </trkpt>
    </trkseg>
  </trk>

</gpx>